<?xml version="1.0" encoding="UTF-8" standalone="no" ?>
<gpx xmlns="http://www.topografix.com/GPX/1/1" xmlns:xsi="http://www.w3.org/2001/XMLSchema-instance" xsi:schemaLocation="http://www.topografix.com/GPX/1/1 http://www.topografix.com/GPX/1/1/gpx.xsd" version="1.1" creator="VisuGPX - https://www.visugpx.com">
  <metadata>
    <name>Mtp Grabels 03012021</name>
  </metadata>
  <trk>
    <name><![CDATA[Mtp Grabels 03012021_1]]></name>
    <trkseg>
      <trkpt lat="43.61151" lon="3.87757">
        <ele>47</ele>
        <time>2021-01-03T11:45:13Z</time>
      </trkpt>
      <trkpt lat="43.61151" lon="3.87754">
        <ele>47</ele>
        <time>2021-01-03T11:45:29Z</time>
      </trkpt>
      <trkpt lat="43.61154" lon="3.87752">
        <ele>47</ele>
        <time>2021-01-03T11:45:30Z</time>
      </trkpt>
      <trkpt lat="43.61156" lon="3.87751">
        <ele>47</ele>
        <time>2021-01-03T11:45:31Z</time>
      </trkpt>
      <trkpt lat="43.61158" lon="3.87749">
        <ele>83</ele>
        <time>2021-01-03T11:45:40Z</time>
      </trkpt>
      <trkpt lat="43.6116" lon="3.8775">
        <ele>47</ele>
        <time>2021-01-03T11:45:43Z</time>
      </trkpt>
      <trkpt lat="43.6116" lon="3.87753">
        <ele>47</ele>
        <time>2021-01-03T11:45:48Z</time>
      </trkpt>
      <trkpt lat="43.61158" lon="3.87753">
        <ele>83</ele>
        <time>2021-01-03T11:45:55Z</time>
      </trkpt>
      <trkpt lat="43.61162" lon="3.87744">
        <ele>85</ele>
        <time>2021-01-03T11:45:59Z</time>
      </trkpt>
      <trkpt lat="43.61164" lon="3.87741">
        <ele>47</ele>
        <time>2021-01-03T11:46:00Z</time>
      </trkpt>
      <trkpt lat="43.61166" lon="3.87737">
        <ele>47</ele>
        <time>2021-01-03T11:46:01Z</time>
      </trkpt>
      <trkpt lat="43.61167" lon="3.87733">
        <ele>47</ele>
        <time>2021-01-03T11:46:02Z</time>
      </trkpt>
      <trkpt lat="43.61169" lon="3.87727">
        <ele>46.8</ele>
        <time>2021-01-03T11:46:03Z</time>
      </trkpt>
      <trkpt lat="43.6117" lon="3.87721">
        <ele>46.8</ele>
        <time>2021-01-03T11:46:04Z</time>
      </trkpt>
      <trkpt lat="43.61171" lon="3.87715">
        <ele>46.7</ele>
        <time>2021-01-03T11:46:05Z</time>
      </trkpt>
      <trkpt lat="43.61172" lon="3.87709">
        <ele>46.6</ele>
        <time>2021-01-03T11:46:06Z</time>
      </trkpt>
      <trkpt lat="43.61174" lon="3.87704">
        <ele>46.5</ele>
        <time>2021-01-03T11:46:07Z</time>
      </trkpt>
      <trkpt lat="43.61176" lon="3.877">
        <ele>46.3</ele>
        <time>2021-01-03T11:46:08Z</time>
      </trkpt>
      <trkpt lat="43.61178" lon="3.87694">
        <ele>83</ele>
        <time>2021-01-03T11:46:09Z</time>
      </trkpt>
      <trkpt lat="43.61182" lon="3.87683">
        <ele>45.7</ele>
        <time>2021-01-03T11:46:11Z</time>
      </trkpt>
      <trkpt lat="43.61184" lon="3.87678">
        <ele>45.4</ele>
        <time>2021-01-03T11:46:12Z</time>
      </trkpt>
      <trkpt lat="43.61184" lon="3.87671">
        <ele>45.2</ele>
        <time>2021-01-03T11:46:13Z</time>
      </trkpt>
      <trkpt lat="43.61187" lon="3.87653">
        <ele>44.3</ele>
        <time>2021-01-03T11:46:16Z</time>
      </trkpt>
      <trkpt lat="43.61184" lon="3.87643">
        <ele>44.3</ele>
        <time>2021-01-03T11:46:18Z</time>
      </trkpt>
      <trkpt lat="43.61177" lon="3.87635">
        <ele>82</ele>
        <time>2021-01-03T11:46:19Z</time>
      </trkpt>
      <trkpt lat="43.61173" lon="3.87631">
        <ele>45.7</ele>
        <time>2021-01-03T11:46:20Z</time>
      </trkpt>
      <trkpt lat="43.61169" lon="3.87629">
        <ele>46.1</ele>
        <time>2021-01-03T11:46:21Z</time>
      </trkpt>
      <trkpt lat="43.61165" lon="3.87627">
        <ele>46.5</ele>
        <time>2021-01-03T11:46:22Z</time>
      </trkpt>
      <trkpt lat="43.61163" lon="3.87624">
        <ele>46.7</ele>
        <time>2021-01-03T11:46:23Z</time>
      </trkpt>
      <trkpt lat="43.6116" lon="3.87622">
        <ele>46.9</ele>
        <time>2021-01-03T11:46:24Z</time>
      </trkpt>
      <trkpt lat="43.61159" lon="3.87619">
        <ele>47.1</ele>
        <time>2021-01-03T11:46:25Z</time>
      </trkpt>
      <trkpt lat="43.61158" lon="3.87617">
        <ele>47.2</ele>
        <time>2021-01-03T11:46:26Z</time>
      </trkpt>
      <trkpt lat="43.61157" lon="3.87614">
        <ele>47.3</ele>
        <time>2021-01-03T11:46:27Z</time>
      </trkpt>
      <trkpt lat="43.61155" lon="3.87612">
        <ele>47.4</ele>
        <time>2021-01-03T11:46:28Z</time>
      </trkpt>
      <trkpt lat="43.61154" lon="3.87608">
        <ele>47.5</ele>
        <time>2021-01-03T11:46:30Z</time>
      </trkpt>
      <trkpt lat="43.61152" lon="3.87604">
        <ele>47.6</ele>
        <time>2021-01-03T11:46:31Z</time>
      </trkpt>
      <trkpt lat="43.6115" lon="3.87601">
        <ele>47.7</ele>
        <time>2021-01-03T11:46:32Z</time>
      </trkpt>
      <trkpt lat="43.61149" lon="3.87598">
        <ele>47.8</ele>
        <time>2021-01-03T11:46:33Z</time>
      </trkpt>
      <trkpt lat="43.61148" lon="3.87595">
        <ele>47.9</ele>
        <time>2021-01-03T11:46:34Z</time>
      </trkpt>
      <trkpt lat="43.61144" lon="3.87585">
        <ele>48</ele>
        <time>2021-01-03T11:46:37Z</time>
      </trkpt>
      <trkpt lat="43.61139" lon="3.87572">
        <ele>82</ele>
        <time>2021-01-03T11:46:39Z</time>
      </trkpt>
      <trkpt lat="43.61136" lon="3.8756">
        <ele>48</ele>
        <time>2021-01-03T11:46:42Z</time>
      </trkpt>
      <trkpt lat="43.61135" lon="3.87547">
        <ele>48.3</ele>
        <time>2021-01-03T11:46:45Z</time>
      </trkpt>
      <trkpt lat="43.61135" lon="3.87534">
        <ele>48.8</ele>
        <time>2021-01-03T11:46:47Z</time>
      </trkpt>
      <trkpt lat="43.61139" lon="3.8752">
        <ele>49</ele>
        <time>2021-01-03T11:46:51Z</time>
      </trkpt>
      <trkpt lat="43.61143" lon="3.87508">
        <ele>49</ele>
        <time>2021-01-03T11:46:54Z</time>
      </trkpt>
      <trkpt lat="43.61146" lon="3.87495">
        <ele>49</ele>
        <time>2021-01-03T11:46:57Z</time>
      </trkpt>
      <trkpt lat="43.61145" lon="3.8749">
        <ele>49</ele>
        <time>2021-01-03T11:46:58Z</time>
      </trkpt>
      <trkpt lat="43.61145" lon="3.87485">
        <ele>78</ele>
        <time>2021-01-03T11:46:59Z</time>
      </trkpt>
      <trkpt lat="43.61146" lon="3.87481">
        <ele>49</ele>
        <time>2021-01-03T11:47:00Z</time>
      </trkpt>
      <trkpt lat="43.61147" lon="3.87476">
        <ele>49</ele>
        <time>2021-01-03T11:47:01Z</time>
      </trkpt>
      <trkpt lat="43.61148" lon="3.87472">
        <ele>49</ele>
        <time>2021-01-03T11:47:02Z</time>
      </trkpt>
      <trkpt lat="43.61149" lon="3.87467">
        <ele>49.2</ele>
        <time>2021-01-03T11:47:03Z</time>
      </trkpt>
      <trkpt lat="43.6115" lon="3.87463">
        <ele>49.3</ele>
        <time>2021-01-03T11:47:04Z</time>
      </trkpt>
      <trkpt lat="43.61152" lon="3.8745">
        <ele>49.8</ele>
        <time>2021-01-03T11:47:07Z</time>
      </trkpt>
      <trkpt lat="43.61154" lon="3.87434">
        <ele>50</ele>
        <time>2021-01-03T11:47:11Z</time>
      </trkpt>
      <trkpt lat="43.61155" lon="3.87417">
        <ele>50</ele>
        <time>2021-01-03T11:47:15Z</time>
      </trkpt>
      <trkpt lat="43.61158" lon="3.874">
        <ele>50</ele>
        <time>2021-01-03T11:47:18Z</time>
      </trkpt>
      <trkpt lat="43.61159" lon="3.87384">
        <ele>50</ele>
        <time>2021-01-03T11:47:22Z</time>
      </trkpt>
      <trkpt lat="43.6117" lon="3.87382">
        <ele>49.9</ele>
        <time>2021-01-03T11:47:26Z</time>
      </trkpt>
      <trkpt lat="43.61178" lon="3.87384">
        <ele>49.6</ele>
        <time>2021-01-03T11:47:28Z</time>
      </trkpt>
      <trkpt lat="43.61183" lon="3.87385">
        <ele>78</ele>
        <time>2021-01-03T11:47:29Z</time>
      </trkpt>
      <trkpt lat="43.6119" lon="3.87377">
        <ele>49.2</ele>
        <time>2021-01-03T11:47:31Z</time>
      </trkpt>
      <trkpt lat="43.61194" lon="3.87372">
        <ele>49</ele>
        <time>2021-01-03T11:47:32Z</time>
      </trkpt>
      <trkpt lat="43.61197" lon="3.87368">
        <ele>48.7</ele>
        <time>2021-01-03T11:47:33Z</time>
      </trkpt>
      <trkpt lat="43.61201" lon="3.87363">
        <ele>48.3</ele>
        <time>2021-01-03T11:47:34Z</time>
      </trkpt>
      <trkpt lat="43.61205" lon="3.87358">
        <ele>48</ele>
        <time>2021-01-03T11:47:35Z</time>
      </trkpt>
      <trkpt lat="43.61208" lon="3.87352">
        <ele>48</ele>
        <time>2021-01-03T11:47:36Z</time>
      </trkpt>
      <trkpt lat="43.61217" lon="3.8734">
        <ele>47.5</ele>
        <time>2021-01-03T11:47:38Z</time>
      </trkpt>
      <trkpt lat="43.61224" lon="3.87328">
        <ele>46.6</ele>
        <time>2021-01-03T11:47:40Z</time>
      </trkpt>
      <trkpt lat="43.61232" lon="3.87316">
        <ele>45.3</ele>
        <time>2021-01-03T11:47:42Z</time>
      </trkpt>
      <trkpt lat="43.61241" lon="3.87305">
        <ele>44.3</ele>
        <time>2021-01-03T11:47:44Z</time>
      </trkpt>
      <trkpt lat="43.61249" lon="3.87293">
        <ele>43.2</ele>
        <time>2021-01-03T11:47:46Z</time>
      </trkpt>
      <trkpt lat="43.61255" lon="3.8728">
        <ele>42.5</ele>
        <time>2021-01-03T11:47:48Z</time>
      </trkpt>
      <trkpt lat="43.61261" lon="3.87268">
        <ele>41.5</ele>
        <time>2021-01-03T11:47:50Z</time>
      </trkpt>
      <trkpt lat="43.61263" lon="3.87262">
        <ele>41</ele>
        <time>2021-01-03T11:47:51Z</time>
      </trkpt>
      <trkpt lat="43.61265" lon="3.87256">
        <ele>40.6</ele>
        <time>2021-01-03T11:47:52Z</time>
      </trkpt>
      <trkpt lat="43.61265" lon="3.8725">
        <ele>40.4</ele>
        <time>2021-01-03T11:47:53Z</time>
      </trkpt>
      <trkpt lat="43.61264" lon="3.87244">
        <ele>40.2</ele>
        <time>2021-01-03T11:47:54Z</time>
      </trkpt>
      <trkpt lat="43.61262" lon="3.87237">
        <ele>40</ele>
        <time>2021-01-03T11:47:55Z</time>
      </trkpt>
      <trkpt lat="43.6126" lon="3.87231">
        <ele>40</ele>
        <time>2021-01-03T11:47:56Z</time>
      </trkpt>
      <trkpt lat="43.61259" lon="3.87224">
        <ele>39.8</ele>
        <time>2021-01-03T11:47:57Z</time>
      </trkpt>
      <trkpt lat="43.61257" lon="3.87218">
        <ele>39.8</ele>
        <time>2021-01-03T11:47:58Z</time>
      </trkpt>
      <trkpt lat="43.61257" lon="3.87211">
        <ele>62</ele>
        <time>2021-01-03T11:47:59Z</time>
      </trkpt>
      <trkpt lat="43.61258" lon="3.87204">
        <ele>39.2</ele>
        <time>2021-01-03T11:48:00Z</time>
      </trkpt>
      <trkpt lat="43.6126" lon="3.87196">
        <ele>38.6</ele>
        <time>2021-01-03T11:48:01Z</time>
      </trkpt>
      <trkpt lat="43.61261" lon="3.87189">
        <ele>38.6</ele>
        <time>2021-01-03T11:48:02Z</time>
      </trkpt>
      <trkpt lat="43.61262" lon="3.87181">
        <ele>38.7</ele>
        <time>2021-01-03T11:48:03Z</time>
      </trkpt>
      <trkpt lat="43.61263" lon="3.87174">
        <ele>38.8</ele>
        <time>2021-01-03T11:48:04Z</time>
      </trkpt>
      <trkpt lat="43.61264" lon="3.87166">
        <ele>39</ele>
        <time>2021-01-03T11:48:05Z</time>
      </trkpt>
      <trkpt lat="43.61266" lon="3.87159">
        <ele>38.8</ele>
        <time>2021-01-03T11:48:06Z</time>
      </trkpt>
      <trkpt lat="43.61267" lon="3.87151">
        <ele>38.8</ele>
        <time>2021-01-03T11:48:07Z</time>
      </trkpt>
      <trkpt lat="43.61268" lon="3.87144">
        <ele>38.7</ele>
        <time>2021-01-03T11:48:08Z</time>
      </trkpt>
      <trkpt lat="43.61269" lon="3.87137">
        <ele>59</ele>
        <time>2021-01-03T11:48:09Z</time>
      </trkpt>
      <trkpt lat="43.61271" lon="3.8713">
        <ele>38.7</ele>
        <time>2021-01-03T11:48:10Z</time>
      </trkpt>
      <trkpt lat="43.61273" lon="3.87123">
        <ele>38.8</ele>
        <time>2021-01-03T11:48:11Z</time>
      </trkpt>
      <trkpt lat="43.61274" lon="3.87115">
        <ele>39</ele>
        <time>2021-01-03T11:48:12Z</time>
      </trkpt>
      <trkpt lat="43.61275" lon="3.87108">
        <ele>39.1</ele>
        <time>2021-01-03T11:48:13Z</time>
      </trkpt>
      <trkpt lat="43.61276" lon="3.87101">
        <ele>39</ele>
        <time>2021-01-03T11:48:14Z</time>
      </trkpt>
      <trkpt lat="43.61277" lon="3.87094">
        <ele>39</ele>
        <time>2021-01-03T11:48:15Z</time>
      </trkpt>
      <trkpt lat="43.61278" lon="3.87087">
        <ele>39</ele>
        <time>2021-01-03T11:48:16Z</time>
      </trkpt>
      <trkpt lat="43.61278" lon="3.8708">
        <ele>39</ele>
        <time>2021-01-03T11:48:17Z</time>
      </trkpt>
      <trkpt lat="43.61279" lon="3.87073">
        <ele>39</ele>
        <time>2021-01-03T11:48:18Z</time>
      </trkpt>
      <trkpt lat="43.61281" lon="3.87065">
        <ele>58</ele>
        <time>2021-01-03T11:48:19Z</time>
      </trkpt>
      <trkpt lat="43.61283" lon="3.87057">
        <ele>39</ele>
        <time>2021-01-03T11:48:20Z</time>
      </trkpt>
      <trkpt lat="43.61285" lon="3.8705">
        <ele>39</ele>
        <time>2021-01-03T11:48:21Z</time>
      </trkpt>
      <trkpt lat="43.61287" lon="3.87043">
        <ele>39</ele>
        <time>2021-01-03T11:48:22Z</time>
      </trkpt>
      <trkpt lat="43.61289" lon="3.87036">
        <ele>39</ele>
        <time>2021-01-03T11:48:23Z</time>
      </trkpt>
      <trkpt lat="43.6129" lon="3.87029">
        <ele>39</ele>
        <time>2021-01-03T11:48:24Z</time>
      </trkpt>
      <trkpt lat="43.61292" lon="3.87022">
        <ele>38.8</ele>
        <time>2021-01-03T11:48:25Z</time>
      </trkpt>
      <trkpt lat="43.61295" lon="3.87015">
        <ele>38.4</ele>
        <time>2021-01-03T11:48:26Z</time>
      </trkpt>
      <trkpt lat="43.61297" lon="3.87008">
        <ele>38</ele>
        <time>2021-01-03T11:48:27Z</time>
      </trkpt>
      <trkpt lat="43.61299" lon="3.87">
        <ele>37.5</ele>
        <time>2021-01-03T11:48:28Z</time>
      </trkpt>
      <trkpt lat="43.61301" lon="3.86993">
        <ele>56</ele>
        <time>2021-01-03T11:48:29Z</time>
      </trkpt>
      <trkpt lat="43.61302" lon="3.86984">
        <ele>36.8</ele>
        <time>2021-01-03T11:48:30Z</time>
      </trkpt>
      <trkpt lat="43.61304" lon="3.86975">
        <ele>36.3</ele>
        <time>2021-01-03T11:48:31Z</time>
      </trkpt>
      <trkpt lat="43.61305" lon="3.86966">
        <ele>35.8</ele>
        <time>2021-01-03T11:48:32Z</time>
      </trkpt>
      <trkpt lat="43.61307" lon="3.86957">
        <ele>35.4</ele>
        <time>2021-01-03T11:48:33Z</time>
      </trkpt>
      <trkpt lat="43.61308" lon="3.86949">
        <ele>35.2</ele>
        <time>2021-01-03T11:48:34Z</time>
      </trkpt>
      <trkpt lat="43.61309" lon="3.86941">
        <ele>35.1</ele>
        <time>2021-01-03T11:48:35Z</time>
      </trkpt>
      <trkpt lat="43.61307" lon="3.86933">
        <ele>35</ele>
        <time>2021-01-03T11:48:36Z</time>
      </trkpt>
      <trkpt lat="43.61303" lon="3.86925">
        <ele>35.1</ele>
        <time>2021-01-03T11:48:37Z</time>
      </trkpt>
      <trkpt lat="43.61299" lon="3.86919">
        <ele>35.2</ele>
        <time>2021-01-03T11:48:38Z</time>
      </trkpt>
      <trkpt lat="43.61294" lon="3.86913">
        <ele>35.3</ele>
        <time>2021-01-03T11:48:39Z</time>
      </trkpt>
      <trkpt lat="43.6129" lon="3.86907">
        <ele>54</ele>
        <time>2021-01-03T11:48:40Z</time>
      </trkpt>
      <trkpt lat="43.61285" lon="3.86901">
        <ele>35.6</ele>
        <time>2021-01-03T11:48:41Z</time>
      </trkpt>
      <trkpt lat="43.61281" lon="3.86895">
        <ele>35.8</ele>
        <time>2021-01-03T11:48:42Z</time>
      </trkpt>
      <trkpt lat="43.61277" lon="3.8689">
        <ele>36.1</ele>
        <time>2021-01-03T11:48:43Z</time>
      </trkpt>
      <trkpt lat="43.61274" lon="3.86884">
        <ele>36.4</ele>
        <time>2021-01-03T11:48:44Z</time>
      </trkpt>
      <trkpt lat="43.6127" lon="3.86878">
        <ele>36.8</ele>
        <time>2021-01-03T11:48:45Z</time>
      </trkpt>
      <trkpt lat="43.61267" lon="3.86873">
        <ele>37.1</ele>
        <time>2021-01-03T11:48:46Z</time>
      </trkpt>
      <trkpt lat="43.61263" lon="3.86868">
        <ele>37.4</ele>
        <time>2021-01-03T11:48:47Z</time>
      </trkpt>
      <trkpt lat="43.61259" lon="3.86864">
        <ele>37.6</ele>
        <time>2021-01-03T11:48:48Z</time>
      </trkpt>
      <trkpt lat="43.61256" lon="3.86859">
        <ele>54</ele>
        <time>2021-01-03T11:48:49Z</time>
      </trkpt>
      <trkpt lat="43.61253" lon="3.86855">
        <ele>37.9</ele>
        <time>2021-01-03T11:48:50Z</time>
      </trkpt>
      <trkpt lat="43.6125" lon="3.8685">
        <ele>38</ele>
        <time>2021-01-03T11:48:51Z</time>
      </trkpt>
      <trkpt lat="43.61246" lon="3.86847">
        <ele>38.4</ele>
        <time>2021-01-03T11:48:52Z</time>
      </trkpt>
      <trkpt lat="43.61243" lon="3.86843">
        <ele>38.6</ele>
        <time>2021-01-03T11:48:53Z</time>
      </trkpt>
      <trkpt lat="43.6124" lon="3.86839">
        <ele>38.8</ele>
        <time>2021-01-03T11:48:54Z</time>
      </trkpt>
      <trkpt lat="43.61238" lon="3.86835">
        <ele>38.9</ele>
        <time>2021-01-03T11:48:55Z</time>
      </trkpt>
      <trkpt lat="43.61236" lon="3.8683">
        <ele>38.8</ele>
        <time>2021-01-03T11:48:56Z</time>
      </trkpt>
      <trkpt lat="43.61236" lon="3.86826">
        <ele>38.6</ele>
        <time>2021-01-03T11:48:57Z</time>
      </trkpt>
      <trkpt lat="43.61237" lon="3.86822">
        <ele>38.3</ele>
        <time>2021-01-03T11:48:58Z</time>
      </trkpt>
      <trkpt lat="43.61239" lon="3.86819">
        <ele>53</ele>
        <time>2021-01-03T11:48:59Z</time>
      </trkpt>
      <trkpt lat="43.61242" lon="3.86814">
        <ele>37.7</ele>
        <time>2021-01-03T11:49:00Z</time>
      </trkpt>
      <trkpt lat="43.61244" lon="3.8681">
        <ele>37.4</ele>
        <time>2021-01-03T11:49:01Z</time>
      </trkpt>
      <trkpt lat="43.61247" lon="3.86806">
        <ele>37.1</ele>
        <time>2021-01-03T11:49:02Z</time>
      </trkpt>
      <trkpt lat="43.61251" lon="3.86802">
        <ele>36.8</ele>
        <time>2021-01-03T11:49:03Z</time>
      </trkpt>
      <trkpt lat="43.61254" lon="3.86798">
        <ele>36.4</ele>
        <time>2021-01-03T11:49:04Z</time>
      </trkpt>
      <trkpt lat="43.61259" lon="3.86792">
        <ele>35.9</ele>
        <time>2021-01-03T11:49:05Z</time>
      </trkpt>
      <trkpt lat="43.61263" lon="3.86787">
        <ele>35.4</ele>
        <time>2021-01-03T11:49:06Z</time>
      </trkpt>
      <trkpt lat="43.61267" lon="3.8678">
        <ele>34.9</ele>
        <time>2021-01-03T11:49:07Z</time>
      </trkpt>
      <trkpt lat="43.61271" lon="3.86772">
        <ele>34.3</ele>
        <time>2021-01-03T11:49:08Z</time>
      </trkpt>
      <trkpt lat="43.61275" lon="3.86766">
        <ele>33.8</ele>
        <time>2021-01-03T11:49:09Z</time>
      </trkpt>
      <trkpt lat="43.61278" lon="3.86761">
        <ele>49</ele>
        <time>2021-01-03T11:49:10Z</time>
      </trkpt>
      <trkpt lat="43.61281" lon="3.86757">
        <ele>33.2</ele>
        <time>2021-01-03T11:49:11Z</time>
      </trkpt>
      <trkpt lat="43.61284" lon="3.86753">
        <ele>33.1</ele>
        <time>2021-01-03T11:49:12Z</time>
      </trkpt>
      <trkpt lat="43.61288" lon="3.86748">
        <ele>33</ele>
        <time>2021-01-03T11:49:13Z</time>
      </trkpt>
      <trkpt lat="43.6129" lon="3.86743">
        <ele>33</ele>
        <time>2021-01-03T11:49:14Z</time>
      </trkpt>
      <trkpt lat="43.61293" lon="3.86737">
        <ele>33</ele>
        <time>2021-01-03T11:49:15Z</time>
      </trkpt>
      <trkpt lat="43.61297" lon="3.86732">
        <ele>33</ele>
        <time>2021-01-03T11:49:16Z</time>
      </trkpt>
      <trkpt lat="43.61299" lon="3.86726">
        <ele>33</ele>
        <time>2021-01-03T11:49:17Z</time>
      </trkpt>
      <trkpt lat="43.61302" lon="3.8672">
        <ele>33</ele>
        <time>2021-01-03T11:49:18Z</time>
      </trkpt>
      <trkpt lat="43.61305" lon="3.86714">
        <ele>33</ele>
        <time>2021-01-03T11:49:19Z</time>
      </trkpt>
      <trkpt lat="43.61309" lon="3.86709">
        <ele>49</ele>
        <time>2021-01-03T11:49:20Z</time>
      </trkpt>
      <trkpt lat="43.61312" lon="3.86704">
        <ele>32.9</ele>
        <time>2021-01-03T11:49:21Z</time>
      </trkpt>
      <trkpt lat="43.61316" lon="3.86699">
        <ele>32.9</ele>
        <time>2021-01-03T11:49:22Z</time>
      </trkpt>
      <trkpt lat="43.61319" lon="3.86693">
        <ele>33</ele>
        <time>2021-01-03T11:49:23Z</time>
      </trkpt>
      <trkpt lat="43.61322" lon="3.86688">
        <ele>32.9</ele>
        <time>2021-01-03T11:49:24Z</time>
      </trkpt>
      <trkpt lat="43.61326" lon="3.86683">
        <ele>32.7</ele>
        <time>2021-01-03T11:49:25Z</time>
      </trkpt>
      <trkpt lat="43.61329" lon="3.86678">
        <ele>32.5</ele>
        <time>2021-01-03T11:49:26Z</time>
      </trkpt>
      <trkpt lat="43.61332" lon="3.86673">
        <ele>32.3</ele>
        <time>2021-01-03T11:49:27Z</time>
      </trkpt>
      <trkpt lat="43.61336" lon="3.86669">
        <ele>32.1</ele>
        <time>2021-01-03T11:49:28Z</time>
      </trkpt>
      <trkpt lat="43.6134" lon="3.86664">
        <ele>32.1</ele>
        <time>2021-01-03T11:49:29Z</time>
      </trkpt>
      <trkpt lat="43.61345" lon="3.86659">
        <ele>49</ele>
        <time>2021-01-03T11:49:30Z</time>
      </trkpt>
      <trkpt lat="43.61349" lon="3.86655">
        <ele>32.4</ele>
        <time>2021-01-03T11:49:31Z</time>
      </trkpt>
      <trkpt lat="43.61353" lon="3.8665">
        <ele>32.6</ele>
        <time>2021-01-03T11:49:32Z</time>
      </trkpt>
      <trkpt lat="43.61357" lon="3.86645">
        <ele>32.8</ele>
        <time>2021-01-03T11:49:33Z</time>
      </trkpt>
      <trkpt lat="43.61361" lon="3.8664">
        <ele>33</ele>
        <time>2021-01-03T11:49:34Z</time>
      </trkpt>
      <trkpt lat="43.61365" lon="3.86635">
        <ele>33</ele>
        <time>2021-01-03T11:49:35Z</time>
      </trkpt>
      <trkpt lat="43.61369" lon="3.86631">
        <ele>33.1</ele>
        <time>2021-01-03T11:49:36Z</time>
      </trkpt>
      <trkpt lat="43.61372" lon="3.86626">
        <ele>33.1</ele>
        <time>2021-01-03T11:49:37Z</time>
      </trkpt>
      <trkpt lat="43.61376" lon="3.86621">
        <ele>33.2</ele>
        <time>2021-01-03T11:49:38Z</time>
      </trkpt>
      <trkpt lat="43.61379" lon="3.86616">
        <ele>33.4</ele>
        <time>2021-01-03T11:49:39Z</time>
      </trkpt>
      <trkpt lat="43.61383" lon="3.86611">
        <ele>46</ele>
        <time>2021-01-03T11:49:40Z</time>
      </trkpt>
      <trkpt lat="43.61386" lon="3.86606">
        <ele>33.5</ele>
        <time>2021-01-03T11:49:41Z</time>
      </trkpt>
      <trkpt lat="43.6139" lon="3.866">
        <ele>33.2</ele>
        <time>2021-01-03T11:49:42Z</time>
      </trkpt>
      <trkpt lat="43.61393" lon="3.86595">
        <ele>33</ele>
        <time>2021-01-03T11:49:43Z</time>
      </trkpt>
      <trkpt lat="43.61396" lon="3.8659">
        <ele>32.9</ele>
        <time>2021-01-03T11:49:44Z</time>
      </trkpt>
      <trkpt lat="43.614" lon="3.86585">
        <ele>32.9</ele>
        <time>2021-01-03T11:49:45Z</time>
      </trkpt>
      <trkpt lat="43.61403" lon="3.8658">
        <ele>33</ele>
        <time>2021-01-03T11:49:46Z</time>
      </trkpt>
      <trkpt lat="43.61405" lon="3.86574">
        <ele>33.1</ele>
        <time>2021-01-03T11:49:47Z</time>
      </trkpt>
      <trkpt lat="43.61409" lon="3.86569">
        <ele>33.2</ele>
        <time>2021-01-03T11:49:48Z</time>
      </trkpt>
      <trkpt lat="43.61412" lon="3.86565">
        <ele>33.2</ele>
        <time>2021-01-03T11:49:49Z</time>
      </trkpt>
      <trkpt lat="43.61415" lon="3.8656">
        <ele>45</ele>
        <time>2021-01-03T11:49:50Z</time>
      </trkpt>
      <trkpt lat="43.61418" lon="3.86555">
        <ele>33.1</ele>
        <time>2021-01-03T11:49:51Z</time>
      </trkpt>
      <trkpt lat="43.61422" lon="3.8655">
        <ele>33.3</ele>
        <time>2021-01-03T11:49:52Z</time>
      </trkpt>
      <trkpt lat="43.61425" lon="3.86545">
        <ele>33.5</ele>
        <time>2021-01-03T11:49:53Z</time>
      </trkpt>
      <trkpt lat="43.61428" lon="3.86541">
        <ele>33.6</ele>
        <time>2021-01-03T11:49:54Z</time>
      </trkpt>
      <trkpt lat="43.61431" lon="3.86536">
        <ele>33.7</ele>
        <time>2021-01-03T11:49:55Z</time>
      </trkpt>
      <trkpt lat="43.61434" lon="3.86531">
        <ele>33.7</ele>
        <time>2021-01-03T11:49:56Z</time>
      </trkpt>
      <trkpt lat="43.61437" lon="3.86527">
        <ele>33.7</ele>
        <time>2021-01-03T11:49:57Z</time>
      </trkpt>
      <trkpt lat="43.6144" lon="3.86523">
        <ele>33.8</ele>
        <time>2021-01-03T11:49:58Z</time>
      </trkpt>
      <trkpt lat="43.61444" lon="3.86518">
        <ele>45</ele>
        <time>2021-01-03T11:49:59Z</time>
      </trkpt>
      <trkpt lat="43.61447" lon="3.86513">
        <ele>34</ele>
        <time>2021-01-03T11:50:00Z</time>
      </trkpt>
      <trkpt lat="43.6145" lon="3.86508">
        <ele>34</ele>
        <time>2021-01-03T11:50:01Z</time>
      </trkpt>
      <trkpt lat="43.61453" lon="3.86504">
        <ele>34</ele>
        <time>2021-01-03T11:50:02Z</time>
      </trkpt>
      <trkpt lat="43.61457" lon="3.86499">
        <ele>34</ele>
        <time>2021-01-03T11:50:03Z</time>
      </trkpt>
      <trkpt lat="43.6146" lon="3.86495">
        <ele>34.1</ele>
        <time>2021-01-03T11:50:04Z</time>
      </trkpt>
      <trkpt lat="43.61463" lon="3.8649">
        <ele>34.1</ele>
        <time>2021-01-03T11:50:05Z</time>
      </trkpt>
      <trkpt lat="43.61466" lon="3.86486">
        <ele>34.1</ele>
        <time>2021-01-03T11:50:06Z</time>
      </trkpt>
      <trkpt lat="43.61469" lon="3.86481">
        <ele>34.1</ele>
        <time>2021-01-03T11:50:07Z</time>
      </trkpt>
      <trkpt lat="43.61472" lon="3.86477">
        <ele>34</ele>
        <time>2021-01-03T11:50:08Z</time>
      </trkpt>
      <trkpt lat="43.61475" lon="3.86473">
        <ele>45</ele>
        <time>2021-01-03T11:50:09Z</time>
      </trkpt>
      <trkpt lat="43.61478" lon="3.86468">
        <ele>34.3</ele>
        <time>2021-01-03T11:50:10Z</time>
      </trkpt>
      <trkpt lat="43.61482" lon="3.86463">
        <ele>34.6</ele>
        <time>2021-01-03T11:50:11Z</time>
      </trkpt>
      <trkpt lat="43.61485" lon="3.86458">
        <ele>34.7</ele>
        <time>2021-01-03T11:50:12Z</time>
      </trkpt>
      <trkpt lat="43.61488" lon="3.86453">
        <ele>34.9</ele>
        <time>2021-01-03T11:50:13Z</time>
      </trkpt>
      <trkpt lat="43.61492" lon="3.86448">
        <ele>35</ele>
        <time>2021-01-03T11:50:14Z</time>
      </trkpt>
      <trkpt lat="43.61495" lon="3.86443">
        <ele>35</ele>
        <time>2021-01-03T11:50:15Z</time>
      </trkpt>
      <trkpt lat="43.61498" lon="3.86438">
        <ele>35</ele>
        <time>2021-01-03T11:50:16Z</time>
      </trkpt>
      <trkpt lat="43.61502" lon="3.86434">
        <ele>35.1</ele>
        <time>2021-01-03T11:50:17Z</time>
      </trkpt>
      <trkpt lat="43.61505" lon="3.86429">
        <ele>35.2</ele>
        <time>2021-01-03T11:50:18Z</time>
      </trkpt>
      <trkpt lat="43.61508" lon="3.86424">
        <ele>45</ele>
        <time>2021-01-03T11:50:19Z</time>
      </trkpt>
      <trkpt lat="43.61511" lon="3.86419">
        <ele>35.4</ele>
        <time>2021-01-03T11:50:20Z</time>
      </trkpt>
      <trkpt lat="43.61514" lon="3.86414">
        <ele>35.6</ele>
        <time>2021-01-03T11:50:21Z</time>
      </trkpt>
      <trkpt lat="43.61518" lon="3.86409">
        <ele>35.7</ele>
        <time>2021-01-03T11:50:22Z</time>
      </trkpt>
      <trkpt lat="43.61521" lon="3.86404">
        <ele>35.9</ele>
        <time>2021-01-03T11:50:23Z</time>
      </trkpt>
      <trkpt lat="43.61524" lon="3.864">
        <ele>35.9</ele>
        <time>2021-01-03T11:50:24Z</time>
      </trkpt>
      <trkpt lat="43.61527" lon="3.86395">
        <ele>36</ele>
        <time>2021-01-03T11:50:25Z</time>
      </trkpt>
      <trkpt lat="43.6153" lon="3.86391">
        <ele>36</ele>
        <time>2021-01-03T11:50:26Z</time>
      </trkpt>
      <trkpt lat="43.61533" lon="3.86386">
        <ele>36</ele>
        <time>2021-01-03T11:50:27Z</time>
      </trkpt>
      <trkpt lat="43.61536" lon="3.86381">
        <ele>36</ele>
        <time>2021-01-03T11:50:28Z</time>
      </trkpt>
      <trkpt lat="43.61541" lon="3.86373">
        <ele>46</ele>
        <time>2021-01-03T11:50:29Z</time>
      </trkpt>
      <trkpt lat="43.61544" lon="3.86369">
        <ele>36</ele>
        <time>2021-01-03T11:50:30Z</time>
      </trkpt>
      <trkpt lat="43.61548" lon="3.86364">
        <ele>36</ele>
        <time>2021-01-03T11:50:31Z</time>
      </trkpt>
      <trkpt lat="43.61551" lon="3.86359">
        <ele>36</ele>
        <time>2021-01-03T11:50:32Z</time>
      </trkpt>
      <trkpt lat="43.61554" lon="3.86354">
        <ele>36</ele>
        <time>2021-01-03T11:50:33Z</time>
      </trkpt>
      <trkpt lat="43.61557" lon="3.86349">
        <ele>36.1</ele>
        <time>2021-01-03T11:50:34Z</time>
      </trkpt>
      <trkpt lat="43.6156" lon="3.86345">
        <ele>36.2</ele>
        <time>2021-01-03T11:50:35Z</time>
      </trkpt>
      <trkpt lat="43.61563" lon="3.8634">
        <ele>36.3</ele>
        <time>2021-01-03T11:50:36Z</time>
      </trkpt>
      <trkpt lat="43.61566" lon="3.86335">
        <ele>36.4</ele>
        <time>2021-01-03T11:50:37Z</time>
      </trkpt>
      <trkpt lat="43.61569" lon="3.8633">
        <ele>36.5</ele>
        <time>2021-01-03T11:50:38Z</time>
      </trkpt>
      <trkpt lat="43.61572" lon="3.86326">
        <ele>36.7</ele>
        <time>2021-01-03T11:50:40Z</time>
      </trkpt>
      <trkpt lat="43.61576" lon="3.86321">
        <ele>36.9</ele>
        <time>2021-01-03T11:50:41Z</time>
      </trkpt>
      <trkpt lat="43.61579" lon="3.86316">
        <ele>36.9</ele>
        <time>2021-01-03T11:50:42Z</time>
      </trkpt>
      <trkpt lat="43.61582" lon="3.86312">
        <ele>37</ele>
        <time>2021-01-03T11:50:43Z</time>
      </trkpt>
      <trkpt lat="43.61585" lon="3.86307">
        <ele>37.1</ele>
        <time>2021-01-03T11:50:44Z</time>
      </trkpt>
      <trkpt lat="43.61587" lon="3.86303">
        <ele>37.1</ele>
        <time>2021-01-03T11:50:45Z</time>
      </trkpt>
      <trkpt lat="43.6159" lon="3.86298">
        <ele>37.2</ele>
        <time>2021-01-03T11:50:46Z</time>
      </trkpt>
      <trkpt lat="43.61593" lon="3.86295">
        <ele>37.3</ele>
        <time>2021-01-03T11:50:47Z</time>
      </trkpt>
      <trkpt lat="43.61596" lon="3.86291">
        <ele>37.5</ele>
        <time>2021-01-03T11:50:48Z</time>
      </trkpt>
      <trkpt lat="43.61599" lon="3.86287">
        <ele>48</ele>
        <time>2021-01-03T11:50:49Z</time>
      </trkpt>
      <trkpt lat="43.61602" lon="3.86281">
        <ele>37.7</ele>
        <time>2021-01-03T11:50:50Z</time>
      </trkpt>
      <trkpt lat="43.61605" lon="3.86277">
        <ele>37.8</ele>
        <time>2021-01-03T11:50:51Z</time>
      </trkpt>
      <trkpt lat="43.61608" lon="3.86272">
        <ele>37.9</ele>
        <time>2021-01-03T11:50:52Z</time>
      </trkpt>
      <trkpt lat="43.61612" lon="3.86268">
        <ele>38</ele>
        <time>2021-01-03T11:50:53Z</time>
      </trkpt>
      <trkpt lat="43.61615" lon="3.86264">
        <ele>38</ele>
        <time>2021-01-03T11:50:54Z</time>
      </trkpt>
      <trkpt lat="43.61618" lon="3.86259">
        <ele>38</ele>
        <time>2021-01-03T11:50:55Z</time>
      </trkpt>
      <trkpt lat="43.61621" lon="3.86255">
        <ele>38</ele>
        <time>2021-01-03T11:50:56Z</time>
      </trkpt>
      <trkpt lat="43.61624" lon="3.8625">
        <ele>38</ele>
        <time>2021-01-03T11:50:57Z</time>
      </trkpt>
      <trkpt lat="43.61627" lon="3.86246">
        <ele>38.1</ele>
        <time>2021-01-03T11:50:58Z</time>
      </trkpt>
      <trkpt lat="43.6163" lon="3.86241">
        <ele>48</ele>
        <time>2021-01-03T11:50:59Z</time>
      </trkpt>
      <trkpt lat="43.61633" lon="3.86236">
        <ele>38.5</ele>
        <time>2021-01-03T11:51:00Z</time>
      </trkpt>
      <trkpt lat="43.61635" lon="3.86232">
        <ele>38.6</ele>
        <time>2021-01-03T11:51:01Z</time>
      </trkpt>
      <trkpt lat="43.61638" lon="3.86227">
        <ele>38.8</ele>
        <time>2021-01-03T11:51:02Z</time>
      </trkpt>
      <trkpt lat="43.61642" lon="3.86224">
        <ele>38.9</ele>
        <time>2021-01-03T11:51:03Z</time>
      </trkpt>
      <trkpt lat="43.61645" lon="3.86219">
        <ele>38.9</ele>
        <time>2021-01-03T11:51:04Z</time>
      </trkpt>
      <trkpt lat="43.61648" lon="3.86215">
        <ele>38.8</ele>
        <time>2021-01-03T11:51:05Z</time>
      </trkpt>
      <trkpt lat="43.6165" lon="3.8621">
        <ele>38.7</ele>
        <time>2021-01-03T11:51:06Z</time>
      </trkpt>
      <trkpt lat="43.61654" lon="3.86206">
        <ele>38.7</ele>
        <time>2021-01-03T11:51:07Z</time>
      </trkpt>
      <trkpt lat="43.61657" lon="3.86201">
        <ele>38.7</ele>
        <time>2021-01-03T11:51:08Z</time>
      </trkpt>
      <trkpt lat="43.61659" lon="3.86197">
        <ele>48</ele>
        <time>2021-01-03T11:51:09Z</time>
      </trkpt>
      <trkpt lat="43.61662" lon="3.86192">
        <ele>38.8</ele>
        <time>2021-01-03T11:51:10Z</time>
      </trkpt>
      <trkpt lat="43.61665" lon="3.86188">
        <ele>38.9</ele>
        <time>2021-01-03T11:51:11Z</time>
      </trkpt>
      <trkpt lat="43.61668" lon="3.86184">
        <ele>39</ele>
        <time>2021-01-03T11:51:12Z</time>
      </trkpt>
      <trkpt lat="43.61671" lon="3.86179">
        <ele>39.2</ele>
        <time>2021-01-03T11:51:13Z</time>
      </trkpt>
      <trkpt lat="43.61674" lon="3.86175">
        <ele>39.3</ele>
        <time>2021-01-03T11:51:14Z</time>
      </trkpt>
      <trkpt lat="43.61677" lon="3.86171">
        <ele>39.4</ele>
        <time>2021-01-03T11:51:15Z</time>
      </trkpt>
      <trkpt lat="43.6168" lon="3.86167">
        <ele>39.5</ele>
        <time>2021-01-03T11:51:16Z</time>
      </trkpt>
      <trkpt lat="43.61683" lon="3.86163">
        <ele>39.6</ele>
        <time>2021-01-03T11:51:17Z</time>
      </trkpt>
      <trkpt lat="43.61685" lon="3.86159">
        <ele>39.7</ele>
        <time>2021-01-03T11:51:18Z</time>
      </trkpt>
      <trkpt lat="43.61688" lon="3.86154">
        <ele>47</ele>
        <time>2021-01-03T11:51:19Z</time>
      </trkpt>
      <trkpt lat="43.61691" lon="3.8615">
        <ele>39.9</ele>
        <time>2021-01-03T11:51:20Z</time>
      </trkpt>
      <trkpt lat="43.61694" lon="3.86146">
        <ele>40</ele>
        <time>2021-01-03T11:51:21Z</time>
      </trkpt>
      <trkpt lat="43.61697" lon="3.86143">
        <ele>40.2</ele>
        <time>2021-01-03T11:51:22Z</time>
      </trkpt>
      <trkpt lat="43.61699" lon="3.86138">
        <ele>40.3</ele>
        <time>2021-01-03T11:51:23Z</time>
      </trkpt>
      <trkpt lat="43.61702" lon="3.86135">
        <ele>40.5</ele>
        <time>2021-01-03T11:51:24Z</time>
      </trkpt>
      <trkpt lat="43.61704" lon="3.8613">
        <ele>40.6</ele>
        <time>2021-01-03T11:51:25Z</time>
      </trkpt>
      <trkpt lat="43.61707" lon="3.86126">
        <ele>40.7</ele>
        <time>2021-01-03T11:51:26Z</time>
      </trkpt>
      <trkpt lat="43.61709" lon="3.86122">
        <ele>40.7</ele>
        <time>2021-01-03T11:51:27Z</time>
      </trkpt>
      <trkpt lat="43.61712" lon="3.86117">
        <ele>40.8</ele>
        <time>2021-01-03T11:51:28Z</time>
      </trkpt>
      <trkpt lat="43.61714" lon="3.86112">
        <ele>47</ele>
        <time>2021-01-03T11:51:29Z</time>
      </trkpt>
      <trkpt lat="43.61717" lon="3.86108">
        <ele>40.8</ele>
        <time>2021-01-03T11:51:30Z</time>
      </trkpt>
      <trkpt lat="43.6172" lon="3.86104">
        <ele>40.9</ele>
        <time>2021-01-03T11:51:31Z</time>
      </trkpt>
      <trkpt lat="43.61723" lon="3.861">
        <ele>41.1</ele>
        <time>2021-01-03T11:51:32Z</time>
      </trkpt>
      <trkpt lat="43.61726" lon="3.86096">
        <ele>41.3</ele>
        <time>2021-01-03T11:51:33Z</time>
      </trkpt>
      <trkpt lat="43.61729" lon="3.86092">
        <ele>41.5</ele>
        <time>2021-01-03T11:51:34Z</time>
      </trkpt>
      <trkpt lat="43.61732" lon="3.86088">
        <ele>41.7</ele>
        <time>2021-01-03T11:51:35Z</time>
      </trkpt>
      <trkpt lat="43.61734" lon="3.86084">
        <ele>41.8</ele>
        <time>2021-01-03T11:51:36Z</time>
      </trkpt>
      <trkpt lat="43.61737" lon="3.86079">
        <ele>42.1</ele>
        <time>2021-01-03T11:51:37Z</time>
      </trkpt>
      <trkpt lat="43.6174" lon="3.86075">
        <ele>42.2</ele>
        <time>2021-01-03T11:51:38Z</time>
      </trkpt>
      <trkpt lat="43.61743" lon="3.86071">
        <ele>48</ele>
        <time>2021-01-03T11:51:39Z</time>
      </trkpt>
      <trkpt lat="43.61745" lon="3.86067">
        <ele>42.3</ele>
        <time>2021-01-03T11:51:40Z</time>
      </trkpt>
      <trkpt lat="43.61748" lon="3.86062">
        <ele>42.2</ele>
        <time>2021-01-03T11:51:41Z</time>
      </trkpt>
      <trkpt lat="43.61751" lon="3.86058">
        <ele>42.2</ele>
        <time>2021-01-03T11:51:42Z</time>
      </trkpt>
      <trkpt lat="43.61754" lon="3.86054">
        <ele>42.3</ele>
        <time>2021-01-03T11:51:43Z</time>
      </trkpt>
      <trkpt lat="43.61756" lon="3.8605">
        <ele>42.4</ele>
        <time>2021-01-03T11:51:44Z</time>
      </trkpt>
      <trkpt lat="43.61759" lon="3.86046">
        <ele>42.5</ele>
        <time>2021-01-03T11:51:45Z</time>
      </trkpt>
      <trkpt lat="43.61762" lon="3.86042">
        <ele>42.7</ele>
        <time>2021-01-03T11:51:46Z</time>
      </trkpt>
      <trkpt lat="43.61765" lon="3.86038">
        <ele>42.7</ele>
        <time>2021-01-03T11:51:47Z</time>
      </trkpt>
      <trkpt lat="43.61768" lon="3.86034">
        <ele>42.8</ele>
        <time>2021-01-03T11:51:48Z</time>
      </trkpt>
      <trkpt lat="43.61771" lon="3.8603">
        <ele>49</ele>
        <time>2021-01-03T11:51:49Z</time>
      </trkpt>
      <trkpt lat="43.61773" lon="3.86026">
        <ele>42.8</ele>
        <time>2021-01-03T11:51:50Z</time>
      </trkpt>
      <trkpt lat="43.61776" lon="3.86022">
        <ele>42.7</ele>
        <time>2021-01-03T11:51:51Z</time>
      </trkpt>
      <trkpt lat="43.61779" lon="3.86017">
        <ele>42.7</ele>
        <time>2021-01-03T11:51:52Z</time>
      </trkpt>
      <trkpt lat="43.61782" lon="3.86013">
        <ele>42.7</ele>
        <time>2021-01-03T11:51:53Z</time>
      </trkpt>
      <trkpt lat="43.61785" lon="3.86009">
        <ele>42.7</ele>
        <time>2021-01-03T11:51:54Z</time>
      </trkpt>
      <trkpt lat="43.61788" lon="3.86004">
        <ele>42.6</ele>
        <time>2021-01-03T11:51:55Z</time>
      </trkpt>
      <trkpt lat="43.61791" lon="3.86">
        <ele>42.5</ele>
        <time>2021-01-03T11:51:56Z</time>
      </trkpt>
      <trkpt lat="43.61794" lon="3.85995">
        <ele>42.4</ele>
        <time>2021-01-03T11:51:57Z</time>
      </trkpt>
      <trkpt lat="43.61797" lon="3.85991">
        <ele>42.2</ele>
        <time>2021-01-03T11:51:58Z</time>
      </trkpt>
      <trkpt lat="43.618" lon="3.85986">
        <ele>48</ele>
        <time>2021-01-03T11:51:59Z</time>
      </trkpt>
      <trkpt lat="43.61804" lon="3.85981">
        <ele>41.7</ele>
        <time>2021-01-03T11:52:00Z</time>
      </trkpt>
      <trkpt lat="43.61808" lon="3.85975">
        <ele>41.2</ele>
        <time>2021-01-03T11:52:01Z</time>
      </trkpt>
      <trkpt lat="43.61811" lon="3.8597">
        <ele>41</ele>
        <time>2021-01-03T11:52:02Z</time>
      </trkpt>
      <trkpt lat="43.61815" lon="3.85964">
        <ele>41.1</ele>
        <time>2021-01-03T11:52:03Z</time>
      </trkpt>
      <trkpt lat="43.61819" lon="3.85958">
        <ele>41</ele>
        <time>2021-01-03T11:52:04Z</time>
      </trkpt>
      <trkpt lat="43.61823" lon="3.85953">
        <ele>40.8</ele>
        <time>2021-01-03T11:52:05Z</time>
      </trkpt>
      <trkpt lat="43.61827" lon="3.85947">
        <ele>40.5</ele>
        <time>2021-01-03T11:52:06Z</time>
      </trkpt>
      <trkpt lat="43.61831" lon="3.85941">
        <ele>40</ele>
        <time>2021-01-03T11:52:07Z</time>
      </trkpt>
      <trkpt lat="43.61835" lon="3.85935">
        <ele>39.6</ele>
        <time>2021-01-03T11:52:08Z</time>
      </trkpt>
      <trkpt lat="43.61839" lon="3.85928">
        <ele>47</ele>
        <time>2021-01-03T11:52:09Z</time>
      </trkpt>
      <trkpt lat="43.61844" lon="3.85923">
        <ele>39.4</ele>
        <time>2021-01-03T11:52:10Z</time>
      </trkpt>
      <trkpt lat="43.61848" lon="3.85917">
        <ele>39.5</ele>
        <time>2021-01-03T11:52:11Z</time>
      </trkpt>
      <trkpt lat="43.61853" lon="3.85911">
        <ele>39.6</ele>
        <time>2021-01-03T11:52:12Z</time>
      </trkpt>
      <trkpt lat="43.61857" lon="3.85906">
        <ele>39.5</ele>
        <time>2021-01-03T11:52:13Z</time>
      </trkpt>
      <trkpt lat="43.61862" lon="3.85901">
        <ele>39.4</ele>
        <time>2021-01-03T11:52:14Z</time>
      </trkpt>
      <trkpt lat="43.61866" lon="3.85896">
        <ele>39.1</ele>
        <time>2021-01-03T11:52:15Z</time>
      </trkpt>
      <trkpt lat="43.61871" lon="3.85892">
        <ele>38.8</ele>
        <time>2021-01-03T11:52:16Z</time>
      </trkpt>
      <trkpt lat="43.61877" lon="3.85888">
        <ele>38.4</ele>
        <time>2021-01-03T11:52:17Z</time>
      </trkpt>
      <trkpt lat="43.61882" lon="3.85885">
        <ele>38.2</ele>
        <time>2021-01-03T11:52:18Z</time>
      </trkpt>
      <trkpt lat="43.61887" lon="3.85881">
        <ele>47</ele>
        <time>2021-01-03T11:52:19Z</time>
      </trkpt>
      <trkpt lat="43.61892" lon="3.85877">
        <ele>37.9</ele>
        <time>2021-01-03T11:52:20Z</time>
      </trkpt>
      <trkpt lat="43.61897" lon="3.85873">
        <ele>37.7</ele>
        <time>2021-01-03T11:52:21Z</time>
      </trkpt>
      <trkpt lat="43.61902" lon="3.8587">
        <ele>37.5</ele>
        <time>2021-01-03T11:52:22Z</time>
      </trkpt>
      <trkpt lat="43.61908" lon="3.85868">
        <ele>37.3</ele>
        <time>2021-01-03T11:52:23Z</time>
      </trkpt>
      <trkpt lat="43.61914" lon="3.85866">
        <ele>37.1</ele>
        <time>2021-01-03T11:52:24Z</time>
      </trkpt>
      <trkpt lat="43.6192" lon="3.85864">
        <ele>36.9</ele>
        <time>2021-01-03T11:52:25Z</time>
      </trkpt>
      <trkpt lat="43.61926" lon="3.85862">
        <ele>36.7</ele>
        <time>2021-01-03T11:52:26Z</time>
      </trkpt>
      <trkpt lat="43.61933" lon="3.8586">
        <ele>36.4</ele>
        <time>2021-01-03T11:52:27Z</time>
      </trkpt>
      <trkpt lat="43.61939" lon="3.85859">
        <ele>36.2</ele>
        <time>2021-01-03T11:52:28Z</time>
      </trkpt>
      <trkpt lat="43.61944" lon="3.8586">
        <ele>36</ele>
        <time>2021-01-03T11:52:29Z</time>
      </trkpt>
      <trkpt lat="43.6195" lon="3.85862">
        <ele>47</ele>
        <time>2021-01-03T11:52:30Z</time>
      </trkpt>
      <trkpt lat="43.61956" lon="3.85863">
        <ele>35.6</ele>
        <time>2021-01-03T11:52:31Z</time>
      </trkpt>
      <trkpt lat="43.61962" lon="3.85865">
        <ele>35.4</ele>
        <time>2021-01-03T11:52:32Z</time>
      </trkpt>
      <trkpt lat="43.61968" lon="3.85866">
        <ele>35.2</ele>
        <time>2021-01-03T11:52:33Z</time>
      </trkpt>
      <trkpt lat="43.61973" lon="3.85868">
        <ele>35</ele>
        <time>2021-01-03T11:52:34Z</time>
      </trkpt>
      <trkpt lat="43.61979" lon="3.85868">
        <ele>35</ele>
        <time>2021-01-03T11:52:35Z</time>
      </trkpt>
      <trkpt lat="43.61985" lon="3.85869">
        <ele>35</ele>
        <time>2021-01-03T11:52:36Z</time>
      </trkpt>
      <trkpt lat="43.61991" lon="3.85868">
        <ele>35</ele>
        <time>2021-01-03T11:52:37Z</time>
      </trkpt>
      <trkpt lat="43.61996" lon="3.85867">
        <ele>35</ele>
        <time>2021-01-03T11:52:38Z</time>
      </trkpt>
      <trkpt lat="43.62002" lon="3.85865">
        <ele>34.9</ele>
        <time>2021-01-03T11:52:39Z</time>
      </trkpt>
      <trkpt lat="43.62008" lon="3.85863">
        <ele>50</ele>
        <time>2021-01-03T11:52:40Z</time>
      </trkpt>
      <trkpt lat="43.62013" lon="3.8586">
        <ele>34.5</ele>
        <time>2021-01-03T11:52:41Z</time>
      </trkpt>
      <trkpt lat="43.62019" lon="3.85857">
        <ele>34.3</ele>
        <time>2021-01-03T11:52:42Z</time>
      </trkpt>
      <trkpt lat="43.62025" lon="3.85853">
        <ele>34.1</ele>
        <time>2021-01-03T11:52:43Z</time>
      </trkpt>
      <trkpt lat="43.62029" lon="3.85848">
        <ele>34</ele>
        <time>2021-01-03T11:52:44Z</time>
      </trkpt>
      <trkpt lat="43.62034" lon="3.85843">
        <ele>34</ele>
        <time>2021-01-03T11:52:45Z</time>
      </trkpt>
      <trkpt lat="43.62038" lon="3.85837">
        <ele>34</ele>
        <time>2021-01-03T11:52:46Z</time>
      </trkpt>
      <trkpt lat="43.62042" lon="3.85832">
        <ele>34</ele>
        <time>2021-01-03T11:52:47Z</time>
      </trkpt>
      <trkpt lat="43.62046" lon="3.85828">
        <ele>33.9</ele>
        <time>2021-01-03T11:52:48Z</time>
      </trkpt>
      <trkpt lat="43.62048" lon="3.85823">
        <ele>48</ele>
        <time>2021-01-03T11:52:49Z</time>
      </trkpt>
      <trkpt lat="43.6205" lon="3.85818">
        <ele>33.6</ele>
        <time>2021-01-03T11:52:50Z</time>
      </trkpt>
      <trkpt lat="43.62052" lon="3.85812">
        <ele>33.3</ele>
        <time>2021-01-03T11:52:51Z</time>
      </trkpt>
      <trkpt lat="43.62054" lon="3.85807">
        <ele>33.1</ele>
        <time>2021-01-03T11:52:52Z</time>
      </trkpt>
      <trkpt lat="43.62056" lon="3.85801">
        <ele>33</ele>
        <time>2021-01-03T11:52:53Z</time>
      </trkpt>
      <trkpt lat="43.62058" lon="3.85795">
        <ele>33</ele>
        <time>2021-01-03T11:52:54Z</time>
      </trkpt>
      <trkpt lat="43.62061" lon="3.85789">
        <ele>33</ele>
        <time>2021-01-03T11:52:55Z</time>
      </trkpt>
      <trkpt lat="43.62063" lon="3.85783">
        <ele>33</ele>
        <time>2021-01-03T11:52:56Z</time>
      </trkpt>
      <trkpt lat="43.62064" lon="3.85777">
        <ele>33</ele>
        <time>2021-01-03T11:52:57Z</time>
      </trkpt>
      <trkpt lat="43.62066" lon="3.85771">
        <ele>33.2</ele>
        <time>2021-01-03T11:52:58Z</time>
      </trkpt>
      <trkpt lat="43.62067" lon="3.85765">
        <ele>45</ele>
        <time>2021-01-03T11:52:59Z</time>
      </trkpt>
      <trkpt lat="43.62069" lon="3.85759">
        <ele>33.3</ele>
        <time>2021-01-03T11:53:00Z</time>
      </trkpt>
      <trkpt lat="43.62072" lon="3.85755">
        <ele>33.3</ele>
        <time>2021-01-03T11:53:01Z</time>
      </trkpt>
      <trkpt lat="43.62075" lon="3.85751">
        <ele>33.3</ele>
        <time>2021-01-03T11:53:02Z</time>
      </trkpt>
      <trkpt lat="43.62078" lon="3.85747">
        <ele>33.3</ele>
        <time>2021-01-03T11:53:03Z</time>
      </trkpt>
      <trkpt lat="43.62082" lon="3.85743">
        <ele>33.3</ele>
        <time>2021-01-03T11:53:04Z</time>
      </trkpt>
      <trkpt lat="43.62085" lon="3.85739">
        <ele>33.4</ele>
        <time>2021-01-03T11:53:05Z</time>
      </trkpt>
      <trkpt lat="43.6209" lon="3.85735">
        <ele>33.5</ele>
        <time>2021-01-03T11:53:06Z</time>
      </trkpt>
      <trkpt lat="43.62094" lon="3.8573">
        <ele>33.6</ele>
        <time>2021-01-03T11:53:07Z</time>
      </trkpt>
      <trkpt lat="43.62098" lon="3.85726">
        <ele>33.5</ele>
        <time>2021-01-03T11:53:08Z</time>
      </trkpt>
      <trkpt lat="43.621" lon="3.85719">
        <ele>44</ele>
        <time>2021-01-03T11:53:09Z</time>
      </trkpt>
      <trkpt lat="43.62102" lon="3.85713">
        <ele>33.6</ele>
        <time>2021-01-03T11:53:10Z</time>
      </trkpt>
      <trkpt lat="43.62103" lon="3.85707">
        <ele>33.7</ele>
        <time>2021-01-03T11:53:11Z</time>
      </trkpt>
      <trkpt lat="43.62105" lon="3.857">
        <ele>33.8</ele>
        <time>2021-01-03T11:53:12Z</time>
      </trkpt>
      <trkpt lat="43.62107" lon="3.85694">
        <ele>34</ele>
        <time>2021-01-03T11:53:13Z</time>
      </trkpt>
      <trkpt lat="43.62109" lon="3.85689">
        <ele>34</ele>
        <time>2021-01-03T11:53:14Z</time>
      </trkpt>
      <trkpt lat="43.62111" lon="3.85683">
        <ele>34</ele>
        <time>2021-01-03T11:53:15Z</time>
      </trkpt>
      <trkpt lat="43.62114" lon="3.85677">
        <ele>34.1</ele>
        <time>2021-01-03T11:53:16Z</time>
      </trkpt>
      <trkpt lat="43.62116" lon="3.85672">
        <ele>34.2</ele>
        <time>2021-01-03T11:53:17Z</time>
      </trkpt>
      <trkpt lat="43.62118" lon="3.85666">
        <ele>34.2</ele>
        <time>2021-01-03T11:53:18Z</time>
      </trkpt>
      <trkpt lat="43.62121" lon="3.85661">
        <ele>42</ele>
        <time>2021-01-03T11:53:19Z</time>
      </trkpt>
      <trkpt lat="43.62124" lon="3.85655">
        <ele>34.3</ele>
        <time>2021-01-03T11:53:20Z</time>
      </trkpt>
      <trkpt lat="43.62127" lon="3.85651">
        <ele>34.2</ele>
        <time>2021-01-03T11:53:21Z</time>
      </trkpt>
      <trkpt lat="43.6213" lon="3.85646">
        <ele>34.2</ele>
        <time>2021-01-03T11:53:22Z</time>
      </trkpt>
      <trkpt lat="43.62134" lon="3.85642">
        <ele>34.1</ele>
        <time>2021-01-03T11:53:23Z</time>
      </trkpt>
      <trkpt lat="43.62138" lon="3.85638">
        <ele>34</ele>
        <time>2021-01-03T11:53:24Z</time>
      </trkpt>
      <trkpt lat="43.62141" lon="3.85634">
        <ele>34.2</ele>
        <time>2021-01-03T11:53:25Z</time>
      </trkpt>
      <trkpt lat="43.62144" lon="3.85629">
        <ele>34.5</ele>
        <time>2021-01-03T11:53:26Z</time>
      </trkpt>
      <trkpt lat="43.62147" lon="3.85625">
        <ele>34.6</ele>
        <time>2021-01-03T11:53:27Z</time>
      </trkpt>
      <trkpt lat="43.6215" lon="3.8562">
        <ele>34.8</ele>
        <time>2021-01-03T11:53:28Z</time>
      </trkpt>
      <trkpt lat="43.62153" lon="3.85616">
        <ele>34.9</ele>
        <time>2021-01-03T11:53:29Z</time>
      </trkpt>
      <trkpt lat="43.62156" lon="3.85611">
        <ele>42</ele>
        <time>2021-01-03T11:53:30Z</time>
      </trkpt>
      <trkpt lat="43.62159" lon="3.85606">
        <ele>35</ele>
        <time>2021-01-03T11:53:31Z</time>
      </trkpt>
      <trkpt lat="43.62162" lon="3.85601">
        <ele>35</ele>
        <time>2021-01-03T11:53:32Z</time>
      </trkpt>
      <trkpt lat="43.62165" lon="3.85596">
        <ele>35</ele>
        <time>2021-01-03T11:53:33Z</time>
      </trkpt>
      <trkpt lat="43.62168" lon="3.85592">
        <ele>35</ele>
        <time>2021-01-03T11:53:34Z</time>
      </trkpt>
      <trkpt lat="43.62172" lon="3.85587">
        <ele>35</ele>
        <time>2021-01-03T11:53:35Z</time>
      </trkpt>
      <trkpt lat="43.62175" lon="3.85582">
        <ele>35</ele>
        <time>2021-01-03T11:53:36Z</time>
      </trkpt>
      <trkpt lat="43.62178" lon="3.85577">
        <ele>35</ele>
        <time>2021-01-03T11:53:37Z</time>
      </trkpt>
      <trkpt lat="43.62181" lon="3.85572">
        <ele>35</ele>
        <time>2021-01-03T11:53:38Z</time>
      </trkpt>
      <trkpt lat="43.62184" lon="3.85568">
        <ele>35</ele>
        <time>2021-01-03T11:53:39Z</time>
      </trkpt>
      <trkpt lat="43.62187" lon="3.85563">
        <ele>42</ele>
        <time>2021-01-03T11:53:40Z</time>
      </trkpt>
      <trkpt lat="43.6219" lon="3.85558">
        <ele>35</ele>
        <time>2021-01-03T11:53:41Z</time>
      </trkpt>
      <trkpt lat="43.62193" lon="3.85554">
        <ele>35.1</ele>
        <time>2021-01-03T11:53:42Z</time>
      </trkpt>
      <trkpt lat="43.62196" lon="3.85549">
        <ele>35.2</ele>
        <time>2021-01-03T11:53:43Z</time>
      </trkpt>
      <trkpt lat="43.62199" lon="3.85543">
        <ele>35.4</ele>
        <time>2021-01-03T11:53:44Z</time>
      </trkpt>
      <trkpt lat="43.62201" lon="3.85538">
        <ele>35.5</ele>
        <time>2021-01-03T11:53:45Z</time>
      </trkpt>
      <trkpt lat="43.62204" lon="3.85533">
        <ele>35.5</ele>
        <time>2021-01-03T11:53:46Z</time>
      </trkpt>
      <trkpt lat="43.62207" lon="3.85528">
        <ele>35.5</ele>
        <time>2021-01-03T11:53:47Z</time>
      </trkpt>
      <trkpt lat="43.6221" lon="3.85523">
        <ele>35.5</ele>
        <time>2021-01-03T11:53:48Z</time>
      </trkpt>
      <trkpt lat="43.62213" lon="3.85518">
        <ele>41</ele>
        <time>2021-01-03T11:53:49Z</time>
      </trkpt>
      <trkpt lat="43.62217" lon="3.85514">
        <ele>35.3</ele>
        <time>2021-01-03T11:53:50Z</time>
      </trkpt>
      <trkpt lat="43.6222" lon="3.85509">
        <ele>35.1</ele>
        <time>2021-01-03T11:53:51Z</time>
      </trkpt>
      <trkpt lat="43.62223" lon="3.85504">
        <ele>35</ele>
        <time>2021-01-03T11:53:52Z</time>
      </trkpt>
      <trkpt lat="43.62226" lon="3.85499">
        <ele>35.2</ele>
        <time>2021-01-03T11:53:53Z</time>
      </trkpt>
      <trkpt lat="43.62229" lon="3.85495">
        <ele>35.5</ele>
        <time>2021-01-03T11:53:54Z</time>
      </trkpt>
      <trkpt lat="43.62232" lon="3.8549">
        <ele>35.8</ele>
        <time>2021-01-03T11:53:55Z</time>
      </trkpt>
      <trkpt lat="43.62235" lon="3.85485">
        <ele>36</ele>
        <time>2021-01-03T11:53:56Z</time>
      </trkpt>
      <trkpt lat="43.62238" lon="3.8548">
        <ele>36.2</ele>
        <time>2021-01-03T11:53:57Z</time>
      </trkpt>
      <trkpt lat="43.62241" lon="3.85476">
        <ele>36.2</ele>
        <time>2021-01-03T11:53:58Z</time>
      </trkpt>
      <trkpt lat="43.62245" lon="3.85471">
        <ele>41</ele>
        <time>2021-01-03T11:53:59Z</time>
      </trkpt>
      <trkpt lat="43.62248" lon="3.85468">
        <ele>36.2</ele>
        <time>2021-01-03T11:54:00Z</time>
      </trkpt>
      <trkpt lat="43.62252" lon="3.85464">
        <ele>36.3</ele>
        <time>2021-01-03T11:54:01Z</time>
      </trkpt>
      <trkpt lat="43.62255" lon="3.85461">
        <ele>36.4</ele>
        <time>2021-01-03T11:54:02Z</time>
      </trkpt>
      <trkpt lat="43.62258" lon="3.85458">
        <ele>36.5</ele>
        <time>2021-01-03T11:54:03Z</time>
      </trkpt>
      <trkpt lat="43.62261" lon="3.85456">
        <ele>36.6</ele>
        <time>2021-01-03T11:54:04Z</time>
      </trkpt>
      <trkpt lat="43.62263" lon="3.85453">
        <ele>36.7</ele>
        <time>2021-01-03T11:54:05Z</time>
      </trkpt>
      <trkpt lat="43.62263" lon="3.85449">
        <ele>36.8</ele>
        <time>2021-01-03T11:54:06Z</time>
      </trkpt>
      <trkpt lat="43.62264" lon="3.85445">
        <ele>37</ele>
        <time>2021-01-03T11:54:07Z</time>
      </trkpt>
      <trkpt lat="43.62265" lon="3.85442">
        <ele>37.1</ele>
        <time>2021-01-03T11:54:08Z</time>
      </trkpt>
      <trkpt lat="43.62266" lon="3.85438">
        <ele>42</ele>
        <time>2021-01-03T11:54:09Z</time>
      </trkpt>
      <trkpt lat="43.62266" lon="3.85435">
        <ele>37.4</ele>
        <time>2021-01-03T11:54:10Z</time>
      </trkpt>
      <trkpt lat="43.62266" lon="3.85431">
        <ele>37.6</ele>
        <time>2021-01-03T11:54:11Z</time>
      </trkpt>
      <trkpt lat="43.62266" lon="3.85426">
        <ele>37.8</ele>
        <time>2021-01-03T11:54:12Z</time>
      </trkpt>
      <trkpt lat="43.62266" lon="3.85422">
        <ele>37.9</ele>
        <time>2021-01-03T11:54:13Z</time>
      </trkpt>
      <trkpt lat="43.62266" lon="3.85418">
        <ele>38.1</ele>
        <time>2021-01-03T11:54:14Z</time>
      </trkpt>
      <trkpt lat="43.62266" lon="3.85414">
        <ele>38.3</ele>
        <time>2021-01-03T11:54:15Z</time>
      </trkpt>
      <trkpt lat="43.62266" lon="3.8541">
        <ele>38.5</ele>
        <time>2021-01-03T11:54:16Z</time>
      </trkpt>
      <trkpt lat="43.62266" lon="3.85406">
        <ele>38.7</ele>
        <time>2021-01-03T11:54:17Z</time>
      </trkpt>
      <trkpt lat="43.62267" lon="3.85402">
        <ele>39</ele>
        <time>2021-01-03T11:54:18Z</time>
      </trkpt>
      <trkpt lat="43.62267" lon="3.85397">
        <ele>43</ele>
        <time>2021-01-03T11:54:19Z</time>
      </trkpt>
      <trkpt lat="43.62268" lon="3.85393">
        <ele>39.4</ele>
        <time>2021-01-03T11:54:20Z</time>
      </trkpt>
      <trkpt lat="43.62268" lon="3.85389">
        <ele>39.6</ele>
        <time>2021-01-03T11:54:21Z</time>
      </trkpt>
      <trkpt lat="43.62269" lon="3.85385">
        <ele>39.7</ele>
        <time>2021-01-03T11:54:22Z</time>
      </trkpt>
      <trkpt lat="43.62269" lon="3.85381">
        <ele>39.7</ele>
        <time>2021-01-03T11:54:23Z</time>
      </trkpt>
      <trkpt lat="43.6227" lon="3.85378">
        <ele>39.7</ele>
        <time>2021-01-03T11:54:24Z</time>
      </trkpt>
      <trkpt lat="43.6227" lon="3.85374">
        <ele>39.7</ele>
        <time>2021-01-03T11:54:25Z</time>
      </trkpt>
      <trkpt lat="43.62271" lon="3.8537">
        <ele>39.8</ele>
        <time>2021-01-03T11:54:26Z</time>
      </trkpt>
      <trkpt lat="43.62271" lon="3.85367">
        <ele>39.8</ele>
        <time>2021-01-03T11:54:27Z</time>
      </trkpt>
      <trkpt lat="43.62271" lon="3.85363">
        <ele>39.8</ele>
        <time>2021-01-03T11:54:28Z</time>
      </trkpt>
      <trkpt lat="43.62272" lon="3.8536">
        <ele>44</ele>
        <time>2021-01-03T11:54:29Z</time>
      </trkpt>
      <trkpt lat="43.62272" lon="3.85356">
        <ele>40.2</ele>
        <time>2021-01-03T11:54:30Z</time>
      </trkpt>
      <trkpt lat="43.62272" lon="3.85353">
        <ele>40.4</ele>
        <time>2021-01-03T11:54:31Z</time>
      </trkpt>
      <trkpt lat="43.62272" lon="3.8535">
        <ele>40.6</ele>
        <time>2021-01-03T11:54:32Z</time>
      </trkpt>
      <trkpt lat="43.62272" lon="3.85346">
        <ele>40.9</ele>
        <time>2021-01-03T11:54:33Z</time>
      </trkpt>
      <trkpt lat="43.62272" lon="3.85343">
        <ele>41.1</ele>
        <time>2021-01-03T11:54:34Z</time>
      </trkpt>
      <trkpt lat="43.62272" lon="3.85339">
        <ele>41.4</ele>
        <time>2021-01-03T11:54:35Z</time>
      </trkpt>
      <trkpt lat="43.62273" lon="3.85336">
        <ele>41.6</ele>
        <time>2021-01-03T11:54:36Z</time>
      </trkpt>
      <trkpt lat="43.62273" lon="3.85333">
        <ele>41.8</ele>
        <time>2021-01-03T11:54:37Z</time>
      </trkpt>
      <trkpt lat="43.62274" lon="3.85329">
        <ele>42</ele>
        <time>2021-01-03T11:54:38Z</time>
      </trkpt>
      <trkpt lat="43.62274" lon="3.85326">
        <ele>45</ele>
        <time>2021-01-03T11:54:39Z</time>
      </trkpt>
      <trkpt lat="43.62274" lon="3.85323">
        <ele>42.2</ele>
        <time>2021-01-03T11:54:40Z</time>
      </trkpt>
      <trkpt lat="43.62275" lon="3.85319">
        <ele>42.4</ele>
        <time>2021-01-03T11:54:41Z</time>
      </trkpt>
      <trkpt lat="43.62275" lon="3.85316">
        <ele>42.5</ele>
        <time>2021-01-03T11:54:42Z</time>
      </trkpt>
      <trkpt lat="43.62275" lon="3.85313">
        <ele>42.6</ele>
        <time>2021-01-03T11:54:43Z</time>
      </trkpt>
      <trkpt lat="43.62276" lon="3.8531">
        <ele>42.8</ele>
        <time>2021-01-03T11:54:44Z</time>
      </trkpt>
      <trkpt lat="43.62276" lon="3.85306">
        <ele>42.9</ele>
        <time>2021-01-03T11:54:45Z</time>
      </trkpt>
      <trkpt lat="43.62276" lon="3.85303">
        <ele>43</ele>
        <time>2021-01-03T11:54:46Z</time>
      </trkpt>
      <trkpt lat="43.62276" lon="3.853">
        <ele>43.1</ele>
        <time>2021-01-03T11:54:47Z</time>
      </trkpt>
      <trkpt lat="43.62277" lon="3.85296">
        <ele>43.3</ele>
        <time>2021-01-03T11:54:48Z</time>
      </trkpt>
      <trkpt lat="43.62277" lon="3.85293">
        <ele>46</ele>
        <time>2021-01-03T11:54:49Z</time>
      </trkpt>
      <trkpt lat="43.62278" lon="3.8529">
        <ele>43.6</ele>
        <time>2021-01-03T11:54:50Z</time>
      </trkpt>
      <trkpt lat="43.62278" lon="3.85287">
        <ele>43.7</ele>
        <time>2021-01-03T11:54:51Z</time>
      </trkpt>
      <trkpt lat="43.62278" lon="3.85283">
        <ele>43.8</ele>
        <time>2021-01-03T11:54:52Z</time>
      </trkpt>
      <trkpt lat="43.62279" lon="3.8528">
        <ele>43.9</ele>
        <time>2021-01-03T11:54:53Z</time>
      </trkpt>
      <trkpt lat="43.6228" lon="3.85277">
        <ele>43.9</ele>
        <time>2021-01-03T11:54:54Z</time>
      </trkpt>
      <trkpt lat="43.62281" lon="3.85274">
        <ele>44</ele>
        <time>2021-01-03T11:54:55Z</time>
      </trkpt>
      <trkpt lat="43.62282" lon="3.8527">
        <ele>44.1</ele>
        <time>2021-01-03T11:54:56Z</time>
      </trkpt>
      <trkpt lat="43.62282" lon="3.85267">
        <ele>44.2</ele>
        <time>2021-01-03T11:54:57Z</time>
      </trkpt>
      <trkpt lat="43.62283" lon="3.85264">
        <ele>44.2</ele>
        <time>2021-01-03T11:54:58Z</time>
      </trkpt>
      <trkpt lat="43.62284" lon="3.8526">
        <ele>47</ele>
        <time>2021-01-03T11:54:59Z</time>
      </trkpt>
      <trkpt lat="43.62285" lon="3.85257">
        <ele>44.3</ele>
        <time>2021-01-03T11:55:00Z</time>
      </trkpt>
      <trkpt lat="43.62286" lon="3.85254">
        <ele>44.3</ele>
        <time>2021-01-03T11:55:01Z</time>
      </trkpt>
      <trkpt lat="43.62287" lon="3.85251">
        <ele>44.3</ele>
        <time>2021-01-03T11:55:02Z</time>
      </trkpt>
      <trkpt lat="43.62288" lon="3.85248">
        <ele>44.5</ele>
        <time>2021-01-03T11:55:03Z</time>
      </trkpt>
      <trkpt lat="43.62288" lon="3.85245">
        <ele>44.9</ele>
        <time>2021-01-03T11:55:04Z</time>
      </trkpt>
      <trkpt lat="43.62289" lon="3.85242">
        <ele>45.1</ele>
        <time>2021-01-03T11:55:05Z</time>
      </trkpt>
      <trkpt lat="43.62289" lon="3.85239">
        <ele>45.5</ele>
        <time>2021-01-03T11:55:06Z</time>
      </trkpt>
      <trkpt lat="43.6229" lon="3.85236">
        <ele>45.7</ele>
        <time>2021-01-03T11:55:07Z</time>
      </trkpt>
      <trkpt lat="43.62291" lon="3.85233">
        <ele>45.9</ele>
        <time>2021-01-03T11:55:08Z</time>
      </trkpt>
      <trkpt lat="43.62293" lon="3.8523">
        <ele>48</ele>
        <time>2021-01-03T11:55:09Z</time>
      </trkpt>
      <trkpt lat="43.62294" lon="3.85227">
        <ele>46.2</ele>
        <time>2021-01-03T11:55:10Z</time>
      </trkpt>
      <trkpt lat="43.62296" lon="3.85224">
        <ele>46.2</ele>
        <time>2021-01-03T11:55:11Z</time>
      </trkpt>
      <trkpt lat="43.62297" lon="3.85222">
        <ele>46.2</ele>
        <time>2021-01-03T11:55:12Z</time>
      </trkpt>
      <trkpt lat="43.62299" lon="3.85219">
        <ele>46.2</ele>
        <time>2021-01-03T11:55:13Z</time>
      </trkpt>
      <trkpt lat="43.623" lon="3.85216">
        <ele>46.3</ele>
        <time>2021-01-03T11:55:14Z</time>
      </trkpt>
      <trkpt lat="43.62301" lon="3.85213">
        <ele>46.5</ele>
        <time>2021-01-03T11:55:15Z</time>
      </trkpt>
      <trkpt lat="43.62303" lon="3.8521">
        <ele>46.6</ele>
        <time>2021-01-03T11:55:16Z</time>
      </trkpt>
      <trkpt lat="43.62304" lon="3.85207">
        <ele>46.8</ele>
        <time>2021-01-03T11:55:17Z</time>
      </trkpt>
      <trkpt lat="43.62306" lon="3.85205">
        <ele>46.9</ele>
        <time>2021-01-03T11:55:18Z</time>
      </trkpt>
      <trkpt lat="43.62308" lon="3.85202">
        <ele>48</ele>
        <time>2021-01-03T11:55:19Z</time>
      </trkpt>
      <trkpt lat="43.62309" lon="3.85199">
        <ele>47.5</ele>
        <time>2021-01-03T11:55:20Z</time>
      </trkpt>
      <trkpt lat="43.62311" lon="3.85196">
        <ele>47.9</ele>
        <time>2021-01-03T11:55:21Z</time>
      </trkpt>
      <trkpt lat="43.62313" lon="3.85193">
        <ele>48</ele>
        <time>2021-01-03T11:55:22Z</time>
      </trkpt>
      <trkpt lat="43.62315" lon="3.85191">
        <ele>48.1</ele>
        <time>2021-01-03T11:55:23Z</time>
      </trkpt>
      <trkpt lat="43.62316" lon="3.85188">
        <ele>48.1</ele>
        <time>2021-01-03T11:55:24Z</time>
      </trkpt>
      <trkpt lat="43.62318" lon="3.85184">
        <ele>48.2</ele>
        <time>2021-01-03T11:55:25Z</time>
      </trkpt>
      <trkpt lat="43.6232" lon="3.85181">
        <ele>48.2</ele>
        <time>2021-01-03T11:55:26Z</time>
      </trkpt>
      <trkpt lat="43.62322" lon="3.85178">
        <ele>48.2</ele>
        <time>2021-01-03T11:55:27Z</time>
      </trkpt>
      <trkpt lat="43.62324" lon="3.85175">
        <ele>48.2</ele>
        <time>2021-01-03T11:55:28Z</time>
      </trkpt>
      <trkpt lat="43.62326" lon="3.85172">
        <ele>48</ele>
        <time>2021-01-03T11:55:29Z</time>
      </trkpt>
      <trkpt lat="43.62328" lon="3.85169">
        <ele>48.2</ele>
        <time>2021-01-03T11:55:30Z</time>
      </trkpt>
      <trkpt lat="43.62331" lon="3.85166">
        <ele>48.1</ele>
        <time>2021-01-03T11:55:31Z</time>
      </trkpt>
      <trkpt lat="43.62333" lon="3.85163">
        <ele>48</ele>
        <time>2021-01-03T11:55:32Z</time>
      </trkpt>
      <trkpt lat="43.62335" lon="3.8516">
        <ele>48</ele>
        <time>2021-01-03T11:55:33Z</time>
      </trkpt>
      <trkpt lat="43.62338" lon="3.85157">
        <ele>48.1</ele>
        <time>2021-01-03T11:55:34Z</time>
      </trkpt>
      <trkpt lat="43.6234" lon="3.85154">
        <ele>48.1</ele>
        <time>2021-01-03T11:55:35Z</time>
      </trkpt>
      <trkpt lat="43.62343" lon="3.85152">
        <ele>48.2</ele>
        <time>2021-01-03T11:55:36Z</time>
      </trkpt>
      <trkpt lat="43.62346" lon="3.85149">
        <ele>48.3</ele>
        <time>2021-01-03T11:55:37Z</time>
      </trkpt>
      <trkpt lat="43.62349" lon="3.85146">
        <ele>48.4</ele>
        <time>2021-01-03T11:55:38Z</time>
      </trkpt>
      <trkpt lat="43.62352" lon="3.85143">
        <ele>50</ele>
        <time>2021-01-03T11:55:39Z</time>
      </trkpt>
      <trkpt lat="43.62355" lon="3.8514">
        <ele>48.7</ele>
        <time>2021-01-03T11:55:40Z</time>
      </trkpt>
      <trkpt lat="43.62357" lon="3.85137">
        <ele>48.9</ele>
        <time>2021-01-03T11:55:41Z</time>
      </trkpt>
      <trkpt lat="43.6236" lon="3.85133">
        <ele>49</ele>
        <time>2021-01-03T11:55:42Z</time>
      </trkpt>
      <trkpt lat="43.62362" lon="3.85129">
        <ele>49</ele>
        <time>2021-01-03T11:55:43Z</time>
      </trkpt>
      <trkpt lat="43.62364" lon="3.85126">
        <ele>48.9</ele>
        <time>2021-01-03T11:55:44Z</time>
      </trkpt>
      <trkpt lat="43.62365" lon="3.85121">
        <ele>48.9</ele>
        <time>2021-01-03T11:55:45Z</time>
      </trkpt>
      <trkpt lat="43.62366" lon="3.85116">
        <ele>48.8</ele>
        <time>2021-01-03T11:55:46Z</time>
      </trkpt>
      <trkpt lat="43.62368" lon="3.85111">
        <ele>48.8</ele>
        <time>2021-01-03T11:55:47Z</time>
      </trkpt>
      <trkpt lat="43.6237" lon="3.85107">
        <ele>48.7</ele>
        <time>2021-01-03T11:55:48Z</time>
      </trkpt>
      <trkpt lat="43.62371" lon="3.85103">
        <ele>48.7</ele>
        <time>2021-01-03T11:55:49Z</time>
      </trkpt>
      <trkpt lat="43.62371" lon="3.85099">
        <ele>51</ele>
        <time>2021-01-03T11:55:50Z</time>
      </trkpt>
      <trkpt lat="43.62368" lon="3.85095">
        <ele>48.9</ele>
        <time>2021-01-03T11:55:51Z</time>
      </trkpt>
      <trkpt lat="43.62365" lon="3.85091">
        <ele>49</ele>
        <time>2021-01-03T11:55:52Z</time>
      </trkpt>
      <trkpt lat="43.62361" lon="3.85088">
        <ele>49</ele>
        <time>2021-01-03T11:55:53Z</time>
      </trkpt>
      <trkpt lat="43.62358" lon="3.85085">
        <ele>49</ele>
        <time>2021-01-03T11:55:54Z</time>
      </trkpt>
      <trkpt lat="43.62354" lon="3.85082">
        <ele>49</ele>
        <time>2021-01-03T11:55:55Z</time>
      </trkpt>
      <trkpt lat="43.6235" lon="3.8508">
        <ele>49</ele>
        <time>2021-01-03T11:55:56Z</time>
      </trkpt>
      <trkpt lat="43.62347" lon="3.85077">
        <ele>49.1</ele>
        <time>2021-01-03T11:55:57Z</time>
      </trkpt>
      <trkpt lat="43.62343" lon="3.85074">
        <ele>49.2</ele>
        <time>2021-01-03T11:55:58Z</time>
      </trkpt>
      <trkpt lat="43.62339" lon="3.85071">
        <ele>51</ele>
        <time>2021-01-03T11:55:59Z</time>
      </trkpt>
      <trkpt lat="43.62336" lon="3.85068">
        <ele>49.5</ele>
        <time>2021-01-03T11:56:00Z</time>
      </trkpt>
      <trkpt lat="43.62332" lon="3.85065">
        <ele>49.6</ele>
        <time>2021-01-03T11:56:01Z</time>
      </trkpt>
      <trkpt lat="43.62329" lon="3.85062">
        <ele>49.6</ele>
        <time>2021-01-03T11:56:02Z</time>
      </trkpt>
      <trkpt lat="43.62325" lon="3.8506">
        <ele>49.6</ele>
        <time>2021-01-03T11:56:03Z</time>
      </trkpt>
      <trkpt lat="43.62322" lon="3.85057">
        <ele>49.6</ele>
        <time>2021-01-03T11:56:04Z</time>
      </trkpt>
      <trkpt lat="43.62318" lon="3.85054">
        <ele>49.5</ele>
        <time>2021-01-03T11:56:05Z</time>
      </trkpt>
      <trkpt lat="43.62315" lon="3.85052">
        <ele>49.4</ele>
        <time>2021-01-03T11:56:06Z</time>
      </trkpt>
      <trkpt lat="43.62311" lon="3.85049">
        <ele>49.4</ele>
        <time>2021-01-03T11:56:07Z</time>
      </trkpt>
      <trkpt lat="43.62307" lon="3.85046">
        <ele>49.4</ele>
        <time>2021-01-03T11:56:08Z</time>
      </trkpt>
      <trkpt lat="43.62304" lon="3.85043">
        <ele>53</ele>
        <time>2021-01-03T11:56:09Z</time>
      </trkpt>
      <trkpt lat="43.623" lon="3.8504">
        <ele>49.4</ele>
        <time>2021-01-03T11:56:10Z</time>
      </trkpt>
      <trkpt lat="43.62297" lon="3.85037">
        <ele>49.4</ele>
        <time>2021-01-03T11:56:11Z</time>
      </trkpt>
      <trkpt lat="43.62294" lon="3.85034">
        <ele>49.4</ele>
        <time>2021-01-03T11:56:12Z</time>
      </trkpt>
      <trkpt lat="43.6229" lon="3.85032">
        <ele>49.3</ele>
        <time>2021-01-03T11:56:13Z</time>
      </trkpt>
      <trkpt lat="43.62286" lon="3.85029">
        <ele>49.3</ele>
        <time>2021-01-03T11:56:14Z</time>
      </trkpt>
      <trkpt lat="43.62283" lon="3.85024">
        <ele>49.3</ele>
        <time>2021-01-03T11:56:15Z</time>
      </trkpt>
      <trkpt lat="43.62281" lon="3.85019">
        <ele>49.4</ele>
        <time>2021-01-03T11:56:16Z</time>
      </trkpt>
      <trkpt lat="43.62281" lon="3.85013">
        <ele>49.6</ele>
        <time>2021-01-03T11:56:17Z</time>
      </trkpt>
      <trkpt lat="43.62282" lon="3.85008">
        <ele>49.9</ele>
        <time>2021-01-03T11:56:18Z</time>
      </trkpt>
      <trkpt lat="43.62282" lon="3.85003">
        <ele>54</ele>
        <time>2021-01-03T11:56:19Z</time>
      </trkpt>
      <trkpt lat="43.62283" lon="3.84999">
        <ele>50.3</ele>
        <time>2021-01-03T11:56:20Z</time>
      </trkpt>
      <trkpt lat="43.62283" lon="3.84996">
        <ele>50.5</ele>
        <time>2021-01-03T11:56:21Z</time>
      </trkpt>
      <trkpt lat="43.62283" lon="3.84992">
        <ele>50.8</ele>
        <time>2021-01-03T11:56:22Z</time>
      </trkpt>
      <trkpt lat="43.62283" lon="3.84989">
        <ele>51</ele>
        <time>2021-01-03T11:56:23Z</time>
      </trkpt>
      <trkpt lat="43.62282" lon="3.84986">
        <ele>51.2</ele>
        <time>2021-01-03T11:56:24Z</time>
      </trkpt>
      <trkpt lat="43.62282" lon="3.84983">
        <ele>51.4</ele>
        <time>2021-01-03T11:56:25Z</time>
      </trkpt>
      <trkpt lat="43.62281" lon="3.8498">
        <ele>51.6</ele>
        <time>2021-01-03T11:56:26Z</time>
      </trkpt>
      <trkpt lat="43.6228" lon="3.84977">
        <ele>51.7</ele>
        <time>2021-01-03T11:56:27Z</time>
      </trkpt>
      <trkpt lat="43.62279" lon="3.84974">
        <ele>51.9</ele>
        <time>2021-01-03T11:56:28Z</time>
      </trkpt>
      <trkpt lat="43.62279" lon="3.84971">
        <ele>52.1</ele>
        <time>2021-01-03T11:56:29Z</time>
      </trkpt>
      <trkpt lat="43.62278" lon="3.84969">
        <ele>56</ele>
        <time>2021-01-03T11:56:30Z</time>
      </trkpt>
      <trkpt lat="43.62277" lon="3.84966">
        <ele>52.4</ele>
        <time>2021-01-03T11:56:31Z</time>
      </trkpt>
      <trkpt lat="43.62276" lon="3.84963">
        <ele>52.6</ele>
        <time>2021-01-03T11:56:32Z</time>
      </trkpt>
      <trkpt lat="43.62275" lon="3.8496">
        <ele>52.8</ele>
        <time>2021-01-03T11:56:33Z</time>
      </trkpt>
      <trkpt lat="43.62275" lon="3.84958">
        <ele>53</ele>
        <time>2021-01-03T11:56:34Z</time>
      </trkpt>
      <trkpt lat="43.62274" lon="3.84955">
        <ele>53.2</ele>
        <time>2021-01-03T11:56:35Z</time>
      </trkpt>
      <trkpt lat="43.62273" lon="3.84952">
        <ele>53.3</ele>
        <time>2021-01-03T11:56:36Z</time>
      </trkpt>
      <trkpt lat="43.62272" lon="3.8495">
        <ele>53.4</ele>
        <time>2021-01-03T11:56:37Z</time>
      </trkpt>
      <trkpt lat="43.62271" lon="3.84947">
        <ele>53.6</ele>
        <time>2021-01-03T11:56:38Z</time>
      </trkpt>
      <trkpt lat="43.6227" lon="3.84945">
        <ele>56</ele>
        <time>2021-01-03T11:56:39Z</time>
      </trkpt>
      <trkpt lat="43.6227" lon="3.84942">
        <ele>54</ele>
        <time>2021-01-03T11:56:40Z</time>
      </trkpt>
      <trkpt lat="43.62269" lon="3.8494">
        <ele>54.2</ele>
        <time>2021-01-03T11:56:41Z</time>
      </trkpt>
      <trkpt lat="43.62268" lon="3.84935">
        <ele>54.6</ele>
        <time>2021-01-03T11:56:43Z</time>
      </trkpt>
      <trkpt lat="43.62267" lon="3.84933">
        <ele>54.8</ele>
        <time>2021-01-03T11:56:44Z</time>
      </trkpt>
      <trkpt lat="43.62267" lon="3.84928">
        <ele>55.3</ele>
        <time>2021-01-03T11:56:46Z</time>
      </trkpt>
      <trkpt lat="43.62267" lon="3.84926">
        <ele>55.5</ele>
        <time>2021-01-03T11:56:47Z</time>
      </trkpt>
      <trkpt lat="43.62267" lon="3.84923">
        <ele>55.8</ele>
        <time>2021-01-03T11:56:48Z</time>
      </trkpt>
      <trkpt lat="43.62267" lon="3.8492">
        <ele>58</ele>
        <time>2021-01-03T11:56:49Z</time>
      </trkpt>
      <trkpt lat="43.62268" lon="3.84917">
        <ele>56.6</ele>
        <time>2021-01-03T11:56:50Z</time>
      </trkpt>
      <trkpt lat="43.62268" lon="3.84914">
        <ele>56.7</ele>
        <time>2021-01-03T11:56:51Z</time>
      </trkpt>
      <trkpt lat="43.62269" lon="3.84911">
        <ele>56.9</ele>
        <time>2021-01-03T11:56:52Z</time>
      </trkpt>
      <trkpt lat="43.6227" lon="3.84909">
        <ele>57.2</ele>
        <time>2021-01-03T11:56:53Z</time>
      </trkpt>
      <trkpt lat="43.62271" lon="3.84906">
        <ele>57.4</ele>
        <time>2021-01-03T11:56:54Z</time>
      </trkpt>
      <trkpt lat="43.62271" lon="3.84903">
        <ele>57.5</ele>
        <time>2021-01-03T11:56:55Z</time>
      </trkpt>
      <trkpt lat="43.62272" lon="3.84901">
        <ele>57.7</ele>
        <time>2021-01-03T11:56:56Z</time>
      </trkpt>
      <trkpt lat="43.62273" lon="3.84898">
        <ele>58</ele>
        <time>2021-01-03T11:56:57Z</time>
      </trkpt>
      <trkpt lat="43.62273" lon="3.84894">
        <ele>61</ele>
        <time>2021-01-03T11:56:59Z</time>
      </trkpt>
      <trkpt lat="43.62271" lon="3.84893">
        <ele>57.9</ele>
        <time>2021-01-03T11:57:01Z</time>
      </trkpt>
      <trkpt lat="43.62269" lon="3.84893">
        <ele>57.6</ele>
        <time>2021-01-03T11:57:06Z</time>
      </trkpt>
      <trkpt lat="43.6227" lon="3.84893">
        <ele>61</ele>
        <time>2021-01-03T11:57:11Z</time>
      </trkpt>
      <trkpt lat="43.62274" lon="3.84896">
        <ele>62</ele>
        <time>2021-01-03T11:59:00Z</time>
      </trkpt>
      <trkpt lat="43.62274" lon="3.84901">
        <ele>58</ele>
        <time>2021-01-03T11:59:01Z</time>
      </trkpt>
      <trkpt lat="43.62274" lon="3.84905">
        <ele>57.9</ele>
        <time>2021-01-03T11:59:02Z</time>
      </trkpt>
      <trkpt lat="43.62273" lon="3.84908">
        <ele>57.6</ele>
        <time>2021-01-03T11:59:03Z</time>
      </trkpt>
      <trkpt lat="43.62271" lon="3.84911">
        <ele>57.2</ele>
        <time>2021-01-03T11:59:04Z</time>
      </trkpt>
      <trkpt lat="43.62269" lon="3.84912">
        <ele>56.9</ele>
        <time>2021-01-03T11:59:05Z</time>
      </trkpt>
      <trkpt lat="43.62268" lon="3.8491">
        <ele>56.8</ele>
        <time>2021-01-03T11:59:07Z</time>
      </trkpt>
      <trkpt lat="43.62268" lon="3.84909">
        <ele>63</ele>
        <time>2021-01-03T11:59:13Z</time>
      </trkpt>
      <trkpt lat="43.62272" lon="3.84901">
        <ele>65</ele>
        <time>2021-01-03T12:01:06Z</time>
      </trkpt>
      <trkpt lat="43.62273" lon="3.84898">
        <ele>58</ele>
        <time>2021-01-03T12:01:08Z</time>
      </trkpt>
      <trkpt lat="43.62272" lon="3.84896">
        <ele>57.9</ele>
        <time>2021-01-03T12:01:10Z</time>
      </trkpt>
      <trkpt lat="43.62272" lon="3.84893">
        <ele>58</ele>
        <time>2021-01-03T12:01:12Z</time>
      </trkpt>
      <trkpt lat="43.62274" lon="3.84889">
        <ele>58.5</ele>
        <time>2021-01-03T12:01:14Z</time>
      </trkpt>
      <trkpt lat="43.62275" lon="3.84886">
        <ele>58.8</ele>
        <time>2021-01-03T12:01:16Z</time>
      </trkpt>
      <trkpt lat="43.62276" lon="3.84883">
        <ele>59.1</ele>
        <time>2021-01-03T12:01:18Z</time>
      </trkpt>
      <trkpt lat="43.62278" lon="3.84882">
        <ele>59.5</ele>
        <time>2021-01-03T12:01:20Z</time>
      </trkpt>
      <trkpt lat="43.62279" lon="3.84885">
        <ele>59.3</ele>
        <time>2021-01-03T12:01:22Z</time>
      </trkpt>
      <trkpt lat="43.62277" lon="3.84886">
        <ele>59.1</ele>
        <time>2021-01-03T12:01:24Z</time>
      </trkpt>
      <trkpt lat="43.62275" lon="3.84885">
        <ele>66</ele>
        <time>2021-01-03T12:01:25Z</time>
      </trkpt>
      <trkpt lat="43.62274" lon="3.84882">
        <ele>58.9</ele>
        <time>2021-01-03T12:01:27Z</time>
      </trkpt>
      <trkpt lat="43.62276" lon="3.8488">
        <ele>59.3</ele>
        <time>2021-01-03T12:01:29Z</time>
      </trkpt>
      <trkpt lat="43.62278" lon="3.84879">
        <ele>59.7</ele>
        <time>2021-01-03T12:01:31Z</time>
      </trkpt>
      <trkpt lat="43.62279" lon="3.84876">
        <ele>60</ele>
        <time>2021-01-03T12:01:33Z</time>
      </trkpt>
      <trkpt lat="43.62279" lon="3.84872">
        <ele>60.3</ele>
        <time>2021-01-03T12:01:36Z</time>
      </trkpt>
      <trkpt lat="43.6228" lon="3.84867">
        <ele>60.7</ele>
        <time>2021-01-03T12:01:38Z</time>
      </trkpt>
      <trkpt lat="43.6228" lon="3.84862">
        <ele>61.1</ele>
        <time>2021-01-03T12:01:40Z</time>
      </trkpt>
      <trkpt lat="43.62281" lon="3.84858">
        <ele>61.3</ele>
        <time>2021-01-03T12:01:42Z</time>
      </trkpt>
      <trkpt lat="43.62281" lon="3.84855">
        <ele>61.4</ele>
        <time>2021-01-03T12:01:43Z</time>
      </trkpt>
      <trkpt lat="43.6228" lon="3.84852">
        <ele>61.4</ele>
        <time>2021-01-03T12:01:44Z</time>
      </trkpt>
      <trkpt lat="43.6228" lon="3.84848">
        <ele>67</ele>
        <time>2021-01-03T12:01:45Z</time>
      </trkpt>
      <trkpt lat="43.6228" lon="3.84845">
        <ele>61.6</ele>
        <time>2021-01-03T12:01:46Z</time>
      </trkpt>
      <trkpt lat="43.62279" lon="3.84841">
        <ele>61.7</ele>
        <time>2021-01-03T12:01:47Z</time>
      </trkpt>
      <trkpt lat="43.62279" lon="3.84837">
        <ele>61.8</ele>
        <time>2021-01-03T12:01:48Z</time>
      </trkpt>
      <trkpt lat="43.62278" lon="3.84833">
        <ele>62</ele>
        <time>2021-01-03T12:01:49Z</time>
      </trkpt>
      <trkpt lat="43.62278" lon="3.84829">
        <ele>61.8</ele>
        <time>2021-01-03T12:01:50Z</time>
      </trkpt>
      <trkpt lat="43.62278" lon="3.84825">
        <ele>61.7</ele>
        <time>2021-01-03T12:01:51Z</time>
      </trkpt>
      <trkpt lat="43.62278" lon="3.84821">
        <ele>61.5</ele>
        <time>2021-01-03T12:01:52Z</time>
      </trkpt>
      <trkpt lat="43.62278" lon="3.84816">
        <ele>61.4</ele>
        <time>2021-01-03T12:01:53Z</time>
      </trkpt>
      <trkpt lat="43.62278" lon="3.84811">
        <ele>61.2</ele>
        <time>2021-01-03T12:01:54Z</time>
      </trkpt>
      <trkpt lat="43.62278" lon="3.84806">
        <ele>67</ele>
        <time>2021-01-03T12:01:55Z</time>
      </trkpt>
      <trkpt lat="43.62279" lon="3.84801">
        <ele>60.8</ele>
        <time>2021-01-03T12:01:56Z</time>
      </trkpt>
      <trkpt lat="43.62279" lon="3.84796">
        <ele>60.6</ele>
        <time>2021-01-03T12:01:57Z</time>
      </trkpt>
      <trkpt lat="43.6228" lon="3.84791">
        <ele>60.3</ele>
        <time>2021-01-03T12:01:58Z</time>
      </trkpt>
      <trkpt lat="43.6228" lon="3.84785">
        <ele>60.1</ele>
        <time>2021-01-03T12:01:59Z</time>
      </trkpt>
      <trkpt lat="43.62281" lon="3.8478">
        <ele>59.8</ele>
        <time>2021-01-03T12:02:00Z</time>
      </trkpt>
      <trkpt lat="43.62282" lon="3.84774">
        <ele>59.3</ele>
        <time>2021-01-03T12:02:01Z</time>
      </trkpt>
      <trkpt lat="43.62283" lon="3.84768">
        <ele>58.8</ele>
        <time>2021-01-03T12:02:02Z</time>
      </trkpt>
      <trkpt lat="43.62283" lon="3.84763">
        <ele>58.5</ele>
        <time>2021-01-03T12:02:03Z</time>
      </trkpt>
      <trkpt lat="43.62281" lon="3.84758">
        <ele>58.3</ele>
        <time>2021-01-03T12:02:04Z</time>
      </trkpt>
      <trkpt lat="43.6228" lon="3.84754">
        <ele>58.1</ele>
        <time>2021-01-03T12:02:05Z</time>
      </trkpt>
      <trkpt lat="43.62279" lon="3.84749">
        <ele>66</ele>
        <time>2021-01-03T12:02:06Z</time>
      </trkpt>
      <trkpt lat="43.62278" lon="3.84744">
        <ele>58</ele>
        <time>2021-01-03T12:02:07Z</time>
      </trkpt>
      <trkpt lat="43.62276" lon="3.84738">
        <ele>57.8</ele>
        <time>2021-01-03T12:02:08Z</time>
      </trkpt>
      <trkpt lat="43.62275" lon="3.84732">
        <ele>57.6</ele>
        <time>2021-01-03T12:02:09Z</time>
      </trkpt>
      <trkpt lat="43.62273" lon="3.84726">
        <ele>57.2</ele>
        <time>2021-01-03T12:02:10Z</time>
      </trkpt>
      <trkpt lat="43.62272" lon="3.84721">
        <ele>56.9</ele>
        <time>2021-01-03T12:02:11Z</time>
      </trkpt>
      <trkpt lat="43.6227" lon="3.84715">
        <ele>55.9</ele>
        <time>2021-01-03T12:02:12Z</time>
      </trkpt>
      <trkpt lat="43.62268" lon="3.8471">
        <ele>55.1</ele>
        <time>2021-01-03T12:02:13Z</time>
      </trkpt>
      <trkpt lat="43.62266" lon="3.84704">
        <ele>54</ele>
        <time>2021-01-03T12:02:14Z</time>
      </trkpt>
      <trkpt lat="43.62265" lon="3.84699">
        <ele>65</ele>
        <time>2021-01-03T12:02:15Z</time>
      </trkpt>
      <trkpt lat="43.62263" lon="3.84693">
        <ele>52.4</ele>
        <time>2021-01-03T12:02:16Z</time>
      </trkpt>
      <trkpt lat="43.6226" lon="3.84687">
        <ele>52.1</ele>
        <time>2021-01-03T12:02:17Z</time>
      </trkpt>
      <trkpt lat="43.62257" lon="3.84681">
        <ele>52.1</ele>
        <time>2021-01-03T12:02:18Z</time>
      </trkpt>
      <trkpt lat="43.62253" lon="3.84674">
        <ele>52.3</ele>
        <time>2021-01-03T12:02:19Z</time>
      </trkpt>
      <trkpt lat="43.62249" lon="3.84668">
        <ele>52.6</ele>
        <time>2021-01-03T12:02:20Z</time>
      </trkpt>
      <trkpt lat="43.62244" lon="3.84661">
        <ele>51.5</ele>
        <time>2021-01-03T12:02:21Z</time>
      </trkpt>
      <trkpt lat="43.62239" lon="3.84655">
        <ele>50.6</ele>
        <time>2021-01-03T12:02:22Z</time>
      </trkpt>
      <trkpt lat="43.62233" lon="3.8465">
        <ele>50</ele>
        <time>2021-01-03T12:02:23Z</time>
      </trkpt>
      <trkpt lat="43.62228" lon="3.84644">
        <ele>49.9</ele>
        <time>2021-01-03T12:02:24Z</time>
      </trkpt>
      <trkpt lat="43.62223" lon="3.84639">
        <ele>50</ele>
        <time>2021-01-03T12:02:25Z</time>
      </trkpt>
      <trkpt lat="43.6222" lon="3.84633">
        <ele>65</ele>
        <time>2021-01-03T12:02:26Z</time>
      </trkpt>
      <trkpt lat="43.62219" lon="3.84626">
        <ele>49.2</ele>
        <time>2021-01-03T12:02:27Z</time>
      </trkpt>
      <trkpt lat="43.62219" lon="3.84618">
        <ele>49</ele>
        <time>2021-01-03T12:02:28Z</time>
      </trkpt>
      <trkpt lat="43.62221" lon="3.8461">
        <ele>48.9</ele>
        <time>2021-01-03T12:02:29Z</time>
      </trkpt>
      <trkpt lat="43.62223" lon="3.84604">
        <ele>48.8</ele>
        <time>2021-01-03T12:02:30Z</time>
      </trkpt>
      <trkpt lat="43.62224" lon="3.84599">
        <ele>48.7</ele>
        <time>2021-01-03T12:02:31Z</time>
      </trkpt>
      <trkpt lat="43.62224" lon="3.84595">
        <ele>48.6</ele>
        <time>2021-01-03T12:02:32Z</time>
      </trkpt>
      <trkpt lat="43.62223" lon="3.84591">
        <ele>48.3</ele>
        <time>2021-01-03T12:02:33Z</time>
      </trkpt>
      <trkpt lat="43.62223" lon="3.84586">
        <ele>48.2</ele>
        <time>2021-01-03T12:02:34Z</time>
      </trkpt>
      <trkpt lat="43.62223" lon="3.8458">
        <ele>48.2</ele>
        <time>2021-01-03T12:02:35Z</time>
      </trkpt>
      <trkpt lat="43.62225" lon="3.84575">
        <ele>63</ele>
        <time>2021-01-03T12:02:36Z</time>
      </trkpt>
      <trkpt lat="43.62227" lon="3.8457">
        <ele>48.9</ele>
        <time>2021-01-03T12:02:37Z</time>
      </trkpt>
      <trkpt lat="43.62229" lon="3.84565">
        <ele>49.3</ele>
        <time>2021-01-03T12:02:38Z</time>
      </trkpt>
      <trkpt lat="43.62231" lon="3.84561">
        <ele>49.7</ele>
        <time>2021-01-03T12:02:39Z</time>
      </trkpt>
      <trkpt lat="43.62234" lon="3.84558">
        <ele>50.1</ele>
        <time>2021-01-03T12:02:40Z</time>
      </trkpt>
      <trkpt lat="43.62236" lon="3.84554">
        <ele>50.4</ele>
        <time>2021-01-03T12:02:41Z</time>
      </trkpt>
      <trkpt lat="43.62239" lon="3.8455">
        <ele>50.6</ele>
        <time>2021-01-03T12:02:42Z</time>
      </trkpt>
      <trkpt lat="43.62241" lon="3.84547">
        <ele>50.6</ele>
        <time>2021-01-03T12:02:43Z</time>
      </trkpt>
      <trkpt lat="43.62243" lon="3.84544">
        <ele>50.6</ele>
        <time>2021-01-03T12:02:44Z</time>
      </trkpt>
      <trkpt lat="43.62246" lon="3.84541">
        <ele>60</ele>
        <time>2021-01-03T12:02:45Z</time>
      </trkpt>
      <trkpt lat="43.62247" lon="3.84538">
        <ele>50.5</ele>
        <time>2021-01-03T12:02:46Z</time>
      </trkpt>
      <trkpt lat="43.62249" lon="3.84535">
        <ele>50.5</ele>
        <time>2021-01-03T12:02:47Z</time>
      </trkpt>
      <trkpt lat="43.62251" lon="3.84532">
        <ele>50.3</ele>
        <time>2021-01-03T12:02:48Z</time>
      </trkpt>
      <trkpt lat="43.62253" lon="3.84529">
        <ele>50.1</ele>
        <time>2021-01-03T12:02:49Z</time>
      </trkpt>
      <trkpt lat="43.62256" lon="3.84525">
        <ele>50</ele>
        <time>2021-01-03T12:02:50Z</time>
      </trkpt>
      <trkpt lat="43.62259" lon="3.84521">
        <ele>50</ele>
        <time>2021-01-03T12:02:51Z</time>
      </trkpt>
      <trkpt lat="43.62262" lon="3.84517">
        <ele>50</ele>
        <time>2021-01-03T12:02:52Z</time>
      </trkpt>
      <trkpt lat="43.62265" lon="3.84513">
        <ele>50</ele>
        <time>2021-01-03T12:02:53Z</time>
      </trkpt>
      <trkpt lat="43.62268" lon="3.84508">
        <ele>50</ele>
        <time>2021-01-03T12:02:54Z</time>
      </trkpt>
      <trkpt lat="43.62271" lon="3.84503">
        <ele>59</ele>
        <time>2021-01-03T12:02:55Z</time>
      </trkpt>
      <trkpt lat="43.62274" lon="3.84499">
        <ele>50</ele>
        <time>2021-01-03T12:02:56Z</time>
      </trkpt>
      <trkpt lat="43.62277" lon="3.84494">
        <ele>50</ele>
        <time>2021-01-03T12:02:57Z</time>
      </trkpt>
      <trkpt lat="43.62281" lon="3.84489">
        <ele>50.2</ele>
        <time>2021-01-03T12:02:58Z</time>
      </trkpt>
      <trkpt lat="43.62284" lon="3.84484">
        <ele>50.3</ele>
        <time>2021-01-03T12:02:59Z</time>
      </trkpt>
      <trkpt lat="43.62287" lon="3.84479">
        <ele>50.4</ele>
        <time>2021-01-03T12:03:00Z</time>
      </trkpt>
      <trkpt lat="43.6229" lon="3.84474">
        <ele>50.5</ele>
        <time>2021-01-03T12:03:01Z</time>
      </trkpt>
      <trkpt lat="43.62293" lon="3.84469">
        <ele>50.6</ele>
        <time>2021-01-03T12:03:02Z</time>
      </trkpt>
      <trkpt lat="43.62296" lon="3.84465">
        <ele>50.7</ele>
        <time>2021-01-03T12:03:03Z</time>
      </trkpt>
      <trkpt lat="43.62299" lon="3.8446">
        <ele>50.9</ele>
        <time>2021-01-03T12:03:04Z</time>
      </trkpt>
      <trkpt lat="43.62302" lon="3.84456">
        <ele>58</ele>
        <time>2021-01-03T12:03:05Z</time>
      </trkpt>
      <trkpt lat="43.62306" lon="3.84451">
        <ele>51</ele>
        <time>2021-01-03T12:03:06Z</time>
      </trkpt>
      <trkpt lat="43.62309" lon="3.84446">
        <ele>51.1</ele>
        <time>2021-01-03T12:03:07Z</time>
      </trkpt>
      <trkpt lat="43.62312" lon="3.84442">
        <ele>51.2</ele>
        <time>2021-01-03T12:03:08Z</time>
      </trkpt>
      <trkpt lat="43.62315" lon="3.84437">
        <ele>51.2</ele>
        <time>2021-01-03T12:03:09Z</time>
      </trkpt>
      <trkpt lat="43.62318" lon="3.84433">
        <ele>51.3</ele>
        <time>2021-01-03T12:03:10Z</time>
      </trkpt>
      <trkpt lat="43.62321" lon="3.84428">
        <ele>51.2</ele>
        <time>2021-01-03T12:03:11Z</time>
      </trkpt>
      <trkpt lat="43.62324" lon="3.84424">
        <ele>51.2</ele>
        <time>2021-01-03T12:03:12Z</time>
      </trkpt>
      <trkpt lat="43.62327" lon="3.8442">
        <ele>51.1</ele>
        <time>2021-01-03T12:03:13Z</time>
      </trkpt>
      <trkpt lat="43.6233" lon="3.84415">
        <ele>51.1</ele>
        <time>2021-01-03T12:03:14Z</time>
      </trkpt>
      <trkpt lat="43.62333" lon="3.84411">
        <ele>58</ele>
        <time>2021-01-03T12:03:15Z</time>
      </trkpt>
      <trkpt lat="43.62335" lon="3.84407">
        <ele>51.5</ele>
        <time>2021-01-03T12:03:16Z</time>
      </trkpt>
      <trkpt lat="43.62338" lon="3.84403">
        <ele>51.8</ele>
        <time>2021-01-03T12:03:17Z</time>
      </trkpt>
      <trkpt lat="43.62341" lon="3.84399">
        <ele>52.1</ele>
        <time>2021-01-03T12:03:18Z</time>
      </trkpt>
      <trkpt lat="43.62344" lon="3.84395">
        <ele>52.3</ele>
        <time>2021-01-03T12:03:19Z</time>
      </trkpt>
      <trkpt lat="43.62347" lon="3.84391">
        <ele>52.5</ele>
        <time>2021-01-03T12:03:20Z</time>
      </trkpt>
      <trkpt lat="43.6235" lon="3.84387">
        <ele>52.6</ele>
        <time>2021-01-03T12:03:21Z</time>
      </trkpt>
      <trkpt lat="43.62353" lon="3.84383">
        <ele>52.7</ele>
        <time>2021-01-03T12:03:22Z</time>
      </trkpt>
      <trkpt lat="43.62356" lon="3.8438">
        <ele>52.8</ele>
        <time>2021-01-03T12:03:23Z</time>
      </trkpt>
      <trkpt lat="43.62358" lon="3.84376">
        <ele>52.9</ele>
        <time>2021-01-03T12:03:24Z</time>
      </trkpt>
      <trkpt lat="43.6236" lon="3.84372">
        <ele>58</ele>
        <time>2021-01-03T12:03:25Z</time>
      </trkpt>
      <trkpt lat="43.62361" lon="3.84367">
        <ele>53</ele>
        <time>2021-01-03T12:03:26Z</time>
      </trkpt>
      <trkpt lat="43.62362" lon="3.84362">
        <ele>53.1</ele>
        <time>2021-01-03T12:03:27Z</time>
      </trkpt>
      <trkpt lat="43.62363" lon="3.84358">
        <ele>53.3</ele>
        <time>2021-01-03T12:03:28Z</time>
      </trkpt>
      <trkpt lat="43.62362" lon="3.84353">
        <ele>53.4</ele>
        <time>2021-01-03T12:03:29Z</time>
      </trkpt>
      <trkpt lat="43.62362" lon="3.84348">
        <ele>53.6</ele>
        <time>2021-01-03T12:03:30Z</time>
      </trkpt>
      <trkpt lat="43.62361" lon="3.84343">
        <ele>53.6</ele>
        <time>2021-01-03T12:03:31Z</time>
      </trkpt>
      <trkpt lat="43.62361" lon="3.84339">
        <ele>53.8</ele>
        <time>2021-01-03T12:03:32Z</time>
      </trkpt>
      <trkpt lat="43.6236" lon="3.84335">
        <ele>53.9</ele>
        <time>2021-01-03T12:03:33Z</time>
      </trkpt>
      <trkpt lat="43.6236" lon="3.84331">
        <ele>54</ele>
        <time>2021-01-03T12:03:34Z</time>
      </trkpt>
      <trkpt lat="43.6236" lon="3.84327">
        <ele>59</ele>
        <time>2021-01-03T12:03:35Z</time>
      </trkpt>
      <trkpt lat="43.62361" lon="3.84323">
        <ele>54</ele>
        <time>2021-01-03T12:03:36Z</time>
      </trkpt>
      <trkpt lat="43.62363" lon="3.8432">
        <ele>54.1</ele>
        <time>2021-01-03T12:03:37Z</time>
      </trkpt>
      <trkpt lat="43.62365" lon="3.84317">
        <ele>54.3</ele>
        <time>2021-01-03T12:03:38Z</time>
      </trkpt>
      <trkpt lat="43.62367" lon="3.84313">
        <ele>54.4</ele>
        <time>2021-01-03T12:03:39Z</time>
      </trkpt>
      <trkpt lat="43.62369" lon="3.8431">
        <ele>54.6</ele>
        <time>2021-01-03T12:03:40Z</time>
      </trkpt>
      <trkpt lat="43.62371" lon="3.84307">
        <ele>54.7</ele>
        <time>2021-01-03T12:03:41Z</time>
      </trkpt>
      <trkpt lat="43.62373" lon="3.84304">
        <ele>54.9</ele>
        <time>2021-01-03T12:03:42Z</time>
      </trkpt>
      <trkpt lat="43.62375" lon="3.84301">
        <ele>55.1</ele>
        <time>2021-01-03T12:03:43Z</time>
      </trkpt>
      <trkpt lat="43.62377" lon="3.84298">
        <ele>55.3</ele>
        <time>2021-01-03T12:03:44Z</time>
      </trkpt>
      <trkpt lat="43.62379" lon="3.84294">
        <ele>59</ele>
        <time>2021-01-03T12:03:45Z</time>
      </trkpt>
      <trkpt lat="43.62381" lon="3.84291">
        <ele>55.6</ele>
        <time>2021-01-03T12:03:46Z</time>
      </trkpt>
      <trkpt lat="43.62384" lon="3.84288">
        <ele>55.8</ele>
        <time>2021-01-03T12:03:47Z</time>
      </trkpt>
      <trkpt lat="43.62386" lon="3.84285">
        <ele>55.9</ele>
        <time>2021-01-03T12:03:48Z</time>
      </trkpt>
      <trkpt lat="43.62388" lon="3.84282">
        <ele>56</ele>
        <time>2021-01-03T12:03:49Z</time>
      </trkpt>
      <trkpt lat="43.62389" lon="3.84279">
        <ele>56</ele>
        <time>2021-01-03T12:03:50Z</time>
      </trkpt>
      <trkpt lat="43.62389" lon="3.84274">
        <ele>55.7</ele>
        <time>2021-01-03T12:03:51Z</time>
      </trkpt>
      <trkpt lat="43.62387" lon="3.84267">
        <ele>55.2</ele>
        <time>2021-01-03T12:03:52Z</time>
      </trkpt>
      <trkpt lat="43.62386" lon="3.84258">
        <ele>54.6</ele>
        <time>2021-01-03T12:03:53Z</time>
      </trkpt>
      <trkpt lat="43.62386" lon="3.84249">
        <ele>54.2</ele>
        <time>2021-01-03T12:03:54Z</time>
      </trkpt>
      <trkpt lat="43.62386" lon="3.8424">
        <ele>61</ele>
        <time>2021-01-03T12:03:55Z</time>
      </trkpt>
      <trkpt lat="43.62386" lon="3.84232">
        <ele>55.9</ele>
        <time>2021-01-03T12:03:56Z</time>
      </trkpt>
      <trkpt lat="43.62387" lon="3.84229">
        <ele>56.2</ele>
        <time>2021-01-03T12:03:57Z</time>
      </trkpt>
      <trkpt lat="43.62387" lon="3.84226">
        <ele>56.5</ele>
        <time>2021-01-03T12:04:00Z</time>
      </trkpt>
      <trkpt lat="43.62389" lon="3.84224">
        <ele>56.8</ele>
        <time>2021-01-03T12:04:02Z</time>
      </trkpt>
      <trkpt lat="43.6239" lon="3.84221">
        <ele>57</ele>
        <time>2021-01-03T12:04:04Z</time>
      </trkpt>
      <trkpt lat="43.6239" lon="3.84219">
        <ele>62</ele>
        <time>2021-01-03T12:04:05Z</time>
      </trkpt>
      <trkpt lat="43.62389" lon="3.84213">
        <ele>57.3</ele>
        <time>2021-01-03T12:04:07Z</time>
      </trkpt>
      <trkpt lat="43.62388" lon="3.8421">
        <ele>57.4</ele>
        <time>2021-01-03T12:04:08Z</time>
      </trkpt>
      <trkpt lat="43.62387" lon="3.84206">
        <ele>57.5</ele>
        <time>2021-01-03T12:04:09Z</time>
      </trkpt>
      <trkpt lat="43.62387" lon="3.84202">
        <ele>57.7</ele>
        <time>2021-01-03T12:04:10Z</time>
      </trkpt>
      <trkpt lat="43.62386" lon="3.84198">
        <ele>57.8</ele>
        <time>2021-01-03T12:04:11Z</time>
      </trkpt>
      <trkpt lat="43.62385" lon="3.84194">
        <ele>57.9</ele>
        <time>2021-01-03T12:04:12Z</time>
      </trkpt>
      <trkpt lat="43.62385" lon="3.8419">
        <ele>57.9</ele>
        <time>2021-01-03T12:04:13Z</time>
      </trkpt>
      <trkpt lat="43.62384" lon="3.84186">
        <ele>57.9</ele>
        <time>2021-01-03T12:04:14Z</time>
      </trkpt>
      <trkpt lat="43.62384" lon="3.84182">
        <ele>61</ele>
        <time>2021-01-03T12:04:15Z</time>
      </trkpt>
      <trkpt lat="43.62385" lon="3.84177">
        <ele>57.9</ele>
        <time>2021-01-03T12:04:16Z</time>
      </trkpt>
      <trkpt lat="43.62387" lon="3.84173">
        <ele>58</ele>
        <time>2021-01-03T12:04:17Z</time>
      </trkpt>
      <trkpt lat="43.62389" lon="3.84169">
        <ele>58</ele>
        <time>2021-01-03T12:04:18Z</time>
      </trkpt>
      <trkpt lat="43.62391" lon="3.84165">
        <ele>58.1</ele>
        <time>2021-01-03T12:04:19Z</time>
      </trkpt>
      <trkpt lat="43.62392" lon="3.84162">
        <ele>58.3</ele>
        <time>2021-01-03T12:04:20Z</time>
      </trkpt>
      <trkpt lat="43.62393" lon="3.84158">
        <ele>58.4</ele>
        <time>2021-01-03T12:04:21Z</time>
      </trkpt>
      <trkpt lat="43.62394" lon="3.84154">
        <ele>58.6</ele>
        <time>2021-01-03T12:04:22Z</time>
      </trkpt>
      <trkpt lat="43.62396" lon="3.84151">
        <ele>58.7</ele>
        <time>2021-01-03T12:04:23Z</time>
      </trkpt>
      <trkpt lat="43.62398" lon="3.84148">
        <ele>58.8</ele>
        <time>2021-01-03T12:04:24Z</time>
      </trkpt>
      <trkpt lat="43.62401" lon="3.84147">
        <ele>61</ele>
        <time>2021-01-03T12:04:25Z</time>
      </trkpt>
      <trkpt lat="43.62404" lon="3.84146">
        <ele>58.9</ele>
        <time>2021-01-03T12:04:26Z</time>
      </trkpt>
      <trkpt lat="43.62407" lon="3.84145">
        <ele>58.9</ele>
        <time>2021-01-03T12:04:27Z</time>
      </trkpt>
      <trkpt lat="43.6241" lon="3.84144">
        <ele>59</ele>
        <time>2021-01-03T12:04:28Z</time>
      </trkpt>
      <trkpt lat="43.62412" lon="3.84143">
        <ele>59</ele>
        <time>2021-01-03T12:04:29Z</time>
      </trkpt>
      <trkpt lat="43.62415" lon="3.84142">
        <ele>59</ele>
        <time>2021-01-03T12:04:30Z</time>
      </trkpt>
      <trkpt lat="43.62417" lon="3.84141">
        <ele>59</ele>
        <time>2021-01-03T12:04:31Z</time>
      </trkpt>
      <trkpt lat="43.6242" lon="3.8414">
        <ele>59.1</ele>
        <time>2021-01-03T12:04:32Z</time>
      </trkpt>
      <trkpt lat="43.62423" lon="3.8414">
        <ele>59.2</ele>
        <time>2021-01-03T12:04:33Z</time>
      </trkpt>
      <trkpt lat="43.62425" lon="3.84139">
        <ele>59.3</ele>
        <time>2021-01-03T12:04:34Z</time>
      </trkpt>
      <trkpt lat="43.62428" lon="3.84138">
        <ele>59.5</ele>
        <time>2021-01-03T12:04:35Z</time>
      </trkpt>
      <trkpt lat="43.62433" lon="3.84136">
        <ele>62</ele>
        <time>2021-01-03T12:04:36Z</time>
      </trkpt>
      <trkpt lat="43.62435" lon="3.84135">
        <ele>59.9</ele>
        <time>2021-01-03T12:04:37Z</time>
      </trkpt>
      <trkpt lat="43.62437" lon="3.84134">
        <ele>60</ele>
        <time>2021-01-03T12:04:38Z</time>
      </trkpt>
      <trkpt lat="43.62439" lon="3.84134">
        <ele>60.1</ele>
        <time>2021-01-03T12:04:39Z</time>
      </trkpt>
      <trkpt lat="43.62442" lon="3.84133">
        <ele>60.3</ele>
        <time>2021-01-03T12:04:40Z</time>
      </trkpt>
      <trkpt lat="43.62444" lon="3.84132">
        <ele>60.5</ele>
        <time>2021-01-03T12:04:41Z</time>
      </trkpt>
      <trkpt lat="43.62449" lon="3.84131">
        <ele>60.6</ele>
        <time>2021-01-03T12:04:43Z</time>
      </trkpt>
      <trkpt lat="43.62452" lon="3.84131">
        <ele>60.7</ele>
        <time>2021-01-03T12:04:44Z</time>
      </trkpt>
      <trkpt lat="43.62454" lon="3.8413">
        <ele>60.8</ele>
        <time>2021-01-03T12:04:46Z</time>
      </trkpt>
      <trkpt lat="43.62457" lon="3.84129">
        <ele>60.8</ele>
        <time>2021-01-03T12:04:47Z</time>
      </trkpt>
      <trkpt lat="43.6246" lon="3.84128">
        <ele>60.9</ele>
        <time>2021-01-03T12:04:48Z</time>
      </trkpt>
      <trkpt lat="43.62463" lon="3.84125">
        <ele>61</ele>
        <time>2021-01-03T12:04:49Z</time>
      </trkpt>
      <trkpt lat="43.62465" lon="3.84123">
        <ele>61</ele>
        <time>2021-01-03T12:04:50Z</time>
      </trkpt>
      <trkpt lat="43.62467" lon="3.8412">
        <ele>61.1</ele>
        <time>2021-01-03T12:04:51Z</time>
      </trkpt>
      <trkpt lat="43.62469" lon="3.84116">
        <ele>61.1</ele>
        <time>2021-01-03T12:04:52Z</time>
      </trkpt>
      <trkpt lat="43.62471" lon="3.84112">
        <ele>61</ele>
        <time>2021-01-03T12:04:53Z</time>
      </trkpt>
      <trkpt lat="43.62473" lon="3.84109">
        <ele>61.1</ele>
        <time>2021-01-03T12:04:54Z</time>
      </trkpt>
      <trkpt lat="43.62475" lon="3.84105">
        <ele>61.3</ele>
        <time>2021-01-03T12:04:55Z</time>
      </trkpt>
      <trkpt lat="43.62478" lon="3.84098">
        <ele>62</ele>
        <time>2021-01-03T12:04:56Z</time>
      </trkpt>
      <trkpt lat="43.62479" lon="3.84094">
        <ele>61.9</ele>
        <time>2021-01-03T12:04:57Z</time>
      </trkpt>
      <trkpt lat="43.62481" lon="3.8409">
        <ele>62.1</ele>
        <time>2021-01-03T12:04:58Z</time>
      </trkpt>
      <trkpt lat="43.62482" lon="3.84087">
        <ele>62.2</ele>
        <time>2021-01-03T12:04:59Z</time>
      </trkpt>
      <trkpt lat="43.62484" lon="3.84083">
        <ele>62.4</ele>
        <time>2021-01-03T12:05:00Z</time>
      </trkpt>
      <trkpt lat="43.62485" lon="3.8408">
        <ele>62.5</ele>
        <time>2021-01-03T12:05:01Z</time>
      </trkpt>
      <trkpt lat="43.62487" lon="3.84077">
        <ele>62.6</ele>
        <time>2021-01-03T12:05:02Z</time>
      </trkpt>
      <trkpt lat="43.62488" lon="3.84073">
        <ele>62.7</ele>
        <time>2021-01-03T12:05:03Z</time>
      </trkpt>
      <trkpt lat="43.6249" lon="3.8407">
        <ele>62.8</ele>
        <time>2021-01-03T12:05:04Z</time>
      </trkpt>
      <trkpt lat="43.62491" lon="3.84067">
        <ele>63</ele>
        <time>2021-01-03T12:05:06Z</time>
      </trkpt>
      <trkpt lat="43.62493" lon="3.84063">
        <ele>62.9</ele>
        <time>2021-01-03T12:05:07Z</time>
      </trkpt>
      <trkpt lat="43.62494" lon="3.8406">
        <ele>63</ele>
        <time>2021-01-03T12:05:08Z</time>
      </trkpt>
      <trkpt lat="43.62496" lon="3.84056">
        <ele>63</ele>
        <time>2021-01-03T12:05:09Z</time>
      </trkpt>
      <trkpt lat="43.62497" lon="3.84052">
        <ele>63.1</ele>
        <time>2021-01-03T12:05:10Z</time>
      </trkpt>
      <trkpt lat="43.62498" lon="3.84049">
        <ele>63.2</ele>
        <time>2021-01-03T12:05:11Z</time>
      </trkpt>
      <trkpt lat="43.625" lon="3.84045">
        <ele>63.4</ele>
        <time>2021-01-03T12:05:12Z</time>
      </trkpt>
      <trkpt lat="43.62501" lon="3.84041">
        <ele>63.6</ele>
        <time>2021-01-03T12:05:13Z</time>
      </trkpt>
      <trkpt lat="43.62502" lon="3.84037">
        <ele>63.7</ele>
        <time>2021-01-03T12:05:14Z</time>
      </trkpt>
      <trkpt lat="43.62503" lon="3.84033">
        <ele>64</ele>
        <time>2021-01-03T12:05:15Z</time>
      </trkpt>
      <trkpt lat="43.62505" lon="3.84029">
        <ele>64.1</ele>
        <time>2021-01-03T12:05:16Z</time>
      </trkpt>
      <trkpt lat="43.62507" lon="3.84026">
        <ele>64.4</ele>
        <time>2021-01-03T12:05:17Z</time>
      </trkpt>
      <trkpt lat="43.62509" lon="3.84023">
        <ele>64.6</ele>
        <time>2021-01-03T12:05:18Z</time>
      </trkpt>
      <trkpt lat="43.6251" lon="3.8402">
        <ele>64.8</ele>
        <time>2021-01-03T12:05:19Z</time>
      </trkpt>
      <trkpt lat="43.62512" lon="3.84017">
        <ele>65</ele>
        <time>2021-01-03T12:05:20Z</time>
      </trkpt>
      <trkpt lat="43.62513" lon="3.84014">
        <ele>65.2</ele>
        <time>2021-01-03T12:05:21Z</time>
      </trkpt>
      <trkpt lat="43.62514" lon="3.84011">
        <ele>65.4</ele>
        <time>2021-01-03T12:05:22Z</time>
      </trkpt>
      <trkpt lat="43.62516" lon="3.84008">
        <ele>65.6</ele>
        <time>2021-01-03T12:05:23Z</time>
      </trkpt>
      <trkpt lat="43.62517" lon="3.84005">
        <ele>65.8</ele>
        <time>2021-01-03T12:05:24Z</time>
      </trkpt>
      <trkpt lat="43.62518" lon="3.84002">
        <ele>65</ele>
        <time>2021-01-03T12:05:25Z</time>
      </trkpt>
      <trkpt lat="43.62519" lon="3.84">
        <ele>66</ele>
        <time>2021-01-03T12:05:26Z</time>
      </trkpt>
      <trkpt lat="43.6252" lon="3.83997">
        <ele>66.1</ele>
        <time>2021-01-03T12:05:27Z</time>
      </trkpt>
      <trkpt lat="43.62521" lon="3.83994">
        <ele>66.2</ele>
        <time>2021-01-03T12:05:28Z</time>
      </trkpt>
      <trkpt lat="43.62522" lon="3.83992">
        <ele>66.3</ele>
        <time>2021-01-03T12:05:29Z</time>
      </trkpt>
      <trkpt lat="43.62523" lon="3.83989">
        <ele>66.4</ele>
        <time>2021-01-03T12:05:30Z</time>
      </trkpt>
      <trkpt lat="43.62524" lon="3.83987">
        <ele>66.5</ele>
        <time>2021-01-03T12:05:31Z</time>
      </trkpt>
      <trkpt lat="43.62525" lon="3.83984">
        <ele>66.6</ele>
        <time>2021-01-03T12:05:32Z</time>
      </trkpt>
      <trkpt lat="43.62526" lon="3.83981">
        <ele>66.7</ele>
        <time>2021-01-03T12:05:33Z</time>
      </trkpt>
      <trkpt lat="43.62527" lon="3.83978">
        <ele>66.8</ele>
        <time>2021-01-03T12:05:34Z</time>
      </trkpt>
      <trkpt lat="43.62528" lon="3.83976">
        <ele>67</ele>
        <time>2021-01-03T12:05:35Z</time>
      </trkpt>
      <trkpt lat="43.62529" lon="3.83973">
        <ele>67</ele>
        <time>2021-01-03T12:05:36Z</time>
      </trkpt>
      <trkpt lat="43.6253" lon="3.83971">
        <ele>67</ele>
        <time>2021-01-03T12:05:37Z</time>
      </trkpt>
      <trkpt lat="43.62531" lon="3.83968">
        <ele>67.2</ele>
        <time>2021-01-03T12:05:38Z</time>
      </trkpt>
      <trkpt lat="43.62532" lon="3.83965">
        <ele>67.3</ele>
        <time>2021-01-03T12:05:39Z</time>
      </trkpt>
      <trkpt lat="43.62533" lon="3.83962">
        <ele>67.4</ele>
        <time>2021-01-03T12:05:40Z</time>
      </trkpt>
      <trkpt lat="43.62532" lon="3.83959">
        <ele>67.5</ele>
        <time>2021-01-03T12:05:41Z</time>
      </trkpt>
      <trkpt lat="43.62532" lon="3.83956">
        <ele>67.6</ele>
        <time>2021-01-03T12:05:42Z</time>
      </trkpt>
      <trkpt lat="43.62532" lon="3.83953">
        <ele>67.7</ele>
        <time>2021-01-03T12:05:43Z</time>
      </trkpt>
      <trkpt lat="43.62532" lon="3.8395">
        <ele>67.8</ele>
        <time>2021-01-03T12:05:44Z</time>
      </trkpt>
      <trkpt lat="43.62531" lon="3.83946">
        <ele>67.9</ele>
        <time>2021-01-03T12:05:45Z</time>
      </trkpt>
      <trkpt lat="43.62531" lon="3.83942">
        <ele>68</ele>
        <time>2021-01-03T12:05:46Z</time>
      </trkpt>
      <trkpt lat="43.62531" lon="3.83938">
        <ele>68.2</ele>
        <time>2021-01-03T12:05:47Z</time>
      </trkpt>
      <trkpt lat="43.62531" lon="3.83934">
        <ele>68.3</ele>
        <time>2021-01-03T12:05:48Z</time>
      </trkpt>
      <trkpt lat="43.6253" lon="3.8393">
        <ele>68.4</ele>
        <time>2021-01-03T12:05:49Z</time>
      </trkpt>
      <trkpt lat="43.6253" lon="3.83926">
        <ele>68.6</ele>
        <time>2021-01-03T12:05:50Z</time>
      </trkpt>
      <trkpt lat="43.6253" lon="3.83922">
        <ele>68.7</ele>
        <time>2021-01-03T12:05:51Z</time>
      </trkpt>
      <trkpt lat="43.6253" lon="3.83918">
        <ele>68.8</ele>
        <time>2021-01-03T12:05:52Z</time>
      </trkpt>
      <trkpt lat="43.6253" lon="3.83914">
        <ele>68.8</ele>
        <time>2021-01-03T12:05:53Z</time>
      </trkpt>
      <trkpt lat="43.6253" lon="3.8391">
        <ele>68.9</ele>
        <time>2021-01-03T12:05:54Z</time>
      </trkpt>
      <trkpt lat="43.6253" lon="3.83906">
        <ele>72</ele>
        <time>2021-01-03T12:05:55Z</time>
      </trkpt>
      <trkpt lat="43.6253" lon="3.83902">
        <ele>68.9</ele>
        <time>2021-01-03T12:05:56Z</time>
      </trkpt>
      <trkpt lat="43.62529" lon="3.83898">
        <ele>68.9</ele>
        <time>2021-01-03T12:05:57Z</time>
      </trkpt>
      <trkpt lat="43.62528" lon="3.83894">
        <ele>69</ele>
        <time>2021-01-03T12:05:58Z</time>
      </trkpt>
      <trkpt lat="43.62527" lon="3.83891">
        <ele>69</ele>
        <time>2021-01-03T12:05:59Z</time>
      </trkpt>
      <trkpt lat="43.62526" lon="3.83887">
        <ele>69.2</ele>
        <time>2021-01-03T12:06:00Z</time>
      </trkpt>
      <trkpt lat="43.62524" lon="3.83883">
        <ele>69.5</ele>
        <time>2021-01-03T12:06:01Z</time>
      </trkpt>
      <trkpt lat="43.62523" lon="3.8388">
        <ele>69.6</ele>
        <time>2021-01-03T12:06:02Z</time>
      </trkpt>
      <trkpt lat="43.62522" lon="3.83876">
        <ele>69.8</ele>
        <time>2021-01-03T12:06:03Z</time>
      </trkpt>
      <trkpt lat="43.62522" lon="3.83872">
        <ele>69.9</ele>
        <time>2021-01-03T12:06:04Z</time>
      </trkpt>
      <trkpt lat="43.62521" lon="3.83868">
        <ele>73</ele>
        <time>2021-01-03T12:06:05Z</time>
      </trkpt>
      <trkpt lat="43.6252" lon="3.83864">
        <ele>70.2</ele>
        <time>2021-01-03T12:06:06Z</time>
      </trkpt>
      <trkpt lat="43.62519" lon="3.83861">
        <ele>70.3</ele>
        <time>2021-01-03T12:06:07Z</time>
      </trkpt>
      <trkpt lat="43.62519" lon="3.83857">
        <ele>70.2</ele>
        <time>2021-01-03T12:06:08Z</time>
      </trkpt>
      <trkpt lat="43.62518" lon="3.83853">
        <ele>70.2</ele>
        <time>2021-01-03T12:06:09Z</time>
      </trkpt>
      <trkpt lat="43.62518" lon="3.8385">
        <ele>70.1</ele>
        <time>2021-01-03T12:06:10Z</time>
      </trkpt>
      <trkpt lat="43.62517" lon="3.83847">
        <ele>70.1</ele>
        <time>2021-01-03T12:06:11Z</time>
      </trkpt>
      <trkpt lat="43.62515" lon="3.83844">
        <ele>70.1</ele>
        <time>2021-01-03T12:06:12Z</time>
      </trkpt>
      <trkpt lat="43.62513" lon="3.83841">
        <ele>70.2</ele>
        <time>2021-01-03T12:06:13Z</time>
      </trkpt>
      <trkpt lat="43.62511" lon="3.83839">
        <ele>70.3</ele>
        <time>2021-01-03T12:06:14Z</time>
      </trkpt>
      <trkpt lat="43.62509" lon="3.83837">
        <ele>74</ele>
        <time>2021-01-03T12:06:15Z</time>
      </trkpt>
      <trkpt lat="43.62507" lon="3.83835">
        <ele>70.5</ele>
        <time>2021-01-03T12:06:16Z</time>
      </trkpt>
      <trkpt lat="43.62505" lon="3.83833">
        <ele>70.6</ele>
        <time>2021-01-03T12:06:17Z</time>
      </trkpt>
      <trkpt lat="43.62502" lon="3.83831">
        <ele>70.9</ele>
        <time>2021-01-03T12:06:18Z</time>
      </trkpt>
      <trkpt lat="43.625" lon="3.83829">
        <ele>71</ele>
        <time>2021-01-03T12:06:19Z</time>
      </trkpt>
      <trkpt lat="43.62498" lon="3.83827">
        <ele>71.2</ele>
        <time>2021-01-03T12:06:20Z</time>
      </trkpt>
      <trkpt lat="43.62496" lon="3.83825">
        <ele>71.3</ele>
        <time>2021-01-03T12:06:21Z</time>
      </trkpt>
      <trkpt lat="43.62493" lon="3.83824">
        <ele>71.6</ele>
        <time>2021-01-03T12:06:22Z</time>
      </trkpt>
      <trkpt lat="43.62491" lon="3.83822">
        <ele>71.7</ele>
        <time>2021-01-03T12:06:23Z</time>
      </trkpt>
      <trkpt lat="43.62489" lon="3.83821">
        <ele>71.8</ele>
        <time>2021-01-03T12:06:24Z</time>
      </trkpt>
      <trkpt lat="43.62487" lon="3.83819">
        <ele>75</ele>
        <time>2021-01-03T12:06:25Z</time>
      </trkpt>
      <trkpt lat="43.62484" lon="3.83817">
        <ele>72.1</ele>
        <time>2021-01-03T12:06:26Z</time>
      </trkpt>
      <trkpt lat="43.62482" lon="3.83816">
        <ele>72.1</ele>
        <time>2021-01-03T12:06:27Z</time>
      </trkpt>
      <trkpt lat="43.6248" lon="3.83814">
        <ele>72.2</ele>
        <time>2021-01-03T12:06:28Z</time>
      </trkpt>
      <trkpt lat="43.62477" lon="3.83813">
        <ele>72.3</ele>
        <time>2021-01-03T12:06:29Z</time>
      </trkpt>
      <trkpt lat="43.62475" lon="3.83812">
        <ele>72.3</ele>
        <time>2021-01-03T12:06:30Z</time>
      </trkpt>
      <trkpt lat="43.62472" lon="3.8381">
        <ele>72.3</ele>
        <time>2021-01-03T12:06:31Z</time>
      </trkpt>
      <trkpt lat="43.6247" lon="3.83808">
        <ele>72.2</ele>
        <time>2021-01-03T12:06:32Z</time>
      </trkpt>
      <trkpt lat="43.62467" lon="3.83807">
        <ele>72.3</ele>
        <time>2021-01-03T12:06:33Z</time>
      </trkpt>
      <trkpt lat="43.62465" lon="3.83805">
        <ele>72.2</ele>
        <time>2021-01-03T12:06:34Z</time>
      </trkpt>
      <trkpt lat="43.62462" lon="3.83803">
        <ele>78</ele>
        <time>2021-01-03T12:06:35Z</time>
      </trkpt>
      <trkpt lat="43.6246" lon="3.83802">
        <ele>72.4</ele>
        <time>2021-01-03T12:06:36Z</time>
      </trkpt>
      <trkpt lat="43.62457" lon="3.838">
        <ele>72.5</ele>
        <time>2021-01-03T12:06:37Z</time>
      </trkpt>
      <trkpt lat="43.62455" lon="3.83798">
        <ele>72.5</ele>
        <time>2021-01-03T12:06:38Z</time>
      </trkpt>
      <trkpt lat="43.62452" lon="3.83797">
        <ele>72.6</ele>
        <time>2021-01-03T12:06:39Z</time>
      </trkpt>
      <trkpt lat="43.6245" lon="3.83794">
        <ele>72.7</ele>
        <time>2021-01-03T12:06:40Z</time>
      </trkpt>
      <trkpt lat="43.62447" lon="3.83791">
        <ele>72.9</ele>
        <time>2021-01-03T12:06:41Z</time>
      </trkpt>
      <trkpt lat="43.62445" lon="3.83788">
        <ele>73</ele>
        <time>2021-01-03T12:06:42Z</time>
      </trkpt>
      <trkpt lat="43.62443" lon="3.83785">
        <ele>73</ele>
        <time>2021-01-03T12:06:43Z</time>
      </trkpt>
      <trkpt lat="43.62442" lon="3.83781">
        <ele>73.1</ele>
        <time>2021-01-03T12:06:44Z</time>
      </trkpt>
      <trkpt lat="43.6244" lon="3.83777">
        <ele>79</ele>
        <time>2021-01-03T12:06:45Z</time>
      </trkpt>
      <trkpt lat="43.62439" lon="3.83773">
        <ele>72.9</ele>
        <time>2021-01-03T12:06:46Z</time>
      </trkpt>
      <trkpt lat="43.62438" lon="3.83769">
        <ele>72.6</ele>
        <time>2021-01-03T12:06:47Z</time>
      </trkpt>
      <trkpt lat="43.62437" lon="3.83764">
        <ele>72.3</ele>
        <time>2021-01-03T12:06:48Z</time>
      </trkpt>
      <trkpt lat="43.62436" lon="3.83759">
        <ele>72</ele>
        <time>2021-01-03T12:06:49Z</time>
      </trkpt>
      <trkpt lat="43.62435" lon="3.83754">
        <ele>71.6</ele>
        <time>2021-01-03T12:06:50Z</time>
      </trkpt>
      <trkpt lat="43.62434" lon="3.83749">
        <ele>71.4</ele>
        <time>2021-01-03T12:06:51Z</time>
      </trkpt>
      <trkpt lat="43.62432" lon="3.83744">
        <ele>71.4</ele>
        <time>2021-01-03T12:06:52Z</time>
      </trkpt>
      <trkpt lat="43.62431" lon="3.8374">
        <ele>71.5</ele>
        <time>2021-01-03T12:06:53Z</time>
      </trkpt>
      <trkpt lat="43.6243" lon="3.83735">
        <ele>71.5</ele>
        <time>2021-01-03T12:06:54Z</time>
      </trkpt>
      <trkpt lat="43.62429" lon="3.8373">
        <ele>78</ele>
        <time>2021-01-03T12:06:55Z</time>
      </trkpt>
      <trkpt lat="43.62426" lon="3.83725">
        <ele>71.7</ele>
        <time>2021-01-03T12:06:56Z</time>
      </trkpt>
      <trkpt lat="43.62425" lon="3.83721">
        <ele>71.7</ele>
        <time>2021-01-03T12:06:57Z</time>
      </trkpt>
      <trkpt lat="43.62424" lon="3.83716">
        <ele>72</ele>
        <time>2021-01-03T12:06:58Z</time>
      </trkpt>
      <trkpt lat="43.62423" lon="3.83711">
        <ele>72.2</ele>
        <time>2021-01-03T12:06:59Z</time>
      </trkpt>
      <trkpt lat="43.62422" lon="3.83706">
        <ele>72.4</ele>
        <time>2021-01-03T12:07:00Z</time>
      </trkpt>
      <trkpt lat="43.62421" lon="3.83701">
        <ele>72.6</ele>
        <time>2021-01-03T12:07:01Z</time>
      </trkpt>
      <trkpt lat="43.6242" lon="3.83698">
        <ele>72.8</ele>
        <time>2021-01-03T12:07:02Z</time>
      </trkpt>
      <trkpt lat="43.62418" lon="3.83696">
        <ele>72.9</ele>
        <time>2021-01-03T12:07:03Z</time>
      </trkpt>
      <trkpt lat="43.62416" lon="3.83693">
        <ele>73</ele>
        <time>2021-01-03T12:07:04Z</time>
      </trkpt>
      <trkpt lat="43.62415" lon="3.8369">
        <ele>79</ele>
        <time>2021-01-03T12:07:05Z</time>
      </trkpt>
      <trkpt lat="43.62415" lon="3.83687">
        <ele>73.1</ele>
        <time>2021-01-03T12:07:06Z</time>
      </trkpt>
      <trkpt lat="43.62415" lon="3.83684">
        <ele>73.1</ele>
        <time>2021-01-03T12:07:07Z</time>
      </trkpt>
      <trkpt lat="43.62414" lon="3.83682">
        <ele>73.1</ele>
        <time>2021-01-03T12:07:08Z</time>
      </trkpt>
      <trkpt lat="43.62412" lon="3.83679">
        <ele>73.2</ele>
        <time>2021-01-03T12:07:09Z</time>
      </trkpt>
      <trkpt lat="43.62412" lon="3.83676">
        <ele>73.2</ele>
        <time>2021-01-03T12:07:10Z</time>
      </trkpt>
      <trkpt lat="43.62412" lon="3.83672">
        <ele>73.2</ele>
        <time>2021-01-03T12:07:11Z</time>
      </trkpt>
      <trkpt lat="43.62414" lon="3.83669">
        <ele>73.1</ele>
        <time>2021-01-03T12:07:12Z</time>
      </trkpt>
      <trkpt lat="43.62416" lon="3.83667">
        <ele>73</ele>
        <time>2021-01-03T12:07:13Z</time>
      </trkpt>
      <trkpt lat="43.62419" lon="3.83668">
        <ele>72.9</ele>
        <time>2021-01-03T12:07:14Z</time>
      </trkpt>
      <trkpt lat="43.62422" lon="3.83668">
        <ele>78</ele>
        <time>2021-01-03T12:07:15Z</time>
      </trkpt>
      <trkpt lat="43.62424" lon="3.83668">
        <ele>72.7</ele>
        <time>2021-01-03T12:07:16Z</time>
      </trkpt>
      <trkpt lat="43.62427" lon="3.83666">
        <ele>72.6</ele>
        <time>2021-01-03T12:07:17Z</time>
      </trkpt>
      <trkpt lat="43.62429" lon="3.83666">
        <ele>72.5</ele>
        <time>2021-01-03T12:07:18Z</time>
      </trkpt>
      <trkpt lat="43.62432" lon="3.83665">
        <ele>72.4</ele>
        <time>2021-01-03T12:07:19Z</time>
      </trkpt>
      <trkpt lat="43.62434" lon="3.83664">
        <ele>72.3</ele>
        <time>2021-01-03T12:07:20Z</time>
      </trkpt>
      <trkpt lat="43.62437" lon="3.83663">
        <ele>72.1</ele>
        <time>2021-01-03T12:07:21Z</time>
      </trkpt>
      <trkpt lat="43.62439" lon="3.83662">
        <ele>72</ele>
        <time>2021-01-03T12:07:22Z</time>
      </trkpt>
      <trkpt lat="43.62442" lon="3.83661">
        <ele>71.9</ele>
        <time>2021-01-03T12:07:23Z</time>
      </trkpt>
      <trkpt lat="43.62444" lon="3.8366">
        <ele>71.8</ele>
        <time>2021-01-03T12:07:24Z</time>
      </trkpt>
      <trkpt lat="43.62447" lon="3.83659">
        <ele>78</ele>
        <time>2021-01-03T12:07:25Z</time>
      </trkpt>
      <trkpt lat="43.62449" lon="3.83658">
        <ele>71.5</ele>
        <time>2021-01-03T12:07:26Z</time>
      </trkpt>
      <trkpt lat="43.62452" lon="3.83657">
        <ele>71.3</ele>
        <time>2021-01-03T12:07:27Z</time>
      </trkpt>
      <trkpt lat="43.62454" lon="3.83656">
        <ele>71.2</ele>
        <time>2021-01-03T12:07:28Z</time>
      </trkpt>
      <trkpt lat="43.62456" lon="3.83655">
        <ele>71.1</ele>
        <time>2021-01-03T12:07:29Z</time>
      </trkpt>
      <trkpt lat="43.62458" lon="3.83654">
        <ele>71</ele>
        <time>2021-01-03T12:07:30Z</time>
      </trkpt>
      <trkpt lat="43.62461" lon="3.83653">
        <ele>70.9</ele>
        <time>2021-01-03T12:07:31Z</time>
      </trkpt>
      <trkpt lat="43.62463" lon="3.83652">
        <ele>70.8</ele>
        <time>2021-01-03T12:07:32Z</time>
      </trkpt>
      <trkpt lat="43.62465" lon="3.83652">
        <ele>70.8</ele>
        <time>2021-01-03T12:07:33Z</time>
      </trkpt>
      <trkpt lat="43.62468" lon="3.83651">
        <ele>70.7</ele>
        <time>2021-01-03T12:07:34Z</time>
      </trkpt>
      <trkpt lat="43.6247" lon="3.8365">
        <ele>78</ele>
        <time>2021-01-03T12:07:35Z</time>
      </trkpt>
      <trkpt lat="43.62473" lon="3.83649">
        <ele>70.7</ele>
        <time>2021-01-03T12:07:36Z</time>
      </trkpt>
      <trkpt lat="43.62475" lon="3.83648">
        <ele>70.8</ele>
        <time>2021-01-03T12:07:37Z</time>
      </trkpt>
      <trkpt lat="43.62478" lon="3.83647">
        <ele>71.1</ele>
        <time>2021-01-03T12:07:38Z</time>
      </trkpt>
      <trkpt lat="43.62481" lon="3.83646">
        <ele>71.3</ele>
        <time>2021-01-03T12:07:39Z</time>
      </trkpt>
      <trkpt lat="43.62484" lon="3.83645">
        <ele>71.5</ele>
        <time>2021-01-03T12:07:40Z</time>
      </trkpt>
      <trkpt lat="43.62486" lon="3.83643">
        <ele>71.8</ele>
        <time>2021-01-03T12:07:41Z</time>
      </trkpt>
      <trkpt lat="43.62489" lon="3.8364">
        <ele>72.1</ele>
        <time>2021-01-03T12:07:42Z</time>
      </trkpt>
      <trkpt lat="43.6249" lon="3.83636">
        <ele>72.5</ele>
        <time>2021-01-03T12:07:43Z</time>
      </trkpt>
      <trkpt lat="43.62492" lon="3.83633">
        <ele>72.9</ele>
        <time>2021-01-03T12:07:44Z</time>
      </trkpt>
      <trkpt lat="43.62494" lon="3.8363">
        <ele>73.3</ele>
        <time>2021-01-03T12:07:45Z</time>
      </trkpt>
      <trkpt lat="43.62495" lon="3.83626">
        <ele>78</ele>
        <time>2021-01-03T12:07:46Z</time>
      </trkpt>
      <trkpt lat="43.62496" lon="3.83622">
        <ele>74.3</ele>
        <time>2021-01-03T12:07:47Z</time>
      </trkpt>
      <trkpt lat="43.62498" lon="3.83618">
        <ele>74.9</ele>
        <time>2021-01-03T12:07:48Z</time>
      </trkpt>
      <trkpt lat="43.625" lon="3.83615">
        <ele>75.6</ele>
        <time>2021-01-03T12:07:49Z</time>
      </trkpt>
      <trkpt lat="43.62502" lon="3.83612">
        <ele>75.8</ele>
        <time>2021-01-03T12:07:50Z</time>
      </trkpt>
      <trkpt lat="43.62505" lon="3.83609">
        <ele>75.5</ele>
        <time>2021-01-03T12:07:51Z</time>
      </trkpt>
      <trkpt lat="43.62507" lon="3.83607">
        <ele>75</ele>
        <time>2021-01-03T12:07:52Z</time>
      </trkpt>
      <trkpt lat="43.6251" lon="3.83606">
        <ele>74.8</ele>
        <time>2021-01-03T12:07:53Z</time>
      </trkpt>
      <trkpt lat="43.62512" lon="3.83605">
        <ele>74.6</ele>
        <time>2021-01-03T12:07:54Z</time>
      </trkpt>
      <trkpt lat="43.62515" lon="3.83604">
        <ele>79</ele>
        <time>2021-01-03T12:07:55Z</time>
      </trkpt>
      <trkpt lat="43.62518" lon="3.83604">
        <ele>74.2</ele>
        <time>2021-01-03T12:07:56Z</time>
      </trkpt>
      <trkpt lat="43.62521" lon="3.83604">
        <ele>74.2</ele>
        <time>2021-01-03T12:07:57Z</time>
      </trkpt>
      <trkpt lat="43.62524" lon="3.83605">
        <ele>74.2</ele>
        <time>2021-01-03T12:07:58Z</time>
      </trkpt>
      <trkpt lat="43.62527" lon="3.83606">
        <ele>74.3</ele>
        <time>2021-01-03T12:07:59Z</time>
      </trkpt>
      <trkpt lat="43.6253" lon="3.83607">
        <ele>74.2</ele>
        <time>2021-01-03T12:08:00Z</time>
      </trkpt>
      <trkpt lat="43.62533" lon="3.83609">
        <ele>74</ele>
        <time>2021-01-03T12:08:01Z</time>
      </trkpt>
      <trkpt lat="43.62536" lon="3.83612">
        <ele>73.7</ele>
        <time>2021-01-03T12:08:02Z</time>
      </trkpt>
      <trkpt lat="43.62538" lon="3.83614">
        <ele>73.3</ele>
        <time>2021-01-03T12:08:03Z</time>
      </trkpt>
      <trkpt lat="43.62541" lon="3.83616">
        <ele>72.7</ele>
        <time>2021-01-03T12:08:04Z</time>
      </trkpt>
      <trkpt lat="43.62545" lon="3.83618">
        <ele>80</ele>
        <time>2021-01-03T12:08:05Z</time>
      </trkpt>
      <trkpt lat="43.62548" lon="3.83619">
        <ele>71.8</ele>
        <time>2021-01-03T12:08:06Z</time>
      </trkpt>
      <trkpt lat="43.62551" lon="3.83619">
        <ele>71.5</ele>
        <time>2021-01-03T12:08:07Z</time>
      </trkpt>
      <trkpt lat="43.62554" lon="3.83618">
        <ele>71.2</ele>
        <time>2021-01-03T12:08:08Z</time>
      </trkpt>
      <trkpt lat="43.62557" lon="3.83617">
        <ele>71.2</ele>
        <time>2021-01-03T12:08:09Z</time>
      </trkpt>
      <trkpt lat="43.62561" lon="3.83616">
        <ele>71.7</ele>
        <time>2021-01-03T12:08:10Z</time>
      </trkpt>
      <trkpt lat="43.62564" lon="3.83615">
        <ele>72.2</ele>
        <time>2021-01-03T12:08:11Z</time>
      </trkpt>
      <trkpt lat="43.62567" lon="3.83614">
        <ele>72.6</ele>
        <time>2021-01-03T12:08:12Z</time>
      </trkpt>
      <trkpt lat="43.6257" lon="3.83613">
        <ele>73</ele>
        <time>2021-01-03T12:08:13Z</time>
      </trkpt>
      <trkpt lat="43.62574" lon="3.83611">
        <ele>73.7</ele>
        <time>2021-01-03T12:08:14Z</time>
      </trkpt>
      <trkpt lat="43.62576" lon="3.83608">
        <ele>80</ele>
        <time>2021-01-03T12:08:15Z</time>
      </trkpt>
      <trkpt lat="43.62576" lon="3.83603">
        <ele>73.7</ele>
        <time>2021-01-03T12:08:16Z</time>
      </trkpt>
      <trkpt lat="43.62576" lon="3.83599">
        <ele>73.6</ele>
        <time>2021-01-03T12:08:17Z</time>
      </trkpt>
      <trkpt lat="43.62575" lon="3.83595">
        <ele>73.5</ele>
        <time>2021-01-03T12:08:18Z</time>
      </trkpt>
      <trkpt lat="43.62573" lon="3.83591">
        <ele>73.4</ele>
        <time>2021-01-03T12:08:19Z</time>
      </trkpt>
      <trkpt lat="43.62571" lon="3.83587">
        <ele>73.4</ele>
        <time>2021-01-03T12:08:20Z</time>
      </trkpt>
      <trkpt lat="43.62568" lon="3.83583">
        <ele>73.6</ele>
        <time>2021-01-03T12:08:21Z</time>
      </trkpt>
      <trkpt lat="43.62565" lon="3.83579">
        <ele>73.7</ele>
        <time>2021-01-03T12:08:22Z</time>
      </trkpt>
      <trkpt lat="43.62562" lon="3.83574">
        <ele>73.8</ele>
        <time>2021-01-03T12:08:23Z</time>
      </trkpt>
      <trkpt lat="43.62558" lon="3.83571">
        <ele>73.9</ele>
        <time>2021-01-03T12:08:24Z</time>
      </trkpt>
      <trkpt lat="43.62555" lon="3.83567">
        <ele>80</ele>
        <time>2021-01-03T12:08:25Z</time>
      </trkpt>
      <trkpt lat="43.62551" lon="3.83564">
        <ele>73.9</ele>
        <time>2021-01-03T12:08:26Z</time>
      </trkpt>
      <trkpt lat="43.62548" lon="3.83561">
        <ele>73.8</ele>
        <time>2021-01-03T12:08:27Z</time>
      </trkpt>
      <trkpt lat="43.62544" lon="3.83558">
        <ele>73.9</ele>
        <time>2021-01-03T12:08:28Z</time>
      </trkpt>
      <trkpt lat="43.62541" lon="3.83556">
        <ele>74</ele>
        <time>2021-01-03T12:08:29Z</time>
      </trkpt>
      <trkpt lat="43.62538" lon="3.83553">
        <ele>74.1</ele>
        <time>2021-01-03T12:08:30Z</time>
      </trkpt>
      <trkpt lat="43.62536" lon="3.8355">
        <ele>74.1</ele>
        <time>2021-01-03T12:08:31Z</time>
      </trkpt>
      <trkpt lat="43.62534" lon="3.83547">
        <ele>74.2</ele>
        <time>2021-01-03T12:08:32Z</time>
      </trkpt>
      <trkpt lat="43.62533" lon="3.83544">
        <ele>74.3</ele>
        <time>2021-01-03T12:08:33Z</time>
      </trkpt>
      <trkpt lat="43.62532" lon="3.83541">
        <ele>74.4</ele>
        <time>2021-01-03T12:08:34Z</time>
      </trkpt>
      <trkpt lat="43.62531" lon="3.83536">
        <ele>80</ele>
        <time>2021-01-03T12:08:35Z</time>
      </trkpt>
      <trkpt lat="43.6253" lon="3.83531">
        <ele>74.8</ele>
        <time>2021-01-03T12:08:36Z</time>
      </trkpt>
      <trkpt lat="43.62529" lon="3.83526">
        <ele>75</ele>
        <time>2021-01-03T12:08:37Z</time>
      </trkpt>
      <trkpt lat="43.62527" lon="3.83522">
        <ele>75.1</ele>
        <time>2021-01-03T12:08:38Z</time>
      </trkpt>
      <trkpt lat="43.62525" lon="3.83518">
        <ele>75</ele>
        <time>2021-01-03T12:08:39Z</time>
      </trkpt>
      <trkpt lat="43.62523" lon="3.83514">
        <ele>74.9</ele>
        <time>2021-01-03T12:08:40Z</time>
      </trkpt>
      <trkpt lat="43.62522" lon="3.83509">
        <ele>75</ele>
        <time>2021-01-03T12:08:41Z</time>
      </trkpt>
      <trkpt lat="43.6252" lon="3.83505">
        <ele>74.9</ele>
        <time>2021-01-03T12:08:42Z</time>
      </trkpt>
      <trkpt lat="43.62518" lon="3.83501">
        <ele>74.9</ele>
        <time>2021-01-03T12:08:43Z</time>
      </trkpt>
      <trkpt lat="43.62517" lon="3.83497">
        <ele>74.9</ele>
        <time>2021-01-03T12:08:44Z</time>
      </trkpt>
      <trkpt lat="43.62515" lon="3.83493">
        <ele>80</ele>
        <time>2021-01-03T12:08:45Z</time>
      </trkpt>
      <trkpt lat="43.62513" lon="3.83489">
        <ele>74.8</ele>
        <time>2021-01-03T12:08:46Z</time>
      </trkpt>
      <trkpt lat="43.62512" lon="3.83486">
        <ele>74.9</ele>
        <time>2021-01-03T12:08:47Z</time>
      </trkpt>
      <trkpt lat="43.6251" lon="3.83482">
        <ele>74.9</ele>
        <time>2021-01-03T12:08:48Z</time>
      </trkpt>
      <trkpt lat="43.62508" lon="3.83478">
        <ele>75</ele>
        <time>2021-01-03T12:08:49Z</time>
      </trkpt>
      <trkpt lat="43.62507" lon="3.83473">
        <ele>75.2</ele>
        <time>2021-01-03T12:08:50Z</time>
      </trkpt>
      <trkpt lat="43.62505" lon="3.83469">
        <ele>75.1</ele>
        <time>2021-01-03T12:08:51Z</time>
      </trkpt>
      <trkpt lat="43.62504" lon="3.83464">
        <ele>74.9</ele>
        <time>2021-01-03T12:08:52Z</time>
      </trkpt>
      <trkpt lat="43.62504" lon="3.83458">
        <ele>74.8</ele>
        <time>2021-01-03T12:08:53Z</time>
      </trkpt>
      <trkpt lat="43.62504" lon="3.83452">
        <ele>74.6</ele>
        <time>2021-01-03T12:08:54Z</time>
      </trkpt>
      <trkpt lat="43.62506" lon="3.83447">
        <ele>79</ele>
        <time>2021-01-03T12:08:55Z</time>
      </trkpt>
      <trkpt lat="43.62507" lon="3.83443">
        <ele>74.8</ele>
        <time>2021-01-03T12:08:56Z</time>
      </trkpt>
      <trkpt lat="43.62508" lon="3.83438">
        <ele>74.9</ele>
        <time>2021-01-03T12:08:57Z</time>
      </trkpt>
      <trkpt lat="43.6251" lon="3.83434">
        <ele>75.1</ele>
        <time>2021-01-03T12:08:58Z</time>
      </trkpt>
      <trkpt lat="43.62511" lon="3.83429">
        <ele>75.2</ele>
        <time>2021-01-03T12:08:59Z</time>
      </trkpt>
      <trkpt lat="43.62512" lon="3.83425">
        <ele>75.3</ele>
        <time>2021-01-03T12:09:00Z</time>
      </trkpt>
      <trkpt lat="43.62514" lon="3.8342">
        <ele>75.5</ele>
        <time>2021-01-03T12:09:01Z</time>
      </trkpt>
      <trkpt lat="43.62515" lon="3.83416">
        <ele>75.6</ele>
        <time>2021-01-03T12:09:02Z</time>
      </trkpt>
      <trkpt lat="43.62515" lon="3.8341">
        <ele>75.7</ele>
        <time>2021-01-03T12:09:03Z</time>
      </trkpt>
      <trkpt lat="43.62516" lon="3.83405">
        <ele>75.9</ele>
        <time>2021-01-03T12:09:04Z</time>
      </trkpt>
      <trkpt lat="43.62518" lon="3.83394">
        <ele>79</ele>
        <time>2021-01-03T12:09:05Z</time>
      </trkpt>
      <trkpt lat="43.62519" lon="3.83389">
        <ele>76.4</ele>
        <time>2021-01-03T12:09:06Z</time>
      </trkpt>
      <trkpt lat="43.62521" lon="3.83384">
        <ele>76.4</ele>
        <time>2021-01-03T12:09:07Z</time>
      </trkpt>
      <trkpt lat="43.62523" lon="3.83379">
        <ele>76.4</ele>
        <time>2021-01-03T12:09:08Z</time>
      </trkpt>
      <trkpt lat="43.62524" lon="3.83374">
        <ele>76.3</ele>
        <time>2021-01-03T12:09:09Z</time>
      </trkpt>
      <trkpt lat="43.62526" lon="3.8337">
        <ele>76.2</ele>
        <time>2021-01-03T12:09:10Z</time>
      </trkpt>
      <trkpt lat="43.62527" lon="3.83365">
        <ele>76.1</ele>
        <time>2021-01-03T12:09:11Z</time>
      </trkpt>
      <trkpt lat="43.62529" lon="3.8336">
        <ele>76.1</ele>
        <time>2021-01-03T12:09:12Z</time>
      </trkpt>
      <trkpt lat="43.62531" lon="3.83351">
        <ele>76.2</ele>
        <time>2021-01-03T12:09:14Z</time>
      </trkpt>
      <trkpt lat="43.62533" lon="3.83346">
        <ele>76.4</ele>
        <time>2021-01-03T12:09:16Z</time>
      </trkpt>
      <trkpt lat="43.62534" lon="3.83341">
        <ele>76.4</ele>
        <time>2021-01-03T12:09:17Z</time>
      </trkpt>
      <trkpt lat="43.62536" lon="3.83337">
        <ele>76.6</ele>
        <time>2021-01-03T12:09:18Z</time>
      </trkpt>
      <trkpt lat="43.62537" lon="3.83332">
        <ele>76.7</ele>
        <time>2021-01-03T12:09:19Z</time>
      </trkpt>
      <trkpt lat="43.62539" lon="3.83327">
        <ele>76.8</ele>
        <time>2021-01-03T12:09:20Z</time>
      </trkpt>
      <trkpt lat="43.6254" lon="3.83323">
        <ele>76.9</ele>
        <time>2021-01-03T12:09:21Z</time>
      </trkpt>
      <trkpt lat="43.62542" lon="3.83318">
        <ele>77</ele>
        <time>2021-01-03T12:09:22Z</time>
      </trkpt>
      <trkpt lat="43.62543" lon="3.83314">
        <ele>77.1</ele>
        <time>2021-01-03T12:09:23Z</time>
      </trkpt>
      <trkpt lat="43.62545" lon="3.8331">
        <ele>77.2</ele>
        <time>2021-01-03T12:09:24Z</time>
      </trkpt>
      <trkpt lat="43.62546" lon="3.83305">
        <ele>80</ele>
        <time>2021-01-03T12:09:25Z</time>
      </trkpt>
      <trkpt lat="43.62548" lon="3.83301">
        <ele>77.5</ele>
        <time>2021-01-03T12:09:26Z</time>
      </trkpt>
      <trkpt lat="43.62549" lon="3.83297">
        <ele>77.5</ele>
        <time>2021-01-03T12:09:27Z</time>
      </trkpt>
      <trkpt lat="43.62551" lon="3.83292">
        <ele>77.7</ele>
        <time>2021-01-03T12:09:28Z</time>
      </trkpt>
      <trkpt lat="43.62552" lon="3.83288">
        <ele>77.7</ele>
        <time>2021-01-03T12:09:29Z</time>
      </trkpt>
      <trkpt lat="43.62554" lon="3.83284">
        <ele>77.9</ele>
        <time>2021-01-03T12:09:30Z</time>
      </trkpt>
      <trkpt lat="43.62555" lon="3.8328">
        <ele>78</ele>
        <time>2021-01-03T12:09:31Z</time>
      </trkpt>
      <trkpt lat="43.62558" lon="3.83277">
        <ele>78</ele>
        <time>2021-01-03T12:09:32Z</time>
      </trkpt>
      <trkpt lat="43.62561" lon="3.83275">
        <ele>78</ele>
        <time>2021-01-03T12:09:33Z</time>
      </trkpt>
      <trkpt lat="43.62564" lon="3.83272">
        <ele>78.1</ele>
        <time>2021-01-03T12:09:34Z</time>
      </trkpt>
      <trkpt lat="43.62567" lon="3.8327">
        <ele>81</ele>
        <time>2021-01-03T12:09:35Z</time>
      </trkpt>
      <trkpt lat="43.62569" lon="3.83267">
        <ele>78.2</ele>
        <time>2021-01-03T12:09:36Z</time>
      </trkpt>
      <trkpt lat="43.62572" lon="3.83264">
        <ele>78.3</ele>
        <time>2021-01-03T12:09:37Z</time>
      </trkpt>
      <trkpt lat="43.62574" lon="3.83261">
        <ele>78.4</ele>
        <time>2021-01-03T12:09:38Z</time>
      </trkpt>
      <trkpt lat="43.62576" lon="3.83258">
        <ele>78.5</ele>
        <time>2021-01-03T12:09:39Z</time>
      </trkpt>
      <trkpt lat="43.62578" lon="3.83254">
        <ele>78.7</ele>
        <time>2021-01-03T12:09:40Z</time>
      </trkpt>
      <trkpt lat="43.6258" lon="3.8325">
        <ele>78.9</ele>
        <time>2021-01-03T12:09:41Z</time>
      </trkpt>
      <trkpt lat="43.62581" lon="3.83246">
        <ele>78.9</ele>
        <time>2021-01-03T12:09:42Z</time>
      </trkpt>
      <trkpt lat="43.62583" lon="3.83242">
        <ele>79</ele>
        <time>2021-01-03T12:09:43Z</time>
      </trkpt>
      <trkpt lat="43.62585" lon="3.83239">
        <ele>79</ele>
        <time>2021-01-03T12:09:44Z</time>
      </trkpt>
      <trkpt lat="43.62588" lon="3.83236">
        <ele>81</ele>
        <time>2021-01-03T12:09:45Z</time>
      </trkpt>
      <trkpt lat="43.6259" lon="3.83234">
        <ele>79.1</ele>
        <time>2021-01-03T12:09:46Z</time>
      </trkpt>
      <trkpt lat="43.62593" lon="3.83232">
        <ele>79.2</ele>
        <time>2021-01-03T12:09:47Z</time>
      </trkpt>
      <trkpt lat="43.62596" lon="3.8323">
        <ele>79.3</ele>
        <time>2021-01-03T12:09:48Z</time>
      </trkpt>
      <trkpt lat="43.62599" lon="3.83228">
        <ele>79.4</ele>
        <time>2021-01-03T12:09:49Z</time>
      </trkpt>
      <trkpt lat="43.62601" lon="3.83227">
        <ele>79.5</ele>
        <time>2021-01-03T12:09:50Z</time>
      </trkpt>
      <trkpt lat="43.62604" lon="3.83225">
        <ele>79.7</ele>
        <time>2021-01-03T12:09:51Z</time>
      </trkpt>
      <trkpt lat="43.62607" lon="3.83223">
        <ele>79.8</ele>
        <time>2021-01-03T12:09:52Z</time>
      </trkpt>
      <trkpt lat="43.62609" lon="3.8322">
        <ele>79.9</ele>
        <time>2021-01-03T12:09:53Z</time>
      </trkpt>
      <trkpt lat="43.62612" lon="3.83218">
        <ele>80</ele>
        <time>2021-01-03T12:09:54Z</time>
      </trkpt>
      <trkpt lat="43.62614" lon="3.83216">
        <ele>82</ele>
        <time>2021-01-03T12:09:55Z</time>
      </trkpt>
      <trkpt lat="43.62617" lon="3.83214">
        <ele>80.1</ele>
        <time>2021-01-03T12:09:56Z</time>
      </trkpt>
      <trkpt lat="43.6262" lon="3.83213">
        <ele>80.1</ele>
        <time>2021-01-03T12:09:57Z</time>
      </trkpt>
      <trkpt lat="43.62623" lon="3.83211">
        <ele>80.2</ele>
        <time>2021-01-03T12:09:58Z</time>
      </trkpt>
      <trkpt lat="43.62626" lon="3.83209">
        <ele>80.3</ele>
        <time>2021-01-03T12:09:59Z</time>
      </trkpt>
      <trkpt lat="43.62628" lon="3.83207">
        <ele>80.3</ele>
        <time>2021-01-03T12:10:00Z</time>
      </trkpt>
      <trkpt lat="43.62631" lon="3.83205">
        <ele>80.4</ele>
        <time>2021-01-03T12:10:01Z</time>
      </trkpt>
      <trkpt lat="43.62633" lon="3.83203">
        <ele>80.5</ele>
        <time>2021-01-03T12:10:02Z</time>
      </trkpt>
      <trkpt lat="43.62636" lon="3.83201">
        <ele>80.7</ele>
        <time>2021-01-03T12:10:03Z</time>
      </trkpt>
      <trkpt lat="43.62638" lon="3.83199">
        <ele>80.8</ele>
        <time>2021-01-03T12:10:04Z</time>
      </trkpt>
      <trkpt lat="43.62641" lon="3.83197">
        <ele>82</ele>
        <time>2021-01-03T12:10:05Z</time>
      </trkpt>
      <trkpt lat="43.62643" lon="3.83195">
        <ele>81.1</ele>
        <time>2021-01-03T12:10:06Z</time>
      </trkpt>
      <trkpt lat="43.62646" lon="3.83194">
        <ele>81.3</ele>
        <time>2021-01-03T12:10:07Z</time>
      </trkpt>
      <trkpt lat="43.62649" lon="3.83193">
        <ele>81.4</ele>
        <time>2021-01-03T12:10:08Z</time>
      </trkpt>
      <trkpt lat="43.62652" lon="3.83191">
        <ele>81.5</ele>
        <time>2021-01-03T12:10:09Z</time>
      </trkpt>
      <trkpt lat="43.62655" lon="3.83189">
        <ele>81.6</ele>
        <time>2021-01-03T12:10:10Z</time>
      </trkpt>
      <trkpt lat="43.62658" lon="3.83187">
        <ele>81.7</ele>
        <time>2021-01-03T12:10:11Z</time>
      </trkpt>
      <trkpt lat="43.6266" lon="3.83186">
        <ele>81.8</ele>
        <time>2021-01-03T12:10:12Z</time>
      </trkpt>
      <trkpt lat="43.62663" lon="3.83184">
        <ele>81.9</ele>
        <time>2021-01-03T12:10:13Z</time>
      </trkpt>
      <trkpt lat="43.62666" lon="3.83182">
        <ele>82</ele>
        <time>2021-01-03T12:10:14Z</time>
      </trkpt>
      <trkpt lat="43.62669" lon="3.8318">
        <ele>82.1</ele>
        <time>2021-01-03T12:10:15Z</time>
      </trkpt>
      <trkpt lat="43.62671" lon="3.83179">
        <ele>83</ele>
        <time>2021-01-03T12:10:16Z</time>
      </trkpt>
      <trkpt lat="43.62673" lon="3.83176">
        <ele>82.2</ele>
        <time>2021-01-03T12:10:17Z</time>
      </trkpt>
      <trkpt lat="43.62675" lon="3.83174">
        <ele>82.3</ele>
        <time>2021-01-03T12:10:18Z</time>
      </trkpt>
      <trkpt lat="43.62676" lon="3.8317">
        <ele>82.3</ele>
        <time>2021-01-03T12:10:19Z</time>
      </trkpt>
      <trkpt lat="43.62675" lon="3.83167">
        <ele>82.3</ele>
        <time>2021-01-03T12:10:20Z</time>
      </trkpt>
      <trkpt lat="43.62674" lon="3.83164">
        <ele>82.4</ele>
        <time>2021-01-03T12:10:21Z</time>
      </trkpt>
      <trkpt lat="43.62672" lon="3.8316">
        <ele>82.4</ele>
        <time>2021-01-03T12:10:22Z</time>
      </trkpt>
      <trkpt lat="43.62671" lon="3.83156">
        <ele>82.5</ele>
        <time>2021-01-03T12:10:23Z</time>
      </trkpt>
      <trkpt lat="43.62672" lon="3.83153">
        <ele>82.7</ele>
        <time>2021-01-03T12:10:24Z</time>
      </trkpt>
      <trkpt lat="43.62674" lon="3.8315">
        <ele>83</ele>
        <time>2021-01-03T12:10:25Z</time>
      </trkpt>
      <trkpt lat="43.62677" lon="3.83148">
        <ele>83</ele>
        <time>2021-01-03T12:10:26Z</time>
      </trkpt>
      <trkpt lat="43.6268" lon="3.83146">
        <ele>83.2</ele>
        <time>2021-01-03T12:10:27Z</time>
      </trkpt>
      <trkpt lat="43.62683" lon="3.83144">
        <ele>83.4</ele>
        <time>2021-01-03T12:10:28Z</time>
      </trkpt>
      <trkpt lat="43.62685" lon="3.83142">
        <ele>83.5</ele>
        <time>2021-01-03T12:10:29Z</time>
      </trkpt>
      <trkpt lat="43.62688" lon="3.8314">
        <ele>83.7</ele>
        <time>2021-01-03T12:10:30Z</time>
      </trkpt>
      <trkpt lat="43.6269" lon="3.83138">
        <ele>83.8</ele>
        <time>2021-01-03T12:10:31Z</time>
      </trkpt>
      <trkpt lat="43.62693" lon="3.83137">
        <ele>83.9</ele>
        <time>2021-01-03T12:10:32Z</time>
      </trkpt>
      <trkpt lat="43.62695" lon="3.83135">
        <ele>84</ele>
        <time>2021-01-03T12:10:33Z</time>
      </trkpt>
      <trkpt lat="43.62698" lon="3.83133">
        <ele>84.2</ele>
        <time>2021-01-03T12:10:34Z</time>
      </trkpt>
      <trkpt lat="43.62703" lon="3.8313">
        <ele>84</ele>
        <time>2021-01-03T12:10:35Z</time>
      </trkpt>
      <trkpt lat="43.62705" lon="3.83129">
        <ele>84.5</ele>
        <time>2021-01-03T12:10:36Z</time>
      </trkpt>
      <trkpt lat="43.62708" lon="3.83127">
        <ele>84.7</ele>
        <time>2021-01-03T12:10:37Z</time>
      </trkpt>
      <trkpt lat="43.6271" lon="3.83126">
        <ele>84.8</ele>
        <time>2021-01-03T12:10:38Z</time>
      </trkpt>
      <trkpt lat="43.62712" lon="3.83124">
        <ele>85</ele>
        <time>2021-01-03T12:10:39Z</time>
      </trkpt>
      <trkpt lat="43.62715" lon="3.83123">
        <ele>85.2</ele>
        <time>2021-01-03T12:10:40Z</time>
      </trkpt>
      <trkpt lat="43.62717" lon="3.83122">
        <ele>85.3</ele>
        <time>2021-01-03T12:10:41Z</time>
      </trkpt>
      <trkpt lat="43.6272" lon="3.83121">
        <ele>85.5</ele>
        <time>2021-01-03T12:10:42Z</time>
      </trkpt>
      <trkpt lat="43.62722" lon="3.8312">
        <ele>85.7</ele>
        <time>2021-01-03T12:10:43Z</time>
      </trkpt>
      <trkpt lat="43.62725" lon="3.83118">
        <ele>85.8</ele>
        <time>2021-01-03T12:10:44Z</time>
      </trkpt>
      <trkpt lat="43.62727" lon="3.83117">
        <ele>85.8</ele>
        <time>2021-01-03T12:10:46Z</time>
      </trkpt>
      <trkpt lat="43.62729" lon="3.83116">
        <ele>85.8</ele>
        <time>2021-01-03T12:10:47Z</time>
      </trkpt>
      <trkpt lat="43.62731" lon="3.83114">
        <ele>85.9</ele>
        <time>2021-01-03T12:10:48Z</time>
      </trkpt>
      <trkpt lat="43.62734" lon="3.83113">
        <ele>85.9</ele>
        <time>2021-01-03T12:10:49Z</time>
      </trkpt>
      <trkpt lat="43.62736" lon="3.83112">
        <ele>86</ele>
        <time>2021-01-03T12:10:50Z</time>
      </trkpt>
      <trkpt lat="43.62738" lon="3.8311">
        <ele>86</ele>
        <time>2021-01-03T12:10:51Z</time>
      </trkpt>
      <trkpt lat="43.62741" lon="3.83109">
        <ele>86</ele>
        <time>2021-01-03T12:10:52Z</time>
      </trkpt>
      <trkpt lat="43.62744" lon="3.83108">
        <ele>86</ele>
        <time>2021-01-03T12:10:53Z</time>
      </trkpt>
      <trkpt lat="43.62747" lon="3.83107">
        <ele>86</ele>
        <time>2021-01-03T12:10:54Z</time>
      </trkpt>
      <trkpt lat="43.6275" lon="3.83106">
        <ele>86</ele>
        <time>2021-01-03T12:10:55Z</time>
      </trkpt>
      <trkpt lat="43.62756" lon="3.83103">
        <ele>86</ele>
        <time>2021-01-03T12:10:56Z</time>
      </trkpt>
      <trkpt lat="43.6276" lon="3.83102">
        <ele>85.8</ele>
        <time>2021-01-03T12:10:57Z</time>
      </trkpt>
      <trkpt lat="43.62763" lon="3.831">
        <ele>85.7</ele>
        <time>2021-01-03T12:10:58Z</time>
      </trkpt>
      <trkpt lat="43.62767" lon="3.83099">
        <ele>85.7</ele>
        <time>2021-01-03T12:10:59Z</time>
      </trkpt>
      <trkpt lat="43.62775" lon="3.83098">
        <ele>85.5</ele>
        <time>2021-01-03T12:11:01Z</time>
      </trkpt>
      <trkpt lat="43.62779" lon="3.83097">
        <ele>85.5</ele>
        <time>2021-01-03T12:11:02Z</time>
      </trkpt>
      <trkpt lat="43.62783" lon="3.83097">
        <ele>85.3</ele>
        <time>2021-01-03T12:11:03Z</time>
      </trkpt>
      <trkpt lat="43.62788" lon="3.83096">
        <ele>86</ele>
        <time>2021-01-03T12:11:05Z</time>
      </trkpt>
      <trkpt lat="43.62792" lon="3.83095">
        <ele>85</ele>
        <time>2021-01-03T12:11:06Z</time>
      </trkpt>
      <trkpt lat="43.62797" lon="3.83094">
        <ele>84.8</ele>
        <time>2021-01-03T12:11:07Z</time>
      </trkpt>
      <trkpt lat="43.62801" lon="3.83092">
        <ele>84.5</ele>
        <time>2021-01-03T12:11:08Z</time>
      </trkpt>
      <trkpt lat="43.62806" lon="3.83091">
        <ele>84.3</ele>
        <time>2021-01-03T12:11:09Z</time>
      </trkpt>
      <trkpt lat="43.62811" lon="3.83089">
        <ele>84.2</ele>
        <time>2021-01-03T12:11:10Z</time>
      </trkpt>
      <trkpt lat="43.62815" lon="3.83088">
        <ele>84.2</ele>
        <time>2021-01-03T12:11:11Z</time>
      </trkpt>
      <trkpt lat="43.62819" lon="3.83087">
        <ele>84.1</ele>
        <time>2021-01-03T12:11:12Z</time>
      </trkpt>
      <trkpt lat="43.62824" lon="3.83087">
        <ele>84.1</ele>
        <time>2021-01-03T12:11:13Z</time>
      </trkpt>
      <trkpt lat="43.62828" lon="3.83086">
        <ele>84.1</ele>
        <time>2021-01-03T12:11:14Z</time>
      </trkpt>
      <trkpt lat="43.62831" lon="3.83083">
        <ele>86</ele>
        <time>2021-01-03T12:11:15Z</time>
      </trkpt>
      <trkpt lat="43.62833" lon="3.8308">
        <ele>83.5</ele>
        <time>2021-01-03T12:11:16Z</time>
      </trkpt>
      <trkpt lat="43.62834" lon="3.83077">
        <ele>83.1</ele>
        <time>2021-01-03T12:11:17Z</time>
      </trkpt>
      <trkpt lat="43.62836" lon="3.83074">
        <ele>82.6</ele>
        <time>2021-01-03T12:11:18Z</time>
      </trkpt>
      <trkpt lat="43.62837" lon="3.83072">
        <ele>82.3</ele>
        <time>2021-01-03T12:11:19Z</time>
      </trkpt>
      <trkpt lat="43.62838" lon="3.8307">
        <ele>82</ele>
        <time>2021-01-03T12:11:20Z</time>
      </trkpt>
      <trkpt lat="43.62839" lon="3.83067">
        <ele>81.6</ele>
        <time>2021-01-03T12:11:21Z</time>
      </trkpt>
      <trkpt lat="43.62841" lon="3.83062">
        <ele>80.9</ele>
        <time>2021-01-03T12:11:22Z</time>
      </trkpt>
      <trkpt lat="43.62842" lon="3.83055">
        <ele>80</ele>
        <time>2021-01-03T12:11:23Z</time>
      </trkpt>
      <trkpt lat="43.62842" lon="3.83048">
        <ele>79.5</ele>
        <time>2021-01-03T12:11:24Z</time>
      </trkpt>
      <trkpt lat="43.6284" lon="3.8304">
        <ele>83</ele>
        <time>2021-01-03T12:11:25Z</time>
      </trkpt>
      <trkpt lat="43.62839" lon="3.83032">
        <ele>78.3</ele>
        <time>2021-01-03T12:11:26Z</time>
      </trkpt>
      <trkpt lat="43.62837" lon="3.83022">
        <ele>77.6</ele>
        <time>2021-01-03T12:11:27Z</time>
      </trkpt>
      <trkpt lat="43.62836" lon="3.83012">
        <ele>76.9</ele>
        <time>2021-01-03T12:11:28Z</time>
      </trkpt>
      <trkpt lat="43.62836" lon="3.83002">
        <ele>76.2</ele>
        <time>2021-01-03T12:11:29Z</time>
      </trkpt>
      <trkpt lat="43.62836" lon="3.82992">
        <ele>75.8</ele>
        <time>2021-01-03T12:11:30Z</time>
      </trkpt>
      <trkpt lat="43.62836" lon="3.82982">
        <ele>75.4</ele>
        <time>2021-01-03T12:11:31Z</time>
      </trkpt>
      <trkpt lat="43.62835" lon="3.82974">
        <ele>75.1</ele>
        <time>2021-01-03T12:11:32Z</time>
      </trkpt>
      <trkpt lat="43.62833" lon="3.82965">
        <ele>74.2</ele>
        <time>2021-01-03T12:11:33Z</time>
      </trkpt>
      <trkpt lat="43.62832" lon="3.82958">
        <ele>73.5</ele>
        <time>2021-01-03T12:11:34Z</time>
      </trkpt>
      <trkpt lat="43.62832" lon="3.82952">
        <ele>80</ele>
        <time>2021-01-03T12:11:35Z</time>
      </trkpt>
      <trkpt lat="43.62833" lon="3.82946">
        <ele>72.2</ele>
        <time>2021-01-03T12:11:36Z</time>
      </trkpt>
      <trkpt lat="43.62833" lon="3.82941">
        <ele>71.8</ele>
        <time>2021-01-03T12:11:37Z</time>
      </trkpt>
      <trkpt lat="43.62834" lon="3.82937">
        <ele>71.5</ele>
        <time>2021-01-03T12:11:38Z</time>
      </trkpt>
      <trkpt lat="43.62836" lon="3.82935">
        <ele>71.4</ele>
        <time>2021-01-03T12:11:39Z</time>
      </trkpt>
      <trkpt lat="43.62839" lon="3.82935">
        <ele>71.6</ele>
        <time>2021-01-03T12:11:40Z</time>
      </trkpt>
      <trkpt lat="43.62842" lon="3.82936">
        <ele>71.8</ele>
        <time>2021-01-03T12:11:41Z</time>
      </trkpt>
      <trkpt lat="43.62846" lon="3.82938">
        <ele>72.1</ele>
        <time>2021-01-03T12:11:42Z</time>
      </trkpt>
      <trkpt lat="43.62849" lon="3.8294">
        <ele>72.3</ele>
        <time>2021-01-03T12:11:43Z</time>
      </trkpt>
      <trkpt lat="43.62852" lon="3.82941">
        <ele>72.5</ele>
        <time>2021-01-03T12:11:44Z</time>
      </trkpt>
      <trkpt lat="43.62855" lon="3.82942">
        <ele>77</ele>
        <time>2021-01-03T12:11:45Z</time>
      </trkpt>
      <trkpt lat="43.62858" lon="3.82943">
        <ele>72.8</ele>
        <time>2021-01-03T12:11:46Z</time>
      </trkpt>
      <trkpt lat="43.62862" lon="3.82943">
        <ele>72.9</ele>
        <time>2021-01-03T12:11:47Z</time>
      </trkpt>
      <trkpt lat="43.62865" lon="3.82944">
        <ele>73</ele>
        <time>2021-01-03T12:11:48Z</time>
      </trkpt>
      <trkpt lat="43.62868" lon="3.82944">
        <ele>73</ele>
        <time>2021-01-03T12:11:49Z</time>
      </trkpt>
      <trkpt lat="43.62872" lon="3.82945">
        <ele>73.1</ele>
        <time>2021-01-03T12:11:50Z</time>
      </trkpt>
      <trkpt lat="43.62875" lon="3.82946">
        <ele>73.2</ele>
        <time>2021-01-03T12:11:51Z</time>
      </trkpt>
      <trkpt lat="43.62879" lon="3.82946">
        <ele>73.2</ele>
        <time>2021-01-03T12:11:52Z</time>
      </trkpt>
      <trkpt lat="43.62882" lon="3.82947">
        <ele>73.3</ele>
        <time>2021-01-03T12:11:53Z</time>
      </trkpt>
      <trkpt lat="43.62886" lon="3.82947">
        <ele>73.3</ele>
        <time>2021-01-03T12:11:54Z</time>
      </trkpt>
      <trkpt lat="43.62889" lon="3.82948">
        <ele>77</ele>
        <time>2021-01-03T12:11:55Z</time>
      </trkpt>
      <trkpt lat="43.62893" lon="3.82949">
        <ele>73.6</ele>
        <time>2021-01-03T12:11:56Z</time>
      </trkpt>
      <trkpt lat="43.62896" lon="3.8295">
        <ele>73.9</ele>
        <time>2021-01-03T12:11:57Z</time>
      </trkpt>
      <trkpt lat="43.62899" lon="3.82951">
        <ele>74.1</ele>
        <time>2021-01-03T12:11:58Z</time>
      </trkpt>
      <trkpt lat="43.62902" lon="3.82953">
        <ele>74.4</ele>
        <time>2021-01-03T12:11:59Z</time>
      </trkpt>
      <trkpt lat="43.62905" lon="3.82954">
        <ele>74.6</ele>
        <time>2021-01-03T12:12:00Z</time>
      </trkpt>
      <trkpt lat="43.62908" lon="3.82955">
        <ele>74.8</ele>
        <time>2021-01-03T12:12:01Z</time>
      </trkpt>
      <trkpt lat="43.62911" lon="3.82956">
        <ele>75</ele>
        <time>2021-01-03T12:12:02Z</time>
      </trkpt>
      <trkpt lat="43.62914" lon="3.82958">
        <ele>75.4</ele>
        <time>2021-01-03T12:12:03Z</time>
      </trkpt>
      <trkpt lat="43.62917" lon="3.82959">
        <ele>75.6</ele>
        <time>2021-01-03T12:12:04Z</time>
      </trkpt>
      <trkpt lat="43.6292" lon="3.8296">
        <ele>78</ele>
        <time>2021-01-03T12:12:05Z</time>
      </trkpt>
      <trkpt lat="43.62923" lon="3.82962">
        <ele>75.9</ele>
        <time>2021-01-03T12:12:06Z</time>
      </trkpt>
      <trkpt lat="43.62925" lon="3.82963">
        <ele>76</ele>
        <time>2021-01-03T12:12:07Z</time>
      </trkpt>
      <trkpt lat="43.62928" lon="3.82964">
        <ele>76.1</ele>
        <time>2021-01-03T12:12:08Z</time>
      </trkpt>
      <trkpt lat="43.62931" lon="3.82965">
        <ele>76.2</ele>
        <time>2021-01-03T12:12:09Z</time>
      </trkpt>
      <trkpt lat="43.62933" lon="3.82966">
        <ele>76.3</ele>
        <time>2021-01-03T12:12:10Z</time>
      </trkpt>
      <trkpt lat="43.62936" lon="3.82967">
        <ele>76.4</ele>
        <time>2021-01-03T12:12:11Z</time>
      </trkpt>
      <trkpt lat="43.62939" lon="3.82968">
        <ele>76.5</ele>
        <time>2021-01-03T12:12:12Z</time>
      </trkpt>
      <trkpt lat="43.62941" lon="3.82969">
        <ele>76.7</ele>
        <time>2021-01-03T12:12:13Z</time>
      </trkpt>
      <trkpt lat="43.62943" lon="3.8297">
        <ele>76.8</ele>
        <time>2021-01-03T12:12:14Z</time>
      </trkpt>
      <trkpt lat="43.62946" lon="3.82971">
        <ele>79</ele>
        <time>2021-01-03T12:12:15Z</time>
      </trkpt>
      <trkpt lat="43.62948" lon="3.82973">
        <ele>77.2</ele>
        <time>2021-01-03T12:12:16Z</time>
      </trkpt>
      <trkpt lat="43.62951" lon="3.82974">
        <ele>77.3</ele>
        <time>2021-01-03T12:12:17Z</time>
      </trkpt>
      <trkpt lat="43.62953" lon="3.82975">
        <ele>77.5</ele>
        <time>2021-01-03T12:12:18Z</time>
      </trkpt>
      <trkpt lat="43.62956" lon="3.82976">
        <ele>77.6</ele>
        <time>2021-01-03T12:12:19Z</time>
      </trkpt>
      <trkpt lat="43.62959" lon="3.82977">
        <ele>77.8</ele>
        <time>2021-01-03T12:12:20Z</time>
      </trkpt>
      <trkpt lat="43.62962" lon="3.82978">
        <ele>77.9</ele>
        <time>2021-01-03T12:12:21Z</time>
      </trkpt>
      <trkpt lat="43.62965" lon="3.82978">
        <ele>78</ele>
        <time>2021-01-03T12:12:22Z</time>
      </trkpt>
      <trkpt lat="43.62968" lon="3.82978">
        <ele>78.1</ele>
        <time>2021-01-03T12:12:23Z</time>
      </trkpt>
      <trkpt lat="43.62971" lon="3.82976">
        <ele>78.1</ele>
        <time>2021-01-03T12:12:24Z</time>
      </trkpt>
      <trkpt lat="43.62974" lon="3.82975">
        <ele>80</ele>
        <time>2021-01-03T12:12:25Z</time>
      </trkpt>
      <trkpt lat="43.62978" lon="3.82974">
        <ele>78.3</ele>
        <time>2021-01-03T12:12:26Z</time>
      </trkpt>
      <trkpt lat="43.62981" lon="3.82972">
        <ele>78.3</ele>
        <time>2021-01-03T12:12:27Z</time>
      </trkpt>
      <trkpt lat="43.62984" lon="3.82971">
        <ele>78.3</ele>
        <time>2021-01-03T12:12:28Z</time>
      </trkpt>
      <trkpt lat="43.62988" lon="3.82969">
        <ele>78.3</ele>
        <time>2021-01-03T12:12:29Z</time>
      </trkpt>
      <trkpt lat="43.62991" lon="3.82967">
        <ele>78.2</ele>
        <time>2021-01-03T12:12:30Z</time>
      </trkpt>
      <trkpt lat="43.62994" lon="3.82964">
        <ele>78.1</ele>
        <time>2021-01-03T12:12:31Z</time>
      </trkpt>
      <trkpt lat="43.62998" lon="3.82962">
        <ele>78.2</ele>
        <time>2021-01-03T12:12:32Z</time>
      </trkpt>
      <trkpt lat="43.63001" lon="3.8296">
        <ele>78.2</ele>
        <time>2021-01-03T12:12:33Z</time>
      </trkpt>
      <trkpt lat="43.63004" lon="3.82958">
        <ele>78.1</ele>
        <time>2021-01-03T12:12:34Z</time>
      </trkpt>
      <trkpt lat="43.63007" lon="3.82957">
        <ele>80</ele>
        <time>2021-01-03T12:12:35Z</time>
      </trkpt>
      <trkpt lat="43.6301" lon="3.82955">
        <ele>78.1</ele>
        <time>2021-01-03T12:12:36Z</time>
      </trkpt>
      <trkpt lat="43.63014" lon="3.82954">
        <ele>78.2</ele>
        <time>2021-01-03T12:12:37Z</time>
      </trkpt>
      <trkpt lat="43.63017" lon="3.82952">
        <ele>78.2</ele>
        <time>2021-01-03T12:12:38Z</time>
      </trkpt>
      <trkpt lat="43.6302" lon="3.82951">
        <ele>78.2</ele>
        <time>2021-01-03T12:12:39Z</time>
      </trkpt>
      <trkpt lat="43.63023" lon="3.8295">
        <ele>78.2</ele>
        <time>2021-01-03T12:12:40Z</time>
      </trkpt>
      <trkpt lat="43.63026" lon="3.82952">
        <ele>78.5</ele>
        <time>2021-01-03T12:12:41Z</time>
      </trkpt>
      <trkpt lat="43.63029" lon="3.82954">
        <ele>78.7</ele>
        <time>2021-01-03T12:12:42Z</time>
      </trkpt>
      <trkpt lat="43.63031" lon="3.82956">
        <ele>78.9</ele>
        <time>2021-01-03T12:12:43Z</time>
      </trkpt>
      <trkpt lat="43.63034" lon="3.82959">
        <ele>79.3</ele>
        <time>2021-01-03T12:12:44Z</time>
      </trkpt>
      <trkpt lat="43.63036" lon="3.82962">
        <ele>81</ele>
        <time>2021-01-03T12:12:45Z</time>
      </trkpt>
      <trkpt lat="43.63038" lon="3.82964">
        <ele>79.8</ele>
        <time>2021-01-03T12:12:46Z</time>
      </trkpt>
      <trkpt lat="43.6304" lon="3.82967">
        <ele>80.1</ele>
        <time>2021-01-03T12:12:47Z</time>
      </trkpt>
      <trkpt lat="43.63042" lon="3.82969">
        <ele>80.3</ele>
        <time>2021-01-03T12:12:48Z</time>
      </trkpt>
      <trkpt lat="43.63044" lon="3.82972">
        <ele>80.6</ele>
        <time>2021-01-03T12:12:49Z</time>
      </trkpt>
      <trkpt lat="43.63046" lon="3.82974">
        <ele>80.7</ele>
        <time>2021-01-03T12:12:50Z</time>
      </trkpt>
      <trkpt lat="43.63048" lon="3.82977">
        <ele>80.8</ele>
        <time>2021-01-03T12:12:51Z</time>
      </trkpt>
      <trkpt lat="43.6305" lon="3.82979">
        <ele>80.8</ele>
        <time>2021-01-03T12:12:52Z</time>
      </trkpt>
      <trkpt lat="43.63052" lon="3.82981">
        <ele>80.9</ele>
        <time>2021-01-03T12:12:53Z</time>
      </trkpt>
      <trkpt lat="43.63054" lon="3.82984">
        <ele>81</ele>
        <time>2021-01-03T12:12:54Z</time>
      </trkpt>
      <trkpt lat="43.63056" lon="3.82986">
        <ele>82</ele>
        <time>2021-01-03T12:12:55Z</time>
      </trkpt>
      <trkpt lat="43.63058" lon="3.82989">
        <ele>80.8</ele>
        <time>2021-01-03T12:12:56Z</time>
      </trkpt>
      <trkpt lat="43.6306" lon="3.82991">
        <ele>80.7</ele>
        <time>2021-01-03T12:12:57Z</time>
      </trkpt>
      <trkpt lat="43.63062" lon="3.82993">
        <ele>80.5</ele>
        <time>2021-01-03T12:12:58Z</time>
      </trkpt>
      <trkpt lat="43.63064" lon="3.82993">
        <ele>80.4</ele>
        <time>2021-01-03T12:12:59Z</time>
      </trkpt>
      <trkpt lat="43.63067" lon="3.82992">
        <ele>80.2</ele>
        <time>2021-01-03T12:13:00Z</time>
      </trkpt>
      <trkpt lat="43.6307" lon="3.8299">
        <ele>80</ele>
        <time>2021-01-03T12:13:01Z</time>
      </trkpt>
      <trkpt lat="43.63073" lon="3.82986">
        <ele>79.7</ele>
        <time>2021-01-03T12:13:02Z</time>
      </trkpt>
      <trkpt lat="43.63076" lon="3.82982">
        <ele>79.5</ele>
        <time>2021-01-03T12:13:03Z</time>
      </trkpt>
      <trkpt lat="43.63079" lon="3.82978">
        <ele>79.3</ele>
        <time>2021-01-03T12:13:04Z</time>
      </trkpt>
      <trkpt lat="43.63082" lon="3.82974">
        <ele>82</ele>
        <time>2021-01-03T12:13:05Z</time>
      </trkpt>
      <trkpt lat="43.63087" lon="3.82972">
        <ele>78.9</ele>
        <time>2021-01-03T12:13:06Z</time>
      </trkpt>
      <trkpt lat="43.63092" lon="3.82972">
        <ele>78.7</ele>
        <time>2021-01-03T12:13:07Z</time>
      </trkpt>
      <trkpt lat="43.63096" lon="3.82972">
        <ele>78.5</ele>
        <time>2021-01-03T12:13:08Z</time>
      </trkpt>
      <trkpt lat="43.631" lon="3.82972">
        <ele>78.4</ele>
        <time>2021-01-03T12:13:09Z</time>
      </trkpt>
      <trkpt lat="43.63104" lon="3.82972">
        <ele>78.2</ele>
        <time>2021-01-03T12:13:10Z</time>
      </trkpt>
      <trkpt lat="43.63108" lon="3.82973">
        <ele>78.1</ele>
        <time>2021-01-03T12:13:11Z</time>
      </trkpt>
      <trkpt lat="43.63112" lon="3.82974">
        <ele>77.8</ele>
        <time>2021-01-03T12:13:12Z</time>
      </trkpt>
      <trkpt lat="43.63115" lon="3.82974">
        <ele>77.4</ele>
        <time>2021-01-03T12:13:13Z</time>
      </trkpt>
      <trkpt lat="43.63118" lon="3.82974">
        <ele>77</ele>
        <time>2021-01-03T12:13:14Z</time>
      </trkpt>
      <trkpt lat="43.63122" lon="3.82973">
        <ele>80</ele>
        <time>2021-01-03T12:13:15Z</time>
      </trkpt>
      <trkpt lat="43.63126" lon="3.82972">
        <ele>75.8</ele>
        <time>2021-01-03T12:13:16Z</time>
      </trkpt>
      <trkpt lat="43.63131" lon="3.82971">
        <ele>75.1</ele>
        <time>2021-01-03T12:13:17Z</time>
      </trkpt>
      <trkpt lat="43.63135" lon="3.82971">
        <ele>74.5</ele>
        <time>2021-01-03T12:13:18Z</time>
      </trkpt>
      <trkpt lat="43.63139" lon="3.82971">
        <ele>74</ele>
        <time>2021-01-03T12:13:19Z</time>
      </trkpt>
      <trkpt lat="43.63144" lon="3.82971">
        <ele>74.1</ele>
        <time>2021-01-03T12:13:20Z</time>
      </trkpt>
      <trkpt lat="43.63147" lon="3.82971">
        <ele>74.3</ele>
        <time>2021-01-03T12:13:21Z</time>
      </trkpt>
      <trkpt lat="43.63151" lon="3.82971">
        <ele>74.4</ele>
        <time>2021-01-03T12:13:22Z</time>
      </trkpt>
      <trkpt lat="43.63155" lon="3.82971">
        <ele>74.6</ele>
        <time>2021-01-03T12:13:23Z</time>
      </trkpt>
      <trkpt lat="43.63159" lon="3.82971">
        <ele>74.7</ele>
        <time>2021-01-03T12:13:24Z</time>
      </trkpt>
      <trkpt lat="43.63163" lon="3.82971">
        <ele>79</ele>
        <time>2021-01-03T12:13:25Z</time>
      </trkpt>
      <trkpt lat="43.63167" lon="3.82971">
        <ele>75</ele>
        <time>2021-01-03T12:13:26Z</time>
      </trkpt>
      <trkpt lat="43.63171" lon="3.82971">
        <ele>75.2</ele>
        <time>2021-01-03T12:13:27Z</time>
      </trkpt>
      <trkpt lat="43.63175" lon="3.82971">
        <ele>75.3</ele>
        <time>2021-01-03T12:13:28Z</time>
      </trkpt>
      <trkpt lat="43.63178" lon="3.8297">
        <ele>75.4</ele>
        <time>2021-01-03T12:13:29Z</time>
      </trkpt>
      <trkpt lat="43.63182" lon="3.82969">
        <ele>75.6</ele>
        <time>2021-01-03T12:13:30Z</time>
      </trkpt>
      <trkpt lat="43.63186" lon="3.82966">
        <ele>75.7</ele>
        <time>2021-01-03T12:13:31Z</time>
      </trkpt>
      <trkpt lat="43.6319" lon="3.82963">
        <ele>75.8</ele>
        <time>2021-01-03T12:13:32Z</time>
      </trkpt>
      <trkpt lat="43.63194" lon="3.8296">
        <ele>76</ele>
        <time>2021-01-03T12:13:33Z</time>
      </trkpt>
      <trkpt lat="43.63197" lon="3.82957">
        <ele>76.2</ele>
        <time>2021-01-03T12:13:34Z</time>
      </trkpt>
      <trkpt lat="43.63201" lon="3.82954">
        <ele>79</ele>
        <time>2021-01-03T12:13:35Z</time>
      </trkpt>
      <trkpt lat="43.63204" lon="3.82952">
        <ele>76.7</ele>
        <time>2021-01-03T12:13:36Z</time>
      </trkpt>
      <trkpt lat="43.63207" lon="3.8295">
        <ele>76.9</ele>
        <time>2021-01-03T12:13:37Z</time>
      </trkpt>
      <trkpt lat="43.6321" lon="3.82947">
        <ele>77.1</ele>
        <time>2021-01-03T12:13:38Z</time>
      </trkpt>
      <trkpt lat="43.63211" lon="3.82943">
        <ele>77.2</ele>
        <time>2021-01-03T12:13:39Z</time>
      </trkpt>
      <trkpt lat="43.6321" lon="3.82939">
        <ele>77.3</ele>
        <time>2021-01-03T12:13:40Z</time>
      </trkpt>
      <trkpt lat="43.63208" lon="3.82934">
        <ele>77.4</ele>
        <time>2021-01-03T12:13:41Z</time>
      </trkpt>
      <trkpt lat="43.63207" lon="3.8293">
        <ele>77.4</ele>
        <time>2021-01-03T12:13:42Z</time>
      </trkpt>
      <trkpt lat="43.63206" lon="3.82925">
        <ele>77.5</ele>
        <time>2021-01-03T12:13:43Z</time>
      </trkpt>
      <trkpt lat="43.63204" lon="3.82921">
        <ele>77.5</ele>
        <time>2021-01-03T12:13:44Z</time>
      </trkpt>
      <trkpt lat="43.63203" lon="3.82917">
        <ele>80</ele>
        <time>2021-01-03T12:13:45Z</time>
      </trkpt>
      <trkpt lat="43.63202" lon="3.82912">
        <ele>77.8</ele>
        <time>2021-01-03T12:13:46Z</time>
      </trkpt>
      <trkpt lat="43.632" lon="3.82908">
        <ele>78</ele>
        <time>2021-01-03T12:13:47Z</time>
      </trkpt>
      <trkpt lat="43.63199" lon="3.82904">
        <ele>78.2</ele>
        <time>2021-01-03T12:13:48Z</time>
      </trkpt>
      <trkpt lat="43.63197" lon="3.829">
        <ele>78.3</ele>
        <time>2021-01-03T12:13:49Z</time>
      </trkpt>
      <trkpt lat="43.63196" lon="3.82896">
        <ele>78.6</ele>
        <time>2021-01-03T12:13:50Z</time>
      </trkpt>
      <trkpt lat="43.63194" lon="3.82892">
        <ele>78.7</ele>
        <time>2021-01-03T12:13:51Z</time>
      </trkpt>
      <trkpt lat="43.63193" lon="3.82888">
        <ele>78.9</ele>
        <time>2021-01-03T12:13:52Z</time>
      </trkpt>
      <trkpt lat="43.63193" lon="3.82883">
        <ele>79.1</ele>
        <time>2021-01-03T12:13:53Z</time>
      </trkpt>
      <trkpt lat="43.63192" lon="3.82879">
        <ele>79.1</ele>
        <time>2021-01-03T12:13:54Z</time>
      </trkpt>
      <trkpt lat="43.63192" lon="3.82875">
        <ele>82</ele>
        <time>2021-01-03T12:13:55Z</time>
      </trkpt>
      <trkpt lat="43.63191" lon="3.82871">
        <ele>79.4</ele>
        <time>2021-01-03T12:13:56Z</time>
      </trkpt>
      <trkpt lat="43.6319" lon="3.82867">
        <ele>79.4</ele>
        <time>2021-01-03T12:13:57Z</time>
      </trkpt>
      <trkpt lat="43.63189" lon="3.82864">
        <ele>79.5</ele>
        <time>2021-01-03T12:13:58Z</time>
      </trkpt>
      <trkpt lat="43.63189" lon="3.8286">
        <ele>79.7</ele>
        <time>2021-01-03T12:13:59Z</time>
      </trkpt>
      <trkpt lat="43.63188" lon="3.82856">
        <ele>79.9</ele>
        <time>2021-01-03T12:14:00Z</time>
      </trkpt>
      <trkpt lat="43.63187" lon="3.82852">
        <ele>80</ele>
        <time>2021-01-03T12:14:01Z</time>
      </trkpt>
      <trkpt lat="43.63186" lon="3.82848">
        <ele>80.2</ele>
        <time>2021-01-03T12:14:02Z</time>
      </trkpt>
      <trkpt lat="43.63185" lon="3.82844">
        <ele>80.3</ele>
        <time>2021-01-03T12:14:03Z</time>
      </trkpt>
      <trkpt lat="43.63184" lon="3.8284">
        <ele>80.5</ele>
        <time>2021-01-03T12:14:04Z</time>
      </trkpt>
      <trkpt lat="43.63183" lon="3.82836">
        <ele>80.6</ele>
        <time>2021-01-03T12:14:05Z</time>
      </trkpt>
      <trkpt lat="43.63182" lon="3.82828">
        <ele>83</ele>
        <time>2021-01-03T12:14:06Z</time>
      </trkpt>
      <trkpt lat="43.63181" lon="3.82824">
        <ele>81</ele>
        <time>2021-01-03T12:14:07Z</time>
      </trkpt>
      <trkpt lat="43.6318" lon="3.8282">
        <ele>81.2</ele>
        <time>2021-01-03T12:14:08Z</time>
      </trkpt>
      <trkpt lat="43.63179" lon="3.82817">
        <ele>81.2</ele>
        <time>2021-01-03T12:14:09Z</time>
      </trkpt>
      <trkpt lat="43.63178" lon="3.82813">
        <ele>81.4</ele>
        <time>2021-01-03T12:14:10Z</time>
      </trkpt>
      <trkpt lat="43.63177" lon="3.82809">
        <ele>81.5</ele>
        <time>2021-01-03T12:14:11Z</time>
      </trkpt>
      <trkpt lat="43.63177" lon="3.82806">
        <ele>81.7</ele>
        <time>2021-01-03T12:14:12Z</time>
      </trkpt>
      <trkpt lat="43.63176" lon="3.82802">
        <ele>81.4</ele>
        <time>2021-01-03T12:14:13Z</time>
      </trkpt>
      <trkpt lat="43.63175" lon="3.82799">
        <ele>81.1</ele>
        <time>2021-01-03T12:14:14Z</time>
      </trkpt>
      <trkpt lat="43.63175" lon="3.82796">
        <ele>80.9</ele>
        <time>2021-01-03T12:14:16Z</time>
      </trkpt>
      <trkpt lat="43.63174" lon="3.82792">
        <ele>80.5</ele>
        <time>2021-01-03T12:14:17Z</time>
      </trkpt>
      <trkpt lat="43.63174" lon="3.82789">
        <ele>80.2</ele>
        <time>2021-01-03T12:14:18Z</time>
      </trkpt>
      <trkpt lat="43.63175" lon="3.82786">
        <ele>80.1</ele>
        <time>2021-01-03T12:14:19Z</time>
      </trkpt>
      <trkpt lat="43.63177" lon="3.82783">
        <ele>80.2</ele>
        <time>2021-01-03T12:14:20Z</time>
      </trkpt>
      <trkpt lat="43.63179" lon="3.82781">
        <ele>80.4</ele>
        <time>2021-01-03T12:14:21Z</time>
      </trkpt>
      <trkpt lat="43.6318" lon="3.82778">
        <ele>80.4</ele>
        <time>2021-01-03T12:14:22Z</time>
      </trkpt>
      <trkpt lat="43.63182" lon="3.82775">
        <ele>80.6</ele>
        <time>2021-01-03T12:14:23Z</time>
      </trkpt>
      <trkpt lat="43.63184" lon="3.82773">
        <ele>80.9</ele>
        <time>2021-01-03T12:14:24Z</time>
      </trkpt>
      <trkpt lat="43.63185" lon="3.8277">
        <ele>85</ele>
        <time>2021-01-03T12:14:25Z</time>
      </trkpt>
      <trkpt lat="43.63187" lon="3.82767">
        <ele>81.3</ele>
        <time>2021-01-03T12:14:26Z</time>
      </trkpt>
      <trkpt lat="43.63188" lon="3.82764">
        <ele>81.5</ele>
        <time>2021-01-03T12:14:27Z</time>
      </trkpt>
      <trkpt lat="43.6319" lon="3.82761">
        <ele>81.9</ele>
        <time>2021-01-03T12:14:28Z</time>
      </trkpt>
      <trkpt lat="43.63191" lon="3.82758">
        <ele>82.1</ele>
        <time>2021-01-03T12:14:29Z</time>
      </trkpt>
      <trkpt lat="43.63192" lon="3.82755">
        <ele>82.3</ele>
        <time>2021-01-03T12:14:30Z</time>
      </trkpt>
      <trkpt lat="43.63194" lon="3.82752">
        <ele>82.9</ele>
        <time>2021-01-03T12:14:31Z</time>
      </trkpt>
      <trkpt lat="43.63195" lon="3.82748">
        <ele>82.7</ele>
        <time>2021-01-03T12:14:32Z</time>
      </trkpt>
      <trkpt lat="43.63197" lon="3.82746">
        <ele>82.6</ele>
        <time>2021-01-03T12:14:33Z</time>
      </trkpt>
      <trkpt lat="43.63198" lon="3.82743">
        <ele>82.2</ele>
        <time>2021-01-03T12:14:34Z</time>
      </trkpt>
      <trkpt lat="43.632" lon="3.8274">
        <ele>86</ele>
        <time>2021-01-03T12:14:35Z</time>
      </trkpt>
      <trkpt lat="43.63201" lon="3.82737">
        <ele>81.8</ele>
        <time>2021-01-03T12:14:36Z</time>
      </trkpt>
      <trkpt lat="43.63203" lon="3.82734">
        <ele>81.7</ele>
        <time>2021-01-03T12:14:37Z</time>
      </trkpt>
      <trkpt lat="43.63204" lon="3.82731">
        <ele>81.5</ele>
        <time>2021-01-03T12:14:38Z</time>
      </trkpt>
      <trkpt lat="43.63206" lon="3.82728">
        <ele>81.6</ele>
        <time>2021-01-03T12:14:39Z</time>
      </trkpt>
      <trkpt lat="43.63208" lon="3.82726">
        <ele>81.7</ele>
        <time>2021-01-03T12:14:40Z</time>
      </trkpt>
      <trkpt lat="43.6321" lon="3.82723">
        <ele>81.8</ele>
        <time>2021-01-03T12:14:41Z</time>
      </trkpt>
      <trkpt lat="43.63212" lon="3.82721">
        <ele>82.1</ele>
        <time>2021-01-03T12:14:42Z</time>
      </trkpt>
      <trkpt lat="43.63214" lon="3.82719">
        <ele>82.3</ele>
        <time>2021-01-03T12:14:43Z</time>
      </trkpt>
      <trkpt lat="43.63216" lon="3.82716">
        <ele>82.6</ele>
        <time>2021-01-03T12:14:44Z</time>
      </trkpt>
      <trkpt lat="43.63218" lon="3.82713">
        <ele>82.8</ele>
        <time>2021-01-03T12:14:45Z</time>
      </trkpt>
      <trkpt lat="43.6322" lon="3.8271">
        <ele>86</ele>
        <time>2021-01-03T12:14:46Z</time>
      </trkpt>
      <trkpt lat="43.63222" lon="3.82707">
        <ele>83.4</ele>
        <time>2021-01-03T12:14:47Z</time>
      </trkpt>
      <trkpt lat="43.63224" lon="3.82703">
        <ele>83.4</ele>
        <time>2021-01-03T12:14:48Z</time>
      </trkpt>
      <trkpt lat="43.63226" lon="3.82699">
        <ele>83.3</ele>
        <time>2021-01-03T12:14:49Z</time>
      </trkpt>
      <trkpt lat="43.63227" lon="3.82696">
        <ele>83.2</ele>
        <time>2021-01-03T12:14:50Z</time>
      </trkpt>
      <trkpt lat="43.63229" lon="3.82692">
        <ele>82.9</ele>
        <time>2021-01-03T12:14:51Z</time>
      </trkpt>
      <trkpt lat="43.63231" lon="3.82688">
        <ele>82.4</ele>
        <time>2021-01-03T12:14:52Z</time>
      </trkpt>
      <trkpt lat="43.63233" lon="3.82684">
        <ele>82.1</ele>
        <time>2021-01-03T12:14:53Z</time>
      </trkpt>
      <trkpt lat="43.63235" lon="3.8268">
        <ele>81.8</ele>
        <time>2021-01-03T12:14:54Z</time>
      </trkpt>
      <trkpt lat="43.63238" lon="3.82677">
        <ele>85</ele>
        <time>2021-01-03T12:14:55Z</time>
      </trkpt>
      <trkpt lat="43.6324" lon="3.82673">
        <ele>81.8</ele>
        <time>2021-01-03T12:14:56Z</time>
      </trkpt>
      <trkpt lat="43.63242" lon="3.8267">
        <ele>81.8</ele>
        <time>2021-01-03T12:14:57Z</time>
      </trkpt>
      <trkpt lat="43.63245" lon="3.82666">
        <ele>82</ele>
        <time>2021-01-03T12:14:58Z</time>
      </trkpt>
      <trkpt lat="43.63248" lon="3.82663">
        <ele>82.2</ele>
        <time>2021-01-03T12:14:59Z</time>
      </trkpt>
      <trkpt lat="43.6325" lon="3.82659">
        <ele>82.2</ele>
        <time>2021-01-03T12:15:00Z</time>
      </trkpt>
      <trkpt lat="43.63253" lon="3.82656">
        <ele>81.9</ele>
        <time>2021-01-03T12:15:01Z</time>
      </trkpt>
      <trkpt lat="43.63256" lon="3.82653">
        <ele>81.7</ele>
        <time>2021-01-03T12:15:02Z</time>
      </trkpt>
      <trkpt lat="43.63259" lon="3.82649">
        <ele>81.5</ele>
        <time>2021-01-03T12:15:03Z</time>
      </trkpt>
      <trkpt lat="43.63262" lon="3.82646">
        <ele>81.4</ele>
        <time>2021-01-03T12:15:04Z</time>
      </trkpt>
      <trkpt lat="43.63268" lon="3.82639">
        <ele>85</ele>
        <time>2021-01-03T12:15:05Z</time>
      </trkpt>
      <trkpt lat="43.63271" lon="3.82636">
        <ele>81.1</ele>
        <time>2021-01-03T12:15:06Z</time>
      </trkpt>
      <trkpt lat="43.63274" lon="3.82633">
        <ele>81</ele>
        <time>2021-01-03T12:15:07Z</time>
      </trkpt>
      <trkpt lat="43.63278" lon="3.82629">
        <ele>80.9</ele>
        <time>2021-01-03T12:15:08Z</time>
      </trkpt>
      <trkpt lat="43.63281" lon="3.82625">
        <ele>80.6</ele>
        <time>2021-01-03T12:15:09Z</time>
      </trkpt>
      <trkpt lat="43.63285" lon="3.82621">
        <ele>80.4</ele>
        <time>2021-01-03T12:15:10Z</time>
      </trkpt>
      <trkpt lat="43.63288" lon="3.82618">
        <ele>80.3</ele>
        <time>2021-01-03T12:15:11Z</time>
      </trkpt>
      <trkpt lat="43.63292" lon="3.82615">
        <ele>80.3</ele>
        <time>2021-01-03T12:15:12Z</time>
      </trkpt>
      <trkpt lat="43.63296" lon="3.82612">
        <ele>80.4</ele>
        <time>2021-01-03T12:15:13Z</time>
      </trkpt>
      <trkpt lat="43.633" lon="3.8261">
        <ele>80.4</ele>
        <time>2021-01-03T12:15:14Z</time>
      </trkpt>
      <trkpt lat="43.63303" lon="3.82607">
        <ele>80.2</ele>
        <time>2021-01-03T12:15:16Z</time>
      </trkpt>
      <trkpt lat="43.63307" lon="3.82603">
        <ele>79.9</ele>
        <time>2021-01-03T12:15:17Z</time>
      </trkpt>
      <trkpt lat="43.6331" lon="3.826">
        <ele>79.7</ele>
        <time>2021-01-03T12:15:18Z</time>
      </trkpt>
      <trkpt lat="43.63314" lon="3.82597">
        <ele>79.6</ele>
        <time>2021-01-03T12:15:19Z</time>
      </trkpt>
      <trkpt lat="43.63317" lon="3.82593">
        <ele>79.3</ele>
        <time>2021-01-03T12:15:20Z</time>
      </trkpt>
      <trkpt lat="43.63321" lon="3.8259">
        <ele>79.4</ele>
        <time>2021-01-03T12:15:21Z</time>
      </trkpt>
      <trkpt lat="43.63325" lon="3.82588">
        <ele>79.5</ele>
        <time>2021-01-03T12:15:22Z</time>
      </trkpt>
      <trkpt lat="43.63329" lon="3.82585">
        <ele>79.7</ele>
        <time>2021-01-03T12:15:23Z</time>
      </trkpt>
      <trkpt lat="43.63333" lon="3.82582">
        <ele>79.6</ele>
        <time>2021-01-03T12:15:24Z</time>
      </trkpt>
      <trkpt lat="43.63337" lon="3.82579">
        <ele>83</ele>
        <time>2021-01-03T12:15:25Z</time>
      </trkpt>
      <trkpt lat="43.63342" lon="3.82576">
        <ele>78.9</ele>
        <time>2021-01-03T12:15:26Z</time>
      </trkpt>
      <trkpt lat="43.63346" lon="3.82574">
        <ele>78.9</ele>
        <time>2021-01-03T12:15:27Z</time>
      </trkpt>
      <trkpt lat="43.6335" lon="3.82572">
        <ele>79</ele>
        <time>2021-01-03T12:15:28Z</time>
      </trkpt>
      <trkpt lat="43.63354" lon="3.82569">
        <ele>79.1</ele>
        <time>2021-01-03T12:15:29Z</time>
      </trkpt>
      <trkpt lat="43.63359" lon="3.82567">
        <ele>79.5</ele>
        <time>2021-01-03T12:15:30Z</time>
      </trkpt>
      <trkpt lat="43.63363" lon="3.82564">
        <ele>79.7</ele>
        <time>2021-01-03T12:15:31Z</time>
      </trkpt>
      <trkpt lat="43.63367" lon="3.82562">
        <ele>79.8</ele>
        <time>2021-01-03T12:15:32Z</time>
      </trkpt>
      <trkpt lat="43.63371" lon="3.8256">
        <ele>80</ele>
        <time>2021-01-03T12:15:33Z</time>
      </trkpt>
      <trkpt lat="43.63375" lon="3.82559">
        <ele>80.2</ele>
        <time>2021-01-03T12:15:34Z</time>
      </trkpt>
      <trkpt lat="43.63379" lon="3.82558">
        <ele>80.4</ele>
        <time>2021-01-03T12:15:35Z</time>
      </trkpt>
      <trkpt lat="43.63383" lon="3.82557">
        <ele>83</ele>
        <time>2021-01-03T12:15:36Z</time>
      </trkpt>
      <trkpt lat="43.63387" lon="3.82557">
        <ele>80.9</ele>
        <time>2021-01-03T12:15:37Z</time>
      </trkpt>
      <trkpt lat="43.63391" lon="3.82556">
        <ele>81.1</ele>
        <time>2021-01-03T12:15:38Z</time>
      </trkpt>
      <trkpt lat="43.63395" lon="3.82556">
        <ele>81.2</ele>
        <time>2021-01-03T12:15:39Z</time>
      </trkpt>
      <trkpt lat="43.63398" lon="3.82555">
        <ele>81.3</ele>
        <time>2021-01-03T12:15:40Z</time>
      </trkpt>
      <trkpt lat="43.63401" lon="3.82554">
        <ele>81.3</ele>
        <time>2021-01-03T12:15:41Z</time>
      </trkpt>
      <trkpt lat="43.63404" lon="3.82554">
        <ele>81.4</ele>
        <time>2021-01-03T12:15:42Z</time>
      </trkpt>
      <trkpt lat="43.63407" lon="3.82553">
        <ele>81.5</ele>
        <time>2021-01-03T12:15:43Z</time>
      </trkpt>
      <trkpt lat="43.6341" lon="3.82553">
        <ele>81.6</ele>
        <time>2021-01-03T12:15:44Z</time>
      </trkpt>
      <trkpt lat="43.63416" lon="3.82553">
        <ele>84</ele>
        <time>2021-01-03T12:15:45Z</time>
      </trkpt>
      <trkpt lat="43.63419" lon="3.82552">
        <ele>82.1</ele>
        <time>2021-01-03T12:15:46Z</time>
      </trkpt>
      <trkpt lat="43.63422" lon="3.82552">
        <ele>82.4</ele>
        <time>2021-01-03T12:15:47Z</time>
      </trkpt>
      <trkpt lat="43.63425" lon="3.82551">
        <ele>82.7</ele>
        <time>2021-01-03T12:15:48Z</time>
      </trkpt>
      <trkpt lat="43.63428" lon="3.82551">
        <ele>83.1</ele>
        <time>2021-01-03T12:15:49Z</time>
      </trkpt>
      <trkpt lat="43.63431" lon="3.82551">
        <ele>83.4</ele>
        <time>2021-01-03T12:15:50Z</time>
      </trkpt>
      <trkpt lat="43.63433" lon="3.8255">
        <ele>83.6</ele>
        <time>2021-01-03T12:15:51Z</time>
      </trkpt>
      <trkpt lat="43.63436" lon="3.8255">
        <ele>83.9</ele>
        <time>2021-01-03T12:15:52Z</time>
      </trkpt>
      <trkpt lat="43.63441" lon="3.8255">
        <ele>84.4</ele>
        <time>2021-01-03T12:15:54Z</time>
      </trkpt>
      <trkpt lat="43.63443" lon="3.82549">
        <ele>84.6</ele>
        <time>2021-01-03T12:15:56Z</time>
      </trkpt>
      <trkpt lat="43.63446" lon="3.82549">
        <ele>84.9</ele>
        <time>2021-01-03T12:15:57Z</time>
      </trkpt>
      <trkpt lat="43.63448" lon="3.82549">
        <ele>85</ele>
        <time>2021-01-03T12:15:58Z</time>
      </trkpt>
      <trkpt lat="43.63451" lon="3.82548">
        <ele>85.2</ele>
        <time>2021-01-03T12:15:59Z</time>
      </trkpt>
      <trkpt lat="43.63453" lon="3.82548">
        <ele>85.3</ele>
        <time>2021-01-03T12:16:00Z</time>
      </trkpt>
      <trkpt lat="43.63456" lon="3.82548">
        <ele>85.6</ele>
        <time>2021-01-03T12:16:01Z</time>
      </trkpt>
      <trkpt lat="43.63459" lon="3.82548">
        <ele>85.8</ele>
        <time>2021-01-03T12:16:02Z</time>
      </trkpt>
      <trkpt lat="43.63461" lon="3.82548">
        <ele>85.9</ele>
        <time>2021-01-03T12:16:03Z</time>
      </trkpt>
      <trkpt lat="43.63464" lon="3.82547">
        <ele>86.1</ele>
        <time>2021-01-03T12:16:04Z</time>
      </trkpt>
      <trkpt lat="43.63466" lon="3.82547">
        <ele>87</ele>
        <time>2021-01-03T12:16:05Z</time>
      </trkpt>
      <trkpt lat="43.63469" lon="3.82547">
        <ele>86.5</ele>
        <time>2021-01-03T12:16:06Z</time>
      </trkpt>
      <trkpt lat="43.63471" lon="3.82546">
        <ele>86.6</ele>
        <time>2021-01-03T12:16:07Z</time>
      </trkpt>
      <trkpt lat="43.63474" lon="3.82546">
        <ele>86.7</ele>
        <time>2021-01-03T12:16:08Z</time>
      </trkpt>
      <trkpt lat="43.63477" lon="3.82546">
        <ele>86.9</ele>
        <time>2021-01-03T12:16:09Z</time>
      </trkpt>
      <trkpt lat="43.63479" lon="3.82546">
        <ele>87</ele>
        <time>2021-01-03T12:16:10Z</time>
      </trkpt>
      <trkpt lat="43.63482" lon="3.82546">
        <ele>87.1</ele>
        <time>2021-01-03T12:16:11Z</time>
      </trkpt>
      <trkpt lat="43.63484" lon="3.82545">
        <ele>87.2</ele>
        <time>2021-01-03T12:16:12Z</time>
      </trkpt>
      <trkpt lat="43.63487" lon="3.82545">
        <ele>87.4</ele>
        <time>2021-01-03T12:16:13Z</time>
      </trkpt>
      <trkpt lat="43.63489" lon="3.82545">
        <ele>87.5</ele>
        <time>2021-01-03T12:16:14Z</time>
      </trkpt>
      <trkpt lat="43.63492" lon="3.82544">
        <ele>89</ele>
        <time>2021-01-03T12:16:15Z</time>
      </trkpt>
      <trkpt lat="43.63495" lon="3.82544">
        <ele>87.7</ele>
        <time>2021-01-03T12:16:16Z</time>
      </trkpt>
      <trkpt lat="43.63498" lon="3.82544">
        <ele>87.9</ele>
        <time>2021-01-03T12:16:17Z</time>
      </trkpt>
      <trkpt lat="43.635" lon="3.82543">
        <ele>88</ele>
        <time>2021-01-03T12:16:18Z</time>
      </trkpt>
      <trkpt lat="43.63503" lon="3.82543">
        <ele>88.1</ele>
        <time>2021-01-03T12:16:19Z</time>
      </trkpt>
      <trkpt lat="43.63506" lon="3.82543">
        <ele>88.2</ele>
        <time>2021-01-03T12:16:20Z</time>
      </trkpt>
      <trkpt lat="43.63508" lon="3.82542">
        <ele>88.3</ele>
        <time>2021-01-03T12:16:21Z</time>
      </trkpt>
      <trkpt lat="43.63511" lon="3.82541">
        <ele>88.4</ele>
        <time>2021-01-03T12:16:22Z</time>
      </trkpt>
      <trkpt lat="43.63514" lon="3.82541">
        <ele>88.5</ele>
        <time>2021-01-03T12:16:23Z</time>
      </trkpt>
      <trkpt lat="43.63517" lon="3.82541">
        <ele>88.6</ele>
        <time>2021-01-03T12:16:24Z</time>
      </trkpt>
      <trkpt lat="43.63519" lon="3.8254">
        <ele>91</ele>
        <time>2021-01-03T12:16:25Z</time>
      </trkpt>
      <trkpt lat="43.63522" lon="3.8254">
        <ele>88.8</ele>
        <time>2021-01-03T12:16:26Z</time>
      </trkpt>
      <trkpt lat="43.63525" lon="3.82539">
        <ele>88.9</ele>
        <time>2021-01-03T12:16:27Z</time>
      </trkpt>
      <trkpt lat="43.63528" lon="3.82538">
        <ele>89</ele>
        <time>2021-01-03T12:16:28Z</time>
      </trkpt>
      <trkpt lat="43.63531" lon="3.82538">
        <ele>89.1</ele>
        <time>2021-01-03T12:16:29Z</time>
      </trkpt>
      <trkpt lat="43.63534" lon="3.82537">
        <ele>89.1</ele>
        <time>2021-01-03T12:16:30Z</time>
      </trkpt>
      <trkpt lat="43.63537" lon="3.82536">
        <ele>89.2</ele>
        <time>2021-01-03T12:16:31Z</time>
      </trkpt>
      <trkpt lat="43.6354" lon="3.82536">
        <ele>89.3</ele>
        <time>2021-01-03T12:16:32Z</time>
      </trkpt>
      <trkpt lat="43.63543" lon="3.82535">
        <ele>89.4</ele>
        <time>2021-01-03T12:16:33Z</time>
      </trkpt>
      <trkpt lat="43.63547" lon="3.82534">
        <ele>89.5</ele>
        <time>2021-01-03T12:16:34Z</time>
      </trkpt>
      <trkpt lat="43.6355" lon="3.82533">
        <ele>91</ele>
        <time>2021-01-03T12:16:35Z</time>
      </trkpt>
      <trkpt lat="43.63553" lon="3.82531">
        <ele>89.8</ele>
        <time>2021-01-03T12:16:36Z</time>
      </trkpt>
      <trkpt lat="43.63556" lon="3.82529">
        <ele>90</ele>
        <time>2021-01-03T12:16:37Z</time>
      </trkpt>
      <trkpt lat="43.63559" lon="3.82526">
        <ele>90.1</ele>
        <time>2021-01-03T12:16:38Z</time>
      </trkpt>
      <trkpt lat="43.63561" lon="3.82524">
        <ele>90.1</ele>
        <time>2021-01-03T12:16:39Z</time>
      </trkpt>
      <trkpt lat="43.63564" lon="3.82522">
        <ele>90.2</ele>
        <time>2021-01-03T12:16:40Z</time>
      </trkpt>
      <trkpt lat="43.63566" lon="3.8252">
        <ele>90.2</ele>
        <time>2021-01-03T12:16:41Z</time>
      </trkpt>
      <trkpt lat="43.63568" lon="3.82518">
        <ele>90.3</ele>
        <time>2021-01-03T12:16:42Z</time>
      </trkpt>
      <trkpt lat="43.63571" lon="3.82518">
        <ele>90.4</ele>
        <time>2021-01-03T12:16:43Z</time>
      </trkpt>
      <trkpt lat="43.63573" lon="3.82519">
        <ele>90.5</ele>
        <time>2021-01-03T12:16:44Z</time>
      </trkpt>
      <trkpt lat="43.63574" lon="3.82522">
        <ele>92</ele>
        <time>2021-01-03T12:16:45Z</time>
      </trkpt>
      <trkpt lat="43.63574" lon="3.82526">
        <ele>90.6</ele>
        <time>2021-01-03T12:16:46Z</time>
      </trkpt>
      <trkpt lat="43.63575" lon="3.8253">
        <ele>90.6</ele>
        <time>2021-01-03T12:16:47Z</time>
      </trkpt>
      <trkpt lat="43.63576" lon="3.82534">
        <ele>90.3</ele>
        <time>2021-01-03T12:16:48Z</time>
      </trkpt>
      <trkpt lat="43.63577" lon="3.82539">
        <ele>90.1</ele>
        <time>2021-01-03T12:16:49Z</time>
      </trkpt>
      <trkpt lat="43.63577" lon="3.82544">
        <ele>89.7</ele>
        <time>2021-01-03T12:16:50Z</time>
      </trkpt>
      <trkpt lat="43.63578" lon="3.82548">
        <ele>89.5</ele>
        <time>2021-01-03T12:16:51Z</time>
      </trkpt>
      <trkpt lat="43.63578" lon="3.82552">
        <ele>89.2</ele>
        <time>2021-01-03T12:16:52Z</time>
      </trkpt>
      <trkpt lat="43.63579" lon="3.82557">
        <ele>89</ele>
        <time>2021-01-03T12:16:53Z</time>
      </trkpt>
      <trkpt lat="43.6358" lon="3.82561">
        <ele>89</ele>
        <time>2021-01-03T12:16:54Z</time>
      </trkpt>
      <trkpt lat="43.6358" lon="3.82565">
        <ele>91</ele>
        <time>2021-01-03T12:16:55Z</time>
      </trkpt>
      <trkpt lat="43.63581" lon="3.82569">
        <ele>89</ele>
        <time>2021-01-03T12:16:56Z</time>
      </trkpt>
      <trkpt lat="43.63582" lon="3.82573">
        <ele>89</ele>
        <time>2021-01-03T12:16:57Z</time>
      </trkpt>
      <trkpt lat="43.63582" lon="3.82577">
        <ele>89</ele>
        <time>2021-01-03T12:16:58Z</time>
      </trkpt>
      <trkpt lat="43.63583" lon="3.82582">
        <ele>89</ele>
        <time>2021-01-03T12:16:59Z</time>
      </trkpt>
      <trkpt lat="43.63584" lon="3.82586">
        <ele>89</ele>
        <time>2021-01-03T12:17:00Z</time>
      </trkpt>
      <trkpt lat="43.63585" lon="3.82591">
        <ele>89</ele>
        <time>2021-01-03T12:17:01Z</time>
      </trkpt>
      <trkpt lat="43.63586" lon="3.82595">
        <ele>89</ele>
        <time>2021-01-03T12:17:02Z</time>
      </trkpt>
      <trkpt lat="43.63588" lon="3.826">
        <ele>88.9</ele>
        <time>2021-01-03T12:17:03Z</time>
      </trkpt>
      <trkpt lat="43.63589" lon="3.82604">
        <ele>88.8</ele>
        <time>2021-01-03T12:17:04Z</time>
      </trkpt>
      <trkpt lat="43.63589" lon="3.82608">
        <ele>91</ele>
        <time>2021-01-03T12:17:05Z</time>
      </trkpt>
      <trkpt lat="43.6359" lon="3.82613">
        <ele>88.7</ele>
        <time>2021-01-03T12:17:06Z</time>
      </trkpt>
      <trkpt lat="43.63591" lon="3.82618">
        <ele>88.5</ele>
        <time>2021-01-03T12:17:07Z</time>
      </trkpt>
      <trkpt lat="43.63593" lon="3.82621">
        <ele>88.3</ele>
        <time>2021-01-03T12:17:08Z</time>
      </trkpt>
      <trkpt lat="43.63596" lon="3.82622">
        <ele>88.2</ele>
        <time>2021-01-03T12:17:09Z</time>
      </trkpt>
      <trkpt lat="43.63599" lon="3.82622">
        <ele>88</ele>
        <time>2021-01-03T12:17:10Z</time>
      </trkpt>
      <trkpt lat="43.63603" lon="3.82621">
        <ele>87.9</ele>
        <time>2021-01-03T12:17:11Z</time>
      </trkpt>
      <trkpt lat="43.63607" lon="3.82622">
        <ele>87.8</ele>
        <time>2021-01-03T12:17:12Z</time>
      </trkpt>
      <trkpt lat="43.6361" lon="3.82625">
        <ele>87.5</ele>
        <time>2021-01-03T12:17:13Z</time>
      </trkpt>
      <trkpt lat="43.63611" lon="3.82628">
        <ele>87.4</ele>
        <time>2021-01-03T12:17:14Z</time>
      </trkpt>
      <trkpt lat="43.63612" lon="3.82632">
        <ele>87.2</ele>
        <time>2021-01-03T12:17:15Z</time>
      </trkpt>
      <trkpt lat="43.63614" lon="3.82636">
        <ele>91</ele>
        <time>2021-01-03T12:17:16Z</time>
      </trkpt>
      <trkpt lat="43.63615" lon="3.82641">
        <ele>86.8</ele>
        <time>2021-01-03T12:17:17Z</time>
      </trkpt>
      <trkpt lat="43.63617" lon="3.82646">
        <ele>86.5</ele>
        <time>2021-01-03T12:17:18Z</time>
      </trkpt>
      <trkpt lat="43.63618" lon="3.82652">
        <ele>86.3</ele>
        <time>2021-01-03T12:17:19Z</time>
      </trkpt>
      <trkpt lat="43.6362" lon="3.82658">
        <ele>86</ele>
        <time>2021-01-03T12:17:20Z</time>
      </trkpt>
      <trkpt lat="43.63621" lon="3.82664">
        <ele>85.7</ele>
        <time>2021-01-03T12:17:21Z</time>
      </trkpt>
      <trkpt lat="43.63623" lon="3.8267">
        <ele>85.4</ele>
        <time>2021-01-03T12:17:22Z</time>
      </trkpt>
      <trkpt lat="43.63625" lon="3.82674">
        <ele>85.1</ele>
        <time>2021-01-03T12:17:23Z</time>
      </trkpt>
      <trkpt lat="43.63627" lon="3.82676">
        <ele>84.9</ele>
        <time>2021-01-03T12:17:24Z</time>
      </trkpt>
      <trkpt lat="43.6363" lon="3.82677">
        <ele>90</ele>
        <time>2021-01-03T12:17:25Z</time>
      </trkpt>
      <trkpt lat="43.63632" lon="3.82679">
        <ele>84.5</ele>
        <time>2021-01-03T12:17:26Z</time>
      </trkpt>
      <trkpt lat="43.63635" lon="3.82682">
        <ele>84.1</ele>
        <time>2021-01-03T12:17:27Z</time>
      </trkpt>
      <trkpt lat="43.63636" lon="3.82688">
        <ele>83.6</ele>
        <time>2021-01-03T12:17:28Z</time>
      </trkpt>
      <trkpt lat="43.63636" lon="3.82695">
        <ele>83.2</ele>
        <time>2021-01-03T12:17:29Z</time>
      </trkpt>
      <trkpt lat="43.63636" lon="3.82702">
        <ele>82.6</ele>
        <time>2021-01-03T12:17:30Z</time>
      </trkpt>
      <trkpt lat="43.63636" lon="3.82709">
        <ele>82.1</ele>
        <time>2021-01-03T12:17:31Z</time>
      </trkpt>
      <trkpt lat="43.63636" lon="3.82716">
        <ele>81.6</ele>
        <time>2021-01-03T12:17:32Z</time>
      </trkpt>
      <trkpt lat="43.63637" lon="3.82723">
        <ele>81</ele>
        <time>2021-01-03T12:17:33Z</time>
      </trkpt>
      <trkpt lat="43.63637" lon="3.82729">
        <ele>80.6</ele>
        <time>2021-01-03T12:17:34Z</time>
      </trkpt>
      <trkpt lat="43.63637" lon="3.82735">
        <ele>88</ele>
        <time>2021-01-03T12:17:35Z</time>
      </trkpt>
      <trkpt lat="43.63637" lon="3.82741">
        <ele>79.7</ele>
        <time>2021-01-03T12:17:36Z</time>
      </trkpt>
      <trkpt lat="43.63637" lon="3.82747">
        <ele>79.3</ele>
        <time>2021-01-03T12:17:37Z</time>
      </trkpt>
      <trkpt lat="43.63637" lon="3.82753">
        <ele>79</ele>
        <time>2021-01-03T12:17:38Z</time>
      </trkpt>
      <trkpt lat="43.63637" lon="3.82759">
        <ele>78.7</ele>
        <time>2021-01-03T12:17:39Z</time>
      </trkpt>
      <trkpt lat="43.63639" lon="3.82765">
        <ele>78.5</ele>
        <time>2021-01-03T12:17:40Z</time>
      </trkpt>
      <trkpt lat="43.63641" lon="3.82769">
        <ele>78.3</ele>
        <time>2021-01-03T12:17:41Z</time>
      </trkpt>
      <trkpt lat="43.63644" lon="3.82773">
        <ele>78.2</ele>
        <time>2021-01-03T12:17:42Z</time>
      </trkpt>
      <trkpt lat="43.63649" lon="3.82775">
        <ele>78.1</ele>
        <time>2021-01-03T12:17:43Z</time>
      </trkpt>
      <trkpt lat="43.63654" lon="3.82775">
        <ele>78.2</ele>
        <time>2021-01-03T12:17:44Z</time>
      </trkpt>
      <trkpt lat="43.63659" lon="3.82774">
        <ele>87</ele>
        <time>2021-01-03T12:17:45Z</time>
      </trkpt>
      <trkpt lat="43.63664" lon="3.82772">
        <ele>78.4</ele>
        <time>2021-01-03T12:17:46Z</time>
      </trkpt>
      <trkpt lat="43.63669" lon="3.82771">
        <ele>78.5</ele>
        <time>2021-01-03T12:17:47Z</time>
      </trkpt>
      <trkpt lat="43.63674" lon="3.8277">
        <ele>78.6</ele>
        <time>2021-01-03T12:17:48Z</time>
      </trkpt>
      <trkpt lat="43.63678" lon="3.82769">
        <ele>78.6</ele>
        <time>2021-01-03T12:17:49Z</time>
      </trkpt>
      <trkpt lat="43.63682" lon="3.82768">
        <ele>78.7</ele>
        <time>2021-01-03T12:17:50Z</time>
      </trkpt>
      <trkpt lat="43.63687" lon="3.82767">
        <ele>78.8</ele>
        <time>2021-01-03T12:17:51Z</time>
      </trkpt>
      <trkpt lat="43.63691" lon="3.82766">
        <ele>78.8</ele>
        <time>2021-01-03T12:17:52Z</time>
      </trkpt>
      <trkpt lat="43.63696" lon="3.82765">
        <ele>78.9</ele>
        <time>2021-01-03T12:17:53Z</time>
      </trkpt>
      <trkpt lat="43.637" lon="3.82764">
        <ele>78.9</ele>
        <time>2021-01-03T12:17:54Z</time>
      </trkpt>
      <trkpt lat="43.63705" lon="3.82763">
        <ele>88</ele>
        <time>2021-01-03T12:17:55Z</time>
      </trkpt>
      <trkpt lat="43.63709" lon="3.82762">
        <ele>78.8</ele>
        <time>2021-01-03T12:17:56Z</time>
      </trkpt>
      <trkpt lat="43.63714" lon="3.8276">
        <ele>78.8</ele>
        <time>2021-01-03T12:17:57Z</time>
      </trkpt>
      <trkpt lat="43.63718" lon="3.82759">
        <ele>78.8</ele>
        <time>2021-01-03T12:17:58Z</time>
      </trkpt>
      <trkpt lat="43.63722" lon="3.82758">
        <ele>78.7</ele>
        <time>2021-01-03T12:17:59Z</time>
      </trkpt>
      <trkpt lat="43.63727" lon="3.82757">
        <ele>78.6</ele>
        <time>2021-01-03T12:18:00Z</time>
      </trkpt>
      <trkpt lat="43.63731" lon="3.82756">
        <ele>78.5</ele>
        <time>2021-01-03T12:18:01Z</time>
      </trkpt>
      <trkpt lat="43.63735" lon="3.82755">
        <ele>78.4</ele>
        <time>2021-01-03T12:18:02Z</time>
      </trkpt>
      <trkpt lat="43.6374" lon="3.82754">
        <ele>78.2</ele>
        <time>2021-01-03T12:18:03Z</time>
      </trkpt>
      <trkpt lat="43.63744" lon="3.82754">
        <ele>78.1</ele>
        <time>2021-01-03T12:18:04Z</time>
      </trkpt>
      <trkpt lat="43.63749" lon="3.82753">
        <ele>88</ele>
        <time>2021-01-03T12:18:05Z</time>
      </trkpt>
      <trkpt lat="43.63753" lon="3.82753">
        <ele>78</ele>
        <time>2021-01-03T12:18:06Z</time>
      </trkpt>
      <trkpt lat="43.63757" lon="3.82753">
        <ele>78.1</ele>
        <time>2021-01-03T12:18:07Z</time>
      </trkpt>
      <trkpt lat="43.63762" lon="3.82752">
        <ele>78.4</ele>
        <time>2021-01-03T12:18:08Z</time>
      </trkpt>
      <trkpt lat="43.63767" lon="3.82751">
        <ele>78.6</ele>
        <time>2021-01-03T12:18:09Z</time>
      </trkpt>
      <trkpt lat="43.63771" lon="3.8275">
        <ele>78.8</ele>
        <time>2021-01-03T12:18:10Z</time>
      </trkpt>
      <trkpt lat="43.63775" lon="3.8275">
        <ele>78.9</ele>
        <time>2021-01-03T12:18:11Z</time>
      </trkpt>
      <trkpt lat="43.6378" lon="3.82749">
        <ele>79</ele>
        <time>2021-01-03T12:18:12Z</time>
      </trkpt>
      <trkpt lat="43.63784" lon="3.82748">
        <ele>79</ele>
        <time>2021-01-03T12:18:13Z</time>
      </trkpt>
      <trkpt lat="43.63787" lon="3.82746">
        <ele>79.1</ele>
        <time>2021-01-03T12:18:14Z</time>
      </trkpt>
      <trkpt lat="43.63791" lon="3.82744">
        <ele>88</ele>
        <time>2021-01-03T12:18:15Z</time>
      </trkpt>
      <trkpt lat="43.63794" lon="3.82742">
        <ele>79.1</ele>
        <time>2021-01-03T12:18:16Z</time>
      </trkpt>
      <trkpt lat="43.63798" lon="3.8274">
        <ele>79.1</ele>
        <time>2021-01-03T12:18:17Z</time>
      </trkpt>
      <trkpt lat="43.63802" lon="3.82737">
        <ele>79.1</ele>
        <time>2021-01-03T12:18:18Z</time>
      </trkpt>
      <trkpt lat="43.63806" lon="3.82735">
        <ele>79.1</ele>
        <time>2021-01-03T12:18:19Z</time>
      </trkpt>
      <trkpt lat="43.63811" lon="3.82732">
        <ele>79.5</ele>
        <time>2021-01-03T12:18:20Z</time>
      </trkpt>
      <trkpt lat="43.63815" lon="3.8273">
        <ele>79.8</ele>
        <time>2021-01-03T12:18:21Z</time>
      </trkpt>
      <trkpt lat="43.63819" lon="3.82728">
        <ele>80.1</ele>
        <time>2021-01-03T12:18:22Z</time>
      </trkpt>
      <trkpt lat="43.63824" lon="3.82727">
        <ele>80.3</ele>
        <time>2021-01-03T12:18:23Z</time>
      </trkpt>
      <trkpt lat="43.63828" lon="3.82726">
        <ele>80.5</ele>
        <time>2021-01-03T12:18:24Z</time>
      </trkpt>
      <trkpt lat="43.63831" lon="3.82725">
        <ele>88</ele>
        <time>2021-01-03T12:18:25Z</time>
      </trkpt>
      <trkpt lat="43.63835" lon="3.82724">
        <ele>80.9</ele>
        <time>2021-01-03T12:18:26Z</time>
      </trkpt>
      <trkpt lat="43.63839" lon="3.82723">
        <ele>80.9</ele>
        <time>2021-01-03T12:18:27Z</time>
      </trkpt>
      <trkpt lat="43.63842" lon="3.82722">
        <ele>81</ele>
        <time>2021-01-03T12:18:28Z</time>
      </trkpt>
      <trkpt lat="43.63845" lon="3.82721">
        <ele>81.1</ele>
        <time>2021-01-03T12:18:29Z</time>
      </trkpt>
      <trkpt lat="43.63848" lon="3.82721">
        <ele>81.1</ele>
        <time>2021-01-03T12:18:30Z</time>
      </trkpt>
      <trkpt lat="43.63852" lon="3.8272">
        <ele>81.2</ele>
        <time>2021-01-03T12:18:31Z</time>
      </trkpt>
      <trkpt lat="43.63855" lon="3.82719">
        <ele>81.3</ele>
        <time>2021-01-03T12:18:32Z</time>
      </trkpt>
      <trkpt lat="43.63857" lon="3.82718">
        <ele>81.4</ele>
        <time>2021-01-03T12:18:33Z</time>
      </trkpt>
      <trkpt lat="43.6386" lon="3.82717">
        <ele>81.6</ele>
        <time>2021-01-03T12:18:34Z</time>
      </trkpt>
      <trkpt lat="43.63863" lon="3.82717">
        <ele>88</ele>
        <time>2021-01-03T12:18:35Z</time>
      </trkpt>
      <trkpt lat="43.63865" lon="3.82717">
        <ele>81.7</ele>
        <time>2021-01-03T12:18:36Z</time>
      </trkpt>
      <trkpt lat="43.63867" lon="3.82718">
        <ele>81.6</ele>
        <time>2021-01-03T12:18:37Z</time>
      </trkpt>
      <trkpt lat="43.63869" lon="3.8272">
        <ele>81.5</ele>
        <time>2021-01-03T12:18:38Z</time>
      </trkpt>
      <trkpt lat="43.63871" lon="3.82723">
        <ele>81.3</ele>
        <time>2021-01-03T12:18:39Z</time>
      </trkpt>
      <trkpt lat="43.63872" lon="3.82726">
        <ele>81.2</ele>
        <time>2021-01-03T12:18:40Z</time>
      </trkpt>
      <trkpt lat="43.63873" lon="3.82729">
        <ele>81</ele>
        <time>2021-01-03T12:18:41Z</time>
      </trkpt>
      <trkpt lat="43.63875" lon="3.82733">
        <ele>80.9</ele>
        <time>2021-01-03T12:18:42Z</time>
      </trkpt>
      <trkpt lat="43.63876" lon="3.82736">
        <ele>80.8</ele>
        <time>2021-01-03T12:18:43Z</time>
      </trkpt>
      <trkpt lat="43.63878" lon="3.8274">
        <ele>80.7</ele>
        <time>2021-01-03T12:18:44Z</time>
      </trkpt>
      <trkpt lat="43.63879" lon="3.82743">
        <ele>87</ele>
        <time>2021-01-03T12:18:45Z</time>
      </trkpt>
      <trkpt lat="43.63881" lon="3.82745">
        <ele>80.7</ele>
        <time>2021-01-03T12:18:46Z</time>
      </trkpt>
      <trkpt lat="43.63884" lon="3.82745">
        <ele>80.9</ele>
        <time>2021-01-03T12:18:47Z</time>
      </trkpt>
      <trkpt lat="43.63886" lon="3.82745">
        <ele>81</ele>
        <time>2021-01-03T12:18:48Z</time>
      </trkpt>
      <trkpt lat="43.63889" lon="3.82745">
        <ele>81.2</ele>
        <time>2021-01-03T12:18:49Z</time>
      </trkpt>
      <trkpt lat="43.63892" lon="3.82749">
        <ele>80.9</ele>
        <time>2021-01-03T12:18:50Z</time>
      </trkpt>
      <trkpt lat="43.63894" lon="3.82753">
        <ele>80.7</ele>
        <time>2021-01-03T12:18:51Z</time>
      </trkpt>
      <trkpt lat="43.63896" lon="3.82758">
        <ele>80.5</ele>
        <time>2021-01-03T12:18:52Z</time>
      </trkpt>
      <trkpt lat="43.63898" lon="3.82763">
        <ele>80.4</ele>
        <time>2021-01-03T12:18:53Z</time>
      </trkpt>
      <trkpt lat="43.639" lon="3.82769">
        <ele>80.2</ele>
        <time>2021-01-03T12:18:54Z</time>
      </trkpt>
      <trkpt lat="43.63902" lon="3.82774">
        <ele>86</ele>
        <time>2021-01-03T12:18:55Z</time>
      </trkpt>
      <trkpt lat="43.63904" lon="3.8278">
        <ele>79.9</ele>
        <time>2021-01-03T12:18:56Z</time>
      </trkpt>
      <trkpt lat="43.63906" lon="3.82785">
        <ele>79.7</ele>
        <time>2021-01-03T12:18:57Z</time>
      </trkpt>
      <trkpt lat="43.63908" lon="3.82791">
        <ele>79.5</ele>
        <time>2021-01-03T12:18:58Z</time>
      </trkpt>
      <trkpt lat="43.63911" lon="3.82796">
        <ele>79.3</ele>
        <time>2021-01-03T12:18:59Z</time>
      </trkpt>
      <trkpt lat="43.63914" lon="3.82801">
        <ele>79.2</ele>
        <time>2021-01-03T12:19:00Z</time>
      </trkpt>
      <trkpt lat="43.63917" lon="3.82805">
        <ele>79</ele>
        <time>2021-01-03T12:19:01Z</time>
      </trkpt>
      <trkpt lat="43.63919" lon="3.82809">
        <ele>78.9</ele>
        <time>2021-01-03T12:19:02Z</time>
      </trkpt>
      <trkpt lat="43.63921" lon="3.82813">
        <ele>78.8</ele>
        <time>2021-01-03T12:19:03Z</time>
      </trkpt>
      <trkpt lat="43.63922" lon="3.82818">
        <ele>78.6</ele>
        <time>2021-01-03T12:19:04Z</time>
      </trkpt>
      <trkpt lat="43.63924" lon="3.82822">
        <ele>85</ele>
        <time>2021-01-03T12:19:05Z</time>
      </trkpt>
      <trkpt lat="43.63927" lon="3.82824">
        <ele>78.6</ele>
        <time>2021-01-03T12:19:06Z</time>
      </trkpt>
      <trkpt lat="43.6393" lon="3.82825">
        <ele>78.6</ele>
        <time>2021-01-03T12:19:07Z</time>
      </trkpt>
      <trkpt lat="43.63933" lon="3.82824">
        <ele>78.7</ele>
        <time>2021-01-03T12:19:08Z</time>
      </trkpt>
      <trkpt lat="43.63935" lon="3.82822">
        <ele>78.8</ele>
        <time>2021-01-03T12:19:09Z</time>
      </trkpt>
      <trkpt lat="43.63939" lon="3.82821">
        <ele>78.9</ele>
        <time>2021-01-03T12:19:10Z</time>
      </trkpt>
      <trkpt lat="43.63942" lon="3.82821">
        <ele>79</ele>
        <time>2021-01-03T12:19:11Z</time>
      </trkpt>
      <trkpt lat="43.63946" lon="3.82819">
        <ele>79.1</ele>
        <time>2021-01-03T12:19:12Z</time>
      </trkpt>
      <trkpt lat="43.63949" lon="3.82817">
        <ele>79.2</ele>
        <time>2021-01-03T12:19:13Z</time>
      </trkpt>
      <trkpt lat="43.63952" lon="3.82815">
        <ele>79.3</ele>
        <time>2021-01-03T12:19:14Z</time>
      </trkpt>
      <trkpt lat="43.63954" lon="3.82813">
        <ele>86</ele>
        <time>2021-01-03T12:19:15Z</time>
      </trkpt>
      <trkpt lat="43.63956" lon="3.82811">
        <ele>79.4</ele>
        <time>2021-01-03T12:19:16Z</time>
      </trkpt>
      <trkpt lat="43.63959" lon="3.82809">
        <ele>79.5</ele>
        <time>2021-01-03T12:19:17Z</time>
      </trkpt>
      <trkpt lat="43.6396" lon="3.82807">
        <ele>79.6</ele>
        <time>2021-01-03T12:19:18Z</time>
      </trkpt>
      <trkpt lat="43.63962" lon="3.82806">
        <ele>79.6</ele>
        <time>2021-01-03T12:19:19Z</time>
      </trkpt>
      <trkpt lat="43.63965" lon="3.82804">
        <ele>79.8</ele>
        <time>2021-01-03T12:19:20Z</time>
      </trkpt>
      <trkpt lat="43.63967" lon="3.82802">
        <ele>79.9</ele>
        <time>2021-01-03T12:19:21Z</time>
      </trkpt>
      <trkpt lat="43.6397" lon="3.82799">
        <ele>80.2</ele>
        <time>2021-01-03T12:19:22Z</time>
      </trkpt>
      <trkpt lat="43.63973" lon="3.82798">
        <ele>80.3</ele>
        <time>2021-01-03T12:19:23Z</time>
      </trkpt>
      <trkpt lat="43.63976" lon="3.82798">
        <ele>80.5</ele>
        <time>2021-01-03T12:19:24Z</time>
      </trkpt>
      <trkpt lat="43.63979" lon="3.82798">
        <ele>80.6</ele>
        <time>2021-01-03T12:19:25Z</time>
      </trkpt>
      <trkpt lat="43.63982" lon="3.82798">
        <ele>87</ele>
        <time>2021-01-03T12:19:26Z</time>
      </trkpt>
      <trkpt lat="43.63985" lon="3.82798">
        <ele>81</ele>
        <time>2021-01-03T12:19:27Z</time>
      </trkpt>
      <trkpt lat="43.63988" lon="3.82797">
        <ele>81.2</ele>
        <time>2021-01-03T12:19:28Z</time>
      </trkpt>
      <trkpt lat="43.63991" lon="3.82797">
        <ele>81.4</ele>
        <time>2021-01-03T12:19:29Z</time>
      </trkpt>
      <trkpt lat="43.63995" lon="3.82796">
        <ele>81.7</ele>
        <time>2021-01-03T12:19:30Z</time>
      </trkpt>
      <trkpt lat="43.63998" lon="3.82795">
        <ele>82</ele>
        <time>2021-01-03T12:19:31Z</time>
      </trkpt>
      <trkpt lat="43.64002" lon="3.82794">
        <ele>82.3</ele>
        <time>2021-01-03T12:19:32Z</time>
      </trkpt>
      <trkpt lat="43.64005" lon="3.82794">
        <ele>82.3</ele>
        <time>2021-01-03T12:19:33Z</time>
      </trkpt>
      <trkpt lat="43.64008" lon="3.82792">
        <ele>82.5</ele>
        <time>2021-01-03T12:19:34Z</time>
      </trkpt>
      <trkpt lat="43.6401" lon="3.82791">
        <ele>88</ele>
        <time>2021-01-03T12:19:35Z</time>
      </trkpt>
      <trkpt lat="43.64013" lon="3.82789">
        <ele>82.7</ele>
        <time>2021-01-03T12:19:36Z</time>
      </trkpt>
      <trkpt lat="43.64015" lon="3.82786">
        <ele>82.9</ele>
        <time>2021-01-03T12:19:37Z</time>
      </trkpt>
      <trkpt lat="43.64016" lon="3.82782">
        <ele>83.1</ele>
        <time>2021-01-03T12:19:38Z</time>
      </trkpt>
      <trkpt lat="43.64017" lon="3.82778">
        <ele>83.4</ele>
        <time>2021-01-03T12:19:39Z</time>
      </trkpt>
      <trkpt lat="43.64018" lon="3.82775">
        <ele>83.5</ele>
        <time>2021-01-03T12:19:40Z</time>
      </trkpt>
      <trkpt lat="43.64019" lon="3.82773">
        <ele>83.6</ele>
        <time>2021-01-03T12:19:41Z</time>
      </trkpt>
      <trkpt lat="43.6402" lon="3.8277">
        <ele>83.8</ele>
        <time>2021-01-03T12:19:42Z</time>
      </trkpt>
      <trkpt lat="43.64021" lon="3.82768">
        <ele>83.9</ele>
        <time>2021-01-03T12:19:43Z</time>
      </trkpt>
      <trkpt lat="43.64023" lon="3.82766">
        <ele>83.9</ele>
        <time>2021-01-03T12:19:44Z</time>
      </trkpt>
      <trkpt lat="43.64024" lon="3.82763">
        <ele>88</ele>
        <time>2021-01-03T12:19:45Z</time>
      </trkpt>
      <trkpt lat="43.64026" lon="3.82761">
        <ele>84.2</ele>
        <time>2021-01-03T12:19:46Z</time>
      </trkpt>
      <trkpt lat="43.64027" lon="3.82758">
        <ele>84.4</ele>
        <time>2021-01-03T12:19:47Z</time>
      </trkpt>
      <trkpt lat="43.64028" lon="3.82755">
        <ele>84.6</ele>
        <time>2021-01-03T12:19:48Z</time>
      </trkpt>
      <trkpt lat="43.64029" lon="3.82752">
        <ele>84.9</ele>
        <time>2021-01-03T12:19:49Z</time>
      </trkpt>
      <trkpt lat="43.6403" lon="3.82749">
        <ele>85</ele>
        <time>2021-01-03T12:19:50Z</time>
      </trkpt>
      <trkpt lat="43.64031" lon="3.82747">
        <ele>85.1</ele>
        <time>2021-01-03T12:19:51Z</time>
      </trkpt>
      <trkpt lat="43.64032" lon="3.82744">
        <ele>85.2</ele>
        <time>2021-01-03T12:19:52Z</time>
      </trkpt>
      <trkpt lat="43.64033" lon="3.82741">
        <ele>85.3</ele>
        <time>2021-01-03T12:19:53Z</time>
      </trkpt>
      <trkpt lat="43.64034" lon="3.82738">
        <ele>85.4</ele>
        <time>2021-01-03T12:19:54Z</time>
      </trkpt>
      <trkpt lat="43.64036" lon="3.82736">
        <ele>88</ele>
        <time>2021-01-03T12:19:55Z</time>
      </trkpt>
      <trkpt lat="43.64037" lon="3.82733">
        <ele>85.6</ele>
        <time>2021-01-03T12:19:56Z</time>
      </trkpt>
      <trkpt lat="43.64039" lon="3.82731">
        <ele>85.7</ele>
        <time>2021-01-03T12:19:57Z</time>
      </trkpt>
      <trkpt lat="43.64041" lon="3.82728">
        <ele>85.8</ele>
        <time>2021-01-03T12:19:58Z</time>
      </trkpt>
      <trkpt lat="43.64042" lon="3.82726">
        <ele>85.9</ele>
        <time>2021-01-03T12:19:59Z</time>
      </trkpt>
      <trkpt lat="43.64044" lon="3.82723">
        <ele>86</ele>
        <time>2021-01-03T12:20:00Z</time>
      </trkpt>
      <trkpt lat="43.64045" lon="3.8272">
        <ele>86.1</ele>
        <time>2021-01-03T12:20:01Z</time>
      </trkpt>
      <trkpt lat="43.64046" lon="3.82718">
        <ele>86.3</ele>
        <time>2021-01-03T12:20:02Z</time>
      </trkpt>
      <trkpt lat="43.64048" lon="3.82715">
        <ele>86.4</ele>
        <time>2021-01-03T12:20:03Z</time>
      </trkpt>
      <trkpt lat="43.64049" lon="3.82712">
        <ele>86.6</ele>
        <time>2021-01-03T12:20:04Z</time>
      </trkpt>
      <trkpt lat="43.6405" lon="3.82709">
        <ele>89</ele>
        <time>2021-01-03T12:20:05Z</time>
      </trkpt>
      <trkpt lat="43.64052" lon="3.82707">
        <ele>87</ele>
        <time>2021-01-03T12:20:06Z</time>
      </trkpt>
      <trkpt lat="43.64053" lon="3.82704">
        <ele>87.3</ele>
        <time>2021-01-03T12:20:07Z</time>
      </trkpt>
      <trkpt lat="43.64054" lon="3.82702">
        <ele>87.4</ele>
        <time>2021-01-03T12:20:08Z</time>
      </trkpt>
      <trkpt lat="43.64055" lon="3.82699">
        <ele>87.7</ele>
        <time>2021-01-03T12:20:09Z</time>
      </trkpt>
      <trkpt lat="43.64056" lon="3.82697">
        <ele>87.8</ele>
        <time>2021-01-03T12:20:10Z</time>
      </trkpt>
      <trkpt lat="43.64057" lon="3.82693">
        <ele>88.1</ele>
        <time>2021-01-03T12:20:11Z</time>
      </trkpt>
      <trkpt lat="43.64057" lon="3.8269">
        <ele>88.2</ele>
        <time>2021-01-03T12:20:12Z</time>
      </trkpt>
      <trkpt lat="43.64057" lon="3.82687">
        <ele>88.3</ele>
        <time>2021-01-03T12:20:13Z</time>
      </trkpt>
      <trkpt lat="43.64058" lon="3.82685">
        <ele>88.4</ele>
        <time>2021-01-03T12:20:14Z</time>
      </trkpt>
      <trkpt lat="43.64059" lon="3.82682">
        <ele>90</ele>
        <time>2021-01-03T12:20:15Z</time>
      </trkpt>
      <trkpt lat="43.6406" lon="3.82679">
        <ele>88.6</ele>
        <time>2021-01-03T12:20:16Z</time>
      </trkpt>
      <trkpt lat="43.64061" lon="3.82676">
        <ele>88.8</ele>
        <time>2021-01-03T12:20:17Z</time>
      </trkpt>
      <trkpt lat="43.64062" lon="3.82674">
        <ele>88.9</ele>
        <time>2021-01-03T12:20:18Z</time>
      </trkpt>
      <trkpt lat="43.64064" lon="3.82671">
        <ele>89.1</ele>
        <time>2021-01-03T12:20:19Z</time>
      </trkpt>
      <trkpt lat="43.64065" lon="3.82669">
        <ele>89.2</ele>
        <time>2021-01-03T12:20:20Z</time>
      </trkpt>
      <trkpt lat="43.64066" lon="3.82666">
        <ele>89.4</ele>
        <time>2021-01-03T12:20:21Z</time>
      </trkpt>
      <trkpt lat="43.64067" lon="3.82664">
        <ele>89.6</ele>
        <time>2021-01-03T12:20:22Z</time>
      </trkpt>
      <trkpt lat="43.64069" lon="3.82661">
        <ele>89.8</ele>
        <time>2021-01-03T12:20:23Z</time>
      </trkpt>
      <trkpt lat="43.6407" lon="3.82659">
        <ele>89.9</ele>
        <time>2021-01-03T12:20:24Z</time>
      </trkpt>
      <trkpt lat="43.64072" lon="3.82654">
        <ele>91</ele>
        <time>2021-01-03T12:20:25Z</time>
      </trkpt>
      <trkpt lat="43.64073" lon="3.82651">
        <ele>90.4</ele>
        <time>2021-01-03T12:20:26Z</time>
      </trkpt>
      <trkpt lat="43.64074" lon="3.82649">
        <ele>90.5</ele>
        <time>2021-01-03T12:20:27Z</time>
      </trkpt>
      <trkpt lat="43.64075" lon="3.82646">
        <ele>90.7</ele>
        <time>2021-01-03T12:20:28Z</time>
      </trkpt>
      <trkpt lat="43.64076" lon="3.82644">
        <ele>90.8</ele>
        <time>2021-01-03T12:20:29Z</time>
      </trkpt>
      <trkpt lat="43.64077" lon="3.82641">
        <ele>90.9</ele>
        <time>2021-01-03T12:20:30Z</time>
      </trkpt>
      <trkpt lat="43.64077" lon="3.82639">
        <ele>91</ele>
        <time>2021-01-03T12:20:31Z</time>
      </trkpt>
      <trkpt lat="43.64078" lon="3.82636">
        <ele>91.2</ele>
        <time>2021-01-03T12:20:32Z</time>
      </trkpt>
      <trkpt lat="43.64079" lon="3.82633">
        <ele>91.4</ele>
        <time>2021-01-03T12:20:33Z</time>
      </trkpt>
      <trkpt lat="43.64079" lon="3.82631">
        <ele>91.5</ele>
        <time>2021-01-03T12:20:34Z</time>
      </trkpt>
      <trkpt lat="43.6408" lon="3.82628">
        <ele>91.7</ele>
        <time>2021-01-03T12:20:36Z</time>
      </trkpt>
      <trkpt lat="43.6408" lon="3.82625">
        <ele>91.9</ele>
        <time>2021-01-03T12:20:37Z</time>
      </trkpt>
      <trkpt lat="43.6408" lon="3.82622">
        <ele>92.1</ele>
        <time>2021-01-03T12:20:38Z</time>
      </trkpt>
      <trkpt lat="43.6408" lon="3.82619">
        <ele>92.3</ele>
        <time>2021-01-03T12:20:39Z</time>
      </trkpt>
      <trkpt lat="43.64082" lon="3.82617">
        <ele>92.5</ele>
        <time>2021-01-03T12:20:40Z</time>
      </trkpt>
      <trkpt lat="43.64082" lon="3.82614">
        <ele>92.7</ele>
        <time>2021-01-03T12:20:41Z</time>
      </trkpt>
      <trkpt lat="43.64083" lon="3.82611">
        <ele>93</ele>
        <time>2021-01-03T12:20:42Z</time>
      </trkpt>
      <trkpt lat="43.64084" lon="3.82608">
        <ele>93.1</ele>
        <time>2021-01-03T12:20:43Z</time>
      </trkpt>
      <trkpt lat="43.64084" lon="3.82606">
        <ele>93.2</ele>
        <time>2021-01-03T12:20:44Z</time>
      </trkpt>
      <trkpt lat="43.64085" lon="3.82603">
        <ele>94</ele>
        <time>2021-01-03T12:20:45Z</time>
      </trkpt>
      <trkpt lat="43.64087" lon="3.826">
        <ele>93.4</ele>
        <time>2021-01-03T12:20:46Z</time>
      </trkpt>
      <trkpt lat="43.64088" lon="3.82598">
        <ele>93.5</ele>
        <time>2021-01-03T12:20:47Z</time>
      </trkpt>
      <trkpt lat="43.64089" lon="3.82595">
        <ele>93.6</ele>
        <time>2021-01-03T12:20:48Z</time>
      </trkpt>
      <trkpt lat="43.6409" lon="3.82593">
        <ele>93.7</ele>
        <time>2021-01-03T12:20:49Z</time>
      </trkpt>
      <trkpt lat="43.6409" lon="3.8259">
        <ele>93.8</ele>
        <time>2021-01-03T12:20:50Z</time>
      </trkpt>
      <trkpt lat="43.64091" lon="3.82587">
        <ele>93.9</ele>
        <time>2021-01-03T12:20:51Z</time>
      </trkpt>
      <trkpt lat="43.64091" lon="3.82585">
        <ele>93.9</ele>
        <time>2021-01-03T12:20:52Z</time>
      </trkpt>
      <trkpt lat="43.64093" lon="3.82583">
        <ele>94</ele>
        <time>2021-01-03T12:20:53Z</time>
      </trkpt>
      <trkpt lat="43.64094" lon="3.8258">
        <ele>94</ele>
        <time>2021-01-03T12:20:54Z</time>
      </trkpt>
      <trkpt lat="43.64095" lon="3.82578">
        <ele>96</ele>
        <time>2021-01-03T12:20:55Z</time>
      </trkpt>
      <trkpt lat="43.64096" lon="3.82576">
        <ele>94.1</ele>
        <time>2021-01-03T12:20:56Z</time>
      </trkpt>
      <trkpt lat="43.64097" lon="3.82573">
        <ele>94.2</ele>
        <time>2021-01-03T12:20:57Z</time>
      </trkpt>
      <trkpt lat="43.64097" lon="3.8257">
        <ele>94.2</ele>
        <time>2021-01-03T12:20:58Z</time>
      </trkpt>
      <trkpt lat="43.64098" lon="3.82568">
        <ele>94.3</ele>
        <time>2021-01-03T12:20:59Z</time>
      </trkpt>
      <trkpt lat="43.64099" lon="3.82565">
        <ele>94.4</ele>
        <time>2021-01-03T12:21:00Z</time>
      </trkpt>
      <trkpt lat="43.64101" lon="3.82563">
        <ele>94.5</ele>
        <time>2021-01-03T12:21:01Z</time>
      </trkpt>
      <trkpt lat="43.64102" lon="3.82561">
        <ele>94.5</ele>
        <time>2021-01-03T12:21:02Z</time>
      </trkpt>
      <trkpt lat="43.64103" lon="3.82558">
        <ele>94.6</ele>
        <time>2021-01-03T12:21:03Z</time>
      </trkpt>
      <trkpt lat="43.64104" lon="3.82555">
        <ele>94.8</ele>
        <time>2021-01-03T12:21:04Z</time>
      </trkpt>
      <trkpt lat="43.64105" lon="3.82553">
        <ele>97</ele>
        <time>2021-01-03T12:21:05Z</time>
      </trkpt>
      <trkpt lat="43.64105" lon="3.8255">
        <ele>95</ele>
        <time>2021-01-03T12:21:06Z</time>
      </trkpt>
      <trkpt lat="43.64106" lon="3.82547">
        <ele>95.1</ele>
        <time>2021-01-03T12:21:07Z</time>
      </trkpt>
      <trkpt lat="43.64106" lon="3.82544">
        <ele>95.2</ele>
        <time>2021-01-03T12:21:08Z</time>
      </trkpt>
      <trkpt lat="43.64107" lon="3.82542">
        <ele>95.3</ele>
        <time>2021-01-03T12:21:09Z</time>
      </trkpt>
      <trkpt lat="43.64108" lon="3.82539">
        <ele>95.5</ele>
        <time>2021-01-03T12:21:10Z</time>
      </trkpt>
      <trkpt lat="43.64109" lon="3.82537">
        <ele>95.6</ele>
        <time>2021-01-03T12:21:11Z</time>
      </trkpt>
      <trkpt lat="43.6411" lon="3.82534">
        <ele>95.7</ele>
        <time>2021-01-03T12:21:12Z</time>
      </trkpt>
      <trkpt lat="43.64111" lon="3.82532">
        <ele>95.8</ele>
        <time>2021-01-03T12:21:13Z</time>
      </trkpt>
      <trkpt lat="43.64112" lon="3.8253">
        <ele>95.9</ele>
        <time>2021-01-03T12:21:14Z</time>
      </trkpt>
      <trkpt lat="43.64113" lon="3.82528">
        <ele>98</ele>
        <time>2021-01-03T12:21:15Z</time>
      </trkpt>
      <trkpt lat="43.64114" lon="3.82525">
        <ele>96.1</ele>
        <time>2021-01-03T12:21:16Z</time>
      </trkpt>
      <trkpt lat="43.64115" lon="3.82523">
        <ele>96.2</ele>
        <time>2021-01-03T12:21:17Z</time>
      </trkpt>
      <trkpt lat="43.64116" lon="3.82521">
        <ele>96.2</ele>
        <time>2021-01-03T12:21:18Z</time>
      </trkpt>
      <trkpt lat="43.64116" lon="3.82518">
        <ele>96.4</ele>
        <time>2021-01-03T12:21:19Z</time>
      </trkpt>
      <trkpt lat="43.64117" lon="3.82516">
        <ele>96.4</ele>
        <time>2021-01-03T12:21:20Z</time>
      </trkpt>
      <trkpt lat="43.64118" lon="3.82514">
        <ele>96.5</ele>
        <time>2021-01-03T12:21:21Z</time>
      </trkpt>
      <trkpt lat="43.6412" lon="3.8251">
        <ele>96.6</ele>
        <time>2021-01-03T12:21:23Z</time>
      </trkpt>
      <trkpt lat="43.64121" lon="3.82506">
        <ele>99</ele>
        <time>2021-01-03T12:21:25Z</time>
      </trkpt>
      <trkpt lat="43.64123" lon="3.82504">
        <ele>96.9</ele>
        <time>2021-01-03T12:21:26Z</time>
      </trkpt>
      <trkpt lat="43.64125" lon="3.82502">
        <ele>96.9</ele>
        <time>2021-01-03T12:21:27Z</time>
      </trkpt>
      <trkpt lat="43.64127" lon="3.825">
        <ele>97</ele>
        <time>2021-01-03T12:21:28Z</time>
      </trkpt>
      <trkpt lat="43.64129" lon="3.82498">
        <ele>97.1</ele>
        <time>2021-01-03T12:21:29Z</time>
      </trkpt>
      <trkpt lat="43.6413" lon="3.82496">
        <ele>97.2</ele>
        <time>2021-01-03T12:21:30Z</time>
      </trkpt>
      <trkpt lat="43.64132" lon="3.82491">
        <ele>97.5</ele>
        <time>2021-01-03T12:21:32Z</time>
      </trkpt>
      <trkpt lat="43.64133" lon="3.82489">
        <ele>97.6</ele>
        <time>2021-01-03T12:21:33Z</time>
      </trkpt>
      <trkpt lat="43.64133" lon="3.82486">
        <ele>97.8</ele>
        <time>2021-01-03T12:21:34Z</time>
      </trkpt>
      <trkpt lat="43.64134" lon="3.82481">
        <ele>98.1</ele>
        <time>2021-01-03T12:21:36Z</time>
      </trkpt>
      <trkpt lat="43.64136" lon="3.82477">
        <ele>98.5</ele>
        <time>2021-01-03T12:21:38Z</time>
      </trkpt>
      <trkpt lat="43.64137" lon="3.82474">
        <ele>98.7</ele>
        <time>2021-01-03T12:21:39Z</time>
      </trkpt>
      <trkpt lat="43.64138" lon="3.82472">
        <ele>98.9</ele>
        <time>2021-01-03T12:21:40Z</time>
      </trkpt>
      <trkpt lat="43.64139" lon="3.8247">
        <ele>99</ele>
        <time>2021-01-03T12:21:41Z</time>
      </trkpt>
      <trkpt lat="43.6414" lon="3.82467">
        <ele>99</ele>
        <time>2021-01-03T12:21:42Z</time>
      </trkpt>
      <trkpt lat="43.64141" lon="3.82464">
        <ele>99</ele>
        <time>2021-01-03T12:21:43Z</time>
      </trkpt>
      <trkpt lat="43.64142" lon="3.82462">
        <ele>99</ele>
        <time>2021-01-03T12:21:44Z</time>
      </trkpt>
      <trkpt lat="43.64143" lon="3.82459">
        <ele>101</ele>
        <time>2021-01-03T12:21:45Z</time>
      </trkpt>
      <trkpt lat="43.64143" lon="3.82456">
        <ele>99.1</ele>
        <time>2021-01-03T12:21:46Z</time>
      </trkpt>
      <trkpt lat="43.64143" lon="3.82453">
        <ele>99.1</ele>
        <time>2021-01-03T12:21:47Z</time>
      </trkpt>
      <trkpt lat="43.64143" lon="3.8245">
        <ele>99.1</ele>
        <time>2021-01-03T12:21:48Z</time>
      </trkpt>
      <trkpt lat="43.64143" lon="3.82448">
        <ele>99.1</ele>
        <time>2021-01-03T12:21:49Z</time>
      </trkpt>
      <trkpt lat="43.64143" lon="3.82445">
        <ele>99.1</ele>
        <time>2021-01-03T12:21:50Z</time>
      </trkpt>
      <trkpt lat="43.64143" lon="3.82442">
        <ele>99.2</ele>
        <time>2021-01-03T12:21:51Z</time>
      </trkpt>
      <trkpt lat="43.64144" lon="3.82439">
        <ele>99.4</ele>
        <time>2021-01-03T12:21:52Z</time>
      </trkpt>
      <trkpt lat="43.64145" lon="3.82437">
        <ele>99.5</ele>
        <time>2021-01-03T12:21:53Z</time>
      </trkpt>
      <trkpt lat="43.64146" lon="3.82435">
        <ele>99.6</ele>
        <time>2021-01-03T12:21:54Z</time>
      </trkpt>
      <trkpt lat="43.64147" lon="3.82433">
        <ele>102</ele>
        <time>2021-01-03T12:21:55Z</time>
      </trkpt>
      <trkpt lat="43.64148" lon="3.8243">
        <ele>99.8</ele>
        <time>2021-01-03T12:21:56Z</time>
      </trkpt>
      <trkpt lat="43.64148" lon="3.82428">
        <ele>99.9</ele>
        <time>2021-01-03T12:21:57Z</time>
      </trkpt>
      <trkpt lat="43.64147" lon="3.82425">
        <ele>100</ele>
        <time>2021-01-03T12:21:58Z</time>
      </trkpt>
      <trkpt lat="43.64147" lon="3.82422">
        <ele>100.1</ele>
        <time>2021-01-03T12:21:59Z</time>
      </trkpt>
      <trkpt lat="43.64147" lon="3.82419">
        <ele>100.2</ele>
        <time>2021-01-03T12:22:00Z</time>
      </trkpt>
      <trkpt lat="43.64147" lon="3.82416">
        <ele>100.3</ele>
        <time>2021-01-03T12:22:01Z</time>
      </trkpt>
      <trkpt lat="43.64149" lon="3.82414">
        <ele>100.4</ele>
        <time>2021-01-03T12:22:02Z</time>
      </trkpt>
      <trkpt lat="43.6415" lon="3.82412">
        <ele>100.5</ele>
        <time>2021-01-03T12:22:03Z</time>
      </trkpt>
      <trkpt lat="43.64151" lon="3.82409">
        <ele>100.6</ele>
        <time>2021-01-03T12:22:04Z</time>
      </trkpt>
      <trkpt lat="43.64152" lon="3.82406">
        <ele>103</ele>
        <time>2021-01-03T12:22:05Z</time>
      </trkpt>
      <trkpt lat="43.64154" lon="3.82404">
        <ele>100.8</ele>
        <time>2021-01-03T12:22:06Z</time>
      </trkpt>
      <trkpt lat="43.64155" lon="3.82401">
        <ele>100.9</ele>
        <time>2021-01-03T12:22:07Z</time>
      </trkpt>
      <trkpt lat="43.64156" lon="3.82399">
        <ele>101</ele>
        <time>2021-01-03T12:22:08Z</time>
      </trkpt>
      <trkpt lat="43.64157" lon="3.82396">
        <ele>101.1</ele>
        <time>2021-01-03T12:22:09Z</time>
      </trkpt>
      <trkpt lat="43.64158" lon="3.82394">
        <ele>101.2</ele>
        <time>2021-01-03T12:22:10Z</time>
      </trkpt>
      <trkpt lat="43.64159" lon="3.82391">
        <ele>101.4</ele>
        <time>2021-01-03T12:22:11Z</time>
      </trkpt>
      <trkpt lat="43.6416" lon="3.82388">
        <ele>101.6</ele>
        <time>2021-01-03T12:22:12Z</time>
      </trkpt>
      <trkpt lat="43.64161" lon="3.82385">
        <ele>101.7</ele>
        <time>2021-01-03T12:22:13Z</time>
      </trkpt>
      <trkpt lat="43.64161" lon="3.82382">
        <ele>101.8</ele>
        <time>2021-01-03T12:22:14Z</time>
      </trkpt>
      <trkpt lat="43.64162" lon="3.82379">
        <ele>104</ele>
        <time>2021-01-03T12:22:15Z</time>
      </trkpt>
      <trkpt lat="43.64164" lon="3.82377">
        <ele>102.2</ele>
        <time>2021-01-03T12:22:16Z</time>
      </trkpt>
      <trkpt lat="43.64165" lon="3.82374">
        <ele>102.4</ele>
        <time>2021-01-03T12:22:17Z</time>
      </trkpt>
      <trkpt lat="43.64168" lon="3.82373">
        <ele>102.6</ele>
        <time>2021-01-03T12:22:18Z</time>
      </trkpt>
      <trkpt lat="43.6417" lon="3.82373">
        <ele>102.6</ele>
        <time>2021-01-03T12:22:19Z</time>
      </trkpt>
      <trkpt lat="43.64172" lon="3.82371">
        <ele>102.6</ele>
        <time>2021-01-03T12:22:21Z</time>
      </trkpt>
      <trkpt lat="43.64173" lon="3.82367">
        <ele>102.8</ele>
        <time>2021-01-03T12:22:22Z</time>
      </trkpt>
      <trkpt lat="43.64174" lon="3.82364">
        <ele>102.9</ele>
        <time>2021-01-03T12:22:23Z</time>
      </trkpt>
      <trkpt lat="43.64175" lon="3.82361">
        <ele>103</ele>
        <time>2021-01-03T12:22:24Z</time>
      </trkpt>
      <trkpt lat="43.64177" lon="3.82357">
        <ele>105</ele>
        <time>2021-01-03T12:22:25Z</time>
      </trkpt>
      <trkpt lat="43.64178" lon="3.82353">
        <ele>102.8</ele>
        <time>2021-01-03T12:22:26Z</time>
      </trkpt>
      <trkpt lat="43.64178" lon="3.82349">
        <ele>102.7</ele>
        <time>2021-01-03T12:22:27Z</time>
      </trkpt>
      <trkpt lat="43.64179" lon="3.82344">
        <ele>102.7</ele>
        <time>2021-01-03T12:22:28Z</time>
      </trkpt>
      <trkpt lat="43.6418" lon="3.8234">
        <ele>102.6</ele>
        <time>2021-01-03T12:22:29Z</time>
      </trkpt>
      <trkpt lat="43.6418" lon="3.82335">
        <ele>102.5</ele>
        <time>2021-01-03T12:22:30Z</time>
      </trkpt>
      <trkpt lat="43.64181" lon="3.8233">
        <ele>102.5</ele>
        <time>2021-01-03T12:22:31Z</time>
      </trkpt>
      <trkpt lat="43.64183" lon="3.82326">
        <ele>102.4</ele>
        <time>2021-01-03T12:22:32Z</time>
      </trkpt>
      <trkpt lat="43.64185" lon="3.82321">
        <ele>102.4</ele>
        <time>2021-01-03T12:22:33Z</time>
      </trkpt>
      <trkpt lat="43.64189" lon="3.82317">
        <ele>102.3</ele>
        <time>2021-01-03T12:22:34Z</time>
      </trkpt>
      <trkpt lat="43.64193" lon="3.82314">
        <ele>105</ele>
        <time>2021-01-03T12:22:35Z</time>
      </trkpt>
      <trkpt lat="43.64198" lon="3.82312">
        <ele>102.2</ele>
        <time>2021-01-03T12:22:36Z</time>
      </trkpt>
      <trkpt lat="43.64203" lon="3.82309">
        <ele>102</ele>
        <time>2021-01-03T12:22:37Z</time>
      </trkpt>
      <trkpt lat="43.64207" lon="3.82307">
        <ele>102</ele>
        <time>2021-01-03T12:22:38Z</time>
      </trkpt>
      <trkpt lat="43.64212" lon="3.82304">
        <ele>102</ele>
        <time>2021-01-03T12:22:39Z</time>
      </trkpt>
      <trkpt lat="43.64216" lon="3.82302">
        <ele>102.1</ele>
        <time>2021-01-03T12:22:40Z</time>
      </trkpt>
      <trkpt lat="43.6422" lon="3.82302">
        <ele>102.1</ele>
        <time>2021-01-03T12:22:41Z</time>
      </trkpt>
      <trkpt lat="43.64224" lon="3.82301">
        <ele>102.1</ele>
        <time>2021-01-03T12:22:42Z</time>
      </trkpt>
      <trkpt lat="43.64229" lon="3.82301">
        <ele>101.8</ele>
        <time>2021-01-03T12:22:43Z</time>
      </trkpt>
      <trkpt lat="43.64233" lon="3.82301">
        <ele>101.5</ele>
        <time>2021-01-03T12:22:44Z</time>
      </trkpt>
      <trkpt lat="43.64238" lon="3.82301">
        <ele>106</ele>
        <time>2021-01-03T12:22:45Z</time>
      </trkpt>
      <trkpt lat="43.64242" lon="3.82301">
        <ele>101</ele>
        <time>2021-01-03T12:22:46Z</time>
      </trkpt>
      <trkpt lat="43.64246" lon="3.82301">
        <ele>100.7</ele>
        <time>2021-01-03T12:22:47Z</time>
      </trkpt>
      <trkpt lat="43.6425" lon="3.82301">
        <ele>100.5</ele>
        <time>2021-01-03T12:22:48Z</time>
      </trkpt>
      <trkpt lat="43.64254" lon="3.82302">
        <ele>100.2</ele>
        <time>2021-01-03T12:22:49Z</time>
      </trkpt>
      <trkpt lat="43.64259" lon="3.82303">
        <ele>100</ele>
        <time>2021-01-03T12:22:50Z</time>
      </trkpt>
      <trkpt lat="43.64263" lon="3.82306">
        <ele>99.5</ele>
        <time>2021-01-03T12:22:51Z</time>
      </trkpt>
      <trkpt lat="43.64267" lon="3.82309">
        <ele>99.3</ele>
        <time>2021-01-03T12:22:52Z</time>
      </trkpt>
      <trkpt lat="43.64271" lon="3.82312">
        <ele>99.1</ele>
        <time>2021-01-03T12:22:53Z</time>
      </trkpt>
      <trkpt lat="43.64276" lon="3.82313">
        <ele>98.8</ele>
        <time>2021-01-03T12:22:54Z</time>
      </trkpt>
      <trkpt lat="43.64281" lon="3.82311">
        <ele>106</ele>
        <time>2021-01-03T12:22:55Z</time>
      </trkpt>
      <trkpt lat="43.64285" lon="3.82309">
        <ele>98.6</ele>
        <time>2021-01-03T12:22:56Z</time>
      </trkpt>
      <trkpt lat="43.64289" lon="3.82306">
        <ele>98.6</ele>
        <time>2021-01-03T12:22:57Z</time>
      </trkpt>
      <trkpt lat="43.64292" lon="3.82301">
        <ele>98.9</ele>
        <time>2021-01-03T12:22:58Z</time>
      </trkpt>
      <trkpt lat="43.64295" lon="3.82297">
        <ele>99.1</ele>
        <time>2021-01-03T12:22:59Z</time>
      </trkpt>
      <trkpt lat="43.64299" lon="3.82296">
        <ele>99</ele>
        <time>2021-01-03T12:23:00Z</time>
      </trkpt>
      <trkpt lat="43.64304" lon="3.82297">
        <ele>98.7</ele>
        <time>2021-01-03T12:23:01Z</time>
      </trkpt>
      <trkpt lat="43.64309" lon="3.82298">
        <ele>98.5</ele>
        <time>2021-01-03T12:23:02Z</time>
      </trkpt>
      <trkpt lat="43.64313" lon="3.82297">
        <ele>98.5</ele>
        <time>2021-01-03T12:23:03Z</time>
      </trkpt>
      <trkpt lat="43.64318" lon="3.82295">
        <ele>98.6</ele>
        <time>2021-01-03T12:23:04Z</time>
      </trkpt>
      <trkpt lat="43.64323" lon="3.82293">
        <ele>105</ele>
        <time>2021-01-03T12:23:05Z</time>
      </trkpt>
      <trkpt lat="43.64327" lon="3.82292">
        <ele>98.6</ele>
        <time>2021-01-03T12:23:06Z</time>
      </trkpt>
      <trkpt lat="43.64331" lon="3.82292">
        <ele>98.5</ele>
        <time>2021-01-03T12:23:07Z</time>
      </trkpt>
      <trkpt lat="43.64334" lon="3.82291">
        <ele>98.5</ele>
        <time>2021-01-03T12:23:08Z</time>
      </trkpt>
      <trkpt lat="43.64337" lon="3.8229">
        <ele>98.4</ele>
        <time>2021-01-03T12:23:09Z</time>
      </trkpt>
      <trkpt lat="43.6434" lon="3.82289">
        <ele>98.4</ele>
        <time>2021-01-03T12:23:10Z</time>
      </trkpt>
      <trkpt lat="43.64343" lon="3.82288">
        <ele>98.3</ele>
        <time>2021-01-03T12:23:11Z</time>
      </trkpt>
      <trkpt lat="43.64345" lon="3.82286">
        <ele>98.3</ele>
        <time>2021-01-03T12:23:12Z</time>
      </trkpt>
      <trkpt lat="43.64346" lon="3.82284">
        <ele>98.3</ele>
        <time>2021-01-03T12:23:13Z</time>
      </trkpt>
      <trkpt lat="43.64348" lon="3.82281">
        <ele>98.4</ele>
        <time>2021-01-03T12:23:14Z</time>
      </trkpt>
      <trkpt lat="43.6435" lon="3.82278">
        <ele>104</ele>
        <time>2021-01-03T12:23:15Z</time>
      </trkpt>
      <trkpt lat="43.64351" lon="3.82276">
        <ele>98.4</ele>
        <time>2021-01-03T12:23:16Z</time>
      </trkpt>
      <trkpt lat="43.64353" lon="3.82273">
        <ele>98.3</ele>
        <time>2021-01-03T12:23:17Z</time>
      </trkpt>
      <trkpt lat="43.64355" lon="3.8227">
        <ele>98.3</ele>
        <time>2021-01-03T12:23:18Z</time>
      </trkpt>
      <trkpt lat="43.64357" lon="3.82267">
        <ele>98.2</ele>
        <time>2021-01-03T12:23:19Z</time>
      </trkpt>
      <trkpt lat="43.6436" lon="3.82264">
        <ele>98.1</ele>
        <time>2021-01-03T12:23:20Z</time>
      </trkpt>
      <trkpt lat="43.64364" lon="3.82263">
        <ele>98</ele>
        <time>2021-01-03T12:23:21Z</time>
      </trkpt>
      <trkpt lat="43.64367" lon="3.82261">
        <ele>98</ele>
        <time>2021-01-03T12:23:22Z</time>
      </trkpt>
      <trkpt lat="43.6437" lon="3.8226">
        <ele>98</ele>
        <time>2021-01-03T12:23:23Z</time>
      </trkpt>
      <trkpt lat="43.64373" lon="3.82258">
        <ele>98</ele>
        <time>2021-01-03T12:23:24Z</time>
      </trkpt>
      <trkpt lat="43.64377" lon="3.82257">
        <ele>102</ele>
        <time>2021-01-03T12:23:25Z</time>
      </trkpt>
      <trkpt lat="43.64381" lon="3.82257">
        <ele>98</ele>
        <time>2021-01-03T12:23:26Z</time>
      </trkpt>
      <trkpt lat="43.64385" lon="3.82257">
        <ele>98</ele>
        <time>2021-01-03T12:23:27Z</time>
      </trkpt>
      <trkpt lat="43.64389" lon="3.82257">
        <ele>98</ele>
        <time>2021-01-03T12:23:28Z</time>
      </trkpt>
      <trkpt lat="43.64392" lon="3.82255">
        <ele>98</ele>
        <time>2021-01-03T12:23:29Z</time>
      </trkpt>
      <trkpt lat="43.64396" lon="3.82254">
        <ele>98.1</ele>
        <time>2021-01-03T12:23:30Z</time>
      </trkpt>
      <trkpt lat="43.64399" lon="3.82253">
        <ele>98.1</ele>
        <time>2021-01-03T12:23:31Z</time>
      </trkpt>
      <trkpt lat="43.64402" lon="3.82251">
        <ele>98</ele>
        <time>2021-01-03T12:23:32Z</time>
      </trkpt>
      <trkpt lat="43.64405" lon="3.82249">
        <ele>98</ele>
        <time>2021-01-03T12:23:33Z</time>
      </trkpt>
      <trkpt lat="43.64408" lon="3.82247">
        <ele>98</ele>
        <time>2021-01-03T12:23:34Z</time>
      </trkpt>
      <trkpt lat="43.64411" lon="3.82245">
        <ele>98</ele>
        <time>2021-01-03T12:23:35Z</time>
      </trkpt>
      <trkpt lat="43.64416" lon="3.82237">
        <ele>102</ele>
        <time>2021-01-03T12:23:36Z</time>
      </trkpt>
      <trkpt lat="43.64419" lon="3.82236">
        <ele>98</ele>
        <time>2021-01-03T12:23:37Z</time>
      </trkpt>
      <trkpt lat="43.64423" lon="3.82236">
        <ele>98</ele>
        <time>2021-01-03T12:23:38Z</time>
      </trkpt>
      <trkpt lat="43.64425" lon="3.82239">
        <ele>98</ele>
        <time>2021-01-03T12:23:39Z</time>
      </trkpt>
      <trkpt lat="43.64427" lon="3.82244">
        <ele>98</ele>
        <time>2021-01-03T12:23:40Z</time>
      </trkpt>
      <trkpt lat="43.64429" lon="3.82248">
        <ele>98</ele>
        <time>2021-01-03T12:23:41Z</time>
      </trkpt>
      <trkpt lat="43.64432" lon="3.82252">
        <ele>98.1</ele>
        <time>2021-01-03T12:23:42Z</time>
      </trkpt>
      <trkpt lat="43.64435" lon="3.82255">
        <ele>98.1</ele>
        <time>2021-01-03T12:23:43Z</time>
      </trkpt>
      <trkpt lat="43.64438" lon="3.82258">
        <ele>98.1</ele>
        <time>2021-01-03T12:23:44Z</time>
      </trkpt>
      <trkpt lat="43.64441" lon="3.82261">
        <ele>98.1</ele>
        <time>2021-01-03T12:23:46Z</time>
      </trkpt>
      <trkpt lat="43.64444" lon="3.82264">
        <ele>98</ele>
        <time>2021-01-03T12:23:47Z</time>
      </trkpt>
      <trkpt lat="43.64447" lon="3.82267">
        <ele>98</ele>
        <time>2021-01-03T12:23:48Z</time>
      </trkpt>
      <trkpt lat="43.6445" lon="3.82269">
        <ele>98</ele>
        <time>2021-01-03T12:23:49Z</time>
      </trkpt>
      <trkpt lat="43.64453" lon="3.82272">
        <ele>98</ele>
        <time>2021-01-03T12:23:50Z</time>
      </trkpt>
      <trkpt lat="43.64456" lon="3.82274">
        <ele>98</ele>
        <time>2021-01-03T12:23:51Z</time>
      </trkpt>
      <trkpt lat="43.64459" lon="3.82274">
        <ele>98</ele>
        <time>2021-01-03T12:23:52Z</time>
      </trkpt>
      <trkpt lat="43.64462" lon="3.82275">
        <ele>98</ele>
        <time>2021-01-03T12:23:53Z</time>
      </trkpt>
      <trkpt lat="43.64464" lon="3.82277">
        <ele>98</ele>
        <time>2021-01-03T12:23:54Z</time>
      </trkpt>
      <trkpt lat="43.64466" lon="3.82279">
        <ele>101</ele>
        <time>2021-01-03T12:23:55Z</time>
      </trkpt>
      <trkpt lat="43.64468" lon="3.82283">
        <ele>98</ele>
        <time>2021-01-03T12:23:56Z</time>
      </trkpt>
      <trkpt lat="43.6447" lon="3.82285">
        <ele>98</ele>
        <time>2021-01-03T12:23:57Z</time>
      </trkpt>
      <trkpt lat="43.64474" lon="3.82285">
        <ele>98</ele>
        <time>2021-01-03T12:23:58Z</time>
      </trkpt>
      <trkpt lat="43.64478" lon="3.82285">
        <ele>98.1</ele>
        <time>2021-01-03T12:23:59Z</time>
      </trkpt>
      <trkpt lat="43.64481" lon="3.82285">
        <ele>98.2</ele>
        <time>2021-01-03T12:24:00Z</time>
      </trkpt>
      <trkpt lat="43.64485" lon="3.82285">
        <ele>98.2</ele>
        <time>2021-01-03T12:24:01Z</time>
      </trkpt>
      <trkpt lat="43.64489" lon="3.82287">
        <ele>98.4</ele>
        <time>2021-01-03T12:24:02Z</time>
      </trkpt>
      <trkpt lat="43.64494" lon="3.82289">
        <ele>98.6</ele>
        <time>2021-01-03T12:24:03Z</time>
      </trkpt>
      <trkpt lat="43.64497" lon="3.82291">
        <ele>98.8</ele>
        <time>2021-01-03T12:24:04Z</time>
      </trkpt>
      <trkpt lat="43.64501" lon="3.82294">
        <ele>101</ele>
        <time>2021-01-03T12:24:05Z</time>
      </trkpt>
      <trkpt lat="43.64503" lon="3.82297">
        <ele>99.6</ele>
        <time>2021-01-03T12:24:06Z</time>
      </trkpt>
      <trkpt lat="43.64505" lon="3.82299">
        <ele>99.9</ele>
        <time>2021-01-03T12:24:07Z</time>
      </trkpt>
      <trkpt lat="43.64507" lon="3.823">
        <ele>100.1</ele>
        <time>2021-01-03T12:24:08Z</time>
      </trkpt>
      <trkpt lat="43.64509" lon="3.82301">
        <ele>100.2</ele>
        <time>2021-01-03T12:24:09Z</time>
      </trkpt>
      <trkpt lat="43.64513" lon="3.82303">
        <ele>100.5</ele>
        <time>2021-01-03T12:24:10Z</time>
      </trkpt>
      <trkpt lat="43.64516" lon="3.82304">
        <ele>100.6</ele>
        <time>2021-01-03T12:24:11Z</time>
      </trkpt>
      <trkpt lat="43.64519" lon="3.82305">
        <ele>100.7</ele>
        <time>2021-01-03T12:24:12Z</time>
      </trkpt>
      <trkpt lat="43.64523" lon="3.82306">
        <ele>100.8</ele>
        <time>2021-01-03T12:24:13Z</time>
      </trkpt>
      <trkpt lat="43.64526" lon="3.82306">
        <ele>100.9</ele>
        <time>2021-01-03T12:24:14Z</time>
      </trkpt>
      <trkpt lat="43.64529" lon="3.82307">
        <ele>102</ele>
        <time>2021-01-03T12:24:15Z</time>
      </trkpt>
      <trkpt lat="43.64533" lon="3.82308">
        <ele>101.1</ele>
        <time>2021-01-03T12:24:16Z</time>
      </trkpt>
      <trkpt lat="43.64536" lon="3.82309">
        <ele>101.1</ele>
        <time>2021-01-03T12:24:17Z</time>
      </trkpt>
      <trkpt lat="43.64539" lon="3.8231">
        <ele>101.2</ele>
        <time>2021-01-03T12:24:18Z</time>
      </trkpt>
      <trkpt lat="43.64543" lon="3.8231">
        <ele>101.3</ele>
        <time>2021-01-03T12:24:19Z</time>
      </trkpt>
      <trkpt lat="43.64546" lon="3.8231">
        <ele>101.4</ele>
        <time>2021-01-03T12:24:20Z</time>
      </trkpt>
      <trkpt lat="43.6455" lon="3.82311">
        <ele>101.4</ele>
        <time>2021-01-03T12:24:21Z</time>
      </trkpt>
      <trkpt lat="43.64553" lon="3.82311">
        <ele>101.5</ele>
        <time>2021-01-03T12:24:22Z</time>
      </trkpt>
      <trkpt lat="43.64556" lon="3.82312">
        <ele>101.5</ele>
        <time>2021-01-03T12:24:23Z</time>
      </trkpt>
      <trkpt lat="43.6456" lon="3.82313">
        <ele>101.5</ele>
        <time>2021-01-03T12:24:24Z</time>
      </trkpt>
      <trkpt lat="43.64563" lon="3.82315">
        <ele>103</ele>
        <time>2021-01-03T12:24:25Z</time>
      </trkpt>
      <trkpt lat="43.64567" lon="3.82316">
        <ele>101.2</ele>
        <time>2021-01-03T12:24:26Z</time>
      </trkpt>
      <trkpt lat="43.6457" lon="3.82318">
        <ele>101.1</ele>
        <time>2021-01-03T12:24:27Z</time>
      </trkpt>
      <trkpt lat="43.64573" lon="3.8232">
        <ele>101</ele>
        <time>2021-01-03T12:24:28Z</time>
      </trkpt>
      <trkpt lat="43.64577" lon="3.82322">
        <ele>100.8</ele>
        <time>2021-01-03T12:24:29Z</time>
      </trkpt>
      <trkpt lat="43.6458" lon="3.82325">
        <ele>100.6</ele>
        <time>2021-01-03T12:24:30Z</time>
      </trkpt>
      <trkpt lat="43.64583" lon="3.82328">
        <ele>100.4</ele>
        <time>2021-01-03T12:24:31Z</time>
      </trkpt>
      <trkpt lat="43.64587" lon="3.82331">
        <ele>100.2</ele>
        <time>2021-01-03T12:24:32Z</time>
      </trkpt>
      <trkpt lat="43.6459" lon="3.82334">
        <ele>100</ele>
        <time>2021-01-03T12:24:33Z</time>
      </trkpt>
      <trkpt lat="43.64594" lon="3.82337">
        <ele>100</ele>
        <time>2021-01-03T12:24:34Z</time>
      </trkpt>
      <trkpt lat="43.64598" lon="3.82341">
        <ele>102</ele>
        <time>2021-01-03T12:24:35Z</time>
      </trkpt>
      <trkpt lat="43.64602" lon="3.82344">
        <ele>100</ele>
        <time>2021-01-03T12:24:36Z</time>
      </trkpt>
      <trkpt lat="43.64606" lon="3.82347">
        <ele>100</ele>
        <time>2021-01-03T12:24:37Z</time>
      </trkpt>
      <trkpt lat="43.6461" lon="3.8235">
        <ele>100</ele>
        <time>2021-01-03T12:24:38Z</time>
      </trkpt>
      <trkpt lat="43.64614" lon="3.82353">
        <ele>99.9</ele>
        <time>2021-01-03T12:24:39Z</time>
      </trkpt>
      <trkpt lat="43.64618" lon="3.82356">
        <ele>99.9</ele>
        <time>2021-01-03T12:24:40Z</time>
      </trkpt>
      <trkpt lat="43.64621" lon="3.8236">
        <ele>100</ele>
        <time>2021-01-03T12:24:41Z</time>
      </trkpt>
      <trkpt lat="43.64625" lon="3.82363">
        <ele>100</ele>
        <time>2021-01-03T12:24:42Z</time>
      </trkpt>
      <trkpt lat="43.64628" lon="3.82366">
        <ele>100</ele>
        <time>2021-01-03T12:24:43Z</time>
      </trkpt>
      <trkpt lat="43.64631" lon="3.82368">
        <ele>100</ele>
        <time>2021-01-03T12:24:44Z</time>
      </trkpt>
      <trkpt lat="43.64634" lon="3.82371">
        <ele>102</ele>
        <time>2021-01-03T12:24:45Z</time>
      </trkpt>
      <trkpt lat="43.64638" lon="3.82373">
        <ele>100</ele>
        <time>2021-01-03T12:24:46Z</time>
      </trkpt>
      <trkpt lat="43.64642" lon="3.82375">
        <ele>100</ele>
        <time>2021-01-03T12:24:47Z</time>
      </trkpt>
      <trkpt lat="43.64645" lon="3.82377">
        <ele>100</ele>
        <time>2021-01-03T12:24:48Z</time>
      </trkpt>
      <trkpt lat="43.64649" lon="3.8238">
        <ele>100</ele>
        <time>2021-01-03T12:24:49Z</time>
      </trkpt>
      <trkpt lat="43.64653" lon="3.82382">
        <ele>100</ele>
        <time>2021-01-03T12:24:50Z</time>
      </trkpt>
      <trkpt lat="43.64656" lon="3.82384">
        <ele>100</ele>
        <time>2021-01-03T12:24:51Z</time>
      </trkpt>
      <trkpt lat="43.6466" lon="3.82387">
        <ele>100</ele>
        <time>2021-01-03T12:24:52Z</time>
      </trkpt>
      <trkpt lat="43.64663" lon="3.82389">
        <ele>100</ele>
        <time>2021-01-03T12:24:53Z</time>
      </trkpt>
      <trkpt lat="43.64665" lon="3.82392">
        <ele>100.1</ele>
        <time>2021-01-03T12:24:54Z</time>
      </trkpt>
      <trkpt lat="43.64668" lon="3.82394">
        <ele>102</ele>
        <time>2021-01-03T12:24:55Z</time>
      </trkpt>
      <trkpt lat="43.64671" lon="3.82396">
        <ele>100.4</ele>
        <time>2021-01-03T12:24:56Z</time>
      </trkpt>
      <trkpt lat="43.64674" lon="3.82398">
        <ele>100.5</ele>
        <time>2021-01-03T12:24:57Z</time>
      </trkpt>
      <trkpt lat="43.64677" lon="3.824">
        <ele>100.6</ele>
        <time>2021-01-03T12:24:58Z</time>
      </trkpt>
      <trkpt lat="43.64679" lon="3.82402">
        <ele>100.7</ele>
        <time>2021-01-03T12:24:59Z</time>
      </trkpt>
      <trkpt lat="43.64682" lon="3.82403">
        <ele>100.8</ele>
        <time>2021-01-03T12:25:00Z</time>
      </trkpt>
      <trkpt lat="43.64685" lon="3.82405">
        <ele>100.9</ele>
        <time>2021-01-03T12:25:01Z</time>
      </trkpt>
      <trkpt lat="43.64687" lon="3.82407">
        <ele>100.9</ele>
        <time>2021-01-03T12:25:02Z</time>
      </trkpt>
      <trkpt lat="43.6469" lon="3.82409">
        <ele>101</ele>
        <time>2021-01-03T12:25:03Z</time>
      </trkpt>
      <trkpt lat="43.64693" lon="3.82411">
        <ele>101</ele>
        <time>2021-01-03T12:25:04Z</time>
      </trkpt>
      <trkpt lat="43.64696" lon="3.82413">
        <ele>102</ele>
        <time>2021-01-03T12:25:05Z</time>
      </trkpt>
      <trkpt lat="43.64699" lon="3.82414">
        <ele>101</ele>
        <time>2021-01-03T12:25:06Z</time>
      </trkpt>
      <trkpt lat="43.64702" lon="3.82416">
        <ele>101</ele>
        <time>2021-01-03T12:25:07Z</time>
      </trkpt>
      <trkpt lat="43.64705" lon="3.82418">
        <ele>101</ele>
        <time>2021-01-03T12:25:08Z</time>
      </trkpt>
      <trkpt lat="43.64708" lon="3.8242">
        <ele>101.1</ele>
        <time>2021-01-03T12:25:09Z</time>
      </trkpt>
      <trkpt lat="43.64711" lon="3.82422">
        <ele>101.1</ele>
        <time>2021-01-03T12:25:10Z</time>
      </trkpt>
      <trkpt lat="43.64714" lon="3.82424">
        <ele>101.2</ele>
        <time>2021-01-03T12:25:11Z</time>
      </trkpt>
      <trkpt lat="43.64717" lon="3.82425">
        <ele>101.2</ele>
        <time>2021-01-03T12:25:12Z</time>
      </trkpt>
      <trkpt lat="43.6472" lon="3.82427">
        <ele>101.3</ele>
        <time>2021-01-03T12:25:13Z</time>
      </trkpt>
      <trkpt lat="43.64723" lon="3.82428">
        <ele>101.4</ele>
        <time>2021-01-03T12:25:14Z</time>
      </trkpt>
      <trkpt lat="43.64727" lon="3.82429">
        <ele>103</ele>
        <time>2021-01-03T12:25:15Z</time>
      </trkpt>
      <trkpt lat="43.6473" lon="3.8243">
        <ele>101.8</ele>
        <time>2021-01-03T12:25:16Z</time>
      </trkpt>
      <trkpt lat="43.64733" lon="3.8243">
        <ele>101.9</ele>
        <time>2021-01-03T12:25:17Z</time>
      </trkpt>
      <trkpt lat="43.64737" lon="3.82431">
        <ele>102</ele>
        <time>2021-01-03T12:25:18Z</time>
      </trkpt>
      <trkpt lat="43.6474" lon="3.82431">
        <ele>102.2</ele>
        <time>2021-01-03T12:25:19Z</time>
      </trkpt>
      <trkpt lat="43.64744" lon="3.82432">
        <ele>102.3</ele>
        <time>2021-01-03T12:25:20Z</time>
      </trkpt>
      <trkpt lat="43.64747" lon="3.82432">
        <ele>102.4</ele>
        <time>2021-01-03T12:25:21Z</time>
      </trkpt>
      <trkpt lat="43.6475" lon="3.82432">
        <ele>102.6</ele>
        <time>2021-01-03T12:25:22Z</time>
      </trkpt>
      <trkpt lat="43.64753" lon="3.82432">
        <ele>102.7</ele>
        <time>2021-01-03T12:25:23Z</time>
      </trkpt>
      <trkpt lat="43.64757" lon="3.82432">
        <ele>102.8</ele>
        <time>2021-01-03T12:25:24Z</time>
      </trkpt>
      <trkpt lat="43.6476" lon="3.82431">
        <ele>103</ele>
        <time>2021-01-03T12:25:25Z</time>
      </trkpt>
      <trkpt lat="43.64763" lon="3.8243">
        <ele>102.9</ele>
        <time>2021-01-03T12:25:26Z</time>
      </trkpt>
      <trkpt lat="43.64766" lon="3.82429">
        <ele>103</ele>
        <time>2021-01-03T12:25:27Z</time>
      </trkpt>
      <trkpt lat="43.64769" lon="3.82428">
        <ele>103.1</ele>
        <time>2021-01-03T12:25:28Z</time>
      </trkpt>
      <trkpt lat="43.64772" lon="3.82428">
        <ele>103.2</ele>
        <time>2021-01-03T12:25:29Z</time>
      </trkpt>
      <trkpt lat="43.64775" lon="3.82428">
        <ele>103.3</ele>
        <time>2021-01-03T12:25:30Z</time>
      </trkpt>
      <trkpt lat="43.64778" lon="3.82427">
        <ele>103.4</ele>
        <time>2021-01-03T12:25:31Z</time>
      </trkpt>
      <trkpt lat="43.64781" lon="3.82427">
        <ele>103.6</ele>
        <time>2021-01-03T12:25:32Z</time>
      </trkpt>
      <trkpt lat="43.64784" lon="3.82426">
        <ele>103.7</ele>
        <time>2021-01-03T12:25:33Z</time>
      </trkpt>
      <trkpt lat="43.64786" lon="3.82426">
        <ele>103.8</ele>
        <time>2021-01-03T12:25:34Z</time>
      </trkpt>
      <trkpt lat="43.64789" lon="3.82425">
        <ele>104</ele>
        <time>2021-01-03T12:25:35Z</time>
      </trkpt>
      <trkpt lat="43.64791" lon="3.82425">
        <ele>104.1</ele>
        <time>2021-01-03T12:25:36Z</time>
      </trkpt>
      <trkpt lat="43.64793" lon="3.82424">
        <ele>104.2</ele>
        <time>2021-01-03T12:25:37Z</time>
      </trkpt>
      <trkpt lat="43.64795" lon="3.82424">
        <ele>104.3</ele>
        <time>2021-01-03T12:25:38Z</time>
      </trkpt>
      <trkpt lat="43.64797" lon="3.82423">
        <ele>104.5</ele>
        <time>2021-01-03T12:25:39Z</time>
      </trkpt>
      <trkpt lat="43.64799" lon="3.82423">
        <ele>104.6</ele>
        <time>2021-01-03T12:25:40Z</time>
      </trkpt>
      <trkpt lat="43.64801" lon="3.82423">
        <ele>104.7</ele>
        <time>2021-01-03T12:25:41Z</time>
      </trkpt>
      <trkpt lat="43.64804" lon="3.82422">
        <ele>104.9</ele>
        <time>2021-01-03T12:25:42Z</time>
      </trkpt>
      <trkpt lat="43.64806" lon="3.82422">
        <ele>105</ele>
        <time>2021-01-03T12:25:43Z</time>
      </trkpt>
      <trkpt lat="43.64808" lon="3.82421">
        <ele>105</ele>
        <time>2021-01-03T12:25:44Z</time>
      </trkpt>
      <trkpt lat="43.6481" lon="3.82421">
        <ele>106</ele>
        <time>2021-01-03T12:25:45Z</time>
      </trkpt>
      <trkpt lat="43.64813" lon="3.82421">
        <ele>105</ele>
        <time>2021-01-03T12:25:46Z</time>
      </trkpt>
      <trkpt lat="43.64815" lon="3.8242">
        <ele>105</ele>
        <time>2021-01-03T12:25:47Z</time>
      </trkpt>
      <trkpt lat="43.64817" lon="3.8242">
        <ele>105</ele>
        <time>2021-01-03T12:25:48Z</time>
      </trkpt>
      <trkpt lat="43.64819" lon="3.82419">
        <ele>105</ele>
        <time>2021-01-03T12:25:49Z</time>
      </trkpt>
      <trkpt lat="43.64822" lon="3.82419">
        <ele>105</ele>
        <time>2021-01-03T12:25:50Z</time>
      </trkpt>
      <trkpt lat="43.64824" lon="3.82419">
        <ele>105.1</ele>
        <time>2021-01-03T12:25:51Z</time>
      </trkpt>
      <trkpt lat="43.64826" lon="3.82418">
        <ele>105</ele>
        <time>2021-01-03T12:25:52Z</time>
      </trkpt>
      <trkpt lat="43.64829" lon="3.82418">
        <ele>105</ele>
        <time>2021-01-03T12:25:53Z</time>
      </trkpt>
      <trkpt lat="43.64831" lon="3.82418">
        <ele>105</ele>
        <time>2021-01-03T12:25:54Z</time>
      </trkpt>
      <trkpt lat="43.64833" lon="3.82417">
        <ele>107</ele>
        <time>2021-01-03T12:25:55Z</time>
      </trkpt>
      <trkpt lat="43.64836" lon="3.82417">
        <ele>105.2</ele>
        <time>2021-01-03T12:25:56Z</time>
      </trkpt>
      <trkpt lat="43.64838" lon="3.82416">
        <ele>105.4</ele>
        <time>2021-01-03T12:25:57Z</time>
      </trkpt>
      <trkpt lat="43.6484" lon="3.82416">
        <ele>105.5</ele>
        <time>2021-01-03T12:25:58Z</time>
      </trkpt>
      <trkpt lat="43.64843" lon="3.82416">
        <ele>105.7</ele>
        <time>2021-01-03T12:25:59Z</time>
      </trkpt>
      <trkpt lat="43.64845" lon="3.82415">
        <ele>105.8</ele>
        <time>2021-01-03T12:26:00Z</time>
      </trkpt>
      <trkpt lat="43.64847" lon="3.82415">
        <ele>106</ele>
        <time>2021-01-03T12:26:01Z</time>
      </trkpt>
      <trkpt lat="43.6485" lon="3.82414">
        <ele>106.2</ele>
        <time>2021-01-03T12:26:02Z</time>
      </trkpt>
      <trkpt lat="43.64852" lon="3.82414">
        <ele>106.3</ele>
        <time>2021-01-03T12:26:03Z</time>
      </trkpt>
      <trkpt lat="43.64854" lon="3.82413">
        <ele>106.4</ele>
        <time>2021-01-03T12:26:04Z</time>
      </trkpt>
      <trkpt lat="43.64857" lon="3.82413">
        <ele>108</ele>
        <time>2021-01-03T12:26:05Z</time>
      </trkpt>
      <trkpt lat="43.64859" lon="3.82413">
        <ele>106.7</ele>
        <time>2021-01-03T12:26:06Z</time>
      </trkpt>
      <trkpt lat="43.64861" lon="3.82413">
        <ele>106.9</ele>
        <time>2021-01-03T12:26:07Z</time>
      </trkpt>
      <trkpt lat="43.64864" lon="3.82414">
        <ele>106.9</ele>
        <time>2021-01-03T12:26:08Z</time>
      </trkpt>
      <trkpt lat="43.64866" lon="3.82414">
        <ele>106.9</ele>
        <time>2021-01-03T12:26:09Z</time>
      </trkpt>
      <trkpt lat="43.64868" lon="3.82416">
        <ele>107</ele>
        <time>2021-01-03T12:26:10Z</time>
      </trkpt>
      <trkpt lat="43.64871" lon="3.82417">
        <ele>107</ele>
        <time>2021-01-03T12:26:11Z</time>
      </trkpt>
      <trkpt lat="43.64873" lon="3.82419">
        <ele>107.1</ele>
        <time>2021-01-03T12:26:12Z</time>
      </trkpt>
      <trkpt lat="43.64875" lon="3.82421">
        <ele>107.2</ele>
        <time>2021-01-03T12:26:13Z</time>
      </trkpt>
      <trkpt lat="43.64877" lon="3.82423">
        <ele>107.4</ele>
        <time>2021-01-03T12:26:14Z</time>
      </trkpt>
      <trkpt lat="43.64878" lon="3.82425">
        <ele>109</ele>
        <time>2021-01-03T12:26:15Z</time>
      </trkpt>
      <trkpt lat="43.6488" lon="3.82427">
        <ele>107.6</ele>
        <time>2021-01-03T12:26:16Z</time>
      </trkpt>
      <trkpt lat="43.64881" lon="3.82429">
        <ele>107.8</ele>
        <time>2021-01-03T12:26:17Z</time>
      </trkpt>
      <trkpt lat="43.64883" lon="3.82431">
        <ele>107.9</ele>
        <time>2021-01-03T12:26:18Z</time>
      </trkpt>
      <trkpt lat="43.64884" lon="3.82433">
        <ele>108.1</ele>
        <time>2021-01-03T12:26:19Z</time>
      </trkpt>
      <trkpt lat="43.64885" lon="3.82435">
        <ele>108.2</ele>
        <time>2021-01-03T12:26:20Z</time>
      </trkpt>
      <trkpt lat="43.64887" lon="3.82437">
        <ele>108.4</ele>
        <time>2021-01-03T12:26:21Z</time>
      </trkpt>
      <trkpt lat="43.64888" lon="3.82439">
        <ele>108.6</ele>
        <time>2021-01-03T12:26:22Z</time>
      </trkpt>
      <trkpt lat="43.64889" lon="3.82441">
        <ele>108.8</ele>
        <time>2021-01-03T12:26:23Z</time>
      </trkpt>
      <trkpt lat="43.64891" lon="3.82443">
        <ele>108.9</ele>
        <time>2021-01-03T12:26:24Z</time>
      </trkpt>
      <trkpt lat="43.64893" lon="3.82445">
        <ele>110</ele>
        <time>2021-01-03T12:26:25Z</time>
      </trkpt>
      <trkpt lat="43.64894" lon="3.82447">
        <ele>109.1</ele>
        <time>2021-01-03T12:26:26Z</time>
      </trkpt>
      <trkpt lat="43.64896" lon="3.82449">
        <ele>109.2</ele>
        <time>2021-01-03T12:26:27Z</time>
      </trkpt>
      <trkpt lat="43.64897" lon="3.82451">
        <ele>109.2</ele>
        <time>2021-01-03T12:26:28Z</time>
      </trkpt>
      <trkpt lat="43.64899" lon="3.82453">
        <ele>109.3</ele>
        <time>2021-01-03T12:26:29Z</time>
      </trkpt>
      <trkpt lat="43.649" lon="3.82455">
        <ele>109.4</ele>
        <time>2021-01-03T12:26:30Z</time>
      </trkpt>
      <trkpt lat="43.64902" lon="3.82457">
        <ele>109.5</ele>
        <time>2021-01-03T12:26:31Z</time>
      </trkpt>
      <trkpt lat="43.64904" lon="3.82459">
        <ele>109.5</ele>
        <time>2021-01-03T12:26:32Z</time>
      </trkpt>
      <trkpt lat="43.64906" lon="3.8246">
        <ele>109.6</ele>
        <time>2021-01-03T12:26:33Z</time>
      </trkpt>
      <trkpt lat="43.64908" lon="3.82461">
        <ele>109.6</ele>
        <time>2021-01-03T12:26:34Z</time>
      </trkpt>
      <trkpt lat="43.6491" lon="3.82462">
        <ele>110</ele>
        <time>2021-01-03T12:26:35Z</time>
      </trkpt>
      <trkpt lat="43.64912" lon="3.82462">
        <ele>109.6</ele>
        <time>2021-01-03T12:26:36Z</time>
      </trkpt>
      <trkpt lat="43.64914" lon="3.82463">
        <ele>109.7</ele>
        <time>2021-01-03T12:26:37Z</time>
      </trkpt>
      <trkpt lat="43.64917" lon="3.82463">
        <ele>109.7</ele>
        <time>2021-01-03T12:26:38Z</time>
      </trkpt>
      <trkpt lat="43.64918" lon="3.82463">
        <ele>109.7</ele>
        <time>2021-01-03T12:26:39Z</time>
      </trkpt>
      <trkpt lat="43.6492" lon="3.82463">
        <ele>109.8</ele>
        <time>2021-01-03T12:26:40Z</time>
      </trkpt>
      <trkpt lat="43.64922" lon="3.82462">
        <ele>109.8</ele>
        <time>2021-01-03T12:26:41Z</time>
      </trkpt>
      <trkpt lat="43.64924" lon="3.82461">
        <ele>109.9</ele>
        <time>2021-01-03T12:26:42Z</time>
      </trkpt>
      <trkpt lat="43.64926" lon="3.8246">
        <ele>109.9</ele>
        <time>2021-01-03T12:26:43Z</time>
      </trkpt>
      <trkpt lat="43.64927" lon="3.82457">
        <ele>109.8</ele>
        <time>2021-01-03T12:26:44Z</time>
      </trkpt>
      <trkpt lat="43.64929" lon="3.82455">
        <ele>109.8</ele>
        <time>2021-01-03T12:26:45Z</time>
      </trkpt>
      <trkpt lat="43.64933" lon="3.82451">
        <ele>111</ele>
        <time>2021-01-03T12:26:46Z</time>
      </trkpt>
      <trkpt lat="43.64936" lon="3.8245">
        <ele>109.9</ele>
        <time>2021-01-03T12:26:47Z</time>
      </trkpt>
      <trkpt lat="43.64937" lon="3.82448">
        <ele>109.9</ele>
        <time>2021-01-03T12:26:48Z</time>
      </trkpt>
      <trkpt lat="43.64939" lon="3.82446">
        <ele>109.9</ele>
        <time>2021-01-03T12:26:49Z</time>
      </trkpt>
      <trkpt lat="43.64939" lon="3.82444">
        <ele>109.8</ele>
        <time>2021-01-03T12:26:50Z</time>
      </trkpt>
      <trkpt lat="43.6494" lon="3.8244">
        <ele>109.4</ele>
        <time>2021-01-03T12:26:51Z</time>
      </trkpt>
      <trkpt lat="43.64939" lon="3.82436">
        <ele>108.9</ele>
        <time>2021-01-03T12:26:52Z</time>
      </trkpt>
      <trkpt lat="43.64938" lon="3.82431">
        <ele>108.3</ele>
        <time>2021-01-03T12:26:53Z</time>
      </trkpt>
      <trkpt lat="43.64936" lon="3.82425">
        <ele>107.6</ele>
        <time>2021-01-03T12:26:54Z</time>
      </trkpt>
      <trkpt lat="43.64934" lon="3.8242">
        <ele>107</ele>
        <time>2021-01-03T12:26:56Z</time>
      </trkpt>
      <trkpt lat="43.64932" lon="3.82414">
        <ele>106.1</ele>
        <time>2021-01-03T12:26:57Z</time>
      </trkpt>
      <trkpt lat="43.64931" lon="3.82409">
        <ele>105.3</ele>
        <time>2021-01-03T12:26:58Z</time>
      </trkpt>
      <trkpt lat="43.64929" lon="3.82404">
        <ele>104.3</ele>
        <time>2021-01-03T12:26:59Z</time>
      </trkpt>
      <trkpt lat="43.64927" lon="3.82399">
        <ele>103.3</ele>
        <time>2021-01-03T12:27:00Z</time>
      </trkpt>
      <trkpt lat="43.64925" lon="3.82394">
        <ele>102.1</ele>
        <time>2021-01-03T12:27:01Z</time>
      </trkpt>
      <trkpt lat="43.64923" lon="3.82388">
        <ele>100.8</ele>
        <time>2021-01-03T12:27:02Z</time>
      </trkpt>
      <trkpt lat="43.64921" lon="3.82383">
        <ele>99.8</ele>
        <time>2021-01-03T12:27:03Z</time>
      </trkpt>
      <trkpt lat="43.6492" lon="3.82377">
        <ele>98.8</ele>
        <time>2021-01-03T12:27:04Z</time>
      </trkpt>
      <trkpt lat="43.64918" lon="3.82373">
        <ele>103</ele>
        <time>2021-01-03T12:27:05Z</time>
      </trkpt>
      <trkpt lat="43.64916" lon="3.82369">
        <ele>97.2</ele>
        <time>2021-01-03T12:27:06Z</time>
      </trkpt>
      <trkpt lat="43.64915" lon="3.82365">
        <ele>96.6</ele>
        <time>2021-01-03T12:27:07Z</time>
      </trkpt>
      <trkpt lat="43.64915" lon="3.82361">
        <ele>95.9</ele>
        <time>2021-01-03T12:27:08Z</time>
      </trkpt>
      <trkpt lat="43.64915" lon="3.82356">
        <ele>95</ele>
        <time>2021-01-03T12:27:09Z</time>
      </trkpt>
      <trkpt lat="43.64917" lon="3.82351">
        <ele>94.2</ele>
        <time>2021-01-03T12:27:10Z</time>
      </trkpt>
      <trkpt lat="43.64918" lon="3.82346">
        <ele>93.5</ele>
        <time>2021-01-03T12:27:11Z</time>
      </trkpt>
      <trkpt lat="43.64919" lon="3.82342">
        <ele>93</ele>
        <time>2021-01-03T12:27:12Z</time>
      </trkpt>
      <trkpt lat="43.64919" lon="3.82336">
        <ele>92</ele>
        <time>2021-01-03T12:27:13Z</time>
      </trkpt>
      <trkpt lat="43.6492" lon="3.8233">
        <ele>91.4</ele>
        <time>2021-01-03T12:27:14Z</time>
      </trkpt>
      <trkpt lat="43.64921" lon="3.82324">
        <ele>91.1</ele>
        <time>2021-01-03T12:27:15Z</time>
      </trkpt>
      <trkpt lat="43.64921" lon="3.82319">
        <ele>99</ele>
        <time>2021-01-03T12:27:16Z</time>
      </trkpt>
      <trkpt lat="43.6492" lon="3.82316">
        <ele>90.2</ele>
        <time>2021-01-03T12:27:17Z</time>
      </trkpt>
      <trkpt lat="43.64919" lon="3.82311">
        <ele>89.7</ele>
        <time>2021-01-03T12:27:18Z</time>
      </trkpt>
      <trkpt lat="43.6492" lon="3.82306">
        <ele>89.4</ele>
        <time>2021-01-03T12:27:19Z</time>
      </trkpt>
      <trkpt lat="43.64921" lon="3.82301">
        <ele>89.1</ele>
        <time>2021-01-03T12:27:20Z</time>
      </trkpt>
      <trkpt lat="43.64923" lon="3.82295">
        <ele>88.8</ele>
        <time>2021-01-03T12:27:21Z</time>
      </trkpt>
      <trkpt lat="43.64925" lon="3.8229">
        <ele>88.6</ele>
        <time>2021-01-03T12:27:22Z</time>
      </trkpt>
      <trkpt lat="43.64928" lon="3.82285">
        <ele>88.4</ele>
        <time>2021-01-03T12:27:23Z</time>
      </trkpt>
      <trkpt lat="43.64931" lon="3.82281">
        <ele>88.3</ele>
        <time>2021-01-03T12:27:24Z</time>
      </trkpt>
      <trkpt lat="43.64934" lon="3.82278">
        <ele>96</ele>
        <time>2021-01-03T12:27:25Z</time>
      </trkpt>
      <trkpt lat="43.64936" lon="3.82274">
        <ele>88.2</ele>
        <time>2021-01-03T12:27:26Z</time>
      </trkpt>
      <trkpt lat="43.64939" lon="3.82271">
        <ele>88.2</ele>
        <time>2021-01-03T12:27:27Z</time>
      </trkpt>
      <trkpt lat="43.64941" lon="3.8227">
        <ele>88.2</ele>
        <time>2021-01-03T12:27:28Z</time>
      </trkpt>
      <trkpt lat="43.64943" lon="3.8227">
        <ele>88.4</ele>
        <time>2021-01-03T12:27:29Z</time>
      </trkpt>
      <trkpt lat="43.64945" lon="3.82269">
        <ele>88.5</ele>
        <time>2021-01-03T12:27:30Z</time>
      </trkpt>
      <trkpt lat="43.64947" lon="3.82268">
        <ele>88.8</ele>
        <time>2021-01-03T12:27:31Z</time>
      </trkpt>
      <trkpt lat="43.6495" lon="3.82265">
        <ele>89</ele>
        <time>2021-01-03T12:27:32Z</time>
      </trkpt>
      <trkpt lat="43.64953" lon="3.82264">
        <ele>89.4</ele>
        <time>2021-01-03T12:27:33Z</time>
      </trkpt>
      <trkpt lat="43.64956" lon="3.82262">
        <ele>89.7</ele>
        <time>2021-01-03T12:27:34Z</time>
      </trkpt>
      <trkpt lat="43.64958" lon="3.8226">
        <ele>95</ele>
        <time>2021-01-03T12:27:35Z</time>
      </trkpt>
      <trkpt lat="43.64961" lon="3.82258">
        <ele>89.9</ele>
        <time>2021-01-03T12:27:36Z</time>
      </trkpt>
      <trkpt lat="43.64963" lon="3.82255">
        <ele>89.7</ele>
        <time>2021-01-03T12:27:37Z</time>
      </trkpt>
      <trkpt lat="43.64965" lon="3.82251">
        <ele>89.4</ele>
        <time>2021-01-03T12:27:38Z</time>
      </trkpt>
      <trkpt lat="43.64967" lon="3.82248">
        <ele>89.3</ele>
        <time>2021-01-03T12:27:39Z</time>
      </trkpt>
      <trkpt lat="43.64969" lon="3.82245">
        <ele>89.3</ele>
        <time>2021-01-03T12:27:40Z</time>
      </trkpt>
      <trkpt lat="43.64971" lon="3.82242">
        <ele>89.3</ele>
        <time>2021-01-03T12:27:41Z</time>
      </trkpt>
      <trkpt lat="43.64974" lon="3.8224">
        <ele>89.4</ele>
        <time>2021-01-03T12:27:42Z</time>
      </trkpt>
      <trkpt lat="43.64977" lon="3.82238">
        <ele>89.6</ele>
        <time>2021-01-03T12:27:43Z</time>
      </trkpt>
      <trkpt lat="43.64979" lon="3.82236">
        <ele>89.6</ele>
        <time>2021-01-03T12:27:44Z</time>
      </trkpt>
      <trkpt lat="43.64982" lon="3.82235">
        <ele>94</ele>
        <time>2021-01-03T12:27:45Z</time>
      </trkpt>
      <trkpt lat="43.64985" lon="3.82234">
        <ele>90</ele>
        <time>2021-01-03T12:27:46Z</time>
      </trkpt>
      <trkpt lat="43.64988" lon="3.82234">
        <ele>90.2</ele>
        <time>2021-01-03T12:27:47Z</time>
      </trkpt>
      <trkpt lat="43.6499" lon="3.82233">
        <ele>90.3</ele>
        <time>2021-01-03T12:27:48Z</time>
      </trkpt>
      <trkpt lat="43.64993" lon="3.82232">
        <ele>90.5</ele>
        <time>2021-01-03T12:27:49Z</time>
      </trkpt>
      <trkpt lat="43.64995" lon="3.82232">
        <ele>90.6</ele>
        <time>2021-01-03T12:27:50Z</time>
      </trkpt>
      <trkpt lat="43.64998" lon="3.82231">
        <ele>90.8</ele>
        <time>2021-01-03T12:27:51Z</time>
      </trkpt>
      <trkpt lat="43.65" lon="3.82229">
        <ele>90.7</ele>
        <time>2021-01-03T12:27:52Z</time>
      </trkpt>
      <trkpt lat="43.65003" lon="3.82228">
        <ele>90.7</ele>
        <time>2021-01-03T12:27:53Z</time>
      </trkpt>
      <trkpt lat="43.65006" lon="3.82227">
        <ele>90.6</ele>
        <time>2021-01-03T12:27:54Z</time>
      </trkpt>
      <trkpt lat="43.65008" lon="3.82227">
        <ele>94</ele>
        <time>2021-01-03T12:27:55Z</time>
      </trkpt>
      <trkpt lat="43.6501" lon="3.82228">
        <ele>90.8</ele>
        <time>2021-01-03T12:27:56Z</time>
      </trkpt>
      <trkpt lat="43.65012" lon="3.82228">
        <ele>90.8</ele>
        <time>2021-01-03T12:27:57Z</time>
      </trkpt>
      <trkpt lat="43.65014" lon="3.82227">
        <ele>90.7</ele>
        <time>2021-01-03T12:27:58Z</time>
      </trkpt>
      <trkpt lat="43.65016" lon="3.82226">
        <ele>90.6</ele>
        <time>2021-01-03T12:27:59Z</time>
      </trkpt>
      <trkpt lat="43.65019" lon="3.82225">
        <ele>90.4</ele>
        <time>2021-01-03T12:28:00Z</time>
      </trkpt>
      <trkpt lat="43.65022" lon="3.82223">
        <ele>90.1</ele>
        <time>2021-01-03T12:28:01Z</time>
      </trkpt>
      <trkpt lat="43.65025" lon="3.82223">
        <ele>90.1</ele>
        <time>2021-01-03T12:28:02Z</time>
      </trkpt>
      <trkpt lat="43.65028" lon="3.82223">
        <ele>90.1</ele>
        <time>2021-01-03T12:28:03Z</time>
      </trkpt>
      <trkpt lat="43.65031" lon="3.82222">
        <ele>90</ele>
        <time>2021-01-03T12:28:04Z</time>
      </trkpt>
      <trkpt lat="43.65034" lon="3.82222">
        <ele>90</ele>
        <time>2021-01-03T12:28:05Z</time>
      </trkpt>
      <trkpt lat="43.65037" lon="3.82223">
        <ele>93</ele>
        <time>2021-01-03T12:28:06Z</time>
      </trkpt>
      <trkpt lat="43.6504" lon="3.82224">
        <ele>90.3</ele>
        <time>2021-01-03T12:28:07Z</time>
      </trkpt>
      <trkpt lat="43.65043" lon="3.82225">
        <ele>90.5</ele>
        <time>2021-01-03T12:28:08Z</time>
      </trkpt>
      <trkpt lat="43.65046" lon="3.82227">
        <ele>90.9</ele>
        <time>2021-01-03T12:28:09Z</time>
      </trkpt>
      <trkpt lat="43.65048" lon="3.82228">
        <ele>91</ele>
        <time>2021-01-03T12:28:10Z</time>
      </trkpt>
      <trkpt lat="43.6505" lon="3.8223">
        <ele>91.4</ele>
        <time>2021-01-03T12:28:11Z</time>
      </trkpt>
      <trkpt lat="43.65052" lon="3.82231">
        <ele>91.6</ele>
        <time>2021-01-03T12:28:12Z</time>
      </trkpt>
      <trkpt lat="43.65054" lon="3.82233">
        <ele>91.9</ele>
        <time>2021-01-03T12:28:13Z</time>
      </trkpt>
      <trkpt lat="43.65055" lon="3.82235">
        <ele>92.3</ele>
        <time>2021-01-03T12:28:14Z</time>
      </trkpt>
      <trkpt lat="43.65056" lon="3.82237">
        <ele>94</ele>
        <time>2021-01-03T12:28:15Z</time>
      </trkpt>
      <trkpt lat="43.65058" lon="3.8224">
        <ele>93.2</ele>
        <time>2021-01-03T12:28:17Z</time>
      </trkpt>
      <trkpt lat="43.6506" lon="3.82242">
        <ele>93.6</ele>
        <time>2021-01-03T12:28:19Z</time>
      </trkpt>
      <trkpt lat="43.65062" lon="3.82243">
        <ele>93.8</ele>
        <time>2021-01-03T12:28:21Z</time>
      </trkpt>
      <trkpt lat="43.65065" lon="3.82244">
        <ele>94</ele>
        <time>2021-01-03T12:28:23Z</time>
      </trkpt>
      <trkpt lat="43.65069" lon="3.82244">
        <ele>95</ele>
        <time>2021-01-03T12:28:25Z</time>
      </trkpt>
      <trkpt lat="43.65071" lon="3.82244">
        <ele>94</ele>
        <time>2021-01-03T12:28:26Z</time>
      </trkpt>
      <trkpt lat="43.65072" lon="3.82244">
        <ele>94</ele>
        <time>2021-01-03T12:28:27Z</time>
      </trkpt>
      <trkpt lat="43.65074" lon="3.82244">
        <ele>94.1</ele>
        <time>2021-01-03T12:28:28Z</time>
      </trkpt>
      <trkpt lat="43.65076" lon="3.82245">
        <ele>94.2</ele>
        <time>2021-01-03T12:28:29Z</time>
      </trkpt>
      <trkpt lat="43.65079" lon="3.82248">
        <ele>94.7</ele>
        <time>2021-01-03T12:28:31Z</time>
      </trkpt>
      <trkpt lat="43.65081" lon="3.82251">
        <ele>95.3</ele>
        <time>2021-01-03T12:28:33Z</time>
      </trkpt>
      <trkpt lat="43.65085" lon="3.82252">
        <ele>96</ele>
        <time>2021-01-03T12:28:35Z</time>
      </trkpt>
      <trkpt lat="43.65087" lon="3.82251">
        <ele>95.1</ele>
        <time>2021-01-03T12:28:36Z</time>
      </trkpt>
      <trkpt lat="43.6509" lon="3.82251">
        <ele>95</ele>
        <time>2021-01-03T12:28:37Z</time>
      </trkpt>
      <trkpt lat="43.65092" lon="3.82251">
        <ele>94.9</ele>
        <time>2021-01-03T12:28:38Z</time>
      </trkpt>
      <trkpt lat="43.65094" lon="3.82251">
        <ele>94.9</ele>
        <time>2021-01-03T12:28:39Z</time>
      </trkpt>
      <trkpt lat="43.65096" lon="3.82252">
        <ele>95</ele>
        <time>2021-01-03T12:28:40Z</time>
      </trkpt>
      <trkpt lat="43.65099" lon="3.82252">
        <ele>94.9</ele>
        <time>2021-01-03T12:28:41Z</time>
      </trkpt>
      <trkpt lat="43.65101" lon="3.82253">
        <ele>95</ele>
        <time>2021-01-03T12:28:42Z</time>
      </trkpt>
      <trkpt lat="43.65104" lon="3.82254">
        <ele>95.1</ele>
        <time>2021-01-03T12:28:43Z</time>
      </trkpt>
      <trkpt lat="43.65106" lon="3.82256">
        <ele>95.4</ele>
        <time>2021-01-03T12:28:44Z</time>
      </trkpt>
      <trkpt lat="43.65109" lon="3.82257">
        <ele>96</ele>
        <time>2021-01-03T12:28:45Z</time>
      </trkpt>
      <trkpt lat="43.65112" lon="3.82258">
        <ele>95.5</ele>
        <time>2021-01-03T12:28:46Z</time>
      </trkpt>
      <trkpt lat="43.65114" lon="3.82259">
        <ele>95.8</ele>
        <time>2021-01-03T12:28:47Z</time>
      </trkpt>
      <trkpt lat="43.65117" lon="3.82261">
        <ele>96.2</ele>
        <time>2021-01-03T12:28:48Z</time>
      </trkpt>
      <trkpt lat="43.65119" lon="3.82262">
        <ele>96.5</ele>
        <time>2021-01-03T12:28:49Z</time>
      </trkpt>
      <trkpt lat="43.65122" lon="3.82263">
        <ele>96.8</ele>
        <time>2021-01-03T12:28:50Z</time>
      </trkpt>
      <trkpt lat="43.65124" lon="3.82264">
        <ele>97</ele>
        <time>2021-01-03T12:28:51Z</time>
      </trkpt>
      <trkpt lat="43.65126" lon="3.82265">
        <ele>97.2</ele>
        <time>2021-01-03T12:28:52Z</time>
      </trkpt>
      <trkpt lat="43.65129" lon="3.82266">
        <ele>97.4</ele>
        <time>2021-01-03T12:28:53Z</time>
      </trkpt>
      <trkpt lat="43.6513" lon="3.82266">
        <ele>97.5</ele>
        <time>2021-01-03T12:28:54Z</time>
      </trkpt>
      <trkpt lat="43.65132" lon="3.82267">
        <ele>97</ele>
        <time>2021-01-03T12:28:55Z</time>
      </trkpt>
      <trkpt lat="43.65134" lon="3.82267">
        <ele>97.7</ele>
        <time>2021-01-03T12:28:56Z</time>
      </trkpt>
      <trkpt lat="43.65136" lon="3.82267">
        <ele>97.8</ele>
        <time>2021-01-03T12:28:57Z</time>
      </trkpt>
      <trkpt lat="43.65138" lon="3.82267">
        <ele>97.8</ele>
        <time>2021-01-03T12:28:58Z</time>
      </trkpt>
      <trkpt lat="43.65141" lon="3.82267">
        <ele>97.6</ele>
        <time>2021-01-03T12:28:59Z</time>
      </trkpt>
      <trkpt lat="43.65143" lon="3.82268">
        <ele>97.5</ele>
        <time>2021-01-03T12:29:00Z</time>
      </trkpt>
      <trkpt lat="43.65145" lon="3.82269">
        <ele>97.4</ele>
        <time>2021-01-03T12:29:01Z</time>
      </trkpt>
      <trkpt lat="43.65147" lon="3.82271">
        <ele>97.5</ele>
        <time>2021-01-03T12:29:02Z</time>
      </trkpt>
      <trkpt lat="43.65149" lon="3.82272">
        <ele>97.4</ele>
        <time>2021-01-03T12:29:03Z</time>
      </trkpt>
      <trkpt lat="43.6515" lon="3.82274">
        <ele>97.6</ele>
        <time>2021-01-03T12:29:04Z</time>
      </trkpt>
      <trkpt lat="43.65152" lon="3.82275">
        <ele>98</ele>
        <time>2021-01-03T12:29:05Z</time>
      </trkpt>
      <trkpt lat="43.65154" lon="3.82277">
        <ele>97.8</ele>
        <time>2021-01-03T12:29:06Z</time>
      </trkpt>
      <trkpt lat="43.65156" lon="3.82279">
        <ele>98</ele>
        <time>2021-01-03T12:29:07Z</time>
      </trkpt>
      <trkpt lat="43.65157" lon="3.8228">
        <ele>98.2</ele>
        <time>2021-01-03T12:29:08Z</time>
      </trkpt>
      <trkpt lat="43.65159" lon="3.82282">
        <ele>98.4</ele>
        <time>2021-01-03T12:29:09Z</time>
      </trkpt>
      <trkpt lat="43.65161" lon="3.82283">
        <ele>98.4</ele>
        <time>2021-01-03T12:29:10Z</time>
      </trkpt>
      <trkpt lat="43.65163" lon="3.82285">
        <ele>98.6</ele>
        <time>2021-01-03T12:29:11Z</time>
      </trkpt>
      <trkpt lat="43.65165" lon="3.82286">
        <ele>98.6</ele>
        <time>2021-01-03T12:29:12Z</time>
      </trkpt>
      <trkpt lat="43.65167" lon="3.82287">
        <ele>98.6</ele>
        <time>2021-01-03T12:29:13Z</time>
      </trkpt>
      <trkpt lat="43.65169" lon="3.82289">
        <ele>98.8</ele>
        <time>2021-01-03T12:29:14Z</time>
      </trkpt>
      <trkpt lat="43.65171" lon="3.8229">
        <ele>98.7</ele>
        <time>2021-01-03T12:29:15Z</time>
      </trkpt>
      <trkpt lat="43.65173" lon="3.82292">
        <ele>99</ele>
        <time>2021-01-03T12:29:16Z</time>
      </trkpt>
      <trkpt lat="43.65174" lon="3.82294">
        <ele>99.1</ele>
        <time>2021-01-03T12:29:17Z</time>
      </trkpt>
      <trkpt lat="43.65176" lon="3.82295">
        <ele>99.1</ele>
        <time>2021-01-03T12:29:18Z</time>
      </trkpt>
      <trkpt lat="43.65178" lon="3.82297">
        <ele>99.2</ele>
        <time>2021-01-03T12:29:19Z</time>
      </trkpt>
      <trkpt lat="43.6518" lon="3.82298">
        <ele>99.2</ele>
        <time>2021-01-03T12:29:20Z</time>
      </trkpt>
      <trkpt lat="43.65182" lon="3.82299">
        <ele>99.2</ele>
        <time>2021-01-03T12:29:21Z</time>
      </trkpt>
      <trkpt lat="43.65183" lon="3.823">
        <ele>99.2</ele>
        <time>2021-01-03T12:29:22Z</time>
      </trkpt>
      <trkpt lat="43.65185" lon="3.82301">
        <ele>99.2</ele>
        <time>2021-01-03T12:29:23Z</time>
      </trkpt>
      <trkpt lat="43.65188" lon="3.82303">
        <ele>99.2</ele>
        <time>2021-01-03T12:29:24Z</time>
      </trkpt>
      <trkpt lat="43.6519" lon="3.82304">
        <ele>100</ele>
        <time>2021-01-03T12:29:25Z</time>
      </trkpt>
      <trkpt lat="43.65193" lon="3.82306">
        <ele>99.2</ele>
        <time>2021-01-03T12:29:26Z</time>
      </trkpt>
      <trkpt lat="43.65195" lon="3.82307">
        <ele>99.2</ele>
        <time>2021-01-03T12:29:27Z</time>
      </trkpt>
      <trkpt lat="43.65198" lon="3.82309">
        <ele>99</ele>
        <time>2021-01-03T12:29:28Z</time>
      </trkpt>
      <trkpt lat="43.652" lon="3.82311">
        <ele>98.9</ele>
        <time>2021-01-03T12:29:29Z</time>
      </trkpt>
      <trkpt lat="43.65202" lon="3.82314">
        <ele>99.1</ele>
        <time>2021-01-03T12:29:30Z</time>
      </trkpt>
      <trkpt lat="43.65204" lon="3.82317">
        <ele>99.2</ele>
        <time>2021-01-03T12:29:31Z</time>
      </trkpt>
      <trkpt lat="43.65207" lon="3.8232">
        <ele>99.1</ele>
        <time>2021-01-03T12:29:32Z</time>
      </trkpt>
      <trkpt lat="43.65209" lon="3.82323">
        <ele>99.2</ele>
        <time>2021-01-03T12:29:33Z</time>
      </trkpt>
      <trkpt lat="43.65211" lon="3.82326">
        <ele>99.3</ele>
        <time>2021-01-03T12:29:34Z</time>
      </trkpt>
      <trkpt lat="43.65212" lon="3.82329">
        <ele>101</ele>
        <time>2021-01-03T12:29:35Z</time>
      </trkpt>
      <trkpt lat="43.65214" lon="3.82333">
        <ele>99.7</ele>
        <time>2021-01-03T12:29:36Z</time>
      </trkpt>
      <trkpt lat="43.65215" lon="3.82336">
        <ele>99.8</ele>
        <time>2021-01-03T12:29:37Z</time>
      </trkpt>
      <trkpt lat="43.65216" lon="3.8234">
        <ele>99.9</ele>
        <time>2021-01-03T12:29:38Z</time>
      </trkpt>
      <trkpt lat="43.65217" lon="3.82343">
        <ele>100</ele>
        <time>2021-01-03T12:29:39Z</time>
      </trkpt>
      <trkpt lat="43.65217" lon="3.82345">
        <ele>100.1</ele>
        <time>2021-01-03T12:29:40Z</time>
      </trkpt>
      <trkpt lat="43.65215" lon="3.82349">
        <ele>101</ele>
        <time>2021-01-03T12:29:42Z</time>
      </trkpt>
      <trkpt lat="43.65214" lon="3.82352">
        <ele>101.5</ele>
        <time>2021-01-03T12:29:44Z</time>
      </trkpt>
      <trkpt lat="43.65212" lon="3.82356">
        <ele>102.4</ele>
        <time>2021-01-03T12:29:46Z</time>
      </trkpt>
      <trkpt lat="43.65211" lon="3.8236">
        <ele>103.1</ele>
        <time>2021-01-03T12:29:48Z</time>
      </trkpt>
      <trkpt lat="43.65211" lon="3.82363">
        <ele>103.4</ele>
        <time>2021-01-03T12:29:50Z</time>
      </trkpt>
      <trkpt lat="43.65212" lon="3.82366">
        <ele>103.4</ele>
        <time>2021-01-03T12:29:52Z</time>
      </trkpt>
      <trkpt lat="43.65212" lon="3.82367">
        <ele>104</ele>
        <time>2021-01-03T12:29:59Z</time>
      </trkpt>
      <trkpt lat="43.65215" lon="3.8237">
        <ele>104</ele>
        <time>2021-01-03T12:30:04Z</time>
      </trkpt>
      <trkpt lat="43.65216" lon="3.82372">
        <ele>102.9</ele>
        <time>2021-01-03T12:30:06Z</time>
      </trkpt>
      <trkpt lat="43.65219" lon="3.82373">
        <ele>102.2</ele>
        <time>2021-01-03T12:30:09Z</time>
      </trkpt>
      <trkpt lat="43.65221" lon="3.82374">
        <ele>105</ele>
        <time>2021-01-03T12:30:13Z</time>
      </trkpt>
      <trkpt lat="43.65222" lon="3.82375">
        <ele>105</ele>
        <time>2021-01-03T12:30:18Z</time>
      </trkpt>
      <trkpt lat="43.65227" lon="3.82381">
        <ele>105</ele>
        <time>2021-01-03T12:30:26Z</time>
      </trkpt>
      <trkpt lat="43.65229" lon="3.82383">
        <ele>101.8</ele>
        <time>2021-01-03T12:30:27Z</time>
      </trkpt>
      <trkpt lat="43.65231" lon="3.82386">
        <ele>102</ele>
        <time>2021-01-03T12:30:28Z</time>
      </trkpt>
      <trkpt lat="43.65234" lon="3.82389">
        <ele>102.2</ele>
        <time>2021-01-03T12:30:29Z</time>
      </trkpt>
      <trkpt lat="43.65236" lon="3.82391">
        <ele>102.2</ele>
        <time>2021-01-03T12:30:30Z</time>
      </trkpt>
      <trkpt lat="43.65238" lon="3.82394">
        <ele>102.4</ele>
        <time>2021-01-03T12:30:31Z</time>
      </trkpt>
      <trkpt lat="43.65239" lon="3.82396">
        <ele>102.6</ele>
        <time>2021-01-03T12:30:32Z</time>
      </trkpt>
      <trkpt lat="43.65241" lon="3.82398">
        <ele>102.6</ele>
        <time>2021-01-03T12:30:33Z</time>
      </trkpt>
      <trkpt lat="43.65242" lon="3.82401">
        <ele>102.9</ele>
        <time>2021-01-03T12:30:34Z</time>
      </trkpt>
      <trkpt lat="43.65243" lon="3.82403">
        <ele>105</ele>
        <time>2021-01-03T12:30:35Z</time>
      </trkpt>
      <trkpt lat="43.65242" lon="3.82408">
        <ele>103.6</ele>
        <time>2021-01-03T12:30:37Z</time>
      </trkpt>
      <trkpt lat="43.65241" lon="3.8241">
        <ele>103.9</ele>
        <time>2021-01-03T12:30:38Z</time>
      </trkpt>
      <trkpt lat="43.65241" lon="3.82414">
        <ele>104.4</ele>
        <time>2021-01-03T12:30:40Z</time>
      </trkpt>
      <trkpt lat="43.65242" lon="3.82418">
        <ele>104.6</ele>
        <time>2021-01-03T12:30:42Z</time>
      </trkpt>
      <trkpt lat="43.65242" lon="3.82422">
        <ele>104.7</ele>
        <time>2021-01-03T12:30:44Z</time>
      </trkpt>
      <trkpt lat="43.6524" lon="3.82425">
        <ele>107</ele>
        <time>2021-01-03T12:30:46Z</time>
      </trkpt>
      <trkpt lat="43.65238" lon="3.82427">
        <ele>105.2</ele>
        <time>2021-01-03T12:30:47Z</time>
      </trkpt>
      <trkpt lat="43.65235" lon="3.82427">
        <ele>105.5</ele>
        <time>2021-01-03T12:30:49Z</time>
      </trkpt>
      <trkpt lat="43.65233" lon="3.82429">
        <ele>105.8</ele>
        <time>2021-01-03T12:30:51Z</time>
      </trkpt>
      <trkpt lat="43.6523" lon="3.8243">
        <ele>106.1</ele>
        <time>2021-01-03T12:30:53Z</time>
      </trkpt>
      <trkpt lat="43.65228" lon="3.82432">
        <ele>106.5</ele>
        <time>2021-01-03T12:30:56Z</time>
      </trkpt>
      <trkpt lat="43.65225" lon="3.82433">
        <ele>106.9</ele>
        <time>2021-01-03T12:30:58Z</time>
      </trkpt>
      <trkpt lat="43.65223" lon="3.82435">
        <ele>107.2</ele>
        <time>2021-01-03T12:31:00Z</time>
      </trkpt>
      <trkpt lat="43.6522" lon="3.82436">
        <ele>107.7</ele>
        <time>2021-01-03T12:31:02Z</time>
      </trkpt>
      <trkpt lat="43.65218" lon="3.82438">
        <ele>108.2</ele>
        <time>2021-01-03T12:31:04Z</time>
      </trkpt>
      <trkpt lat="43.65215" lon="3.82439">
        <ele>110</ele>
        <time>2021-01-03T12:31:05Z</time>
      </trkpt>
      <trkpt lat="43.65212" lon="3.8244">
        <ele>109.2</ele>
        <time>2021-01-03T12:31:07Z</time>
      </trkpt>
      <trkpt lat="43.6521" lon="3.82442">
        <ele>109.6</ele>
        <time>2021-01-03T12:31:09Z</time>
      </trkpt>
      <trkpt lat="43.65208" lon="3.82443">
        <ele>110</ele>
        <time>2021-01-03T12:31:11Z</time>
      </trkpt>
      <trkpt lat="43.65206" lon="3.82445">
        <ele>110.3</ele>
        <time>2021-01-03T12:31:13Z</time>
      </trkpt>
      <trkpt lat="43.65203" lon="3.82447">
        <ele>110.8</ele>
        <time>2021-01-03T12:31:16Z</time>
      </trkpt>
      <trkpt lat="43.65201" lon="3.82448">
        <ele>111.1</ele>
        <time>2021-01-03T12:31:18Z</time>
      </trkpt>
      <trkpt lat="43.65198" lon="3.82449">
        <ele>111.6</ele>
        <time>2021-01-03T12:31:20Z</time>
      </trkpt>
      <trkpt lat="43.65196" lon="3.8245">
        <ele>112</ele>
        <time>2021-01-03T12:31:22Z</time>
      </trkpt>
      <trkpt lat="43.65193" lon="3.8245">
        <ele>112.5</ele>
        <time>2021-01-03T12:31:24Z</time>
      </trkpt>
      <trkpt lat="43.65191" lon="3.82451">
        <ele>112.9</ele>
        <time>2021-01-03T12:31:26Z</time>
      </trkpt>
      <trkpt lat="43.65188" lon="3.82451">
        <ele>113.5</ele>
        <time>2021-01-03T12:31:28Z</time>
      </trkpt>
      <trkpt lat="43.65185" lon="3.82449">
        <ele>114.1</ele>
        <time>2021-01-03T12:31:30Z</time>
      </trkpt>
      <trkpt lat="43.65183" lon="3.82448">
        <ele>114.5</ele>
        <time>2021-01-03T12:31:32Z</time>
      </trkpt>
      <trkpt lat="43.65181" lon="3.82445">
        <ele>114.9</ele>
        <time>2021-01-03T12:31:34Z</time>
      </trkpt>
      <trkpt lat="43.6518" lon="3.82443">
        <ele>115.1</ele>
        <time>2021-01-03T12:31:36Z</time>
      </trkpt>
      <trkpt lat="43.65178" lon="3.8244">
        <ele>115.5</ele>
        <time>2021-01-03T12:31:38Z</time>
      </trkpt>
      <trkpt lat="43.65176" lon="3.82438">
        <ele>115.9</ele>
        <time>2021-01-03T12:31:40Z</time>
      </trkpt>
      <trkpt lat="43.65175" lon="3.82436">
        <ele>116.1</ele>
        <time>2021-01-03T12:31:42Z</time>
      </trkpt>
      <trkpt lat="43.65173" lon="3.82434">
        <ele>116.5</ele>
        <time>2021-01-03T12:31:44Z</time>
      </trkpt>
      <trkpt lat="43.6517" lon="3.82433">
        <ele>117.2</ele>
        <time>2021-01-03T12:31:46Z</time>
      </trkpt>
      <trkpt lat="43.65168" lon="3.82433">
        <ele>117.7</ele>
        <time>2021-01-03T12:31:48Z</time>
      </trkpt>
      <trkpt lat="43.65166" lon="3.82435">
        <ele>118.1</ele>
        <time>2021-01-03T12:31:50Z</time>
      </trkpt>
      <trkpt lat="43.65165" lon="3.82438">
        <ele>118.1</ele>
        <time>2021-01-03T12:31:52Z</time>
      </trkpt>
      <trkpt lat="43.65162" lon="3.8244">
        <ele>118.4</ele>
        <time>2021-01-03T12:31:54Z</time>
      </trkpt>
      <trkpt lat="43.6516" lon="3.82443">
        <ele>118.5</ele>
        <time>2021-01-03T12:31:56Z</time>
      </trkpt>
      <trkpt lat="43.65159" lon="3.82448">
        <ele>118.4</ele>
        <time>2021-01-03T12:31:58Z</time>
      </trkpt>
      <trkpt lat="43.65159" lon="3.82451">
        <ele>118.3</ele>
        <time>2021-01-03T12:31:59Z</time>
      </trkpt>
      <trkpt lat="43.65159" lon="3.82454">
        <ele>118.2</ele>
        <time>2021-01-03T12:32:00Z</time>
      </trkpt>
      <trkpt lat="43.65159" lon="3.82458">
        <ele>118.1</ele>
        <time>2021-01-03T12:32:01Z</time>
      </trkpt>
      <trkpt lat="43.65159" lon="3.82461">
        <ele>118</ele>
        <time>2021-01-03T12:32:02Z</time>
      </trkpt>
      <trkpt lat="43.65159" lon="3.82464">
        <ele>117.8</ele>
        <time>2021-01-03T12:32:03Z</time>
      </trkpt>
      <trkpt lat="43.65158" lon="3.82468">
        <ele>117.8</ele>
        <time>2021-01-03T12:32:04Z</time>
      </trkpt>
      <trkpt lat="43.65157" lon="3.82471">
        <ele>119</ele>
        <time>2021-01-03T12:32:05Z</time>
      </trkpt>
      <trkpt lat="43.65157" lon="3.82474">
        <ele>117.7</ele>
        <time>2021-01-03T12:32:06Z</time>
      </trkpt>
      <trkpt lat="43.65156" lon="3.82476">
        <ele>117.8</ele>
        <time>2021-01-03T12:32:07Z</time>
      </trkpt>
      <trkpt lat="43.65155" lon="3.82478">
        <ele>117.8</ele>
        <time>2021-01-03T12:32:08Z</time>
      </trkpt>
      <trkpt lat="43.65154" lon="3.82483">
        <ele>117.9</ele>
        <time>2021-01-03T12:32:10Z</time>
      </trkpt>
      <trkpt lat="43.65154" lon="3.82486">
        <ele>117.9</ele>
        <time>2021-01-03T12:32:11Z</time>
      </trkpt>
      <trkpt lat="43.65155" lon="3.82489">
        <ele>117.8</ele>
        <time>2021-01-03T12:32:12Z</time>
      </trkpt>
      <trkpt lat="43.65156" lon="3.82492">
        <ele>117.8</ele>
        <time>2021-01-03T12:32:13Z</time>
      </trkpt>
      <trkpt lat="43.65157" lon="3.82495">
        <ele>117.7</ele>
        <time>2021-01-03T12:32:14Z</time>
      </trkpt>
      <trkpt lat="43.65158" lon="3.82499">
        <ele>119</ele>
        <time>2021-01-03T12:32:15Z</time>
      </trkpt>
      <trkpt lat="43.65159" lon="3.82503">
        <ele>117.6</ele>
        <time>2021-01-03T12:32:16Z</time>
      </trkpt>
      <trkpt lat="43.6516" lon="3.82507">
        <ele>117.7</ele>
        <time>2021-01-03T12:32:17Z</time>
      </trkpt>
      <trkpt lat="43.65161" lon="3.82512">
        <ele>117.8</ele>
        <time>2021-01-03T12:32:18Z</time>
      </trkpt>
      <trkpt lat="43.65162" lon="3.82515">
        <ele>117.8</ele>
        <time>2021-01-03T12:32:19Z</time>
      </trkpt>
      <trkpt lat="43.65164" lon="3.82519">
        <ele>117.8</ele>
        <time>2021-01-03T12:32:20Z</time>
      </trkpt>
      <trkpt lat="43.65167" lon="3.82523">
        <ele>117.8</ele>
        <time>2021-01-03T12:32:21Z</time>
      </trkpt>
      <trkpt lat="43.6517" lon="3.82526">
        <ele>117.4</ele>
        <time>2021-01-03T12:32:22Z</time>
      </trkpt>
      <trkpt lat="43.65172" lon="3.82529">
        <ele>117.3</ele>
        <time>2021-01-03T12:32:23Z</time>
      </trkpt>
      <trkpt lat="43.65175" lon="3.82533">
        <ele>117.1</ele>
        <time>2021-01-03T12:32:24Z</time>
      </trkpt>
      <trkpt lat="43.65178" lon="3.82536">
        <ele>118</ele>
        <time>2021-01-03T12:32:25Z</time>
      </trkpt>
      <trkpt lat="43.6518" lon="3.8254">
        <ele>116.9</ele>
        <time>2021-01-03T12:32:26Z</time>
      </trkpt>
      <trkpt lat="43.65183" lon="3.82543">
        <ele>116.8</ele>
        <time>2021-01-03T12:32:27Z</time>
      </trkpt>
      <trkpt lat="43.65186" lon="3.82547">
        <ele>116.9</ele>
        <time>2021-01-03T12:32:28Z</time>
      </trkpt>
      <trkpt lat="43.65188" lon="3.82551">
        <ele>117</ele>
        <time>2021-01-03T12:32:29Z</time>
      </trkpt>
      <trkpt lat="43.65191" lon="3.82555">
        <ele>117.2</ele>
        <time>2021-01-03T12:32:30Z</time>
      </trkpt>
      <trkpt lat="43.65193" lon="3.82559">
        <ele>117.3</ele>
        <time>2021-01-03T12:32:31Z</time>
      </trkpt>
      <trkpt lat="43.65195" lon="3.82563">
        <ele>117.5</ele>
        <time>2021-01-03T12:32:32Z</time>
      </trkpt>
      <trkpt lat="43.65197" lon="3.82567">
        <ele>117.6</ele>
        <time>2021-01-03T12:32:33Z</time>
      </trkpt>
      <trkpt lat="43.65199" lon="3.8257">
        <ele>117.6</ele>
        <time>2021-01-03T12:32:34Z</time>
      </trkpt>
      <trkpt lat="43.65201" lon="3.82573">
        <ele>119</ele>
        <time>2021-01-03T12:32:35Z</time>
      </trkpt>
      <trkpt lat="43.65203" lon="3.82576">
        <ele>117.8</ele>
        <time>2021-01-03T12:32:36Z</time>
      </trkpt>
      <trkpt lat="43.65205" lon="3.82579">
        <ele>117.9</ele>
        <time>2021-01-03T12:32:37Z</time>
      </trkpt>
      <trkpt lat="43.65207" lon="3.82582">
        <ele>118</ele>
        <time>2021-01-03T12:32:38Z</time>
      </trkpt>
      <trkpt lat="43.65209" lon="3.82586">
        <ele>118.2</ele>
        <time>2021-01-03T12:32:39Z</time>
      </trkpt>
      <trkpt lat="43.65211" lon="3.82588">
        <ele>118.2</ele>
        <time>2021-01-03T12:32:40Z</time>
      </trkpt>
      <trkpt lat="43.65213" lon="3.82591">
        <ele>118.4</ele>
        <time>2021-01-03T12:32:41Z</time>
      </trkpt>
      <trkpt lat="43.65216" lon="3.82593">
        <ele>118.4</ele>
        <time>2021-01-03T12:32:42Z</time>
      </trkpt>
      <trkpt lat="43.65218" lon="3.82595">
        <ele>118.5</ele>
        <time>2021-01-03T12:32:43Z</time>
      </trkpt>
      <trkpt lat="43.65221" lon="3.82597">
        <ele>118.5</ele>
        <time>2021-01-03T12:32:44Z</time>
      </trkpt>
      <trkpt lat="43.65223" lon="3.82598">
        <ele>119</ele>
        <time>2021-01-03T12:32:45Z</time>
      </trkpt>
      <trkpt lat="43.65226" lon="3.82599">
        <ele>118.6</ele>
        <time>2021-01-03T12:32:46Z</time>
      </trkpt>
      <trkpt lat="43.65229" lon="3.82601">
        <ele>118.7</ele>
        <time>2021-01-03T12:32:47Z</time>
      </trkpt>
      <trkpt lat="43.65231" lon="3.82602">
        <ele>118.8</ele>
        <time>2021-01-03T12:32:48Z</time>
      </trkpt>
      <trkpt lat="43.65234" lon="3.82605">
        <ele>119.2</ele>
        <time>2021-01-03T12:32:49Z</time>
      </trkpt>
      <trkpt lat="43.65236" lon="3.82608">
        <ele>119.6</ele>
        <time>2021-01-03T12:32:50Z</time>
      </trkpt>
      <trkpt lat="43.65237" lon="3.8261">
        <ele>119.8</ele>
        <time>2021-01-03T12:32:51Z</time>
      </trkpt>
      <trkpt lat="43.65239" lon="3.82613">
        <ele>120.2</ele>
        <time>2021-01-03T12:32:52Z</time>
      </trkpt>
      <trkpt lat="43.65241" lon="3.82615">
        <ele>120.4</ele>
        <time>2021-01-03T12:32:53Z</time>
      </trkpt>
      <trkpt lat="43.65243" lon="3.82617">
        <ele>120.6</ele>
        <time>2021-01-03T12:32:54Z</time>
      </trkpt>
      <trkpt lat="43.65245" lon="3.82619">
        <ele>121</ele>
        <time>2021-01-03T12:32:55Z</time>
      </trkpt>
      <trkpt lat="43.65246" lon="3.82621">
        <ele>121</ele>
        <time>2021-01-03T12:32:56Z</time>
      </trkpt>
      <trkpt lat="43.65248" lon="3.82623">
        <ele>121.3</ele>
        <time>2021-01-03T12:32:57Z</time>
      </trkpt>
      <trkpt lat="43.6525" lon="3.82625">
        <ele>121.5</ele>
        <time>2021-01-03T12:32:58Z</time>
      </trkpt>
      <trkpt lat="43.65252" lon="3.82627">
        <ele>121.6</ele>
        <time>2021-01-03T12:32:59Z</time>
      </trkpt>
      <trkpt lat="43.65253" lon="3.82628">
        <ele>121.6</ele>
        <time>2021-01-03T12:33:00Z</time>
      </trkpt>
      <trkpt lat="43.65255" lon="3.8263">
        <ele>121.7</ele>
        <time>2021-01-03T12:33:01Z</time>
      </trkpt>
      <trkpt lat="43.65257" lon="3.82632">
        <ele>121.8</ele>
        <time>2021-01-03T12:33:02Z</time>
      </trkpt>
      <trkpt lat="43.6526" lon="3.82634">
        <ele>121.8</ele>
        <time>2021-01-03T12:33:03Z</time>
      </trkpt>
      <trkpt lat="43.65262" lon="3.82637">
        <ele>121.9</ele>
        <time>2021-01-03T12:33:04Z</time>
      </trkpt>
      <trkpt lat="43.65264" lon="3.8264">
        <ele>123</ele>
        <time>2021-01-03T12:33:05Z</time>
      </trkpt>
      <trkpt lat="43.65265" lon="3.82642">
        <ele>122.2</ele>
        <time>2021-01-03T12:33:06Z</time>
      </trkpt>
      <trkpt lat="43.65266" lon="3.82645">
        <ele>122.3</ele>
        <time>2021-01-03T12:33:07Z</time>
      </trkpt>
      <trkpt lat="43.65268" lon="3.82648">
        <ele>122.5</ele>
        <time>2021-01-03T12:33:08Z</time>
      </trkpt>
      <trkpt lat="43.65269" lon="3.8265">
        <ele>122.6</ele>
        <time>2021-01-03T12:33:09Z</time>
      </trkpt>
      <trkpt lat="43.65271" lon="3.82652">
        <ele>122.7</ele>
        <time>2021-01-03T12:33:10Z</time>
      </trkpt>
      <trkpt lat="43.65273" lon="3.82654">
        <ele>122.8</ele>
        <time>2021-01-03T12:33:11Z</time>
      </trkpt>
      <trkpt lat="43.65274" lon="3.82656">
        <ele>123</ele>
        <time>2021-01-03T12:33:12Z</time>
      </trkpt>
      <trkpt lat="43.65276" lon="3.82658">
        <ele>123.1</ele>
        <time>2021-01-03T12:33:13Z</time>
      </trkpt>
      <trkpt lat="43.65278" lon="3.82659">
        <ele>123.2</ele>
        <time>2021-01-03T12:33:14Z</time>
      </trkpt>
      <trkpt lat="43.6528" lon="3.82661">
        <ele>124</ele>
        <time>2021-01-03T12:33:15Z</time>
      </trkpt>
      <trkpt lat="43.65283" lon="3.82663">
        <ele>123.4</ele>
        <time>2021-01-03T12:33:16Z</time>
      </trkpt>
      <trkpt lat="43.65285" lon="3.82664">
        <ele>123.4</ele>
        <time>2021-01-03T12:33:17Z</time>
      </trkpt>
      <trkpt lat="43.65287" lon="3.82666">
        <ele>123.6</ele>
        <time>2021-01-03T12:33:18Z</time>
      </trkpt>
      <trkpt lat="43.6529" lon="3.82668">
        <ele>123.6</ele>
        <time>2021-01-03T12:33:19Z</time>
      </trkpt>
      <trkpt lat="43.65292" lon="3.82669">
        <ele>123.5</ele>
        <time>2021-01-03T12:33:20Z</time>
      </trkpt>
      <trkpt lat="43.65295" lon="3.82671">
        <ele>123.5</ele>
        <time>2021-01-03T12:33:21Z</time>
      </trkpt>
      <trkpt lat="43.65297" lon="3.82673">
        <ele>123.5</ele>
        <time>2021-01-03T12:33:22Z</time>
      </trkpt>
      <trkpt lat="43.653" lon="3.82674">
        <ele>123.4</ele>
        <time>2021-01-03T12:33:23Z</time>
      </trkpt>
      <trkpt lat="43.65302" lon="3.82676">
        <ele>123.4</ele>
        <time>2021-01-03T12:33:24Z</time>
      </trkpt>
      <trkpt lat="43.65305" lon="3.82678">
        <ele>125</ele>
        <time>2021-01-03T12:33:25Z</time>
      </trkpt>
      <trkpt lat="43.65307" lon="3.8268">
        <ele>123.4</ele>
        <time>2021-01-03T12:33:26Z</time>
      </trkpt>
      <trkpt lat="43.6531" lon="3.82683">
        <ele>123.4</ele>
        <time>2021-01-03T12:33:27Z</time>
      </trkpt>
      <trkpt lat="43.65312" lon="3.82685">
        <ele>123.4</ele>
        <time>2021-01-03T12:33:28Z</time>
      </trkpt>
      <trkpt lat="43.65314" lon="3.82687">
        <ele>123.5</ele>
        <time>2021-01-03T12:33:29Z</time>
      </trkpt>
      <trkpt lat="43.65317" lon="3.82689">
        <ele>123.6</ele>
        <time>2021-01-03T12:33:30Z</time>
      </trkpt>
      <trkpt lat="43.65319" lon="3.82692">
        <ele>123.8</ele>
        <time>2021-01-03T12:33:31Z</time>
      </trkpt>
      <trkpt lat="43.65321" lon="3.82693">
        <ele>123.9</ele>
        <time>2021-01-03T12:33:32Z</time>
      </trkpt>
      <trkpt lat="43.65324" lon="3.82695">
        <ele>124</ele>
        <time>2021-01-03T12:33:33Z</time>
      </trkpt>
      <trkpt lat="43.65327" lon="3.82696">
        <ele>124</ele>
        <time>2021-01-03T12:33:34Z</time>
      </trkpt>
      <trkpt lat="43.65329" lon="3.82698">
        <ele>125</ele>
        <time>2021-01-03T12:33:35Z</time>
      </trkpt>
      <trkpt lat="43.65332" lon="3.827">
        <ele>124</ele>
        <time>2021-01-03T12:33:36Z</time>
      </trkpt>
      <trkpt lat="43.65335" lon="3.82702">
        <ele>123.9</ele>
        <time>2021-01-03T12:33:37Z</time>
      </trkpt>
      <trkpt lat="43.65337" lon="3.82704">
        <ele>123.9</ele>
        <time>2021-01-03T12:33:38Z</time>
      </trkpt>
      <trkpt lat="43.6534" lon="3.82705">
        <ele>123.8</ele>
        <time>2021-01-03T12:33:39Z</time>
      </trkpt>
      <trkpt lat="43.65343" lon="3.82706">
        <ele>123.7</ele>
        <time>2021-01-03T12:33:40Z</time>
      </trkpt>
      <trkpt lat="43.65346" lon="3.82707">
        <ele>123.7</ele>
        <time>2021-01-03T12:33:41Z</time>
      </trkpt>
      <trkpt lat="43.65349" lon="3.82708">
        <ele>123.7</ele>
        <time>2021-01-03T12:33:42Z</time>
      </trkpt>
      <trkpt lat="43.65352" lon="3.8271">
        <ele>123.8</ele>
        <time>2021-01-03T12:33:43Z</time>
      </trkpt>
      <trkpt lat="43.65355" lon="3.82712">
        <ele>123.9</ele>
        <time>2021-01-03T12:33:44Z</time>
      </trkpt>
      <trkpt lat="43.65357" lon="3.82715">
        <ele>126</ele>
        <time>2021-01-03T12:33:45Z</time>
      </trkpt>
      <trkpt lat="43.6536" lon="3.82717">
        <ele>124.4</ele>
        <time>2021-01-03T12:33:46Z</time>
      </trkpt>
      <trkpt lat="43.65363" lon="3.82718">
        <ele>124.6</ele>
        <time>2021-01-03T12:33:47Z</time>
      </trkpt>
      <trkpt lat="43.65367" lon="3.82719">
        <ele>124.8</ele>
        <time>2021-01-03T12:33:48Z</time>
      </trkpt>
      <trkpt lat="43.6537" lon="3.8272">
        <ele>125.1</ele>
        <time>2021-01-03T12:33:49Z</time>
      </trkpt>
      <trkpt lat="43.65373" lon="3.8272">
        <ele>125.2</ele>
        <time>2021-01-03T12:33:50Z</time>
      </trkpt>
      <trkpt lat="43.65376" lon="3.82721">
        <ele>125.4</ele>
        <time>2021-01-03T12:33:51Z</time>
      </trkpt>
      <trkpt lat="43.6538" lon="3.82722">
        <ele>125.7</ele>
        <time>2021-01-03T12:33:52Z</time>
      </trkpt>
      <trkpt lat="43.65383" lon="3.82724">
        <ele>125.7</ele>
        <time>2021-01-03T12:33:53Z</time>
      </trkpt>
      <trkpt lat="43.65386" lon="3.82725">
        <ele>125.8</ele>
        <time>2021-01-03T12:33:54Z</time>
      </trkpt>
      <trkpt lat="43.65389" lon="3.82727">
        <ele>125.8</ele>
        <time>2021-01-03T12:33:55Z</time>
      </trkpt>
      <trkpt lat="43.65394" lon="3.8273">
        <ele>126</ele>
        <time>2021-01-03T12:33:56Z</time>
      </trkpt>
      <trkpt lat="43.65397" lon="3.82733">
        <ele>125.4</ele>
        <time>2021-01-03T12:33:57Z</time>
      </trkpt>
      <trkpt lat="43.65399" lon="3.82735">
        <ele>125.3</ele>
        <time>2021-01-03T12:33:58Z</time>
      </trkpt>
      <trkpt lat="43.65402" lon="3.82737">
        <ele>125.2</ele>
        <time>2021-01-03T12:33:59Z</time>
      </trkpt>
      <trkpt lat="43.65404" lon="3.82739">
        <ele>125.2</ele>
        <time>2021-01-03T12:34:00Z</time>
      </trkpt>
      <trkpt lat="43.65407" lon="3.82741">
        <ele>125.1</ele>
        <time>2021-01-03T12:34:01Z</time>
      </trkpt>
      <trkpt lat="43.6541" lon="3.82743">
        <ele>125.1</ele>
        <time>2021-01-03T12:34:02Z</time>
      </trkpt>
      <trkpt lat="43.65413" lon="3.82745">
        <ele>125</ele>
        <time>2021-01-03T12:34:03Z</time>
      </trkpt>
      <trkpt lat="43.65415" lon="3.82747">
        <ele>127</ele>
        <time>2021-01-03T12:34:05Z</time>
      </trkpt>
      <trkpt lat="43.65418" lon="3.8275">
        <ele>125</ele>
        <time>2021-01-03T12:34:06Z</time>
      </trkpt>
      <trkpt lat="43.6542" lon="3.82752">
        <ele>125.1</ele>
        <time>2021-01-03T12:34:07Z</time>
      </trkpt>
      <trkpt lat="43.65423" lon="3.82755">
        <ele>125.2</ele>
        <time>2021-01-03T12:34:08Z</time>
      </trkpt>
      <trkpt lat="43.65425" lon="3.82758">
        <ele>125.2</ele>
        <time>2021-01-03T12:34:09Z</time>
      </trkpt>
      <trkpt lat="43.65427" lon="3.82761">
        <ele>125.2</ele>
        <time>2021-01-03T12:34:10Z</time>
      </trkpt>
      <trkpt lat="43.6543" lon="3.82763">
        <ele>125.3</ele>
        <time>2021-01-03T12:34:11Z</time>
      </trkpt>
      <trkpt lat="43.65432" lon="3.82766">
        <ele>125.2</ele>
        <time>2021-01-03T12:34:12Z</time>
      </trkpt>
      <trkpt lat="43.65434" lon="3.82767">
        <ele>125.2</ele>
        <time>2021-01-03T12:34:13Z</time>
      </trkpt>
      <trkpt lat="43.65437" lon="3.82768">
        <ele>125.3</ele>
        <time>2021-01-03T12:34:14Z</time>
      </trkpt>
      <trkpt lat="43.6544" lon="3.82769">
        <ele>127</ele>
        <time>2021-01-03T12:34:15Z</time>
      </trkpt>
      <trkpt lat="43.65444" lon="3.82769">
        <ele>125.3</ele>
        <time>2021-01-03T12:34:16Z</time>
      </trkpt>
      <trkpt lat="43.65447" lon="3.82769">
        <ele>125.3</ele>
        <time>2021-01-03T12:34:17Z</time>
      </trkpt>
      <trkpt lat="43.6545" lon="3.82769">
        <ele>125.2</ele>
        <time>2021-01-03T12:34:18Z</time>
      </trkpt>
      <trkpt lat="43.65453" lon="3.8277">
        <ele>125.1</ele>
        <time>2021-01-03T12:34:19Z</time>
      </trkpt>
      <trkpt lat="43.65456" lon="3.82771">
        <ele>125</ele>
        <time>2021-01-03T12:34:20Z</time>
      </trkpt>
      <trkpt lat="43.65459" lon="3.82772">
        <ele>125</ele>
        <time>2021-01-03T12:34:21Z</time>
      </trkpt>
      <trkpt lat="43.65462" lon="3.82773">
        <ele>125</ele>
        <time>2021-01-03T12:34:22Z</time>
      </trkpt>
      <trkpt lat="43.65464" lon="3.82776">
        <ele>125</ele>
        <time>2021-01-03T12:34:23Z</time>
      </trkpt>
      <trkpt lat="43.65466" lon="3.82778">
        <ele>125</ele>
        <time>2021-01-03T12:34:24Z</time>
      </trkpt>
      <trkpt lat="43.65468" lon="3.82781">
        <ele>128</ele>
        <time>2021-01-03T12:34:25Z</time>
      </trkpt>
      <trkpt lat="43.6547" lon="3.82784">
        <ele>125</ele>
        <time>2021-01-03T12:34:26Z</time>
      </trkpt>
      <trkpt lat="43.65471" lon="3.82786">
        <ele>125</ele>
        <time>2021-01-03T12:34:27Z</time>
      </trkpt>
      <trkpt lat="43.65473" lon="3.82789">
        <ele>124.9</ele>
        <time>2021-01-03T12:34:28Z</time>
      </trkpt>
      <trkpt lat="43.65475" lon="3.82791">
        <ele>124.5</ele>
        <time>2021-01-03T12:34:29Z</time>
      </trkpt>
      <trkpt lat="43.65477" lon="3.82793">
        <ele>124.2</ele>
        <time>2021-01-03T12:34:30Z</time>
      </trkpt>
      <trkpt lat="43.65479" lon="3.82796">
        <ele>123.9</ele>
        <time>2021-01-03T12:34:31Z</time>
      </trkpt>
      <trkpt lat="43.65481" lon="3.82799">
        <ele>123.6</ele>
        <time>2021-01-03T12:34:32Z</time>
      </trkpt>
      <trkpt lat="43.65483" lon="3.82802">
        <ele>123.3</ele>
        <time>2021-01-03T12:34:33Z</time>
      </trkpt>
      <trkpt lat="43.65485" lon="3.82804">
        <ele>123.1</ele>
        <time>2021-01-03T12:34:34Z</time>
      </trkpt>
      <trkpt lat="43.65488" lon="3.82806">
        <ele>129</ele>
        <time>2021-01-03T12:34:35Z</time>
      </trkpt>
      <trkpt lat="43.65491" lon="3.82809">
        <ele>122.5</ele>
        <time>2021-01-03T12:34:36Z</time>
      </trkpt>
      <trkpt lat="43.65493" lon="3.82813">
        <ele>122.6</ele>
        <time>2021-01-03T12:34:37Z</time>
      </trkpt>
      <trkpt lat="43.65494" lon="3.82817">
        <ele>122.8</ele>
        <time>2021-01-03T12:34:38Z</time>
      </trkpt>
      <trkpt lat="43.65496" lon="3.82821">
        <ele>123</ele>
        <time>2021-01-03T12:34:39Z</time>
      </trkpt>
      <trkpt lat="43.655" lon="3.82833">
        <ele>124</ele>
        <time>2021-01-03T12:34:42Z</time>
      </trkpt>
      <trkpt lat="43.65502" lon="3.82836">
        <ele>123.8</ele>
        <time>2021-01-03T12:34:43Z</time>
      </trkpt>
      <trkpt lat="43.65504" lon="3.82838">
        <ele>123.7</ele>
        <time>2021-01-03T12:34:44Z</time>
      </trkpt>
      <trkpt lat="43.65505" lon="3.82841">
        <ele>129</ele>
        <time>2021-01-03T12:34:45Z</time>
      </trkpt>
      <trkpt lat="43.65505" lon="3.82844">
        <ele>124</ele>
        <time>2021-01-03T12:34:46Z</time>
      </trkpt>
      <trkpt lat="43.65506" lon="3.82847">
        <ele>124.1</ele>
        <time>2021-01-03T12:34:47Z</time>
      </trkpt>
      <trkpt lat="43.65504" lon="3.82851">
        <ele>124.7</ele>
        <time>2021-01-03T12:34:48Z</time>
      </trkpt>
      <trkpt lat="43.65502" lon="3.82854">
        <ele>125.2</ele>
        <time>2021-01-03T12:34:49Z</time>
      </trkpt>
      <trkpt lat="43.65501" lon="3.82857">
        <ele>125.6</ele>
        <time>2021-01-03T12:34:50Z</time>
      </trkpt>
      <trkpt lat="43.65499" lon="3.82859">
        <ele>125.9</ele>
        <time>2021-01-03T12:34:51Z</time>
      </trkpt>
      <trkpt lat="43.65497" lon="3.82861">
        <ele>126</ele>
        <time>2021-01-03T12:34:52Z</time>
      </trkpt>
      <trkpt lat="43.65495" lon="3.82862">
        <ele>126.1</ele>
        <time>2021-01-03T12:34:53Z</time>
      </trkpt>
      <trkpt lat="43.65493" lon="3.82864">
        <ele>126.2</ele>
        <time>2021-01-03T12:34:54Z</time>
      </trkpt>
      <trkpt lat="43.65491" lon="3.82866">
        <ele>130</ele>
        <time>2021-01-03T12:34:55Z</time>
      </trkpt>
      <trkpt lat="43.6549" lon="3.82868">
        <ele>126.4</ele>
        <time>2021-01-03T12:34:56Z</time>
      </trkpt>
      <trkpt lat="43.65488" lon="3.8287">
        <ele>126.5</ele>
        <time>2021-01-03T12:34:57Z</time>
      </trkpt>
      <trkpt lat="43.65487" lon="3.82872">
        <ele>126.6</ele>
        <time>2021-01-03T12:34:58Z</time>
      </trkpt>
      <trkpt lat="43.65485" lon="3.82874">
        <ele>126.7</ele>
        <time>2021-01-03T12:34:59Z</time>
      </trkpt>
      <trkpt lat="43.65484" lon="3.82876">
        <ele>126.8</ele>
        <time>2021-01-03T12:35:00Z</time>
      </trkpt>
      <trkpt lat="43.65482" lon="3.82879">
        <ele>126.9</ele>
        <time>2021-01-03T12:35:01Z</time>
      </trkpt>
      <trkpt lat="43.6548" lon="3.82883">
        <ele>127</ele>
        <time>2021-01-03T12:35:03Z</time>
      </trkpt>
      <trkpt lat="43.65479" lon="3.82884">
        <ele>127</ele>
        <time>2021-01-03T12:35:04Z</time>
      </trkpt>
      <trkpt lat="43.65478" lon="3.82887">
        <ele>131</ele>
        <time>2021-01-03T12:35:05Z</time>
      </trkpt>
      <trkpt lat="43.65477" lon="3.82889">
        <ele>127.2</ele>
        <time>2021-01-03T12:35:06Z</time>
      </trkpt>
      <trkpt lat="43.65476" lon="3.82892">
        <ele>127.2</ele>
        <time>2021-01-03T12:35:07Z</time>
      </trkpt>
      <trkpt lat="43.65474" lon="3.82895">
        <ele>127.1</ele>
        <time>2021-01-03T12:35:08Z</time>
      </trkpt>
      <trkpt lat="43.65473" lon="3.82898">
        <ele>127</ele>
        <time>2021-01-03T12:35:09Z</time>
      </trkpt>
      <trkpt lat="43.65471" lon="3.82901">
        <ele>126.9</ele>
        <time>2021-01-03T12:35:10Z</time>
      </trkpt>
      <trkpt lat="43.65469" lon="3.82904">
        <ele>126.8</ele>
        <time>2021-01-03T12:35:11Z</time>
      </trkpt>
      <trkpt lat="43.65469" lon="3.82908">
        <ele>126.8</ele>
        <time>2021-01-03T12:35:12Z</time>
      </trkpt>
      <trkpt lat="43.65468" lon="3.82911">
        <ele>126.7</ele>
        <time>2021-01-03T12:35:13Z</time>
      </trkpt>
      <trkpt lat="43.65467" lon="3.82916">
        <ele>126.6</ele>
        <time>2021-01-03T12:35:14Z</time>
      </trkpt>
      <trkpt lat="43.65466" lon="3.8292">
        <ele>131</ele>
        <time>2021-01-03T12:35:15Z</time>
      </trkpt>
      <trkpt lat="43.65465" lon="3.82924">
        <ele>126.2</ele>
        <time>2021-01-03T12:35:16Z</time>
      </trkpt>
      <trkpt lat="43.65465" lon="3.82929">
        <ele>125.9</ele>
        <time>2021-01-03T12:35:17Z</time>
      </trkpt>
      <trkpt lat="43.65464" lon="3.82935">
        <ele>125.7</ele>
        <time>2021-01-03T12:35:18Z</time>
      </trkpt>
      <trkpt lat="43.65464" lon="3.8294">
        <ele>125.5</ele>
        <time>2021-01-03T12:35:19Z</time>
      </trkpt>
      <trkpt lat="43.65465" lon="3.82945">
        <ele>125.3</ele>
        <time>2021-01-03T12:35:20Z</time>
      </trkpt>
      <trkpt lat="43.65465" lon="3.8295">
        <ele>125.2</ele>
        <time>2021-01-03T12:35:21Z</time>
      </trkpt>
      <trkpt lat="43.65465" lon="3.82955">
        <ele>125.2</ele>
        <time>2021-01-03T12:35:22Z</time>
      </trkpt>
      <trkpt lat="43.65464" lon="3.8296">
        <ele>125.1</ele>
        <time>2021-01-03T12:35:23Z</time>
      </trkpt>
      <trkpt lat="43.65461" lon="3.82964">
        <ele>125.1</ele>
        <time>2021-01-03T12:35:24Z</time>
      </trkpt>
      <trkpt lat="43.65458" lon="3.82967">
        <ele>131</ele>
        <time>2021-01-03T12:35:25Z</time>
      </trkpt>
      <trkpt lat="43.65456" lon="3.82971">
        <ele>125</ele>
        <time>2021-01-03T12:35:26Z</time>
      </trkpt>
      <trkpt lat="43.65454" lon="3.82974">
        <ele>125</ele>
        <time>2021-01-03T12:35:27Z</time>
      </trkpt>
      <trkpt lat="43.65453" lon="3.82977">
        <ele>124.9</ele>
        <time>2021-01-03T12:35:28Z</time>
      </trkpt>
      <trkpt lat="43.65453" lon="3.8298">
        <ele>124.9</ele>
        <time>2021-01-03T12:35:29Z</time>
      </trkpt>
      <trkpt lat="43.65453" lon="3.82983">
        <ele>124.9</ele>
        <time>2021-01-03T12:35:30Z</time>
      </trkpt>
      <trkpt lat="43.65455" lon="3.82985">
        <ele>124.8</ele>
        <time>2021-01-03T12:35:31Z</time>
      </trkpt>
      <trkpt lat="43.65457" lon="3.82987">
        <ele>124.8</ele>
        <time>2021-01-03T12:35:32Z</time>
      </trkpt>
      <trkpt lat="43.65459" lon="3.82989">
        <ele>124.7</ele>
        <time>2021-01-03T12:35:33Z</time>
      </trkpt>
      <trkpt lat="43.65462" lon="3.8299">
        <ele>124.6</ele>
        <time>2021-01-03T12:35:34Z</time>
      </trkpt>
      <trkpt lat="43.65464" lon="3.82992">
        <ele>131</ele>
        <time>2021-01-03T12:35:35Z</time>
      </trkpt>
      <trkpt lat="43.65466" lon="3.82995">
        <ele>124.4</ele>
        <time>2021-01-03T12:35:36Z</time>
      </trkpt>
      <trkpt lat="43.65468" lon="3.82998">
        <ele>124.2</ele>
        <time>2021-01-03T12:35:37Z</time>
      </trkpt>
      <trkpt lat="43.65469" lon="3.83">
        <ele>124.1</ele>
        <time>2021-01-03T12:35:38Z</time>
      </trkpt>
      <trkpt lat="43.65472" lon="3.83003">
        <ele>123.6</ele>
        <time>2021-01-03T12:35:39Z</time>
      </trkpt>
      <trkpt lat="43.65474" lon="3.83006">
        <ele>123.2</ele>
        <time>2021-01-03T12:35:40Z</time>
      </trkpt>
      <trkpt lat="43.65476" lon="3.83008">
        <ele>122.9</ele>
        <time>2021-01-03T12:35:41Z</time>
      </trkpt>
      <trkpt lat="43.65478" lon="3.8301">
        <ele>122.7</ele>
        <time>2021-01-03T12:35:42Z</time>
      </trkpt>
      <trkpt lat="43.65482" lon="3.83012">
        <ele>122.6</ele>
        <time>2021-01-03T12:35:43Z</time>
      </trkpt>
      <trkpt lat="43.65487" lon="3.83015">
        <ele>122.4</ele>
        <time>2021-01-03T12:35:44Z</time>
      </trkpt>
      <trkpt lat="43.65491" lon="3.8302">
        <ele>130</ele>
        <time>2021-01-03T12:35:45Z</time>
      </trkpt>
      <trkpt lat="43.65495" lon="3.83024">
        <ele>122</ele>
        <time>2021-01-03T12:35:46Z</time>
      </trkpt>
      <trkpt lat="43.65498" lon="3.83028">
        <ele>121.8</ele>
        <time>2021-01-03T12:35:47Z</time>
      </trkpt>
      <trkpt lat="43.65502" lon="3.83031">
        <ele>121.4</ele>
        <time>2021-01-03T12:35:48Z</time>
      </trkpt>
      <trkpt lat="43.65505" lon="3.83033">
        <ele>121.1</ele>
        <time>2021-01-03T12:35:49Z</time>
      </trkpt>
      <trkpt lat="43.65508" lon="3.83036">
        <ele>120.7</ele>
        <time>2021-01-03T12:35:50Z</time>
      </trkpt>
      <trkpt lat="43.6551" lon="3.83039">
        <ele>120.2</ele>
        <time>2021-01-03T12:35:51Z</time>
      </trkpt>
      <trkpt lat="43.65512" lon="3.83041">
        <ele>120</ele>
        <time>2021-01-03T12:35:52Z</time>
      </trkpt>
      <trkpt lat="43.65515" lon="3.83044">
        <ele>119.7</ele>
        <time>2021-01-03T12:35:53Z</time>
      </trkpt>
      <trkpt lat="43.65518" lon="3.83047">
        <ele>119.4</ele>
        <time>2021-01-03T12:35:54Z</time>
      </trkpt>
      <trkpt lat="43.6552" lon="3.8305">
        <ele>130</ele>
        <time>2021-01-03T12:35:55Z</time>
      </trkpt>
      <trkpt lat="43.65523" lon="3.83053">
        <ele>118.9</ele>
        <time>2021-01-03T12:35:56Z</time>
      </trkpt>
      <trkpt lat="43.65526" lon="3.83057">
        <ele>118.6</ele>
        <time>2021-01-03T12:35:57Z</time>
      </trkpt>
      <trkpt lat="43.65528" lon="3.8306">
        <ele>118.3</ele>
        <time>2021-01-03T12:35:58Z</time>
      </trkpt>
      <trkpt lat="43.65532" lon="3.83063">
        <ele>117.3</ele>
        <time>2021-01-03T12:35:59Z</time>
      </trkpt>
      <trkpt lat="43.65537" lon="3.83066">
        <ele>116.2</ele>
        <time>2021-01-03T12:36:00Z</time>
      </trkpt>
      <trkpt lat="43.65541" lon="3.83067">
        <ele>115.6</ele>
        <time>2021-01-03T12:36:01Z</time>
      </trkpt>
      <trkpt lat="43.65545" lon="3.83067">
        <ele>115</ele>
        <time>2021-01-03T12:36:02Z</time>
      </trkpt>
      <trkpt lat="43.6555" lon="3.83065">
        <ele>114.5</ele>
        <time>2021-01-03T12:36:03Z</time>
      </trkpt>
      <trkpt lat="43.65555" lon="3.8306">
        <ele>113.9</ele>
        <time>2021-01-03T12:36:04Z</time>
      </trkpt>
      <trkpt lat="43.65561" lon="3.83055">
        <ele>128</ele>
        <time>2021-01-03T12:36:05Z</time>
      </trkpt>
      <trkpt lat="43.65565" lon="3.8305">
        <ele>128</ele>
        <time>2021-01-03T12:36:06Z</time>
      </trkpt>
      <trkpt lat="43.65569" lon="3.83045">
        <ele>112.7</ele>
        <time>2021-01-03T12:36:07Z</time>
      </trkpt>
      <trkpt lat="43.65572" lon="3.83039">
        <ele>113</ele>
        <time>2021-01-03T12:36:08Z</time>
      </trkpt>
      <trkpt lat="43.65574" lon="3.83034">
        <ele>113.2</ele>
        <time>2021-01-03T12:36:09Z</time>
      </trkpt>
      <trkpt lat="43.65576" lon="3.83029">
        <ele>113.4</ele>
        <time>2021-01-03T12:36:10Z</time>
      </trkpt>
      <trkpt lat="43.65579" lon="3.83024">
        <ele>113.4</ele>
        <time>2021-01-03T12:36:11Z</time>
      </trkpt>
      <trkpt lat="43.65587" lon="3.8301">
        <ele>114.4</ele>
        <time>2021-01-03T12:36:14Z</time>
      </trkpt>
      <trkpt lat="43.65589" lon="3.82994">
        <ele>116.1</ele>
        <time>2021-01-03T12:36:17Z</time>
      </trkpt>
      <trkpt lat="43.65591" lon="3.8299">
        <ele>115.8</ele>
        <time>2021-01-03T12:36:18Z</time>
      </trkpt>
      <trkpt lat="43.65593" lon="3.82988">
        <ele>115.5</ele>
        <time>2021-01-03T12:36:19Z</time>
      </trkpt>
      <trkpt lat="43.65596" lon="3.82988">
        <ele>115</ele>
        <time>2021-01-03T12:36:20Z</time>
      </trkpt>
      <trkpt lat="43.65599" lon="3.82991">
        <ele>114.6</ele>
        <time>2021-01-03T12:36:21Z</time>
      </trkpt>
      <trkpt lat="43.65602" lon="3.82995">
        <ele>114.2</ele>
        <time>2021-01-03T12:36:22Z</time>
      </trkpt>
      <trkpt lat="43.65604" lon="3.82998">
        <ele>114</ele>
        <time>2021-01-03T12:36:23Z</time>
      </trkpt>
      <trkpt lat="43.65606" lon="3.83001">
        <ele>113.6</ele>
        <time>2021-01-03T12:36:24Z</time>
      </trkpt>
      <trkpt lat="43.65609" lon="3.83004">
        <ele>124</ele>
        <time>2021-01-03T12:36:25Z</time>
      </trkpt>
      <trkpt lat="43.65612" lon="3.83007">
        <ele>111.9</ele>
        <time>2021-01-03T12:36:26Z</time>
      </trkpt>
      <trkpt lat="43.65615" lon="3.83009">
        <ele>111.3</ele>
        <time>2021-01-03T12:36:27Z</time>
      </trkpt>
      <trkpt lat="43.65619" lon="3.8301">
        <ele>110.8</ele>
        <time>2021-01-03T12:36:29Z</time>
      </trkpt>
      <trkpt lat="43.65622" lon="3.83009">
        <ele>110.5</ele>
        <time>2021-01-03T12:36:31Z</time>
      </trkpt>
      <trkpt lat="43.65624" lon="3.8301">
        <ele>110.2</ele>
        <time>2021-01-03T12:36:32Z</time>
      </trkpt>
      <trkpt lat="43.65626" lon="3.83011">
        <ele>110</ele>
        <time>2021-01-03T12:36:33Z</time>
      </trkpt>
      <trkpt lat="43.65627" lon="3.83013">
        <ele>109.9</ele>
        <time>2021-01-03T12:36:34Z</time>
      </trkpt>
      <trkpt lat="43.65629" lon="3.83014">
        <ele>123</ele>
        <time>2021-01-03T12:36:35Z</time>
      </trkpt>
      <trkpt lat="43.65631" lon="3.83012">
        <ele>109.5</ele>
        <time>2021-01-03T12:36:37Z</time>
      </trkpt>
      <trkpt lat="43.65633" lon="3.83011">
        <ele>109.3</ele>
        <time>2021-01-03T12:36:38Z</time>
      </trkpt>
      <trkpt lat="43.65643" lon="3.83002">
        <ele>107.6</ele>
        <time>2021-01-03T12:36:42Z</time>
      </trkpt>
      <trkpt lat="43.65649" lon="3.82996">
        <ele>106.5</ele>
        <time>2021-01-03T12:36:44Z</time>
      </trkpt>
      <trkpt lat="43.65651" lon="3.82996">
        <ele>106.2</ele>
        <time>2021-01-03T12:36:46Z</time>
      </trkpt>
      <trkpt lat="43.65653" lon="3.82995">
        <ele>106</ele>
        <time>2021-01-03T12:36:47Z</time>
      </trkpt>
      <trkpt lat="43.65656" lon="3.82994">
        <ele>105.6</ele>
        <time>2021-01-03T12:36:48Z</time>
      </trkpt>
      <trkpt lat="43.65659" lon="3.82994">
        <ele>105.2</ele>
        <time>2021-01-03T12:36:49Z</time>
      </trkpt>
      <trkpt lat="43.65661" lon="3.82993">
        <ele>105</ele>
        <time>2021-01-03T12:36:50Z</time>
      </trkpt>
      <trkpt lat="43.65663" lon="3.82992">
        <ele>104.7</ele>
        <time>2021-01-03T12:36:51Z</time>
      </trkpt>
      <trkpt lat="43.65666" lon="3.82991">
        <ele>104.4</ele>
        <time>2021-01-03T12:36:52Z</time>
      </trkpt>
      <trkpt lat="43.65669" lon="3.82991">
        <ele>103.8</ele>
        <time>2021-01-03T12:36:53Z</time>
      </trkpt>
      <trkpt lat="43.65672" lon="3.82993">
        <ele>103.1</ele>
        <time>2021-01-03T12:36:54Z</time>
      </trkpt>
      <trkpt lat="43.65675" lon="3.82994">
        <ele>118</ele>
        <time>2021-01-03T12:36:55Z</time>
      </trkpt>
      <trkpt lat="43.65676" lon="3.82995">
        <ele>102.1</ele>
        <time>2021-01-03T12:36:56Z</time>
      </trkpt>
      <trkpt lat="43.65678" lon="3.82995">
        <ele>117</ele>
        <time>2021-01-03T12:37:04Z</time>
      </trkpt>
      <trkpt lat="43.65673" lon="3.82996">
        <ele>115</ele>
        <time>2021-01-03T12:37:21Z</time>
      </trkpt>
      <trkpt lat="43.65672" lon="3.82996">
        <ele>103</ele>
        <time>2021-01-03T12:37:22Z</time>
      </trkpt>
      <trkpt lat="43.65672" lon="3.82994">
        <ele>115</ele>
        <time>2021-01-03T12:37:26Z</time>
      </trkpt>
      <trkpt lat="43.65676" lon="3.83001">
        <ele>114</ele>
        <time>2021-01-03T12:37:40Z</time>
      </trkpt>
      <trkpt lat="43.65676" lon="3.83002">
        <ele>102</ele>
        <time>2021-01-03T12:37:43Z</time>
      </trkpt>
      <trkpt lat="43.65677" lon="3.83004">
        <ele>101.8</ele>
        <time>2021-01-03T12:37:45Z</time>
      </trkpt>
      <trkpt lat="43.65679" lon="3.83003">
        <ele>101.3</ele>
        <time>2021-01-03T12:37:48Z</time>
      </trkpt>
      <trkpt lat="43.65682" lon="3.83002">
        <ele>100.6</ele>
        <time>2021-01-03T12:37:51Z</time>
      </trkpt>
      <trkpt lat="43.65686" lon="3.83003">
        <ele>99.7</ele>
        <time>2021-01-03T12:37:53Z</time>
      </trkpt>
      <trkpt lat="43.65689" lon="3.83003">
        <ele>99</ele>
        <time>2021-01-03T12:37:54Z</time>
      </trkpt>
      <trkpt lat="43.65692" lon="3.83002">
        <ele>98.3</ele>
        <time>2021-01-03T12:37:55Z</time>
      </trkpt>
      <trkpt lat="43.65695" lon="3.83">
        <ele>97.9</ele>
        <time>2021-01-03T12:37:56Z</time>
      </trkpt>
      <trkpt lat="43.65698" lon="3.82998">
        <ele>97.4</ele>
        <time>2021-01-03T12:37:57Z</time>
      </trkpt>
      <trkpt lat="43.65701" lon="3.82995">
        <ele>96.9</ele>
        <time>2021-01-03T12:37:58Z</time>
      </trkpt>
      <trkpt lat="43.65703" lon="3.82991">
        <ele>96.6</ele>
        <time>2021-01-03T12:37:59Z</time>
      </trkpt>
      <trkpt lat="43.65708" lon="3.82981">
        <ele>111</ele>
        <time>2021-01-03T12:38:00Z</time>
      </trkpt>
      <trkpt lat="43.6571" lon="3.82976">
        <ele>95.7</ele>
        <time>2021-01-03T12:38:01Z</time>
      </trkpt>
      <trkpt lat="43.65711" lon="3.82971">
        <ele>95.6</ele>
        <time>2021-01-03T12:38:02Z</time>
      </trkpt>
      <trkpt lat="43.65712" lon="3.82966">
        <ele>95.5</ele>
        <time>2021-01-03T12:38:03Z</time>
      </trkpt>
      <trkpt lat="43.65713" lon="3.82963">
        <ele>95.4</ele>
        <time>2021-01-03T12:38:04Z</time>
      </trkpt>
      <trkpt lat="43.65715" lon="3.82963">
        <ele>95.2</ele>
        <time>2021-01-03T12:38:05Z</time>
      </trkpt>
      <trkpt lat="43.65717" lon="3.82963">
        <ele>95</ele>
        <time>2021-01-03T12:38:06Z</time>
      </trkpt>
      <trkpt lat="43.65721" lon="3.82964">
        <ele>94.4</ele>
        <time>2021-01-03T12:38:07Z</time>
      </trkpt>
      <trkpt lat="43.65726" lon="3.82962">
        <ele>94</ele>
        <time>2021-01-03T12:38:08Z</time>
      </trkpt>
      <trkpt lat="43.65729" lon="3.82958">
        <ele>93.8</ele>
        <time>2021-01-03T12:38:10Z</time>
      </trkpt>
      <trkpt lat="43.65731" lon="3.82952">
        <ele>93.6</ele>
        <time>2021-01-03T12:38:11Z</time>
      </trkpt>
      <trkpt lat="43.65733" lon="3.82947">
        <ele>93.4</ele>
        <time>2021-01-03T12:38:12Z</time>
      </trkpt>
      <trkpt lat="43.65735" lon="3.82942">
        <ele>93.1</ele>
        <time>2021-01-03T12:38:13Z</time>
      </trkpt>
      <trkpt lat="43.65737" lon="3.82939">
        <ele>92.7</ele>
        <time>2021-01-03T12:38:14Z</time>
      </trkpt>
      <trkpt lat="43.6574" lon="3.82936">
        <ele>92.1</ele>
        <time>2021-01-03T12:38:15Z</time>
      </trkpt>
      <trkpt lat="43.65742" lon="3.82933">
        <ele>91.7</ele>
        <time>2021-01-03T12:38:16Z</time>
      </trkpt>
      <trkpt lat="43.65745" lon="3.82932">
        <ele>91.3</ele>
        <time>2021-01-03T12:38:17Z</time>
      </trkpt>
      <trkpt lat="43.65747" lon="3.82932">
        <ele>91</ele>
        <time>2021-01-03T12:38:18Z</time>
      </trkpt>
      <trkpt lat="43.6575" lon="3.82935">
        <ele>103</ele>
        <time>2021-01-03T12:38:19Z</time>
      </trkpt>
      <trkpt lat="43.65752" lon="3.82939">
        <ele>90.7</ele>
        <time>2021-01-03T12:38:20Z</time>
      </trkpt>
      <trkpt lat="43.65754" lon="3.82943">
        <ele>90.7</ele>
        <time>2021-01-03T12:38:21Z</time>
      </trkpt>
      <trkpt lat="43.65755" lon="3.82948">
        <ele>90.7</ele>
        <time>2021-01-03T12:38:22Z</time>
      </trkpt>
      <trkpt lat="43.65757" lon="3.82953">
        <ele>90.7</ele>
        <time>2021-01-03T12:38:23Z</time>
      </trkpt>
      <trkpt lat="43.65758" lon="3.82958">
        <ele>90.8</ele>
        <time>2021-01-03T12:38:24Z</time>
      </trkpt>
      <trkpt lat="43.6576" lon="3.82964">
        <ele>90.7</ele>
        <time>2021-01-03T12:38:25Z</time>
      </trkpt>
      <trkpt lat="43.65761" lon="3.82969">
        <ele>90.7</ele>
        <time>2021-01-03T12:38:26Z</time>
      </trkpt>
      <trkpt lat="43.65763" lon="3.82975">
        <ele>90.6</ele>
        <time>2021-01-03T12:38:27Z</time>
      </trkpt>
      <trkpt lat="43.65764" lon="3.8298">
        <ele>90.6</ele>
        <time>2021-01-03T12:38:28Z</time>
      </trkpt>
      <trkpt lat="43.65766" lon="3.82985">
        <ele>99</ele>
        <time>2021-01-03T12:38:29Z</time>
      </trkpt>
      <trkpt lat="43.65768" lon="3.8299">
        <ele>90.3</ele>
        <time>2021-01-03T12:38:30Z</time>
      </trkpt>
      <trkpt lat="43.6577" lon="3.82995">
        <ele>90.1</ele>
        <time>2021-01-03T12:38:31Z</time>
      </trkpt>
      <trkpt lat="43.65772" lon="3.83">
        <ele>89.8</ele>
        <time>2021-01-03T12:38:32Z</time>
      </trkpt>
      <trkpt lat="43.65774" lon="3.83006">
        <ele>89.7</ele>
        <time>2021-01-03T12:38:33Z</time>
      </trkpt>
      <trkpt lat="43.65776" lon="3.83011">
        <ele>89.6</ele>
        <time>2021-01-03T12:38:34Z</time>
      </trkpt>
      <trkpt lat="43.65778" lon="3.83017">
        <ele>89.6</ele>
        <time>2021-01-03T12:38:35Z</time>
      </trkpt>
      <trkpt lat="43.65779" lon="3.83022">
        <ele>89.8</ele>
        <time>2021-01-03T12:38:36Z</time>
      </trkpt>
      <trkpt lat="43.65781" lon="3.83028">
        <ele>90</ele>
        <time>2021-01-03T12:38:37Z</time>
      </trkpt>
      <trkpt lat="43.65782" lon="3.83033">
        <ele>89.9</ele>
        <time>2021-01-03T12:38:38Z</time>
      </trkpt>
      <trkpt lat="43.65784" lon="3.83038">
        <ele>97</ele>
        <time>2021-01-03T12:38:39Z</time>
      </trkpt>
      <trkpt lat="43.65786" lon="3.8304">
        <ele>89.7</ele>
        <time>2021-01-03T12:38:40Z</time>
      </trkpt>
      <trkpt lat="43.65789" lon="3.83041">
        <ele>89.6</ele>
        <time>2021-01-03T12:38:41Z</time>
      </trkpt>
      <trkpt lat="43.65792" lon="3.83039">
        <ele>89.6</ele>
        <time>2021-01-03T12:38:42Z</time>
      </trkpt>
      <trkpt lat="43.65794" lon="3.83036">
        <ele>89.7</ele>
        <time>2021-01-03T12:38:43Z</time>
      </trkpt>
      <trkpt lat="43.65796" lon="3.83034">
        <ele>89.7</ele>
        <time>2021-01-03T12:38:44Z</time>
      </trkpt>
      <trkpt lat="43.65799" lon="3.83031">
        <ele>89.8</ele>
        <time>2021-01-03T12:38:45Z</time>
      </trkpt>
      <trkpt lat="43.65802" lon="3.83029">
        <ele>89.9</ele>
        <time>2021-01-03T12:38:46Z</time>
      </trkpt>
      <trkpt lat="43.65806" lon="3.83027">
        <ele>90</ele>
        <time>2021-01-03T12:38:47Z</time>
      </trkpt>
      <trkpt lat="43.6581" lon="3.83028">
        <ele>90.1</ele>
        <time>2021-01-03T12:38:48Z</time>
      </trkpt>
      <trkpt lat="43.65814" lon="3.83028">
        <ele>96</ele>
        <time>2021-01-03T12:38:49Z</time>
      </trkpt>
      <trkpt lat="43.65818" lon="3.83028">
        <ele>90.4</ele>
        <time>2021-01-03T12:38:50Z</time>
      </trkpt>
      <trkpt lat="43.65822" lon="3.83027">
        <ele>90.6</ele>
        <time>2021-01-03T12:38:51Z</time>
      </trkpt>
      <trkpt lat="43.65826" lon="3.83027">
        <ele>90.7</ele>
        <time>2021-01-03T12:38:52Z</time>
      </trkpt>
      <trkpt lat="43.6583" lon="3.83025">
        <ele>90.9</ele>
        <time>2021-01-03T12:38:53Z</time>
      </trkpt>
      <trkpt lat="43.65833" lon="3.83024">
        <ele>91</ele>
        <time>2021-01-03T12:38:54Z</time>
      </trkpt>
      <trkpt lat="43.65837" lon="3.83021">
        <ele>90.8</ele>
        <time>2021-01-03T12:38:55Z</time>
      </trkpt>
      <trkpt lat="43.6584" lon="3.83019">
        <ele>90.7</ele>
        <time>2021-01-03T12:38:56Z</time>
      </trkpt>
      <trkpt lat="43.65844" lon="3.83017">
        <ele>90.7</ele>
        <time>2021-01-03T12:38:57Z</time>
      </trkpt>
      <trkpt lat="43.65847" lon="3.83015">
        <ele>90.7</ele>
        <time>2021-01-03T12:38:58Z</time>
      </trkpt>
      <trkpt lat="43.65851" lon="3.83013">
        <ele>96</ele>
        <time>2021-01-03T12:38:59Z</time>
      </trkpt>
      <trkpt lat="43.65855" lon="3.83013">
        <ele>90.7</ele>
        <time>2021-01-03T12:39:00Z</time>
      </trkpt>
      <trkpt lat="43.65858" lon="3.83012">
        <ele>90.7</ele>
        <time>2021-01-03T12:39:01Z</time>
      </trkpt>
      <trkpt lat="43.65862" lon="3.83012">
        <ele>90.7</ele>
        <time>2021-01-03T12:39:02Z</time>
      </trkpt>
      <trkpt lat="43.65865" lon="3.83011">
        <ele>90.9</ele>
        <time>2021-01-03T12:39:03Z</time>
      </trkpt>
      <trkpt lat="43.65868" lon="3.8301">
        <ele>91.1</ele>
        <time>2021-01-03T12:39:04Z</time>
      </trkpt>
      <trkpt lat="43.65872" lon="3.83009">
        <ele>91.3</ele>
        <time>2021-01-03T12:39:05Z</time>
      </trkpt>
      <trkpt lat="43.65875" lon="3.83009">
        <ele>91.4</ele>
        <time>2021-01-03T12:39:06Z</time>
      </trkpt>
      <trkpt lat="43.65878" lon="3.83008">
        <ele>91.6</ele>
        <time>2021-01-03T12:39:07Z</time>
      </trkpt>
      <trkpt lat="43.65882" lon="3.83008">
        <ele>91.7</ele>
        <time>2021-01-03T12:39:08Z</time>
      </trkpt>
      <trkpt lat="43.65885" lon="3.83007">
        <ele>96</ele>
        <time>2021-01-03T12:39:09Z</time>
      </trkpt>
      <trkpt lat="43.65889" lon="3.83007">
        <ele>92</ele>
        <time>2021-01-03T12:39:10Z</time>
      </trkpt>
      <trkpt lat="43.65892" lon="3.83006">
        <ele>92.2</ele>
        <time>2021-01-03T12:39:11Z</time>
      </trkpt>
      <trkpt lat="43.65895" lon="3.83006">
        <ele>92.3</ele>
        <time>2021-01-03T12:39:12Z</time>
      </trkpt>
      <trkpt lat="43.65898" lon="3.83005">
        <ele>92.5</ele>
        <time>2021-01-03T12:39:13Z</time>
      </trkpt>
      <trkpt lat="43.65901" lon="3.83004">
        <ele>92.8</ele>
        <time>2021-01-03T12:39:14Z</time>
      </trkpt>
      <trkpt lat="43.65904" lon="3.83003">
        <ele>93.1</ele>
        <time>2021-01-03T12:39:15Z</time>
      </trkpt>
      <trkpt lat="43.65907" lon="3.83003">
        <ele>93.1</ele>
        <time>2021-01-03T12:39:16Z</time>
      </trkpt>
      <trkpt lat="43.6591" lon="3.83003">
        <ele>93.2</ele>
        <time>2021-01-03T12:39:17Z</time>
      </trkpt>
      <trkpt lat="43.65913" lon="3.83002">
        <ele>93.5</ele>
        <time>2021-01-03T12:39:18Z</time>
      </trkpt>
      <trkpt lat="43.65916" lon="3.83001">
        <ele>97</ele>
        <time>2021-01-03T12:39:19Z</time>
      </trkpt>
      <trkpt lat="43.65919" lon="3.83">
        <ele>94.1</ele>
        <time>2021-01-03T12:39:20Z</time>
      </trkpt>
      <trkpt lat="43.65922" lon="3.82999">
        <ele>94.2</ele>
        <time>2021-01-03T12:39:21Z</time>
      </trkpt>
      <trkpt lat="43.65925" lon="3.82998">
        <ele>94.2</ele>
        <time>2021-01-03T12:39:22Z</time>
      </trkpt>
      <trkpt lat="43.65928" lon="3.82997">
        <ele>94.3</ele>
        <time>2021-01-03T12:39:23Z</time>
      </trkpt>
      <trkpt lat="43.65931" lon="3.82997">
        <ele>94.4</ele>
        <time>2021-01-03T12:39:24Z</time>
      </trkpt>
      <trkpt lat="43.65934" lon="3.82996">
        <ele>94.5</ele>
        <time>2021-01-03T12:39:25Z</time>
      </trkpt>
      <trkpt lat="43.65938" lon="3.82996">
        <ele>94.6</ele>
        <time>2021-01-03T12:39:26Z</time>
      </trkpt>
      <trkpt lat="43.65941" lon="3.82996">
        <ele>94.7</ele>
        <time>2021-01-03T12:39:27Z</time>
      </trkpt>
      <trkpt lat="43.65944" lon="3.82996">
        <ele>94.8</ele>
        <time>2021-01-03T12:39:28Z</time>
      </trkpt>
      <trkpt lat="43.65947" lon="3.82995">
        <ele>98</ele>
        <time>2021-01-03T12:39:29Z</time>
      </trkpt>
      <trkpt lat="43.65949" lon="3.82994">
        <ele>94.8</ele>
        <time>2021-01-03T12:39:30Z</time>
      </trkpt>
      <trkpt lat="43.65952" lon="3.82993">
        <ele>94.8</ele>
        <time>2021-01-03T12:39:31Z</time>
      </trkpt>
      <trkpt lat="43.65955" lon="3.82993">
        <ele>94.8</ele>
        <time>2021-01-03T12:39:32Z</time>
      </trkpt>
      <trkpt lat="43.65958" lon="3.82992">
        <ele>94.8</ele>
        <time>2021-01-03T12:39:33Z</time>
      </trkpt>
      <trkpt lat="43.6596" lon="3.82991">
        <ele>94.8</ele>
        <time>2021-01-03T12:39:34Z</time>
      </trkpt>
      <trkpt lat="43.65963" lon="3.82991">
        <ele>94.9</ele>
        <time>2021-01-03T12:39:35Z</time>
      </trkpt>
      <trkpt lat="43.65965" lon="3.82989">
        <ele>95</ele>
        <time>2021-01-03T12:39:36Z</time>
      </trkpt>
      <trkpt lat="43.65967" lon="3.82988">
        <ele>95.2</ele>
        <time>2021-01-03T12:39:37Z</time>
      </trkpt>
      <trkpt lat="43.65969" lon="3.82986">
        <ele>95.4</ele>
        <time>2021-01-03T12:39:38Z</time>
      </trkpt>
      <trkpt lat="43.65971" lon="3.82985">
        <ele>100</ele>
        <time>2021-01-03T12:39:39Z</time>
      </trkpt>
      <trkpt lat="43.65973" lon="3.82984">
        <ele>95.7</ele>
        <time>2021-01-03T12:39:40Z</time>
      </trkpt>
      <trkpt lat="43.65974" lon="3.82982">
        <ele>96</ele>
        <time>2021-01-03T12:39:41Z</time>
      </trkpt>
      <trkpt lat="43.65976" lon="3.8298">
        <ele>96.3</ele>
        <time>2021-01-03T12:39:42Z</time>
      </trkpt>
      <trkpt lat="43.65979" lon="3.82978">
        <ele>96.6</ele>
        <time>2021-01-03T12:39:43Z</time>
      </trkpt>
      <trkpt lat="43.65984" lon="3.82975">
        <ele>97.1</ele>
        <time>2021-01-03T12:39:44Z</time>
      </trkpt>
      <trkpt lat="43.65988" lon="3.82973">
        <ele>97.5</ele>
        <time>2021-01-03T12:39:45Z</time>
      </trkpt>
      <trkpt lat="43.65992" lon="3.82972">
        <ele>97.7</ele>
        <time>2021-01-03T12:39:46Z</time>
      </trkpt>
      <trkpt lat="43.65995" lon="3.82971">
        <ele>97.9</ele>
        <time>2021-01-03T12:39:47Z</time>
      </trkpt>
      <trkpt lat="43.65998" lon="3.8297">
        <ele>98</ele>
        <time>2021-01-03T12:39:48Z</time>
      </trkpt>
      <trkpt lat="43.66001" lon="3.82969">
        <ele>101</ele>
        <time>2021-01-03T12:39:49Z</time>
      </trkpt>
      <trkpt lat="43.66003" lon="3.82967">
        <ele>98.4</ele>
        <time>2021-01-03T12:39:50Z</time>
      </trkpt>
      <trkpt lat="43.66005" lon="3.82965">
        <ele>98.7</ele>
        <time>2021-01-03T12:39:51Z</time>
      </trkpt>
      <trkpt lat="43.66007" lon="3.82963">
        <ele>99</ele>
        <time>2021-01-03T12:39:52Z</time>
      </trkpt>
      <trkpt lat="43.66009" lon="3.82961">
        <ele>99.4</ele>
        <time>2021-01-03T12:39:53Z</time>
      </trkpt>
      <trkpt lat="43.6601" lon="3.82958">
        <ele>99.8</ele>
        <time>2021-01-03T12:39:54Z</time>
      </trkpt>
      <trkpt lat="43.6601" lon="3.82954">
        <ele>100.2</ele>
        <time>2021-01-03T12:39:55Z</time>
      </trkpt>
      <trkpt lat="43.66011" lon="3.8295">
        <ele>100.8</ele>
        <time>2021-01-03T12:39:56Z</time>
      </trkpt>
      <trkpt lat="43.66011" lon="3.82947">
        <ele>101.1</ele>
        <time>2021-01-03T12:39:57Z</time>
      </trkpt>
      <trkpt lat="43.66011" lon="3.82943">
        <ele>101.5</ele>
        <time>2021-01-03T12:39:58Z</time>
      </trkpt>
      <trkpt lat="43.66011" lon="3.8294">
        <ele>101.9</ele>
        <time>2021-01-03T12:39:59Z</time>
      </trkpt>
      <trkpt lat="43.66011" lon="3.82937">
        <ele>103</ele>
        <time>2021-01-03T12:40:00Z</time>
      </trkpt>
      <trkpt lat="43.6601" lon="3.82934">
        <ele>102.3</ele>
        <time>2021-01-03T12:40:01Z</time>
      </trkpt>
      <trkpt lat="43.66009" lon="3.82931">
        <ele>102.4</ele>
        <time>2021-01-03T12:40:02Z</time>
      </trkpt>
      <trkpt lat="43.66008" lon="3.82928">
        <ele>102.4</ele>
        <time>2021-01-03T12:40:03Z</time>
      </trkpt>
      <trkpt lat="43.66007" lon="3.82926">
        <ele>102.3</ele>
        <time>2021-01-03T12:40:04Z</time>
      </trkpt>
      <trkpt lat="43.66006" lon="3.82923">
        <ele>102.3</ele>
        <time>2021-01-03T12:40:05Z</time>
      </trkpt>
      <trkpt lat="43.66005" lon="3.8292">
        <ele>102.3</ele>
        <time>2021-01-03T12:40:06Z</time>
      </trkpt>
      <trkpt lat="43.66004" lon="3.82918">
        <ele>102.2</ele>
        <time>2021-01-03T12:40:07Z</time>
      </trkpt>
      <trkpt lat="43.66003" lon="3.82915">
        <ele>102.2</ele>
        <time>2021-01-03T12:40:08Z</time>
      </trkpt>
      <trkpt lat="43.66002" lon="3.82913">
        <ele>105</ele>
        <time>2021-01-03T12:40:09Z</time>
      </trkpt>
      <trkpt lat="43.66001" lon="3.8291">
        <ele>102.1</ele>
        <time>2021-01-03T12:40:10Z</time>
      </trkpt>
      <trkpt lat="43.65999" lon="3.82908">
        <ele>101.9</ele>
        <time>2021-01-03T12:40:11Z</time>
      </trkpt>
      <trkpt lat="43.65998" lon="3.82905">
        <ele>102.1</ele>
        <time>2021-01-03T12:40:12Z</time>
      </trkpt>
      <trkpt lat="43.65996" lon="3.82902">
        <ele>102.2</ele>
        <time>2021-01-03T12:40:13Z</time>
      </trkpt>
      <trkpt lat="43.65994" lon="3.82899">
        <ele>102.3</ele>
        <time>2021-01-03T12:40:14Z</time>
      </trkpt>
      <trkpt lat="43.65993" lon="3.82896">
        <ele>102.5</ele>
        <time>2021-01-03T12:40:15Z</time>
      </trkpt>
      <trkpt lat="43.65991" lon="3.82893">
        <ele>102.6</ele>
        <time>2021-01-03T12:40:16Z</time>
      </trkpt>
      <trkpt lat="43.6599" lon="3.82889">
        <ele>102.9</ele>
        <time>2021-01-03T12:40:17Z</time>
      </trkpt>
      <trkpt lat="43.65989" lon="3.82885">
        <ele>103</ele>
        <time>2021-01-03T12:40:18Z</time>
      </trkpt>
      <trkpt lat="43.65987" lon="3.82881">
        <ele>102.9</ele>
        <time>2021-01-03T12:40:19Z</time>
      </trkpt>
      <trkpt lat="43.65986" lon="3.82877">
        <ele>106</ele>
        <time>2021-01-03T12:40:20Z</time>
      </trkpt>
      <trkpt lat="43.65984" lon="3.82873">
        <ele>102.8</ele>
        <time>2021-01-03T12:40:21Z</time>
      </trkpt>
      <trkpt lat="43.65983" lon="3.82869">
        <ele>102.7</ele>
        <time>2021-01-03T12:40:22Z</time>
      </trkpt>
      <trkpt lat="43.65982" lon="3.82865">
        <ele>102.7</ele>
        <time>2021-01-03T12:40:23Z</time>
      </trkpt>
      <trkpt lat="43.65981" lon="3.82861">
        <ele>102.6</ele>
        <time>2021-01-03T12:40:24Z</time>
      </trkpt>
      <trkpt lat="43.65981" lon="3.82856">
        <ele>102.4</ele>
        <time>2021-01-03T12:40:25Z</time>
      </trkpt>
      <trkpt lat="43.65981" lon="3.82851">
        <ele>102.2</ele>
        <time>2021-01-03T12:40:26Z</time>
      </trkpt>
      <trkpt lat="43.65982" lon="3.82847">
        <ele>102.3</ele>
        <time>2021-01-03T12:40:27Z</time>
      </trkpt>
      <trkpt lat="43.65984" lon="3.82842">
        <ele>102.4</ele>
        <time>2021-01-03T12:40:28Z</time>
      </trkpt>
      <trkpt lat="43.65986" lon="3.82838">
        <ele>105</ele>
        <time>2021-01-03T12:40:29Z</time>
      </trkpt>
      <trkpt lat="43.65988" lon="3.82834">
        <ele>102.9</ele>
        <time>2021-01-03T12:40:30Z</time>
      </trkpt>
      <trkpt lat="43.6599" lon="3.8283">
        <ele>102.8</ele>
        <time>2021-01-03T12:40:31Z</time>
      </trkpt>
      <trkpt lat="43.65992" lon="3.82827">
        <ele>102.8</ele>
        <time>2021-01-03T12:40:32Z</time>
      </trkpt>
      <trkpt lat="43.65994" lon="3.82824">
        <ele>102.7</ele>
        <time>2021-01-03T12:40:33Z</time>
      </trkpt>
      <trkpt lat="43.65995" lon="3.82822">
        <ele>102.6</ele>
        <time>2021-01-03T12:40:34Z</time>
      </trkpt>
      <trkpt lat="43.65997" lon="3.8282">
        <ele>102.6</ele>
        <time>2021-01-03T12:40:35Z</time>
      </trkpt>
      <trkpt lat="43.65999" lon="3.82818">
        <ele>102.7</ele>
        <time>2021-01-03T12:40:36Z</time>
      </trkpt>
      <trkpt lat="43.66001" lon="3.82816">
        <ele>102.7</ele>
        <time>2021-01-03T12:40:37Z</time>
      </trkpt>
      <trkpt lat="43.66003" lon="3.82814">
        <ele>102.9</ele>
        <time>2021-01-03T12:40:38Z</time>
      </trkpt>
      <trkpt lat="43.66005" lon="3.82812">
        <ele>106</ele>
        <time>2021-01-03T12:40:39Z</time>
      </trkpt>
      <trkpt lat="43.66007" lon="3.8281">
        <ele>103</ele>
        <time>2021-01-03T12:40:40Z</time>
      </trkpt>
      <trkpt lat="43.66009" lon="3.82808">
        <ele>103.1</ele>
        <time>2021-01-03T12:40:41Z</time>
      </trkpt>
      <trkpt lat="43.66011" lon="3.82806">
        <ele>103.1</ele>
        <time>2021-01-03T12:40:42Z</time>
      </trkpt>
      <trkpt lat="43.66013" lon="3.82804">
        <ele>103.1</ele>
        <time>2021-01-03T12:40:43Z</time>
      </trkpt>
      <trkpt lat="43.66016" lon="3.82802">
        <ele>103.4</ele>
        <time>2021-01-03T12:40:44Z</time>
      </trkpt>
      <trkpt lat="43.66018" lon="3.828">
        <ele>103.5</ele>
        <time>2021-01-03T12:40:45Z</time>
      </trkpt>
      <trkpt lat="43.6602" lon="3.82798">
        <ele>103.5</ele>
        <time>2021-01-03T12:40:46Z</time>
      </trkpt>
      <trkpt lat="43.66022" lon="3.82796">
        <ele>103.5</ele>
        <time>2021-01-03T12:40:47Z</time>
      </trkpt>
      <trkpt lat="43.66025" lon="3.82794">
        <ele>103.5</ele>
        <time>2021-01-03T12:40:48Z</time>
      </trkpt>
      <trkpt lat="43.66028" lon="3.82792">
        <ele>106</ele>
        <time>2021-01-03T12:40:49Z</time>
      </trkpt>
      <trkpt lat="43.6603" lon="3.82789">
        <ele>103.4</ele>
        <time>2021-01-03T12:40:50Z</time>
      </trkpt>
      <trkpt lat="43.66033" lon="3.82787">
        <ele>103.5</ele>
        <time>2021-01-03T12:40:51Z</time>
      </trkpt>
      <trkpt lat="43.66036" lon="3.82784">
        <ele>103.4</ele>
        <time>2021-01-03T12:40:52Z</time>
      </trkpt>
      <trkpt lat="43.66039" lon="3.82781">
        <ele>103.3</ele>
        <time>2021-01-03T12:40:53Z</time>
      </trkpt>
      <trkpt lat="43.66041" lon="3.82779">
        <ele>103.2</ele>
        <time>2021-01-03T12:40:54Z</time>
      </trkpt>
      <trkpt lat="43.66044" lon="3.82776">
        <ele>103.1</ele>
        <time>2021-01-03T12:40:55Z</time>
      </trkpt>
      <trkpt lat="43.66046" lon="3.82773">
        <ele>103</ele>
        <time>2021-01-03T12:40:56Z</time>
      </trkpt>
      <trkpt lat="43.66049" lon="3.82769">
        <ele>102.9</ele>
        <time>2021-01-03T12:40:57Z</time>
      </trkpt>
      <trkpt lat="43.66051" lon="3.82766">
        <ele>102.7</ele>
        <time>2021-01-03T12:40:58Z</time>
      </trkpt>
      <trkpt lat="43.66054" lon="3.82762">
        <ele>104</ele>
        <time>2021-01-03T12:40:59Z</time>
      </trkpt>
      <trkpt lat="43.66056" lon="3.82758">
        <ele>102.2</ele>
        <time>2021-01-03T12:41:00Z</time>
      </trkpt>
      <trkpt lat="43.66059" lon="3.82754">
        <ele>101.9</ele>
        <time>2021-01-03T12:41:01Z</time>
      </trkpt>
      <trkpt lat="43.66061" lon="3.8275">
        <ele>101.4</ele>
        <time>2021-01-03T12:41:02Z</time>
      </trkpt>
      <trkpt lat="43.66064" lon="3.82747">
        <ele>101.2</ele>
        <time>2021-01-03T12:41:03Z</time>
      </trkpt>
      <trkpt lat="43.66067" lon="3.82743">
        <ele>100.8</ele>
        <time>2021-01-03T12:41:04Z</time>
      </trkpt>
      <trkpt lat="43.66069" lon="3.82739">
        <ele>100.4</ele>
        <time>2021-01-03T12:41:05Z</time>
      </trkpt>
      <trkpt lat="43.66072" lon="3.82733">
        <ele>99.7</ele>
        <time>2021-01-03T12:41:06Z</time>
      </trkpt>
      <trkpt lat="43.66075" lon="3.82726">
        <ele>98.9</ele>
        <time>2021-01-03T12:41:07Z</time>
      </trkpt>
      <trkpt lat="43.66079" lon="3.82718">
        <ele>98.1</ele>
        <time>2021-01-03T12:41:08Z</time>
      </trkpt>
      <trkpt lat="43.66083" lon="3.8271">
        <ele>97.2</ele>
        <time>2021-01-03T12:41:09Z</time>
      </trkpt>
      <trkpt lat="43.66095" lon="3.827">
        <ele>104</ele>
        <time>2021-01-03T12:41:10Z</time>
      </trkpt>
      <trkpt lat="43.66101" lon="3.82695">
        <ele>96.9</ele>
        <time>2021-01-03T12:41:11Z</time>
      </trkpt>
      <trkpt lat="43.66105" lon="3.82691">
        <ele>97.2</ele>
        <time>2021-01-03T12:41:12Z</time>
      </trkpt>
      <trkpt lat="43.66113" lon="3.82687">
        <ele>97.8</ele>
        <time>2021-01-03T12:41:14Z</time>
      </trkpt>
      <trkpt lat="43.66117" lon="3.82686">
        <ele>98</ele>
        <time>2021-01-03T12:41:15Z</time>
      </trkpt>
      <trkpt lat="43.6612" lon="3.82686">
        <ele>98.1</ele>
        <time>2021-01-03T12:41:16Z</time>
      </trkpt>
      <trkpt lat="43.66123" lon="3.82685">
        <ele>98.2</ele>
        <time>2021-01-03T12:41:17Z</time>
      </trkpt>
      <trkpt lat="43.66125" lon="3.82685">
        <ele>98.3</ele>
        <time>2021-01-03T12:41:18Z</time>
      </trkpt>
      <trkpt lat="43.66128" lon="3.82685">
        <ele>98.5</ele>
        <time>2021-01-03T12:41:20Z</time>
      </trkpt>
      <trkpt lat="43.6613" lon="3.82685">
        <ele>98.6</ele>
        <time>2021-01-03T12:41:21Z</time>
      </trkpt>
      <trkpt lat="43.66133" lon="3.82686">
        <ele>98.7</ele>
        <time>2021-01-03T12:41:22Z</time>
      </trkpt>
      <trkpt lat="43.66136" lon="3.82686">
        <ele>98.9</ele>
        <time>2021-01-03T12:41:23Z</time>
      </trkpt>
      <trkpt lat="43.66138" lon="3.82687">
        <ele>99</ele>
        <time>2021-01-03T12:41:24Z</time>
      </trkpt>
      <trkpt lat="43.6614" lon="3.82687">
        <ele>99.1</ele>
        <time>2021-01-03T12:41:25Z</time>
      </trkpt>
      <trkpt lat="43.66142" lon="3.82687">
        <ele>99.4</ele>
        <time>2021-01-03T12:41:26Z</time>
      </trkpt>
      <trkpt lat="43.66144" lon="3.82688">
        <ele>99.6</ele>
        <time>2021-01-03T12:41:27Z</time>
      </trkpt>
      <trkpt lat="43.66146" lon="3.82688">
        <ele>99.8</ele>
        <time>2021-01-03T12:41:28Z</time>
      </trkpt>
      <trkpt lat="43.66148" lon="3.82688">
        <ele>104</ele>
        <time>2021-01-03T12:41:29Z</time>
      </trkpt>
      <trkpt lat="43.6615" lon="3.8269">
        <ele>100.4</ele>
        <time>2021-01-03T12:41:30Z</time>
      </trkpt>
      <trkpt lat="43.66152" lon="3.82691">
        <ele>100.7</ele>
        <time>2021-01-03T12:41:31Z</time>
      </trkpt>
      <trkpt lat="43.66154" lon="3.82692">
        <ele>101</ele>
        <time>2021-01-03T12:41:32Z</time>
      </trkpt>
      <trkpt lat="43.66156" lon="3.82693">
        <ele>101.4</ele>
        <time>2021-01-03T12:41:33Z</time>
      </trkpt>
      <trkpt lat="43.66158" lon="3.82695">
        <ele>101.8</ele>
        <time>2021-01-03T12:41:34Z</time>
      </trkpt>
      <trkpt lat="43.66159" lon="3.82697">
        <ele>102.1</ele>
        <time>2021-01-03T12:41:35Z</time>
      </trkpt>
      <trkpt lat="43.66161" lon="3.82699">
        <ele>102.5</ele>
        <time>2021-01-03T12:41:36Z</time>
      </trkpt>
      <trkpt lat="43.66163" lon="3.827">
        <ele>102.9</ele>
        <time>2021-01-03T12:41:37Z</time>
      </trkpt>
      <trkpt lat="43.66165" lon="3.82702">
        <ele>103.3</ele>
        <time>2021-01-03T12:41:38Z</time>
      </trkpt>
      <trkpt lat="43.66167" lon="3.82703">
        <ele>105</ele>
        <time>2021-01-03T12:41:39Z</time>
      </trkpt>
      <trkpt lat="43.6617" lon="3.82707">
        <ele>104</ele>
        <time>2021-01-03T12:41:40Z</time>
      </trkpt>
      <trkpt lat="43.66172" lon="3.82709">
        <ele>104.2</ele>
        <time>2021-01-03T12:41:41Z</time>
      </trkpt>
      <trkpt lat="43.66174" lon="3.82709">
        <ele>104.3</ele>
        <time>2021-01-03T12:41:42Z</time>
      </trkpt>
      <trkpt lat="43.66176" lon="3.8271">
        <ele>104.5</ele>
        <time>2021-01-03T12:41:43Z</time>
      </trkpt>
      <trkpt lat="43.66178" lon="3.82711">
        <ele>104.6</ele>
        <time>2021-01-03T12:41:44Z</time>
      </trkpt>
      <trkpt lat="43.6618" lon="3.82711">
        <ele>104.7</ele>
        <time>2021-01-03T12:41:45Z</time>
      </trkpt>
      <trkpt lat="43.66182" lon="3.82711">
        <ele>104.7</ele>
        <time>2021-01-03T12:41:46Z</time>
      </trkpt>
      <trkpt lat="43.66184" lon="3.82711">
        <ele>104.8</ele>
        <time>2021-01-03T12:41:47Z</time>
      </trkpt>
      <trkpt lat="43.66186" lon="3.8271">
        <ele>104.8</ele>
        <time>2021-01-03T12:41:48Z</time>
      </trkpt>
      <trkpt lat="43.66188" lon="3.8271">
        <ele>104.9</ele>
        <time>2021-01-03T12:41:50Z</time>
      </trkpt>
      <trkpt lat="43.66192" lon="3.8271">
        <ele>105</ele>
        <time>2021-01-03T12:41:52Z</time>
      </trkpt>
      <trkpt lat="43.66194" lon="3.82709">
        <ele>105</ele>
        <time>2021-01-03T12:41:53Z</time>
      </trkpt>
      <trkpt lat="43.66196" lon="3.82709">
        <ele>105.2</ele>
        <time>2021-01-03T12:41:54Z</time>
      </trkpt>
      <trkpt lat="43.66199" lon="3.82708">
        <ele>105.3</ele>
        <time>2021-01-03T12:41:55Z</time>
      </trkpt>
      <trkpt lat="43.66202" lon="3.82708">
        <ele>105.5</ele>
        <time>2021-01-03T12:41:56Z</time>
      </trkpt>
      <trkpt lat="43.66204" lon="3.82707">
        <ele>105.6</ele>
        <time>2021-01-03T12:41:57Z</time>
      </trkpt>
      <trkpt lat="43.66207" lon="3.82707">
        <ele>105.8</ele>
        <time>2021-01-03T12:41:58Z</time>
      </trkpt>
      <trkpt lat="43.66209" lon="3.82707">
        <ele>107</ele>
        <time>2021-01-03T12:41:59Z</time>
      </trkpt>
      <trkpt lat="43.66211" lon="3.82708">
        <ele>106.2</ele>
        <time>2021-01-03T12:42:00Z</time>
      </trkpt>
      <trkpt lat="43.66213" lon="3.82708">
        <ele>106.3</ele>
        <time>2021-01-03T12:42:01Z</time>
      </trkpt>
      <trkpt lat="43.66216" lon="3.8271">
        <ele>106.7</ele>
        <time>2021-01-03T12:42:03Z</time>
      </trkpt>
      <trkpt lat="43.66218" lon="3.82711">
        <ele>106.9</ele>
        <time>2021-01-03T12:42:04Z</time>
      </trkpt>
      <trkpt lat="43.66219" lon="3.82712">
        <ele>107</ele>
        <time>2021-01-03T12:42:05Z</time>
      </trkpt>
      <trkpt lat="43.66221" lon="3.82714">
        <ele>107.3</ele>
        <time>2021-01-03T12:42:06Z</time>
      </trkpt>
      <trkpt lat="43.66223" lon="3.82717">
        <ele>107.6</ele>
        <time>2021-01-03T12:42:08Z</time>
      </trkpt>
      <trkpt lat="43.66226" lon="3.8272">
        <ele>107.8</ele>
        <time>2021-01-03T12:42:10Z</time>
      </trkpt>
      <trkpt lat="43.66228" lon="3.82724">
        <ele>108.3</ele>
        <time>2021-01-03T12:42:12Z</time>
      </trkpt>
      <trkpt lat="43.6623" lon="3.82725">
        <ele>108.5</ele>
        <time>2021-01-03T12:42:13Z</time>
      </trkpt>
      <trkpt lat="43.66234" lon="3.82725">
        <ele>108.5</ele>
        <time>2021-01-03T12:42:15Z</time>
      </trkpt>
      <trkpt lat="43.66237" lon="3.82724">
        <ele>108.3</ele>
        <time>2021-01-03T12:42:17Z</time>
      </trkpt>
      <trkpt lat="43.6624" lon="3.82724">
        <ele>110</ele>
        <time>2021-01-03T12:42:19Z</time>
      </trkpt>
      <trkpt lat="43.66242" lon="3.82723">
        <ele>108.2</ele>
        <time>2021-01-03T12:42:20Z</time>
      </trkpt>
      <trkpt lat="43.66244" lon="3.82722">
        <ele>108</ele>
        <time>2021-01-03T12:42:21Z</time>
      </trkpt>
      <trkpt lat="43.66247" lon="3.8272">
        <ele>107.8</ele>
        <time>2021-01-03T12:42:22Z</time>
      </trkpt>
      <trkpt lat="43.6625" lon="3.82717">
        <ele>107.6</ele>
        <time>2021-01-03T12:42:23Z</time>
      </trkpt>
      <trkpt lat="43.66251" lon="3.82714">
        <ele>107.7</ele>
        <time>2021-01-03T12:42:24Z</time>
      </trkpt>
      <trkpt lat="43.66252" lon="3.82712">
        <ele>107.8</ele>
        <time>2021-01-03T12:42:25Z</time>
      </trkpt>
      <trkpt lat="43.66253" lon="3.82709">
        <ele>107.8</ele>
        <time>2021-01-03T12:42:26Z</time>
      </trkpt>
      <trkpt lat="43.66254" lon="3.82706">
        <ele>107.8</ele>
        <time>2021-01-03T12:42:27Z</time>
      </trkpt>
      <trkpt lat="43.66255" lon="3.82703">
        <ele>107.8</ele>
        <time>2021-01-03T12:42:28Z</time>
      </trkpt>
      <trkpt lat="43.66256" lon="3.827">
        <ele>110</ele>
        <time>2021-01-03T12:42:29Z</time>
      </trkpt>
      <trkpt lat="43.66257" lon="3.82698">
        <ele>107.8</ele>
        <time>2021-01-03T12:42:30Z</time>
      </trkpt>
      <trkpt lat="43.66258" lon="3.82695">
        <ele>107.8</ele>
        <time>2021-01-03T12:42:32Z</time>
      </trkpt>
      <trkpt lat="43.66259" lon="3.82692">
        <ele>107.7</ele>
        <time>2021-01-03T12:42:34Z</time>
      </trkpt>
      <trkpt lat="43.66258" lon="3.8269">
        <ele>107.3</ele>
        <time>2021-01-03T12:42:36Z</time>
      </trkpt>
      <trkpt lat="43.66256" lon="3.82686">
        <ele>106.6</ele>
        <time>2021-01-03T12:42:38Z</time>
      </trkpt>
      <trkpt lat="43.66255" lon="3.82682">
        <ele>110</ele>
        <time>2021-01-03T12:42:39Z</time>
      </trkpt>
      <trkpt lat="43.66255" lon="3.82679">
        <ele>105.8</ele>
        <time>2021-01-03T12:42:40Z</time>
      </trkpt>
      <trkpt lat="43.66256" lon="3.82675">
        <ele>105.6</ele>
        <time>2021-01-03T12:42:42Z</time>
      </trkpt>
      <trkpt lat="43.66257" lon="3.82671">
        <ele>105.4</ele>
        <time>2021-01-03T12:42:44Z</time>
      </trkpt>
      <trkpt lat="43.66258" lon="3.82668">
        <ele>105.3</ele>
        <time>2021-01-03T12:42:45Z</time>
      </trkpt>
      <trkpt lat="43.66258" lon="3.82665">
        <ele>105.1</ele>
        <time>2021-01-03T12:42:46Z</time>
      </trkpt>
      <trkpt lat="43.66258" lon="3.82661">
        <ele>104.8</ele>
        <time>2021-01-03T12:42:47Z</time>
      </trkpt>
      <trkpt lat="43.66258" lon="3.82658">
        <ele>104.7</ele>
        <time>2021-01-03T12:42:48Z</time>
      </trkpt>
      <trkpt lat="43.66258" lon="3.82654">
        <ele>104.4</ele>
        <time>2021-01-03T12:42:49Z</time>
      </trkpt>
      <trkpt lat="43.66258" lon="3.82651">
        <ele>110</ele>
        <time>2021-01-03T12:42:50Z</time>
      </trkpt>
      <trkpt lat="43.66258" lon="3.82648">
        <ele>104.1</ele>
        <time>2021-01-03T12:42:51Z</time>
      </trkpt>
      <trkpt lat="43.66257" lon="3.82646">
        <ele>103.9</ele>
        <time>2021-01-03T12:42:52Z</time>
      </trkpt>
      <trkpt lat="43.66256" lon="3.82643">
        <ele>103.6</ele>
        <time>2021-01-03T12:42:53Z</time>
      </trkpt>
      <trkpt lat="43.66256" lon="3.82639">
        <ele>103.4</ele>
        <time>2021-01-03T12:42:55Z</time>
      </trkpt>
      <trkpt lat="43.66256" lon="3.82635">
        <ele>103.5</ele>
        <time>2021-01-03T12:42:57Z</time>
      </trkpt>
      <trkpt lat="43.66258" lon="3.82631">
        <ele>110</ele>
        <time>2021-01-03T12:42:59Z</time>
      </trkpt>
      <trkpt lat="43.66261" lon="3.82629">
        <ele>104.1</ele>
        <time>2021-01-03T12:43:01Z</time>
      </trkpt>
      <trkpt lat="43.66264" lon="3.82628">
        <ele>104.4</ele>
        <time>2021-01-03T12:43:03Z</time>
      </trkpt>
      <trkpt lat="43.66266" lon="3.82628">
        <ele>104.6</ele>
        <time>2021-01-03T12:43:04Z</time>
      </trkpt>
      <trkpt lat="43.66268" lon="3.82627">
        <ele>104.9</ele>
        <time>2021-01-03T12:43:05Z</time>
      </trkpt>
      <trkpt lat="43.6627" lon="3.82627">
        <ele>105.1</ele>
        <time>2021-01-03T12:43:06Z</time>
      </trkpt>
      <trkpt lat="43.66273" lon="3.82626">
        <ele>105.4</ele>
        <time>2021-01-03T12:43:08Z</time>
      </trkpt>
      <trkpt lat="43.66275" lon="3.82625">
        <ele>105.7</ele>
        <time>2021-01-03T12:43:10Z</time>
      </trkpt>
      <trkpt lat="43.66278" lon="3.82625">
        <ele>106</ele>
        <time>2021-01-03T12:43:12Z</time>
      </trkpt>
      <trkpt lat="43.66281" lon="3.82625">
        <ele>106.6</ele>
        <time>2021-01-03T12:43:14Z</time>
      </trkpt>
      <trkpt lat="43.66283" lon="3.82624">
        <ele>107.1</ele>
        <time>2021-01-03T12:43:16Z</time>
      </trkpt>
      <trkpt lat="43.66285" lon="3.82622">
        <ele>107.6</ele>
        <time>2021-01-03T12:43:18Z</time>
      </trkpt>
      <trkpt lat="43.66287" lon="3.82618">
        <ele>108.2</ele>
        <time>2021-01-03T12:43:20Z</time>
      </trkpt>
      <trkpt lat="43.66289" lon="3.82615">
        <ele>108.8</ele>
        <time>2021-01-03T12:43:22Z</time>
      </trkpt>
      <trkpt lat="43.66291" lon="3.82611">
        <ele>109.4</ele>
        <time>2021-01-03T12:43:24Z</time>
      </trkpt>
      <trkpt lat="43.66292" lon="3.82608">
        <ele>109.4</ele>
        <time>2021-01-03T12:43:25Z</time>
      </trkpt>
      <trkpt lat="43.66293" lon="3.82606">
        <ele>109.5</ele>
        <time>2021-01-03T12:43:26Z</time>
      </trkpt>
      <trkpt lat="43.66294" lon="3.82604">
        <ele>109.5</ele>
        <time>2021-01-03T12:43:27Z</time>
      </trkpt>
      <trkpt lat="43.66296" lon="3.826">
        <ele>112</ele>
        <time>2021-01-03T12:43:29Z</time>
      </trkpt>
      <trkpt lat="43.66295" lon="3.82598">
        <ele>109.3</ele>
        <time>2021-01-03T12:43:30Z</time>
      </trkpt>
      <trkpt lat="43.66295" lon="3.82594">
        <ele>109.1</ele>
        <time>2021-01-03T12:43:31Z</time>
      </trkpt>
      <trkpt lat="43.66294" lon="3.8259">
        <ele>108.7</ele>
        <time>2021-01-03T12:43:32Z</time>
      </trkpt>
      <trkpt lat="43.66294" lon="3.82586">
        <ele>108.5</ele>
        <time>2021-01-03T12:43:33Z</time>
      </trkpt>
      <trkpt lat="43.66294" lon="3.82582">
        <ele>108.3</ele>
        <time>2021-01-03T12:43:34Z</time>
      </trkpt>
      <trkpt lat="43.66294" lon="3.82579">
        <ele>108.3</ele>
        <time>2021-01-03T12:43:35Z</time>
      </trkpt>
      <trkpt lat="43.66295" lon="3.82575">
        <ele>108.4</ele>
        <time>2021-01-03T12:43:36Z</time>
      </trkpt>
      <trkpt lat="43.66295" lon="3.82572">
        <ele>108.3</ele>
        <time>2021-01-03T12:43:37Z</time>
      </trkpt>
      <trkpt lat="43.66297" lon="3.8257">
        <ele>108.6</ele>
        <time>2021-01-03T12:43:38Z</time>
      </trkpt>
      <trkpt lat="43.66298" lon="3.82568">
        <ele>113</ele>
        <time>2021-01-03T12:43:39Z</time>
      </trkpt>
      <trkpt lat="43.66299" lon="3.82567">
        <ele>108.9</ele>
        <time>2021-01-03T12:43:40Z</time>
      </trkpt>
      <trkpt lat="43.66302" lon="3.82564">
        <ele>109.4</ele>
        <time>2021-01-03T12:43:42Z</time>
      </trkpt>
      <trkpt lat="43.66303" lon="3.8256">
        <ele>109.6</ele>
        <time>2021-01-03T12:43:44Z</time>
      </trkpt>
      <trkpt lat="43.66303" lon="3.82555">
        <ele>109.5</ele>
        <time>2021-01-03T12:43:46Z</time>
      </trkpt>
      <trkpt lat="43.66303" lon="3.82552">
        <ele>109.3</ele>
        <time>2021-01-03T12:43:47Z</time>
      </trkpt>
      <trkpt lat="43.66302" lon="3.82548">
        <ele>108.9</ele>
        <time>2021-01-03T12:43:48Z</time>
      </trkpt>
      <trkpt lat="43.66301" lon="3.82544">
        <ele>113</ele>
        <time>2021-01-03T12:43:49Z</time>
      </trkpt>
      <trkpt lat="43.663" lon="3.82539">
        <ele>108</ele>
        <time>2021-01-03T12:43:50Z</time>
      </trkpt>
      <trkpt lat="43.663" lon="3.82535">
        <ele>107.8</ele>
        <time>2021-01-03T12:43:51Z</time>
      </trkpt>
      <trkpt lat="43.663" lon="3.8253">
        <ele>107.5</ele>
        <time>2021-01-03T12:43:52Z</time>
      </trkpt>
      <trkpt lat="43.66299" lon="3.82525">
        <ele>107.2</ele>
        <time>2021-01-03T12:43:53Z</time>
      </trkpt>
      <trkpt lat="43.66299" lon="3.82519">
        <ele>106.9</ele>
        <time>2021-01-03T12:43:54Z</time>
      </trkpt>
      <trkpt lat="43.66298" lon="3.82513">
        <ele>106.5</ele>
        <time>2021-01-03T12:43:55Z</time>
      </trkpt>
      <trkpt lat="43.66298" lon="3.82508">
        <ele>106.3</ele>
        <time>2021-01-03T12:43:56Z</time>
      </trkpt>
      <trkpt lat="43.66299" lon="3.82502">
        <ele>106.1</ele>
        <time>2021-01-03T12:43:57Z</time>
      </trkpt>
      <trkpt lat="43.663" lon="3.82497">
        <ele>106</ele>
        <time>2021-01-03T12:43:58Z</time>
      </trkpt>
      <trkpt lat="43.663" lon="3.82492">
        <ele>112</ele>
        <time>2021-01-03T12:43:59Z</time>
      </trkpt>
      <trkpt lat="43.66301" lon="3.82488">
        <ele>105.6</ele>
        <time>2021-01-03T12:44:00Z</time>
      </trkpt>
      <trkpt lat="43.66302" lon="3.82484">
        <ele>105.5</ele>
        <time>2021-01-03T12:44:01Z</time>
      </trkpt>
      <trkpt lat="43.66303" lon="3.82479">
        <ele>105.3</ele>
        <time>2021-01-03T12:44:02Z</time>
      </trkpt>
      <trkpt lat="43.66304" lon="3.82474">
        <ele>105</ele>
        <time>2021-01-03T12:44:03Z</time>
      </trkpt>
      <trkpt lat="43.66305" lon="3.82469">
        <ele>105</ele>
        <time>2021-01-03T12:44:04Z</time>
      </trkpt>
      <trkpt lat="43.66306" lon="3.82463">
        <ele>105.1</ele>
        <time>2021-01-03T12:44:05Z</time>
      </trkpt>
      <trkpt lat="43.66307" lon="3.82457">
        <ele>105.3</ele>
        <time>2021-01-03T12:44:06Z</time>
      </trkpt>
      <trkpt lat="43.66309" lon="3.82452">
        <ele>105.5</ele>
        <time>2021-01-03T12:44:07Z</time>
      </trkpt>
      <trkpt lat="43.66311" lon="3.8245">
        <ele>105.8</ele>
        <time>2021-01-03T12:44:08Z</time>
      </trkpt>
      <trkpt lat="43.66312" lon="3.82448">
        <ele>112</ele>
        <time>2021-01-03T12:44:09Z</time>
      </trkpt>
      <trkpt lat="43.66314" lon="3.82447">
        <ele>106.1</ele>
        <time>2021-01-03T12:44:10Z</time>
      </trkpt>
      <trkpt lat="43.66316" lon="3.82445">
        <ele>106.2</ele>
        <time>2021-01-03T12:44:11Z</time>
      </trkpt>
      <trkpt lat="43.66318" lon="3.82444">
        <ele>106.4</ele>
        <time>2021-01-03T12:44:12Z</time>
      </trkpt>
      <trkpt lat="43.66319" lon="3.82442">
        <ele>106.5</ele>
        <time>2021-01-03T12:44:13Z</time>
      </trkpt>
      <trkpt lat="43.66321" lon="3.82441">
        <ele>106.7</ele>
        <time>2021-01-03T12:44:14Z</time>
      </trkpt>
      <trkpt lat="43.66323" lon="3.82439">
        <ele>107</ele>
        <time>2021-01-03T12:44:15Z</time>
      </trkpt>
      <trkpt lat="43.66325" lon="3.82437">
        <ele>107.3</ele>
        <time>2021-01-03T12:44:16Z</time>
      </trkpt>
      <trkpt lat="43.66327" lon="3.82436">
        <ele>107.6</ele>
        <time>2021-01-03T12:44:17Z</time>
      </trkpt>
      <trkpt lat="43.66328" lon="3.82434">
        <ele>107.7</ele>
        <time>2021-01-03T12:44:18Z</time>
      </trkpt>
      <trkpt lat="43.6633" lon="3.82433">
        <ele>108</ele>
        <time>2021-01-03T12:44:19Z</time>
      </trkpt>
      <trkpt lat="43.66333" lon="3.82431">
        <ele>112</ele>
        <time>2021-01-03T12:44:20Z</time>
      </trkpt>
      <trkpt lat="43.66336" lon="3.8243">
        <ele>109.3</ele>
        <time>2021-01-03T12:44:22Z</time>
      </trkpt>
      <trkpt lat="43.66338" lon="3.82428">
        <ele>109.9</ele>
        <time>2021-01-03T12:44:24Z</time>
      </trkpt>
      <trkpt lat="43.6634" lon="3.82427">
        <ele>110.5</ele>
        <time>2021-01-03T12:44:26Z</time>
      </trkpt>
      <trkpt lat="43.66343" lon="3.82425">
        <ele>111.3</ele>
        <time>2021-01-03T12:44:28Z</time>
      </trkpt>
      <trkpt lat="43.66345" lon="3.82423">
        <ele>111.8</ele>
        <time>2021-01-03T12:44:31Z</time>
      </trkpt>
      <trkpt lat="43.66348" lon="3.82421">
        <ele>112.4</ele>
        <time>2021-01-03T12:44:33Z</time>
      </trkpt>
      <trkpt lat="43.6635" lon="3.8242">
        <ele>112.8</ele>
        <time>2021-01-03T12:44:35Z</time>
      </trkpt>
      <trkpt lat="43.66352" lon="3.82418">
        <ele>113.1</ele>
        <time>2021-01-03T12:44:37Z</time>
      </trkpt>
      <trkpt lat="43.66354" lon="3.82416">
        <ele>114</ele>
        <time>2021-01-03T12:44:39Z</time>
      </trkpt>
      <trkpt lat="43.66356" lon="3.82414">
        <ele>113.7</ele>
        <time>2021-01-03T12:44:41Z</time>
      </trkpt>
      <trkpt lat="43.66358" lon="3.82413">
        <ele>114.1</ele>
        <time>2021-01-03T12:44:43Z</time>
      </trkpt>
      <trkpt lat="43.66361" lon="3.82411">
        <ele>114.6</ele>
        <time>2021-01-03T12:44:45Z</time>
      </trkpt>
      <trkpt lat="43.66363" lon="3.82409">
        <ele>114.9</ele>
        <time>2021-01-03T12:44:47Z</time>
      </trkpt>
      <trkpt lat="43.66364" lon="3.82407">
        <ele>116</ele>
        <time>2021-01-03T12:44:49Z</time>
      </trkpt>
      <trkpt lat="43.66366" lon="3.82403">
        <ele>115.1</ele>
        <time>2021-01-03T12:44:51Z</time>
      </trkpt>
      <trkpt lat="43.66366" lon="3.824">
        <ele>114.8</ele>
        <time>2021-01-03T12:44:52Z</time>
      </trkpt>
      <trkpt lat="43.66365" lon="3.82396">
        <ele>114.3</ele>
        <time>2021-01-03T12:44:53Z</time>
      </trkpt>
      <trkpt lat="43.66364" lon="3.82392">
        <ele>113.8</ele>
        <time>2021-01-03T12:44:54Z</time>
      </trkpt>
      <trkpt lat="43.66362" lon="3.82387">
        <ele>113.2</ele>
        <time>2021-01-03T12:44:55Z</time>
      </trkpt>
      <trkpt lat="43.66361" lon="3.82381">
        <ele>113.3</ele>
        <time>2021-01-03T12:44:56Z</time>
      </trkpt>
      <trkpt lat="43.66359" lon="3.82374">
        <ele>113.2</ele>
        <time>2021-01-03T12:44:57Z</time>
      </trkpt>
      <trkpt lat="43.66356" lon="3.82368">
        <ele>112.8</ele>
        <time>2021-01-03T12:44:58Z</time>
      </trkpt>
      <trkpt lat="43.66354" lon="3.82364">
        <ele>117</ele>
        <time>2021-01-03T12:44:59Z</time>
      </trkpt>
      <trkpt lat="43.66351" lon="3.82359">
        <ele>112.4</ele>
        <time>2021-01-03T12:45:00Z</time>
      </trkpt>
      <trkpt lat="43.66348" lon="3.82354">
        <ele>112.4</ele>
        <time>2021-01-03T12:45:01Z</time>
      </trkpt>
      <trkpt lat="43.66346" lon="3.82349">
        <ele>112.5</ele>
        <time>2021-01-03T12:45:02Z</time>
      </trkpt>
      <trkpt lat="43.66343" lon="3.82345">
        <ele>112.3</ele>
        <time>2021-01-03T12:45:03Z</time>
      </trkpt>
      <trkpt lat="43.6634" lon="3.82342">
        <ele>111.9</ele>
        <time>2021-01-03T12:45:04Z</time>
      </trkpt>
      <trkpt lat="43.66337" lon="3.82339">
        <ele>111.5</ele>
        <time>2021-01-03T12:45:05Z</time>
      </trkpt>
      <trkpt lat="43.66334" lon="3.82334">
        <ele>111.1</ele>
        <time>2021-01-03T12:45:06Z</time>
      </trkpt>
      <trkpt lat="43.66331" lon="3.82329">
        <ele>110.9</ele>
        <time>2021-01-03T12:45:07Z</time>
      </trkpt>
      <trkpt lat="43.66329" lon="3.82322">
        <ele>111</ele>
        <time>2021-01-03T12:45:08Z</time>
      </trkpt>
      <trkpt lat="43.66326" lon="3.82316">
        <ele>116</ele>
        <time>2021-01-03T12:45:09Z</time>
      </trkpt>
      <trkpt lat="43.66323" lon="3.82311">
        <ele>110.7</ele>
        <time>2021-01-03T12:45:10Z</time>
      </trkpt>
      <trkpt lat="43.66322" lon="3.82306">
        <ele>110.9</ele>
        <time>2021-01-03T12:45:11Z</time>
      </trkpt>
      <trkpt lat="43.6632" lon="3.82301">
        <ele>111</ele>
        <time>2021-01-03T12:45:12Z</time>
      </trkpt>
      <trkpt lat="43.66318" lon="3.82297">
        <ele>111</ele>
        <time>2021-01-03T12:45:13Z</time>
      </trkpt>
      <trkpt lat="43.66317" lon="3.82293">
        <ele>111.2</ele>
        <time>2021-01-03T12:45:14Z</time>
      </trkpt>
      <trkpt lat="43.66316" lon="3.82289">
        <ele>111.3</ele>
        <time>2021-01-03T12:45:15Z</time>
      </trkpt>
      <trkpt lat="43.66315" lon="3.82285">
        <ele>111.4</ele>
        <time>2021-01-03T12:45:16Z</time>
      </trkpt>
      <trkpt lat="43.66314" lon="3.82281">
        <ele>111.6</ele>
        <time>2021-01-03T12:45:17Z</time>
      </trkpt>
      <trkpt lat="43.66313" lon="3.82277">
        <ele>111.7</ele>
        <time>2021-01-03T12:45:18Z</time>
      </trkpt>
      <trkpt lat="43.66313" lon="3.82273">
        <ele>117</ele>
        <time>2021-01-03T12:45:19Z</time>
      </trkpt>
      <trkpt lat="43.66313" lon="3.82269">
        <ele>112.1</ele>
        <time>2021-01-03T12:45:20Z</time>
      </trkpt>
      <trkpt lat="43.66312" lon="3.82265">
        <ele>112.1</ele>
        <time>2021-01-03T12:45:21Z</time>
      </trkpt>
      <trkpt lat="43.66312" lon="3.82262">
        <ele>112.2</ele>
        <time>2021-01-03T12:45:22Z</time>
      </trkpt>
      <trkpt lat="43.66312" lon="3.82258">
        <ele>112.4</ele>
        <time>2021-01-03T12:45:23Z</time>
      </trkpt>
      <trkpt lat="43.66312" lon="3.82255">
        <ele>112.6</ele>
        <time>2021-01-03T12:45:24Z</time>
      </trkpt>
      <trkpt lat="43.66312" lon="3.82251">
        <ele>112.8</ele>
        <time>2021-01-03T12:45:25Z</time>
      </trkpt>
      <trkpt lat="43.66311" lon="3.82248">
        <ele>112.7</ele>
        <time>2021-01-03T12:45:26Z</time>
      </trkpt>
      <trkpt lat="43.66311" lon="3.82244">
        <ele>112.9</ele>
        <time>2021-01-03T12:45:27Z</time>
      </trkpt>
      <trkpt lat="43.6631" lon="3.82241">
        <ele>112.8</ele>
        <time>2021-01-03T12:45:28Z</time>
      </trkpt>
      <trkpt lat="43.6631" lon="3.82237">
        <ele>118</ele>
        <time>2021-01-03T12:45:29Z</time>
      </trkpt>
      <trkpt lat="43.6631" lon="3.82233">
        <ele>113.3</ele>
        <time>2021-01-03T12:45:30Z</time>
      </trkpt>
      <trkpt lat="43.66311" lon="3.8223">
        <ele>113.7</ele>
        <time>2021-01-03T12:45:31Z</time>
      </trkpt>
      <trkpt lat="43.6631" lon="3.82227">
        <ele>113.7</ele>
        <time>2021-01-03T12:45:32Z</time>
      </trkpt>
      <trkpt lat="43.6631" lon="3.82224">
        <ele>113.9</ele>
        <time>2021-01-03T12:45:33Z</time>
      </trkpt>
      <trkpt lat="43.6631" lon="3.8222">
        <ele>114.1</ele>
        <time>2021-01-03T12:45:34Z</time>
      </trkpt>
      <trkpt lat="43.66309" lon="3.82217">
        <ele>114</ele>
        <time>2021-01-03T12:45:35Z</time>
      </trkpt>
      <trkpt lat="43.66309" lon="3.82214">
        <ele>114.1</ele>
        <time>2021-01-03T12:45:36Z</time>
      </trkpt>
      <trkpt lat="43.66308" lon="3.8221">
        <ele>114</ele>
        <time>2021-01-03T12:45:37Z</time>
      </trkpt>
      <trkpt lat="43.66307" lon="3.82206">
        <ele>114</ele>
        <time>2021-01-03T12:45:38Z</time>
      </trkpt>
      <trkpt lat="43.66307" lon="3.82203">
        <ele>118</ele>
        <time>2021-01-03T12:45:39Z</time>
      </trkpt>
      <trkpt lat="43.66306" lon="3.82199">
        <ele>114</ele>
        <time>2021-01-03T12:45:40Z</time>
      </trkpt>
      <trkpt lat="43.66305" lon="3.82196">
        <ele>113.8</ele>
        <time>2021-01-03T12:45:41Z</time>
      </trkpt>
      <trkpt lat="43.66304" lon="3.82192">
        <ele>114</ele>
        <time>2021-01-03T12:45:42Z</time>
      </trkpt>
      <trkpt lat="43.66304" lon="3.82189">
        <ele>114.3</ele>
        <time>2021-01-03T12:45:43Z</time>
      </trkpt>
      <trkpt lat="43.66303" lon="3.82185">
        <ele>114.5</ele>
        <time>2021-01-03T12:45:44Z</time>
      </trkpt>
      <trkpt lat="43.66302" lon="3.82182">
        <ele>114.6</ele>
        <time>2021-01-03T12:45:45Z</time>
      </trkpt>
      <trkpt lat="43.66301" lon="3.82179">
        <ele>114.7</ele>
        <time>2021-01-03T12:45:46Z</time>
      </trkpt>
      <trkpt lat="43.663" lon="3.82176">
        <ele>114.7</ele>
        <time>2021-01-03T12:45:47Z</time>
      </trkpt>
      <trkpt lat="43.66299" lon="3.82173">
        <ele>114.8</ele>
        <time>2021-01-03T12:45:48Z</time>
      </trkpt>
      <trkpt lat="43.66298" lon="3.82169">
        <ele>119</ele>
        <time>2021-01-03T12:45:49Z</time>
      </trkpt>
      <trkpt lat="43.66296" lon="3.82166">
        <ele>114.6</ele>
        <time>2021-01-03T12:45:50Z</time>
      </trkpt>
      <trkpt lat="43.66294" lon="3.82163">
        <ele>114.3</ele>
        <time>2021-01-03T12:45:51Z</time>
      </trkpt>
      <trkpt lat="43.66292" lon="3.82159">
        <ele>114</ele>
        <time>2021-01-03T12:45:52Z</time>
      </trkpt>
      <trkpt lat="43.66289" lon="3.82155">
        <ele>113.4</ele>
        <time>2021-01-03T12:45:53Z</time>
      </trkpt>
      <trkpt lat="43.66286" lon="3.82151">
        <ele>112.8</ele>
        <time>2021-01-03T12:45:54Z</time>
      </trkpt>
      <trkpt lat="43.66282" lon="3.82145">
        <ele>112</ele>
        <time>2021-01-03T12:45:55Z</time>
      </trkpt>
      <trkpt lat="43.6628" lon="3.82139">
        <ele>111.6</ele>
        <time>2021-01-03T12:45:56Z</time>
      </trkpt>
      <trkpt lat="43.66277" lon="3.82132">
        <ele>111.3</ele>
        <time>2021-01-03T12:45:57Z</time>
      </trkpt>
      <trkpt lat="43.66274" lon="3.82125">
        <ele>111.2</ele>
        <time>2021-01-03T12:45:58Z</time>
      </trkpt>
      <trkpt lat="43.66272" lon="3.82119">
        <ele>118</ele>
        <time>2021-01-03T12:45:59Z</time>
      </trkpt>
      <trkpt lat="43.6627" lon="3.82112">
        <ele>111.3</ele>
        <time>2021-01-03T12:46:00Z</time>
      </trkpt>
      <trkpt lat="43.66268" lon="3.82107">
        <ele>111.2</ele>
        <time>2021-01-03T12:46:01Z</time>
      </trkpt>
      <trkpt lat="43.66267" lon="3.82102">
        <ele>111.3</ele>
        <time>2021-01-03T12:46:02Z</time>
      </trkpt>
      <trkpt lat="43.66265" lon="3.82096">
        <ele>111.1</ele>
        <time>2021-01-03T12:46:03Z</time>
      </trkpt>
      <trkpt lat="43.66262" lon="3.8209">
        <ele>110.6</ele>
        <time>2021-01-03T12:46:04Z</time>
      </trkpt>
      <trkpt lat="43.66259" lon="3.82083">
        <ele>109.9</ele>
        <time>2021-01-03T12:46:05Z</time>
      </trkpt>
      <trkpt lat="43.66256" lon="3.82075">
        <ele>109.7</ele>
        <time>2021-01-03T12:46:06Z</time>
      </trkpt>
      <trkpt lat="43.66252" lon="3.82068">
        <ele>108.8</ele>
        <time>2021-01-03T12:46:07Z</time>
      </trkpt>
      <trkpt lat="43.66249" lon="3.8206">
        <ele>108.5</ele>
        <time>2021-01-03T12:46:08Z</time>
      </trkpt>
      <trkpt lat="43.66244" lon="3.82045">
        <ele>118</ele>
        <time>2021-01-03T12:46:09Z</time>
      </trkpt>
      <trkpt lat="43.66243" lon="3.82039">
        <ele>109.3</ele>
        <time>2021-01-03T12:46:10Z</time>
      </trkpt>
      <trkpt lat="43.66242" lon="3.82035">
        <ele>109.5</ele>
        <time>2021-01-03T12:46:11Z</time>
      </trkpt>
      <trkpt lat="43.66241" lon="3.8203">
        <ele>109.8</ele>
        <time>2021-01-03T12:46:12Z</time>
      </trkpt>
      <trkpt lat="43.66236" lon="3.82023">
        <ele>109.5</ele>
        <time>2021-01-03T12:46:14Z</time>
      </trkpt>
      <trkpt lat="43.66233" lon="3.82019">
        <ele>109.2</ele>
        <time>2021-01-03T12:46:15Z</time>
      </trkpt>
      <trkpt lat="43.66229" lon="3.82016">
        <ele>108.5</ele>
        <time>2021-01-03T12:46:16Z</time>
      </trkpt>
      <trkpt lat="43.66224" lon="3.82011">
        <ele>107.7</ele>
        <time>2021-01-03T12:46:17Z</time>
      </trkpt>
      <trkpt lat="43.6622" lon="3.82008">
        <ele>107</ele>
        <time>2021-01-03T12:46:18Z</time>
      </trkpt>
      <trkpt lat="43.66216" lon="3.82004">
        <ele>106.4</ele>
        <time>2021-01-03T12:46:20Z</time>
      </trkpt>
      <trkpt lat="43.66211" lon="3.82001">
        <ele>105.5</ele>
        <time>2021-01-03T12:46:21Z</time>
      </trkpt>
      <trkpt lat="43.66206" lon="3.81997">
        <ele>104.7</ele>
        <time>2021-01-03T12:46:22Z</time>
      </trkpt>
      <trkpt lat="43.66202" lon="3.81993">
        <ele>104.1</ele>
        <time>2021-01-03T12:46:23Z</time>
      </trkpt>
      <trkpt lat="43.662" lon="3.81987">
        <ele>104.1</ele>
        <time>2021-01-03T12:46:24Z</time>
      </trkpt>
      <trkpt lat="43.662" lon="3.81982">
        <ele>104.5</ele>
        <time>2021-01-03T12:46:25Z</time>
      </trkpt>
      <trkpt lat="43.662" lon="3.81978">
        <ele>104.8</ele>
        <time>2021-01-03T12:46:26Z</time>
      </trkpt>
      <trkpt lat="43.66202" lon="3.81974">
        <ele>105.5</ele>
        <time>2021-01-03T12:46:27Z</time>
      </trkpt>
      <trkpt lat="43.66203" lon="3.81971">
        <ele>105.9</ele>
        <time>2021-01-03T12:46:28Z</time>
      </trkpt>
      <trkpt lat="43.66204" lon="3.81967">
        <ele>116</ele>
        <time>2021-01-03T12:46:29Z</time>
      </trkpt>
      <trkpt lat="43.66205" lon="3.81964">
        <ele>106.6</ele>
        <time>2021-01-03T12:46:30Z</time>
      </trkpt>
      <trkpt lat="43.66205" lon="3.81961">
        <ele>106.7</ele>
        <time>2021-01-03T12:46:31Z</time>
      </trkpt>
      <trkpt lat="43.66205" lon="3.81957">
        <ele>106.8</ele>
        <time>2021-01-03T12:46:32Z</time>
      </trkpt>
      <trkpt lat="43.66205" lon="3.81954">
        <ele>106.9</ele>
        <time>2021-01-03T12:46:33Z</time>
      </trkpt>
      <trkpt lat="43.66205" lon="3.8195">
        <ele>107.1</ele>
        <time>2021-01-03T12:46:34Z</time>
      </trkpt>
      <trkpt lat="43.66205" lon="3.81946">
        <ele>107.2</ele>
        <time>2021-01-03T12:46:35Z</time>
      </trkpt>
      <trkpt lat="43.66205" lon="3.81943">
        <ele>107.3</ele>
        <time>2021-01-03T12:46:36Z</time>
      </trkpt>
      <trkpt lat="43.66205" lon="3.81939">
        <ele>107.3</ele>
        <time>2021-01-03T12:46:37Z</time>
      </trkpt>
      <trkpt lat="43.66206" lon="3.81935">
        <ele>107.5</ele>
        <time>2021-01-03T12:46:38Z</time>
      </trkpt>
      <trkpt lat="43.66206" lon="3.81931">
        <ele>117</ele>
        <time>2021-01-03T12:46:39Z</time>
      </trkpt>
      <trkpt lat="43.66207" lon="3.81928">
        <ele>107.7</ele>
        <time>2021-01-03T12:46:40Z</time>
      </trkpt>
      <trkpt lat="43.66207" lon="3.81925">
        <ele>107.7</ele>
        <time>2021-01-03T12:46:41Z</time>
      </trkpt>
      <trkpt lat="43.66208" lon="3.81922">
        <ele>107.9</ele>
        <time>2021-01-03T12:46:42Z</time>
      </trkpt>
      <trkpt lat="43.66209" lon="3.81919">
        <ele>108.1</ele>
        <time>2021-01-03T12:46:43Z</time>
      </trkpt>
      <trkpt lat="43.6621" lon="3.81916">
        <ele>108.3</ele>
        <time>2021-01-03T12:46:44Z</time>
      </trkpt>
      <trkpt lat="43.66211" lon="3.81913">
        <ele>108.4</ele>
        <time>2021-01-03T12:46:45Z</time>
      </trkpt>
      <trkpt lat="43.66211" lon="3.8191">
        <ele>108.3</ele>
        <time>2021-01-03T12:46:46Z</time>
      </trkpt>
      <trkpt lat="43.66212" lon="3.81907">
        <ele>108.4</ele>
        <time>2021-01-03T12:46:47Z</time>
      </trkpt>
      <trkpt lat="43.66213" lon="3.81903">
        <ele>108.5</ele>
        <time>2021-01-03T12:46:48Z</time>
      </trkpt>
      <trkpt lat="43.66213" lon="3.819">
        <ele>118</ele>
        <time>2021-01-03T12:46:49Z</time>
      </trkpt>
      <trkpt lat="43.66214" lon="3.81897">
        <ele>108.5</ele>
        <time>2021-01-03T12:46:50Z</time>
      </trkpt>
      <trkpt lat="43.66214" lon="3.81894">
        <ele>108.4</ele>
        <time>2021-01-03T12:46:51Z</time>
      </trkpt>
      <trkpt lat="43.66215" lon="3.81891">
        <ele>108.5</ele>
        <time>2021-01-03T12:46:52Z</time>
      </trkpt>
      <trkpt lat="43.66215" lon="3.81887">
        <ele>108.5</ele>
        <time>2021-01-03T12:46:53Z</time>
      </trkpt>
      <trkpt lat="43.66215" lon="3.81884">
        <ele>108.5</ele>
        <time>2021-01-03T12:46:54Z</time>
      </trkpt>
      <trkpt lat="43.66214" lon="3.8188">
        <ele>108.4</ele>
        <time>2021-01-03T12:46:55Z</time>
      </trkpt>
      <trkpt lat="43.66214" lon="3.81876">
        <ele>108.5</ele>
        <time>2021-01-03T12:46:56Z</time>
      </trkpt>
      <trkpt lat="43.66214" lon="3.81873">
        <ele>108.6</ele>
        <time>2021-01-03T12:46:57Z</time>
      </trkpt>
      <trkpt lat="43.66214" lon="3.81869">
        <ele>108.6</ele>
        <time>2021-01-03T12:46:58Z</time>
      </trkpt>
      <trkpt lat="43.66215" lon="3.81865">
        <ele>119</ele>
        <time>2021-01-03T12:46:59Z</time>
      </trkpt>
      <trkpt lat="43.66216" lon="3.81861">
        <ele>109.1</ele>
        <time>2021-01-03T12:47:00Z</time>
      </trkpt>
      <trkpt lat="43.66217" lon="3.81857">
        <ele>109.2</ele>
        <time>2021-01-03T12:47:01Z</time>
      </trkpt>
      <trkpt lat="43.66218" lon="3.81853">
        <ele>109.3</ele>
        <time>2021-01-03T12:47:02Z</time>
      </trkpt>
      <trkpt lat="43.66218" lon="3.81851">
        <ele>109.3</ele>
        <time>2021-01-03T12:47:03Z</time>
      </trkpt>
      <trkpt lat="43.66219" lon="3.81848">
        <ele>109.5</ele>
        <time>2021-01-03T12:47:06Z</time>
      </trkpt>
      <trkpt lat="43.6622" lon="3.81845">
        <ele>109.6</ele>
        <time>2021-01-03T12:47:08Z</time>
      </trkpt>
      <trkpt lat="43.66223" lon="3.81842">
        <ele>110.2</ele>
        <time>2021-01-03T12:47:10Z</time>
      </trkpt>
      <trkpt lat="43.66224" lon="3.81839">
        <ele>110.5</ele>
        <time>2021-01-03T12:47:12Z</time>
      </trkpt>
      <trkpt lat="43.66224" lon="3.81835">
        <ele>110.5</ele>
        <time>2021-01-03T12:47:14Z</time>
      </trkpt>
      <trkpt lat="43.66224" lon="3.8183">
        <ele>110.5</ele>
        <time>2021-01-03T12:47:16Z</time>
      </trkpt>
      <trkpt lat="43.66223" lon="3.81826">
        <ele>110.2</ele>
        <time>2021-01-03T12:47:17Z</time>
      </trkpt>
      <trkpt lat="43.66222" lon="3.81822">
        <ele>110</ele>
        <time>2021-01-03T12:47:18Z</time>
      </trkpt>
      <trkpt lat="43.66222" lon="3.81818">
        <ele>119</ele>
        <time>2021-01-03T12:47:19Z</time>
      </trkpt>
      <trkpt lat="43.66221" lon="3.81813">
        <ele>109.8</ele>
        <time>2021-01-03T12:47:20Z</time>
      </trkpt>
      <trkpt lat="43.66221" lon="3.81808">
        <ele>109.8</ele>
        <time>2021-01-03T12:47:21Z</time>
      </trkpt>
      <trkpt lat="43.66222" lon="3.81804">
        <ele>110</ele>
        <time>2021-01-03T12:47:22Z</time>
      </trkpt>
      <trkpt lat="43.66223" lon="3.818">
        <ele>110.5</ele>
        <time>2021-01-03T12:47:23Z</time>
      </trkpt>
      <trkpt lat="43.66223" lon="3.81796">
        <ele>110.6</ele>
        <time>2021-01-03T12:47:24Z</time>
      </trkpt>
      <trkpt lat="43.66222" lon="3.81793">
        <ele>110.4</ele>
        <time>2021-01-03T12:47:25Z</time>
      </trkpt>
      <trkpt lat="43.66222" lon="3.81789">
        <ele>110.6</ele>
        <time>2021-01-03T12:47:26Z</time>
      </trkpt>
      <trkpt lat="43.66223" lon="3.81786">
        <ele>111</ele>
        <time>2021-01-03T12:47:27Z</time>
      </trkpt>
      <trkpt lat="43.66224" lon="3.81782">
        <ele>111.4</ele>
        <time>2021-01-03T12:47:28Z</time>
      </trkpt>
      <trkpt lat="43.66224" lon="3.81779">
        <ele>111.5</ele>
        <time>2021-01-03T12:47:29Z</time>
      </trkpt>
      <trkpt lat="43.66225" lon="3.81777">
        <ele>119</ele>
        <time>2021-01-03T12:47:30Z</time>
      </trkpt>
      <trkpt lat="43.66226" lon="3.81773">
        <ele>112.3</ele>
        <time>2021-01-03T12:47:31Z</time>
      </trkpt>
      <trkpt lat="43.66227" lon="3.81768">
        <ele>112.7</ele>
        <time>2021-01-03T12:47:33Z</time>
      </trkpt>
      <trkpt lat="43.66227" lon="3.81764">
        <ele>112.7</ele>
        <time>2021-01-03T12:47:35Z</time>
      </trkpt>
      <trkpt lat="43.66226" lon="3.81761">
        <ele>112.4</ele>
        <time>2021-01-03T12:47:36Z</time>
      </trkpt>
      <trkpt lat="43.66226" lon="3.81758">
        <ele>112.4</ele>
        <time>2021-01-03T12:47:37Z</time>
      </trkpt>
      <trkpt lat="43.66226" lon="3.81755">
        <ele>112.4</ele>
        <time>2021-01-03T12:47:38Z</time>
      </trkpt>
      <trkpt lat="43.66225" lon="3.81751">
        <ele>112.1</ele>
        <time>2021-01-03T12:47:40Z</time>
      </trkpt>
      <trkpt lat="43.66224" lon="3.81747">
        <ele>111.9</ele>
        <time>2021-01-03T12:47:41Z</time>
      </trkpt>
      <trkpt lat="43.66224" lon="3.81742">
        <ele>112.2</ele>
        <time>2021-01-03T12:47:42Z</time>
      </trkpt>
      <trkpt lat="43.66223" lon="3.81738">
        <ele>112.1</ele>
        <time>2021-01-03T12:47:43Z</time>
      </trkpt>
      <trkpt lat="43.66222" lon="3.81733">
        <ele>112.2</ele>
        <time>2021-01-03T12:47:44Z</time>
      </trkpt>
      <trkpt lat="43.66222" lon="3.81729">
        <ele>112.4</ele>
        <time>2021-01-03T12:47:45Z</time>
      </trkpt>
      <trkpt lat="43.66222" lon="3.81725">
        <ele>112.7</ele>
        <time>2021-01-03T12:47:46Z</time>
      </trkpt>
      <trkpt lat="43.66221" lon="3.81721">
        <ele>112.6</ele>
        <time>2021-01-03T12:47:47Z</time>
      </trkpt>
      <trkpt lat="43.6622" lon="3.81718">
        <ele>112.4</ele>
        <time>2021-01-03T12:47:48Z</time>
      </trkpt>
      <trkpt lat="43.66219" lon="3.81714">
        <ele>120</ele>
        <time>2021-01-03T12:47:49Z</time>
      </trkpt>
      <trkpt lat="43.66218" lon="3.81709">
        <ele>111.9</ele>
        <time>2021-01-03T12:47:50Z</time>
      </trkpt>
      <trkpt lat="43.66218" lon="3.81706">
        <ele>111.9</ele>
        <time>2021-01-03T12:47:51Z</time>
      </trkpt>
      <trkpt lat="43.66218" lon="3.81701">
        <ele>111.9</ele>
        <time>2021-01-03T12:47:52Z</time>
      </trkpt>
      <trkpt lat="43.66218" lon="3.81698">
        <ele>111.9</ele>
        <time>2021-01-03T12:47:53Z</time>
      </trkpt>
      <trkpt lat="43.66218" lon="3.81695">
        <ele>111.9</ele>
        <time>2021-01-03T12:47:54Z</time>
      </trkpt>
      <trkpt lat="43.66217" lon="3.81692">
        <ele>111.7</ele>
        <time>2021-01-03T12:47:55Z</time>
      </trkpt>
      <trkpt lat="43.66218" lon="3.81688">
        <ele>112.1</ele>
        <time>2021-01-03T12:47:56Z</time>
      </trkpt>
      <trkpt lat="43.66218" lon="3.81685">
        <ele>112.2</ele>
        <time>2021-01-03T12:47:57Z</time>
      </trkpt>
      <trkpt lat="43.66218" lon="3.81682">
        <ele>112.2</ele>
        <time>2021-01-03T12:47:58Z</time>
      </trkpt>
      <trkpt lat="43.66218" lon="3.81678">
        <ele>121</ele>
        <time>2021-01-03T12:47:59Z</time>
      </trkpt>
      <trkpt lat="43.66218" lon="3.81675">
        <ele>112.4</ele>
        <time>2021-01-03T12:48:00Z</time>
      </trkpt>
      <trkpt lat="43.66219" lon="3.81671">
        <ele>112.8</ele>
        <time>2021-01-03T12:48:01Z</time>
      </trkpt>
      <trkpt lat="43.66219" lon="3.81669">
        <ele>112.9</ele>
        <time>2021-01-03T12:48:02Z</time>
      </trkpt>
      <trkpt lat="43.66219" lon="3.81666">
        <ele>112.9</ele>
        <time>2021-01-03T12:48:03Z</time>
      </trkpt>
      <trkpt lat="43.66217" lon="3.81664">
        <ele>112.2</ele>
        <time>2021-01-03T12:48:04Z</time>
      </trkpt>
      <trkpt lat="43.66216" lon="3.8166">
        <ele>111.7</ele>
        <time>2021-01-03T12:48:05Z</time>
      </trkpt>
      <trkpt lat="43.66215" lon="3.81655">
        <ele>111.2</ele>
        <time>2021-01-03T12:48:06Z</time>
      </trkpt>
      <trkpt lat="43.66214" lon="3.81651">
        <ele>110.8</ele>
        <time>2021-01-03T12:48:07Z</time>
      </trkpt>
      <trkpt lat="43.66214" lon="3.81646">
        <ele>110.6</ele>
        <time>2021-01-03T12:48:08Z</time>
      </trkpt>
      <trkpt lat="43.66213" lon="3.8164">
        <ele>121</ele>
        <time>2021-01-03T12:48:09Z</time>
      </trkpt>
      <trkpt lat="43.66214" lon="3.81635">
        <ele>110.2</ele>
        <time>2021-01-03T12:48:10Z</time>
      </trkpt>
      <trkpt lat="43.66215" lon="3.8163">
        <ele>110.4</ele>
        <time>2021-01-03T12:48:11Z</time>
      </trkpt>
      <trkpt lat="43.66216" lon="3.81626">
        <ele>110.6</ele>
        <time>2021-01-03T12:48:12Z</time>
      </trkpt>
      <trkpt lat="43.66217" lon="3.81621">
        <ele>110.8</ele>
        <time>2021-01-03T12:48:13Z</time>
      </trkpt>
      <trkpt lat="43.66216" lon="3.81618">
        <ele>110.4</ele>
        <time>2021-01-03T12:48:14Z</time>
      </trkpt>
      <trkpt lat="43.66215" lon="3.81615">
        <ele>110</ele>
        <time>2021-01-03T12:48:15Z</time>
      </trkpt>
      <trkpt lat="43.66213" lon="3.81612">
        <ele>109.4</ele>
        <time>2021-01-03T12:48:16Z</time>
      </trkpt>
      <trkpt lat="43.66212" lon="3.81608">
        <ele>108.9</ele>
        <time>2021-01-03T12:48:17Z</time>
      </trkpt>
      <trkpt lat="43.66211" lon="3.81604">
        <ele>108.5</ele>
        <time>2021-01-03T12:48:18Z</time>
      </trkpt>
      <trkpt lat="43.66211" lon="3.816">
        <ele>120</ele>
        <time>2021-01-03T12:48:19Z</time>
      </trkpt>
      <trkpt lat="43.66211" lon="3.81596">
        <ele>108.2</ele>
        <time>2021-01-03T12:48:20Z</time>
      </trkpt>
      <trkpt lat="43.66211" lon="3.81592">
        <ele>108.1</ele>
        <time>2021-01-03T12:48:21Z</time>
      </trkpt>
      <trkpt lat="43.66211" lon="3.81587">
        <ele>107.9</ele>
        <time>2021-01-03T12:48:22Z</time>
      </trkpt>
      <trkpt lat="43.6621" lon="3.81584">
        <ele>107.5</ele>
        <time>2021-01-03T12:48:23Z</time>
      </trkpt>
      <trkpt lat="43.66209" lon="3.81581">
        <ele>107.2</ele>
        <time>2021-01-03T12:48:24Z</time>
      </trkpt>
      <trkpt lat="43.66208" lon="3.81579">
        <ele>106.9</ele>
        <time>2021-01-03T12:48:25Z</time>
      </trkpt>
      <trkpt lat="43.66206" lon="3.81577">
        <ele>106.3</ele>
        <time>2021-01-03T12:48:26Z</time>
      </trkpt>
      <trkpt lat="43.66204" lon="3.81574">
        <ele>105.6</ele>
        <time>2021-01-03T12:48:27Z</time>
      </trkpt>
      <trkpt lat="43.66202" lon="3.81571">
        <ele>105</ele>
        <time>2021-01-03T12:48:28Z</time>
      </trkpt>
      <trkpt lat="43.66201" lon="3.81568">
        <ele>118</ele>
        <time>2021-01-03T12:48:29Z</time>
      </trkpt>
      <trkpt lat="43.66202" lon="3.81563">
        <ele>104.8</ele>
        <time>2021-01-03T12:48:30Z</time>
      </trkpt>
      <trkpt lat="43.66203" lon="3.81558">
        <ele>105.1</ele>
        <time>2021-01-03T12:48:31Z</time>
      </trkpt>
      <trkpt lat="43.66204" lon="3.81553">
        <ele>105.5</ele>
        <time>2021-01-03T12:48:32Z</time>
      </trkpt>
      <trkpt lat="43.66204" lon="3.81548">
        <ele>105.6</ele>
        <time>2021-01-03T12:48:33Z</time>
      </trkpt>
      <trkpt lat="43.66204" lon="3.81544">
        <ele>105.7</ele>
        <time>2021-01-03T12:48:34Z</time>
      </trkpt>
      <trkpt lat="43.66203" lon="3.81541">
        <ele>105.4</ele>
        <time>2021-01-03T12:48:35Z</time>
      </trkpt>
      <trkpt lat="43.66202" lon="3.81538">
        <ele>105.2</ele>
        <time>2021-01-03T12:48:36Z</time>
      </trkpt>
      <trkpt lat="43.66201" lon="3.81534">
        <ele>105</ele>
        <time>2021-01-03T12:48:37Z</time>
      </trkpt>
      <trkpt lat="43.66199" lon="3.81532">
        <ele>104.3</ele>
        <time>2021-01-03T12:48:38Z</time>
      </trkpt>
      <trkpt lat="43.66198" lon="3.81528">
        <ele>104.1</ele>
        <time>2021-01-03T12:48:39Z</time>
      </trkpt>
      <trkpt lat="43.66197" lon="3.81526">
        <ele>116</ele>
        <time>2021-01-03T12:48:40Z</time>
      </trkpt>
      <trkpt lat="43.66196" lon="3.81522">
        <ele>103.5</ele>
        <time>2021-01-03T12:48:41Z</time>
      </trkpt>
      <trkpt lat="43.66195" lon="3.81519">
        <ele>103.2</ele>
        <time>2021-01-03T12:48:42Z</time>
      </trkpt>
      <trkpt lat="43.66194" lon="3.81517">
        <ele>102.9</ele>
        <time>2021-01-03T12:48:43Z</time>
      </trkpt>
      <trkpt lat="43.66193" lon="3.81514">
        <ele>102.7</ele>
        <time>2021-01-03T12:48:44Z</time>
      </trkpt>
      <trkpt lat="43.66191" lon="3.81512">
        <ele>102.3</ele>
        <time>2021-01-03T12:48:45Z</time>
      </trkpt>
      <trkpt lat="43.6619" lon="3.81508">
        <ele>102.1</ele>
        <time>2021-01-03T12:48:46Z</time>
      </trkpt>
      <trkpt lat="43.66189" lon="3.81504">
        <ele>101.9</ele>
        <time>2021-01-03T12:48:47Z</time>
      </trkpt>
      <trkpt lat="43.66188" lon="3.815">
        <ele>101.6</ele>
        <time>2021-01-03T12:48:48Z</time>
      </trkpt>
      <trkpt lat="43.66186" lon="3.81492">
        <ele>114</ele>
        <time>2021-01-03T12:48:49Z</time>
      </trkpt>
      <trkpt lat="43.66186" lon="3.81488">
        <ele>101</ele>
        <time>2021-01-03T12:48:50Z</time>
      </trkpt>
      <trkpt lat="43.66185" lon="3.81485">
        <ele>100.8</ele>
        <time>2021-01-03T12:48:51Z</time>
      </trkpt>
      <trkpt lat="43.66184" lon="3.81482">
        <ele>100.5</ele>
        <time>2021-01-03T12:48:52Z</time>
      </trkpt>
      <trkpt lat="43.66181" lon="3.81478">
        <ele>99.7</ele>
        <time>2021-01-03T12:48:54Z</time>
      </trkpt>
      <trkpt lat="43.6618" lon="3.81477">
        <ele>99.4</ele>
        <time>2021-01-03T12:48:55Z</time>
      </trkpt>
      <trkpt lat="43.66178" lon="3.81476">
        <ele>98.9</ele>
        <time>2021-01-03T12:48:56Z</time>
      </trkpt>
      <trkpt lat="43.66174" lon="3.8147">
        <ele>97.7</ele>
        <time>2021-01-03T12:48:58Z</time>
      </trkpt>
      <trkpt lat="43.66172" lon="3.81467">
        <ele>111</ele>
        <time>2021-01-03T12:49:00Z</time>
      </trkpt>
      <trkpt lat="43.6617" lon="3.81464">
        <ele>96.5</ele>
        <time>2021-01-03T12:49:01Z</time>
      </trkpt>
      <trkpt lat="43.66168" lon="3.8146">
        <ele>95.9</ele>
        <time>2021-01-03T12:49:02Z</time>
      </trkpt>
      <trkpt lat="43.66166" lon="3.81458">
        <ele>95.4</ele>
        <time>2021-01-03T12:49:03Z</time>
      </trkpt>
      <trkpt lat="43.66165" lon="3.81456">
        <ele>95.2</ele>
        <time>2021-01-03T12:49:04Z</time>
      </trkpt>
      <trkpt lat="43.66164" lon="3.81453">
        <ele>94.9</ele>
        <time>2021-01-03T12:49:05Z</time>
      </trkpt>
      <trkpt lat="43.66163" lon="3.81449">
        <ele>94.6</ele>
        <time>2021-01-03T12:49:06Z</time>
      </trkpt>
      <trkpt lat="43.66163" lon="3.81444">
        <ele>94.4</ele>
        <time>2021-01-03T12:49:07Z</time>
      </trkpt>
      <trkpt lat="43.66164" lon="3.8144">
        <ele>94.3</ele>
        <time>2021-01-03T12:49:08Z</time>
      </trkpt>
      <trkpt lat="43.66165" lon="3.81436">
        <ele>108</ele>
        <time>2021-01-03T12:49:09Z</time>
      </trkpt>
      <trkpt lat="43.66166" lon="3.81433">
        <ele>94.1</ele>
        <time>2021-01-03T12:49:10Z</time>
      </trkpt>
      <trkpt lat="43.66167" lon="3.81429">
        <ele>94</ele>
        <time>2021-01-03T12:49:11Z</time>
      </trkpt>
      <trkpt lat="43.66167" lon="3.81426">
        <ele>93.8</ele>
        <time>2021-01-03T12:49:12Z</time>
      </trkpt>
      <trkpt lat="43.66167" lon="3.81423">
        <ele>93.5</ele>
        <time>2021-01-03T12:49:13Z</time>
      </trkpt>
      <trkpt lat="43.66166" lon="3.81419">
        <ele>93.1</ele>
        <time>2021-01-03T12:49:14Z</time>
      </trkpt>
      <trkpt lat="43.66164" lon="3.81413">
        <ele>92.5</ele>
        <time>2021-01-03T12:49:15Z</time>
      </trkpt>
      <trkpt lat="43.66163" lon="3.81407">
        <ele>92.1</ele>
        <time>2021-01-03T12:49:16Z</time>
      </trkpt>
      <trkpt lat="43.66161" lon="3.81401">
        <ele>91.6</ele>
        <time>2021-01-03T12:49:17Z</time>
      </trkpt>
      <trkpt lat="43.66158" lon="3.81395">
        <ele>91</ele>
        <time>2021-01-03T12:49:18Z</time>
      </trkpt>
      <trkpt lat="43.66152" lon="3.81381">
        <ele>105</ele>
        <time>2021-01-03T12:49:19Z</time>
      </trkpt>
      <trkpt lat="43.6615" lon="3.81373">
        <ele>88.8</ele>
        <time>2021-01-03T12:49:20Z</time>
      </trkpt>
      <trkpt lat="43.66148" lon="3.81366">
        <ele>88.2</ele>
        <time>2021-01-03T12:49:21Z</time>
      </trkpt>
      <trkpt lat="43.66146" lon="3.81358">
        <ele>87.7</ele>
        <time>2021-01-03T12:49:22Z</time>
      </trkpt>
      <trkpt lat="43.66142" lon="3.81343">
        <ele>86.8</ele>
        <time>2021-01-03T12:49:24Z</time>
      </trkpt>
      <trkpt lat="43.66141" lon="3.81336">
        <ele>86.4</ele>
        <time>2021-01-03T12:49:25Z</time>
      </trkpt>
      <trkpt lat="43.6614" lon="3.81331">
        <ele>86.2</ele>
        <time>2021-01-03T12:49:26Z</time>
      </trkpt>
      <trkpt lat="43.6614" lon="3.81326">
        <ele>86.1</ele>
        <time>2021-01-03T12:49:27Z</time>
      </trkpt>
      <trkpt lat="43.66141" lon="3.81323">
        <ele>86.2</ele>
        <time>2021-01-03T12:49:28Z</time>
      </trkpt>
      <trkpt lat="43.66143" lon="3.8132">
        <ele>86.4</ele>
        <time>2021-01-03T12:49:30Z</time>
      </trkpt>
      <trkpt lat="43.66145" lon="3.81319">
        <ele>86.7</ele>
        <time>2021-01-03T12:49:31Z</time>
      </trkpt>
      <trkpt lat="43.66147" lon="3.81317">
        <ele>86.8</ele>
        <time>2021-01-03T12:49:32Z</time>
      </trkpt>
      <trkpt lat="43.66149" lon="3.81316">
        <ele>87</ele>
        <time>2021-01-03T12:49:33Z</time>
      </trkpt>
      <trkpt lat="43.66151" lon="3.81314">
        <ele>87.1</ele>
        <time>2021-01-03T12:49:34Z</time>
      </trkpt>
      <trkpt lat="43.66154" lon="3.81313">
        <ele>87.4</ele>
        <time>2021-01-03T12:49:35Z</time>
      </trkpt>
      <trkpt lat="43.66156" lon="3.81312">
        <ele>87.5</ele>
        <time>2021-01-03T12:49:36Z</time>
      </trkpt>
      <trkpt lat="43.66158" lon="3.8131">
        <ele>87.6</ele>
        <time>2021-01-03T12:49:37Z</time>
      </trkpt>
      <trkpt lat="43.66161" lon="3.81309">
        <ele>87.8</ele>
        <time>2021-01-03T12:49:38Z</time>
      </trkpt>
      <trkpt lat="43.66163" lon="3.81307">
        <ele>96</ele>
        <time>2021-01-03T12:49:39Z</time>
      </trkpt>
      <trkpt lat="43.66166" lon="3.81306">
        <ele>88</ele>
        <time>2021-01-03T12:49:40Z</time>
      </trkpt>
      <trkpt lat="43.66168" lon="3.81305">
        <ele>88.1</ele>
        <time>2021-01-03T12:49:41Z</time>
      </trkpt>
      <trkpt lat="43.6617" lon="3.81303">
        <ele>88.3</ele>
        <time>2021-01-03T12:49:42Z</time>
      </trkpt>
      <trkpt lat="43.66173" lon="3.81302">
        <ele>88.5</ele>
        <time>2021-01-03T12:49:43Z</time>
      </trkpt>
      <trkpt lat="43.66175" lon="3.81301">
        <ele>88.7</ele>
        <time>2021-01-03T12:49:44Z</time>
      </trkpt>
      <trkpt lat="43.66177" lon="3.813">
        <ele>88.8</ele>
        <time>2021-01-03T12:49:45Z</time>
      </trkpt>
      <trkpt lat="43.66179" lon="3.81299">
        <ele>89</ele>
        <time>2021-01-03T12:49:46Z</time>
      </trkpt>
      <trkpt lat="43.66182" lon="3.81298">
        <ele>89.2</ele>
        <time>2021-01-03T12:49:47Z</time>
      </trkpt>
      <trkpt lat="43.66184" lon="3.81297">
        <ele>89.4</ele>
        <time>2021-01-03T12:49:48Z</time>
      </trkpt>
      <trkpt lat="43.66186" lon="3.81296">
        <ele>96</ele>
        <time>2021-01-03T12:49:49Z</time>
      </trkpt>
      <trkpt lat="43.66188" lon="3.81295">
        <ele>89.6</ele>
        <time>2021-01-03T12:49:50Z</time>
      </trkpt>
      <trkpt lat="43.6619" lon="3.81294">
        <ele>89.8</ele>
        <time>2021-01-03T12:49:51Z</time>
      </trkpt>
      <trkpt lat="43.66191" lon="3.81293">
        <ele>89.8</ele>
        <time>2021-01-03T12:49:52Z</time>
      </trkpt>
      <trkpt lat="43.66193" lon="3.81292">
        <ele>89.9</ele>
        <time>2021-01-03T12:49:53Z</time>
      </trkpt>
      <trkpt lat="43.66196" lon="3.81291">
        <ele>90.2</ele>
        <time>2021-01-03T12:49:55Z</time>
      </trkpt>
      <trkpt lat="43.66198" lon="3.8129">
        <ele>90.4</ele>
        <time>2021-01-03T12:49:56Z</time>
      </trkpt>
      <trkpt lat="43.66201" lon="3.81288">
        <ele>90.8</ele>
        <time>2021-01-03T12:49:58Z</time>
      </trkpt>
      <trkpt lat="43.66205" lon="3.81287">
        <ele>91.3</ele>
        <time>2021-01-03T12:50:00Z</time>
      </trkpt>
      <trkpt lat="43.66208" lon="3.81285">
        <ele>91.6</ele>
        <time>2021-01-03T12:50:02Z</time>
      </trkpt>
      <trkpt lat="43.66211" lon="3.81284">
        <ele>92</ele>
        <time>2021-01-03T12:50:04Z</time>
      </trkpt>
      <trkpt lat="43.66214" lon="3.81282">
        <ele>92.2</ele>
        <time>2021-01-03T12:50:06Z</time>
      </trkpt>
      <trkpt lat="43.66217" lon="3.8128">
        <ele>92.5</ele>
        <time>2021-01-03T12:50:08Z</time>
      </trkpt>
      <trkpt lat="43.66221" lon="3.81279">
        <ele>93</ele>
        <time>2021-01-03T12:50:10Z</time>
      </trkpt>
      <trkpt lat="43.66223" lon="3.81278">
        <ele>93.1</ele>
        <time>2021-01-03T12:50:12Z</time>
      </trkpt>
      <trkpt lat="43.66226" lon="3.81277">
        <ele>93.3</ele>
        <time>2021-01-03T12:50:14Z</time>
      </trkpt>
      <trkpt lat="43.6623" lon="3.81276">
        <ele>93.6</ele>
        <time>2021-01-03T12:50:16Z</time>
      </trkpt>
      <trkpt lat="43.66233" lon="3.81275">
        <ele>93.8</ele>
        <time>2021-01-03T12:50:18Z</time>
      </trkpt>
      <trkpt lat="43.66236" lon="3.81274">
        <ele>94</ele>
        <time>2021-01-03T12:50:20Z</time>
      </trkpt>
      <trkpt lat="43.66239" lon="3.81274">
        <ele>94.3</ele>
        <time>2021-01-03T12:50:22Z</time>
      </trkpt>
      <trkpt lat="43.66242" lon="3.81273">
        <ele>94.5</ele>
        <time>2021-01-03T12:50:24Z</time>
      </trkpt>
      <trkpt lat="43.66246" lon="3.81272">
        <ele>94.8</ele>
        <time>2021-01-03T12:50:26Z</time>
      </trkpt>
      <trkpt lat="43.66249" lon="3.81271">
        <ele>94.9</ele>
        <time>2021-01-03T12:50:28Z</time>
      </trkpt>
      <trkpt lat="43.66251" lon="3.81271">
        <ele>98</ele>
        <time>2021-01-03T12:50:29Z</time>
      </trkpt>
      <trkpt lat="43.66253" lon="3.8127">
        <ele>95.6</ele>
        <time>2021-01-03T12:50:30Z</time>
      </trkpt>
      <trkpt lat="43.66256" lon="3.8127">
        <ele>96.3</ele>
        <time>2021-01-03T12:50:32Z</time>
      </trkpt>
      <trkpt lat="43.66259" lon="3.81269">
        <ele>96.8</ele>
        <time>2021-01-03T12:50:34Z</time>
      </trkpt>
      <trkpt lat="43.66263" lon="3.81268">
        <ele>97.5</ele>
        <time>2021-01-03T12:50:36Z</time>
      </trkpt>
      <trkpt lat="43.66266" lon="3.81267">
        <ele>98</ele>
        <time>2021-01-03T12:50:38Z</time>
      </trkpt>
      <trkpt lat="43.66269" lon="3.81266">
        <ele>99</ele>
        <time>2021-01-03T12:50:39Z</time>
      </trkpt>
      <trkpt lat="43.66272" lon="3.81265">
        <ele>99</ele>
        <time>2021-01-03T12:50:41Z</time>
      </trkpt>
      <trkpt lat="43.66275" lon="3.81263">
        <ele>99.2</ele>
        <time>2021-01-03T12:50:43Z</time>
      </trkpt>
      <trkpt lat="43.66278" lon="3.81261">
        <ele>99.4</ele>
        <time>2021-01-03T12:50:45Z</time>
      </trkpt>
      <trkpt lat="43.6628" lon="3.81259">
        <ele>99.3</ele>
        <time>2021-01-03T12:50:47Z</time>
      </trkpt>
      <trkpt lat="43.66282" lon="3.81256">
        <ele>99.1</ele>
        <time>2021-01-03T12:50:50Z</time>
      </trkpt>
      <trkpt lat="43.66284" lon="3.81254">
        <ele>99</ele>
        <time>2021-01-03T12:50:52Z</time>
      </trkpt>
      <trkpt lat="43.66287" lon="3.81252">
        <ele>99.1</ele>
        <time>2021-01-03T12:50:54Z</time>
      </trkpt>
      <trkpt lat="43.66289" lon="3.8125">
        <ele>99</ele>
        <time>2021-01-03T12:50:56Z</time>
      </trkpt>
      <trkpt lat="43.66292" lon="3.81248">
        <ele>99.3</ele>
        <time>2021-01-03T12:50:58Z</time>
      </trkpt>
      <trkpt lat="43.66294" lon="3.81247">
        <ele>101</ele>
        <time>2021-01-03T12:50:59Z</time>
      </trkpt>
      <trkpt lat="43.66297" lon="3.81246">
        <ele>99.9</ele>
        <time>2021-01-03T12:51:01Z</time>
      </trkpt>
      <trkpt lat="43.663" lon="3.81245">
        <ele>100.3</ele>
        <time>2021-01-03T12:51:03Z</time>
      </trkpt>
      <trkpt lat="43.66302" lon="3.81244">
        <ele>100.5</ele>
        <time>2021-01-03T12:51:05Z</time>
      </trkpt>
      <trkpt lat="43.66305" lon="3.81244">
        <ele>101</ele>
        <time>2021-01-03T12:51:07Z</time>
      </trkpt>
      <trkpt lat="43.66308" lon="3.81243">
        <ele>101.5</ele>
        <time>2021-01-03T12:51:10Z</time>
      </trkpt>
      <trkpt lat="43.6631" lon="3.81243">
        <ele>101.8</ele>
        <time>2021-01-03T12:51:12Z</time>
      </trkpt>
      <trkpt lat="43.66313" lon="3.81243">
        <ele>102.4</ele>
        <time>2021-01-03T12:51:14Z</time>
      </trkpt>
      <trkpt lat="43.66315" lon="3.81243">
        <ele>102.8</ele>
        <time>2021-01-03T12:51:16Z</time>
      </trkpt>
      <trkpt lat="43.66318" lon="3.81243">
        <ele>103.3</ele>
        <time>2021-01-03T12:51:18Z</time>
      </trkpt>
      <trkpt lat="43.6632" lon="3.81243">
        <ele>103.7</ele>
        <time>2021-01-03T12:51:20Z</time>
      </trkpt>
      <trkpt lat="43.66323" lon="3.81242">
        <ele>104.1</ele>
        <time>2021-01-03T12:51:22Z</time>
      </trkpt>
      <trkpt lat="43.66325" lon="3.81243">
        <ele>104.7</ele>
        <time>2021-01-03T12:51:24Z</time>
      </trkpt>
      <trkpt lat="43.66328" lon="3.81243">
        <ele>105.2</ele>
        <time>2021-01-03T12:51:26Z</time>
      </trkpt>
      <trkpt lat="43.6633" lon="3.81243">
        <ele>105.6</ele>
        <time>2021-01-03T12:51:28Z</time>
      </trkpt>
      <trkpt lat="43.66333" lon="3.81242">
        <ele>105.9</ele>
        <time>2021-01-03T12:51:30Z</time>
      </trkpt>
      <trkpt lat="43.66335" lon="3.81241">
        <ele>106</ele>
        <time>2021-01-03T12:51:32Z</time>
      </trkpt>
      <trkpt lat="43.66337" lon="3.81241">
        <ele>106.2</ele>
        <time>2021-01-03T12:51:34Z</time>
      </trkpt>
      <trkpt lat="43.66339" lon="3.8124">
        <ele>106.2</ele>
        <time>2021-01-03T12:51:36Z</time>
      </trkpt>
      <trkpt lat="43.66341" lon="3.8124">
        <ele>106.5</ele>
        <time>2021-01-03T12:51:38Z</time>
      </trkpt>
      <trkpt lat="43.66343" lon="3.8124">
        <ele>106.7</ele>
        <time>2021-01-03T12:51:40Z</time>
      </trkpt>
      <trkpt lat="43.66345" lon="3.8124">
        <ele>107</ele>
        <time>2021-01-03T12:51:42Z</time>
      </trkpt>
      <trkpt lat="43.66347" lon="3.81239">
        <ele>107</ele>
        <time>2021-01-03T12:51:44Z</time>
      </trkpt>
      <trkpt lat="43.66349" lon="3.81239">
        <ele>107.3</ele>
        <time>2021-01-03T12:51:46Z</time>
      </trkpt>
      <trkpt lat="43.66351" lon="3.81239">
        <ele>107.5</ele>
        <time>2021-01-03T12:51:48Z</time>
      </trkpt>
      <trkpt lat="43.66354" lon="3.81239">
        <ele>107.9</ele>
        <time>2021-01-03T12:51:50Z</time>
      </trkpt>
      <trkpt lat="43.66356" lon="3.81239">
        <ele>108.2</ele>
        <time>2021-01-03T12:51:52Z</time>
      </trkpt>
      <trkpt lat="43.66358" lon="3.8124">
        <ele>108.7</ele>
        <time>2021-01-03T12:51:54Z</time>
      </trkpt>
      <trkpt lat="43.6636" lon="3.81241">
        <ele>109.3</ele>
        <time>2021-01-03T12:51:56Z</time>
      </trkpt>
      <trkpt lat="43.66362" lon="3.81242">
        <ele>109.7</ele>
        <time>2021-01-03T12:51:58Z</time>
      </trkpt>
      <trkpt lat="43.66364" lon="3.81242">
        <ele>109.8</ele>
        <time>2021-01-03T12:52:00Z</time>
      </trkpt>
      <trkpt lat="43.66367" lon="3.81243">
        <ele>110.2</ele>
        <time>2021-01-03T12:52:02Z</time>
      </trkpt>
      <trkpt lat="43.66369" lon="3.81243">
        <ele>110.3</ele>
        <time>2021-01-03T12:52:04Z</time>
      </trkpt>
      <trkpt lat="43.66372" lon="3.81243">
        <ele>110.4</ele>
        <time>2021-01-03T12:52:06Z</time>
      </trkpt>
      <trkpt lat="43.66375" lon="3.81244">
        <ele>110.7</ele>
        <time>2021-01-03T12:52:08Z</time>
      </trkpt>
      <trkpt lat="43.66378" lon="3.81244">
        <ele>110.8</ele>
        <time>2021-01-03T12:52:10Z</time>
      </trkpt>
      <trkpt lat="43.66381" lon="3.81244">
        <ele>110.9</ele>
        <time>2021-01-03T12:52:12Z</time>
      </trkpt>
      <trkpt lat="43.66384" lon="3.81244">
        <ele>111</ele>
        <time>2021-01-03T12:52:14Z</time>
      </trkpt>
      <trkpt lat="43.66386" lon="3.81244">
        <ele>111</ele>
        <time>2021-01-03T12:52:16Z</time>
      </trkpt>
      <trkpt lat="43.66389" lon="3.81244">
        <ele>111.1</ele>
        <time>2021-01-03T12:52:18Z</time>
      </trkpt>
      <trkpt lat="43.66392" lon="3.81244">
        <ele>111.4</ele>
        <time>2021-01-03T12:52:20Z</time>
      </trkpt>
      <trkpt lat="43.66395" lon="3.81244">
        <ele>111.6</ele>
        <time>2021-01-03T12:52:22Z</time>
      </trkpt>
      <trkpt lat="43.66398" lon="3.81244">
        <ele>111.8</ele>
        <time>2021-01-03T12:52:24Z</time>
      </trkpt>
      <trkpt lat="43.66401" lon="3.81244">
        <ele>112</ele>
        <time>2021-01-03T12:52:26Z</time>
      </trkpt>
      <trkpt lat="43.66403" lon="3.81245">
        <ele>112.3</ele>
        <time>2021-01-03T12:52:28Z</time>
      </trkpt>
      <trkpt lat="43.66406" lon="3.81245">
        <ele>112.5</ele>
        <time>2021-01-03T12:52:30Z</time>
      </trkpt>
      <trkpt lat="43.66409" lon="3.81245">
        <ele>112.7</ele>
        <time>2021-01-03T12:52:32Z</time>
      </trkpt>
      <trkpt lat="43.66411" lon="3.81245">
        <ele>112.9</ele>
        <time>2021-01-03T12:52:34Z</time>
      </trkpt>
      <trkpt lat="43.66414" lon="3.81244">
        <ele>112.9</ele>
        <time>2021-01-03T12:52:36Z</time>
      </trkpt>
      <trkpt lat="43.66416" lon="3.81244">
        <ele>113.1</ele>
        <time>2021-01-03T12:52:38Z</time>
      </trkpt>
      <trkpt lat="43.66419" lon="3.81244">
        <ele>113.5</ele>
        <time>2021-01-03T12:52:40Z</time>
      </trkpt>
      <trkpt lat="43.66421" lon="3.81244">
        <ele>113.8</ele>
        <time>2021-01-03T12:52:42Z</time>
      </trkpt>
      <trkpt lat="43.66423" lon="3.81244">
        <ele>114</ele>
        <time>2021-01-03T12:52:44Z</time>
      </trkpt>
      <trkpt lat="43.66425" lon="3.81244">
        <ele>114.3</ele>
        <time>2021-01-03T12:52:46Z</time>
      </trkpt>
      <trkpt lat="43.66428" lon="3.81244">
        <ele>114.8</ele>
        <time>2021-01-03T12:52:48Z</time>
      </trkpt>
      <trkpt lat="43.66431" lon="3.81243">
        <ele>115.1</ele>
        <time>2021-01-03T12:52:50Z</time>
      </trkpt>
      <trkpt lat="43.66433" lon="3.81243">
        <ele>115.3</ele>
        <time>2021-01-03T12:52:52Z</time>
      </trkpt>
      <trkpt lat="43.66436" lon="3.81242">
        <ele>115.6</ele>
        <time>2021-01-03T12:52:54Z</time>
      </trkpt>
      <trkpt lat="43.66438" lon="3.81242">
        <ele>115.9</ele>
        <time>2021-01-03T12:52:56Z</time>
      </trkpt>
      <trkpt lat="43.66441" lon="3.81241">
        <ele>116.2</ele>
        <time>2021-01-03T12:52:58Z</time>
      </trkpt>
      <trkpt lat="43.66443" lon="3.81242">
        <ele>116.6</ele>
        <time>2021-01-03T12:53:00Z</time>
      </trkpt>
      <trkpt lat="43.66446" lon="3.81243">
        <ele>117.1</ele>
        <time>2021-01-03T12:53:02Z</time>
      </trkpt>
      <trkpt lat="43.66448" lon="3.81243">
        <ele>117.3</ele>
        <time>2021-01-03T12:53:04Z</time>
      </trkpt>
      <trkpt lat="43.66451" lon="3.81243">
        <ele>117.6</ele>
        <time>2021-01-03T12:53:06Z</time>
      </trkpt>
      <trkpt lat="43.66453" lon="3.81243">
        <ele>117.8</ele>
        <time>2021-01-03T12:53:08Z</time>
      </trkpt>
      <trkpt lat="43.66456" lon="3.81243">
        <ele>118.1</ele>
        <time>2021-01-03T12:53:10Z</time>
      </trkpt>
      <trkpt lat="43.66458" lon="3.81244">
        <ele>118.5</ele>
        <time>2021-01-03T12:53:12Z</time>
      </trkpt>
      <trkpt lat="43.6646" lon="3.81243">
        <ele>118.5</ele>
        <time>2021-01-03T12:53:14Z</time>
      </trkpt>
      <trkpt lat="43.66463" lon="3.81244">
        <ele>119</ele>
        <time>2021-01-03T12:53:16Z</time>
      </trkpt>
      <trkpt lat="43.66465" lon="3.81244">
        <ele>119.2</ele>
        <time>2021-01-03T12:53:18Z</time>
      </trkpt>
      <trkpt lat="43.66467" lon="3.81242">
        <ele>119.1</ele>
        <time>2021-01-03T12:53:20Z</time>
      </trkpt>
      <trkpt lat="43.6647" lon="3.81241">
        <ele>119.2</ele>
        <time>2021-01-03T12:53:22Z</time>
      </trkpt>
      <trkpt lat="43.66473" lon="3.81241">
        <ele>119.5</ele>
        <time>2021-01-03T12:53:24Z</time>
      </trkpt>
      <trkpt lat="43.66475" lon="3.81241">
        <ele>119.8</ele>
        <time>2021-01-03T12:53:26Z</time>
      </trkpt>
      <trkpt lat="43.66478" lon="3.81242">
        <ele>120.4</ele>
        <time>2021-01-03T12:53:28Z</time>
      </trkpt>
      <trkpt lat="43.66481" lon="3.81242">
        <ele>120.8</ele>
        <time>2021-01-03T12:53:30Z</time>
      </trkpt>
      <trkpt lat="43.66483" lon="3.81242">
        <ele>121.1</ele>
        <time>2021-01-03T12:53:32Z</time>
      </trkpt>
      <trkpt lat="43.66485" lon="3.81242">
        <ele>121.4</ele>
        <time>2021-01-03T12:53:34Z</time>
      </trkpt>
      <trkpt lat="43.66488" lon="3.81242">
        <ele>121.8</ele>
        <time>2021-01-03T12:53:36Z</time>
      </trkpt>
      <trkpt lat="43.6649" lon="3.81242">
        <ele>122.1</ele>
        <time>2021-01-03T12:53:38Z</time>
      </trkpt>
      <trkpt lat="43.66493" lon="3.81242">
        <ele>122.6</ele>
        <time>2021-01-03T12:53:40Z</time>
      </trkpt>
      <trkpt lat="43.66495" lon="3.81242">
        <ele>122.8</ele>
        <time>2021-01-03T12:53:42Z</time>
      </trkpt>
      <trkpt lat="43.66497" lon="3.81242">
        <ele>123.1</ele>
        <time>2021-01-03T12:53:44Z</time>
      </trkpt>
      <trkpt lat="43.66499" lon="3.81242">
        <ele>123.4</ele>
        <time>2021-01-03T12:53:46Z</time>
      </trkpt>
      <trkpt lat="43.665" lon="3.81242">
        <ele>123.6</ele>
        <time>2021-01-03T12:53:48Z</time>
      </trkpt>
      <trkpt lat="43.66502" lon="3.81241">
        <ele>123.7</ele>
        <time>2021-01-03T12:53:50Z</time>
      </trkpt>
      <trkpt lat="43.66504" lon="3.81241">
        <ele>124</ele>
        <time>2021-01-03T12:53:51Z</time>
      </trkpt>
      <trkpt lat="43.66507" lon="3.81241">
        <ele>124.5</ele>
        <time>2021-01-03T12:53:53Z</time>
      </trkpt>
      <trkpt lat="43.66509" lon="3.81241">
        <ele>124.8</ele>
        <time>2021-01-03T12:53:55Z</time>
      </trkpt>
      <trkpt lat="43.66511" lon="3.81241">
        <ele>125.1</ele>
        <time>2021-01-03T12:53:57Z</time>
      </trkpt>
      <trkpt lat="43.66514" lon="3.81241">
        <ele>128</ele>
        <time>2021-01-03T12:53:59Z</time>
      </trkpt>
      <trkpt lat="43.66516" lon="3.81241">
        <ele>125.9</ele>
        <time>2021-01-03T12:54:01Z</time>
      </trkpt>
      <trkpt lat="43.66518" lon="3.81241">
        <ele>126.2</ele>
        <time>2021-01-03T12:54:03Z</time>
      </trkpt>
      <trkpt lat="43.6652" lon="3.81241">
        <ele>126.5</ele>
        <time>2021-01-03T12:54:05Z</time>
      </trkpt>
      <trkpt lat="43.66523" lon="3.81241">
        <ele>127</ele>
        <time>2021-01-03T12:54:07Z</time>
      </trkpt>
      <trkpt lat="43.66525" lon="3.81241">
        <ele>129</ele>
        <time>2021-01-03T12:54:09Z</time>
      </trkpt>
      <trkpt lat="43.66527" lon="3.81241">
        <ele>127.6</ele>
        <time>2021-01-03T12:54:11Z</time>
      </trkpt>
      <trkpt lat="43.6653" lon="3.81242">
        <ele>128.2</ele>
        <time>2021-01-03T12:54:13Z</time>
      </trkpt>
      <trkpt lat="43.66533" lon="3.81241">
        <ele>128.6</ele>
        <time>2021-01-03T12:54:15Z</time>
      </trkpt>
      <trkpt lat="43.66535" lon="3.81241">
        <ele>129</ele>
        <time>2021-01-03T12:54:17Z</time>
      </trkpt>
      <trkpt lat="43.66537" lon="3.81241">
        <ele>129.4</ele>
        <time>2021-01-03T12:54:20Z</time>
      </trkpt>
      <trkpt lat="43.66539" lon="3.81241">
        <ele>129.7</ele>
        <time>2021-01-03T12:54:22Z</time>
      </trkpt>
      <trkpt lat="43.66541" lon="3.81241">
        <ele>130.1</ele>
        <time>2021-01-03T12:54:24Z</time>
      </trkpt>
      <trkpt lat="43.66543" lon="3.81241">
        <ele>130.4</ele>
        <time>2021-01-03T12:54:26Z</time>
      </trkpt>
      <trkpt lat="43.66546" lon="3.81241">
        <ele>131</ele>
        <time>2021-01-03T12:54:28Z</time>
      </trkpt>
      <trkpt lat="43.66548" lon="3.8124">
        <ele>131.2</ele>
        <time>2021-01-03T12:54:30Z</time>
      </trkpt>
      <trkpt lat="43.6655" lon="3.8124">
        <ele>131.6</ele>
        <time>2021-01-03T12:54:32Z</time>
      </trkpt>
      <trkpt lat="43.66552" lon="3.8124">
        <ele>131.9</ele>
        <time>2021-01-03T12:54:34Z</time>
      </trkpt>
      <trkpt lat="43.66554" lon="3.81239">
        <ele>132.1</ele>
        <time>2021-01-03T12:54:36Z</time>
      </trkpt>
      <trkpt lat="43.66556" lon="3.8124">
        <ele>132.6</ele>
        <time>2021-01-03T12:54:38Z</time>
      </trkpt>
      <trkpt lat="43.66558" lon="3.8124">
        <ele>133</ele>
        <time>2021-01-03T12:54:40Z</time>
      </trkpt>
      <trkpt lat="43.6656" lon="3.81239">
        <ele>133.2</ele>
        <time>2021-01-03T12:54:42Z</time>
      </trkpt>
      <trkpt lat="43.66562" lon="3.81238">
        <ele>133.5</ele>
        <time>2021-01-03T12:54:44Z</time>
      </trkpt>
      <trkpt lat="43.66564" lon="3.81239">
        <ele>133.9</ele>
        <time>2021-01-03T12:54:46Z</time>
      </trkpt>
      <trkpt lat="43.66567" lon="3.81238">
        <ele>134.4</ele>
        <time>2021-01-03T12:54:48Z</time>
      </trkpt>
      <trkpt lat="43.66569" lon="3.81238">
        <ele>134.8</ele>
        <time>2021-01-03T12:54:50Z</time>
      </trkpt>
      <trkpt lat="43.66571" lon="3.81239">
        <ele>135.2</ele>
        <time>2021-01-03T12:54:52Z</time>
      </trkpt>
      <trkpt lat="43.66574" lon="3.81239">
        <ele>135.7</ele>
        <time>2021-01-03T12:54:54Z</time>
      </trkpt>
      <trkpt lat="43.66576" lon="3.81239">
        <ele>136.1</ele>
        <time>2021-01-03T12:54:56Z</time>
      </trkpt>
      <trkpt lat="43.66579" lon="3.81239">
        <ele>136.6</ele>
        <time>2021-01-03T12:54:58Z</time>
      </trkpt>
      <trkpt lat="43.66581" lon="3.8124">
        <ele>139</ele>
        <time>2021-01-03T12:54:59Z</time>
      </trkpt>
      <trkpt lat="43.66583" lon="3.8124">
        <ele>137.3</ele>
        <time>2021-01-03T12:55:01Z</time>
      </trkpt>
      <trkpt lat="43.66585" lon="3.81241">
        <ele>137.4</ele>
        <time>2021-01-03T12:55:03Z</time>
      </trkpt>
      <trkpt lat="43.66588" lon="3.81241">
        <ele>137.5</ele>
        <time>2021-01-03T12:55:05Z</time>
      </trkpt>
      <trkpt lat="43.6659" lon="3.81242">
        <ele>137.5</ele>
        <time>2021-01-03T12:55:07Z</time>
      </trkpt>
      <trkpt lat="43.66592" lon="3.81243">
        <ele>137.6</ele>
        <time>2021-01-03T12:55:10Z</time>
      </trkpt>
      <trkpt lat="43.66595" lon="3.81243">
        <ele>137.7</ele>
        <time>2021-01-03T12:55:12Z</time>
      </trkpt>
      <trkpt lat="43.66597" lon="3.81242">
        <ele>137.8</ele>
        <time>2021-01-03T12:55:14Z</time>
      </trkpt>
      <trkpt lat="43.666" lon="3.81242">
        <ele>137.9</ele>
        <time>2021-01-03T12:55:16Z</time>
      </trkpt>
      <trkpt lat="43.66602" lon="3.81241">
        <ele>138</ele>
        <time>2021-01-03T12:55:18Z</time>
      </trkpt>
      <trkpt lat="43.66605" lon="3.81241">
        <ele>138.1</ele>
        <time>2021-01-03T12:55:20Z</time>
      </trkpt>
      <trkpt lat="43.66607" lon="3.81239">
        <ele>138.2</ele>
        <time>2021-01-03T12:55:22Z</time>
      </trkpt>
      <trkpt lat="43.66609" lon="3.81238">
        <ele>138.4</ele>
        <time>2021-01-03T12:55:24Z</time>
      </trkpt>
      <trkpt lat="43.66611" lon="3.81236">
        <ele>138.5</ele>
        <time>2021-01-03T12:55:26Z</time>
      </trkpt>
      <trkpt lat="43.66614" lon="3.81235">
        <ele>138.5</ele>
        <time>2021-01-03T12:55:28Z</time>
      </trkpt>
      <trkpt lat="43.66617" lon="3.81233">
        <ele>138.5</ele>
        <time>2021-01-03T12:55:30Z</time>
      </trkpt>
      <trkpt lat="43.6662" lon="3.81231">
        <ele>138.6</ele>
        <time>2021-01-03T12:55:32Z</time>
      </trkpt>
      <trkpt lat="43.66622" lon="3.81231">
        <ele>138.6</ele>
        <time>2021-01-03T12:55:33Z</time>
      </trkpt>
      <trkpt lat="43.66624" lon="3.8123">
        <ele>138.6</ele>
        <time>2021-01-03T12:55:34Z</time>
      </trkpt>
      <trkpt lat="43.66626" lon="3.8123">
        <ele>138.6</ele>
        <time>2021-01-03T12:55:35Z</time>
      </trkpt>
      <trkpt lat="43.66628" lon="3.81229">
        <ele>138.6</ele>
        <time>2021-01-03T12:55:36Z</time>
      </trkpt>
      <trkpt lat="43.6663" lon="3.81229">
        <ele>138.6</ele>
        <time>2021-01-03T12:55:37Z</time>
      </trkpt>
      <trkpt lat="43.66632" lon="3.81228">
        <ele>138.6</ele>
        <time>2021-01-03T12:55:38Z</time>
      </trkpt>
      <trkpt lat="43.66634" lon="3.81228">
        <ele>143</ele>
        <time>2021-01-03T12:55:39Z</time>
      </trkpt>
      <trkpt lat="43.66637" lon="3.81228">
        <ele>138.6</ele>
        <time>2021-01-03T12:55:40Z</time>
      </trkpt>
      <trkpt lat="43.66639" lon="3.81228">
        <ele>138.6</ele>
        <time>2021-01-03T12:55:41Z</time>
      </trkpt>
      <trkpt lat="43.66641" lon="3.81227">
        <ele>138.7</ele>
        <time>2021-01-03T12:55:42Z</time>
      </trkpt>
      <trkpt lat="43.66644" lon="3.81227">
        <ele>138.7</ele>
        <time>2021-01-03T12:55:43Z</time>
      </trkpt>
      <trkpt lat="43.66646" lon="3.81227">
        <ele>138.7</ele>
        <time>2021-01-03T12:55:44Z</time>
      </trkpt>
      <trkpt lat="43.66648" lon="3.81227">
        <ele>138.7</ele>
        <time>2021-01-03T12:55:45Z</time>
      </trkpt>
      <trkpt lat="43.6665" lon="3.81227">
        <ele>138.7</ele>
        <time>2021-01-03T12:55:46Z</time>
      </trkpt>
      <trkpt lat="43.66653" lon="3.81226">
        <ele>138.7</ele>
        <time>2021-01-03T12:55:47Z</time>
      </trkpt>
      <trkpt lat="43.66655" lon="3.81226">
        <ele>138.7</ele>
        <time>2021-01-03T12:55:48Z</time>
      </trkpt>
      <trkpt lat="43.66657" lon="3.81225">
        <ele>143</ele>
        <time>2021-01-03T12:55:49Z</time>
      </trkpt>
      <trkpt lat="43.66659" lon="3.81223">
        <ele>138.9</ele>
        <time>2021-01-03T12:55:50Z</time>
      </trkpt>
      <trkpt lat="43.66661" lon="3.81223">
        <ele>138.9</ele>
        <time>2021-01-03T12:55:51Z</time>
      </trkpt>
      <trkpt lat="43.66663" lon="3.81222">
        <ele>139</ele>
        <time>2021-01-03T12:55:52Z</time>
      </trkpt>
      <trkpt lat="43.66665" lon="3.81221">
        <ele>139.1</ele>
        <time>2021-01-03T12:55:53Z</time>
      </trkpt>
      <trkpt lat="43.66667" lon="3.8122">
        <ele>139.2</ele>
        <time>2021-01-03T12:55:54Z</time>
      </trkpt>
      <trkpt lat="43.66669" lon="3.8122">
        <ele>139.2</ele>
        <time>2021-01-03T12:55:55Z</time>
      </trkpt>
      <trkpt lat="43.66671" lon="3.81219">
        <ele>139.2</ele>
        <time>2021-01-03T12:55:56Z</time>
      </trkpt>
      <trkpt lat="43.66673" lon="3.81218">
        <ele>139.3</ele>
        <time>2021-01-03T12:55:57Z</time>
      </trkpt>
      <trkpt lat="43.66676" lon="3.81218">
        <ele>139.3</ele>
        <time>2021-01-03T12:55:58Z</time>
      </trkpt>
      <trkpt lat="43.66678" lon="3.81218">
        <ele>144</ele>
        <time>2021-01-03T12:55:59Z</time>
      </trkpt>
      <trkpt lat="43.6668" lon="3.81218">
        <ele>139.3</ele>
        <time>2021-01-03T12:56:00Z</time>
      </trkpt>
      <trkpt lat="43.66682" lon="3.81218">
        <ele>139.3</ele>
        <time>2021-01-03T12:56:01Z</time>
      </trkpt>
      <trkpt lat="43.66685" lon="3.81218">
        <ele>139.3</ele>
        <time>2021-01-03T12:56:03Z</time>
      </trkpt>
      <trkpt lat="43.66687" lon="3.81218">
        <ele>139.3</ele>
        <time>2021-01-03T12:56:04Z</time>
      </trkpt>
      <trkpt lat="43.66689" lon="3.81218">
        <ele>139.3</ele>
        <time>2021-01-03T12:56:05Z</time>
      </trkpt>
      <trkpt lat="43.66691" lon="3.81219">
        <ele>139.2</ele>
        <time>2021-01-03T12:56:06Z</time>
      </trkpt>
      <trkpt lat="43.66693" lon="3.81219">
        <ele>139.2</ele>
        <time>2021-01-03T12:56:07Z</time>
      </trkpt>
      <trkpt lat="43.66696" lon="3.81219">
        <ele>139.2</ele>
        <time>2021-01-03T12:56:08Z</time>
      </trkpt>
      <trkpt lat="43.66698" lon="3.81219">
        <ele>143</ele>
        <time>2021-01-03T12:56:09Z</time>
      </trkpt>
      <trkpt lat="43.667" lon="3.8122">
        <ele>139</ele>
        <time>2021-01-03T12:56:10Z</time>
      </trkpt>
      <trkpt lat="43.66703" lon="3.8122">
        <ele>138.9</ele>
        <time>2021-01-03T12:56:11Z</time>
      </trkpt>
      <trkpt lat="43.66705" lon="3.81221">
        <ele>138.7</ele>
        <time>2021-01-03T12:56:12Z</time>
      </trkpt>
      <trkpt lat="43.66707" lon="3.81223">
        <ele>138.5</ele>
        <time>2021-01-03T12:56:13Z</time>
      </trkpt>
      <trkpt lat="43.66708" lon="3.81227">
        <ele>138.2</ele>
        <time>2021-01-03T12:56:14Z</time>
      </trkpt>
      <trkpt lat="43.66708" lon="3.81231">
        <ele>137.9</ele>
        <time>2021-01-03T12:56:15Z</time>
      </trkpt>
      <trkpt lat="43.66706" lon="3.81234">
        <ele>137.7</ele>
        <time>2021-01-03T12:56:16Z</time>
      </trkpt>
      <trkpt lat="43.66704" lon="3.81237">
        <ele>137.6</ele>
        <time>2021-01-03T12:56:17Z</time>
      </trkpt>
      <trkpt lat="43.66702" lon="3.81241">
        <ele>137.4</ele>
        <time>2021-01-03T12:56:18Z</time>
      </trkpt>
      <trkpt lat="43.66701" lon="3.81245">
        <ele>142</ele>
        <time>2021-01-03T12:56:19Z</time>
      </trkpt>
      <trkpt lat="43.66699" lon="3.81248">
        <ele>137</ele>
        <time>2021-01-03T12:56:20Z</time>
      </trkpt>
      <trkpt lat="43.66697" lon="3.81252">
        <ele>137</ele>
        <time>2021-01-03T12:56:21Z</time>
      </trkpt>
      <trkpt lat="43.66696" lon="3.81255">
        <ele>137.1</ele>
        <time>2021-01-03T12:56:22Z</time>
      </trkpt>
      <trkpt lat="43.66694" lon="3.81259">
        <ele>137.3</ele>
        <time>2021-01-03T12:56:23Z</time>
      </trkpt>
      <trkpt lat="43.66692" lon="3.81262">
        <ele>137.4</ele>
        <time>2021-01-03T12:56:24Z</time>
      </trkpt>
      <trkpt lat="43.66691" lon="3.81265">
        <ele>137.5</ele>
        <time>2021-01-03T12:56:25Z</time>
      </trkpt>
      <trkpt lat="43.66689" lon="3.81269">
        <ele>137.5</ele>
        <time>2021-01-03T12:56:26Z</time>
      </trkpt>
      <trkpt lat="43.66687" lon="3.81273">
        <ele>137.6</ele>
        <time>2021-01-03T12:56:27Z</time>
      </trkpt>
      <trkpt lat="43.66685" lon="3.81276">
        <ele>137.6</ele>
        <time>2021-01-03T12:56:28Z</time>
      </trkpt>
      <trkpt lat="43.66682" lon="3.8128">
        <ele>137.5</ele>
        <time>2021-01-03T12:56:29Z</time>
      </trkpt>
      <trkpt lat="43.6668" lon="3.81283">
        <ele>141</ele>
        <time>2021-01-03T12:56:30Z</time>
      </trkpt>
      <trkpt lat="43.66678" lon="3.81286">
        <ele>137.1</ele>
        <time>2021-01-03T12:56:31Z</time>
      </trkpt>
      <trkpt lat="43.66675" lon="3.81289">
        <ele>136.9</ele>
        <time>2021-01-03T12:56:32Z</time>
      </trkpt>
      <trkpt lat="43.66673" lon="3.81292">
        <ele>136.7</ele>
        <time>2021-01-03T12:56:33Z</time>
      </trkpt>
      <trkpt lat="43.6667" lon="3.81295">
        <ele>136.5</ele>
        <time>2021-01-03T12:56:34Z</time>
      </trkpt>
      <trkpt lat="43.66667" lon="3.81298">
        <ele>136.3</ele>
        <time>2021-01-03T12:56:35Z</time>
      </trkpt>
      <trkpt lat="43.66664" lon="3.81301">
        <ele>136.2</ele>
        <time>2021-01-03T12:56:36Z</time>
      </trkpt>
      <trkpt lat="43.66661" lon="3.81304">
        <ele>136.1</ele>
        <time>2021-01-03T12:56:37Z</time>
      </trkpt>
      <trkpt lat="43.66658" lon="3.81307">
        <ele>135.9</ele>
        <time>2021-01-03T12:56:38Z</time>
      </trkpt>
      <trkpt lat="43.66654" lon="3.8131">
        <ele>140</ele>
        <time>2021-01-03T12:56:39Z</time>
      </trkpt>
      <trkpt lat="43.66651" lon="3.81314">
        <ele>135.7</ele>
        <time>2021-01-03T12:56:40Z</time>
      </trkpt>
      <trkpt lat="43.66648" lon="3.81317">
        <ele>135.6</ele>
        <time>2021-01-03T12:56:41Z</time>
      </trkpt>
      <trkpt lat="43.66645" lon="3.8132">
        <ele>135.5</ele>
        <time>2021-01-03T12:56:42Z</time>
      </trkpt>
      <trkpt lat="43.66642" lon="3.81324">
        <ele>135.3</ele>
        <time>2021-01-03T12:56:43Z</time>
      </trkpt>
      <trkpt lat="43.66639" lon="3.81327">
        <ele>135.2</ele>
        <time>2021-01-03T12:56:44Z</time>
      </trkpt>
      <trkpt lat="43.66636" lon="3.81331">
        <ele>135.2</ele>
        <time>2021-01-03T12:56:45Z</time>
      </trkpt>
      <trkpt lat="43.66634" lon="3.81335">
        <ele>135.1</ele>
        <time>2021-01-03T12:56:46Z</time>
      </trkpt>
      <trkpt lat="43.66632" lon="3.81339">
        <ele>135.1</ele>
        <time>2021-01-03T12:56:47Z</time>
      </trkpt>
      <trkpt lat="43.6663" lon="3.81342">
        <ele>135.1</ele>
        <time>2021-01-03T12:56:48Z</time>
      </trkpt>
      <trkpt lat="43.66628" lon="3.81346">
        <ele>140</ele>
        <time>2021-01-03T12:56:49Z</time>
      </trkpt>
      <trkpt lat="43.66626" lon="3.8135">
        <ele>135.1</ele>
        <time>2021-01-03T12:56:50Z</time>
      </trkpt>
      <trkpt lat="43.66623" lon="3.81352">
        <ele>135.3</ele>
        <time>2021-01-03T12:56:51Z</time>
      </trkpt>
      <trkpt lat="43.66619" lon="3.81353">
        <ele>135.5</ele>
        <time>2021-01-03T12:56:52Z</time>
      </trkpt>
      <trkpt lat="43.66616" lon="3.81353">
        <ele>135.7</ele>
        <time>2021-01-03T12:56:53Z</time>
      </trkpt>
      <trkpt lat="43.66613" lon="3.81352">
        <ele>135.9</ele>
        <time>2021-01-03T12:56:54Z</time>
      </trkpt>
      <trkpt lat="43.6661" lon="3.81351">
        <ele>136.1</ele>
        <time>2021-01-03T12:56:55Z</time>
      </trkpt>
      <trkpt lat="43.66607" lon="3.8135">
        <ele>136.2</ele>
        <time>2021-01-03T12:56:56Z</time>
      </trkpt>
      <trkpt lat="43.66604" lon="3.81349">
        <ele>136.4</ele>
        <time>2021-01-03T12:56:57Z</time>
      </trkpt>
      <trkpt lat="43.66601" lon="3.81348">
        <ele>136.5</ele>
        <time>2021-01-03T12:56:58Z</time>
      </trkpt>
      <trkpt lat="43.66598" lon="3.81347">
        <ele>136.7</ele>
        <time>2021-01-03T12:56:59Z</time>
      </trkpt>
      <trkpt lat="43.66594" lon="3.81345">
        <ele>140</ele>
        <time>2021-01-03T12:57:00Z</time>
      </trkpt>
      <trkpt lat="43.66591" lon="3.81344">
        <ele>137.2</ele>
        <time>2021-01-03T12:57:01Z</time>
      </trkpt>
      <trkpt lat="43.66589" lon="3.81343">
        <ele>137.3</ele>
        <time>2021-01-03T12:57:02Z</time>
      </trkpt>
      <trkpt lat="43.66586" lon="3.81342">
        <ele>137.5</ele>
        <time>2021-01-03T12:57:03Z</time>
      </trkpt>
      <trkpt lat="43.66584" lon="3.81342">
        <ele>137.6</ele>
        <time>2021-01-03T12:57:04Z</time>
      </trkpt>
      <trkpt lat="43.66582" lon="3.81341">
        <ele>137.8</ele>
        <time>2021-01-03T12:57:05Z</time>
      </trkpt>
      <trkpt lat="43.6658" lon="3.81341">
        <ele>138</ele>
        <time>2021-01-03T12:57:06Z</time>
      </trkpt>
      <trkpt lat="43.66578" lon="3.8134">
        <ele>138.1</ele>
        <time>2021-01-03T12:57:07Z</time>
      </trkpt>
      <trkpt lat="43.66576" lon="3.8134">
        <ele>138.3</ele>
        <time>2021-01-03T12:57:08Z</time>
      </trkpt>
      <trkpt lat="43.66574" lon="3.8134">
        <ele>138.4</ele>
        <time>2021-01-03T12:57:10Z</time>
      </trkpt>
      <trkpt lat="43.66571" lon="3.81339">
        <ele>138.7</ele>
        <time>2021-01-03T12:57:11Z</time>
      </trkpt>
      <trkpt lat="43.66569" lon="3.81339">
        <ele>138.8</ele>
        <time>2021-01-03T12:57:12Z</time>
      </trkpt>
      <trkpt lat="43.66567" lon="3.81338">
        <ele>139</ele>
        <time>2021-01-03T12:57:13Z</time>
      </trkpt>
      <trkpt lat="43.66565" lon="3.81338">
        <ele>139.2</ele>
        <time>2021-01-03T12:57:14Z</time>
      </trkpt>
      <trkpt lat="43.66562" lon="3.81337">
        <ele>139.4</ele>
        <time>2021-01-03T12:57:15Z</time>
      </trkpt>
      <trkpt lat="43.6656" lon="3.81337">
        <ele>139.5</ele>
        <time>2021-01-03T12:57:16Z</time>
      </trkpt>
      <trkpt lat="43.66558" lon="3.81336">
        <ele>139.7</ele>
        <time>2021-01-03T12:57:17Z</time>
      </trkpt>
      <trkpt lat="43.66556" lon="3.81336">
        <ele>139.9</ele>
        <time>2021-01-03T12:57:18Z</time>
      </trkpt>
      <trkpt lat="43.66553" lon="3.81335">
        <ele>142</ele>
        <time>2021-01-03T12:57:19Z</time>
      </trkpt>
      <trkpt lat="43.66551" lon="3.81334">
        <ele>140</ele>
        <time>2021-01-03T12:57:20Z</time>
      </trkpt>
      <trkpt lat="43.66549" lon="3.81334">
        <ele>140</ele>
        <time>2021-01-03T12:57:21Z</time>
      </trkpt>
      <trkpt lat="43.66546" lon="3.81333">
        <ele>140</ele>
        <time>2021-01-03T12:57:22Z</time>
      </trkpt>
      <trkpt lat="43.66544" lon="3.81333">
        <ele>140</ele>
        <time>2021-01-03T12:57:23Z</time>
      </trkpt>
      <trkpt lat="43.66542" lon="3.81332">
        <ele>140</ele>
        <time>2021-01-03T12:57:24Z</time>
      </trkpt>
      <trkpt lat="43.66539" lon="3.81332">
        <ele>140</ele>
        <time>2021-01-03T12:57:25Z</time>
      </trkpt>
      <trkpt lat="43.66537" lon="3.81331">
        <ele>139.9</ele>
        <time>2021-01-03T12:57:26Z</time>
      </trkpt>
      <trkpt lat="43.66535" lon="3.81331">
        <ele>139.9</ele>
        <time>2021-01-03T12:57:27Z</time>
      </trkpt>
      <trkpt lat="43.66532" lon="3.8133">
        <ele>139.9</ele>
        <time>2021-01-03T12:57:28Z</time>
      </trkpt>
      <trkpt lat="43.6653" lon="3.8133">
        <ele>143</ele>
        <time>2021-01-03T12:57:29Z</time>
      </trkpt>
      <trkpt lat="43.66527" lon="3.81329">
        <ele>139.8</ele>
        <time>2021-01-03T12:57:30Z</time>
      </trkpt>
      <trkpt lat="43.66525" lon="3.81328">
        <ele>139.8</ele>
        <time>2021-01-03T12:57:31Z</time>
      </trkpt>
      <trkpt lat="43.66522" lon="3.81328">
        <ele>139.8</ele>
        <time>2021-01-03T12:57:32Z</time>
      </trkpt>
      <trkpt lat="43.66519" lon="3.81329">
        <ele>139.8</ele>
        <time>2021-01-03T12:57:33Z</time>
      </trkpt>
      <trkpt lat="43.66516" lon="3.81329">
        <ele>139.8</ele>
        <time>2021-01-03T12:57:34Z</time>
      </trkpt>
      <trkpt lat="43.66514" lon="3.81331">
        <ele>139.9</ele>
        <time>2021-01-03T12:57:35Z</time>
      </trkpt>
      <trkpt lat="43.66511" lon="3.81332">
        <ele>139.9</ele>
        <time>2021-01-03T12:57:36Z</time>
      </trkpt>
      <trkpt lat="43.66509" lon="3.81333">
        <ele>140</ele>
        <time>2021-01-03T12:57:37Z</time>
      </trkpt>
      <trkpt lat="43.66506" lon="3.81335">
        <ele>140.1</ele>
        <time>2021-01-03T12:57:38Z</time>
      </trkpt>
      <trkpt lat="43.66503" lon="3.81336">
        <ele>144</ele>
        <time>2021-01-03T12:57:39Z</time>
      </trkpt>
      <trkpt lat="43.66501" lon="3.81337">
        <ele>140.1</ele>
        <time>2021-01-03T12:57:40Z</time>
      </trkpt>
      <trkpt lat="43.66498" lon="3.81338">
        <ele>140.1</ele>
        <time>2021-01-03T12:57:41Z</time>
      </trkpt>
      <trkpt lat="43.66495" lon="3.8134">
        <ele>140.1</ele>
        <time>2021-01-03T12:57:42Z</time>
      </trkpt>
      <trkpt lat="43.66493" lon="3.81341">
        <ele>140.1</ele>
        <time>2021-01-03T12:57:43Z</time>
      </trkpt>
      <trkpt lat="43.6649" lon="3.81342">
        <ele>140.1</ele>
        <time>2021-01-03T12:57:44Z</time>
      </trkpt>
      <trkpt lat="43.66488" lon="3.81343">
        <ele>140.1</ele>
        <time>2021-01-03T12:57:45Z</time>
      </trkpt>
      <trkpt lat="43.66485" lon="3.81343">
        <ele>140</ele>
        <time>2021-01-03T12:57:46Z</time>
      </trkpt>
      <trkpt lat="43.66482" lon="3.81343">
        <ele>139.9</ele>
        <time>2021-01-03T12:57:47Z</time>
      </trkpt>
      <trkpt lat="43.66479" lon="3.81343">
        <ele>139.9</ele>
        <time>2021-01-03T12:57:48Z</time>
      </trkpt>
      <trkpt lat="43.66475" lon="3.81343">
        <ele>144</ele>
        <time>2021-01-03T12:57:49Z</time>
      </trkpt>
      <trkpt lat="43.66472" lon="3.81343">
        <ele>139.7</ele>
        <time>2021-01-03T12:57:50Z</time>
      </trkpt>
      <trkpt lat="43.66469" lon="3.81344">
        <ele>139.8</ele>
        <time>2021-01-03T12:57:51Z</time>
      </trkpt>
      <trkpt lat="43.66466" lon="3.81345">
        <ele>139.9</ele>
        <time>2021-01-03T12:57:52Z</time>
      </trkpt>
      <trkpt lat="43.66463" lon="3.81346">
        <ele>140.1</ele>
        <time>2021-01-03T12:57:53Z</time>
      </trkpt>
      <trkpt lat="43.66461" lon="3.81348">
        <ele>140.3</ele>
        <time>2021-01-03T12:57:54Z</time>
      </trkpt>
      <trkpt lat="43.66458" lon="3.81349">
        <ele>140.4</ele>
        <time>2021-01-03T12:57:55Z</time>
      </trkpt>
      <trkpt lat="43.66457" lon="3.8135">
        <ele>140.5</ele>
        <time>2021-01-03T12:57:56Z</time>
      </trkpt>
      <trkpt lat="43.66455" lon="3.81352">
        <ele>140.8</ele>
        <time>2021-01-03T12:57:57Z</time>
      </trkpt>
      <trkpt lat="43.66453" lon="3.81353">
        <ele>140.9</ele>
        <time>2021-01-03T12:57:58Z</time>
      </trkpt>
      <trkpt lat="43.6645" lon="3.81355">
        <ele>141.2</ele>
        <time>2021-01-03T12:58:00Z</time>
      </trkpt>
      <trkpt lat="43.66447" lon="3.81357">
        <ele>141.5</ele>
        <time>2021-01-03T12:58:02Z</time>
      </trkpt>
      <trkpt lat="43.66444" lon="3.81359">
        <ele>141.8</ele>
        <time>2021-01-03T12:58:04Z</time>
      </trkpt>
      <trkpt lat="43.66441" lon="3.81362">
        <ele>142.3</ele>
        <time>2021-01-03T12:58:06Z</time>
      </trkpt>
      <trkpt lat="43.66438" lon="3.81364">
        <ele>142.7</ele>
        <time>2021-01-03T12:58:08Z</time>
      </trkpt>
      <trkpt lat="43.66436" lon="3.81366">
        <ele>143</ele>
        <time>2021-01-03T12:58:10Z</time>
      </trkpt>
      <trkpt lat="43.66434" lon="3.81368">
        <ele>143.2</ele>
        <time>2021-01-03T12:58:12Z</time>
      </trkpt>
      <trkpt lat="43.6643" lon="3.8137">
        <ele>143.7</ele>
        <time>2021-01-03T12:58:14Z</time>
      </trkpt>
      <trkpt lat="43.66429" lon="3.81371">
        <ele>143.8</ele>
        <time>2021-01-03T12:58:15Z</time>
      </trkpt>
      <trkpt lat="43.66427" lon="3.81372">
        <ele>144</ele>
        <time>2021-01-03T12:58:16Z</time>
      </trkpt>
      <trkpt lat="43.66424" lon="3.81374">
        <ele>144.4</ele>
        <time>2021-01-03T12:58:18Z</time>
      </trkpt>
      <trkpt lat="43.66422" lon="3.81377">
        <ele>144.8</ele>
        <time>2021-01-03T12:58:20Z</time>
      </trkpt>
      <trkpt lat="43.66421" lon="3.81378">
        <ele>144.9</ele>
        <time>2021-01-03T12:58:21Z</time>
      </trkpt>
      <trkpt lat="43.66417" lon="3.8138">
        <ele>145.3</ele>
        <time>2021-01-03T12:58:23Z</time>
      </trkpt>
      <trkpt lat="43.66415" lon="3.81382">
        <ele>145.5</ele>
        <time>2021-01-03T12:58:25Z</time>
      </trkpt>
      <trkpt lat="43.66412" lon="3.81384">
        <ele>145.8</ele>
        <time>2021-01-03T12:58:27Z</time>
      </trkpt>
      <trkpt lat="43.66409" lon="3.81385">
        <ele>148</ele>
        <time>2021-01-03T12:58:29Z</time>
      </trkpt>
      <trkpt lat="43.66406" lon="3.81387">
        <ele>146.2</ele>
        <time>2021-01-03T12:58:31Z</time>
      </trkpt>
      <trkpt lat="43.66403" lon="3.81389">
        <ele>146.5</ele>
        <time>2021-01-03T12:58:33Z</time>
      </trkpt>
      <trkpt lat="43.664" lon="3.81391">
        <ele>146.7</ele>
        <time>2021-01-03T12:58:35Z</time>
      </trkpt>
      <trkpt lat="43.66397" lon="3.81394">
        <ele>146.9</ele>
        <time>2021-01-03T12:58:37Z</time>
      </trkpt>
      <trkpt lat="43.66394" lon="3.81396">
        <ele>149</ele>
        <time>2021-01-03T12:58:39Z</time>
      </trkpt>
      <trkpt lat="43.66392" lon="3.81398">
        <ele>147.2</ele>
        <time>2021-01-03T12:58:41Z</time>
      </trkpt>
      <trkpt lat="43.66389" lon="3.814">
        <ele>147.4</ele>
        <time>2021-01-03T12:58:43Z</time>
      </trkpt>
      <trkpt lat="43.66386" lon="3.81403">
        <ele>147.6</ele>
        <time>2021-01-03T12:58:45Z</time>
      </trkpt>
      <trkpt lat="43.66384" lon="3.81405">
        <ele>147.7</ele>
        <time>2021-01-03T12:58:47Z</time>
      </trkpt>
      <trkpt lat="43.66382" lon="3.81407">
        <ele>150</ele>
        <time>2021-01-03T12:58:49Z</time>
      </trkpt>
      <trkpt lat="43.66379" lon="3.8141">
        <ele>148</ele>
        <time>2021-01-03T12:58:51Z</time>
      </trkpt>
      <trkpt lat="43.66377" lon="3.81413">
        <ele>148.2</ele>
        <time>2021-01-03T12:58:53Z</time>
      </trkpt>
      <trkpt lat="43.66375" lon="3.81416">
        <ele>148.5</ele>
        <time>2021-01-03T12:58:55Z</time>
      </trkpt>
      <trkpt lat="43.66373" lon="3.81419">
        <ele>148.7</ele>
        <time>2021-01-03T12:58:57Z</time>
      </trkpt>
      <trkpt lat="43.6637" lon="3.81422">
        <ele>151</ele>
        <time>2021-01-03T12:58:59Z</time>
      </trkpt>
      <trkpt lat="43.66368" lon="3.81424">
        <ele>149</ele>
        <time>2021-01-03T12:59:01Z</time>
      </trkpt>
      <trkpt lat="43.66366" lon="3.81426">
        <ele>149.2</ele>
        <time>2021-01-03T12:59:02Z</time>
      </trkpt>
      <trkpt lat="43.66364" lon="3.81429">
        <ele>149.3</ele>
        <time>2021-01-03T12:59:04Z</time>
      </trkpt>
      <trkpt lat="43.66361" lon="3.81432">
        <ele>149.5</ele>
        <time>2021-01-03T12:59:06Z</time>
      </trkpt>
      <trkpt lat="43.6636" lon="3.81434">
        <ele>149.6</ele>
        <time>2021-01-03T12:59:07Z</time>
      </trkpt>
      <trkpt lat="43.66358" lon="3.81436">
        <ele>149.5</ele>
        <time>2021-01-03T12:59:08Z</time>
      </trkpt>
      <trkpt lat="43.66355" lon="3.81438">
        <ele>149.4</ele>
        <time>2021-01-03T12:59:10Z</time>
      </trkpt>
      <trkpt lat="43.66354" lon="3.81439">
        <ele>149.4</ele>
        <time>2021-01-03T12:59:11Z</time>
      </trkpt>
      <trkpt lat="43.66351" lon="3.81442">
        <ele>149.5</ele>
        <time>2021-01-03T12:59:13Z</time>
      </trkpt>
      <trkpt lat="43.66349" lon="3.81445">
        <ele>149.6</ele>
        <time>2021-01-03T12:59:15Z</time>
      </trkpt>
      <trkpt lat="43.66347" lon="3.81448">
        <ele>149.7</ele>
        <time>2021-01-03T12:59:17Z</time>
      </trkpt>
      <trkpt lat="43.66346" lon="3.81452">
        <ele>154</ele>
        <time>2021-01-03T12:59:19Z</time>
      </trkpt>
      <trkpt lat="43.66346" lon="3.81457">
        <ele>150.2</ele>
        <time>2021-01-03T12:59:21Z</time>
      </trkpt>
      <trkpt lat="43.66346" lon="3.8146">
        <ele>150.3</ele>
        <time>2021-01-03T12:59:22Z</time>
      </trkpt>
      <trkpt lat="43.66346" lon="3.81463">
        <ele>150.5</ele>
        <time>2021-01-03T12:59:23Z</time>
      </trkpt>
      <trkpt lat="43.66347" lon="3.81465">
        <ele>150.6</ele>
        <time>2021-01-03T12:59:24Z</time>
      </trkpt>
      <trkpt lat="43.66348" lon="3.81468">
        <ele>150.8</ele>
        <time>2021-01-03T12:59:25Z</time>
      </trkpt>
      <trkpt lat="43.66349" lon="3.81471">
        <ele>150.9</ele>
        <time>2021-01-03T12:59:26Z</time>
      </trkpt>
      <trkpt lat="43.6635" lon="3.81474">
        <ele>151</ele>
        <time>2021-01-03T12:59:27Z</time>
      </trkpt>
      <trkpt lat="43.6635" lon="3.81477">
        <ele>151</ele>
        <time>2021-01-03T12:59:28Z</time>
      </trkpt>
      <trkpt lat="43.66351" lon="3.81481">
        <ele>155</ele>
        <time>2021-01-03T12:59:29Z</time>
      </trkpt>
      <trkpt lat="43.66352" lon="3.81484">
        <ele>151</ele>
        <time>2021-01-03T12:59:30Z</time>
      </trkpt>
      <trkpt lat="43.66353" lon="3.81487">
        <ele>151</ele>
        <time>2021-01-03T12:59:31Z</time>
      </trkpt>
      <trkpt lat="43.66353" lon="3.81491">
        <ele>151</ele>
        <time>2021-01-03T12:59:32Z</time>
      </trkpt>
      <trkpt lat="43.66353" lon="3.81495">
        <ele>151</ele>
        <time>2021-01-03T12:59:33Z</time>
      </trkpt>
      <trkpt lat="43.66354" lon="3.81498">
        <ele>151</ele>
        <time>2021-01-03T12:59:34Z</time>
      </trkpt>
      <trkpt lat="43.66354" lon="3.81502">
        <ele>151</ele>
        <time>2021-01-03T12:59:35Z</time>
      </trkpt>
      <trkpt lat="43.66354" lon="3.81505">
        <ele>151</ele>
        <time>2021-01-03T12:59:36Z</time>
      </trkpt>
      <trkpt lat="43.66354" lon="3.81508">
        <ele>151</ele>
        <time>2021-01-03T12:59:37Z</time>
      </trkpt>
      <trkpt lat="43.66355" lon="3.81511">
        <ele>151</ele>
        <time>2021-01-03T12:59:38Z</time>
      </trkpt>
      <trkpt lat="43.66355" lon="3.81514">
        <ele>156</ele>
        <time>2021-01-03T12:59:39Z</time>
      </trkpt>
      <trkpt lat="43.66355" lon="3.81517">
        <ele>151</ele>
        <time>2021-01-03T12:59:40Z</time>
      </trkpt>
      <trkpt lat="43.66356" lon="3.8152">
        <ele>151</ele>
        <time>2021-01-03T12:59:41Z</time>
      </trkpt>
      <trkpt lat="43.66356" lon="3.81523">
        <ele>151</ele>
        <time>2021-01-03T12:59:42Z</time>
      </trkpt>
      <trkpt lat="43.66358" lon="3.81526">
        <ele>151</ele>
        <time>2021-01-03T12:59:43Z</time>
      </trkpt>
      <trkpt lat="43.66359" lon="3.8153">
        <ele>151</ele>
        <time>2021-01-03T12:59:44Z</time>
      </trkpt>
      <trkpt lat="43.6636" lon="3.81533">
        <ele>151</ele>
        <time>2021-01-03T12:59:45Z</time>
      </trkpt>
      <trkpt lat="43.6636" lon="3.81537">
        <ele>151</ele>
        <time>2021-01-03T12:59:46Z</time>
      </trkpt>
      <trkpt lat="43.66358" lon="3.81541">
        <ele>151</ele>
        <time>2021-01-03T12:59:47Z</time>
      </trkpt>
      <trkpt lat="43.66355" lon="3.81545">
        <ele>151</ele>
        <time>2021-01-03T12:59:48Z</time>
      </trkpt>
      <trkpt lat="43.66353" lon="3.81547">
        <ele>156</ele>
        <time>2021-01-03T12:59:49Z</time>
      </trkpt>
      <trkpt lat="43.6635" lon="3.8155">
        <ele>151</ele>
        <time>2021-01-03T12:59:50Z</time>
      </trkpt>
      <trkpt lat="43.66347" lon="3.81552">
        <ele>151</ele>
        <time>2021-01-03T12:59:51Z</time>
      </trkpt>
      <trkpt lat="43.66344" lon="3.81554">
        <ele>151</ele>
        <time>2021-01-03T12:59:52Z</time>
      </trkpt>
      <trkpt lat="43.66342" lon="3.81556">
        <ele>151</ele>
        <time>2021-01-03T12:59:53Z</time>
      </trkpt>
      <trkpt lat="43.66339" lon="3.81558">
        <ele>150.9</ele>
        <time>2021-01-03T12:59:54Z</time>
      </trkpt>
      <trkpt lat="43.66337" lon="3.8156">
        <ele>150.8</ele>
        <time>2021-01-03T12:59:55Z</time>
      </trkpt>
      <trkpt lat="43.66335" lon="3.81562">
        <ele>150.8</ele>
        <time>2021-01-03T12:59:56Z</time>
      </trkpt>
      <trkpt lat="43.66333" lon="3.81564">
        <ele>150.6</ele>
        <time>2021-01-03T12:59:57Z</time>
      </trkpt>
      <trkpt lat="43.66331" lon="3.81566">
        <ele>150.2</ele>
        <time>2021-01-03T12:59:58Z</time>
      </trkpt>
      <trkpt lat="43.66327" lon="3.81571">
        <ele>156</ele>
        <time>2021-01-03T12:59:59Z</time>
      </trkpt>
      <trkpt lat="43.66326" lon="3.81574">
        <ele>148.9</ele>
        <time>2021-01-03T13:00:00Z</time>
      </trkpt>
      <trkpt lat="43.66325" lon="3.81578">
        <ele>148.6</ele>
        <time>2021-01-03T13:00:01Z</time>
      </trkpt>
      <trkpt lat="43.66325" lon="3.81583">
        <ele>148.5</ele>
        <time>2021-01-03T13:00:02Z</time>
      </trkpt>
      <trkpt lat="43.66327" lon="3.81589">
        <ele>148.8</ele>
        <time>2021-01-03T13:00:03Z</time>
      </trkpt>
      <trkpt lat="43.66329" lon="3.81593">
        <ele>149.1</ele>
        <time>2021-01-03T13:00:04Z</time>
      </trkpt>
      <trkpt lat="43.6633" lon="3.81597">
        <ele>149.3</ele>
        <time>2021-01-03T13:00:05Z</time>
      </trkpt>
      <trkpt lat="43.66331" lon="3.81606">
        <ele>149.4</ele>
        <time>2021-01-03T13:00:07Z</time>
      </trkpt>
      <trkpt lat="43.66332" lon="3.81611">
        <ele>149.7</ele>
        <time>2021-01-03T13:00:08Z</time>
      </trkpt>
      <trkpt lat="43.66332" lon="3.8162">
        <ele>156</ele>
        <time>2021-01-03T13:00:10Z</time>
      </trkpt>
      <trkpt lat="43.66331" lon="3.81625">
        <ele>149.4</ele>
        <time>2021-01-03T13:00:11Z</time>
      </trkpt>
      <trkpt lat="43.66331" lon="3.8163">
        <ele>149.4</ele>
        <time>2021-01-03T13:00:12Z</time>
      </trkpt>
      <trkpt lat="43.6633" lon="3.81634">
        <ele>149.2</ele>
        <time>2021-01-03T13:00:13Z</time>
      </trkpt>
      <trkpt lat="43.66329" lon="3.81638">
        <ele>148.9</ele>
        <time>2021-01-03T13:00:14Z</time>
      </trkpt>
      <trkpt lat="43.66328" lon="3.81642">
        <ele>148.7</ele>
        <time>2021-01-03T13:00:15Z</time>
      </trkpt>
      <trkpt lat="43.66327" lon="3.81646">
        <ele>148.4</ele>
        <time>2021-01-03T13:00:16Z</time>
      </trkpt>
      <trkpt lat="43.66325" lon="3.8165">
        <ele>147.9</ele>
        <time>2021-01-03T13:00:17Z</time>
      </trkpt>
      <trkpt lat="43.66324" lon="3.81654">
        <ele>147.6</ele>
        <time>2021-01-03T13:00:18Z</time>
      </trkpt>
      <trkpt lat="43.66323" lon="3.81658">
        <ele>147.4</ele>
        <time>2021-01-03T13:00:20Z</time>
      </trkpt>
      <trkpt lat="43.66322" lon="3.81663">
        <ele>147.1</ele>
        <time>2021-01-03T13:00:21Z</time>
      </trkpt>
      <trkpt lat="43.66321" lon="3.81667">
        <ele>146.9</ele>
        <time>2021-01-03T13:00:22Z</time>
      </trkpt>
      <trkpt lat="43.6632" lon="3.81672">
        <ele>146.6</ele>
        <time>2021-01-03T13:00:23Z</time>
      </trkpt>
      <trkpt lat="43.6632" lon="3.81676">
        <ele>146.6</ele>
        <time>2021-01-03T13:00:24Z</time>
      </trkpt>
      <trkpt lat="43.6632" lon="3.8168">
        <ele>146.6</ele>
        <time>2021-01-03T13:00:25Z</time>
      </trkpt>
      <trkpt lat="43.6632" lon="3.81684">
        <ele>146.6</ele>
        <time>2021-01-03T13:00:26Z</time>
      </trkpt>
      <trkpt lat="43.6632" lon="3.81688">
        <ele>146.6</ele>
        <time>2021-01-03T13:00:27Z</time>
      </trkpt>
      <trkpt lat="43.66321" lon="3.81691">
        <ele>146.9</ele>
        <time>2021-01-03T13:00:28Z</time>
      </trkpt>
      <trkpt lat="43.66322" lon="3.81694">
        <ele>155</ele>
        <time>2021-01-03T13:00:29Z</time>
      </trkpt>
      <trkpt lat="43.66324" lon="3.81695">
        <ele>147.6</ele>
        <time>2021-01-03T13:00:30Z</time>
      </trkpt>
      <trkpt lat="43.66326" lon="3.81696">
        <ele>148.1</ele>
        <time>2021-01-03T13:00:31Z</time>
      </trkpt>
      <trkpt lat="43.66327" lon="3.81696">
        <ele>148.4</ele>
        <time>2021-01-03T13:00:32Z</time>
      </trkpt>
      <trkpt lat="43.66329" lon="3.81696">
        <ele>148.9</ele>
        <time>2021-01-03T13:00:33Z</time>
      </trkpt>
      <trkpt lat="43.66332" lon="3.81694">
        <ele>149.7</ele>
        <time>2021-01-03T13:00:34Z</time>
      </trkpt>
      <trkpt lat="43.66335" lon="3.81693">
        <ele>149.9</ele>
        <time>2021-01-03T13:00:35Z</time>
      </trkpt>
      <trkpt lat="43.66337" lon="3.81693">
        <ele>149.7</ele>
        <time>2021-01-03T13:00:36Z</time>
      </trkpt>
      <trkpt lat="43.6634" lon="3.81692">
        <ele>149.5</ele>
        <time>2021-01-03T13:00:37Z</time>
      </trkpt>
      <trkpt lat="43.66342" lon="3.81691">
        <ele>149.4</ele>
        <time>2021-01-03T13:00:38Z</time>
      </trkpt>
      <trkpt lat="43.66345" lon="3.81691">
        <ele>155</ele>
        <time>2021-01-03T13:00:39Z</time>
      </trkpt>
      <trkpt lat="43.66348" lon="3.8169">
        <ele>149</ele>
        <time>2021-01-03T13:00:40Z</time>
      </trkpt>
      <trkpt lat="43.66351" lon="3.81689">
        <ele>148.9</ele>
        <time>2021-01-03T13:00:41Z</time>
      </trkpt>
      <trkpt lat="43.66353" lon="3.81688">
        <ele>148.7</ele>
        <time>2021-01-03T13:00:42Z</time>
      </trkpt>
      <trkpt lat="43.66355" lon="3.81687">
        <ele>148.6</ele>
        <time>2021-01-03T13:00:43Z</time>
      </trkpt>
      <trkpt lat="43.66358" lon="3.81687">
        <ele>148.5</ele>
        <time>2021-01-03T13:00:44Z</time>
      </trkpt>
      <trkpt lat="43.6636" lon="3.81686">
        <ele>148.4</ele>
        <time>2021-01-03T13:00:45Z</time>
      </trkpt>
      <trkpt lat="43.66363" lon="3.81685">
        <ele>148.2</ele>
        <time>2021-01-03T13:00:46Z</time>
      </trkpt>
      <trkpt lat="43.66366" lon="3.81684">
        <ele>148</ele>
        <time>2021-01-03T13:00:47Z</time>
      </trkpt>
      <trkpt lat="43.66369" lon="3.81684">
        <ele>147.8</ele>
        <time>2021-01-03T13:00:48Z</time>
      </trkpt>
      <trkpt lat="43.66372" lon="3.81684">
        <ele>154</ele>
        <time>2021-01-03T13:00:49Z</time>
      </trkpt>
      <trkpt lat="43.66376" lon="3.81684">
        <ele>147.3</ele>
        <time>2021-01-03T13:00:50Z</time>
      </trkpt>
      <trkpt lat="43.66379" lon="3.81684">
        <ele>147.1</ele>
        <time>2021-01-03T13:00:51Z</time>
      </trkpt>
      <trkpt lat="43.66383" lon="3.81685">
        <ele>146.8</ele>
        <time>2021-01-03T13:00:52Z</time>
      </trkpt>
      <trkpt lat="43.66386" lon="3.81688">
        <ele>146.4</ele>
        <time>2021-01-03T13:00:53Z</time>
      </trkpt>
      <trkpt lat="43.66389" lon="3.81692">
        <ele>146.1</ele>
        <time>2021-01-03T13:00:54Z</time>
      </trkpt>
      <trkpt lat="43.66392" lon="3.81695">
        <ele>145.9</ele>
        <time>2021-01-03T13:00:55Z</time>
      </trkpt>
      <trkpt lat="43.66395" lon="3.81699">
        <ele>145.9</ele>
        <time>2021-01-03T13:00:56Z</time>
      </trkpt>
      <trkpt lat="43.66399" lon="3.81703">
        <ele>145.8</ele>
        <time>2021-01-03T13:00:57Z</time>
      </trkpt>
      <trkpt lat="43.66402" lon="3.81706">
        <ele>145.7</ele>
        <time>2021-01-03T13:00:58Z</time>
      </trkpt>
      <trkpt lat="43.66406" lon="3.81708">
        <ele>152</ele>
        <time>2021-01-03T13:00:59Z</time>
      </trkpt>
      <trkpt lat="43.6641" lon="3.8171">
        <ele>145.4</ele>
        <time>2021-01-03T13:01:00Z</time>
      </trkpt>
      <trkpt lat="43.66415" lon="3.81711">
        <ele>145.1</ele>
        <time>2021-01-03T13:01:01Z</time>
      </trkpt>
      <trkpt lat="43.66419" lon="3.81714">
        <ele>144.9</ele>
        <time>2021-01-03T13:01:02Z</time>
      </trkpt>
      <trkpt lat="43.66422" lon="3.81717">
        <ele>144.8</ele>
        <time>2021-01-03T13:01:03Z</time>
      </trkpt>
      <trkpt lat="43.66426" lon="3.81721">
        <ele>144.7</ele>
        <time>2021-01-03T13:01:04Z</time>
      </trkpt>
      <trkpt lat="43.6643" lon="3.81724">
        <ele>144.5</ele>
        <time>2021-01-03T13:01:05Z</time>
      </trkpt>
      <trkpt lat="43.66433" lon="3.81727">
        <ele>144.4</ele>
        <time>2021-01-03T13:01:06Z</time>
      </trkpt>
      <trkpt lat="43.66437" lon="3.8173">
        <ele>144.3</ele>
        <time>2021-01-03T13:01:07Z</time>
      </trkpt>
      <trkpt lat="43.6644" lon="3.81733">
        <ele>144.2</ele>
        <time>2021-01-03T13:01:08Z</time>
      </trkpt>
      <trkpt lat="43.66443" lon="3.81735">
        <ele>150</ele>
        <time>2021-01-03T13:01:09Z</time>
      </trkpt>
      <trkpt lat="43.66446" lon="3.81736">
        <ele>143.9</ele>
        <time>2021-01-03T13:01:10Z</time>
      </trkpt>
      <trkpt lat="43.66449" lon="3.81738">
        <ele>143.8</ele>
        <time>2021-01-03T13:01:11Z</time>
      </trkpt>
      <trkpt lat="43.66453" lon="3.81741">
        <ele>143.7</ele>
        <time>2021-01-03T13:01:12Z</time>
      </trkpt>
      <trkpt lat="43.66456" lon="3.81743">
        <ele>143.6</ele>
        <time>2021-01-03T13:01:13Z</time>
      </trkpt>
      <trkpt lat="43.6646" lon="3.81745">
        <ele>143.4</ele>
        <time>2021-01-03T13:01:14Z</time>
      </trkpt>
      <trkpt lat="43.66464" lon="3.81746">
        <ele>143.3</ele>
        <time>2021-01-03T13:01:15Z</time>
      </trkpt>
      <trkpt lat="43.66467" lon="3.81745">
        <ele>143.2</ele>
        <time>2021-01-03T13:01:16Z</time>
      </trkpt>
      <trkpt lat="43.66469" lon="3.81744">
        <ele>143.1</ele>
        <time>2021-01-03T13:01:17Z</time>
      </trkpt>
      <trkpt lat="43.66471" lon="3.81741">
        <ele>143</ele>
        <time>2021-01-03T13:01:18Z</time>
      </trkpt>
      <trkpt lat="43.66472" lon="3.81738">
        <ele>143</ele>
        <time>2021-01-03T13:01:19Z</time>
      </trkpt>
      <trkpt lat="43.66472" lon="3.81736">
        <ele>148</ele>
        <time>2021-01-03T13:01:20Z</time>
      </trkpt>
      <trkpt lat="43.66472" lon="3.81733">
        <ele>143</ele>
        <time>2021-01-03T13:01:21Z</time>
      </trkpt>
      <trkpt lat="43.66471" lon="3.8173">
        <ele>143</ele>
        <time>2021-01-03T13:01:22Z</time>
      </trkpt>
      <trkpt lat="43.66469" lon="3.81726">
        <ele>143.1</ele>
        <time>2021-01-03T13:01:23Z</time>
      </trkpt>
      <trkpt lat="43.66468" lon="3.81722">
        <ele>143.2</ele>
        <time>2021-01-03T13:01:24Z</time>
      </trkpt>
      <trkpt lat="43.66466" lon="3.81717">
        <ele>143.3</ele>
        <time>2021-01-03T13:01:25Z</time>
      </trkpt>
      <trkpt lat="43.66465" lon="3.81712">
        <ele>143.4</ele>
        <time>2021-01-03T13:01:26Z</time>
      </trkpt>
      <trkpt lat="43.66463" lon="3.81707">
        <ele>143.5</ele>
        <time>2021-01-03T13:01:27Z</time>
      </trkpt>
      <trkpt lat="43.66462" lon="3.81702">
        <ele>143.6</ele>
        <time>2021-01-03T13:01:28Z</time>
      </trkpt>
      <trkpt lat="43.66461" lon="3.81697">
        <ele>148</ele>
        <time>2021-01-03T13:01:29Z</time>
      </trkpt>
      <trkpt lat="43.6646" lon="3.81692">
        <ele>143.9</ele>
        <time>2021-01-03T13:01:30Z</time>
      </trkpt>
      <trkpt lat="43.6646" lon="3.81687">
        <ele>143.9</ele>
        <time>2021-01-03T13:01:31Z</time>
      </trkpt>
      <trkpt lat="43.6646" lon="3.81682">
        <ele>143.9</ele>
        <time>2021-01-03T13:01:32Z</time>
      </trkpt>
      <trkpt lat="43.66461" lon="3.81677">
        <ele>143.8</ele>
        <time>2021-01-03T13:01:33Z</time>
      </trkpt>
      <trkpt lat="43.66461" lon="3.81671">
        <ele>143.8</ele>
        <time>2021-01-03T13:01:34Z</time>
      </trkpt>
      <trkpt lat="43.66462" lon="3.81666">
        <ele>143.7</ele>
        <time>2021-01-03T13:01:35Z</time>
      </trkpt>
      <trkpt lat="43.66464" lon="3.81661">
        <ele>143.6</ele>
        <time>2021-01-03T13:01:36Z</time>
      </trkpt>
      <trkpt lat="43.66465" lon="3.81656">
        <ele>143.5</ele>
        <time>2021-01-03T13:01:37Z</time>
      </trkpt>
      <trkpt lat="43.66467" lon="3.81651">
        <ele>143.4</ele>
        <time>2021-01-03T13:01:38Z</time>
      </trkpt>
      <trkpt lat="43.66469" lon="3.81646">
        <ele>147</ele>
        <time>2021-01-03T13:01:39Z</time>
      </trkpt>
      <trkpt lat="43.66471" lon="3.81642">
        <ele>143.1</ele>
        <time>2021-01-03T13:01:40Z</time>
      </trkpt>
      <trkpt lat="43.66474" lon="3.81638">
        <ele>143.1</ele>
        <time>2021-01-03T13:01:41Z</time>
      </trkpt>
      <trkpt lat="43.66477" lon="3.81635">
        <ele>143.3</ele>
        <time>2021-01-03T13:01:42Z</time>
      </trkpt>
      <trkpt lat="43.6648" lon="3.81631">
        <ele>143.5</ele>
        <time>2021-01-03T13:01:43Z</time>
      </trkpt>
      <trkpt lat="43.66482" lon="3.81628">
        <ele>143.6</ele>
        <time>2021-01-03T13:01:44Z</time>
      </trkpt>
      <trkpt lat="43.66485" lon="3.81624">
        <ele>143.7</ele>
        <time>2021-01-03T13:01:45Z</time>
      </trkpt>
      <trkpt lat="43.66487" lon="3.8162">
        <ele>143.9</ele>
        <time>2021-01-03T13:01:46Z</time>
      </trkpt>
      <trkpt lat="43.66488" lon="3.81616">
        <ele>143.9</ele>
        <time>2021-01-03T13:01:47Z</time>
      </trkpt>
      <trkpt lat="43.6649" lon="3.81612">
        <ele>144</ele>
        <time>2021-01-03T13:01:48Z</time>
      </trkpt>
      <trkpt lat="43.66491" lon="3.81608">
        <ele>147</ele>
        <time>2021-01-03T13:01:49Z</time>
      </trkpt>
      <trkpt lat="43.66492" lon="3.81604">
        <ele>144.1</ele>
        <time>2021-01-03T13:01:50Z</time>
      </trkpt>
      <trkpt lat="43.66493" lon="3.816">
        <ele>144.1</ele>
        <time>2021-01-03T13:01:51Z</time>
      </trkpt>
      <trkpt lat="43.66494" lon="3.81596">
        <ele>144.1</ele>
        <time>2021-01-03T13:01:52Z</time>
      </trkpt>
      <trkpt lat="43.66494" lon="3.81591">
        <ele>144.2</ele>
        <time>2021-01-03T13:01:53Z</time>
      </trkpt>
      <trkpt lat="43.66495" lon="3.81587">
        <ele>144.2</ele>
        <time>2021-01-03T13:01:54Z</time>
      </trkpt>
      <trkpt lat="43.66496" lon="3.81582">
        <ele>144.1</ele>
        <time>2021-01-03T13:01:55Z</time>
      </trkpt>
      <trkpt lat="43.66497" lon="3.81578">
        <ele>144.1</ele>
        <time>2021-01-03T13:01:56Z</time>
      </trkpt>
      <trkpt lat="43.66498" lon="3.81573">
        <ele>144.1</ele>
        <time>2021-01-03T13:01:57Z</time>
      </trkpt>
      <trkpt lat="43.66499" lon="3.81568">
        <ele>144</ele>
        <time>2021-01-03T13:01:58Z</time>
      </trkpt>
      <trkpt lat="43.665" lon="3.81563">
        <ele>148</ele>
        <time>2021-01-03T13:01:59Z</time>
      </trkpt>
      <trkpt lat="43.66501" lon="3.81558">
        <ele>144</ele>
        <time>2021-01-03T13:02:00Z</time>
      </trkpt>
      <trkpt lat="43.66502" lon="3.81552">
        <ele>144</ele>
        <time>2021-01-03T13:02:01Z</time>
      </trkpt>
      <trkpt lat="43.66503" lon="3.81547">
        <ele>144</ele>
        <time>2021-01-03T13:02:02Z</time>
      </trkpt>
      <trkpt lat="43.66504" lon="3.81542">
        <ele>143.9</ele>
        <time>2021-01-03T13:02:03Z</time>
      </trkpt>
      <trkpt lat="43.66506" lon="3.81537">
        <ele>143.9</ele>
        <time>2021-01-03T13:02:04Z</time>
      </trkpt>
      <trkpt lat="43.66507" lon="3.81532">
        <ele>143.8</ele>
        <time>2021-01-03T13:02:05Z</time>
      </trkpt>
      <trkpt lat="43.66508" lon="3.81527">
        <ele>143.7</ele>
        <time>2021-01-03T13:02:06Z</time>
      </trkpt>
      <trkpt lat="43.66509" lon="3.81521">
        <ele>143.6</ele>
        <time>2021-01-03T13:02:07Z</time>
      </trkpt>
      <trkpt lat="43.6651" lon="3.81516">
        <ele>143.5</ele>
        <time>2021-01-03T13:02:08Z</time>
      </trkpt>
      <trkpt lat="43.66511" lon="3.8151">
        <ele>148</ele>
        <time>2021-01-03T13:02:09Z</time>
      </trkpt>
      <trkpt lat="43.66513" lon="3.81505">
        <ele>143.1</ele>
        <time>2021-01-03T13:02:10Z</time>
      </trkpt>
      <trkpt lat="43.66515" lon="3.815">
        <ele>142.9</ele>
        <time>2021-01-03T13:02:11Z</time>
      </trkpt>
      <trkpt lat="43.66518" lon="3.81497">
        <ele>142.6</ele>
        <time>2021-01-03T13:02:12Z</time>
      </trkpt>
      <trkpt lat="43.66521" lon="3.81494">
        <ele>142.3</ele>
        <time>2021-01-03T13:02:13Z</time>
      </trkpt>
      <trkpt lat="43.66526" lon="3.81492">
        <ele>141.8</ele>
        <time>2021-01-03T13:02:14Z</time>
      </trkpt>
      <trkpt lat="43.6653" lon="3.81491">
        <ele>141.6</ele>
        <time>2021-01-03T13:02:15Z</time>
      </trkpt>
      <trkpt lat="43.66535" lon="3.8149">
        <ele>141.3</ele>
        <time>2021-01-03T13:02:16Z</time>
      </trkpt>
      <trkpt lat="43.6654" lon="3.81489">
        <ele>141</ele>
        <time>2021-01-03T13:02:17Z</time>
      </trkpt>
      <trkpt lat="43.66544" lon="3.81486">
        <ele>140.6</ele>
        <time>2021-01-03T13:02:18Z</time>
      </trkpt>
      <trkpt lat="43.66549" lon="3.81483">
        <ele>147</ele>
        <time>2021-01-03T13:02:19Z</time>
      </trkpt>
      <trkpt lat="43.66554" lon="3.81479">
        <ele>139.6</ele>
        <time>2021-01-03T13:02:20Z</time>
      </trkpt>
      <trkpt lat="43.6656" lon="3.81474">
        <ele>138.8</ele>
        <time>2021-01-03T13:02:21Z</time>
      </trkpt>
      <trkpt lat="43.66565" lon="3.81468">
        <ele>138.2</ele>
        <time>2021-01-03T13:02:22Z</time>
      </trkpt>
      <trkpt lat="43.6657" lon="3.81461">
        <ele>137.6</ele>
        <time>2021-01-03T13:02:23Z</time>
      </trkpt>
      <trkpt lat="43.66575" lon="3.81454">
        <ele>136.9</ele>
        <time>2021-01-03T13:02:24Z</time>
      </trkpt>
      <trkpt lat="43.66579" lon="3.81446">
        <ele>136.4</ele>
        <time>2021-01-03T13:02:25Z</time>
      </trkpt>
      <trkpt lat="43.66584" lon="3.81438">
        <ele>136</ele>
        <time>2021-01-03T13:02:26Z</time>
      </trkpt>
      <trkpt lat="43.66589" lon="3.8143">
        <ele>135.7</ele>
        <time>2021-01-03T13:02:27Z</time>
      </trkpt>
      <trkpt lat="43.66594" lon="3.81423">
        <ele>135.3</ele>
        <time>2021-01-03T13:02:28Z</time>
      </trkpt>
      <trkpt lat="43.66598" lon="3.81416">
        <ele>144</ele>
        <time>2021-01-03T13:02:29Z</time>
      </trkpt>
      <trkpt lat="43.66602" lon="3.81407">
        <ele>134.7</ele>
        <time>2021-01-03T13:02:30Z</time>
      </trkpt>
      <trkpt lat="43.66605" lon="3.814">
        <ele>134.4</ele>
        <time>2021-01-03T13:02:31Z</time>
      </trkpt>
      <trkpt lat="43.66608" lon="3.81392">
        <ele>134.2</ele>
        <time>2021-01-03T13:02:32Z</time>
      </trkpt>
      <trkpt lat="43.66612" lon="3.81385">
        <ele>134.2</ele>
        <time>2021-01-03T13:02:33Z</time>
      </trkpt>
      <trkpt lat="43.66615" lon="3.81378">
        <ele>134.6</ele>
        <time>2021-01-03T13:02:34Z</time>
      </trkpt>
      <trkpt lat="43.66618" lon="3.81371">
        <ele>134.9</ele>
        <time>2021-01-03T13:02:35Z</time>
      </trkpt>
      <trkpt lat="43.6662" lon="3.81365">
        <ele>135.1</ele>
        <time>2021-01-03T13:02:36Z</time>
      </trkpt>
      <trkpt lat="43.66622" lon="3.81359">
        <ele>135.2</ele>
        <time>2021-01-03T13:02:37Z</time>
      </trkpt>
      <trkpt lat="43.66624" lon="3.81353">
        <ele>135.2</ele>
        <time>2021-01-03T13:02:38Z</time>
      </trkpt>
      <trkpt lat="43.66627" lon="3.81348">
        <ele>135.1</ele>
        <time>2021-01-03T13:02:39Z</time>
      </trkpt>
      <trkpt lat="43.66629" lon="3.81343">
        <ele>141</ele>
        <time>2021-01-03T13:02:40Z</time>
      </trkpt>
      <trkpt lat="43.66631" lon="3.81338">
        <ele>135.2</ele>
        <time>2021-01-03T13:02:41Z</time>
      </trkpt>
      <trkpt lat="43.66633" lon="3.81333">
        <ele>135.2</ele>
        <time>2021-01-03T13:02:42Z</time>
      </trkpt>
      <trkpt lat="43.66636" lon="3.81328">
        <ele>135.3</ele>
        <time>2021-01-03T13:02:43Z</time>
      </trkpt>
      <trkpt lat="43.66639" lon="3.81323">
        <ele>135.4</ele>
        <time>2021-01-03T13:02:44Z</time>
      </trkpt>
      <trkpt lat="43.66642" lon="3.81319">
        <ele>135.5</ele>
        <time>2021-01-03T13:02:45Z</time>
      </trkpt>
      <trkpt lat="43.66645" lon="3.81316">
        <ele>135.6</ele>
        <time>2021-01-03T13:02:46Z</time>
      </trkpt>
      <trkpt lat="43.66648" lon="3.81312">
        <ele>135.8</ele>
        <time>2021-01-03T13:02:47Z</time>
      </trkpt>
      <trkpt lat="43.66652" lon="3.81308">
        <ele>135.9</ele>
        <time>2021-01-03T13:02:48Z</time>
      </trkpt>
      <trkpt lat="43.66655" lon="3.81305">
        <ele>140</ele>
        <time>2021-01-03T13:02:49Z</time>
      </trkpt>
      <trkpt lat="43.66658" lon="3.81301">
        <ele>136.2</ele>
        <time>2021-01-03T13:02:50Z</time>
      </trkpt>
      <trkpt lat="43.66662" lon="3.81298">
        <ele>136.3</ele>
        <time>2021-01-03T13:02:51Z</time>
      </trkpt>
      <trkpt lat="43.66665" lon="3.81295">
        <ele>136.4</ele>
        <time>2021-01-03T13:02:52Z</time>
      </trkpt>
      <trkpt lat="43.66668" lon="3.81292">
        <ele>136.5</ele>
        <time>2021-01-03T13:02:53Z</time>
      </trkpt>
      <trkpt lat="43.66671" lon="3.81289">
        <ele>136.8</ele>
        <time>2021-01-03T13:02:54Z</time>
      </trkpt>
      <trkpt lat="43.66674" lon="3.81287">
        <ele>136.9</ele>
        <time>2021-01-03T13:02:55Z</time>
      </trkpt>
      <trkpt lat="43.66676" lon="3.81284">
        <ele>137.1</ele>
        <time>2021-01-03T13:02:56Z</time>
      </trkpt>
      <trkpt lat="43.66679" lon="3.81282">
        <ele>137.3</ele>
        <time>2021-01-03T13:02:57Z</time>
      </trkpt>
      <trkpt lat="43.66681" lon="3.81279">
        <ele>137.5</ele>
        <time>2021-01-03T13:02:58Z</time>
      </trkpt>
      <trkpt lat="43.66684" lon="3.81276">
        <ele>141</ele>
        <time>2021-01-03T13:02:59Z</time>
      </trkpt>
      <trkpt lat="43.66686" lon="3.81272">
        <ele>137.6</ele>
        <time>2021-01-03T13:03:00Z</time>
      </trkpt>
      <trkpt lat="43.66688" lon="3.81269">
        <ele>137.5</ele>
        <time>2021-01-03T13:03:01Z</time>
      </trkpt>
      <trkpt lat="43.6669" lon="3.81265">
        <ele>137.5</ele>
        <time>2021-01-03T13:03:02Z</time>
      </trkpt>
      <trkpt lat="43.66692" lon="3.81261">
        <ele>137.4</ele>
        <time>2021-01-03T13:03:03Z</time>
      </trkpt>
      <trkpt lat="43.66694" lon="3.81257">
        <ele>137.2</ele>
        <time>2021-01-03T13:03:04Z</time>
      </trkpt>
      <trkpt lat="43.66696" lon="3.81253">
        <ele>137.1</ele>
        <time>2021-01-03T13:03:05Z</time>
      </trkpt>
      <trkpt lat="43.66698" lon="3.81249">
        <ele>136.9</ele>
        <time>2021-01-03T13:03:06Z</time>
      </trkpt>
      <trkpt lat="43.667" lon="3.81245">
        <ele>137.2</ele>
        <time>2021-01-03T13:03:07Z</time>
      </trkpt>
      <trkpt lat="43.66702" lon="3.81241">
        <ele>137.4</ele>
        <time>2021-01-03T13:03:08Z</time>
      </trkpt>
      <trkpt lat="43.66704" lon="3.81237">
        <ele>141</ele>
        <time>2021-01-03T13:03:09Z</time>
      </trkpt>
      <trkpt lat="43.66706" lon="3.81233">
        <ele>137.8</ele>
        <time>2021-01-03T13:03:10Z</time>
      </trkpt>
      <trkpt lat="43.66707" lon="3.81229">
        <ele>138.1</ele>
        <time>2021-01-03T13:03:11Z</time>
      </trkpt>
      <trkpt lat="43.66709" lon="3.81225">
        <ele>138.3</ele>
        <time>2021-01-03T13:03:12Z</time>
      </trkpt>
      <trkpt lat="43.66712" lon="3.81223">
        <ele>138.3</ele>
        <time>2021-01-03T13:03:13Z</time>
      </trkpt>
      <trkpt lat="43.66714" lon="3.8122">
        <ele>138.5</ele>
        <time>2021-01-03T13:03:14Z</time>
      </trkpt>
      <trkpt lat="43.66716" lon="3.81219">
        <ele>138.5</ele>
        <time>2021-01-03T13:03:15Z</time>
      </trkpt>
      <trkpt lat="43.66719" lon="3.81217">
        <ele>138.5</ele>
        <time>2021-01-03T13:03:16Z</time>
      </trkpt>
      <trkpt lat="43.66722" lon="3.81216">
        <ele>138.5</ele>
        <time>2021-01-03T13:03:17Z</time>
      </trkpt>
      <trkpt lat="43.66725" lon="3.81215">
        <ele>138.4</ele>
        <time>2021-01-03T13:03:18Z</time>
      </trkpt>
      <trkpt lat="43.66732" lon="3.81215">
        <ele>142</ele>
        <time>2021-01-03T13:03:19Z</time>
      </trkpt>
      <trkpt lat="43.66735" lon="3.81216">
        <ele>138</ele>
        <time>2021-01-03T13:03:20Z</time>
      </trkpt>
      <trkpt lat="43.66739" lon="3.81217">
        <ele>137.8</ele>
        <time>2021-01-03T13:03:21Z</time>
      </trkpt>
      <trkpt lat="43.66742" lon="3.81219">
        <ele>137.5</ele>
        <time>2021-01-03T13:03:22Z</time>
      </trkpt>
      <trkpt lat="43.66746" lon="3.81221">
        <ele>137.2</ele>
        <time>2021-01-03T13:03:23Z</time>
      </trkpt>
      <trkpt lat="43.66749" lon="3.81221">
        <ele>137.1</ele>
        <time>2021-01-03T13:03:24Z</time>
      </trkpt>
      <trkpt lat="43.66752" lon="3.81221">
        <ele>137.1</ele>
        <time>2021-01-03T13:03:25Z</time>
      </trkpt>
      <trkpt lat="43.66755" lon="3.81219">
        <ele>137.2</ele>
        <time>2021-01-03T13:03:26Z</time>
      </trkpt>
      <trkpt lat="43.66758" lon="3.81217">
        <ele>137.2</ele>
        <time>2021-01-03T13:03:27Z</time>
      </trkpt>
      <trkpt lat="43.6676" lon="3.81214">
        <ele>137.3</ele>
        <time>2021-01-03T13:03:28Z</time>
      </trkpt>
      <trkpt lat="43.66761" lon="3.81212">
        <ele>137.3</ele>
        <time>2021-01-03T13:03:30Z</time>
      </trkpt>
      <trkpt lat="43.66764" lon="3.8121">
        <ele>137.2</ele>
        <time>2021-01-03T13:03:31Z</time>
      </trkpt>
      <trkpt lat="43.66766" lon="3.81208">
        <ele>137.1</ele>
        <time>2021-01-03T13:03:32Z</time>
      </trkpt>
      <trkpt lat="43.66769" lon="3.81207">
        <ele>137</ele>
        <time>2021-01-03T13:03:33Z</time>
      </trkpt>
      <trkpt lat="43.66771" lon="3.81204">
        <ele>136.8</ele>
        <time>2021-01-03T13:03:34Z</time>
      </trkpt>
      <trkpt lat="43.66773" lon="3.81201">
        <ele>136.6</ele>
        <time>2021-01-03T13:03:35Z</time>
      </trkpt>
      <trkpt lat="43.66775" lon="3.81197">
        <ele>136.4</ele>
        <time>2021-01-03T13:03:36Z</time>
      </trkpt>
      <trkpt lat="43.66777" lon="3.81193">
        <ele>136</ele>
        <time>2021-01-03T13:03:37Z</time>
      </trkpt>
      <trkpt lat="43.66778" lon="3.81189">
        <ele>135.8</ele>
        <time>2021-01-03T13:03:38Z</time>
      </trkpt>
      <trkpt lat="43.66778" lon="3.81184">
        <ele>140</ele>
        <time>2021-01-03T13:03:39Z</time>
      </trkpt>
      <trkpt lat="43.66778" lon="3.81179">
        <ele>135.4</ele>
        <time>2021-01-03T13:03:40Z</time>
      </trkpt>
      <trkpt lat="43.66777" lon="3.81175">
        <ele>135.4</ele>
        <time>2021-01-03T13:03:41Z</time>
      </trkpt>
      <trkpt lat="43.66776" lon="3.8117">
        <ele>135.4</ele>
        <time>2021-01-03T13:03:42Z</time>
      </trkpt>
      <trkpt lat="43.66777" lon="3.81165">
        <ele>135.1</ele>
        <time>2021-01-03T13:03:43Z</time>
      </trkpt>
      <trkpt lat="43.6678" lon="3.81162">
        <ele>134.5</ele>
        <time>2021-01-03T13:03:44Z</time>
      </trkpt>
      <trkpt lat="43.66785" lon="3.81163">
        <ele>133.8</ele>
        <time>2021-01-03T13:03:45Z</time>
      </trkpt>
      <trkpt lat="43.66789" lon="3.81164">
        <ele>133.2</ele>
        <time>2021-01-03T13:03:46Z</time>
      </trkpt>
      <trkpt lat="43.66793" lon="3.81165">
        <ele>132.7</ele>
        <time>2021-01-03T13:03:47Z</time>
      </trkpt>
      <trkpt lat="43.66797" lon="3.81167">
        <ele>132.3</ele>
        <time>2021-01-03T13:03:48Z</time>
      </trkpt>
      <trkpt lat="43.66801" lon="3.81167">
        <ele>131.7</ele>
        <time>2021-01-03T13:03:49Z</time>
      </trkpt>
      <trkpt lat="43.66805" lon="3.81166">
        <ele>140</ele>
        <time>2021-01-03T13:03:50Z</time>
      </trkpt>
      <trkpt lat="43.66808" lon="3.81164">
        <ele>130.7</ele>
        <time>2021-01-03T13:03:51Z</time>
      </trkpt>
      <trkpt lat="43.6681" lon="3.81162">
        <ele>130.5</ele>
        <time>2021-01-03T13:03:52Z</time>
      </trkpt>
      <trkpt lat="43.66811" lon="3.81158">
        <ele>130.1</ele>
        <time>2021-01-03T13:03:53Z</time>
      </trkpt>
      <trkpt lat="43.66812" lon="3.81154">
        <ele>129.6</ele>
        <time>2021-01-03T13:03:54Z</time>
      </trkpt>
      <trkpt lat="43.66811" lon="3.8115">
        <ele>129.4</ele>
        <time>2021-01-03T13:03:55Z</time>
      </trkpt>
      <trkpt lat="43.66812" lon="3.81147">
        <ele>129</ele>
        <time>2021-01-03T13:03:56Z</time>
      </trkpt>
      <trkpt lat="43.66811" lon="3.81142">
        <ele>128.7</ele>
        <time>2021-01-03T13:03:57Z</time>
      </trkpt>
      <trkpt lat="43.66812" lon="3.81138">
        <ele>128.3</ele>
        <time>2021-01-03T13:03:58Z</time>
      </trkpt>
      <trkpt lat="43.66814" lon="3.81134">
        <ele>138</ele>
        <time>2021-01-03T13:03:59Z</time>
      </trkpt>
      <trkpt lat="43.66817" lon="3.8113">
        <ele>127.2</ele>
        <time>2021-01-03T13:04:00Z</time>
      </trkpt>
      <trkpt lat="43.66819" lon="3.81125">
        <ele>126.6</ele>
        <time>2021-01-03T13:04:01Z</time>
      </trkpt>
      <trkpt lat="43.66822" lon="3.81118">
        <ele>125.6</ele>
        <time>2021-01-03T13:04:02Z</time>
      </trkpt>
      <trkpt lat="43.66825" lon="3.81111">
        <ele>124.5</ele>
        <time>2021-01-03T13:04:03Z</time>
      </trkpt>
      <trkpt lat="43.66829" lon="3.81104">
        <ele>123.7</ele>
        <time>2021-01-03T13:04:04Z</time>
      </trkpt>
      <trkpt lat="43.66832" lon="3.81097">
        <ele>123.2</ele>
        <time>2021-01-03T13:04:05Z</time>
      </trkpt>
      <trkpt lat="43.66835" lon="3.81093">
        <ele>122.9</ele>
        <time>2021-01-03T13:04:06Z</time>
      </trkpt>
      <trkpt lat="43.66837" lon="3.81092">
        <ele>122.8</ele>
        <time>2021-01-03T13:04:07Z</time>
      </trkpt>
      <trkpt lat="43.66841" lon="3.81091">
        <ele>122.6</ele>
        <time>2021-01-03T13:04:08Z</time>
      </trkpt>
      <trkpt lat="43.66844" lon="3.8109">
        <ele>134</ele>
        <time>2021-01-03T13:04:09Z</time>
      </trkpt>
      <trkpt lat="43.66848" lon="3.81089">
        <ele>122.4</ele>
        <time>2021-01-03T13:04:10Z</time>
      </trkpt>
      <trkpt lat="43.66852" lon="3.81089">
        <ele>122.2</ele>
        <time>2021-01-03T13:04:11Z</time>
      </trkpt>
      <trkpt lat="43.66856" lon="3.8109">
        <ele>122</ele>
        <time>2021-01-03T13:04:12Z</time>
      </trkpt>
      <trkpt lat="43.66858" lon="3.8109">
        <ele>121.9</ele>
        <time>2021-01-03T13:04:13Z</time>
      </trkpt>
      <trkpt lat="43.66865" lon="3.81088">
        <ele>129</ele>
        <time>2021-01-03T13:04:40Z</time>
      </trkpt>
      <trkpt lat="43.66867" lon="3.81087">
        <ele>121.2</ele>
        <time>2021-01-03T13:04:41Z</time>
      </trkpt>
      <trkpt lat="43.66869" lon="3.81087">
        <ele>121</ele>
        <time>2021-01-03T13:04:42Z</time>
      </trkpt>
      <trkpt lat="43.66871" lon="3.81087">
        <ele>120.8</ele>
        <time>2021-01-03T13:04:43Z</time>
      </trkpt>
      <trkpt lat="43.66873" lon="3.81086">
        <ele>120.6</ele>
        <time>2021-01-03T13:04:44Z</time>
      </trkpt>
      <trkpt lat="43.66875" lon="3.81085">
        <ele>120.4</ele>
        <time>2021-01-03T13:04:46Z</time>
      </trkpt>
      <trkpt lat="43.66876" lon="3.81085">
        <ele>127</ele>
        <time>2021-01-03T13:04:51Z</time>
      </trkpt>
      <trkpt lat="43.66887" lon="3.81085">
        <ele>127</ele>
        <time>2021-01-03T13:05:06Z</time>
      </trkpt>
      <trkpt lat="43.66889" lon="3.81085">
        <ele>118.9</ele>
        <time>2021-01-03T13:05:07Z</time>
      </trkpt>
      <trkpt lat="43.66892" lon="3.81085">
        <ele>118.6</ele>
        <time>2021-01-03T13:05:08Z</time>
      </trkpt>
      <trkpt lat="43.66895" lon="3.81086">
        <ele>118.2</ele>
        <time>2021-01-03T13:05:09Z</time>
      </trkpt>
      <trkpt lat="43.66898" lon="3.81086">
        <ele>117.9</ele>
        <time>2021-01-03T13:05:10Z</time>
      </trkpt>
      <trkpt lat="43.66902" lon="3.81086">
        <ele>117.5</ele>
        <time>2021-01-03T13:05:11Z</time>
      </trkpt>
      <trkpt lat="43.66904" lon="3.81085">
        <ele>117.3</ele>
        <time>2021-01-03T13:05:12Z</time>
      </trkpt>
      <trkpt lat="43.66906" lon="3.81084">
        <ele>117.1</ele>
        <time>2021-01-03T13:05:13Z</time>
      </trkpt>
      <trkpt lat="43.66908" lon="3.81082">
        <ele>117</ele>
        <time>2021-01-03T13:05:14Z</time>
      </trkpt>
      <trkpt lat="43.66909" lon="3.81079">
        <ele>126</ele>
        <time>2021-01-03T13:05:15Z</time>
      </trkpt>
      <trkpt lat="43.66911" lon="3.81076">
        <ele>116.9</ele>
        <time>2021-01-03T13:05:16Z</time>
      </trkpt>
      <trkpt lat="43.66914" lon="3.81074">
        <ele>116.7</ele>
        <time>2021-01-03T13:05:17Z</time>
      </trkpt>
      <trkpt lat="43.66917" lon="3.81072">
        <ele>116.4</ele>
        <time>2021-01-03T13:05:18Z</time>
      </trkpt>
      <trkpt lat="43.66921" lon="3.81071">
        <ele>116.2</ele>
        <time>2021-01-03T13:05:19Z</time>
      </trkpt>
      <trkpt lat="43.66925" lon="3.81069">
        <ele>116.1</ele>
        <time>2021-01-03T13:05:20Z</time>
      </trkpt>
      <trkpt lat="43.66928" lon="3.81067">
        <ele>116</ele>
        <time>2021-01-03T13:05:21Z</time>
      </trkpt>
      <trkpt lat="43.66931" lon="3.81063">
        <ele>116.1</ele>
        <time>2021-01-03T13:05:22Z</time>
      </trkpt>
      <trkpt lat="43.66934" lon="3.8106">
        <ele>116.1</ele>
        <time>2021-01-03T13:05:23Z</time>
      </trkpt>
      <trkpt lat="43.66937" lon="3.81058">
        <ele>116.1</ele>
        <time>2021-01-03T13:05:24Z</time>
      </trkpt>
      <trkpt lat="43.66944" lon="3.81054">
        <ele>124</ele>
        <time>2021-01-03T13:05:25Z</time>
      </trkpt>
      <trkpt lat="43.66947" lon="3.81053">
        <ele>116.1</ele>
        <time>2021-01-03T13:05:26Z</time>
      </trkpt>
      <trkpt lat="43.6695" lon="3.81051">
        <ele>116.2</ele>
        <time>2021-01-03T13:05:27Z</time>
      </trkpt>
      <trkpt lat="43.66952" lon="3.8105">
        <ele>116.3</ele>
        <time>2021-01-03T13:05:28Z</time>
      </trkpt>
      <trkpt lat="43.66955" lon="3.81048">
        <ele>116.5</ele>
        <time>2021-01-03T13:05:29Z</time>
      </trkpt>
      <trkpt lat="43.6696" lon="3.81046">
        <ele>116.7</ele>
        <time>2021-01-03T13:05:31Z</time>
      </trkpt>
      <trkpt lat="43.66963" lon="3.81045">
        <ele>116.9</ele>
        <time>2021-01-03T13:05:32Z</time>
      </trkpt>
      <trkpt lat="43.66966" lon="3.81044">
        <ele>117.1</ele>
        <time>2021-01-03T13:05:33Z</time>
      </trkpt>
      <trkpt lat="43.66968" lon="3.81042">
        <ele>117.3</ele>
        <time>2021-01-03T13:05:34Z</time>
      </trkpt>
      <trkpt lat="43.6697" lon="3.8104">
        <ele>117.6</ele>
        <time>2021-01-03T13:05:36Z</time>
      </trkpt>
      <trkpt lat="43.66972" lon="3.81039">
        <ele>117.8</ele>
        <time>2021-01-03T13:05:37Z</time>
      </trkpt>
      <trkpt lat="43.66974" lon="3.81037">
        <ele>118.2</ele>
        <time>2021-01-03T13:05:38Z</time>
      </trkpt>
      <trkpt lat="43.66977" lon="3.81037">
        <ele>118.4</ele>
        <time>2021-01-03T13:05:39Z</time>
      </trkpt>
      <trkpt lat="43.66979" lon="3.81037">
        <ele>118.6</ele>
        <time>2021-01-03T13:05:40Z</time>
      </trkpt>
      <trkpt lat="43.66982" lon="3.81038">
        <ele>118.7</ele>
        <time>2021-01-03T13:05:41Z</time>
      </trkpt>
      <trkpt lat="43.66984" lon="3.81039">
        <ele>118.8</ele>
        <time>2021-01-03T13:05:42Z</time>
      </trkpt>
      <trkpt lat="43.66986" lon="3.8104">
        <ele>118.9</ele>
        <time>2021-01-03T13:05:44Z</time>
      </trkpt>
      <trkpt lat="43.66989" lon="3.81041">
        <ele>119.1</ele>
        <time>2021-01-03T13:05:46Z</time>
      </trkpt>
      <trkpt lat="43.66993" lon="3.81043">
        <ele>119.3</ele>
        <time>2021-01-03T13:05:48Z</time>
      </trkpt>
      <trkpt lat="43.66994" lon="3.81044">
        <ele>119.3</ele>
        <time>2021-01-03T13:05:49Z</time>
      </trkpt>
      <trkpt lat="43.66997" lon="3.81046">
        <ele>119.4</ele>
        <time>2021-01-03T13:05:50Z</time>
      </trkpt>
      <trkpt lat="43.67" lon="3.81048">
        <ele>119.5</ele>
        <time>2021-01-03T13:05:51Z</time>
      </trkpt>
      <trkpt lat="43.67004" lon="3.8105">
        <ele>119.3</ele>
        <time>2021-01-03T13:05:52Z</time>
      </trkpt>
      <trkpt lat="43.67007" lon="3.81052">
        <ele>119.1</ele>
        <time>2021-01-03T13:05:53Z</time>
      </trkpt>
      <trkpt lat="43.6701" lon="3.81054">
        <ele>118.8</ele>
        <time>2021-01-03T13:05:54Z</time>
      </trkpt>
      <trkpt lat="43.67013" lon="3.81054">
        <ele>124</ele>
        <time>2021-01-03T13:05:55Z</time>
      </trkpt>
      <trkpt lat="43.67016" lon="3.81053">
        <ele>118.7</ele>
        <time>2021-01-03T13:05:56Z</time>
      </trkpt>
      <trkpt lat="43.67019" lon="3.81054">
        <ele>118.5</ele>
        <time>2021-01-03T13:05:57Z</time>
      </trkpt>
      <trkpt lat="43.67021" lon="3.81054">
        <ele>118.4</ele>
        <time>2021-01-03T13:05:58Z</time>
      </trkpt>
      <trkpt lat="43.67024" lon="3.81055">
        <ele>118.2</ele>
        <time>2021-01-03T13:05:59Z</time>
      </trkpt>
      <trkpt lat="43.67026" lon="3.81057">
        <ele>117.9</ele>
        <time>2021-01-03T13:06:00Z</time>
      </trkpt>
      <trkpt lat="43.67028" lon="3.81059">
        <ele>117.6</ele>
        <time>2021-01-03T13:06:01Z</time>
      </trkpt>
      <trkpt lat="43.67031" lon="3.81061">
        <ele>117.5</ele>
        <time>2021-01-03T13:06:03Z</time>
      </trkpt>
      <trkpt lat="43.67034" lon="3.81061">
        <ele>124</ele>
        <time>2021-01-03T13:06:05Z</time>
      </trkpt>
      <trkpt lat="43.67036" lon="3.81061">
        <ele>117.6</ele>
        <time>2021-01-03T13:06:06Z</time>
      </trkpt>
      <trkpt lat="43.67038" lon="3.81061">
        <ele>117.7</ele>
        <time>2021-01-03T13:06:07Z</time>
      </trkpt>
      <trkpt lat="43.67041" lon="3.81062">
        <ele>117.7</ele>
        <time>2021-01-03T13:06:08Z</time>
      </trkpt>
      <trkpt lat="43.67044" lon="3.81063">
        <ele>117.6</ele>
        <time>2021-01-03T13:06:09Z</time>
      </trkpt>
      <trkpt lat="43.67048" lon="3.81064">
        <ele>117.6</ele>
        <time>2021-01-03T13:06:10Z</time>
      </trkpt>
      <trkpt lat="43.67052" lon="3.81066">
        <ele>117.4</ele>
        <time>2021-01-03T13:06:11Z</time>
      </trkpt>
      <trkpt lat="43.67055" lon="3.81067">
        <ele>117.3</ele>
        <time>2021-01-03T13:06:12Z</time>
      </trkpt>
      <trkpt lat="43.67058" lon="3.81067">
        <ele>117.4</ele>
        <time>2021-01-03T13:06:13Z</time>
      </trkpt>
      <trkpt lat="43.6706" lon="3.81067">
        <ele>117.5</ele>
        <time>2021-01-03T13:06:14Z</time>
      </trkpt>
      <trkpt lat="43.67063" lon="3.81067">
        <ele>123</ele>
        <time>2021-01-03T13:06:15Z</time>
      </trkpt>
      <trkpt lat="43.67065" lon="3.81067">
        <ele>117.7</ele>
        <time>2021-01-03T13:06:16Z</time>
      </trkpt>
      <trkpt lat="43.67067" lon="3.81068">
        <ele>117.6</ele>
        <time>2021-01-03T13:06:17Z</time>
      </trkpt>
      <trkpt lat="43.67069" lon="3.81068">
        <ele>117.7</ele>
        <time>2021-01-03T13:06:18Z</time>
      </trkpt>
      <trkpt lat="43.67071" lon="3.81068">
        <ele>117.8</ele>
        <time>2021-01-03T13:06:19Z</time>
      </trkpt>
      <trkpt lat="43.67073" lon="3.81067">
        <ele>118</ele>
        <time>2021-01-03T13:06:20Z</time>
      </trkpt>
      <trkpt lat="43.67076" lon="3.81067">
        <ele>118.1</ele>
        <time>2021-01-03T13:06:21Z</time>
      </trkpt>
      <trkpt lat="43.67079" lon="3.81067">
        <ele>118.2</ele>
        <time>2021-01-03T13:06:22Z</time>
      </trkpt>
      <trkpt lat="43.67081" lon="3.81068">
        <ele>118.1</ele>
        <time>2021-01-03T13:06:23Z</time>
      </trkpt>
      <trkpt lat="43.67083" lon="3.81068">
        <ele>118.2</ele>
        <time>2021-01-03T13:06:24Z</time>
      </trkpt>
      <trkpt lat="43.67086" lon="3.81069">
        <ele>123</ele>
        <time>2021-01-03T13:06:25Z</time>
      </trkpt>
      <trkpt lat="43.67088" lon="3.81069">
        <ele>118.2</ele>
        <time>2021-01-03T13:06:26Z</time>
      </trkpt>
      <trkpt lat="43.67092" lon="3.81069">
        <ele>118.4</ele>
        <time>2021-01-03T13:06:27Z</time>
      </trkpt>
      <trkpt lat="43.67095" lon="3.81069">
        <ele>118.5</ele>
        <time>2021-01-03T13:06:28Z</time>
      </trkpt>
      <trkpt lat="43.67098" lon="3.81069">
        <ele>118.6</ele>
        <time>2021-01-03T13:06:29Z</time>
      </trkpt>
      <trkpt lat="43.67102" lon="3.8107">
        <ele>118.6</ele>
        <time>2021-01-03T13:06:30Z</time>
      </trkpt>
      <trkpt lat="43.67105" lon="3.81071">
        <ele>118.6</ele>
        <time>2021-01-03T13:06:31Z</time>
      </trkpt>
      <trkpt lat="43.67109" lon="3.81072">
        <ele>118.7</ele>
        <time>2021-01-03T13:06:32Z</time>
      </trkpt>
      <trkpt lat="43.67112" lon="3.81072">
        <ele>118.9</ele>
        <time>2021-01-03T13:06:33Z</time>
      </trkpt>
      <trkpt lat="43.67115" lon="3.81073">
        <ele>119</ele>
        <time>2021-01-03T13:06:34Z</time>
      </trkpt>
      <trkpt lat="43.67117" lon="3.81074">
        <ele>123</ele>
        <time>2021-01-03T13:06:35Z</time>
      </trkpt>
      <trkpt lat="43.6712" lon="3.81075">
        <ele>119.1</ele>
        <time>2021-01-03T13:06:36Z</time>
      </trkpt>
      <trkpt lat="43.67123" lon="3.81077">
        <ele>119.2</ele>
        <time>2021-01-03T13:06:37Z</time>
      </trkpt>
      <trkpt lat="43.67125" lon="3.81079">
        <ele>119.2</ele>
        <time>2021-01-03T13:06:38Z</time>
      </trkpt>
      <trkpt lat="43.67128" lon="3.81081">
        <ele>119.3</ele>
        <time>2021-01-03T13:06:39Z</time>
      </trkpt>
      <trkpt lat="43.6713" lon="3.81082">
        <ele>119.4</ele>
        <time>2021-01-03T13:06:40Z</time>
      </trkpt>
      <trkpt lat="43.67133" lon="3.81083">
        <ele>119.6</ele>
        <time>2021-01-03T13:06:41Z</time>
      </trkpt>
      <trkpt lat="43.67135" lon="3.81083">
        <ele>119.7</ele>
        <time>2021-01-03T13:06:42Z</time>
      </trkpt>
      <trkpt lat="43.67138" lon="3.81083">
        <ele>119.9</ele>
        <time>2021-01-03T13:06:43Z</time>
      </trkpt>
      <trkpt lat="43.6714" lon="3.81083">
        <ele>120</ele>
        <time>2021-01-03T13:06:44Z</time>
      </trkpt>
      <trkpt lat="43.67143" lon="3.81082">
        <ele>123</ele>
        <time>2021-01-03T13:06:45Z</time>
      </trkpt>
      <trkpt lat="43.67146" lon="3.81081">
        <ele>120.1</ele>
        <time>2021-01-03T13:06:46Z</time>
      </trkpt>
      <trkpt lat="43.67148" lon="3.8108">
        <ele>120.1</ele>
        <time>2021-01-03T13:06:47Z</time>
      </trkpt>
      <trkpt lat="43.67151" lon="3.81078">
        <ele>120.2</ele>
        <time>2021-01-03T13:06:48Z</time>
      </trkpt>
      <trkpt lat="43.67153" lon="3.81076">
        <ele>120.3</ele>
        <time>2021-01-03T13:06:49Z</time>
      </trkpt>
      <trkpt lat="43.67155" lon="3.81074">
        <ele>120.3</ele>
        <time>2021-01-03T13:06:50Z</time>
      </trkpt>
      <trkpt lat="43.67158" lon="3.81072">
        <ele>120.4</ele>
        <time>2021-01-03T13:06:51Z</time>
      </trkpt>
      <trkpt lat="43.6716" lon="3.81069">
        <ele>120.5</ele>
        <time>2021-01-03T13:06:52Z</time>
      </trkpt>
      <trkpt lat="43.67163" lon="3.81068">
        <ele>120.6</ele>
        <time>2021-01-03T13:06:53Z</time>
      </trkpt>
      <trkpt lat="43.67165" lon="3.81066">
        <ele>120.6</ele>
        <time>2021-01-03T13:06:54Z</time>
      </trkpt>
      <trkpt lat="43.67167" lon="3.81063">
        <ele>120.7</ele>
        <time>2021-01-03T13:06:55Z</time>
      </trkpt>
      <trkpt lat="43.67169" lon="3.8106">
        <ele>123</ele>
        <time>2021-01-03T13:06:56Z</time>
      </trkpt>
      <trkpt lat="43.67171" lon="3.81058">
        <ele>120.6</ele>
        <time>2021-01-03T13:06:57Z</time>
      </trkpt>
      <trkpt lat="43.67173" lon="3.81055">
        <ele>120.6</ele>
        <time>2021-01-03T13:06:58Z</time>
      </trkpt>
      <trkpt lat="43.67176" lon="3.81053">
        <ele>120.4</ele>
        <time>2021-01-03T13:06:59Z</time>
      </trkpt>
      <trkpt lat="43.67179" lon="3.8105">
        <ele>120.3</ele>
        <time>2021-01-03T13:07:00Z</time>
      </trkpt>
      <trkpt lat="43.67182" lon="3.81048">
        <ele>120.2</ele>
        <time>2021-01-03T13:07:01Z</time>
      </trkpt>
      <trkpt lat="43.67185" lon="3.81046">
        <ele>120</ele>
        <time>2021-01-03T13:07:02Z</time>
      </trkpt>
      <trkpt lat="43.67189" lon="3.81044">
        <ele>119.8</ele>
        <time>2021-01-03T13:07:03Z</time>
      </trkpt>
      <trkpt lat="43.67192" lon="3.81041">
        <ele>119.7</ele>
        <time>2021-01-03T13:07:04Z</time>
      </trkpt>
      <trkpt lat="43.67195" lon="3.81039">
        <ele>123</ele>
        <time>2021-01-03T13:07:05Z</time>
      </trkpt>
      <trkpt lat="43.67198" lon="3.81036">
        <ele>119.6</ele>
        <time>2021-01-03T13:07:06Z</time>
      </trkpt>
      <trkpt lat="43.67201" lon="3.81034">
        <ele>119.5</ele>
        <time>2021-01-03T13:07:07Z</time>
      </trkpt>
      <trkpt lat="43.67204" lon="3.81032">
        <ele>119.5</ele>
        <time>2021-01-03T13:07:08Z</time>
      </trkpt>
      <trkpt lat="43.67207" lon="3.8103">
        <ele>119.5</ele>
        <time>2021-01-03T13:07:09Z</time>
      </trkpt>
      <trkpt lat="43.67209" lon="3.81028">
        <ele>119.5</ele>
        <time>2021-01-03T13:07:10Z</time>
      </trkpt>
      <trkpt lat="43.67212" lon="3.81026">
        <ele>119.5</ele>
        <time>2021-01-03T13:07:11Z</time>
      </trkpt>
      <trkpt lat="43.67215" lon="3.81026">
        <ele>119.3</ele>
        <time>2021-01-03T13:07:12Z</time>
      </trkpt>
      <trkpt lat="43.67218" lon="3.81025">
        <ele>119.3</ele>
        <time>2021-01-03T13:07:13Z</time>
      </trkpt>
      <trkpt lat="43.67221" lon="3.81025">
        <ele>119.1</ele>
        <time>2021-01-03T13:07:14Z</time>
      </trkpt>
      <trkpt lat="43.67224" lon="3.81024">
        <ele>123</ele>
        <time>2021-01-03T13:07:15Z</time>
      </trkpt>
      <trkpt lat="43.67226" lon="3.81022">
        <ele>119</ele>
        <time>2021-01-03T13:07:16Z</time>
      </trkpt>
      <trkpt lat="43.67228" lon="3.81019">
        <ele>119</ele>
        <time>2021-01-03T13:07:17Z</time>
      </trkpt>
      <trkpt lat="43.6723" lon="3.81017">
        <ele>119</ele>
        <time>2021-01-03T13:07:18Z</time>
      </trkpt>
      <trkpt lat="43.67232" lon="3.81015">
        <ele>118.9</ele>
        <time>2021-01-03T13:07:19Z</time>
      </trkpt>
      <trkpt lat="43.67234" lon="3.81014">
        <ele>118.9</ele>
        <time>2021-01-03T13:07:20Z</time>
      </trkpt>
      <trkpt lat="43.67236" lon="3.81013">
        <ele>118.8</ele>
        <time>2021-01-03T13:07:21Z</time>
      </trkpt>
      <trkpt lat="43.67239" lon="3.81013">
        <ele>118.6</ele>
        <time>2021-01-03T13:07:23Z</time>
      </trkpt>
      <trkpt lat="43.67241" lon="3.81015">
        <ele>123</ele>
        <time>2021-01-03T13:07:25Z</time>
      </trkpt>
      <trkpt lat="43.67241" lon="3.8102">
        <ele>118.4</ele>
        <time>2021-01-03T13:07:27Z</time>
      </trkpt>
      <trkpt lat="43.6724" lon="3.81023">
        <ele>118.4</ele>
        <time>2021-01-03T13:07:28Z</time>
      </trkpt>
      <trkpt lat="43.67239" lon="3.81026">
        <ele>118.4</ele>
        <time>2021-01-03T13:07:29Z</time>
      </trkpt>
      <trkpt lat="43.67239" lon="3.81028">
        <ele>118.4</ele>
        <time>2021-01-03T13:07:30Z</time>
      </trkpt>
      <trkpt lat="43.67238" lon="3.81031">
        <ele>118.2</ele>
        <time>2021-01-03T13:07:31Z</time>
      </trkpt>
      <trkpt lat="43.67237" lon="3.81033">
        <ele>118.1</ele>
        <time>2021-01-03T13:07:32Z</time>
      </trkpt>
      <trkpt lat="43.67236" lon="3.81036">
        <ele>117.9</ele>
        <time>2021-01-03T13:07:33Z</time>
      </trkpt>
      <trkpt lat="43.67235" lon="3.81038">
        <ele>117.8</ele>
        <time>2021-01-03T13:07:34Z</time>
      </trkpt>
      <trkpt lat="43.67235" lon="3.81041">
        <ele>123</ele>
        <time>2021-01-03T13:07:35Z</time>
      </trkpt>
      <trkpt lat="43.67235" lon="3.81045">
        <ele>117.3</ele>
        <time>2021-01-03T13:07:36Z</time>
      </trkpt>
      <trkpt lat="43.67235" lon="3.81049">
        <ele>117.1</ele>
        <time>2021-01-03T13:07:37Z</time>
      </trkpt>
      <trkpt lat="43.67236" lon="3.81053">
        <ele>116.7</ele>
        <time>2021-01-03T13:07:38Z</time>
      </trkpt>
      <trkpt lat="43.67236" lon="3.81057">
        <ele>116.4</ele>
        <time>2021-01-03T13:07:39Z</time>
      </trkpt>
      <trkpt lat="43.67236" lon="3.81061">
        <ele>116</ele>
        <time>2021-01-03T13:07:40Z</time>
      </trkpt>
      <trkpt lat="43.67236" lon="3.81066">
        <ele>115.6</ele>
        <time>2021-01-03T13:07:41Z</time>
      </trkpt>
      <trkpt lat="43.67237" lon="3.81071">
        <ele>115</ele>
        <time>2021-01-03T13:07:42Z</time>
      </trkpt>
      <trkpt lat="43.67237" lon="3.81076">
        <ele>114.6</ele>
        <time>2021-01-03T13:07:43Z</time>
      </trkpt>
      <trkpt lat="43.67237" lon="3.8108">
        <ele>114.2</ele>
        <time>2021-01-03T13:07:44Z</time>
      </trkpt>
      <trkpt lat="43.67237" lon="3.81083">
        <ele>121</ele>
        <time>2021-01-03T13:07:45Z</time>
      </trkpt>
      <trkpt lat="43.67238" lon="3.81088">
        <ele>113.4</ele>
        <time>2021-01-03T13:07:47Z</time>
      </trkpt>
      <trkpt lat="43.6724" lon="3.8109">
        <ele>113.1</ele>
        <time>2021-01-03T13:07:48Z</time>
      </trkpt>
      <trkpt lat="43.67242" lon="3.81093">
        <ele>112.6</ele>
        <time>2021-01-03T13:07:49Z</time>
      </trkpt>
      <trkpt lat="43.67245" lon="3.81097">
        <ele>112</ele>
        <time>2021-01-03T13:07:50Z</time>
      </trkpt>
      <trkpt lat="43.67248" lon="3.81101">
        <ele>111.3</ele>
        <time>2021-01-03T13:07:51Z</time>
      </trkpt>
      <trkpt lat="43.67251" lon="3.81105">
        <ele>110.7</ele>
        <time>2021-01-03T13:07:52Z</time>
      </trkpt>
      <trkpt lat="43.67254" lon="3.81106">
        <ele>110.6</ele>
        <time>2021-01-03T13:07:53Z</time>
      </trkpt>
      <trkpt lat="43.67257" lon="3.81105">
        <ele>110.8</ele>
        <time>2021-01-03T13:07:54Z</time>
      </trkpt>
      <trkpt lat="43.67261" lon="3.81103">
        <ele>120</ele>
        <time>2021-01-03T13:07:55Z</time>
      </trkpt>
      <trkpt lat="43.67264" lon="3.81102">
        <ele>111.2</ele>
        <time>2021-01-03T13:07:56Z</time>
      </trkpt>
      <trkpt lat="43.67268" lon="3.81101">
        <ele>111.3</ele>
        <time>2021-01-03T13:07:57Z</time>
      </trkpt>
      <trkpt lat="43.67271" lon="3.81099">
        <ele>111.4</ele>
        <time>2021-01-03T13:07:58Z</time>
      </trkpt>
      <trkpt lat="43.67274" lon="3.81097">
        <ele>111.5</ele>
        <time>2021-01-03T13:07:59Z</time>
      </trkpt>
      <trkpt lat="43.67276" lon="3.81094">
        <ele>111.6</ele>
        <time>2021-01-03T13:08:00Z</time>
      </trkpt>
      <trkpt lat="43.67278" lon="3.81091">
        <ele>111.7</ele>
        <time>2021-01-03T13:08:01Z</time>
      </trkpt>
      <trkpt lat="43.67281" lon="3.81088">
        <ele>111.9</ele>
        <time>2021-01-03T13:08:02Z</time>
      </trkpt>
      <trkpt lat="43.67283" lon="3.81086">
        <ele>112.1</ele>
        <time>2021-01-03T13:08:03Z</time>
      </trkpt>
      <trkpt lat="43.67284" lon="3.81083">
        <ele>112.2</ele>
        <time>2021-01-03T13:08:04Z</time>
      </trkpt>
      <trkpt lat="43.67285" lon="3.81079">
        <ele>112.4</ele>
        <time>2021-01-03T13:08:05Z</time>
      </trkpt>
      <trkpt lat="43.67286" lon="3.81075">
        <ele>119</ele>
        <time>2021-01-03T13:08:06Z</time>
      </trkpt>
      <trkpt lat="43.67288" lon="3.81072">
        <ele>112.8</ele>
        <time>2021-01-03T13:08:07Z</time>
      </trkpt>
      <trkpt lat="43.67289" lon="3.81068">
        <ele>113</ele>
        <time>2021-01-03T13:08:08Z</time>
      </trkpt>
      <trkpt lat="43.6729" lon="3.81065">
        <ele>113.1</ele>
        <time>2021-01-03T13:08:09Z</time>
      </trkpt>
      <trkpt lat="43.67291" lon="3.81062">
        <ele>113.2</ele>
        <time>2021-01-03T13:08:10Z</time>
      </trkpt>
      <trkpt lat="43.67293" lon="3.81059">
        <ele>113.4</ele>
        <time>2021-01-03T13:08:11Z</time>
      </trkpt>
      <trkpt lat="43.67295" lon="3.81058">
        <ele>113.5</ele>
        <time>2021-01-03T13:08:12Z</time>
      </trkpt>
      <trkpt lat="43.67298" lon="3.81058">
        <ele>113.6</ele>
        <time>2021-01-03T13:08:13Z</time>
      </trkpt>
      <trkpt lat="43.673" lon="3.81059">
        <ele>113.7</ele>
        <time>2021-01-03T13:08:14Z</time>
      </trkpt>
      <trkpt lat="43.67303" lon="3.8106">
        <ele>119</ele>
        <time>2021-01-03T13:08:15Z</time>
      </trkpt>
      <trkpt lat="43.67306" lon="3.8106">
        <ele>113.8</ele>
        <time>2021-01-03T13:08:16Z</time>
      </trkpt>
      <trkpt lat="43.67309" lon="3.81061">
        <ele>113.8</ele>
        <time>2021-01-03T13:08:17Z</time>
      </trkpt>
      <trkpt lat="43.67311" lon="3.81061">
        <ele>113.8</ele>
        <time>2021-01-03T13:08:18Z</time>
      </trkpt>
      <trkpt lat="43.67314" lon="3.81061">
        <ele>113.8</ele>
        <time>2021-01-03T13:08:19Z</time>
      </trkpt>
      <trkpt lat="43.67317" lon="3.8106">
        <ele>113.8</ele>
        <time>2021-01-03T13:08:20Z</time>
      </trkpt>
      <trkpt lat="43.6732" lon="3.8106">
        <ele>113.8</ele>
        <time>2021-01-03T13:08:21Z</time>
      </trkpt>
      <trkpt lat="43.67322" lon="3.81058">
        <ele>113.9</ele>
        <time>2021-01-03T13:08:22Z</time>
      </trkpt>
      <trkpt lat="43.67325" lon="3.81056">
        <ele>114</ele>
        <time>2021-01-03T13:08:23Z</time>
      </trkpt>
      <trkpt lat="43.67327" lon="3.81055">
        <ele>114.1</ele>
        <time>2021-01-03T13:08:24Z</time>
      </trkpt>
      <trkpt lat="43.6733" lon="3.81054">
        <ele>119</ele>
        <time>2021-01-03T13:08:25Z</time>
      </trkpt>
      <trkpt lat="43.67333" lon="3.81055">
        <ele>114.1</ele>
        <time>2021-01-03T13:08:26Z</time>
      </trkpt>
      <trkpt lat="43.67335" lon="3.81056">
        <ele>114</ele>
        <time>2021-01-03T13:08:27Z</time>
      </trkpt>
      <trkpt lat="43.67337" lon="3.81057">
        <ele>114.1</ele>
        <time>2021-01-03T13:08:28Z</time>
      </trkpt>
      <trkpt lat="43.67339" lon="3.8106">
        <ele>113.9</ele>
        <time>2021-01-03T13:08:29Z</time>
      </trkpt>
      <trkpt lat="43.6734" lon="3.81062">
        <ele>113.8</ele>
        <time>2021-01-03T13:08:30Z</time>
      </trkpt>
      <trkpt lat="43.67341" lon="3.81066">
        <ele>113.6</ele>
        <time>2021-01-03T13:08:31Z</time>
      </trkpt>
      <trkpt lat="43.67342" lon="3.81068">
        <ele>113.4</ele>
        <time>2021-01-03T13:08:32Z</time>
      </trkpt>
      <trkpt lat="43.67343" lon="3.81071">
        <ele>113.2</ele>
        <time>2021-01-03T13:08:33Z</time>
      </trkpt>
      <trkpt lat="43.67345" lon="3.81075">
        <ele>112.8</ele>
        <time>2021-01-03T13:08:34Z</time>
      </trkpt>
      <trkpt lat="43.67347" lon="3.81078">
        <ele>112.5</ele>
        <time>2021-01-03T13:08:35Z</time>
      </trkpt>
      <trkpt lat="43.67352" lon="3.81084">
        <ele>118</ele>
        <time>2021-01-03T13:08:36Z</time>
      </trkpt>
      <trkpt lat="43.67355" lon="3.81086">
        <ele>111.2</ele>
        <time>2021-01-03T13:08:37Z</time>
      </trkpt>
      <trkpt lat="43.67357" lon="3.81089">
        <ele>110.7</ele>
        <time>2021-01-03T13:08:38Z</time>
      </trkpt>
      <trkpt lat="43.6736" lon="3.81093">
        <ele>110</ele>
        <time>2021-01-03T13:08:39Z</time>
      </trkpt>
      <trkpt lat="43.67363" lon="3.81097">
        <ele>109.5</ele>
        <time>2021-01-03T13:08:40Z</time>
      </trkpt>
      <trkpt lat="43.67365" lon="3.81101">
        <ele>109</ele>
        <time>2021-01-03T13:08:41Z</time>
      </trkpt>
      <trkpt lat="43.67368" lon="3.81111">
        <ele>107.8</ele>
        <time>2021-01-03T13:08:43Z</time>
      </trkpt>
      <trkpt lat="43.67369" lon="3.81115">
        <ele>107.2</ele>
        <time>2021-01-03T13:08:44Z</time>
      </trkpt>
      <trkpt lat="43.6737" lon="3.8112">
        <ele>106.5</ele>
        <time>2021-01-03T13:08:46Z</time>
      </trkpt>
      <trkpt lat="43.67372" lon="3.81123">
        <ele>106</ele>
        <time>2021-01-03T13:08:47Z</time>
      </trkpt>
      <trkpt lat="43.67374" lon="3.81127">
        <ele>105.3</ele>
        <time>2021-01-03T13:08:48Z</time>
      </trkpt>
      <trkpt lat="43.67376" lon="3.81129">
        <ele>104.8</ele>
        <time>2021-01-03T13:08:49Z</time>
      </trkpt>
      <trkpt lat="43.67378" lon="3.81132">
        <ele>104.2</ele>
        <time>2021-01-03T13:08:50Z</time>
      </trkpt>
      <trkpt lat="43.6738" lon="3.81136">
        <ele>103.4</ele>
        <time>2021-01-03T13:08:51Z</time>
      </trkpt>
      <trkpt lat="43.67381" lon="3.81139">
        <ele>102.8</ele>
        <time>2021-01-03T13:08:52Z</time>
      </trkpt>
      <trkpt lat="43.67381" lon="3.81143">
        <ele>102.2</ele>
        <time>2021-01-03T13:08:54Z</time>
      </trkpt>
      <trkpt lat="43.67381" lon="3.81146">
        <ele>114</ele>
        <time>2021-01-03T13:08:55Z</time>
      </trkpt>
      <trkpt lat="43.67382" lon="3.81149">
        <ele>101.1</ele>
        <time>2021-01-03T13:08:56Z</time>
      </trkpt>
      <trkpt lat="43.67384" lon="3.81151">
        <ele>100.6</ele>
        <time>2021-01-03T13:08:57Z</time>
      </trkpt>
      <trkpt lat="43.67385" lon="3.81154">
        <ele>100.1</ele>
        <time>2021-01-03T13:08:58Z</time>
      </trkpt>
      <trkpt lat="43.67386" lon="3.81157">
        <ele>99.6</ele>
        <time>2021-01-03T13:08:59Z</time>
      </trkpt>
      <trkpt lat="43.67387" lon="3.8116">
        <ele>99.1</ele>
        <time>2021-01-03T13:09:00Z</time>
      </trkpt>
      <trkpt lat="43.67387" lon="3.81163">
        <ele>98.6</ele>
        <time>2021-01-03T13:09:01Z</time>
      </trkpt>
      <trkpt lat="43.67388" lon="3.81167">
        <ele>98.1</ele>
        <time>2021-01-03T13:09:02Z</time>
      </trkpt>
      <trkpt lat="43.67389" lon="3.81171">
        <ele>98.6</ele>
        <time>2021-01-03T13:09:03Z</time>
      </trkpt>
      <trkpt lat="43.6739" lon="3.81174">
        <ele>99.1</ele>
        <time>2021-01-03T13:09:04Z</time>
      </trkpt>
      <trkpt lat="43.67391" lon="3.81174">
        <ele>111</ele>
        <time>2021-01-03T13:09:05Z</time>
      </trkpt>
      <trkpt lat="43.67394" lon="3.81173">
        <ele>99</ele>
        <time>2021-01-03T13:09:07Z</time>
      </trkpt>
      <trkpt lat="43.67396" lon="3.81172">
        <ele>98.9</ele>
        <time>2021-01-03T13:09:08Z</time>
      </trkpt>
      <trkpt lat="43.67398" lon="3.81171">
        <ele>98.7</ele>
        <time>2021-01-03T13:09:09Z</time>
      </trkpt>
      <trkpt lat="43.67401" lon="3.81171">
        <ele>98.8</ele>
        <time>2021-01-03T13:09:10Z</time>
      </trkpt>
      <trkpt lat="43.67404" lon="3.8117">
        <ele>98.6</ele>
        <time>2021-01-03T13:09:11Z</time>
      </trkpt>
      <trkpt lat="43.67406" lon="3.81169">
        <ele>98.4</ele>
        <time>2021-01-03T13:09:12Z</time>
      </trkpt>
      <trkpt lat="43.67409" lon="3.81169">
        <ele>98.5</ele>
        <time>2021-01-03T13:09:13Z</time>
      </trkpt>
      <trkpt lat="43.67412" lon="3.81168">
        <ele>98.3</ele>
        <time>2021-01-03T13:09:14Z</time>
      </trkpt>
      <trkpt lat="43.67414" lon="3.81168">
        <ele>108</ele>
        <time>2021-01-03T13:09:15Z</time>
      </trkpt>
      <trkpt lat="43.67417" lon="3.81167">
        <ele>98.1</ele>
        <time>2021-01-03T13:09:16Z</time>
      </trkpt>
      <trkpt lat="43.67419" lon="3.81167">
        <ele>98.1</ele>
        <time>2021-01-03T13:09:17Z</time>
      </trkpt>
      <trkpt lat="43.67422" lon="3.81166">
        <ele>98.1</ele>
        <time>2021-01-03T13:09:18Z</time>
      </trkpt>
      <trkpt lat="43.67424" lon="3.81166">
        <ele>98.1</ele>
        <time>2021-01-03T13:09:19Z</time>
      </trkpt>
      <trkpt lat="43.67426" lon="3.81166">
        <ele>98.1</ele>
        <time>2021-01-03T13:09:20Z</time>
      </trkpt>
      <trkpt lat="43.67428" lon="3.81167">
        <ele>98.1</ele>
        <time>2021-01-03T13:09:21Z</time>
      </trkpt>
      <trkpt lat="43.6743" lon="3.81167">
        <ele>98.1</ele>
        <time>2021-01-03T13:09:22Z</time>
      </trkpt>
      <trkpt lat="43.67432" lon="3.81168">
        <ele>98.3</ele>
        <time>2021-01-03T13:09:23Z</time>
      </trkpt>
      <trkpt lat="43.67435" lon="3.81167">
        <ele>98.1</ele>
        <time>2021-01-03T13:09:24Z</time>
      </trkpt>
      <trkpt lat="43.67437" lon="3.81167">
        <ele>106</ele>
        <time>2021-01-03T13:09:25Z</time>
      </trkpt>
      <trkpt lat="43.6744" lon="3.81167">
        <ele>98.1</ele>
        <time>2021-01-03T13:09:26Z</time>
      </trkpt>
      <trkpt lat="43.67443" lon="3.81166">
        <ele>98</ele>
        <time>2021-01-03T13:09:27Z</time>
      </trkpt>
      <trkpt lat="43.67446" lon="3.81166">
        <ele>98.2</ele>
        <time>2021-01-03T13:09:28Z</time>
      </trkpt>
      <trkpt lat="43.67448" lon="3.81166">
        <ele>98.5</ele>
        <time>2021-01-03T13:09:29Z</time>
      </trkpt>
      <trkpt lat="43.67451" lon="3.81166">
        <ele>98.9</ele>
        <time>2021-01-03T13:09:30Z</time>
      </trkpt>
      <trkpt lat="43.67454" lon="3.81165">
        <ele>99.3</ele>
        <time>2021-01-03T13:09:31Z</time>
      </trkpt>
      <trkpt lat="43.67457" lon="3.81164">
        <ele>99.6</ele>
        <time>2021-01-03T13:09:32Z</time>
      </trkpt>
      <trkpt lat="43.6746" lon="3.81162">
        <ele>99.8</ele>
        <time>2021-01-03T13:09:33Z</time>
      </trkpt>
      <trkpt lat="43.67462" lon="3.8116">
        <ele>99.9</ele>
        <time>2021-01-03T13:09:34Z</time>
      </trkpt>
      <trkpt lat="43.67465" lon="3.81157">
        <ele>104</ele>
        <time>2021-01-03T13:09:35Z</time>
      </trkpt>
      <trkpt lat="43.67467" lon="3.81153">
        <ele>99.3</ele>
        <time>2021-01-03T13:09:36Z</time>
      </trkpt>
      <trkpt lat="43.6747" lon="3.81149">
        <ele>98.8</ele>
        <time>2021-01-03T13:09:37Z</time>
      </trkpt>
      <trkpt lat="43.67472" lon="3.81145">
        <ele>98.1</ele>
        <time>2021-01-03T13:09:38Z</time>
      </trkpt>
      <trkpt lat="43.67474" lon="3.8114">
        <ele>97.6</ele>
        <time>2021-01-03T13:09:39Z</time>
      </trkpt>
      <trkpt lat="43.67476" lon="3.81136">
        <ele>97.7</ele>
        <time>2021-01-03T13:09:40Z</time>
      </trkpt>
      <trkpt lat="43.67478" lon="3.81132">
        <ele>97.9</ele>
        <time>2021-01-03T13:09:41Z</time>
      </trkpt>
      <trkpt lat="43.6748" lon="3.81128">
        <ele>98</ele>
        <time>2021-01-03T13:09:42Z</time>
      </trkpt>
      <trkpt lat="43.67482" lon="3.81123">
        <ele>97.9</ele>
        <time>2021-01-03T13:09:43Z</time>
      </trkpt>
      <trkpt lat="43.67484" lon="3.81119">
        <ele>97.7</ele>
        <time>2021-01-03T13:09:44Z</time>
      </trkpt>
      <trkpt lat="43.67487" lon="3.81115">
        <ele>103</ele>
        <time>2021-01-03T13:09:45Z</time>
      </trkpt>
      <trkpt lat="43.67489" lon="3.81111">
        <ele>97</ele>
        <time>2021-01-03T13:09:46Z</time>
      </trkpt>
      <trkpt lat="43.67491" lon="3.81108">
        <ele>96.9</ele>
        <time>2021-01-03T13:09:47Z</time>
      </trkpt>
      <trkpt lat="43.67494" lon="3.81104">
        <ele>96.6</ele>
        <time>2021-01-03T13:09:48Z</time>
      </trkpt>
      <trkpt lat="43.67497" lon="3.811">
        <ele>96.1</ele>
        <time>2021-01-03T13:09:49Z</time>
      </trkpt>
      <trkpt lat="43.675" lon="3.81096">
        <ele>95.4</ele>
        <time>2021-01-03T13:09:50Z</time>
      </trkpt>
      <trkpt lat="43.67503" lon="3.81092">
        <ele>95.2</ele>
        <time>2021-01-03T13:09:51Z</time>
      </trkpt>
      <trkpt lat="43.67506" lon="3.81088">
        <ele>95</ele>
        <time>2021-01-03T13:09:52Z</time>
      </trkpt>
      <trkpt lat="43.67509" lon="3.81085">
        <ele>94.9</ele>
        <time>2021-01-03T13:09:53Z</time>
      </trkpt>
      <trkpt lat="43.67513" lon="3.81081">
        <ele>95.1</ele>
        <time>2021-01-03T13:09:54Z</time>
      </trkpt>
      <trkpt lat="43.67517" lon="3.81078">
        <ele>102</ele>
        <time>2021-01-03T13:09:55Z</time>
      </trkpt>
      <trkpt lat="43.67522" lon="3.81075">
        <ele>95.4</ele>
        <time>2021-01-03T13:09:56Z</time>
      </trkpt>
      <trkpt lat="43.67525" lon="3.81073">
        <ele>95.3</ele>
        <time>2021-01-03T13:09:57Z</time>
      </trkpt>
      <trkpt lat="43.67529" lon="3.8107">
        <ele>95.2</ele>
        <time>2021-01-03T13:09:58Z</time>
      </trkpt>
      <trkpt lat="43.67532" lon="3.81067">
        <ele>95.3</ele>
        <time>2021-01-03T13:09:59Z</time>
      </trkpt>
      <trkpt lat="43.67535" lon="3.81065">
        <ele>95.5</ele>
        <time>2021-01-03T13:10:00Z</time>
      </trkpt>
      <trkpt lat="43.67537" lon="3.81062">
        <ele>95.5</ele>
        <time>2021-01-03T13:10:01Z</time>
      </trkpt>
      <trkpt lat="43.6754" lon="3.81059">
        <ele>95.6</ele>
        <time>2021-01-03T13:10:02Z</time>
      </trkpt>
      <trkpt lat="43.67543" lon="3.81056">
        <ele>95.7</ele>
        <time>2021-01-03T13:10:03Z</time>
      </trkpt>
      <trkpt lat="43.67546" lon="3.81053">
        <ele>95.9</ele>
        <time>2021-01-03T13:10:04Z</time>
      </trkpt>
      <trkpt lat="43.67549" lon="3.81049">
        <ele>101</ele>
        <time>2021-01-03T13:10:05Z</time>
      </trkpt>
      <trkpt lat="43.67551" lon="3.81046">
        <ele>96.2</ele>
        <time>2021-01-03T13:10:06Z</time>
      </trkpt>
      <trkpt lat="43.67553" lon="3.81042">
        <ele>96.3</ele>
        <time>2021-01-03T13:10:07Z</time>
      </trkpt>
      <trkpt lat="43.67555" lon="3.81038">
        <ele>96.3</ele>
        <time>2021-01-03T13:10:08Z</time>
      </trkpt>
      <trkpt lat="43.67555" lon="3.81034">
        <ele>96.2</ele>
        <time>2021-01-03T13:10:09Z</time>
      </trkpt>
      <trkpt lat="43.67556" lon="3.8103">
        <ele>96.2</ele>
        <time>2021-01-03T13:10:10Z</time>
      </trkpt>
      <trkpt lat="43.67557" lon="3.81026">
        <ele>96.1</ele>
        <time>2021-01-03T13:10:11Z</time>
      </trkpt>
      <trkpt lat="43.67558" lon="3.81021">
        <ele>95.8</ele>
        <time>2021-01-03T13:10:12Z</time>
      </trkpt>
      <trkpt lat="43.67558" lon="3.81017">
        <ele>95.4</ele>
        <time>2021-01-03T13:10:13Z</time>
      </trkpt>
      <trkpt lat="43.67559" lon="3.81013">
        <ele>95.1</ele>
        <time>2021-01-03T13:10:14Z</time>
      </trkpt>
      <trkpt lat="43.67561" lon="3.81008">
        <ele>100</ele>
        <time>2021-01-03T13:10:15Z</time>
      </trkpt>
      <trkpt lat="43.67562" lon="3.81003">
        <ele>94.7</ele>
        <time>2021-01-03T13:10:16Z</time>
      </trkpt>
      <trkpt lat="43.67562" lon="3.80998">
        <ele>94.3</ele>
        <time>2021-01-03T13:10:17Z</time>
      </trkpt>
      <trkpt lat="43.67563" lon="3.80992">
        <ele>94.2</ele>
        <time>2021-01-03T13:10:18Z</time>
      </trkpt>
      <trkpt lat="43.67564" lon="3.80986">
        <ele>94</ele>
        <time>2021-01-03T13:10:19Z</time>
      </trkpt>
      <trkpt lat="43.67565" lon="3.8098">
        <ele>93.8</ele>
        <time>2021-01-03T13:10:20Z</time>
      </trkpt>
      <trkpt lat="43.67567" lon="3.80973">
        <ele>93.7</ele>
        <time>2021-01-03T13:10:21Z</time>
      </trkpt>
      <trkpt lat="43.67569" lon="3.80967">
        <ele>94</ele>
        <time>2021-01-03T13:10:22Z</time>
      </trkpt>
      <trkpt lat="43.67571" lon="3.8096">
        <ele>94.3</ele>
        <time>2021-01-03T13:10:23Z</time>
      </trkpt>
      <trkpt lat="43.67573" lon="3.80954">
        <ele>94.4</ele>
        <time>2021-01-03T13:10:24Z</time>
      </trkpt>
      <trkpt lat="43.67575" lon="3.80948">
        <ele>99</ele>
        <time>2021-01-03T13:10:25Z</time>
      </trkpt>
      <trkpt lat="43.67577" lon="3.80942">
        <ele>94</ele>
        <time>2021-01-03T13:10:26Z</time>
      </trkpt>
      <trkpt lat="43.67579" lon="3.80936">
        <ele>93.4</ele>
        <time>2021-01-03T13:10:27Z</time>
      </trkpt>
      <trkpt lat="43.6758" lon="3.80931">
        <ele>92.9</ele>
        <time>2021-01-03T13:10:28Z</time>
      </trkpt>
      <trkpt lat="43.67582" lon="3.80925">
        <ele>92.1</ele>
        <time>2021-01-03T13:10:29Z</time>
      </trkpt>
      <trkpt lat="43.67584" lon="3.8092">
        <ele>91.5</ele>
        <time>2021-01-03T13:10:30Z</time>
      </trkpt>
      <trkpt lat="43.67585" lon="3.80914">
        <ele>91.3</ele>
        <time>2021-01-03T13:10:31Z</time>
      </trkpt>
      <trkpt lat="43.67586" lon="3.80909">
        <ele>91.3</ele>
        <time>2021-01-03T13:10:32Z</time>
      </trkpt>
      <trkpt lat="43.67588" lon="3.80903">
        <ele>91.4</ele>
        <time>2021-01-03T13:10:33Z</time>
      </trkpt>
      <trkpt lat="43.67589" lon="3.80897">
        <ele>91.4</ele>
        <time>2021-01-03T13:10:34Z</time>
      </trkpt>
      <trkpt lat="43.67591" lon="3.80891">
        <ele>99</ele>
        <time>2021-01-03T13:10:35Z</time>
      </trkpt>
      <trkpt lat="43.67592" lon="3.80884">
        <ele>91.5</ele>
        <time>2021-01-03T13:10:36Z</time>
      </trkpt>
      <trkpt lat="43.67594" lon="3.80878">
        <ele>91.7</ele>
        <time>2021-01-03T13:10:37Z</time>
      </trkpt>
      <trkpt lat="43.67595" lon="3.80871">
        <ele>91.7</ele>
        <time>2021-01-03T13:10:38Z</time>
      </trkpt>
      <trkpt lat="43.67597" lon="3.80864">
        <ele>91.6</ele>
        <time>2021-01-03T13:10:39Z</time>
      </trkpt>
      <trkpt lat="43.67599" lon="3.80857">
        <ele>91.6</ele>
        <time>2021-01-03T13:10:40Z</time>
      </trkpt>
      <trkpt lat="43.676" lon="3.8085">
        <ele>91.6</ele>
        <time>2021-01-03T13:10:41Z</time>
      </trkpt>
      <trkpt lat="43.67602" lon="3.80842">
        <ele>91.4</ele>
        <time>2021-01-03T13:10:42Z</time>
      </trkpt>
      <trkpt lat="43.67603" lon="3.80835">
        <ele>91.2</ele>
        <time>2021-01-03T13:10:43Z</time>
      </trkpt>
      <trkpt lat="43.67605" lon="3.80827">
        <ele>90.5</ele>
        <time>2021-01-03T13:10:44Z</time>
      </trkpt>
      <trkpt lat="43.67607" lon="3.8082">
        <ele>97</ele>
        <time>2021-01-03T13:10:45Z</time>
      </trkpt>
      <trkpt lat="43.67609" lon="3.80813">
        <ele>89</ele>
        <time>2021-01-03T13:10:46Z</time>
      </trkpt>
      <trkpt lat="43.6761" lon="3.80806">
        <ele>88.3</ele>
        <time>2021-01-03T13:10:47Z</time>
      </trkpt>
      <trkpt lat="43.67611" lon="3.80799">
        <ele>87.8</ele>
        <time>2021-01-03T13:10:48Z</time>
      </trkpt>
      <trkpt lat="43.67612" lon="3.80793">
        <ele>87.7</ele>
        <time>2021-01-03T13:10:49Z</time>
      </trkpt>
      <trkpt lat="43.67612" lon="3.80787">
        <ele>87.5</ele>
        <time>2021-01-03T13:10:50Z</time>
      </trkpt>
      <trkpt lat="43.67614" lon="3.80782">
        <ele>87.5</ele>
        <time>2021-01-03T13:10:51Z</time>
      </trkpt>
      <trkpt lat="43.67615" lon="3.80778">
        <ele>87.4</ele>
        <time>2021-01-03T13:10:52Z</time>
      </trkpt>
      <trkpt lat="43.67617" lon="3.80774">
        <ele>87.5</ele>
        <time>2021-01-03T13:10:53Z</time>
      </trkpt>
      <trkpt lat="43.67618" lon="3.80771">
        <ele>87.5</ele>
        <time>2021-01-03T13:10:54Z</time>
      </trkpt>
      <trkpt lat="43.67618" lon="3.80769">
        <ele>94</ele>
        <time>2021-01-03T13:10:55Z</time>
      </trkpt>
      <trkpt lat="43.67618" lon="3.80766">
        <ele>87.3</ele>
        <time>2021-01-03T13:10:56Z</time>
      </trkpt>
      <trkpt lat="43.67617" lon="3.80764">
        <ele>87.2</ele>
        <time>2021-01-03T13:10:57Z</time>
      </trkpt>
      <trkpt lat="43.67615" lon="3.80762">
        <ele>87.1</ele>
        <time>2021-01-03T13:10:58Z</time>
      </trkpt>
      <trkpt lat="43.67612" lon="3.8076">
        <ele>87</ele>
        <time>2021-01-03T13:10:59Z</time>
      </trkpt>
      <trkpt lat="43.6761" lon="3.80759">
        <ele>87.1</ele>
        <time>2021-01-03T13:11:00Z</time>
      </trkpt>
      <trkpt lat="43.67608" lon="3.80757">
        <ele>87.3</ele>
        <time>2021-01-03T13:11:01Z</time>
      </trkpt>
      <trkpt lat="43.67606" lon="3.80756">
        <ele>87.5</ele>
        <time>2021-01-03T13:11:02Z</time>
      </trkpt>
      <trkpt lat="43.67607" lon="3.80752">
        <ele>87.3</ele>
        <time>2021-01-03T13:11:04Z</time>
      </trkpt>
      <trkpt lat="43.67609" lon="3.80751">
        <ele>93</ele>
        <time>2021-01-03T13:11:05Z</time>
      </trkpt>
      <trkpt lat="43.6761" lon="3.80749">
        <ele>87.1</ele>
        <time>2021-01-03T13:11:06Z</time>
      </trkpt>
      <trkpt lat="43.67613" lon="3.80746">
        <ele>86.9</ele>
        <time>2021-01-03T13:11:07Z</time>
      </trkpt>
      <trkpt lat="43.67615" lon="3.80743">
        <ele>86.9</ele>
        <time>2021-01-03T13:11:08Z</time>
      </trkpt>
      <trkpt lat="43.67618" lon="3.80738">
        <ele>86.8</ele>
        <time>2021-01-03T13:11:09Z</time>
      </trkpt>
      <trkpt lat="43.67621" lon="3.80733">
        <ele>86.6</ele>
        <time>2021-01-03T13:11:10Z</time>
      </trkpt>
      <trkpt lat="43.67624" lon="3.80728">
        <ele>86.5</ele>
        <time>2021-01-03T13:11:11Z</time>
      </trkpt>
      <trkpt lat="43.67627" lon="3.80724">
        <ele>86.4</ele>
        <time>2021-01-03T13:11:12Z</time>
      </trkpt>
      <trkpt lat="43.67631" lon="3.80719">
        <ele>86.4</ele>
        <time>2021-01-03T13:11:13Z</time>
      </trkpt>
      <trkpt lat="43.67634" lon="3.80715">
        <ele>86.5</ele>
        <time>2021-01-03T13:11:14Z</time>
      </trkpt>
      <trkpt lat="43.6764" lon="3.80705">
        <ele>92</ele>
        <time>2021-01-03T13:11:15Z</time>
      </trkpt>
      <trkpt lat="43.67643" lon="3.80701">
        <ele>86.5</ele>
        <time>2021-01-03T13:11:16Z</time>
      </trkpt>
      <trkpt lat="43.67645" lon="3.80696">
        <ele>86.5</ele>
        <time>2021-01-03T13:11:17Z</time>
      </trkpt>
      <trkpt lat="43.67649" lon="3.80692">
        <ele>86.5</ele>
        <time>2021-01-03T13:11:18Z</time>
      </trkpt>
      <trkpt lat="43.67652" lon="3.80687">
        <ele>86.7</ele>
        <time>2021-01-03T13:11:19Z</time>
      </trkpt>
      <trkpt lat="43.67655" lon="3.80683">
        <ele>86.8</ele>
        <time>2021-01-03T13:11:20Z</time>
      </trkpt>
      <trkpt lat="43.67658" lon="3.80678">
        <ele>87</ele>
        <time>2021-01-03T13:11:21Z</time>
      </trkpt>
      <trkpt lat="43.67661" lon="3.80674">
        <ele>87</ele>
        <time>2021-01-03T13:11:22Z</time>
      </trkpt>
      <trkpt lat="43.67665" lon="3.8067">
        <ele>86.9</ele>
        <time>2021-01-03T13:11:23Z</time>
      </trkpt>
      <trkpt lat="43.67668" lon="3.80667">
        <ele>86.9</ele>
        <time>2021-01-03T13:11:24Z</time>
      </trkpt>
      <trkpt lat="43.67672" lon="3.80662">
        <ele>86.8</ele>
        <time>2021-01-03T13:11:26Z</time>
      </trkpt>
      <trkpt lat="43.67676" lon="3.80659">
        <ele>86.7</ele>
        <time>2021-01-03T13:11:27Z</time>
      </trkpt>
      <trkpt lat="43.67679" lon="3.80656">
        <ele>86.7</ele>
        <time>2021-01-03T13:11:28Z</time>
      </trkpt>
      <trkpt lat="43.67682" lon="3.80654">
        <ele>86.6</ele>
        <time>2021-01-03T13:11:29Z</time>
      </trkpt>
      <trkpt lat="43.67684" lon="3.80652">
        <ele>86.6</ele>
        <time>2021-01-03T13:11:30Z</time>
      </trkpt>
      <trkpt lat="43.67687" lon="3.80649">
        <ele>86.6</ele>
        <time>2021-01-03T13:11:31Z</time>
      </trkpt>
      <trkpt lat="43.67689" lon="3.80647">
        <ele>86.7</ele>
        <time>2021-01-03T13:11:32Z</time>
      </trkpt>
      <trkpt lat="43.6769" lon="3.80644">
        <ele>86.8</ele>
        <time>2021-01-03T13:11:33Z</time>
      </trkpt>
      <trkpt lat="43.67691" lon="3.80641">
        <ele>87</ele>
        <time>2021-01-03T13:11:34Z</time>
      </trkpt>
      <trkpt lat="43.6769" lon="3.80638">
        <ele>92</ele>
        <time>2021-01-03T13:11:35Z</time>
      </trkpt>
      <trkpt lat="43.67688" lon="3.80636">
        <ele>87.3</ele>
        <time>2021-01-03T13:11:36Z</time>
      </trkpt>
      <trkpt lat="43.67686" lon="3.80635">
        <ele>87.4</ele>
        <time>2021-01-03T13:11:37Z</time>
      </trkpt>
      <trkpt lat="43.67684" lon="3.80634">
        <ele>87.5</ele>
        <time>2021-01-03T13:11:38Z</time>
      </trkpt>
      <trkpt lat="43.67683" lon="3.80633">
        <ele>87.6</ele>
        <time>2021-01-03T13:11:39Z</time>
      </trkpt>
      <trkpt lat="43.67681" lon="3.80632">
        <ele>87.7</ele>
        <time>2021-01-03T13:11:40Z</time>
      </trkpt>
      <trkpt lat="43.67679" lon="3.8063">
        <ele>87.9</ele>
        <time>2021-01-03T13:11:41Z</time>
      </trkpt>
      <trkpt lat="43.67676" lon="3.80627">
        <ele>88.2</ele>
        <time>2021-01-03T13:11:43Z</time>
      </trkpt>
      <trkpt lat="43.67673" lon="3.80625">
        <ele>88.5</ele>
        <time>2021-01-03T13:11:45Z</time>
      </trkpt>
      <trkpt lat="43.6767" lon="3.80622">
        <ele>94</ele>
        <time>2021-01-03T13:11:46Z</time>
      </trkpt>
      <trkpt lat="43.67668" lon="3.80619">
        <ele>89.3</ele>
        <time>2021-01-03T13:11:48Z</time>
      </trkpt>
      <trkpt lat="43.67666" lon="3.80616">
        <ele>89.7</ele>
        <time>2021-01-03T13:11:50Z</time>
      </trkpt>
      <trkpt lat="43.67664" lon="3.80612">
        <ele>90.3</ele>
        <time>2021-01-03T13:11:52Z</time>
      </trkpt>
      <trkpt lat="43.67662" lon="3.80608">
        <ele>95</ele>
        <time>2021-01-03T13:11:55Z</time>
      </trkpt>
      <trkpt lat="43.6766" lon="3.80604">
        <ele>90.6</ele>
        <time>2021-01-03T13:11:57Z</time>
      </trkpt>
      <trkpt lat="43.67657" lon="3.80601">
        <ele>90.9</ele>
        <time>2021-01-03T13:11:59Z</time>
      </trkpt>
      <trkpt lat="43.67655" lon="3.80598">
        <ele>91.1</ele>
        <time>2021-01-03T13:12:01Z</time>
      </trkpt>
      <trkpt lat="43.67653" lon="3.80594">
        <ele>91.3</ele>
        <time>2021-01-03T13:12:03Z</time>
      </trkpt>
      <trkpt lat="43.67651" lon="3.8059">
        <ele>96</ele>
        <time>2021-01-03T13:12:05Z</time>
      </trkpt>
      <trkpt lat="43.6765" lon="3.80588">
        <ele>91.7</ele>
        <time>2021-01-03T13:12:06Z</time>
      </trkpt>
      <trkpt lat="43.67649" lon="3.80585">
        <ele>91.9</ele>
        <time>2021-01-03T13:12:07Z</time>
      </trkpt>
      <trkpt lat="43.67648" lon="3.80583">
        <ele>92</ele>
        <time>2021-01-03T13:12:08Z</time>
      </trkpt>
      <trkpt lat="43.67646" lon="3.8058">
        <ele>92.1</ele>
        <time>2021-01-03T13:12:09Z</time>
      </trkpt>
      <trkpt lat="43.67645" lon="3.80578">
        <ele>92.1</ele>
        <time>2021-01-03T13:12:10Z</time>
      </trkpt>
      <trkpt lat="43.67644" lon="3.80576">
        <ele>92.1</ele>
        <time>2021-01-03T13:12:11Z</time>
      </trkpt>
      <trkpt lat="43.67642" lon="3.80573">
        <ele>92.2</ele>
        <time>2021-01-03T13:12:12Z</time>
      </trkpt>
      <trkpt lat="43.67641" lon="3.8057">
        <ele>92.1</ele>
        <time>2021-01-03T13:12:13Z</time>
      </trkpt>
      <trkpt lat="43.67639" lon="3.80567">
        <ele>92.2</ele>
        <time>2021-01-03T13:12:14Z</time>
      </trkpt>
      <trkpt lat="43.67638" lon="3.80565">
        <ele>96</ele>
        <time>2021-01-03T13:12:15Z</time>
      </trkpt>
      <trkpt lat="43.67636" lon="3.80562">
        <ele>92.3</ele>
        <time>2021-01-03T13:12:16Z</time>
      </trkpt>
      <trkpt lat="43.67635" lon="3.80559">
        <ele>92.2</ele>
        <time>2021-01-03T13:12:17Z</time>
      </trkpt>
      <trkpt lat="43.67633" lon="3.80556">
        <ele>92.3</ele>
        <time>2021-01-03T13:12:18Z</time>
      </trkpt>
      <trkpt lat="43.67632" lon="3.80553">
        <ele>92.1</ele>
        <time>2021-01-03T13:12:19Z</time>
      </trkpt>
      <trkpt lat="43.6763" lon="3.8055">
        <ele>92</ele>
        <time>2021-01-03T13:12:20Z</time>
      </trkpt>
      <trkpt lat="43.67629" lon="3.80547">
        <ele>91.8</ele>
        <time>2021-01-03T13:12:21Z</time>
      </trkpt>
      <trkpt lat="43.67628" lon="3.80544">
        <ele>91.6</ele>
        <time>2021-01-03T13:12:22Z</time>
      </trkpt>
      <trkpt lat="43.67626" lon="3.80541">
        <ele>91.7</ele>
        <time>2021-01-03T13:12:23Z</time>
      </trkpt>
      <trkpt lat="43.67625" lon="3.80538">
        <ele>91.5</ele>
        <time>2021-01-03T13:12:24Z</time>
      </trkpt>
      <trkpt lat="43.67623" lon="3.80536">
        <ele>96</ele>
        <time>2021-01-03T13:12:25Z</time>
      </trkpt>
      <trkpt lat="43.67622" lon="3.80533">
        <ele>91.6</ele>
        <time>2021-01-03T13:12:26Z</time>
      </trkpt>
      <trkpt lat="43.6762" lon="3.8053">
        <ele>91.7</ele>
        <time>2021-01-03T13:12:27Z</time>
      </trkpt>
      <trkpt lat="43.67619" lon="3.80527">
        <ele>91.7</ele>
        <time>2021-01-03T13:12:28Z</time>
      </trkpt>
      <trkpt lat="43.67618" lon="3.80524">
        <ele>91.7</ele>
        <time>2021-01-03T13:12:29Z</time>
      </trkpt>
      <trkpt lat="43.67617" lon="3.80521">
        <ele>91.7</ele>
        <time>2021-01-03T13:12:30Z</time>
      </trkpt>
      <trkpt lat="43.67615" lon="3.80518">
        <ele>92.1</ele>
        <time>2021-01-03T13:12:31Z</time>
      </trkpt>
      <trkpt lat="43.67614" lon="3.80516">
        <ele>92.2</ele>
        <time>2021-01-03T13:12:32Z</time>
      </trkpt>
      <trkpt lat="43.67612" lon="3.80513">
        <ele>92.6</ele>
        <time>2021-01-03T13:12:33Z</time>
      </trkpt>
      <trkpt lat="43.67611" lon="3.8051">
        <ele>92.7</ele>
        <time>2021-01-03T13:12:34Z</time>
      </trkpt>
      <trkpt lat="43.67609" lon="3.80508">
        <ele>96</ele>
        <time>2021-01-03T13:12:35Z</time>
      </trkpt>
      <trkpt lat="43.67608" lon="3.80505">
        <ele>92.8</ele>
        <time>2021-01-03T13:12:36Z</time>
      </trkpt>
      <trkpt lat="43.67607" lon="3.80503">
        <ele>92.8</ele>
        <time>2021-01-03T13:12:37Z</time>
      </trkpt>
      <trkpt lat="43.67605" lon="3.805">
        <ele>92.9</ele>
        <time>2021-01-03T13:12:38Z</time>
      </trkpt>
      <trkpt lat="43.67604" lon="3.80497">
        <ele>92.4</ele>
        <time>2021-01-03T13:12:39Z</time>
      </trkpt>
      <trkpt lat="43.67602" lon="3.80495">
        <ele>92.3</ele>
        <time>2021-01-03T13:12:40Z</time>
      </trkpt>
      <trkpt lat="43.67601" lon="3.80492">
        <ele>92</ele>
        <time>2021-01-03T13:12:41Z</time>
      </trkpt>
      <trkpt lat="43.676" lon="3.80489">
        <ele>91.6</ele>
        <time>2021-01-03T13:12:42Z</time>
      </trkpt>
      <trkpt lat="43.67598" lon="3.80486">
        <ele>91.5</ele>
        <time>2021-01-03T13:12:43Z</time>
      </trkpt>
      <trkpt lat="43.67597" lon="3.80482">
        <ele>91.1</ele>
        <time>2021-01-03T13:12:44Z</time>
      </trkpt>
      <trkpt lat="43.67596" lon="3.80478">
        <ele>96</ele>
        <time>2021-01-03T13:12:45Z</time>
      </trkpt>
      <trkpt lat="43.67594" lon="3.80474">
        <ele>90.8</ele>
        <time>2021-01-03T13:12:46Z</time>
      </trkpt>
      <trkpt lat="43.67593" lon="3.8047">
        <ele>90.6</ele>
        <time>2021-01-03T13:12:47Z</time>
      </trkpt>
      <trkpt lat="43.67591" lon="3.80465">
        <ele>90.7</ele>
        <time>2021-01-03T13:12:48Z</time>
      </trkpt>
      <trkpt lat="43.6759" lon="3.8046">
        <ele>90.5</ele>
        <time>2021-01-03T13:12:49Z</time>
      </trkpt>
      <trkpt lat="43.67588" lon="3.80455">
        <ele>90.6</ele>
        <time>2021-01-03T13:12:50Z</time>
      </trkpt>
      <trkpt lat="43.67586" lon="3.8045">
        <ele>90.7</ele>
        <time>2021-01-03T13:12:51Z</time>
      </trkpt>
      <trkpt lat="43.67585" lon="3.80444">
        <ele>90.4</ele>
        <time>2021-01-03T13:12:52Z</time>
      </trkpt>
      <trkpt lat="43.67584" lon="3.80438">
        <ele>90.3</ele>
        <time>2021-01-03T13:12:53Z</time>
      </trkpt>
      <trkpt lat="43.67584" lon="3.80432">
        <ele>89.9</ele>
        <time>2021-01-03T13:12:54Z</time>
      </trkpt>
      <trkpt lat="43.67583" lon="3.80425">
        <ele>96</ele>
        <time>2021-01-03T13:12:55Z</time>
      </trkpt>
      <trkpt lat="43.6758" lon="3.80419">
        <ele>89.6</ele>
        <time>2021-01-03T13:12:56Z</time>
      </trkpt>
      <trkpt lat="43.67578" lon="3.80414">
        <ele>89.7</ele>
        <time>2021-01-03T13:12:57Z</time>
      </trkpt>
      <trkpt lat="43.67575" lon="3.80411">
        <ele>90</ele>
        <time>2021-01-03T13:12:58Z</time>
      </trkpt>
      <trkpt lat="43.67572" lon="3.80409">
        <ele>90.4</ele>
        <time>2021-01-03T13:12:59Z</time>
      </trkpt>
      <trkpt lat="43.6757" lon="3.80407">
        <ele>90.6</ele>
        <time>2021-01-03T13:13:00Z</time>
      </trkpt>
      <trkpt lat="43.67568" lon="3.80406">
        <ele>90.8</ele>
        <time>2021-01-03T13:13:01Z</time>
      </trkpt>
      <trkpt lat="43.67566" lon="3.80405">
        <ele>91.1</ele>
        <time>2021-01-03T13:13:02Z</time>
      </trkpt>
      <trkpt lat="43.67564" lon="3.80405">
        <ele>91.4</ele>
        <time>2021-01-03T13:13:03Z</time>
      </trkpt>
      <trkpt lat="43.67561" lon="3.80407">
        <ele>96</ele>
        <time>2021-01-03T13:13:05Z</time>
      </trkpt>
      <trkpt lat="43.67559" lon="3.80411">
        <ele>92.3</ele>
        <time>2021-01-03T13:13:07Z</time>
      </trkpt>
      <trkpt lat="43.67557" lon="3.80415">
        <ele>92.7</ele>
        <time>2021-01-03T13:13:09Z</time>
      </trkpt>
      <trkpt lat="43.67556" lon="3.80419">
        <ele>93.1</ele>
        <time>2021-01-03T13:13:11Z</time>
      </trkpt>
      <trkpt lat="43.67554" lon="3.80423">
        <ele>93.7</ele>
        <time>2021-01-03T13:13:13Z</time>
      </trkpt>
      <trkpt lat="43.67552" lon="3.80426">
        <ele>94.3</ele>
        <time>2021-01-03T13:13:15Z</time>
      </trkpt>
      <trkpt lat="43.67551" lon="3.8043">
        <ele>94.8</ele>
        <time>2021-01-03T13:13:17Z</time>
      </trkpt>
      <trkpt lat="43.6755" lon="3.80434">
        <ele>95.2</ele>
        <time>2021-01-03T13:13:19Z</time>
      </trkpt>
      <trkpt lat="43.67548" lon="3.80438">
        <ele>95.9</ele>
        <time>2021-01-03T13:13:21Z</time>
      </trkpt>
      <trkpt lat="43.67547" lon="3.80441">
        <ele>96.3</ele>
        <time>2021-01-03T13:13:23Z</time>
      </trkpt>
      <trkpt lat="43.67546" lon="3.80445">
        <ele>99</ele>
        <time>2021-01-03T13:13:25Z</time>
      </trkpt>
      <trkpt lat="43.67544" lon="3.80448">
        <ele>97.4</ele>
        <time>2021-01-03T13:13:27Z</time>
      </trkpt>
      <trkpt lat="43.67543" lon="3.80452">
        <ele>98</ele>
        <time>2021-01-03T13:13:29Z</time>
      </trkpt>
      <trkpt lat="43.67542" lon="3.80455">
        <ele>98.4</ele>
        <time>2021-01-03T13:13:31Z</time>
      </trkpt>
      <trkpt lat="43.67541" lon="3.80458">
        <ele>98.8</ele>
        <time>2021-01-03T13:13:33Z</time>
      </trkpt>
      <trkpt lat="43.6754" lon="3.80461">
        <ele>101</ele>
        <time>2021-01-03T13:13:35Z</time>
      </trkpt>
      <trkpt lat="43.67539" lon="3.80464">
        <ele>99.7</ele>
        <time>2021-01-03T13:13:37Z</time>
      </trkpt>
      <trkpt lat="43.67538" lon="3.80467">
        <ele>100.1</ele>
        <time>2021-01-03T13:13:39Z</time>
      </trkpt>
      <trkpt lat="43.67537" lon="3.80471">
        <ele>100.6</ele>
        <time>2021-01-03T13:13:41Z</time>
      </trkpt>
      <trkpt lat="43.67537" lon="3.80474">
        <ele>100.8</ele>
        <time>2021-01-03T13:13:43Z</time>
      </trkpt>
      <trkpt lat="43.67536" lon="3.80477">
        <ele>104</ele>
        <time>2021-01-03T13:13:45Z</time>
      </trkpt>
      <trkpt lat="43.67534" lon="3.80479">
        <ele>101.6</ele>
        <time>2021-01-03T13:13:47Z</time>
      </trkpt>
      <trkpt lat="43.67532" lon="3.80481">
        <ele>102.1</ele>
        <time>2021-01-03T13:13:49Z</time>
      </trkpt>
      <trkpt lat="43.6753" lon="3.80484">
        <ele>102.6</ele>
        <time>2021-01-03T13:13:51Z</time>
      </trkpt>
      <trkpt lat="43.67528" lon="3.80485">
        <ele>102.9</ele>
        <time>2021-01-03T13:13:53Z</time>
      </trkpt>
      <trkpt lat="43.67526" lon="3.80486">
        <ele>106</ele>
        <time>2021-01-03T13:13:55Z</time>
      </trkpt>
      <trkpt lat="43.67523" lon="3.80486">
        <ele>103.6</ele>
        <time>2021-01-03T13:13:57Z</time>
      </trkpt>
      <trkpt lat="43.67521" lon="3.80487">
        <ele>103.9</ele>
        <time>2021-01-03T13:13:59Z</time>
      </trkpt>
      <trkpt lat="43.67519" lon="3.80488">
        <ele>104.2</ele>
        <time>2021-01-03T13:14:01Z</time>
      </trkpt>
      <trkpt lat="43.67517" lon="3.80489">
        <ele>104.5</ele>
        <time>2021-01-03T13:14:03Z</time>
      </trkpt>
      <trkpt lat="43.67514" lon="3.80489">
        <ele>107</ele>
        <time>2021-01-03T13:14:05Z</time>
      </trkpt>
      <trkpt lat="43.67512" lon="3.80489">
        <ele>105.1</ele>
        <time>2021-01-03T13:14:07Z</time>
      </trkpt>
      <trkpt lat="43.6751" lon="3.8049">
        <ele>105.4</ele>
        <time>2021-01-03T13:14:09Z</time>
      </trkpt>
      <trkpt lat="43.67507" lon="3.8049">
        <ele>105.8</ele>
        <time>2021-01-03T13:14:11Z</time>
      </trkpt>
      <trkpt lat="43.67505" lon="3.8049">
        <ele>106</ele>
        <time>2021-01-03T13:14:13Z</time>
      </trkpt>
      <trkpt lat="43.67502" lon="3.8049">
        <ele>108</ele>
        <time>2021-01-03T13:14:15Z</time>
      </trkpt>
      <trkpt lat="43.675" lon="3.8049">
        <ele>106.6</ele>
        <time>2021-01-03T13:14:17Z</time>
      </trkpt>
      <trkpt lat="43.67498" lon="3.8049">
        <ele>106.9</ele>
        <time>2021-01-03T13:14:19Z</time>
      </trkpt>
      <trkpt lat="43.67496" lon="3.80491">
        <ele>107.1</ele>
        <time>2021-01-03T13:14:21Z</time>
      </trkpt>
      <trkpt lat="43.67493" lon="3.80492">
        <ele>107.5</ele>
        <time>2021-01-03T13:14:23Z</time>
      </trkpt>
      <trkpt lat="43.67491" lon="3.80492">
        <ele>110</ele>
        <time>2021-01-03T13:14:25Z</time>
      </trkpt>
      <trkpt lat="43.67489" lon="3.80493">
        <ele>107.9</ele>
        <time>2021-01-03T13:14:27Z</time>
      </trkpt>
      <trkpt lat="43.67487" lon="3.80494">
        <ele>108.2</ele>
        <time>2021-01-03T13:14:29Z</time>
      </trkpt>
      <trkpt lat="43.67484" lon="3.80495">
        <ele>108.5</ele>
        <time>2021-01-03T13:14:31Z</time>
      </trkpt>
      <trkpt lat="43.67482" lon="3.80496">
        <ele>108.8</ele>
        <time>2021-01-03T13:14:33Z</time>
      </trkpt>
      <trkpt lat="43.6748" lon="3.80498">
        <ele>109.1</ele>
        <time>2021-01-03T13:14:35Z</time>
      </trkpt>
      <trkpt lat="43.67478" lon="3.80499">
        <ele>109.3</ele>
        <time>2021-01-03T13:14:37Z</time>
      </trkpt>
      <trkpt lat="43.67476" lon="3.80499">
        <ele>109.6</ele>
        <time>2021-01-03T13:14:39Z</time>
      </trkpt>
      <trkpt lat="43.67473" lon="3.805">
        <ele>109.9</ele>
        <time>2021-01-03T13:14:41Z</time>
      </trkpt>
      <trkpt lat="43.67471" lon="3.80502">
        <ele>110.1</ele>
        <time>2021-01-03T13:14:43Z</time>
      </trkpt>
      <trkpt lat="43.67468" lon="3.80503">
        <ele>114</ele>
        <time>2021-01-03T13:14:45Z</time>
      </trkpt>
      <trkpt lat="43.67466" lon="3.80504">
        <ele>110.7</ele>
        <time>2021-01-03T13:14:47Z</time>
      </trkpt>
      <trkpt lat="43.67464" lon="3.80505">
        <ele>110.9</ele>
        <time>2021-01-03T13:14:49Z</time>
      </trkpt>
      <trkpt lat="43.67461" lon="3.80507">
        <ele>111.3</ele>
        <time>2021-01-03T13:14:51Z</time>
      </trkpt>
      <trkpt lat="43.67459" lon="3.80508">
        <ele>111.6</ele>
        <time>2021-01-03T13:14:53Z</time>
      </trkpt>
      <trkpt lat="43.67457" lon="3.80509">
        <ele>111.8</ele>
        <time>2021-01-03T13:14:55Z</time>
      </trkpt>
      <trkpt lat="43.67454" lon="3.80511">
        <ele>116</ele>
        <time>2021-01-03T13:14:56Z</time>
      </trkpt>
      <trkpt lat="43.67452" lon="3.80512">
        <ele>112.5</ele>
        <time>2021-01-03T13:14:58Z</time>
      </trkpt>
      <trkpt lat="43.67449" lon="3.80514">
        <ele>112.9</ele>
        <time>2021-01-03T13:15:00Z</time>
      </trkpt>
      <trkpt lat="43.67447" lon="3.80516">
        <ele>113.2</ele>
        <time>2021-01-03T13:15:02Z</time>
      </trkpt>
      <trkpt lat="43.67445" lon="3.80517">
        <ele>113.5</ele>
        <time>2021-01-03T13:15:04Z</time>
      </trkpt>
      <trkpt lat="43.67443" lon="3.80519">
        <ele>113.8</ele>
        <time>2021-01-03T13:15:07Z</time>
      </trkpt>
      <trkpt lat="43.6744" lon="3.80522">
        <ele>114.1</ele>
        <time>2021-01-03T13:15:09Z</time>
      </trkpt>
      <trkpt lat="43.67437" lon="3.80524">
        <ele>114.4</ele>
        <time>2021-01-03T13:15:11Z</time>
      </trkpt>
      <trkpt lat="43.67435" lon="3.80525">
        <ele>114.6</ele>
        <time>2021-01-03T13:15:13Z</time>
      </trkpt>
      <trkpt lat="43.67432" lon="3.80527">
        <ele>119</ele>
        <time>2021-01-03T13:15:15Z</time>
      </trkpt>
      <trkpt lat="43.67429" lon="3.80529">
        <ele>115.1</ele>
        <time>2021-01-03T13:15:17Z</time>
      </trkpt>
      <trkpt lat="43.67426" lon="3.8053">
        <ele>115.3</ele>
        <time>2021-01-03T13:15:19Z</time>
      </trkpt>
      <trkpt lat="43.67423" lon="3.80532">
        <ele>115.5</ele>
        <time>2021-01-03T13:15:21Z</time>
      </trkpt>
      <trkpt lat="43.6742" lon="3.80534">
        <ele>115.7</ele>
        <time>2021-01-03T13:15:23Z</time>
      </trkpt>
      <trkpt lat="43.67418" lon="3.80535">
        <ele>120</ele>
        <time>2021-01-03T13:15:25Z</time>
      </trkpt>
      <trkpt lat="43.67415" lon="3.80537">
        <ele>116.1</ele>
        <time>2021-01-03T13:15:26Z</time>
      </trkpt>
      <trkpt lat="43.67412" lon="3.80539">
        <ele>116.4</ele>
        <time>2021-01-03T13:15:28Z</time>
      </trkpt>
      <trkpt lat="43.67409" lon="3.80542">
        <ele>116.5</ele>
        <time>2021-01-03T13:15:30Z</time>
      </trkpt>
      <trkpt lat="43.67406" lon="3.80544">
        <ele>116.7</ele>
        <time>2021-01-03T13:15:32Z</time>
      </trkpt>
      <trkpt lat="43.67404" lon="3.80546">
        <ele>116.8</ele>
        <time>2021-01-03T13:15:34Z</time>
      </trkpt>
      <trkpt lat="43.67401" lon="3.80547">
        <ele>116.9</ele>
        <time>2021-01-03T13:15:37Z</time>
      </trkpt>
      <trkpt lat="43.67399" lon="3.80549">
        <ele>116.9</ele>
        <time>2021-01-03T13:15:39Z</time>
      </trkpt>
      <trkpt lat="43.67396" lon="3.80552">
        <ele>116.9</ele>
        <time>2021-01-03T13:15:41Z</time>
      </trkpt>
      <trkpt lat="43.67393" lon="3.80554">
        <ele>116.9</ele>
        <time>2021-01-03T13:15:43Z</time>
      </trkpt>
      <trkpt lat="43.67392" lon="3.80555">
        <ele>116.9</ele>
        <time>2021-01-03T13:15:44Z</time>
      </trkpt>
      <trkpt lat="43.6739" lon="3.80557">
        <ele>116.9</ele>
        <time>2021-01-03T13:15:45Z</time>
      </trkpt>
      <trkpt lat="43.67386" lon="3.80561">
        <ele>122</ele>
        <time>2021-01-03T13:15:46Z</time>
      </trkpt>
      <trkpt lat="43.6738" lon="3.80562">
        <ele>116.5</ele>
        <time>2021-01-03T13:15:48Z</time>
      </trkpt>
      <trkpt lat="43.67378" lon="3.80562">
        <ele>116.5</ele>
        <time>2021-01-03T13:15:49Z</time>
      </trkpt>
      <trkpt lat="43.67375" lon="3.80563">
        <ele>116.5</ele>
        <time>2021-01-03T13:15:50Z</time>
      </trkpt>
      <trkpt lat="43.67372" lon="3.80563">
        <ele>116.5</ele>
        <time>2021-01-03T13:15:51Z</time>
      </trkpt>
      <trkpt lat="43.67369" lon="3.80563">
        <ele>116.5</ele>
        <time>2021-01-03T13:15:52Z</time>
      </trkpt>
      <trkpt lat="43.67366" lon="3.80563">
        <ele>116.5</ele>
        <time>2021-01-03T13:15:53Z</time>
      </trkpt>
      <trkpt lat="43.67364" lon="3.80562">
        <ele>116.5</ele>
        <time>2021-01-03T13:15:54Z</time>
      </trkpt>
      <trkpt lat="43.67361" lon="3.80561">
        <ele>116.6</ele>
        <time>2021-01-03T13:15:56Z</time>
      </trkpt>
      <trkpt lat="43.67359" lon="3.80559">
        <ele>116.7</ele>
        <time>2021-01-03T13:15:57Z</time>
      </trkpt>
      <trkpt lat="43.67356" lon="3.80558">
        <ele>116.6</ele>
        <time>2021-01-03T13:15:58Z</time>
      </trkpt>
      <trkpt lat="43.67354" lon="3.80556">
        <ele>116.7</ele>
        <time>2021-01-03T13:15:59Z</time>
      </trkpt>
      <trkpt lat="43.67351" lon="3.80554">
        <ele>116.7</ele>
        <time>2021-01-03T13:16:00Z</time>
      </trkpt>
      <trkpt lat="43.67348" lon="3.80552">
        <ele>116.7</ele>
        <time>2021-01-03T13:16:01Z</time>
      </trkpt>
      <trkpt lat="43.67346" lon="3.80551">
        <ele>116.7</ele>
        <time>2021-01-03T13:16:02Z</time>
      </trkpt>
      <trkpt lat="43.67343" lon="3.80549">
        <ele>116.7</ele>
        <time>2021-01-03T13:16:03Z</time>
      </trkpt>
      <trkpt lat="43.67341" lon="3.80547">
        <ele>116.7</ele>
        <time>2021-01-03T13:16:04Z</time>
      </trkpt>
      <trkpt lat="43.67338" lon="3.80544">
        <ele>122</ele>
        <time>2021-01-03T13:16:05Z</time>
      </trkpt>
      <trkpt lat="43.67335" lon="3.80542">
        <ele>116.6</ele>
        <time>2021-01-03T13:16:06Z</time>
      </trkpt>
      <trkpt lat="43.67331" lon="3.80539">
        <ele>116.4</ele>
        <time>2021-01-03T13:16:07Z</time>
      </trkpt>
      <trkpt lat="43.67328" lon="3.80537">
        <ele>116.3</ele>
        <time>2021-01-03T13:16:08Z</time>
      </trkpt>
      <trkpt lat="43.67324" lon="3.80535">
        <ele>116.1</ele>
        <time>2021-01-03T13:16:09Z</time>
      </trkpt>
      <trkpt lat="43.6732" lon="3.80532">
        <ele>115.9</ele>
        <time>2021-01-03T13:16:10Z</time>
      </trkpt>
      <trkpt lat="43.67316" lon="3.80529">
        <ele>115.7</ele>
        <time>2021-01-03T13:16:11Z</time>
      </trkpt>
      <trkpt lat="43.67313" lon="3.80526">
        <ele>115.6</ele>
        <time>2021-01-03T13:16:12Z</time>
      </trkpt>
      <trkpt lat="43.67309" lon="3.80523">
        <ele>115.4</ele>
        <time>2021-01-03T13:16:13Z</time>
      </trkpt>
      <trkpt lat="43.67305" lon="3.80521">
        <ele>115.2</ele>
        <time>2021-01-03T13:16:14Z</time>
      </trkpt>
      <trkpt lat="43.67301" lon="3.80518">
        <ele>121</ele>
        <time>2021-01-03T13:16:15Z</time>
      </trkpt>
      <trkpt lat="43.67298" lon="3.80516">
        <ele>115.2</ele>
        <time>2021-01-03T13:16:16Z</time>
      </trkpt>
      <trkpt lat="43.67294" lon="3.80514">
        <ele>115.1</ele>
        <time>2021-01-03T13:16:17Z</time>
      </trkpt>
      <trkpt lat="43.67291" lon="3.80513">
        <ele>115</ele>
        <time>2021-01-03T13:16:18Z</time>
      </trkpt>
      <trkpt lat="43.67288" lon="3.80512">
        <ele>114.9</ele>
        <time>2021-01-03T13:16:19Z</time>
      </trkpt>
      <trkpt lat="43.67285" lon="3.80512">
        <ele>114.8</ele>
        <time>2021-01-03T13:16:20Z</time>
      </trkpt>
      <trkpt lat="43.67282" lon="3.80512">
        <ele>114.7</ele>
        <time>2021-01-03T13:16:21Z</time>
      </trkpt>
      <trkpt lat="43.67279" lon="3.80512">
        <ele>114.6</ele>
        <time>2021-01-03T13:16:22Z</time>
      </trkpt>
      <trkpt lat="43.67277" lon="3.80513">
        <ele>114.6</ele>
        <time>2021-01-03T13:16:23Z</time>
      </trkpt>
      <trkpt lat="43.67274" lon="3.80514">
        <ele>114.8</ele>
        <time>2021-01-03T13:16:24Z</time>
      </trkpt>
      <trkpt lat="43.67271" lon="3.80515">
        <ele>120</ele>
        <time>2021-01-03T13:16:25Z</time>
      </trkpt>
      <trkpt lat="43.67269" lon="3.80517">
        <ele>114.9</ele>
        <time>2021-01-03T13:16:26Z</time>
      </trkpt>
      <trkpt lat="43.67266" lon="3.80518">
        <ele>115.1</ele>
        <time>2021-01-03T13:16:27Z</time>
      </trkpt>
      <trkpt lat="43.67264" lon="3.80521">
        <ele>115</ele>
        <time>2021-01-03T13:16:28Z</time>
      </trkpt>
      <trkpt lat="43.67261" lon="3.80523">
        <ele>115</ele>
        <time>2021-01-03T13:16:29Z</time>
      </trkpt>
      <trkpt lat="43.67258" lon="3.80526">
        <ele>114.9</ele>
        <time>2021-01-03T13:16:30Z</time>
      </trkpt>
      <trkpt lat="43.67256" lon="3.80528">
        <ele>114.8</ele>
        <time>2021-01-03T13:16:31Z</time>
      </trkpt>
      <trkpt lat="43.67252" lon="3.8053">
        <ele>114.8</ele>
        <time>2021-01-03T13:16:32Z</time>
      </trkpt>
      <trkpt lat="43.67249" lon="3.80531">
        <ele>114.8</ele>
        <time>2021-01-03T13:16:33Z</time>
      </trkpt>
      <trkpt lat="43.67245" lon="3.80531">
        <ele>114.8</ele>
        <time>2021-01-03T13:16:34Z</time>
      </trkpt>
      <trkpt lat="43.67242" lon="3.8053">
        <ele>120</ele>
        <time>2021-01-03T13:16:35Z</time>
      </trkpt>
      <trkpt lat="43.6724" lon="3.80528">
        <ele>115</ele>
        <time>2021-01-03T13:16:36Z</time>
      </trkpt>
      <trkpt lat="43.67238" lon="3.80526">
        <ele>115.2</ele>
        <time>2021-01-03T13:16:37Z</time>
      </trkpt>
      <trkpt lat="43.67236" lon="3.80525">
        <ele>115.3</ele>
        <time>2021-01-03T13:16:38Z</time>
      </trkpt>
      <trkpt lat="43.67234" lon="3.80524">
        <ele>115.4</ele>
        <time>2021-01-03T13:16:39Z</time>
      </trkpt>
      <trkpt lat="43.67231" lon="3.80523">
        <ele>115.5</ele>
        <time>2021-01-03T13:16:40Z</time>
      </trkpt>
      <trkpt lat="43.67229" lon="3.80522">
        <ele>115.6</ele>
        <time>2021-01-03T13:16:41Z</time>
      </trkpt>
      <trkpt lat="43.67227" lon="3.8052">
        <ele>115.8</ele>
        <time>2021-01-03T13:16:42Z</time>
      </trkpt>
      <trkpt lat="43.67224" lon="3.80519">
        <ele>115.9</ele>
        <time>2021-01-03T13:16:43Z</time>
      </trkpt>
      <trkpt lat="43.67222" lon="3.80519">
        <ele>116</ele>
        <time>2021-01-03T13:16:44Z</time>
      </trkpt>
      <trkpt lat="43.67219" lon="3.80519">
        <ele>120</ele>
        <time>2021-01-03T13:16:45Z</time>
      </trkpt>
      <trkpt lat="43.67216" lon="3.80518">
        <ele>116.1</ele>
        <time>2021-01-03T13:16:46Z</time>
      </trkpt>
      <trkpt lat="43.67214" lon="3.80518">
        <ele>116.1</ele>
        <time>2021-01-03T13:16:47Z</time>
      </trkpt>
      <trkpt lat="43.67212" lon="3.80516">
        <ele>116.3</ele>
        <time>2021-01-03T13:16:48Z</time>
      </trkpt>
      <trkpt lat="43.67209" lon="3.80515">
        <ele>116.4</ele>
        <time>2021-01-03T13:16:49Z</time>
      </trkpt>
      <trkpt lat="43.67207" lon="3.80513">
        <ele>116.6</ele>
        <time>2021-01-03T13:16:50Z</time>
      </trkpt>
      <trkpt lat="43.67205" lon="3.80512">
        <ele>116.6</ele>
        <time>2021-01-03T13:16:51Z</time>
      </trkpt>
      <trkpt lat="43.67202" lon="3.8051">
        <ele>116.7</ele>
        <time>2021-01-03T13:16:52Z</time>
      </trkpt>
      <trkpt lat="43.672" lon="3.80507">
        <ele>116.8</ele>
        <time>2021-01-03T13:16:53Z</time>
      </trkpt>
      <trkpt lat="43.67198" lon="3.80504">
        <ele>116.9</ele>
        <time>2021-01-03T13:16:54Z</time>
      </trkpt>
      <trkpt lat="43.67197" lon="3.80501">
        <ele>120</ele>
        <time>2021-01-03T13:16:55Z</time>
      </trkpt>
      <trkpt lat="43.67196" lon="3.80498">
        <ele>117.1</ele>
        <time>2021-01-03T13:16:56Z</time>
      </trkpt>
      <trkpt lat="43.67194" lon="3.80494">
        <ele>117.2</ele>
        <time>2021-01-03T13:16:57Z</time>
      </trkpt>
      <trkpt lat="43.67193" lon="3.80491">
        <ele>117.3</ele>
        <time>2021-01-03T13:16:58Z</time>
      </trkpt>
      <trkpt lat="43.67192" lon="3.80488">
        <ele>117.3</ele>
        <time>2021-01-03T13:16:59Z</time>
      </trkpt>
      <trkpt lat="43.67191" lon="3.80485">
        <ele>117.3</ele>
        <time>2021-01-03T13:17:00Z</time>
      </trkpt>
      <trkpt lat="43.67189" lon="3.80482">
        <ele>117.3</ele>
        <time>2021-01-03T13:17:01Z</time>
      </trkpt>
      <trkpt lat="43.67187" lon="3.8048">
        <ele>117.3</ele>
        <time>2021-01-03T13:17:02Z</time>
      </trkpt>
      <trkpt lat="43.67185" lon="3.80478">
        <ele>117.2</ele>
        <time>2021-01-03T13:17:03Z</time>
      </trkpt>
      <trkpt lat="43.67184" lon="3.80475">
        <ele>117.2</ele>
        <time>2021-01-03T13:17:04Z</time>
      </trkpt>
      <trkpt lat="43.67181" lon="3.80472">
        <ele>121</ele>
        <time>2021-01-03T13:17:05Z</time>
      </trkpt>
      <trkpt lat="43.67178" lon="3.8047">
        <ele>116.8</ele>
        <time>2021-01-03T13:17:06Z</time>
      </trkpt>
      <trkpt lat="43.67175" lon="3.80467">
        <ele>116.6</ele>
        <time>2021-01-03T13:17:07Z</time>
      </trkpt>
      <trkpt lat="43.67171" lon="3.80464">
        <ele>116.2</ele>
        <time>2021-01-03T13:17:08Z</time>
      </trkpt>
      <trkpt lat="43.67167" lon="3.80461">
        <ele>115.6</ele>
        <time>2021-01-03T13:17:09Z</time>
      </trkpt>
      <trkpt lat="43.67162" lon="3.80458">
        <ele>114.5</ele>
        <time>2021-01-03T13:17:10Z</time>
      </trkpt>
      <trkpt lat="43.67156" lon="3.80454">
        <ele>113.2</ele>
        <time>2021-01-03T13:17:11Z</time>
      </trkpt>
      <trkpt lat="43.67151" lon="3.80452">
        <ele>112.1</ele>
        <time>2021-01-03T13:17:12Z</time>
      </trkpt>
      <trkpt lat="43.67147" lon="3.80451">
        <ele>111.4</ele>
        <time>2021-01-03T13:17:13Z</time>
      </trkpt>
      <trkpt lat="43.67143" lon="3.80449">
        <ele>110.6</ele>
        <time>2021-01-03T13:17:14Z</time>
      </trkpt>
      <trkpt lat="43.67139" lon="3.80448">
        <ele>118</ele>
        <time>2021-01-03T13:17:15Z</time>
      </trkpt>
      <trkpt lat="43.67134" lon="3.80446">
        <ele>109.1</ele>
        <time>2021-01-03T13:17:16Z</time>
      </trkpt>
      <trkpt lat="43.6713" lon="3.80443">
        <ele>108.3</ele>
        <time>2021-01-03T13:17:17Z</time>
      </trkpt>
      <trkpt lat="43.67126" lon="3.8044">
        <ele>107.4</ele>
        <time>2021-01-03T13:17:18Z</time>
      </trkpt>
      <trkpt lat="43.67122" lon="3.80438">
        <ele>106.5</ele>
        <time>2021-01-03T13:17:19Z</time>
      </trkpt>
      <trkpt lat="43.67119" lon="3.80435">
        <ele>105.7</ele>
        <time>2021-01-03T13:17:20Z</time>
      </trkpt>
      <trkpt lat="43.67117" lon="3.80433">
        <ele>105.2</ele>
        <time>2021-01-03T13:17:21Z</time>
      </trkpt>
      <trkpt lat="43.67114" lon="3.8043">
        <ele>104.5</ele>
        <time>2021-01-03T13:17:22Z</time>
      </trkpt>
      <trkpt lat="43.67111" lon="3.80427">
        <ele>103.7</ele>
        <time>2021-01-03T13:17:23Z</time>
      </trkpt>
      <trkpt lat="43.67108" lon="3.80424">
        <ele>103.1</ele>
        <time>2021-01-03T13:17:24Z</time>
      </trkpt>
      <trkpt lat="43.67105" lon="3.8042">
        <ele>117</ele>
        <time>2021-01-03T13:17:25Z</time>
      </trkpt>
      <trkpt lat="43.67102" lon="3.80415">
        <ele>101.6</ele>
        <time>2021-01-03T13:17:26Z</time>
      </trkpt>
      <trkpt lat="43.671" lon="3.8041">
        <ele>101.1</ele>
        <time>2021-01-03T13:17:27Z</time>
      </trkpt>
      <trkpt lat="43.67096" lon="3.80404">
        <ele>100.1</ele>
        <time>2021-01-03T13:17:28Z</time>
      </trkpt>
      <trkpt lat="43.67092" lon="3.80399">
        <ele>99.2</ele>
        <time>2021-01-03T13:17:29Z</time>
      </trkpt>
      <trkpt lat="43.67088" lon="3.80395">
        <ele>98.2</ele>
        <time>2021-01-03T13:17:30Z</time>
      </trkpt>
      <trkpt lat="43.67085" lon="3.80393">
        <ele>97.6</ele>
        <time>2021-01-03T13:17:31Z</time>
      </trkpt>
      <trkpt lat="43.67081" lon="3.80393">
        <ele>97.2</ele>
        <time>2021-01-03T13:17:32Z</time>
      </trkpt>
      <trkpt lat="43.67078" lon="3.80395">
        <ele>97.2</ele>
        <time>2021-01-03T13:17:33Z</time>
      </trkpt>
      <trkpt lat="43.67075" lon="3.80398">
        <ele>97.3</ele>
        <time>2021-01-03T13:17:34Z</time>
      </trkpt>
      <trkpt lat="43.67072" lon="3.80402">
        <ele>113</ele>
        <time>2021-01-03T13:17:35Z</time>
      </trkpt>
      <trkpt lat="43.67068" lon="3.80404">
        <ele>97.2</ele>
        <time>2021-01-03T13:17:36Z</time>
      </trkpt>
      <trkpt lat="43.67065" lon="3.80407">
        <ele>97.2</ele>
        <time>2021-01-03T13:17:37Z</time>
      </trkpt>
      <trkpt lat="43.6706" lon="3.8041">
        <ele>97</ele>
        <time>2021-01-03T13:17:38Z</time>
      </trkpt>
      <trkpt lat="43.67056" lon="3.80413">
        <ele>96.9</ele>
        <time>2021-01-03T13:17:39Z</time>
      </trkpt>
      <trkpt lat="43.67052" lon="3.80416">
        <ele>97.2</ele>
        <time>2021-01-03T13:17:40Z</time>
      </trkpt>
      <trkpt lat="43.67049" lon="3.80419">
        <ele>97.7</ele>
        <time>2021-01-03T13:17:41Z</time>
      </trkpt>
      <trkpt lat="43.67046" lon="3.8042">
        <ele>98</ele>
        <time>2021-01-03T13:17:42Z</time>
      </trkpt>
      <trkpt lat="43.67043" lon="3.80421">
        <ele>98.2</ele>
        <time>2021-01-03T13:17:43Z</time>
      </trkpt>
      <trkpt lat="43.6704" lon="3.80422">
        <ele>98.5</ele>
        <time>2021-01-03T13:17:44Z</time>
      </trkpt>
      <trkpt lat="43.67037" lon="3.80423">
        <ele>110</ele>
        <time>2021-01-03T13:17:45Z</time>
      </trkpt>
      <trkpt lat="43.67035" lon="3.80424">
        <ele>98.8</ele>
        <time>2021-01-03T13:17:46Z</time>
      </trkpt>
      <trkpt lat="43.67033" lon="3.80424">
        <ele>98.8</ele>
        <time>2021-01-03T13:17:48Z</time>
      </trkpt>
      <trkpt lat="43.67029" lon="3.80425">
        <ele>99</ele>
        <time>2021-01-03T13:17:50Z</time>
      </trkpt>
      <trkpt lat="43.67027" lon="3.80426">
        <ele>99.1</ele>
        <time>2021-01-03T13:17:51Z</time>
      </trkpt>
      <trkpt lat="43.67024" lon="3.80429">
        <ele>99.3</ele>
        <time>2021-01-03T13:17:53Z</time>
      </trkpt>
      <trkpt lat="43.67023" lon="3.80431">
        <ele>99.4</ele>
        <time>2021-01-03T13:17:54Z</time>
      </trkpt>
      <trkpt lat="43.67021" lon="3.80434">
        <ele>99.6</ele>
        <time>2021-01-03T13:17:56Z</time>
      </trkpt>
      <trkpt lat="43.67019" lon="3.80436">
        <ele>99.7</ele>
        <time>2021-01-03T13:17:57Z</time>
      </trkpt>
      <trkpt lat="43.67018" lon="3.80438">
        <ele>99.8</ele>
        <time>2021-01-03T13:17:58Z</time>
      </trkpt>
      <trkpt lat="43.67017" lon="3.8044">
        <ele>99.8</ele>
        <time>2021-01-03T13:17:59Z</time>
      </trkpt>
      <trkpt lat="43.67015" lon="3.80443">
        <ele>99.9</ele>
        <time>2021-01-03T13:18:01Z</time>
      </trkpt>
      <trkpt lat="43.67014" lon="3.80446">
        <ele>100.1</ele>
        <time>2021-01-03T13:18:03Z</time>
      </trkpt>
      <trkpt lat="43.67013" lon="3.80448">
        <ele>100.3</ele>
        <time>2021-01-03T13:18:05Z</time>
      </trkpt>
      <trkpt lat="43.6701" lon="3.80449">
        <ele>100.5</ele>
        <time>2021-01-03T13:18:07Z</time>
      </trkpt>
      <trkpt lat="43.67008" lon="3.80448">
        <ele>100.6</ele>
        <time>2021-01-03T13:18:08Z</time>
      </trkpt>
      <trkpt lat="43.67006" lon="3.80445">
        <ele>100.6</ele>
        <time>2021-01-03T13:18:10Z</time>
      </trkpt>
      <trkpt lat="43.67004" lon="3.80442">
        <ele>100.8</ele>
        <time>2021-01-03T13:18:12Z</time>
      </trkpt>
      <trkpt lat="43.67001" lon="3.8044">
        <ele>108</ele>
        <time>2021-01-03T13:18:15Z</time>
      </trkpt>
      <trkpt lat="43.66999" lon="3.80438">
        <ele>101.4</ele>
        <time>2021-01-03T13:18:17Z</time>
      </trkpt>
      <trkpt lat="43.66996" lon="3.80438">
        <ele>101.9</ele>
        <time>2021-01-03T13:18:19Z</time>
      </trkpt>
      <trkpt lat="43.66994" lon="3.80437">
        <ele>102.3</ele>
        <time>2021-01-03T13:18:21Z</time>
      </trkpt>
      <trkpt lat="43.66992" lon="3.80437">
        <ele>102.6</ele>
        <time>2021-01-03T13:18:23Z</time>
      </trkpt>
      <trkpt lat="43.66989" lon="3.80437">
        <ele>108</ele>
        <time>2021-01-03T13:18:25Z</time>
      </trkpt>
      <trkpt lat="43.66987" lon="3.80439">
        <ele>103.4</ele>
        <time>2021-01-03T13:18:30Z</time>
      </trkpt>
      <trkpt lat="43.66985" lon="3.8044">
        <ele>103.8</ele>
        <time>2021-01-03T13:18:33Z</time>
      </trkpt>
      <trkpt lat="43.66983" lon="3.80441">
        <ele>109</ele>
        <time>2021-01-03T13:18:35Z</time>
      </trkpt>
      <trkpt lat="43.66981" lon="3.80442">
        <ele>104.4</ele>
        <time>2021-01-03T13:18:37Z</time>
      </trkpt>
      <trkpt lat="43.66976" lon="3.80442">
        <ele>110</ele>
        <time>2021-01-03T13:18:48Z</time>
      </trkpt>
      <trkpt lat="43.66974" lon="3.80442">
        <ele>105.7</ele>
        <time>2021-01-03T13:18:51Z</time>
      </trkpt>
      <trkpt lat="43.66972" lon="3.80442">
        <ele>106.1</ele>
        <time>2021-01-03T13:18:54Z</time>
      </trkpt>
      <trkpt lat="43.6697" lon="3.80443">
        <ele>112</ele>
        <time>2021-01-03T13:18:58Z</time>
      </trkpt>
      <trkpt lat="43.66968" lon="3.80443">
        <ele>107.2</ele>
        <time>2021-01-03T13:19:03Z</time>
      </trkpt>
      <trkpt lat="43.66957" lon="3.80433">
        <ele>116</ele>
        <time>2021-01-03T13:20:03Z</time>
      </trkpt>
      <trkpt lat="43.66956" lon="3.80432">
        <ele>116</ele>
        <time>2021-01-03T13:20:08Z</time>
      </trkpt>
      <trkpt lat="43.66952" lon="3.80426">
        <ele>116</ele>
        <time>2021-01-03T13:20:13Z</time>
      </trkpt>
      <trkpt lat="43.66949" lon="3.80425">
        <ele>112.7</ele>
        <time>2021-01-03T13:20:15Z</time>
      </trkpt>
      <trkpt lat="43.66947" lon="3.80423">
        <ele>113.3</ele>
        <time>2021-01-03T13:20:17Z</time>
      </trkpt>
      <trkpt lat="43.66945" lon="3.80421">
        <ele>113.8</ele>
        <time>2021-01-03T13:20:21Z</time>
      </trkpt>
      <trkpt lat="43.66944" lon="3.80418">
        <ele>114.1</ele>
        <time>2021-01-03T13:20:24Z</time>
      </trkpt>
      <trkpt lat="43.66942" lon="3.80416">
        <ele>114.6</ele>
        <time>2021-01-03T13:20:28Z</time>
      </trkpt>
      <trkpt lat="43.66941" lon="3.80414">
        <ele>114.8</ele>
        <time>2021-01-03T13:20:31Z</time>
      </trkpt>
      <trkpt lat="43.66939" lon="3.80413">
        <ele>115.3</ele>
        <time>2021-01-03T13:20:34Z</time>
      </trkpt>
      <trkpt lat="43.66937" lon="3.80412">
        <ele>115.8</ele>
        <time>2021-01-03T13:20:37Z</time>
      </trkpt>
      <trkpt lat="43.66935" lon="3.80411">
        <ele>116.2</ele>
        <time>2021-01-03T13:20:40Z</time>
      </trkpt>
      <trkpt lat="43.66934" lon="3.80411">
        <ele>123</ele>
        <time>2021-01-03T13:20:48Z</time>
      </trkpt>
      <trkpt lat="43.66931" lon="3.80402">
        <ele>125</ele>
        <time>2021-01-03T13:22:09Z</time>
      </trkpt>
      <trkpt lat="43.66934" lon="3.80403">
        <ele>116.3</ele>
        <time>2021-01-03T13:22:11Z</time>
      </trkpt>
      <trkpt lat="43.66933" lon="3.80406">
        <ele>116.7</ele>
        <time>2021-01-03T13:22:13Z</time>
      </trkpt>
      <trkpt lat="43.66933" lon="3.80407">
        <ele>126</ele>
        <time>2021-01-03T13:22:20Z</time>
      </trkpt>
      <trkpt lat="43.66939" lon="3.8042">
        <ele>128</ele>
        <time>2021-01-03T13:23:23Z</time>
      </trkpt>
      <trkpt lat="43.6694" lon="3.80424">
        <ele>115</ele>
        <time>2021-01-03T13:23:24Z</time>
      </trkpt>
      <trkpt lat="43.66941" lon="3.80428">
        <ele>114.7</ele>
        <time>2021-01-03T13:23:25Z</time>
      </trkpt>
      <trkpt lat="43.66943" lon="3.80432">
        <ele>114.3</ele>
        <time>2021-01-03T13:23:26Z</time>
      </trkpt>
      <trkpt lat="43.66945" lon="3.80436">
        <ele>113.8</ele>
        <time>2021-01-03T13:23:27Z</time>
      </trkpt>
      <trkpt lat="43.66946" lon="3.80441">
        <ele>113.6</ele>
        <time>2021-01-03T13:23:28Z</time>
      </trkpt>
      <trkpt lat="43.66948" lon="3.80445">
        <ele>112.9</ele>
        <time>2021-01-03T13:23:29Z</time>
      </trkpt>
      <trkpt lat="43.66948" lon="3.8045">
        <ele>112.7</ele>
        <time>2021-01-03T13:23:30Z</time>
      </trkpt>
      <trkpt lat="43.66948" lon="3.80455">
        <ele>112.4</ele>
        <time>2021-01-03T13:23:31Z</time>
      </trkpt>
      <trkpt lat="43.66949" lon="3.8046">
        <ele>124</ele>
        <time>2021-01-03T13:23:32Z</time>
      </trkpt>
      <trkpt lat="43.66948" lon="3.80466">
        <ele>111.7</ele>
        <time>2021-01-03T13:23:33Z</time>
      </trkpt>
      <trkpt lat="43.66946" lon="3.80472">
        <ele>111.7</ele>
        <time>2021-01-03T13:23:34Z</time>
      </trkpt>
      <trkpt lat="43.66943" lon="3.80476">
        <ele>111.9</ele>
        <time>2021-01-03T13:23:35Z</time>
      </trkpt>
      <trkpt lat="43.66941" lon="3.8048">
        <ele>111.9</ele>
        <time>2021-01-03T13:23:36Z</time>
      </trkpt>
      <trkpt lat="43.66939" lon="3.80484">
        <ele>111.8</ele>
        <time>2021-01-03T13:23:37Z</time>
      </trkpt>
      <trkpt lat="43.66937" lon="3.80488">
        <ele>111.6</ele>
        <time>2021-01-03T13:23:38Z</time>
      </trkpt>
      <trkpt lat="43.66935" lon="3.80492">
        <ele>111.5</ele>
        <time>2021-01-03T13:23:39Z</time>
      </trkpt>
      <trkpt lat="43.66933" lon="3.80496">
        <ele>111.2</ele>
        <time>2021-01-03T13:23:40Z</time>
      </trkpt>
      <trkpt lat="43.66931" lon="3.80499">
        <ele>111.1</ele>
        <time>2021-01-03T13:23:41Z</time>
      </trkpt>
      <trkpt lat="43.6693" lon="3.80502">
        <ele>111</ele>
        <time>2021-01-03T13:23:42Z</time>
      </trkpt>
      <trkpt lat="43.66929" lon="3.80504">
        <ele>122</ele>
        <time>2021-01-03T13:23:43Z</time>
      </trkpt>
      <trkpt lat="43.66927" lon="3.80508">
        <ele>111.1</ele>
        <time>2021-01-03T13:23:45Z</time>
      </trkpt>
      <trkpt lat="43.66924" lon="3.80511">
        <ele>111.4</ele>
        <time>2021-01-03T13:23:47Z</time>
      </trkpt>
      <trkpt lat="43.66923" lon="3.80513">
        <ele>111.4</ele>
        <time>2021-01-03T13:23:49Z</time>
      </trkpt>
      <trkpt lat="43.66922" lon="3.80516">
        <ele>111.5</ele>
        <time>2021-01-03T13:23:51Z</time>
      </trkpt>
      <trkpt lat="43.66924" lon="3.80518">
        <ele>111.3</ele>
        <time>2021-01-03T13:23:54Z</time>
      </trkpt>
      <trkpt lat="43.66926" lon="3.80516">
        <ele>111.1</ele>
        <time>2021-01-03T13:23:56Z</time>
      </trkpt>
      <trkpt lat="43.66927" lon="3.80514">
        <ele>111.1</ele>
        <time>2021-01-03T13:23:57Z</time>
      </trkpt>
      <trkpt lat="43.66927" lon="3.80511">
        <ele>111.1</ele>
        <time>2021-01-03T13:23:58Z</time>
      </trkpt>
      <trkpt lat="43.66928" lon="3.80508">
        <ele>111.1</ele>
        <time>2021-01-03T13:23:59Z</time>
      </trkpt>
      <trkpt lat="43.66928" lon="3.80505">
        <ele>111.1</ele>
        <time>2021-01-03T13:24:00Z</time>
      </trkpt>
      <trkpt lat="43.66929" lon="3.80503">
        <ele>111.1</ele>
        <time>2021-01-03T13:24:01Z</time>
      </trkpt>
      <trkpt lat="43.6693" lon="3.805">
        <ele>119</ele>
        <time>2021-01-03T13:24:02Z</time>
      </trkpt>
      <trkpt lat="43.66932" lon="3.80497">
        <ele>111.2</ele>
        <time>2021-01-03T13:24:03Z</time>
      </trkpt>
      <trkpt lat="43.66933" lon="3.80495">
        <ele>111.3</ele>
        <time>2021-01-03T13:24:04Z</time>
      </trkpt>
      <trkpt lat="43.66934" lon="3.80492">
        <ele>111.5</ele>
        <time>2021-01-03T13:24:05Z</time>
      </trkpt>
      <trkpt lat="43.66936" lon="3.80489">
        <ele>111.6</ele>
        <time>2021-01-03T13:24:06Z</time>
      </trkpt>
      <trkpt lat="43.66937" lon="3.80487">
        <ele>111.7</ele>
        <time>2021-01-03T13:24:07Z</time>
      </trkpt>
      <trkpt lat="43.66938" lon="3.80484">
        <ele>111.9</ele>
        <time>2021-01-03T13:24:08Z</time>
      </trkpt>
      <trkpt lat="43.6694" lon="3.80482">
        <ele>111.8</ele>
        <time>2021-01-03T13:24:09Z</time>
      </trkpt>
      <trkpt lat="43.66941" lon="3.8048">
        <ele>111.9</ele>
        <time>2021-01-03T13:24:10Z</time>
      </trkpt>
      <trkpt lat="43.66942" lon="3.80477">
        <ele>112</ele>
        <time>2021-01-03T13:24:11Z</time>
      </trkpt>
      <trkpt lat="43.66943" lon="3.80475">
        <ele>119</ele>
        <time>2021-01-03T13:24:12Z</time>
      </trkpt>
      <trkpt lat="43.66945" lon="3.80472">
        <ele>111.9</ele>
        <time>2021-01-03T13:24:13Z</time>
      </trkpt>
      <trkpt lat="43.66945" lon="3.8047">
        <ele>112.1</ele>
        <time>2021-01-03T13:24:14Z</time>
      </trkpt>
      <trkpt lat="43.66946" lon="3.80468">
        <ele>112</ele>
        <time>2021-01-03T13:24:15Z</time>
      </trkpt>
      <trkpt lat="43.66947" lon="3.80466">
        <ele>111.9</ele>
        <time>2021-01-03T13:24:16Z</time>
      </trkpt>
      <trkpt lat="43.66948" lon="3.80463">
        <ele>111.9</ele>
        <time>2021-01-03T13:24:17Z</time>
      </trkpt>
      <trkpt lat="43.66949" lon="3.80459">
        <ele>111.9</ele>
        <time>2021-01-03T13:24:19Z</time>
      </trkpt>
      <trkpt lat="43.66949" lon="3.80454">
        <ele>112.2</ele>
        <time>2021-01-03T13:24:21Z</time>
      </trkpt>
      <trkpt lat="43.66948" lon="3.80452">
        <ele>119</ele>
        <time>2021-01-03T13:24:22Z</time>
      </trkpt>
      <trkpt lat="43.66948" lon="3.80447">
        <ele>112.8</ele>
        <time>2021-01-03T13:24:24Z</time>
      </trkpt>
      <trkpt lat="43.66947" lon="3.80443">
        <ele>113.3</ele>
        <time>2021-01-03T13:24:26Z</time>
      </trkpt>
      <trkpt lat="43.66945" lon="3.80439">
        <ele>113.8</ele>
        <time>2021-01-03T13:24:28Z</time>
      </trkpt>
      <trkpt lat="43.66944" lon="3.80435">
        <ele>114.1</ele>
        <time>2021-01-03T13:24:30Z</time>
      </trkpt>
      <trkpt lat="43.66942" lon="3.80432">
        <ele>120</ele>
        <time>2021-01-03T13:24:32Z</time>
      </trkpt>
      <trkpt lat="43.6694" lon="3.80429">
        <ele>114.9</ele>
        <time>2021-01-03T13:24:34Z</time>
      </trkpt>
      <trkpt lat="43.66939" lon="3.80425">
        <ele>115.2</ele>
        <time>2021-01-03T13:24:36Z</time>
      </trkpt>
      <trkpt lat="43.66937" lon="3.80422">
        <ele>115.7</ele>
        <time>2021-01-03T13:24:38Z</time>
      </trkpt>
      <trkpt lat="43.66936" lon="3.80418">
        <ele>116.1</ele>
        <time>2021-01-03T13:24:40Z</time>
      </trkpt>
      <trkpt lat="43.66934" lon="3.80413">
        <ele>120</ele>
        <time>2021-01-03T13:24:42Z</time>
      </trkpt>
      <trkpt lat="43.66934" lon="3.8041">
        <ele>116.5</ele>
        <time>2021-01-03T13:24:43Z</time>
      </trkpt>
      <trkpt lat="43.66933" lon="3.80408">
        <ele>116.7</ele>
        <time>2021-01-03T13:24:44Z</time>
      </trkpt>
      <trkpt lat="43.66933" lon="3.80405">
        <ele>116.6</ele>
        <time>2021-01-03T13:24:45Z</time>
      </trkpt>
      <trkpt lat="43.66933" lon="3.80402">
        <ele>116.6</ele>
        <time>2021-01-03T13:24:46Z</time>
      </trkpt>
      <trkpt lat="43.66933" lon="3.804">
        <ele>116.5</ele>
        <time>2021-01-03T13:24:47Z</time>
      </trkpt>
      <trkpt lat="43.66933" lon="3.80397">
        <ele>116.5</ele>
        <time>2021-01-03T13:24:48Z</time>
      </trkpt>
      <trkpt lat="43.66933" lon="3.80394">
        <ele>116.4</ele>
        <time>2021-01-03T13:24:49Z</time>
      </trkpt>
      <trkpt lat="43.66933" lon="3.80392">
        <ele>116.4</ele>
        <time>2021-01-03T13:24:50Z</time>
      </trkpt>
      <trkpt lat="43.66933" lon="3.80389">
        <ele>116.3</ele>
        <time>2021-01-03T13:24:51Z</time>
      </trkpt>
      <trkpt lat="43.66933" lon="3.80386">
        <ele>122</ele>
        <time>2021-01-03T13:24:52Z</time>
      </trkpt>
      <trkpt lat="43.66933" lon="3.80383">
        <ele>117.1</ele>
        <time>2021-01-03T13:24:53Z</time>
      </trkpt>
      <trkpt lat="43.66933" lon="3.8038">
        <ele>117.5</ele>
        <time>2021-01-03T13:24:54Z</time>
      </trkpt>
      <trkpt lat="43.66934" lon="3.80377">
        <ele>117.7</ele>
        <time>2021-01-03T13:24:55Z</time>
      </trkpt>
      <trkpt lat="43.66934" lon="3.80374">
        <ele>118.1</ele>
        <time>2021-01-03T13:24:56Z</time>
      </trkpt>
      <trkpt lat="43.66935" lon="3.80371">
        <ele>118.3</ele>
        <time>2021-01-03T13:24:57Z</time>
      </trkpt>
      <trkpt lat="43.66935" lon="3.80368">
        <ele>118.7</ele>
        <time>2021-01-03T13:24:58Z</time>
      </trkpt>
      <trkpt lat="43.66936" lon="3.80365">
        <ele>118.9</ele>
        <time>2021-01-03T13:24:59Z</time>
      </trkpt>
      <trkpt lat="43.66937" lon="3.80363">
        <ele>119.1</ele>
        <time>2021-01-03T13:25:00Z</time>
      </trkpt>
      <trkpt lat="43.66939" lon="3.80361">
        <ele>119</ele>
        <time>2021-01-03T13:25:01Z</time>
      </trkpt>
      <trkpt lat="43.6694" lon="3.80359">
        <ele>123</ele>
        <time>2021-01-03T13:25:02Z</time>
      </trkpt>
      <trkpt lat="43.66941" lon="3.80357">
        <ele>119.5</ele>
        <time>2021-01-03T13:25:03Z</time>
      </trkpt>
      <trkpt lat="43.66943" lon="3.80355">
        <ele>119.5</ele>
        <time>2021-01-03T13:25:04Z</time>
      </trkpt>
      <trkpt lat="43.66944" lon="3.80354">
        <ele>119.6</ele>
        <time>2021-01-03T13:25:05Z</time>
      </trkpt>
      <trkpt lat="43.66946" lon="3.80352">
        <ele>119.7</ele>
        <time>2021-01-03T13:25:06Z</time>
      </trkpt>
      <trkpt lat="43.66948" lon="3.80351">
        <ele>119.7</ele>
        <time>2021-01-03T13:25:07Z</time>
      </trkpt>
      <trkpt lat="43.66949" lon="3.80349">
        <ele>120</ele>
        <time>2021-01-03T13:25:08Z</time>
      </trkpt>
      <trkpt lat="43.66951" lon="3.80348">
        <ele>119.9</ele>
        <time>2021-01-03T13:25:09Z</time>
      </trkpt>
      <trkpt lat="43.66953" lon="3.80346">
        <ele>120</ele>
        <time>2021-01-03T13:25:10Z</time>
      </trkpt>
      <trkpt lat="43.66955" lon="3.80345">
        <ele>120</ele>
        <time>2021-01-03T13:25:11Z</time>
      </trkpt>
      <trkpt lat="43.66957" lon="3.80344">
        <ele>123</ele>
        <time>2021-01-03T13:25:12Z</time>
      </trkpt>
      <trkpt lat="43.66959" lon="3.80343">
        <ele>119.8</ele>
        <time>2021-01-03T13:25:13Z</time>
      </trkpt>
      <trkpt lat="43.66961" lon="3.80342">
        <ele>119.7</ele>
        <time>2021-01-03T13:25:14Z</time>
      </trkpt>
      <trkpt lat="43.66963" lon="3.80341">
        <ele>119.7</ele>
        <time>2021-01-03T13:25:15Z</time>
      </trkpt>
      <trkpt lat="43.66965" lon="3.8034">
        <ele>119.6</ele>
        <time>2021-01-03T13:25:16Z</time>
      </trkpt>
      <trkpt lat="43.66967" lon="3.8034">
        <ele>119.3</ele>
        <time>2021-01-03T13:25:17Z</time>
      </trkpt>
      <trkpt lat="43.66969" lon="3.80339">
        <ele>119.2</ele>
        <time>2021-01-03T13:25:18Z</time>
      </trkpt>
      <trkpt lat="43.66972" lon="3.80337">
        <ele>119.2</ele>
        <time>2021-01-03T13:25:20Z</time>
      </trkpt>
      <trkpt lat="43.66975" lon="3.80334">
        <ele>125</ele>
        <time>2021-01-03T13:25:22Z</time>
      </trkpt>
      <trkpt lat="43.66978" lon="3.8033">
        <ele>119.1</ele>
        <time>2021-01-03T13:25:24Z</time>
      </trkpt>
      <trkpt lat="43.66979" lon="3.80326">
        <ele>119</ele>
        <time>2021-01-03T13:25:26Z</time>
      </trkpt>
      <trkpt lat="43.6698" lon="3.80321">
        <ele>119</ele>
        <time>2021-01-03T13:25:28Z</time>
      </trkpt>
      <trkpt lat="43.6698" lon="3.80317">
        <ele>119.2</ele>
        <time>2021-01-03T13:25:30Z</time>
      </trkpt>
      <trkpt lat="43.6698" lon="3.80314">
        <ele>119.3</ele>
        <time>2021-01-03T13:25:31Z</time>
      </trkpt>
      <trkpt lat="43.66979" lon="3.80311">
        <ele>126</ele>
        <time>2021-01-03T13:25:32Z</time>
      </trkpt>
      <trkpt lat="43.66978" lon="3.80309">
        <ele>119.8</ele>
        <time>2021-01-03T13:25:33Z</time>
      </trkpt>
      <trkpt lat="43.66977" lon="3.80306">
        <ele>120.1</ele>
        <time>2021-01-03T13:25:34Z</time>
      </trkpt>
      <trkpt lat="43.66976" lon="3.80304">
        <ele>120.2</ele>
        <time>2021-01-03T13:25:35Z</time>
      </trkpt>
      <trkpt lat="43.66975" lon="3.80302">
        <ele>120.3</ele>
        <time>2021-01-03T13:25:36Z</time>
      </trkpt>
      <trkpt lat="43.66973" lon="3.803">
        <ele>120.5</ele>
        <time>2021-01-03T13:25:37Z</time>
      </trkpt>
      <trkpt lat="43.66972" lon="3.80298">
        <ele>120.5</ele>
        <time>2021-01-03T13:25:38Z</time>
      </trkpt>
      <trkpt lat="43.6697" lon="3.80296">
        <ele>120.7</ele>
        <time>2021-01-03T13:25:39Z</time>
      </trkpt>
      <trkpt lat="43.66969" lon="3.80294">
        <ele>120.7</ele>
        <time>2021-01-03T13:25:40Z</time>
      </trkpt>
      <trkpt lat="43.66967" lon="3.80292">
        <ele>120.9</ele>
        <time>2021-01-03T13:25:41Z</time>
      </trkpt>
      <trkpt lat="43.66966" lon="3.8029">
        <ele>126</ele>
        <time>2021-01-03T13:25:42Z</time>
      </trkpt>
      <trkpt lat="43.66964" lon="3.80288">
        <ele>121</ele>
        <time>2021-01-03T13:25:43Z</time>
      </trkpt>
      <trkpt lat="43.66962" lon="3.80286">
        <ele>121.2</ele>
        <time>2021-01-03T13:25:44Z</time>
      </trkpt>
      <trkpt lat="43.6696" lon="3.80284">
        <ele>121.3</ele>
        <time>2021-01-03T13:25:45Z</time>
      </trkpt>
      <trkpt lat="43.66959" lon="3.80283">
        <ele>121.4</ele>
        <time>2021-01-03T13:25:46Z</time>
      </trkpt>
      <trkpt lat="43.66957" lon="3.80281">
        <ele>121.5</ele>
        <time>2021-01-03T13:25:47Z</time>
      </trkpt>
      <trkpt lat="43.66955" lon="3.8028">
        <ele>121.7</ele>
        <time>2021-01-03T13:25:48Z</time>
      </trkpt>
      <trkpt lat="43.66954" lon="3.80278">
        <ele>121.6</ele>
        <time>2021-01-03T13:25:49Z</time>
      </trkpt>
      <trkpt lat="43.66952" lon="3.80276">
        <ele>121.7</ele>
        <time>2021-01-03T13:25:50Z</time>
      </trkpt>
      <trkpt lat="43.6695" lon="3.80275">
        <ele>121.9</ele>
        <time>2021-01-03T13:25:51Z</time>
      </trkpt>
      <trkpt lat="43.66949" lon="3.80273">
        <ele>127</ele>
        <time>2021-01-03T13:25:52Z</time>
      </trkpt>
      <trkpt lat="43.66947" lon="3.80272">
        <ele>122</ele>
        <time>2021-01-03T13:25:53Z</time>
      </trkpt>
      <trkpt lat="43.66945" lon="3.80271">
        <ele>122.2</ele>
        <time>2021-01-03T13:25:54Z</time>
      </trkpt>
      <trkpt lat="43.66942" lon="3.8027">
        <ele>122.5</ele>
        <time>2021-01-03T13:25:56Z</time>
      </trkpt>
      <trkpt lat="43.6694" lon="3.80269">
        <ele>122.6</ele>
        <time>2021-01-03T13:25:57Z</time>
      </trkpt>
      <trkpt lat="43.66937" lon="3.80268">
        <ele>122.9</ele>
        <time>2021-01-03T13:25:59Z</time>
      </trkpt>
      <trkpt lat="43.66935" lon="3.80266">
        <ele>122.9</ele>
        <time>2021-01-03T13:26:00Z</time>
      </trkpt>
      <trkpt lat="43.66932" lon="3.80265">
        <ele>128</ele>
        <time>2021-01-03T13:26:02Z</time>
      </trkpt>
      <trkpt lat="43.6693" lon="3.80263">
        <ele>123.2</ele>
        <time>2021-01-03T13:26:03Z</time>
      </trkpt>
      <trkpt lat="43.66927" lon="3.80262">
        <ele>123.5</ele>
        <time>2021-01-03T13:26:05Z</time>
      </trkpt>
      <trkpt lat="43.66923" lon="3.80261">
        <ele>123.8</ele>
        <time>2021-01-03T13:26:08Z</time>
      </trkpt>
      <trkpt lat="43.6692" lon="3.8026">
        <ele>124</ele>
        <time>2021-01-03T13:26:10Z</time>
      </trkpt>
      <trkpt lat="43.66916" lon="3.80259">
        <ele>124.4</ele>
        <time>2021-01-03T13:26:11Z</time>
      </trkpt>
      <trkpt lat="43.66914" lon="3.80258">
        <ele>130</ele>
        <time>2021-01-03T13:26:13Z</time>
      </trkpt>
      <trkpt lat="43.66912" lon="3.80257">
        <ele>124.5</ele>
        <time>2021-01-03T13:26:14Z</time>
      </trkpt>
      <trkpt lat="43.66909" lon="3.80256">
        <ele>124.7</ele>
        <time>2021-01-03T13:26:15Z</time>
      </trkpt>
      <trkpt lat="43.66906" lon="3.80255">
        <ele>124.9</ele>
        <time>2021-01-03T13:26:17Z</time>
      </trkpt>
      <trkpt lat="43.66904" lon="3.80254">
        <ele>124.9</ele>
        <time>2021-01-03T13:26:18Z</time>
      </trkpt>
      <trkpt lat="43.66903" lon="3.80253">
        <ele>124.9</ele>
        <time>2021-01-03T13:26:19Z</time>
      </trkpt>
      <trkpt lat="43.66901" lon="3.80252">
        <ele>125</ele>
        <time>2021-01-03T13:26:20Z</time>
      </trkpt>
      <trkpt lat="43.66899" lon="3.80252">
        <ele>125.2</ele>
        <time>2021-01-03T13:26:21Z</time>
      </trkpt>
      <trkpt lat="43.66895" lon="3.8025">
        <ele>125.3</ele>
        <time>2021-01-03T13:26:23Z</time>
      </trkpt>
      <trkpt lat="43.66893" lon="3.8025">
        <ele>125.6</ele>
        <time>2021-01-03T13:26:24Z</time>
      </trkpt>
      <trkpt lat="43.66891" lon="3.80249">
        <ele>125.6</ele>
        <time>2021-01-03T13:26:25Z</time>
      </trkpt>
      <trkpt lat="43.66889" lon="3.80248">
        <ele>125.6</ele>
        <time>2021-01-03T13:26:26Z</time>
      </trkpt>
      <trkpt lat="43.66887" lon="3.80248">
        <ele>125.6</ele>
        <time>2021-01-03T13:26:27Z</time>
      </trkpt>
      <trkpt lat="43.66884" lon="3.80248">
        <ele>125.7</ele>
        <time>2021-01-03T13:26:29Z</time>
      </trkpt>
      <trkpt lat="43.66882" lon="3.80247">
        <ele>125.6</ele>
        <time>2021-01-03T13:26:30Z</time>
      </trkpt>
      <trkpt lat="43.6688" lon="3.80247">
        <ele>125.7</ele>
        <time>2021-01-03T13:26:31Z</time>
      </trkpt>
      <trkpt lat="43.66877" lon="3.80246">
        <ele>125.6</ele>
        <time>2021-01-03T13:26:33Z</time>
      </trkpt>
      <trkpt lat="43.66875" lon="3.80246">
        <ele>125.6</ele>
        <time>2021-01-03T13:26:34Z</time>
      </trkpt>
      <trkpt lat="43.66873" lon="3.80246">
        <ele>125.7</ele>
        <time>2021-01-03T13:26:35Z</time>
      </trkpt>
      <trkpt lat="43.66871" lon="3.80247">
        <ele>126</ele>
        <time>2021-01-03T13:26:36Z</time>
      </trkpt>
      <trkpt lat="43.66869" lon="3.80247">
        <ele>126.1</ele>
        <time>2021-01-03T13:26:37Z</time>
      </trkpt>
      <trkpt lat="43.66867" lon="3.80248">
        <ele>126.4</ele>
        <time>2021-01-03T13:26:38Z</time>
      </trkpt>
      <trkpt lat="43.66865" lon="3.80248">
        <ele>126.4</ele>
        <time>2021-01-03T13:26:39Z</time>
      </trkpt>
      <trkpt lat="43.66862" lon="3.80248">
        <ele>126.5</ele>
        <time>2021-01-03T13:26:40Z</time>
      </trkpt>
      <trkpt lat="43.6686" lon="3.80249">
        <ele>126.7</ele>
        <time>2021-01-03T13:26:41Z</time>
      </trkpt>
      <trkpt lat="43.66858" lon="3.80249">
        <ele>133</ele>
        <time>2021-01-03T13:26:42Z</time>
      </trkpt>
      <trkpt lat="43.66856" lon="3.80251">
        <ele>126.8</ele>
        <time>2021-01-03T13:26:43Z</time>
      </trkpt>
      <trkpt lat="43.66854" lon="3.80252">
        <ele>126.8</ele>
        <time>2021-01-03T13:26:44Z</time>
      </trkpt>
      <trkpt lat="43.66852" lon="3.80253">
        <ele>126.8</ele>
        <time>2021-01-03T13:26:45Z</time>
      </trkpt>
      <trkpt lat="43.6685" lon="3.80255">
        <ele>126.9</ele>
        <time>2021-01-03T13:26:46Z</time>
      </trkpt>
      <trkpt lat="43.66848" lon="3.80256">
        <ele>126.9</ele>
        <time>2021-01-03T13:26:47Z</time>
      </trkpt>
      <trkpt lat="43.66847" lon="3.80258">
        <ele>127.1</ele>
        <time>2021-01-03T13:26:48Z</time>
      </trkpt>
      <trkpt lat="43.66845" lon="3.8026">
        <ele>127.3</ele>
        <time>2021-01-03T13:26:49Z</time>
      </trkpt>
      <trkpt lat="43.66843" lon="3.80261">
        <ele>127.3</ele>
        <time>2021-01-03T13:26:50Z</time>
      </trkpt>
      <trkpt lat="43.66841" lon="3.80263">
        <ele>127.4</ele>
        <time>2021-01-03T13:26:51Z</time>
      </trkpt>
      <trkpt lat="43.66839" lon="3.80265">
        <ele>127.6</ele>
        <time>2021-01-03T13:26:52Z</time>
      </trkpt>
      <trkpt lat="43.66837" lon="3.80266">
        <ele>134</ele>
        <time>2021-01-03T13:26:53Z</time>
      </trkpt>
      <trkpt lat="43.66835" lon="3.80268">
        <ele>127.7</ele>
        <time>2021-01-03T13:26:54Z</time>
      </trkpt>
      <trkpt lat="43.66833" lon="3.80269">
        <ele>127.7</ele>
        <time>2021-01-03T13:26:55Z</time>
      </trkpt>
      <trkpt lat="43.66831" lon="3.8027">
        <ele>127.8</ele>
        <time>2021-01-03T13:26:56Z</time>
      </trkpt>
      <trkpt lat="43.6683" lon="3.80271">
        <ele>127.9</ele>
        <time>2021-01-03T13:26:57Z</time>
      </trkpt>
      <trkpt lat="43.66828" lon="3.80273">
        <ele>128.1</ele>
        <time>2021-01-03T13:26:58Z</time>
      </trkpt>
      <trkpt lat="43.66826" lon="3.80275">
        <ele>128.3</ele>
        <time>2021-01-03T13:26:59Z</time>
      </trkpt>
      <trkpt lat="43.66824" lon="3.80277">
        <ele>128.5</ele>
        <time>2021-01-03T13:27:00Z</time>
      </trkpt>
      <trkpt lat="43.6682" lon="3.80278">
        <ele>128.6</ele>
        <time>2021-01-03T13:27:01Z</time>
      </trkpt>
      <trkpt lat="43.66817" lon="3.80279">
        <ele>128.6</ele>
        <time>2021-01-03T13:27:03Z</time>
      </trkpt>
      <trkpt lat="43.66815" lon="3.8028">
        <ele>128.7</ele>
        <time>2021-01-03T13:27:04Z</time>
      </trkpt>
      <trkpt lat="43.66813" lon="3.8028">
        <ele>128.6</ele>
        <time>2021-01-03T13:27:05Z</time>
      </trkpt>
      <trkpt lat="43.66809" lon="3.8028">
        <ele>128.5</ele>
        <time>2021-01-03T13:27:06Z</time>
      </trkpt>
      <trkpt lat="43.66806" lon="3.8028">
        <ele>128.4</ele>
        <time>2021-01-03T13:27:07Z</time>
      </trkpt>
      <trkpt lat="43.66803" lon="3.8028">
        <ele>128.5</ele>
        <time>2021-01-03T13:27:08Z</time>
      </trkpt>
      <trkpt lat="43.668" lon="3.8028">
        <ele>128.6</ele>
        <time>2021-01-03T13:27:09Z</time>
      </trkpt>
      <trkpt lat="43.66798" lon="3.8028">
        <ele>128.7</ele>
        <time>2021-01-03T13:27:10Z</time>
      </trkpt>
      <trkpt lat="43.66796" lon="3.8028">
        <ele>128.7</ele>
        <time>2021-01-03T13:27:11Z</time>
      </trkpt>
      <trkpt lat="43.66794" lon="3.8028">
        <ele>138</ele>
        <time>2021-01-03T13:27:12Z</time>
      </trkpt>
      <trkpt lat="43.66791" lon="3.8028">
        <ele>128.9</ele>
        <time>2021-01-03T13:27:16Z</time>
      </trkpt>
      <trkpt lat="43.66789" lon="3.8028">
        <ele>129</ele>
        <time>2021-01-03T13:27:17Z</time>
      </trkpt>
      <trkpt lat="43.66787" lon="3.8028">
        <ele>129.1</ele>
        <time>2021-01-03T13:27:18Z</time>
      </trkpt>
      <trkpt lat="43.66782" lon="3.80279">
        <ele>139</ele>
        <time>2021-01-03T13:27:22Z</time>
      </trkpt>
      <trkpt lat="43.66779" lon="3.80278">
        <ele>129</ele>
        <time>2021-01-03T13:27:23Z</time>
      </trkpt>
      <trkpt lat="43.66776" lon="3.80278">
        <ele>129.2</ele>
        <time>2021-01-03T13:27:24Z</time>
      </trkpt>
      <trkpt lat="43.66773" lon="3.80278">
        <ele>129.4</ele>
        <time>2021-01-03T13:27:25Z</time>
      </trkpt>
      <trkpt lat="43.6677" lon="3.80278">
        <ele>129.6</ele>
        <time>2021-01-03T13:27:26Z</time>
      </trkpt>
      <trkpt lat="43.66767" lon="3.80277">
        <ele>129.6</ele>
        <time>2021-01-03T13:27:27Z</time>
      </trkpt>
      <trkpt lat="43.66765" lon="3.80277">
        <ele>129.8</ele>
        <time>2021-01-03T13:27:28Z</time>
      </trkpt>
      <trkpt lat="43.66762" lon="3.80277">
        <ele>130</ele>
        <time>2021-01-03T13:27:29Z</time>
      </trkpt>
      <trkpt lat="43.66759" lon="3.80276">
        <ele>130</ele>
        <time>2021-01-03T13:27:30Z</time>
      </trkpt>
      <trkpt lat="43.66757" lon="3.80276">
        <ele>130.2</ele>
        <time>2021-01-03T13:27:31Z</time>
      </trkpt>
      <trkpt lat="43.66755" lon="3.80275">
        <ele>140</ele>
        <time>2021-01-03T13:27:32Z</time>
      </trkpt>
      <trkpt lat="43.66753" lon="3.80275">
        <ele>130.3</ele>
        <time>2021-01-03T13:27:33Z</time>
      </trkpt>
      <trkpt lat="43.66751" lon="3.80275">
        <ele>130.4</ele>
        <time>2021-01-03T13:27:34Z</time>
      </trkpt>
      <trkpt lat="43.66748" lon="3.80275">
        <ele>130.6</ele>
        <time>2021-01-03T13:27:35Z</time>
      </trkpt>
      <trkpt lat="43.66746" lon="3.80275">
        <ele>130.6</ele>
        <time>2021-01-03T13:27:36Z</time>
      </trkpt>
      <trkpt lat="43.66744" lon="3.80275">
        <ele>130.7</ele>
        <time>2021-01-03T13:27:37Z</time>
      </trkpt>
      <trkpt lat="43.66741" lon="3.80275">
        <ele>130.8</ele>
        <time>2021-01-03T13:27:38Z</time>
      </trkpt>
      <trkpt lat="43.66739" lon="3.80275">
        <ele>130.9</ele>
        <time>2021-01-03T13:27:39Z</time>
      </trkpt>
      <trkpt lat="43.66738" lon="3.80275">
        <ele>130.9</ele>
        <time>2021-01-03T13:27:40Z</time>
      </trkpt>
      <trkpt lat="43.66736" lon="3.80276">
        <ele>131.2</ele>
        <time>2021-01-03T13:27:41Z</time>
      </trkpt>
      <trkpt lat="43.66734" lon="3.80276">
        <ele>141</ele>
        <time>2021-01-03T13:27:42Z</time>
      </trkpt>
      <trkpt lat="43.6673" lon="3.80277">
        <ele>131.6</ele>
        <time>2021-01-03T13:27:44Z</time>
      </trkpt>
      <trkpt lat="43.66727" lon="3.80278">
        <ele>131.9</ele>
        <time>2021-01-03T13:27:46Z</time>
      </trkpt>
      <trkpt lat="43.66724" lon="3.80279">
        <ele>132.1</ele>
        <time>2021-01-03T13:27:48Z</time>
      </trkpt>
      <trkpt lat="43.66722" lon="3.8028">
        <ele>132.3</ele>
        <time>2021-01-03T13:27:49Z</time>
      </trkpt>
      <trkpt lat="43.66719" lon="3.8028">
        <ele>132.3</ele>
        <time>2021-01-03T13:27:50Z</time>
      </trkpt>
      <trkpt lat="43.66716" lon="3.8028">
        <ele>132.3</ele>
        <time>2021-01-03T13:27:51Z</time>
      </trkpt>
      <trkpt lat="43.66714" lon="3.8028">
        <ele>132.3</ele>
        <time>2021-01-03T13:27:54Z</time>
      </trkpt>
      <trkpt lat="43.66711" lon="3.8028">
        <ele>132.3</ele>
        <time>2021-01-03T13:27:55Z</time>
      </trkpt>
      <trkpt lat="43.66708" lon="3.8028">
        <ele>132.3</ele>
        <time>2021-01-03T13:27:56Z</time>
      </trkpt>
      <trkpt lat="43.66706" lon="3.8028">
        <ele>132.3</ele>
        <time>2021-01-03T13:27:57Z</time>
      </trkpt>
      <trkpt lat="43.66704" lon="3.8028">
        <ele>132.3</ele>
        <time>2021-01-03T13:27:58Z</time>
      </trkpt>
      <trkpt lat="43.66702" lon="3.8028">
        <ele>132.3</ele>
        <time>2021-01-03T13:27:59Z</time>
      </trkpt>
      <trkpt lat="43.667" lon="3.80281">
        <ele>132.5</ele>
        <time>2021-01-03T13:28:00Z</time>
      </trkpt>
      <trkpt lat="43.66698" lon="3.80281">
        <ele>132.5</ele>
        <time>2021-01-03T13:28:01Z</time>
      </trkpt>
      <trkpt lat="43.66696" lon="3.80283">
        <ele>141</ele>
        <time>2021-01-03T13:28:02Z</time>
      </trkpt>
      <trkpt lat="43.66694" lon="3.80283">
        <ele>132.8</ele>
        <time>2021-01-03T13:28:03Z</time>
      </trkpt>
      <trkpt lat="43.66692" lon="3.80282">
        <ele>132.7</ele>
        <time>2021-01-03T13:28:04Z</time>
      </trkpt>
      <trkpt lat="43.66689" lon="3.80281">
        <ele>132.7</ele>
        <time>2021-01-03T13:28:05Z</time>
      </trkpt>
      <trkpt lat="43.66687" lon="3.80281">
        <ele>132.7</ele>
        <time>2021-01-03T13:28:06Z</time>
      </trkpt>
      <trkpt lat="43.66685" lon="3.8028">
        <ele>132.7</ele>
        <time>2021-01-03T13:28:07Z</time>
      </trkpt>
      <trkpt lat="43.66683" lon="3.8028">
        <ele>132.7</ele>
        <time>2021-01-03T13:28:08Z</time>
      </trkpt>
      <trkpt lat="43.66681" lon="3.8028">
        <ele>132.8</ele>
        <time>2021-01-03T13:28:09Z</time>
      </trkpt>
      <trkpt lat="43.66679" lon="3.80279">
        <ele>132.7</ele>
        <time>2021-01-03T13:28:10Z</time>
      </trkpt>
      <trkpt lat="43.66677" lon="3.80279">
        <ele>132.8</ele>
        <time>2021-01-03T13:28:11Z</time>
      </trkpt>
      <trkpt lat="43.66673" lon="3.80279">
        <ele>141</ele>
        <time>2021-01-03T13:28:12Z</time>
      </trkpt>
      <trkpt lat="43.6667" lon="3.80279">
        <ele>133.1</ele>
        <time>2021-01-03T13:28:13Z</time>
      </trkpt>
      <trkpt lat="43.66668" lon="3.80278">
        <ele>133</ele>
        <time>2021-01-03T13:28:14Z</time>
      </trkpt>
      <trkpt lat="43.66666" lon="3.80278">
        <ele>133.1</ele>
        <time>2021-01-03T13:28:15Z</time>
      </trkpt>
      <trkpt lat="43.66664" lon="3.80278">
        <ele>133.1</ele>
        <time>2021-01-03T13:28:17Z</time>
      </trkpt>
      <trkpt lat="43.66662" lon="3.80277">
        <ele>133.1</ele>
        <time>2021-01-03T13:28:18Z</time>
      </trkpt>
      <trkpt lat="43.6666" lon="3.80277">
        <ele>133.1</ele>
        <time>2021-01-03T13:28:19Z</time>
      </trkpt>
      <trkpt lat="43.66658" lon="3.80277">
        <ele>133.2</ele>
        <time>2021-01-03T13:28:20Z</time>
      </trkpt>
      <trkpt lat="43.66655" lon="3.80277">
        <ele>133.3</ele>
        <time>2021-01-03T13:28:21Z</time>
      </trkpt>
      <trkpt lat="43.66653" lon="3.80277">
        <ele>141</ele>
        <time>2021-01-03T13:28:22Z</time>
      </trkpt>
      <trkpt lat="43.66651" lon="3.80277">
        <ele>133.5</ele>
        <time>2021-01-03T13:28:23Z</time>
      </trkpt>
      <trkpt lat="43.6665" lon="3.80276">
        <ele>133.3</ele>
        <time>2021-01-03T13:28:24Z</time>
      </trkpt>
      <trkpt lat="43.66648" lon="3.80276">
        <ele>133.4</ele>
        <time>2021-01-03T13:28:25Z</time>
      </trkpt>
      <trkpt lat="43.66646" lon="3.80275">
        <ele>133.3</ele>
        <time>2021-01-03T13:28:26Z</time>
      </trkpt>
      <trkpt lat="43.66642" lon="3.80275">
        <ele>133.5</ele>
        <time>2021-01-03T13:28:28Z</time>
      </trkpt>
      <trkpt lat="43.66641" lon="3.80274">
        <ele>133.4</ele>
        <time>2021-01-03T13:28:29Z</time>
      </trkpt>
      <trkpt lat="43.66639" lon="3.80274">
        <ele>133.5</ele>
        <time>2021-01-03T13:28:30Z</time>
      </trkpt>
      <trkpt lat="43.66635" lon="3.80273">
        <ele>140</ele>
        <time>2021-01-03T13:28:32Z</time>
      </trkpt>
      <trkpt lat="43.66632" lon="3.80273">
        <ele>133.3</ele>
        <time>2021-01-03T13:28:34Z</time>
      </trkpt>
      <trkpt lat="43.66629" lon="3.80274">
        <ele>133.5</ele>
        <time>2021-01-03T13:28:36Z</time>
      </trkpt>
      <trkpt lat="43.66626" lon="3.80274">
        <ele>133.5</ele>
        <time>2021-01-03T13:28:38Z</time>
      </trkpt>
      <trkpt lat="43.66623" lon="3.80275">
        <ele>133.6</ele>
        <time>2021-01-03T13:28:40Z</time>
      </trkpt>
      <trkpt lat="43.6662" lon="3.80276">
        <ele>140</ele>
        <time>2021-01-03T13:28:42Z</time>
      </trkpt>
      <trkpt lat="43.66617" lon="3.80278">
        <ele>134</ele>
        <time>2021-01-03T13:28:44Z</time>
      </trkpt>
      <trkpt lat="43.66615" lon="3.80279">
        <ele>134.2</ele>
        <time>2021-01-03T13:28:45Z</time>
      </trkpt>
      <trkpt lat="43.66613" lon="3.8028">
        <ele>134.3</ele>
        <time>2021-01-03T13:28:46Z</time>
      </trkpt>
      <trkpt lat="43.6661" lon="3.80281">
        <ele>134.5</ele>
        <time>2021-01-03T13:28:48Z</time>
      </trkpt>
      <trkpt lat="43.66608" lon="3.80281">
        <ele>134.5</ele>
        <time>2021-01-03T13:28:49Z</time>
      </trkpt>
      <trkpt lat="43.66605" lon="3.80283">
        <ele>134.8</ele>
        <time>2021-01-03T13:28:51Z</time>
      </trkpt>
      <trkpt lat="43.66601" lon="3.80284">
        <ele>134.9</ele>
        <time>2021-01-03T13:28:53Z</time>
      </trkpt>
      <trkpt lat="43.66599" lon="3.80285">
        <ele>135</ele>
        <time>2021-01-03T13:28:54Z</time>
      </trkpt>
      <trkpt lat="43.66598" lon="3.80284">
        <ele>134.9</ele>
        <time>2021-01-03T13:28:55Z</time>
      </trkpt>
      <trkpt lat="43.66596" lon="3.80284">
        <ele>134.9</ele>
        <time>2021-01-03T13:28:56Z</time>
      </trkpt>
      <trkpt lat="43.66592" lon="3.80286">
        <ele>135.2</ele>
        <time>2021-01-03T13:28:58Z</time>
      </trkpt>
      <trkpt lat="43.6659" lon="3.80288">
        <ele>135.5</ele>
        <time>2021-01-03T13:29:00Z</time>
      </trkpt>
      <trkpt lat="43.66588" lon="3.80291">
        <ele>141</ele>
        <time>2021-01-03T13:29:02Z</time>
      </trkpt>
      <trkpt lat="43.66586" lon="3.80294">
        <ele>136.3</ele>
        <time>2021-01-03T13:29:04Z</time>
      </trkpt>
      <trkpt lat="43.66583" lon="3.80296">
        <ele>136.7</ele>
        <time>2021-01-03T13:29:06Z</time>
      </trkpt>
      <trkpt lat="43.66581" lon="3.80298">
        <ele>137.1</ele>
        <time>2021-01-03T13:29:08Z</time>
      </trkpt>
      <trkpt lat="43.66579" lon="3.80301">
        <ele>137.7</ele>
        <time>2021-01-03T13:29:10Z</time>
      </trkpt>
      <trkpt lat="43.66577" lon="3.80303">
        <ele>142</ele>
        <time>2021-01-03T13:29:12Z</time>
      </trkpt>
      <trkpt lat="43.66574" lon="3.80305">
        <ele>138.6</ele>
        <time>2021-01-03T13:29:14Z</time>
      </trkpt>
      <trkpt lat="43.66572" lon="3.80306">
        <ele>138.9</ele>
        <time>2021-01-03T13:29:16Z</time>
      </trkpt>
      <trkpt lat="43.66569" lon="3.80308">
        <ele>139.3</ele>
        <time>2021-01-03T13:29:18Z</time>
      </trkpt>
      <trkpt lat="43.66567" lon="3.8031">
        <ele>139.6</ele>
        <time>2021-01-03T13:29:20Z</time>
      </trkpt>
      <trkpt lat="43.66565" lon="3.80313">
        <ele>144</ele>
        <time>2021-01-03T13:29:22Z</time>
      </trkpt>
      <trkpt lat="43.66563" lon="3.80315">
        <ele>140.2</ele>
        <time>2021-01-03T13:29:24Z</time>
      </trkpt>
      <trkpt lat="43.66561" lon="3.80316">
        <ele>140.4</ele>
        <time>2021-01-03T13:29:26Z</time>
      </trkpt>
      <trkpt lat="43.6656" lon="3.80319">
        <ele>140.7</ele>
        <time>2021-01-03T13:29:28Z</time>
      </trkpt>
      <trkpt lat="43.66559" lon="3.80321">
        <ele>140.9</ele>
        <time>2021-01-03T13:29:30Z</time>
      </trkpt>
      <trkpt lat="43.66557" lon="3.80323">
        <ele>146</ele>
        <time>2021-01-03T13:29:32Z</time>
      </trkpt>
      <trkpt lat="43.66555" lon="3.80325">
        <ele>141.4</ele>
        <time>2021-01-03T13:29:34Z</time>
      </trkpt>
      <trkpt lat="43.66553" lon="3.80326">
        <ele>141.7</ele>
        <time>2021-01-03T13:29:36Z</time>
      </trkpt>
      <trkpt lat="43.66552" lon="3.80328">
        <ele>141.9</ele>
        <time>2021-01-03T13:29:38Z</time>
      </trkpt>
      <trkpt lat="43.6655" lon="3.8033">
        <ele>142.2</ele>
        <time>2021-01-03T13:29:40Z</time>
      </trkpt>
      <trkpt lat="43.66548" lon="3.80331">
        <ele>147</ele>
        <time>2021-01-03T13:29:42Z</time>
      </trkpt>
      <trkpt lat="43.66547" lon="3.80333">
        <ele>142.6</ele>
        <time>2021-01-03T13:29:44Z</time>
      </trkpt>
      <trkpt lat="43.66546" lon="3.80335">
        <ele>142.8</ele>
        <time>2021-01-03T13:29:46Z</time>
      </trkpt>
      <trkpt lat="43.66544" lon="3.80337">
        <ele>143.2</ele>
        <time>2021-01-03T13:29:48Z</time>
      </trkpt>
      <trkpt lat="43.66542" lon="3.80339">
        <ele>143.5</ele>
        <time>2021-01-03T13:29:50Z</time>
      </trkpt>
      <trkpt lat="43.66539" lon="3.8034">
        <ele>149</ele>
        <time>2021-01-03T13:29:52Z</time>
      </trkpt>
      <trkpt lat="43.66538" lon="3.80342">
        <ele>144</ele>
        <time>2021-01-03T13:29:54Z</time>
      </trkpt>
      <trkpt lat="43.66536" lon="3.80344">
        <ele>144.3</ele>
        <time>2021-01-03T13:29:56Z</time>
      </trkpt>
      <trkpt lat="43.66534" lon="3.80346">
        <ele>144.6</ele>
        <time>2021-01-03T13:29:58Z</time>
      </trkpt>
      <trkpt lat="43.66532" lon="3.80348">
        <ele>144.8</ele>
        <time>2021-01-03T13:30:00Z</time>
      </trkpt>
      <trkpt lat="43.66531" lon="3.8035">
        <ele>145</ele>
        <time>2021-01-03T13:30:02Z</time>
      </trkpt>
      <trkpt lat="43.66529" lon="3.80352">
        <ele>151</ele>
        <time>2021-01-03T13:30:03Z</time>
      </trkpt>
      <trkpt lat="43.66527" lon="3.80355">
        <ele>145.6</ele>
        <time>2021-01-03T13:30:05Z</time>
      </trkpt>
      <trkpt lat="43.66525" lon="3.80357">
        <ele>145.7</ele>
        <time>2021-01-03T13:30:07Z</time>
      </trkpt>
      <trkpt lat="43.66523" lon="3.8036">
        <ele>145.9</ele>
        <time>2021-01-03T13:30:09Z</time>
      </trkpt>
      <trkpt lat="43.66521" lon="3.80363">
        <ele>146.1</ele>
        <time>2021-01-03T13:30:11Z</time>
      </trkpt>
      <trkpt lat="43.66519" lon="3.80366">
        <ele>146.2</ele>
        <time>2021-01-03T13:30:14Z</time>
      </trkpt>
      <trkpt lat="43.66517" lon="3.80369">
        <ele>146.3</ele>
        <time>2021-01-03T13:30:16Z</time>
      </trkpt>
      <trkpt lat="43.66515" lon="3.80373">
        <ele>146.4</ele>
        <time>2021-01-03T13:30:18Z</time>
      </trkpt>
      <trkpt lat="43.66514" lon="3.80377">
        <ele>146.6</ele>
        <time>2021-01-03T13:30:20Z</time>
      </trkpt>
      <trkpt lat="43.66513" lon="3.80381">
        <ele>153</ele>
        <time>2021-01-03T13:30:22Z</time>
      </trkpt>
      <trkpt lat="43.66512" lon="3.80384">
        <ele>146.8</ele>
        <time>2021-01-03T13:30:24Z</time>
      </trkpt>
      <trkpt lat="43.6651" lon="3.80388">
        <ele>147</ele>
        <time>2021-01-03T13:30:26Z</time>
      </trkpt>
      <trkpt lat="43.66509" lon="3.80392">
        <ele>147.1</ele>
        <time>2021-01-03T13:30:28Z</time>
      </trkpt>
      <trkpt lat="43.66508" lon="3.80396">
        <ele>147.3</ele>
        <time>2021-01-03T13:30:30Z</time>
      </trkpt>
      <trkpt lat="43.66507" lon="3.80399">
        <ele>154</ele>
        <time>2021-01-03T13:30:32Z</time>
      </trkpt>
      <trkpt lat="43.66505" lon="3.80401">
        <ele>147.4</ele>
        <time>2021-01-03T13:30:34Z</time>
      </trkpt>
      <trkpt lat="43.66501" lon="3.80402">
        <ele>147.5</ele>
        <time>2021-01-03T13:30:36Z</time>
      </trkpt>
      <trkpt lat="43.66498" lon="3.80402">
        <ele>147.5</ele>
        <time>2021-01-03T13:30:38Z</time>
      </trkpt>
      <trkpt lat="43.66496" lon="3.80403">
        <ele>147.6</ele>
        <time>2021-01-03T13:30:39Z</time>
      </trkpt>
      <trkpt lat="43.66494" lon="3.80404">
        <ele>147.6</ele>
        <time>2021-01-03T13:30:40Z</time>
      </trkpt>
      <trkpt lat="43.66491" lon="3.80407">
        <ele>147.8</ele>
        <time>2021-01-03T13:30:41Z</time>
      </trkpt>
      <trkpt lat="43.66487" lon="3.80413">
        <ele>154</ele>
        <time>2021-01-03T13:30:42Z</time>
      </trkpt>
      <trkpt lat="43.66484" lon="3.80415">
        <ele>148</ele>
        <time>2021-01-03T13:30:43Z</time>
      </trkpt>
      <trkpt lat="43.66482" lon="3.80416">
        <ele>148</ele>
        <time>2021-01-03T13:30:44Z</time>
      </trkpt>
      <trkpt lat="43.6648" lon="3.80417">
        <ele>148</ele>
        <time>2021-01-03T13:30:45Z</time>
      </trkpt>
      <trkpt lat="43.66477" lon="3.80419">
        <ele>147.9</ele>
        <time>2021-01-03T13:30:47Z</time>
      </trkpt>
      <trkpt lat="43.66475" lon="3.8042">
        <ele>147.9</ele>
        <time>2021-01-03T13:30:48Z</time>
      </trkpt>
      <trkpt lat="43.66472" lon="3.80421">
        <ele>147.8</ele>
        <time>2021-01-03T13:30:49Z</time>
      </trkpt>
      <trkpt lat="43.66469" lon="3.80422">
        <ele>147.8</ele>
        <time>2021-01-03T13:30:50Z</time>
      </trkpt>
      <trkpt lat="43.66466" lon="3.80423">
        <ele>147.8</ele>
        <time>2021-01-03T13:30:51Z</time>
      </trkpt>
      <trkpt lat="43.66463" lon="3.80425">
        <ele>154</ele>
        <time>2021-01-03T13:30:52Z</time>
      </trkpt>
      <trkpt lat="43.6646" lon="3.80427">
        <ele>147.6</ele>
        <time>2021-01-03T13:30:53Z</time>
      </trkpt>
      <trkpt lat="43.66458" lon="3.80429">
        <ele>147.6</ele>
        <time>2021-01-03T13:30:54Z</time>
      </trkpt>
      <trkpt lat="43.66455" lon="3.80432">
        <ele>147.4</ele>
        <time>2021-01-03T13:30:55Z</time>
      </trkpt>
      <trkpt lat="43.66453" lon="3.80434">
        <ele>147.4</ele>
        <time>2021-01-03T13:30:56Z</time>
      </trkpt>
      <trkpt lat="43.6645" lon="3.80437">
        <ele>147.3</ele>
        <time>2021-01-03T13:30:57Z</time>
      </trkpt>
      <trkpt lat="43.66447" lon="3.8044">
        <ele>147.2</ele>
        <time>2021-01-03T13:30:58Z</time>
      </trkpt>
      <trkpt lat="43.66445" lon="3.80442">
        <ele>147.1</ele>
        <time>2021-01-03T13:30:59Z</time>
      </trkpt>
      <trkpt lat="43.66442" lon="3.80445">
        <ele>147</ele>
        <time>2021-01-03T13:31:00Z</time>
      </trkpt>
      <trkpt lat="43.66439" lon="3.80448">
        <ele>147.1</ele>
        <time>2021-01-03T13:31:01Z</time>
      </trkpt>
      <trkpt lat="43.66437" lon="3.80451">
        <ele>155</ele>
        <time>2021-01-03T13:31:02Z</time>
      </trkpt>
      <trkpt lat="43.66434" lon="3.80453">
        <ele>147.2</ele>
        <time>2021-01-03T13:31:03Z</time>
      </trkpt>
      <trkpt lat="43.66432" lon="3.80455">
        <ele>147.2</ele>
        <time>2021-01-03T13:31:04Z</time>
      </trkpt>
      <trkpt lat="43.66429" lon="3.80457">
        <ele>147.2</ele>
        <time>2021-01-03T13:31:05Z</time>
      </trkpt>
      <trkpt lat="43.66427" lon="3.80458">
        <ele>147.2</ele>
        <time>2021-01-03T13:31:06Z</time>
      </trkpt>
      <trkpt lat="43.66423" lon="3.80457">
        <ele>147.1</ele>
        <time>2021-01-03T13:31:07Z</time>
      </trkpt>
      <trkpt lat="43.66419" lon="3.80457">
        <ele>147</ele>
        <time>2021-01-03T13:31:08Z</time>
      </trkpt>
      <trkpt lat="43.66416" lon="3.80456">
        <ele>147</ele>
        <time>2021-01-03T13:31:09Z</time>
      </trkpt>
      <trkpt lat="43.66412" lon="3.80455">
        <ele>147</ele>
        <time>2021-01-03T13:31:10Z</time>
      </trkpt>
      <trkpt lat="43.66408" lon="3.80453">
        <ele>147</ele>
        <time>2021-01-03T13:31:11Z</time>
      </trkpt>
      <trkpt lat="43.66404" lon="3.80451">
        <ele>153</ele>
        <time>2021-01-03T13:31:12Z</time>
      </trkpt>
      <trkpt lat="43.66401" lon="3.80449">
        <ele>147</ele>
        <time>2021-01-03T13:31:13Z</time>
      </trkpt>
      <trkpt lat="43.66397" lon="3.80447">
        <ele>147</ele>
        <time>2021-01-03T13:31:14Z</time>
      </trkpt>
      <trkpt lat="43.66394" lon="3.80445">
        <ele>147</ele>
        <time>2021-01-03T13:31:15Z</time>
      </trkpt>
      <trkpt lat="43.6639" lon="3.80443">
        <ele>147.1</ele>
        <time>2021-01-03T13:31:16Z</time>
      </trkpt>
      <trkpt lat="43.66387" lon="3.80441">
        <ele>147.1</ele>
        <time>2021-01-03T13:31:17Z</time>
      </trkpt>
      <trkpt lat="43.66383" lon="3.80439">
        <ele>147.2</ele>
        <time>2021-01-03T13:31:18Z</time>
      </trkpt>
      <trkpt lat="43.6638" lon="3.80437">
        <ele>147.3</ele>
        <time>2021-01-03T13:31:19Z</time>
      </trkpt>
      <trkpt lat="43.66377" lon="3.80435">
        <ele>147.3</ele>
        <time>2021-01-03T13:31:20Z</time>
      </trkpt>
      <trkpt lat="43.66374" lon="3.80433">
        <ele>147.4</ele>
        <time>2021-01-03T13:31:21Z</time>
      </trkpt>
      <trkpt lat="43.66371" lon="3.80431">
        <ele>152</ele>
        <time>2021-01-03T13:31:22Z</time>
      </trkpt>
      <trkpt lat="43.66368" lon="3.80429">
        <ele>147.6</ele>
        <time>2021-01-03T13:31:23Z</time>
      </trkpt>
      <trkpt lat="43.66365" lon="3.80427">
        <ele>147.6</ele>
        <time>2021-01-03T13:31:24Z</time>
      </trkpt>
      <trkpt lat="43.66363" lon="3.80425">
        <ele>147.7</ele>
        <time>2021-01-03T13:31:25Z</time>
      </trkpt>
      <trkpt lat="43.6636" lon="3.80422">
        <ele>147.8</ele>
        <time>2021-01-03T13:31:26Z</time>
      </trkpt>
      <trkpt lat="43.66357" lon="3.8042">
        <ele>147.9</ele>
        <time>2021-01-03T13:31:27Z</time>
      </trkpt>
      <trkpt lat="43.66355" lon="3.80418">
        <ele>147.9</ele>
        <time>2021-01-03T13:31:28Z</time>
      </trkpt>
      <trkpt lat="43.66352" lon="3.80416">
        <ele>148</ele>
        <time>2021-01-03T13:31:29Z</time>
      </trkpt>
      <trkpt lat="43.66349" lon="3.80414">
        <ele>148</ele>
        <time>2021-01-03T13:31:30Z</time>
      </trkpt>
      <trkpt lat="43.66346" lon="3.80411">
        <ele>148</ele>
        <time>2021-01-03T13:31:31Z</time>
      </trkpt>
      <trkpt lat="43.66343" lon="3.80409">
        <ele>151</ele>
        <time>2021-01-03T13:31:32Z</time>
      </trkpt>
      <trkpt lat="43.66341" lon="3.80407">
        <ele>148</ele>
        <time>2021-01-03T13:31:33Z</time>
      </trkpt>
      <trkpt lat="43.66338" lon="3.80404">
        <ele>148</ele>
        <time>2021-01-03T13:31:34Z</time>
      </trkpt>
      <trkpt lat="43.66334" lon="3.80402">
        <ele>148</ele>
        <time>2021-01-03T13:31:35Z</time>
      </trkpt>
      <trkpt lat="43.66331" lon="3.80399">
        <ele>147.9</ele>
        <time>2021-01-03T13:31:36Z</time>
      </trkpt>
      <trkpt lat="43.66328" lon="3.80397">
        <ele>147.8</ele>
        <time>2021-01-03T13:31:37Z</time>
      </trkpt>
      <trkpt lat="43.66325" lon="3.80394">
        <ele>147.6</ele>
        <time>2021-01-03T13:31:38Z</time>
      </trkpt>
      <trkpt lat="43.66322" lon="3.80391">
        <ele>147.6</ele>
        <time>2021-01-03T13:31:39Z</time>
      </trkpt>
      <trkpt lat="43.66319" lon="3.80388">
        <ele>147.5</ele>
        <time>2021-01-03T13:31:40Z</time>
      </trkpt>
      <trkpt lat="43.66316" lon="3.80386">
        <ele>147.4</ele>
        <time>2021-01-03T13:31:41Z</time>
      </trkpt>
      <trkpt lat="43.66313" lon="3.80382">
        <ele>151</ele>
        <time>2021-01-03T13:31:42Z</time>
      </trkpt>
      <trkpt lat="43.6631" lon="3.8038">
        <ele>147.4</ele>
        <time>2021-01-03T13:31:43Z</time>
      </trkpt>
      <trkpt lat="43.66307" lon="3.80377">
        <ele>147.5</ele>
        <time>2021-01-03T13:31:44Z</time>
      </trkpt>
      <trkpt lat="43.66304" lon="3.80375">
        <ele>147.4</ele>
        <time>2021-01-03T13:31:45Z</time>
      </trkpt>
      <trkpt lat="43.66301" lon="3.80372">
        <ele>147.4</ele>
        <time>2021-01-03T13:31:46Z</time>
      </trkpt>
      <trkpt lat="43.66298" lon="3.8037">
        <ele>147.4</ele>
        <time>2021-01-03T13:31:47Z</time>
      </trkpt>
      <trkpt lat="43.66295" lon="3.80367">
        <ele>147.4</ele>
        <time>2021-01-03T13:31:48Z</time>
      </trkpt>
      <trkpt lat="43.66292" lon="3.80364">
        <ele>147.4</ele>
        <time>2021-01-03T13:31:49Z</time>
      </trkpt>
      <trkpt lat="43.66289" lon="3.80361">
        <ele>147.4</ele>
        <time>2021-01-03T13:31:50Z</time>
      </trkpt>
      <trkpt lat="43.66286" lon="3.80358">
        <ele>147.4</ele>
        <time>2021-01-03T13:31:51Z</time>
      </trkpt>
      <trkpt lat="43.66283" lon="3.80356">
        <ele>150</ele>
        <time>2021-01-03T13:31:52Z</time>
      </trkpt>
      <trkpt lat="43.6628" lon="3.80353">
        <ele>147.4</ele>
        <time>2021-01-03T13:31:53Z</time>
      </trkpt>
      <trkpt lat="43.66276" lon="3.8035">
        <ele>147.4</ele>
        <time>2021-01-03T13:31:54Z</time>
      </trkpt>
      <trkpt lat="43.66273" lon="3.80348">
        <ele>147.4</ele>
        <time>2021-01-03T13:31:55Z</time>
      </trkpt>
      <trkpt lat="43.6627" lon="3.80345">
        <ele>147.5</ele>
        <time>2021-01-03T13:31:56Z</time>
      </trkpt>
      <trkpt lat="43.66267" lon="3.80342">
        <ele>147.6</ele>
        <time>2021-01-03T13:31:57Z</time>
      </trkpt>
      <trkpt lat="43.66264" lon="3.8034">
        <ele>147.6</ele>
        <time>2021-01-03T13:31:58Z</time>
      </trkpt>
      <trkpt lat="43.66261" lon="3.80337">
        <ele>147.8</ele>
        <time>2021-01-03T13:31:59Z</time>
      </trkpt>
      <trkpt lat="43.66258" lon="3.80334">
        <ele>148</ele>
        <time>2021-01-03T13:32:00Z</time>
      </trkpt>
      <trkpt lat="43.66255" lon="3.80331">
        <ele>148</ele>
        <time>2021-01-03T13:32:01Z</time>
      </trkpt>
      <trkpt lat="43.66252" lon="3.80328">
        <ele>148</ele>
        <time>2021-01-03T13:32:02Z</time>
      </trkpt>
      <trkpt lat="43.66249" lon="3.80326">
        <ele>149</ele>
        <time>2021-01-03T13:32:03Z</time>
      </trkpt>
      <trkpt lat="43.66245" lon="3.80323">
        <ele>147.7</ele>
        <time>2021-01-03T13:32:04Z</time>
      </trkpt>
      <trkpt lat="43.66242" lon="3.80321">
        <ele>147.6</ele>
        <time>2021-01-03T13:32:05Z</time>
      </trkpt>
      <trkpt lat="43.66238" lon="3.80318">
        <ele>147.4</ele>
        <time>2021-01-03T13:32:06Z</time>
      </trkpt>
      <trkpt lat="43.66235" lon="3.80315">
        <ele>147.3</ele>
        <time>2021-01-03T13:32:07Z</time>
      </trkpt>
      <trkpt lat="43.66232" lon="3.80312">
        <ele>147.2</ele>
        <time>2021-01-03T13:32:08Z</time>
      </trkpt>
      <trkpt lat="43.66228" lon="3.80309">
        <ele>147.1</ele>
        <time>2021-01-03T13:32:09Z</time>
      </trkpt>
      <trkpt lat="43.66224" lon="3.80306">
        <ele>147</ele>
        <time>2021-01-03T13:32:10Z</time>
      </trkpt>
      <trkpt lat="43.66221" lon="3.80303">
        <ele>147</ele>
        <time>2021-01-03T13:32:11Z</time>
      </trkpt>
      <trkpt lat="43.66217" lon="3.803">
        <ele>150</ele>
        <time>2021-01-03T13:32:12Z</time>
      </trkpt>
      <trkpt lat="43.66213" lon="3.80297">
        <ele>147</ele>
        <time>2021-01-03T13:32:13Z</time>
      </trkpt>
      <trkpt lat="43.66209" lon="3.80294">
        <ele>146.9</ele>
        <time>2021-01-03T13:32:14Z</time>
      </trkpt>
      <trkpt lat="43.66205" lon="3.80291">
        <ele>146.9</ele>
        <time>2021-01-03T13:32:15Z</time>
      </trkpt>
      <trkpt lat="43.66202" lon="3.80287">
        <ele>146.9</ele>
        <time>2021-01-03T13:32:16Z</time>
      </trkpt>
      <trkpt lat="43.66198" lon="3.80284">
        <ele>146.9</ele>
        <time>2021-01-03T13:32:17Z</time>
      </trkpt>
      <trkpt lat="43.66194" lon="3.80281">
        <ele>146.9</ele>
        <time>2021-01-03T13:32:18Z</time>
      </trkpt>
      <trkpt lat="43.6619" lon="3.80278">
        <ele>146.8</ele>
        <time>2021-01-03T13:32:19Z</time>
      </trkpt>
      <trkpt lat="43.66186" lon="3.80275">
        <ele>146.8</ele>
        <time>2021-01-03T13:32:20Z</time>
      </trkpt>
      <trkpt lat="43.66182" lon="3.80272">
        <ele>146.8</ele>
        <time>2021-01-03T13:32:21Z</time>
      </trkpt>
      <trkpt lat="43.66179" lon="3.80268">
        <ele>150</ele>
        <time>2021-01-03T13:32:22Z</time>
      </trkpt>
      <trkpt lat="43.66175" lon="3.80265">
        <ele>146.8</ele>
        <time>2021-01-03T13:32:23Z</time>
      </trkpt>
      <trkpt lat="43.66172" lon="3.80263">
        <ele>146.7</ele>
        <time>2021-01-03T13:32:24Z</time>
      </trkpt>
      <trkpt lat="43.66168" lon="3.8026">
        <ele>146.7</ele>
        <time>2021-01-03T13:32:25Z</time>
      </trkpt>
      <trkpt lat="43.66164" lon="3.80257">
        <ele>146.7</ele>
        <time>2021-01-03T13:32:26Z</time>
      </trkpt>
      <trkpt lat="43.66161" lon="3.80254">
        <ele>146.9</ele>
        <time>2021-01-03T13:32:27Z</time>
      </trkpt>
      <trkpt lat="43.66157" lon="3.80252">
        <ele>146.9</ele>
        <time>2021-01-03T13:32:28Z</time>
      </trkpt>
      <trkpt lat="43.66154" lon="3.8025">
        <ele>147</ele>
        <time>2021-01-03T13:32:29Z</time>
      </trkpt>
      <trkpt lat="43.66151" lon="3.80248">
        <ele>147</ele>
        <time>2021-01-03T13:32:30Z</time>
      </trkpt>
      <trkpt lat="43.66147" lon="3.80245">
        <ele>147.1</ele>
        <time>2021-01-03T13:32:31Z</time>
      </trkpt>
      <trkpt lat="43.66144" lon="3.80243">
        <ele>150</ele>
        <time>2021-01-03T13:32:32Z</time>
      </trkpt>
      <trkpt lat="43.66141" lon="3.8024">
        <ele>147</ele>
        <time>2021-01-03T13:32:33Z</time>
      </trkpt>
      <trkpt lat="43.66138" lon="3.80238">
        <ele>147</ele>
        <time>2021-01-03T13:32:34Z</time>
      </trkpt>
      <trkpt lat="43.66135" lon="3.80236">
        <ele>147</ele>
        <time>2021-01-03T13:32:35Z</time>
      </trkpt>
      <trkpt lat="43.66132" lon="3.80233">
        <ele>147</ele>
        <time>2021-01-03T13:32:36Z</time>
      </trkpt>
      <trkpt lat="43.66129" lon="3.80231">
        <ele>147</ele>
        <time>2021-01-03T13:32:37Z</time>
      </trkpt>
      <trkpt lat="43.66125" lon="3.80229">
        <ele>147</ele>
        <time>2021-01-03T13:32:38Z</time>
      </trkpt>
      <trkpt lat="43.66122" lon="3.80226">
        <ele>147</ele>
        <time>2021-01-03T13:32:39Z</time>
      </trkpt>
      <trkpt lat="43.66118" lon="3.80224">
        <ele>147</ele>
        <time>2021-01-03T13:32:40Z</time>
      </trkpt>
      <trkpt lat="43.66114" lon="3.80221">
        <ele>147</ele>
        <time>2021-01-03T13:32:41Z</time>
      </trkpt>
      <trkpt lat="43.6611" lon="3.8022">
        <ele>150</ele>
        <time>2021-01-03T13:32:42Z</time>
      </trkpt>
      <trkpt lat="43.66106" lon="3.80218">
        <ele>147</ele>
        <time>2021-01-03T13:32:43Z</time>
      </trkpt>
      <trkpt lat="43.66102" lon="3.80217">
        <ele>147</ele>
        <time>2021-01-03T13:32:44Z</time>
      </trkpt>
      <trkpt lat="43.66097" lon="3.80217">
        <ele>147</ele>
        <time>2021-01-03T13:32:45Z</time>
      </trkpt>
      <trkpt lat="43.66093" lon="3.80219">
        <ele>147</ele>
        <time>2021-01-03T13:32:46Z</time>
      </trkpt>
      <trkpt lat="43.66089" lon="3.80221">
        <ele>147</ele>
        <time>2021-01-03T13:32:47Z</time>
      </trkpt>
      <trkpt lat="43.66085" lon="3.80224">
        <ele>146.9</ele>
        <time>2021-01-03T13:32:48Z</time>
      </trkpt>
      <trkpt lat="43.66081" lon="3.80227">
        <ele>146.8</ele>
        <time>2021-01-03T13:32:49Z</time>
      </trkpt>
      <trkpt lat="43.66077" lon="3.8023">
        <ele>146.6</ele>
        <time>2021-01-03T13:32:50Z</time>
      </trkpt>
      <trkpt lat="43.66073" lon="3.80233">
        <ele>146.4</ele>
        <time>2021-01-03T13:32:51Z</time>
      </trkpt>
      <trkpt lat="43.66068" lon="3.80235">
        <ele>149</ele>
        <time>2021-01-03T13:32:52Z</time>
      </trkpt>
      <trkpt lat="43.66064" lon="3.80236">
        <ele>146.2</ele>
        <time>2021-01-03T13:32:53Z</time>
      </trkpt>
      <trkpt lat="43.6606" lon="3.80237">
        <ele>146.1</ele>
        <time>2021-01-03T13:32:54Z</time>
      </trkpt>
      <trkpt lat="43.66055" lon="3.80238">
        <ele>146</ele>
        <time>2021-01-03T13:32:55Z</time>
      </trkpt>
      <trkpt lat="43.66051" lon="3.80239">
        <ele>146</ele>
        <time>2021-01-03T13:32:56Z</time>
      </trkpt>
      <trkpt lat="43.66047" lon="3.8024">
        <ele>146</ele>
        <time>2021-01-03T13:32:57Z</time>
      </trkpt>
      <trkpt lat="43.66043" lon="3.8024">
        <ele>146</ele>
        <time>2021-01-03T13:32:58Z</time>
      </trkpt>
      <trkpt lat="43.66038" lon="3.80241">
        <ele>146</ele>
        <time>2021-01-03T13:32:59Z</time>
      </trkpt>
      <trkpt lat="43.66034" lon="3.80241">
        <ele>146</ele>
        <time>2021-01-03T13:33:00Z</time>
      </trkpt>
      <trkpt lat="43.6603" lon="3.80241">
        <ele>146</ele>
        <time>2021-01-03T13:33:01Z</time>
      </trkpt>
      <trkpt lat="43.66025" lon="3.80242">
        <ele>145.9</ele>
        <time>2021-01-03T13:33:02Z</time>
      </trkpt>
      <trkpt lat="43.66021" lon="3.80242">
        <ele>147</ele>
        <time>2021-01-03T13:33:03Z</time>
      </trkpt>
      <trkpt lat="43.66016" lon="3.80242">
        <ele>145.6</ele>
        <time>2021-01-03T13:33:04Z</time>
      </trkpt>
      <trkpt lat="43.66012" lon="3.80243">
        <ele>145.4</ele>
        <time>2021-01-03T13:33:05Z</time>
      </trkpt>
      <trkpt lat="43.66007" lon="3.80243">
        <ele>145.3</ele>
        <time>2021-01-03T13:33:06Z</time>
      </trkpt>
      <trkpt lat="43.66002" lon="3.80243">
        <ele>145.1</ele>
        <time>2021-01-03T13:33:07Z</time>
      </trkpt>
      <trkpt lat="43.65998" lon="3.80242">
        <ele>145</ele>
        <time>2021-01-03T13:33:08Z</time>
      </trkpt>
      <trkpt lat="43.65995" lon="3.80242">
        <ele>144.9</ele>
        <time>2021-01-03T13:33:09Z</time>
      </trkpt>
      <trkpt lat="43.65991" lon="3.80241">
        <ele>144.9</ele>
        <time>2021-01-03T13:33:10Z</time>
      </trkpt>
      <trkpt lat="43.65988" lon="3.8024">
        <ele>144.8</ele>
        <time>2021-01-03T13:33:11Z</time>
      </trkpt>
      <trkpt lat="43.65984" lon="3.80239">
        <ele>144.8</ele>
        <time>2021-01-03T13:33:12Z</time>
      </trkpt>
      <trkpt lat="43.6598" lon="3.80237">
        <ele>147</ele>
        <time>2021-01-03T13:33:13Z</time>
      </trkpt>
      <trkpt lat="43.65975" lon="3.80234">
        <ele>144.5</ele>
        <time>2021-01-03T13:33:14Z</time>
      </trkpt>
      <trkpt lat="43.65971" lon="3.80232">
        <ele>144.3</ele>
        <time>2021-01-03T13:33:15Z</time>
      </trkpt>
      <trkpt lat="43.65967" lon="3.8023">
        <ele>144.2</ele>
        <time>2021-01-03T13:33:16Z</time>
      </trkpt>
      <trkpt lat="43.65962" lon="3.8023">
        <ele>144.2</ele>
        <time>2021-01-03T13:33:17Z</time>
      </trkpt>
      <trkpt lat="43.65958" lon="3.80233">
        <ele>144.2</ele>
        <time>2021-01-03T13:33:18Z</time>
      </trkpt>
      <trkpt lat="43.65956" lon="3.80237">
        <ele>144.2</ele>
        <time>2021-01-03T13:33:19Z</time>
      </trkpt>
      <trkpt lat="43.65954" lon="3.80242">
        <ele>144.2</ele>
        <time>2021-01-03T13:33:20Z</time>
      </trkpt>
      <trkpt lat="43.65953" lon="3.80249">
        <ele>144.3</ele>
        <time>2021-01-03T13:33:21Z</time>
      </trkpt>
      <trkpt lat="43.65952" lon="3.80255">
        <ele>145</ele>
        <time>2021-01-03T13:33:22Z</time>
      </trkpt>
      <trkpt lat="43.65951" lon="3.80261">
        <ele>144.1</ele>
        <time>2021-01-03T13:33:23Z</time>
      </trkpt>
      <trkpt lat="43.65949" lon="3.80267">
        <ele>144.1</ele>
        <time>2021-01-03T13:33:24Z</time>
      </trkpt>
      <trkpt lat="43.65947" lon="3.80272">
        <ele>144</ele>
        <time>2021-01-03T13:33:25Z</time>
      </trkpt>
      <trkpt lat="43.65943" lon="3.80276">
        <ele>144</ele>
        <time>2021-01-03T13:33:26Z</time>
      </trkpt>
      <trkpt lat="43.6594" lon="3.80278">
        <ele>144</ele>
        <time>2021-01-03T13:33:27Z</time>
      </trkpt>
      <trkpt lat="43.65936" lon="3.80279">
        <ele>144</ele>
        <time>2021-01-03T13:33:28Z</time>
      </trkpt>
      <trkpt lat="43.65932" lon="3.80279">
        <ele>144</ele>
        <time>2021-01-03T13:33:29Z</time>
      </trkpt>
      <trkpt lat="43.65928" lon="3.80279">
        <ele>144</ele>
        <time>2021-01-03T13:33:30Z</time>
      </trkpt>
      <trkpt lat="43.65924" lon="3.80279">
        <ele>144</ele>
        <time>2021-01-03T13:33:31Z</time>
      </trkpt>
      <trkpt lat="43.6592" lon="3.80279">
        <ele>146</ele>
        <time>2021-01-03T13:33:32Z</time>
      </trkpt>
      <trkpt lat="43.65915" lon="3.80278">
        <ele>144</ele>
        <time>2021-01-03T13:33:33Z</time>
      </trkpt>
      <trkpt lat="43.65911" lon="3.80276">
        <ele>144</ele>
        <time>2021-01-03T13:33:34Z</time>
      </trkpt>
      <trkpt lat="43.65908" lon="3.80273">
        <ele>144</ele>
        <time>2021-01-03T13:33:35Z</time>
      </trkpt>
      <trkpt lat="43.65905" lon="3.8027">
        <ele>144</ele>
        <time>2021-01-03T13:33:36Z</time>
      </trkpt>
      <trkpt lat="43.65902" lon="3.80267">
        <ele>144</ele>
        <time>2021-01-03T13:33:37Z</time>
      </trkpt>
      <trkpt lat="43.65899" lon="3.80263">
        <ele>144</ele>
        <time>2021-01-03T13:33:38Z</time>
      </trkpt>
      <trkpt lat="43.65897" lon="3.8026">
        <ele>144</ele>
        <time>2021-01-03T13:33:39Z</time>
      </trkpt>
      <trkpt lat="43.65895" lon="3.80259">
        <ele>144</ele>
        <time>2021-01-03T13:33:40Z</time>
      </trkpt>
      <trkpt lat="43.65893" lon="3.8026">
        <ele>144</ele>
        <time>2021-01-03T13:33:41Z</time>
      </trkpt>
      <trkpt lat="43.6589" lon="3.80261">
        <ele>146</ele>
        <time>2021-01-03T13:33:42Z</time>
      </trkpt>
      <trkpt lat="43.65888" lon="3.80263">
        <ele>144</ele>
        <time>2021-01-03T13:33:43Z</time>
      </trkpt>
      <trkpt lat="43.65885" lon="3.80266">
        <ele>144.1</ele>
        <time>2021-01-03T13:33:44Z</time>
      </trkpt>
      <trkpt lat="43.65882" lon="3.8027">
        <ele>144.2</ele>
        <time>2021-01-03T13:33:45Z</time>
      </trkpt>
      <trkpt lat="43.65879" lon="3.80273">
        <ele>144.4</ele>
        <time>2021-01-03T13:33:46Z</time>
      </trkpt>
      <trkpt lat="43.65876" lon="3.80275">
        <ele>144.5</ele>
        <time>2021-01-03T13:33:47Z</time>
      </trkpt>
      <trkpt lat="43.65874" lon="3.80278">
        <ele>144.5</ele>
        <time>2021-01-03T13:33:48Z</time>
      </trkpt>
      <trkpt lat="43.65873" lon="3.80281">
        <ele>144.6</ele>
        <time>2021-01-03T13:33:49Z</time>
      </trkpt>
      <trkpt lat="43.65872" lon="3.80284">
        <ele>144.7</ele>
        <time>2021-01-03T13:33:50Z</time>
      </trkpt>
      <trkpt lat="43.65871" lon="3.80286">
        <ele>144.7</ele>
        <time>2021-01-03T13:33:51Z</time>
      </trkpt>
      <trkpt lat="43.65871" lon="3.80289">
        <ele>146</ele>
        <time>2021-01-03T13:33:52Z</time>
      </trkpt>
      <trkpt lat="43.65869" lon="3.80291">
        <ele>144.9</ele>
        <time>2021-01-03T13:33:53Z</time>
      </trkpt>
      <trkpt lat="43.65867" lon="3.80292">
        <ele>144.9</ele>
        <time>2021-01-03T13:33:54Z</time>
      </trkpt>
      <trkpt lat="43.65864" lon="3.8029">
        <ele>144.9</ele>
        <time>2021-01-03T13:33:55Z</time>
      </trkpt>
      <trkpt lat="43.65862" lon="3.80287">
        <ele>145</ele>
        <time>2021-01-03T13:33:56Z</time>
      </trkpt>
      <trkpt lat="43.65859" lon="3.80284">
        <ele>145</ele>
        <time>2021-01-03T13:33:57Z</time>
      </trkpt>
      <trkpt lat="43.65856" lon="3.80281">
        <ele>145</ele>
        <time>2021-01-03T13:33:58Z</time>
      </trkpt>
      <trkpt lat="43.65853" lon="3.80278">
        <ele>145</ele>
        <time>2021-01-03T13:33:59Z</time>
      </trkpt>
      <trkpt lat="43.6585" lon="3.80276">
        <ele>145</ele>
        <time>2021-01-03T13:34:00Z</time>
      </trkpt>
      <trkpt lat="43.65847" lon="3.80273">
        <ele>145</ele>
        <time>2021-01-03T13:34:01Z</time>
      </trkpt>
      <trkpt lat="43.65843" lon="3.80271">
        <ele>147</ele>
        <time>2021-01-03T13:34:02Z</time>
      </trkpt>
      <trkpt lat="43.6584" lon="3.80269">
        <ele>145</ele>
        <time>2021-01-03T13:34:03Z</time>
      </trkpt>
      <trkpt lat="43.65837" lon="3.80268">
        <ele>145</ele>
        <time>2021-01-03T13:34:04Z</time>
      </trkpt>
      <trkpt lat="43.65834" lon="3.80266">
        <ele>145</ele>
        <time>2021-01-03T13:34:05Z</time>
      </trkpt>
      <trkpt lat="43.65831" lon="3.80264">
        <ele>145.1</ele>
        <time>2021-01-03T13:34:06Z</time>
      </trkpt>
      <trkpt lat="43.65828" lon="3.80262">
        <ele>145.2</ele>
        <time>2021-01-03T13:34:07Z</time>
      </trkpt>
      <trkpt lat="43.65826" lon="3.8026">
        <ele>145.3</ele>
        <time>2021-01-03T13:34:08Z</time>
      </trkpt>
      <trkpt lat="43.65823" lon="3.80259">
        <ele>145.4</ele>
        <time>2021-01-03T13:34:09Z</time>
      </trkpt>
      <trkpt lat="43.6582" lon="3.80258">
        <ele>145.5</ele>
        <time>2021-01-03T13:34:10Z</time>
      </trkpt>
      <trkpt lat="43.65817" lon="3.80257">
        <ele>145.6</ele>
        <time>2021-01-03T13:34:11Z</time>
      </trkpt>
      <trkpt lat="43.65814" lon="3.80255">
        <ele>148</ele>
        <time>2021-01-03T13:34:12Z</time>
      </trkpt>
      <trkpt lat="43.65812" lon="3.80254">
        <ele>145.8</ele>
        <time>2021-01-03T13:34:13Z</time>
      </trkpt>
      <trkpt lat="43.65809" lon="3.80252">
        <ele>145.9</ele>
        <time>2021-01-03T13:34:14Z</time>
      </trkpt>
      <trkpt lat="43.65807" lon="3.80251">
        <ele>145.9</ele>
        <time>2021-01-03T13:34:15Z</time>
      </trkpt>
      <trkpt lat="43.65804" lon="3.8025">
        <ele>146.1</ele>
        <time>2021-01-03T13:34:16Z</time>
      </trkpt>
      <trkpt lat="43.65801" lon="3.80248">
        <ele>146.2</ele>
        <time>2021-01-03T13:34:17Z</time>
      </trkpt>
      <trkpt lat="43.65799" lon="3.80247">
        <ele>146.2</ele>
        <time>2021-01-03T13:34:18Z</time>
      </trkpt>
      <trkpt lat="43.65796" lon="3.80246">
        <ele>146.3</ele>
        <time>2021-01-03T13:34:19Z</time>
      </trkpt>
      <trkpt lat="43.65793" lon="3.80245">
        <ele>146.5</ele>
        <time>2021-01-03T13:34:20Z</time>
      </trkpt>
      <trkpt lat="43.6579" lon="3.80244">
        <ele>146.6</ele>
        <time>2021-01-03T13:34:21Z</time>
      </trkpt>
      <trkpt lat="43.65787" lon="3.80243">
        <ele>148</ele>
        <time>2021-01-03T13:34:22Z</time>
      </trkpt>
      <trkpt lat="43.65784" lon="3.80242">
        <ele>146.8</ele>
        <time>2021-01-03T13:34:23Z</time>
      </trkpt>
      <trkpt lat="43.65781" lon="3.80241">
        <ele>146.9</ele>
        <time>2021-01-03T13:34:24Z</time>
      </trkpt>
      <trkpt lat="43.65778" lon="3.80239">
        <ele>147</ele>
        <time>2021-01-03T13:34:25Z</time>
      </trkpt>
      <trkpt lat="43.65775" lon="3.80238">
        <ele>147</ele>
        <time>2021-01-03T13:34:26Z</time>
      </trkpt>
      <trkpt lat="43.65772" lon="3.80236">
        <ele>147</ele>
        <time>2021-01-03T13:34:27Z</time>
      </trkpt>
      <trkpt lat="43.6577" lon="3.80235">
        <ele>147</ele>
        <time>2021-01-03T13:34:28Z</time>
      </trkpt>
      <trkpt lat="43.65767" lon="3.80233">
        <ele>147</ele>
        <time>2021-01-03T13:34:29Z</time>
      </trkpt>
      <trkpt lat="43.65764" lon="3.80232">
        <ele>147</ele>
        <time>2021-01-03T13:34:30Z</time>
      </trkpt>
      <trkpt lat="43.65761" lon="3.8023">
        <ele>147</ele>
        <time>2021-01-03T13:34:31Z</time>
      </trkpt>
      <trkpt lat="43.65758" lon="3.80229">
        <ele>149</ele>
        <time>2021-01-03T13:34:32Z</time>
      </trkpt>
      <trkpt lat="43.65755" lon="3.80227">
        <ele>147</ele>
        <time>2021-01-03T13:34:33Z</time>
      </trkpt>
      <trkpt lat="43.65752" lon="3.80225">
        <ele>147</ele>
        <time>2021-01-03T13:34:34Z</time>
      </trkpt>
      <trkpt lat="43.65749" lon="3.80224">
        <ele>147</ele>
        <time>2021-01-03T13:34:35Z</time>
      </trkpt>
      <trkpt lat="43.65747" lon="3.80222">
        <ele>147</ele>
        <time>2021-01-03T13:34:36Z</time>
      </trkpt>
      <trkpt lat="43.65743" lon="3.80221">
        <ele>147</ele>
        <time>2021-01-03T13:34:37Z</time>
      </trkpt>
      <trkpt lat="43.6574" lon="3.8022">
        <ele>147</ele>
        <time>2021-01-03T13:34:38Z</time>
      </trkpt>
      <trkpt lat="43.65737" lon="3.80218">
        <ele>147</ele>
        <time>2021-01-03T13:34:39Z</time>
      </trkpt>
      <trkpt lat="43.65734" lon="3.80216">
        <ele>147</ele>
        <time>2021-01-03T13:34:40Z</time>
      </trkpt>
      <trkpt lat="43.65731" lon="3.80215">
        <ele>147</ele>
        <time>2021-01-03T13:34:41Z</time>
      </trkpt>
      <trkpt lat="43.65727" lon="3.80214">
        <ele>149</ele>
        <time>2021-01-03T13:34:42Z</time>
      </trkpt>
      <trkpt lat="43.65724" lon="3.80214">
        <ele>147</ele>
        <time>2021-01-03T13:34:43Z</time>
      </trkpt>
      <trkpt lat="43.65721" lon="3.80213">
        <ele>147</ele>
        <time>2021-01-03T13:34:44Z</time>
      </trkpt>
      <trkpt lat="43.65717" lon="3.80213">
        <ele>147</ele>
        <time>2021-01-03T13:34:45Z</time>
      </trkpt>
      <trkpt lat="43.65714" lon="3.80212">
        <ele>147</ele>
        <time>2021-01-03T13:34:46Z</time>
      </trkpt>
      <trkpt lat="43.6571" lon="3.80212">
        <ele>147</ele>
        <time>2021-01-03T13:34:47Z</time>
      </trkpt>
      <trkpt lat="43.65706" lon="3.80211">
        <ele>147</ele>
        <time>2021-01-03T13:34:48Z</time>
      </trkpt>
      <trkpt lat="43.65703" lon="3.80211">
        <ele>147</ele>
        <time>2021-01-03T13:34:49Z</time>
      </trkpt>
      <trkpt lat="43.65699" lon="3.80211">
        <ele>147</ele>
        <time>2021-01-03T13:34:50Z</time>
      </trkpt>
      <trkpt lat="43.65696" lon="3.8021">
        <ele>147</ele>
        <time>2021-01-03T13:34:51Z</time>
      </trkpt>
      <trkpt lat="43.65692" lon="3.8021">
        <ele>149</ele>
        <time>2021-01-03T13:34:52Z</time>
      </trkpt>
      <trkpt lat="43.65689" lon="3.8021">
        <ele>147</ele>
        <time>2021-01-03T13:34:53Z</time>
      </trkpt>
      <trkpt lat="43.65686" lon="3.80209">
        <ele>147</ele>
        <time>2021-01-03T13:34:54Z</time>
      </trkpt>
      <trkpt lat="43.65682" lon="3.80209">
        <ele>147</ele>
        <time>2021-01-03T13:34:55Z</time>
      </trkpt>
      <trkpt lat="43.65679" lon="3.80209">
        <ele>147</ele>
        <time>2021-01-03T13:34:56Z</time>
      </trkpt>
      <trkpt lat="43.65676" lon="3.80209">
        <ele>147</ele>
        <time>2021-01-03T13:34:57Z</time>
      </trkpt>
      <trkpt lat="43.65673" lon="3.80208">
        <ele>147</ele>
        <time>2021-01-03T13:34:58Z</time>
      </trkpt>
      <trkpt lat="43.6567" lon="3.80208">
        <ele>147</ele>
        <time>2021-01-03T13:34:59Z</time>
      </trkpt>
      <trkpt lat="43.65667" lon="3.80208">
        <ele>147</ele>
        <time>2021-01-03T13:35:00Z</time>
      </trkpt>
      <trkpt lat="43.65664" lon="3.80208">
        <ele>147</ele>
        <time>2021-01-03T13:35:01Z</time>
      </trkpt>
      <trkpt lat="43.6566" lon="3.80208">
        <ele>149</ele>
        <time>2021-01-03T13:35:02Z</time>
      </trkpt>
      <trkpt lat="43.65657" lon="3.80207">
        <ele>146.8</ele>
        <time>2021-01-03T13:35:03Z</time>
      </trkpt>
      <trkpt lat="43.65653" lon="3.80207">
        <ele>146.7</ele>
        <time>2021-01-03T13:35:04Z</time>
      </trkpt>
      <trkpt lat="43.65649" lon="3.80206">
        <ele>146.6</ele>
        <time>2021-01-03T13:35:05Z</time>
      </trkpt>
      <trkpt lat="43.65645" lon="3.80205">
        <ele>146.5</ele>
        <time>2021-01-03T13:35:06Z</time>
      </trkpt>
      <trkpt lat="43.65641" lon="3.80205">
        <ele>146.4</ele>
        <time>2021-01-03T13:35:07Z</time>
      </trkpt>
      <trkpt lat="43.65636" lon="3.80204">
        <ele>146.3</ele>
        <time>2021-01-03T13:35:08Z</time>
      </trkpt>
      <trkpt lat="43.65632" lon="3.80203">
        <ele>146.2</ele>
        <time>2021-01-03T13:35:09Z</time>
      </trkpt>
      <trkpt lat="43.65628" lon="3.80203">
        <ele>146.2</ele>
        <time>2021-01-03T13:35:10Z</time>
      </trkpt>
      <trkpt lat="43.65624" lon="3.80202">
        <ele>146.1</ele>
        <time>2021-01-03T13:35:11Z</time>
      </trkpt>
      <trkpt lat="43.65621" lon="3.80201">
        <ele>149</ele>
        <time>2021-01-03T13:35:12Z</time>
      </trkpt>
      <trkpt lat="43.65617" lon="3.802">
        <ele>146</ele>
        <time>2021-01-03T13:35:13Z</time>
      </trkpt>
      <trkpt lat="43.65614" lon="3.80199">
        <ele>146</ele>
        <time>2021-01-03T13:35:14Z</time>
      </trkpt>
      <trkpt lat="43.6561" lon="3.80198">
        <ele>146</ele>
        <time>2021-01-03T13:35:15Z</time>
      </trkpt>
      <trkpt lat="43.65607" lon="3.80198">
        <ele>146</ele>
        <time>2021-01-03T13:35:16Z</time>
      </trkpt>
      <trkpt lat="43.65603" lon="3.80197">
        <ele>146</ele>
        <time>2021-01-03T13:35:17Z</time>
      </trkpt>
      <trkpt lat="43.656" lon="3.80195">
        <ele>146</ele>
        <time>2021-01-03T13:35:18Z</time>
      </trkpt>
      <trkpt lat="43.65596" lon="3.80194">
        <ele>146</ele>
        <time>2021-01-03T13:35:19Z</time>
      </trkpt>
      <trkpt lat="43.65592" lon="3.80192">
        <ele>146</ele>
        <time>2021-01-03T13:35:20Z</time>
      </trkpt>
      <trkpt lat="43.65588" lon="3.80191">
        <ele>146</ele>
        <time>2021-01-03T13:35:21Z</time>
      </trkpt>
      <trkpt lat="43.65585" lon="3.80189">
        <ele>149</ele>
        <time>2021-01-03T13:35:22Z</time>
      </trkpt>
      <trkpt lat="43.65581" lon="3.80185">
        <ele>146</ele>
        <time>2021-01-03T13:35:23Z</time>
      </trkpt>
      <trkpt lat="43.65579" lon="3.80181">
        <ele>146</ele>
        <time>2021-01-03T13:35:24Z</time>
      </trkpt>
      <trkpt lat="43.65577" lon="3.80177">
        <ele>146</ele>
        <time>2021-01-03T13:35:25Z</time>
      </trkpt>
      <trkpt lat="43.65576" lon="3.80172">
        <ele>146</ele>
        <time>2021-01-03T13:35:26Z</time>
      </trkpt>
      <trkpt lat="43.65574" lon="3.80168">
        <ele>146</ele>
        <time>2021-01-03T13:35:27Z</time>
      </trkpt>
      <trkpt lat="43.65573" lon="3.80163">
        <ele>146</ele>
        <time>2021-01-03T13:35:28Z</time>
      </trkpt>
      <trkpt lat="43.65571" lon="3.80159">
        <ele>146.1</ele>
        <time>2021-01-03T13:35:29Z</time>
      </trkpt>
      <trkpt lat="43.6557" lon="3.80155">
        <ele>146.2</ele>
        <time>2021-01-03T13:35:30Z</time>
      </trkpt>
      <trkpt lat="43.65568" lon="3.80153">
        <ele>146.3</ele>
        <time>2021-01-03T13:35:31Z</time>
      </trkpt>
      <trkpt lat="43.65565" lon="3.80153">
        <ele>149</ele>
        <time>2021-01-03T13:35:32Z</time>
      </trkpt>
      <trkpt lat="43.65561" lon="3.80155">
        <ele>146.3</ele>
        <time>2021-01-03T13:35:33Z</time>
      </trkpt>
      <trkpt lat="43.65558" lon="3.80157">
        <ele>146.3</ele>
        <time>2021-01-03T13:35:34Z</time>
      </trkpt>
      <trkpt lat="43.65555" lon="3.80159">
        <ele>146.3</ele>
        <time>2021-01-03T13:35:35Z</time>
      </trkpt>
      <trkpt lat="43.65552" lon="3.80159">
        <ele>146.2</ele>
        <time>2021-01-03T13:35:36Z</time>
      </trkpt>
      <trkpt lat="43.6555" lon="3.80157">
        <ele>146.3</ele>
        <time>2021-01-03T13:35:37Z</time>
      </trkpt>
      <trkpt lat="43.65548" lon="3.80155">
        <ele>146.3</ele>
        <time>2021-01-03T13:35:38Z</time>
      </trkpt>
      <trkpt lat="43.65545" lon="3.80154">
        <ele>146.3</ele>
        <time>2021-01-03T13:35:39Z</time>
      </trkpt>
      <trkpt lat="43.65542" lon="3.80152">
        <ele>146.3</ele>
        <time>2021-01-03T13:35:40Z</time>
      </trkpt>
      <trkpt lat="43.65538" lon="3.80151">
        <ele>146.2</ele>
        <time>2021-01-03T13:35:41Z</time>
      </trkpt>
      <trkpt lat="43.65534" lon="3.8015">
        <ele>149</ele>
        <time>2021-01-03T13:35:42Z</time>
      </trkpt>
      <trkpt lat="43.65531" lon="3.80149">
        <ele>146.1</ele>
        <time>2021-01-03T13:35:43Z</time>
      </trkpt>
      <trkpt lat="43.65527" lon="3.80148">
        <ele>146</ele>
        <time>2021-01-03T13:35:44Z</time>
      </trkpt>
      <trkpt lat="43.65522" lon="3.80147">
        <ele>145.9</ele>
        <time>2021-01-03T13:35:45Z</time>
      </trkpt>
      <trkpt lat="43.65518" lon="3.80146">
        <ele>145.9</ele>
        <time>2021-01-03T13:35:46Z</time>
      </trkpt>
      <trkpt lat="43.65515" lon="3.80144">
        <ele>145.9</ele>
        <time>2021-01-03T13:35:47Z</time>
      </trkpt>
      <trkpt lat="43.65512" lon="3.80141">
        <ele>146</ele>
        <time>2021-01-03T13:35:48Z</time>
      </trkpt>
      <trkpt lat="43.65509" lon="3.80137">
        <ele>146</ele>
        <time>2021-01-03T13:35:49Z</time>
      </trkpt>
      <trkpt lat="43.65506" lon="3.80134">
        <ele>146.1</ele>
        <time>2021-01-03T13:35:50Z</time>
      </trkpt>
      <trkpt lat="43.65502" lon="3.80131">
        <ele>146.3</ele>
        <time>2021-01-03T13:35:51Z</time>
      </trkpt>
      <trkpt lat="43.65499" lon="3.80128">
        <ele>146.4</ele>
        <time>2021-01-03T13:35:52Z</time>
      </trkpt>
      <trkpt lat="43.65495" lon="3.80125">
        <ele>149</ele>
        <time>2021-01-03T13:35:53Z</time>
      </trkpt>
      <trkpt lat="43.65491" lon="3.80122">
        <ele>146.6</ele>
        <time>2021-01-03T13:35:54Z</time>
      </trkpt>
      <trkpt lat="43.65488" lon="3.80119">
        <ele>146.7</ele>
        <time>2021-01-03T13:35:55Z</time>
      </trkpt>
      <trkpt lat="43.65485" lon="3.80115">
        <ele>146.9</ele>
        <time>2021-01-03T13:35:56Z</time>
      </trkpt>
      <trkpt lat="43.65482" lon="3.80112">
        <ele>147</ele>
        <time>2021-01-03T13:35:57Z</time>
      </trkpt>
      <trkpt lat="43.6548" lon="3.80108">
        <ele>147</ele>
        <time>2021-01-03T13:35:58Z</time>
      </trkpt>
      <trkpt lat="43.65478" lon="3.80105">
        <ele>147</ele>
        <time>2021-01-03T13:35:59Z</time>
      </trkpt>
      <trkpt lat="43.65475" lon="3.80102">
        <ele>147</ele>
        <time>2021-01-03T13:36:00Z</time>
      </trkpt>
      <trkpt lat="43.65473" lon="3.80099">
        <ele>147</ele>
        <time>2021-01-03T13:36:01Z</time>
      </trkpt>
      <trkpt lat="43.65471" lon="3.80096">
        <ele>150</ele>
        <time>2021-01-03T13:36:02Z</time>
      </trkpt>
      <trkpt lat="43.65469" lon="3.80093">
        <ele>147.1</ele>
        <time>2021-01-03T13:36:03Z</time>
      </trkpt>
      <trkpt lat="43.65467" lon="3.8009">
        <ele>147.1</ele>
        <time>2021-01-03T13:36:04Z</time>
      </trkpt>
      <trkpt lat="43.65466" lon="3.80087">
        <ele>147.2</ele>
        <time>2021-01-03T13:36:05Z</time>
      </trkpt>
      <trkpt lat="43.65466" lon="3.80083">
        <ele>147.2</ele>
        <time>2021-01-03T13:36:06Z</time>
      </trkpt>
      <trkpt lat="43.65467" lon="3.80078">
        <ele>147.3</ele>
        <time>2021-01-03T13:36:07Z</time>
      </trkpt>
      <trkpt lat="43.65468" lon="3.80075">
        <ele>147.4</ele>
        <time>2021-01-03T13:36:08Z</time>
      </trkpt>
      <trkpt lat="43.65469" lon="3.80071">
        <ele>147.5</ele>
        <time>2021-01-03T13:36:09Z</time>
      </trkpt>
      <trkpt lat="43.65471" lon="3.80068">
        <ele>147.6</ele>
        <time>2021-01-03T13:36:10Z</time>
      </trkpt>
      <trkpt lat="43.65473" lon="3.80066">
        <ele>147.6</ele>
        <time>2021-01-03T13:36:11Z</time>
      </trkpt>
      <trkpt lat="43.65475" lon="3.80063">
        <ele>150</ele>
        <time>2021-01-03T13:36:12Z</time>
      </trkpt>
      <trkpt lat="43.65477" lon="3.80061">
        <ele>147.8</ele>
        <time>2021-01-03T13:36:13Z</time>
      </trkpt>
      <trkpt lat="43.6548" lon="3.80059">
        <ele>147.9</ele>
        <time>2021-01-03T13:36:14Z</time>
      </trkpt>
      <trkpt lat="43.65483" lon="3.80057">
        <ele>147.9</ele>
        <time>2021-01-03T13:36:15Z</time>
      </trkpt>
      <trkpt lat="43.65486" lon="3.80055">
        <ele>148</ele>
        <time>2021-01-03T13:36:16Z</time>
      </trkpt>
      <trkpt lat="43.65489" lon="3.80053">
        <ele>148</ele>
        <time>2021-01-03T13:36:17Z</time>
      </trkpt>
      <trkpt lat="43.65492" lon="3.80051">
        <ele>148</ele>
        <time>2021-01-03T13:36:18Z</time>
      </trkpt>
      <trkpt lat="43.65495" lon="3.80049">
        <ele>148</ele>
        <time>2021-01-03T13:36:19Z</time>
      </trkpt>
      <trkpt lat="43.65497" lon="3.80047">
        <ele>148</ele>
        <time>2021-01-03T13:36:20Z</time>
      </trkpt>
      <trkpt lat="43.655" lon="3.80045">
        <ele>148</ele>
        <time>2021-01-03T13:36:21Z</time>
      </trkpt>
      <trkpt lat="43.65502" lon="3.80042">
        <ele>148</ele>
        <time>2021-01-03T13:36:22Z</time>
      </trkpt>
      <trkpt lat="43.65504" lon="3.80039">
        <ele>150</ele>
        <time>2021-01-03T13:36:23Z</time>
      </trkpt>
      <trkpt lat="43.65506" lon="3.80036">
        <ele>148</ele>
        <time>2021-01-03T13:36:24Z</time>
      </trkpt>
      <trkpt lat="43.65508" lon="3.80033">
        <ele>148</ele>
        <time>2021-01-03T13:36:25Z</time>
      </trkpt>
      <trkpt lat="43.6551" lon="3.8003">
        <ele>148</ele>
        <time>2021-01-03T13:36:26Z</time>
      </trkpt>
      <trkpt lat="43.65512" lon="3.80027">
        <ele>148</ele>
        <time>2021-01-03T13:36:27Z</time>
      </trkpt>
      <trkpt lat="43.65513" lon="3.80024">
        <ele>148.1</ele>
        <time>2021-01-03T13:36:28Z</time>
      </trkpt>
      <trkpt lat="43.65515" lon="3.80021">
        <ele>148.1</ele>
        <time>2021-01-03T13:36:29Z</time>
      </trkpt>
      <trkpt lat="43.65516" lon="3.80018">
        <ele>148.1</ele>
        <time>2021-01-03T13:36:30Z</time>
      </trkpt>
      <trkpt lat="43.65516" lon="3.80015">
        <ele>148.2</ele>
        <time>2021-01-03T13:36:31Z</time>
      </trkpt>
      <trkpt lat="43.65515" lon="3.80012">
        <ele>150</ele>
        <time>2021-01-03T13:36:32Z</time>
      </trkpt>
      <trkpt lat="43.65514" lon="3.80009">
        <ele>148.3</ele>
        <time>2021-01-03T13:36:33Z</time>
      </trkpt>
      <trkpt lat="43.65512" lon="3.80005">
        <ele>148.5</ele>
        <time>2021-01-03T13:36:34Z</time>
      </trkpt>
      <trkpt lat="43.6551" lon="3.80002">
        <ele>148.6</ele>
        <time>2021-01-03T13:36:35Z</time>
      </trkpt>
      <trkpt lat="43.65508" lon="3.79999">
        <ele>148.7</ele>
        <time>2021-01-03T13:36:36Z</time>
      </trkpt>
      <trkpt lat="43.65506" lon="3.79995">
        <ele>148.8</ele>
        <time>2021-01-03T13:36:37Z</time>
      </trkpt>
      <trkpt lat="43.65503" lon="3.79992">
        <ele>148.9</ele>
        <time>2021-01-03T13:36:38Z</time>
      </trkpt>
      <trkpt lat="43.65501" lon="3.79989">
        <ele>149</ele>
        <time>2021-01-03T13:36:39Z</time>
      </trkpt>
      <trkpt lat="43.65499" lon="3.79985">
        <ele>149</ele>
        <time>2021-01-03T13:36:40Z</time>
      </trkpt>
      <trkpt lat="43.65497" lon="3.79981">
        <ele>149</ele>
        <time>2021-01-03T13:36:41Z</time>
      </trkpt>
      <trkpt lat="43.65495" lon="3.79977">
        <ele>151</ele>
        <time>2021-01-03T13:36:42Z</time>
      </trkpt>
      <trkpt lat="43.65493" lon="3.79973">
        <ele>149</ele>
        <time>2021-01-03T13:36:43Z</time>
      </trkpt>
      <trkpt lat="43.6549" lon="3.79969">
        <ele>148.9</ele>
        <time>2021-01-03T13:36:44Z</time>
      </trkpt>
      <trkpt lat="43.65488" lon="3.79965">
        <ele>148.9</ele>
        <time>2021-01-03T13:36:45Z</time>
      </trkpt>
      <trkpt lat="43.65485" lon="3.79962">
        <ele>148.8</ele>
        <time>2021-01-03T13:36:46Z</time>
      </trkpt>
      <trkpt lat="43.65482" lon="3.79958">
        <ele>148.8</ele>
        <time>2021-01-03T13:36:47Z</time>
      </trkpt>
      <trkpt lat="43.6548" lon="3.79954">
        <ele>148.8</ele>
        <time>2021-01-03T13:36:48Z</time>
      </trkpt>
      <trkpt lat="43.65477" lon="3.7995">
        <ele>148.9</ele>
        <time>2021-01-03T13:36:49Z</time>
      </trkpt>
      <trkpt lat="43.65475" lon="3.79947">
        <ele>148.9</ele>
        <time>2021-01-03T13:36:50Z</time>
      </trkpt>
      <trkpt lat="43.65472" lon="3.79943">
        <ele>148.9</ele>
        <time>2021-01-03T13:36:51Z</time>
      </trkpt>
      <trkpt lat="43.6547" lon="3.7994">
        <ele>151</ele>
        <time>2021-01-03T13:36:52Z</time>
      </trkpt>
      <trkpt lat="43.65468" lon="3.79937">
        <ele>148.8</ele>
        <time>2021-01-03T13:36:53Z</time>
      </trkpt>
      <trkpt lat="43.65465" lon="3.79933">
        <ele>148.7</ele>
        <time>2021-01-03T13:36:54Z</time>
      </trkpt>
      <trkpt lat="43.65463" lon="3.79929">
        <ele>148.6</ele>
        <time>2021-01-03T13:36:55Z</time>
      </trkpt>
      <trkpt lat="43.6546" lon="3.79925">
        <ele>148.6</ele>
        <time>2021-01-03T13:36:56Z</time>
      </trkpt>
      <trkpt lat="43.65457" lon="3.79922">
        <ele>148.6</ele>
        <time>2021-01-03T13:36:57Z</time>
      </trkpt>
      <trkpt lat="43.65454" lon="3.79918">
        <ele>148.7</ele>
        <time>2021-01-03T13:36:58Z</time>
      </trkpt>
      <trkpt lat="43.65451" lon="3.79914">
        <ele>148.8</ele>
        <time>2021-01-03T13:36:59Z</time>
      </trkpt>
      <trkpt lat="43.65448" lon="3.79911">
        <ele>148.9</ele>
        <time>2021-01-03T13:37:00Z</time>
      </trkpt>
      <trkpt lat="43.65445" lon="3.79908">
        <ele>149</ele>
        <time>2021-01-03T13:37:01Z</time>
      </trkpt>
      <trkpt lat="43.65442" lon="3.79905">
        <ele>152</ele>
        <time>2021-01-03T13:37:02Z</time>
      </trkpt>
      <trkpt lat="43.65439" lon="3.79902">
        <ele>149</ele>
        <time>2021-01-03T13:37:03Z</time>
      </trkpt>
      <trkpt lat="43.65436" lon="3.799">
        <ele>149</ele>
        <time>2021-01-03T13:37:04Z</time>
      </trkpt>
      <trkpt lat="43.65433" lon="3.79897">
        <ele>149</ele>
        <time>2021-01-03T13:37:05Z</time>
      </trkpt>
      <trkpt lat="43.6543" lon="3.79894">
        <ele>149</ele>
        <time>2021-01-03T13:37:06Z</time>
      </trkpt>
      <trkpt lat="43.65427" lon="3.79891">
        <ele>149</ele>
        <time>2021-01-03T13:37:07Z</time>
      </trkpt>
      <trkpt lat="43.65424" lon="3.79888">
        <ele>149</ele>
        <time>2021-01-03T13:37:08Z</time>
      </trkpt>
      <trkpt lat="43.65421" lon="3.79886">
        <ele>149</ele>
        <time>2021-01-03T13:37:09Z</time>
      </trkpt>
      <trkpt lat="43.65419" lon="3.79883">
        <ele>149</ele>
        <time>2021-01-03T13:37:10Z</time>
      </trkpt>
      <trkpt lat="43.65416" lon="3.79881">
        <ele>149</ele>
        <time>2021-01-03T13:37:11Z</time>
      </trkpt>
      <trkpt lat="43.65413" lon="3.79878">
        <ele>152</ele>
        <time>2021-01-03T13:37:12Z</time>
      </trkpt>
      <trkpt lat="43.6541" lon="3.79876">
        <ele>149.2</ele>
        <time>2021-01-03T13:37:13Z</time>
      </trkpt>
      <trkpt lat="43.65407" lon="3.79874">
        <ele>149.3</ele>
        <time>2021-01-03T13:37:14Z</time>
      </trkpt>
      <trkpt lat="43.65405" lon="3.79871">
        <ele>149.4</ele>
        <time>2021-01-03T13:37:15Z</time>
      </trkpt>
      <trkpt lat="43.65402" lon="3.79869">
        <ele>149.5</ele>
        <time>2021-01-03T13:37:16Z</time>
      </trkpt>
      <trkpt lat="43.65399" lon="3.79867">
        <ele>149.6</ele>
        <time>2021-01-03T13:37:17Z</time>
      </trkpt>
      <trkpt lat="43.65397" lon="3.79864">
        <ele>149.7</ele>
        <time>2021-01-03T13:37:18Z</time>
      </trkpt>
      <trkpt lat="43.65394" lon="3.79862">
        <ele>149.8</ele>
        <time>2021-01-03T13:37:19Z</time>
      </trkpt>
      <trkpt lat="43.65391" lon="3.79859">
        <ele>149.9</ele>
        <time>2021-01-03T13:37:20Z</time>
      </trkpt>
      <trkpt lat="43.65388" lon="3.79857">
        <ele>150</ele>
        <time>2021-01-03T13:37:21Z</time>
      </trkpt>
      <trkpt lat="43.65385" lon="3.79855">
        <ele>153</ele>
        <time>2021-01-03T13:37:22Z</time>
      </trkpt>
      <trkpt lat="43.65382" lon="3.79852">
        <ele>150.2</ele>
        <time>2021-01-03T13:37:23Z</time>
      </trkpt>
      <trkpt lat="43.65379" lon="3.7985">
        <ele>150.2</ele>
        <time>2021-01-03T13:37:24Z</time>
      </trkpt>
      <trkpt lat="43.65377" lon="3.79847">
        <ele>150.2</ele>
        <time>2021-01-03T13:37:25Z</time>
      </trkpt>
      <trkpt lat="43.65374" lon="3.79845">
        <ele>150.2</ele>
        <time>2021-01-03T13:37:26Z</time>
      </trkpt>
      <trkpt lat="43.65371" lon="3.79843">
        <ele>150.2</ele>
        <time>2021-01-03T13:37:27Z</time>
      </trkpt>
      <trkpt lat="43.65369" lon="3.7984">
        <ele>150.2</ele>
        <time>2021-01-03T13:37:28Z</time>
      </trkpt>
      <trkpt lat="43.65366" lon="3.79838">
        <ele>150.1</ele>
        <time>2021-01-03T13:37:29Z</time>
      </trkpt>
      <trkpt lat="43.65364" lon="3.79836">
        <ele>150.1</ele>
        <time>2021-01-03T13:37:30Z</time>
      </trkpt>
      <trkpt lat="43.65361" lon="3.79834">
        <ele>150</ele>
        <time>2021-01-03T13:37:31Z</time>
      </trkpt>
      <trkpt lat="43.65359" lon="3.79831">
        <ele>153</ele>
        <time>2021-01-03T13:37:32Z</time>
      </trkpt>
      <trkpt lat="43.65356" lon="3.79829">
        <ele>149.8</ele>
        <time>2021-01-03T13:37:33Z</time>
      </trkpt>
      <trkpt lat="43.65353" lon="3.79827">
        <ele>149.6</ele>
        <time>2021-01-03T13:37:34Z</time>
      </trkpt>
      <trkpt lat="43.6535" lon="3.79824">
        <ele>149.5</ele>
        <time>2021-01-03T13:37:35Z</time>
      </trkpt>
      <trkpt lat="43.65347" lon="3.79822">
        <ele>149.3</ele>
        <time>2021-01-03T13:37:36Z</time>
      </trkpt>
      <trkpt lat="43.65344" lon="3.79819">
        <ele>149.1</ele>
        <time>2021-01-03T13:37:37Z</time>
      </trkpt>
      <trkpt lat="43.65341" lon="3.79816">
        <ele>148.8</ele>
        <time>2021-01-03T13:37:38Z</time>
      </trkpt>
      <trkpt lat="43.65338" lon="3.79813">
        <ele>148.6</ele>
        <time>2021-01-03T13:37:39Z</time>
      </trkpt>
      <trkpt lat="43.65335" lon="3.7981">
        <ele>148.3</ele>
        <time>2021-01-03T13:37:40Z</time>
      </trkpt>
      <trkpt lat="43.65331" lon="3.79807">
        <ele>147.9</ele>
        <time>2021-01-03T13:37:41Z</time>
      </trkpt>
      <trkpt lat="43.65328" lon="3.79804">
        <ele>151</ele>
        <time>2021-01-03T13:37:42Z</time>
      </trkpt>
      <trkpt lat="43.65325" lon="3.79802">
        <ele>147.4</ele>
        <time>2021-01-03T13:37:43Z</time>
      </trkpt>
      <trkpt lat="43.65321" lon="3.79799">
        <ele>147</ele>
        <time>2021-01-03T13:37:44Z</time>
      </trkpt>
      <trkpt lat="43.65318" lon="3.79796">
        <ele>146.7</ele>
        <time>2021-01-03T13:37:45Z</time>
      </trkpt>
      <trkpt lat="43.65315" lon="3.79792">
        <ele>146.4</ele>
        <time>2021-01-03T13:37:46Z</time>
      </trkpt>
      <trkpt lat="43.65311" lon="3.79789">
        <ele>145.9</ele>
        <time>2021-01-03T13:37:47Z</time>
      </trkpt>
      <trkpt lat="43.65308" lon="3.79786">
        <ele>145.5</ele>
        <time>2021-01-03T13:37:48Z</time>
      </trkpt>
      <trkpt lat="43.65304" lon="3.79782">
        <ele>145</ele>
        <time>2021-01-03T13:37:49Z</time>
      </trkpt>
      <trkpt lat="43.653" lon="3.79779">
        <ele>144.5</ele>
        <time>2021-01-03T13:37:50Z</time>
      </trkpt>
      <trkpt lat="43.65296" lon="3.79775">
        <ele>143.9</ele>
        <time>2021-01-03T13:37:51Z</time>
      </trkpt>
      <trkpt lat="43.65291" lon="3.79772">
        <ele>148</ele>
        <time>2021-01-03T13:37:52Z</time>
      </trkpt>
      <trkpt lat="43.65287" lon="3.79769">
        <ele>142.8</ele>
        <time>2021-01-03T13:37:53Z</time>
      </trkpt>
      <trkpt lat="43.65282" lon="3.79767">
        <ele>142.1</ele>
        <time>2021-01-03T13:37:54Z</time>
      </trkpt>
      <trkpt lat="43.65278" lon="3.79764">
        <ele>141.5</ele>
        <time>2021-01-03T13:37:55Z</time>
      </trkpt>
      <trkpt lat="43.65275" lon="3.79762">
        <ele>141</ele>
        <time>2021-01-03T13:37:56Z</time>
      </trkpt>
      <trkpt lat="43.65271" lon="3.79759">
        <ele>140.3</ele>
        <time>2021-01-03T13:37:57Z</time>
      </trkpt>
      <trkpt lat="43.65269" lon="3.79757">
        <ele>140</ele>
        <time>2021-01-03T13:37:58Z</time>
      </trkpt>
      <trkpt lat="43.65268" lon="3.79755">
        <ele>139.8</ele>
        <time>2021-01-03T13:37:59Z</time>
      </trkpt>
      <trkpt lat="43.65266" lon="3.79751">
        <ele>139.3</ele>
        <time>2021-01-03T13:38:01Z</time>
      </trkpt>
      <trkpt lat="43.65266" lon="3.79749">
        <ele>145</ele>
        <time>2021-01-03T13:38:02Z</time>
      </trkpt>
      <trkpt lat="43.65265" lon="3.79745">
        <ele>138.9</ele>
        <time>2021-01-03T13:38:03Z</time>
      </trkpt>
      <trkpt lat="43.65265" lon="3.79742">
        <ele>138.7</ele>
        <time>2021-01-03T13:38:04Z</time>
      </trkpt>
      <trkpt lat="43.65265" lon="3.79739">
        <ele>138.6</ele>
        <time>2021-01-03T13:38:05Z</time>
      </trkpt>
      <trkpt lat="43.65266" lon="3.79736">
        <ele>138.6</ele>
        <time>2021-01-03T13:38:06Z</time>
      </trkpt>
      <trkpt lat="43.65265" lon="3.79733">
        <ele>138.3</ele>
        <time>2021-01-03T13:38:07Z</time>
      </trkpt>
      <trkpt lat="43.65263" lon="3.7973">
        <ele>137.8</ele>
        <time>2021-01-03T13:38:08Z</time>
      </trkpt>
      <trkpt lat="43.6526" lon="3.79726">
        <ele>137</ele>
        <time>2021-01-03T13:38:09Z</time>
      </trkpt>
      <trkpt lat="43.65257" lon="3.79722">
        <ele>136.2</ele>
        <time>2021-01-03T13:38:10Z</time>
      </trkpt>
      <trkpt lat="43.65252" lon="3.79718">
        <ele>135.1</ele>
        <time>2021-01-03T13:38:11Z</time>
      </trkpt>
      <trkpt lat="43.65247" lon="3.79713">
        <ele>141</ele>
        <time>2021-01-03T13:38:12Z</time>
      </trkpt>
      <trkpt lat="43.65242" lon="3.79707">
        <ele>132.2</ele>
        <time>2021-01-03T13:38:13Z</time>
      </trkpt>
      <trkpt lat="43.65237" lon="3.79701">
        <ele>130.7</ele>
        <time>2021-01-03T13:38:14Z</time>
      </trkpt>
      <trkpt lat="43.65232" lon="3.79696">
        <ele>129.2</ele>
        <time>2021-01-03T13:38:15Z</time>
      </trkpt>
      <trkpt lat="43.65227" lon="3.79691">
        <ele>127.9</ele>
        <time>2021-01-03T13:38:16Z</time>
      </trkpt>
      <trkpt lat="43.65222" lon="3.79686">
        <ele>126.6</ele>
        <time>2021-01-03T13:38:17Z</time>
      </trkpt>
      <trkpt lat="43.65218" lon="3.79682">
        <ele>125.4</ele>
        <time>2021-01-03T13:38:18Z</time>
      </trkpt>
      <trkpt lat="43.65215" lon="3.79677">
        <ele>124.4</ele>
        <time>2021-01-03T13:38:19Z</time>
      </trkpt>
      <trkpt lat="43.65212" lon="3.79672">
        <ele>123.3</ele>
        <time>2021-01-03T13:38:20Z</time>
      </trkpt>
      <trkpt lat="43.6521" lon="3.79666">
        <ele>122.4</ele>
        <time>2021-01-03T13:38:21Z</time>
      </trkpt>
      <trkpt lat="43.6521" lon="3.79659">
        <ele>132</ele>
        <time>2021-01-03T13:38:22Z</time>
      </trkpt>
      <trkpt lat="43.6521" lon="3.79652">
        <ele>121.4</ele>
        <time>2021-01-03T13:38:23Z</time>
      </trkpt>
      <trkpt lat="43.65211" lon="3.79645">
        <ele>121.2</ele>
        <time>2021-01-03T13:38:24Z</time>
      </trkpt>
      <trkpt lat="43.65212" lon="3.79639">
        <ele>121.1</ele>
        <time>2021-01-03T13:38:25Z</time>
      </trkpt>
      <trkpt lat="43.65212" lon="3.79632">
        <ele>120.9</ele>
        <time>2021-01-03T13:38:26Z</time>
      </trkpt>
      <trkpt lat="43.65211" lon="3.79626">
        <ele>120.5</ele>
        <time>2021-01-03T13:38:27Z</time>
      </trkpt>
      <trkpt lat="43.6521" lon="3.79619">
        <ele>120.1</ele>
        <time>2021-01-03T13:38:28Z</time>
      </trkpt>
      <trkpt lat="43.65208" lon="3.79612">
        <ele>119.4</ele>
        <time>2021-01-03T13:38:29Z</time>
      </trkpt>
      <trkpt lat="43.65207" lon="3.79606">
        <ele>119.4</ele>
        <time>2021-01-03T13:38:30Z</time>
      </trkpt>
      <trkpt lat="43.65204" lon="3.79603">
        <ele>118.8</ele>
        <time>2021-01-03T13:38:31Z</time>
      </trkpt>
      <trkpt lat="43.652" lon="3.79602">
        <ele>127</ele>
        <time>2021-01-03T13:38:32Z</time>
      </trkpt>
      <trkpt lat="43.65195" lon="3.796">
        <ele>116.5</ele>
        <time>2021-01-03T13:38:33Z</time>
      </trkpt>
      <trkpt lat="43.6519" lon="3.79598">
        <ele>115.3</ele>
        <time>2021-01-03T13:38:34Z</time>
      </trkpt>
      <trkpt lat="43.65185" lon="3.79595">
        <ele>114.1</ele>
        <time>2021-01-03T13:38:35Z</time>
      </trkpt>
      <trkpt lat="43.65181" lon="3.79593">
        <ele>113.1</ele>
        <time>2021-01-03T13:38:36Z</time>
      </trkpt>
      <trkpt lat="43.65177" lon="3.7959">
        <ele>112.2</ele>
        <time>2021-01-03T13:38:37Z</time>
      </trkpt>
      <trkpt lat="43.65173" lon="3.79586">
        <ele>111.4</ele>
        <time>2021-01-03T13:38:38Z</time>
      </trkpt>
      <trkpt lat="43.6517" lon="3.79581">
        <ele>111.1</ele>
        <time>2021-01-03T13:38:39Z</time>
      </trkpt>
      <trkpt lat="43.65166" lon="3.79575">
        <ele>110.7</ele>
        <time>2021-01-03T13:38:40Z</time>
      </trkpt>
      <trkpt lat="43.65162" lon="3.79569">
        <ele>110.3</ele>
        <time>2021-01-03T13:38:41Z</time>
      </trkpt>
      <trkpt lat="43.65159" lon="3.79562">
        <ele>122</ele>
        <time>2021-01-03T13:38:42Z</time>
      </trkpt>
      <trkpt lat="43.65158" lon="3.79556">
        <ele>110.8</ele>
        <time>2021-01-03T13:38:43Z</time>
      </trkpt>
      <trkpt lat="43.65156" lon="3.7955">
        <ele>111</ele>
        <time>2021-01-03T13:38:44Z</time>
      </trkpt>
      <trkpt lat="43.65154" lon="3.79545">
        <ele>111.1</ele>
        <time>2021-01-03T13:38:45Z</time>
      </trkpt>
      <trkpt lat="43.65151" lon="3.79541">
        <ele>110.9</ele>
        <time>2021-01-03T13:38:46Z</time>
      </trkpt>
      <trkpt lat="43.65148" lon="3.79537">
        <ele>110.7</ele>
        <time>2021-01-03T13:38:47Z</time>
      </trkpt>
      <trkpt lat="43.65143" lon="3.79534">
        <ele>121</ele>
        <time>2021-01-03T13:38:48Z</time>
      </trkpt>
      <trkpt lat="43.65138" lon="3.7953">
        <ele>109.4</ele>
        <time>2021-01-03T13:38:49Z</time>
      </trkpt>
      <trkpt lat="43.65134" lon="3.79525">
        <ele>108.8</ele>
        <time>2021-01-03T13:38:50Z</time>
      </trkpt>
      <trkpt lat="43.65131" lon="3.79519">
        <ele>108.4</ele>
        <time>2021-01-03T13:38:51Z</time>
      </trkpt>
      <trkpt lat="43.65128" lon="3.79512">
        <ele>120</ele>
        <time>2021-01-03T13:38:52Z</time>
      </trkpt>
      <trkpt lat="43.65126" lon="3.79506">
        <ele>107.9</ele>
        <time>2021-01-03T13:38:53Z</time>
      </trkpt>
      <trkpt lat="43.65125" lon="3.795">
        <ele>108</ele>
        <time>2021-01-03T13:38:54Z</time>
      </trkpt>
      <trkpt lat="43.65123" lon="3.79493">
        <ele>107.7</ele>
        <time>2021-01-03T13:38:55Z</time>
      </trkpt>
      <trkpt lat="43.65121" lon="3.79486">
        <ele>107.4</ele>
        <time>2021-01-03T13:38:56Z</time>
      </trkpt>
      <trkpt lat="43.65119" lon="3.79478">
        <ele>107.1</ele>
        <time>2021-01-03T13:38:57Z</time>
      </trkpt>
      <trkpt lat="43.65117" lon="3.7947">
        <ele>106.8</ele>
        <time>2021-01-03T13:38:58Z</time>
      </trkpt>
      <trkpt lat="43.65115" lon="3.79461">
        <ele>106.5</ele>
        <time>2021-01-03T13:38:59Z</time>
      </trkpt>
      <trkpt lat="43.65113" lon="3.79452">
        <ele>106.3</ele>
        <time>2021-01-03T13:39:00Z</time>
      </trkpt>
      <trkpt lat="43.65111" lon="3.79444">
        <ele>106</ele>
        <time>2021-01-03T13:39:01Z</time>
      </trkpt>
      <trkpt lat="43.65109" lon="3.79435">
        <ele>117</ele>
        <time>2021-01-03T13:39:02Z</time>
      </trkpt>
      <trkpt lat="43.65108" lon="3.79427">
        <ele>105.7</ele>
        <time>2021-01-03T13:39:03Z</time>
      </trkpt>
      <trkpt lat="43.65106" lon="3.79418">
        <ele>105.5</ele>
        <time>2021-01-03T13:39:04Z</time>
      </trkpt>
      <trkpt lat="43.65106" lon="3.79409">
        <ele>105.8</ele>
        <time>2021-01-03T13:39:05Z</time>
      </trkpt>
      <trkpt lat="43.65107" lon="3.79402">
        <ele>106.3</ele>
        <time>2021-01-03T13:39:06Z</time>
      </trkpt>
      <trkpt lat="43.65108" lon="3.79395">
        <ele>106.8</ele>
        <time>2021-01-03T13:39:07Z</time>
      </trkpt>
      <trkpt lat="43.65109" lon="3.79389">
        <ele>107.3</ele>
        <time>2021-01-03T13:39:08Z</time>
      </trkpt>
      <trkpt lat="43.6511" lon="3.79384">
        <ele>107.5</ele>
        <time>2021-01-03T13:39:09Z</time>
      </trkpt>
      <trkpt lat="43.65112" lon="3.79379">
        <ele>107.8</ele>
        <time>2021-01-03T13:39:10Z</time>
      </trkpt>
      <trkpt lat="43.65112" lon="3.79374">
        <ele>107.7</ele>
        <time>2021-01-03T13:39:11Z</time>
      </trkpt>
      <trkpt lat="43.65113" lon="3.79369">
        <ele>116</ele>
        <time>2021-01-03T13:39:12Z</time>
      </trkpt>
      <trkpt lat="43.65114" lon="3.79363">
        <ele>107.7</ele>
        <time>2021-01-03T13:39:13Z</time>
      </trkpt>
      <trkpt lat="43.65115" lon="3.79358">
        <ele>107.7</ele>
        <time>2021-01-03T13:39:14Z</time>
      </trkpt>
      <trkpt lat="43.65117" lon="3.79354">
        <ele>108</ele>
        <time>2021-01-03T13:39:15Z</time>
      </trkpt>
      <trkpt lat="43.65119" lon="3.79351">
        <ele>108.2</ele>
        <time>2021-01-03T13:39:16Z</time>
      </trkpt>
      <trkpt lat="43.65121" lon="3.79349">
        <ele>108.5</ele>
        <time>2021-01-03T13:39:17Z</time>
      </trkpt>
      <trkpt lat="43.65123" lon="3.79352">
        <ele>109.1</ele>
        <time>2021-01-03T13:39:20Z</time>
      </trkpt>
      <trkpt lat="43.65124" lon="3.79354">
        <ele>109.4</ele>
        <time>2021-01-03T13:39:21Z</time>
      </trkpt>
      <trkpt lat="43.65125" lon="3.79356">
        <ele>116</ele>
        <time>2021-01-03T13:39:22Z</time>
      </trkpt>
      <trkpt lat="43.65126" lon="3.79358">
        <ele>110</ele>
        <time>2021-01-03T13:39:23Z</time>
      </trkpt>
      <trkpt lat="43.65127" lon="3.79362">
        <ele>110.5</ele>
        <time>2021-01-03T13:39:25Z</time>
      </trkpt>
      <trkpt lat="43.65128" lon="3.79366">
        <ele>110.8</ele>
        <time>2021-01-03T13:39:27Z</time>
      </trkpt>
      <trkpt lat="43.6513" lon="3.7937">
        <ele>111.4</ele>
        <time>2021-01-03T13:39:29Z</time>
      </trkpt>
      <trkpt lat="43.65131" lon="3.79373">
        <ele>111.7</ele>
        <time>2021-01-03T13:39:31Z</time>
      </trkpt>
      <trkpt lat="43.65132" lon="3.79376">
        <ele>117</ele>
        <time>2021-01-03T13:39:33Z</time>
      </trkpt>
      <trkpt lat="43.65134" lon="3.7938">
        <ele>112.6</ele>
        <time>2021-01-03T13:39:35Z</time>
      </trkpt>
      <trkpt lat="43.65135" lon="3.79383">
        <ele>112.9</ele>
        <time>2021-01-03T13:39:37Z</time>
      </trkpt>
      <trkpt lat="43.65137" lon="3.79386">
        <ele>113.5</ele>
        <time>2021-01-03T13:39:39Z</time>
      </trkpt>
      <trkpt lat="43.65138" lon="3.79389">
        <ele>113.8</ele>
        <time>2021-01-03T13:39:41Z</time>
      </trkpt>
      <trkpt lat="43.65139" lon="3.79392">
        <ele>114.1</ele>
        <time>2021-01-03T13:39:43Z</time>
      </trkpt>
      <trkpt lat="43.65141" lon="3.79395">
        <ele>114.5</ele>
        <time>2021-01-03T13:39:45Z</time>
      </trkpt>
      <trkpt lat="43.65143" lon="3.79399">
        <ele>115</ele>
        <time>2021-01-03T13:39:47Z</time>
      </trkpt>
      <trkpt lat="43.65145" lon="3.79403">
        <ele>115.4</ele>
        <time>2021-01-03T13:39:49Z</time>
      </trkpt>
      <trkpt lat="43.65147" lon="3.79406">
        <ele>115.8</ele>
        <time>2021-01-03T13:39:51Z</time>
      </trkpt>
      <trkpt lat="43.65149" lon="3.7941">
        <ele>120</ele>
        <time>2021-01-03T13:39:52Z</time>
      </trkpt>
      <trkpt lat="43.65151" lon="3.79414">
        <ele>116.6</ele>
        <time>2021-01-03T13:39:54Z</time>
      </trkpt>
      <trkpt lat="43.65153" lon="3.79417">
        <ele>117</ele>
        <time>2021-01-03T13:39:56Z</time>
      </trkpt>
      <trkpt lat="43.65154" lon="3.79421">
        <ele>117.1</ele>
        <time>2021-01-03T13:39:58Z</time>
      </trkpt>
      <trkpt lat="43.65155" lon="3.79425">
        <ele>117.2</ele>
        <time>2021-01-03T13:40:00Z</time>
      </trkpt>
      <trkpt lat="43.65157" lon="3.79429">
        <ele>117.5</ele>
        <time>2021-01-03T13:40:03Z</time>
      </trkpt>
      <trkpt lat="43.65158" lon="3.79434">
        <ele>117.6</ele>
        <time>2021-01-03T13:40:05Z</time>
      </trkpt>
      <trkpt lat="43.65159" lon="3.79438">
        <ele>117.7</ele>
        <time>2021-01-03T13:40:07Z</time>
      </trkpt>
      <trkpt lat="43.6516" lon="3.79442">
        <ele>117.8</ele>
        <time>2021-01-03T13:40:09Z</time>
      </trkpt>
      <trkpt lat="43.65162" lon="3.79446">
        <ele>118.2</ele>
        <time>2021-01-03T13:40:11Z</time>
      </trkpt>
      <trkpt lat="43.65163" lon="3.7945">
        <ele>118.3</ele>
        <time>2021-01-03T13:40:13Z</time>
      </trkpt>
      <trkpt lat="43.65165" lon="3.79454">
        <ele>118.7</ele>
        <time>2021-01-03T13:40:15Z</time>
      </trkpt>
      <trkpt lat="43.65166" lon="3.79458">
        <ele>118.9</ele>
        <time>2021-01-03T13:40:17Z</time>
      </trkpt>
      <trkpt lat="43.65168" lon="3.79462">
        <ele>119.1</ele>
        <time>2021-01-03T13:40:19Z</time>
      </trkpt>
      <trkpt lat="43.65169" lon="3.79465">
        <ele>119.3</ele>
        <time>2021-01-03T13:40:21Z</time>
      </trkpt>
      <trkpt lat="43.65171" lon="3.79469">
        <ele>123</ele>
        <time>2021-01-03T13:40:22Z</time>
      </trkpt>
      <trkpt lat="43.65173" lon="3.79473">
        <ele>119.7</ele>
        <time>2021-01-03T13:40:24Z</time>
      </trkpt>
      <trkpt lat="43.65174" lon="3.79477">
        <ele>119.6</ele>
        <time>2021-01-03T13:40:27Z</time>
      </trkpt>
      <trkpt lat="43.65176" lon="3.7948">
        <ele>119.7</ele>
        <time>2021-01-03T13:40:29Z</time>
      </trkpt>
      <trkpt lat="43.65177" lon="3.79483">
        <ele>119.7</ele>
        <time>2021-01-03T13:40:31Z</time>
      </trkpt>
      <trkpt lat="43.65178" lon="3.79487">
        <ele>119.7</ele>
        <time>2021-01-03T13:40:33Z</time>
      </trkpt>
      <trkpt lat="43.6518" lon="3.79491">
        <ele>119.8</ele>
        <time>2021-01-03T13:40:35Z</time>
      </trkpt>
      <trkpt lat="43.65183" lon="3.79494">
        <ele>120</ele>
        <time>2021-01-03T13:40:37Z</time>
      </trkpt>
      <trkpt lat="43.65184" lon="3.79496">
        <ele>120</ele>
        <time>2021-01-03T13:40:38Z</time>
      </trkpt>
      <trkpt lat="43.65186" lon="3.79497">
        <ele>120.2</ele>
        <time>2021-01-03T13:40:39Z</time>
      </trkpt>
      <trkpt lat="43.65188" lon="3.79498">
        <ele>120.4</ele>
        <time>2021-01-03T13:40:40Z</time>
      </trkpt>
      <trkpt lat="43.6519" lon="3.795">
        <ele>120.5</ele>
        <time>2021-01-03T13:40:41Z</time>
      </trkpt>
      <trkpt lat="43.65191" lon="3.79501">
        <ele>124</ele>
        <time>2021-01-03T13:40:42Z</time>
      </trkpt>
      <trkpt lat="43.65193" lon="3.79502">
        <ele>120.8</ele>
        <time>2021-01-03T13:40:43Z</time>
      </trkpt>
      <trkpt lat="43.65195" lon="3.79504">
        <ele>120.9</ele>
        <time>2021-01-03T13:40:44Z</time>
      </trkpt>
      <trkpt lat="43.65196" lon="3.79505">
        <ele>121</ele>
        <time>2021-01-03T13:40:45Z</time>
      </trkpt>
      <trkpt lat="43.65199" lon="3.79507">
        <ele>121.3</ele>
        <time>2021-01-03T13:40:47Z</time>
      </trkpt>
      <trkpt lat="43.65202" lon="3.79509">
        <ele>121.6</ele>
        <time>2021-01-03T13:40:49Z</time>
      </trkpt>
      <trkpt lat="43.65204" lon="3.79511">
        <ele>121.8</ele>
        <time>2021-01-03T13:40:51Z</time>
      </trkpt>
      <trkpt lat="43.65207" lon="3.79513">
        <ele>122.1</ele>
        <time>2021-01-03T13:40:53Z</time>
      </trkpt>
      <trkpt lat="43.65209" lon="3.79515">
        <ele>122.3</ele>
        <time>2021-01-03T13:40:54Z</time>
      </trkpt>
      <trkpt lat="43.6521" lon="3.79516">
        <ele>122.4</ele>
        <time>2021-01-03T13:40:55Z</time>
      </trkpt>
      <trkpt lat="43.65212" lon="3.79517">
        <ele>122.7</ele>
        <time>2021-01-03T13:40:56Z</time>
      </trkpt>
      <trkpt lat="43.65214" lon="3.79518">
        <ele>122.9</ele>
        <time>2021-01-03T13:40:57Z</time>
      </trkpt>
      <trkpt lat="43.65215" lon="3.79519">
        <ele>123</ele>
        <time>2021-01-03T13:40:58Z</time>
      </trkpt>
      <trkpt lat="43.65219" lon="3.7952">
        <ele>123.6</ele>
        <time>2021-01-03T13:41:00Z</time>
      </trkpt>
      <trkpt lat="43.65222" lon="3.79519">
        <ele>126</ele>
        <time>2021-01-03T13:41:02Z</time>
      </trkpt>
      <trkpt lat="43.65226" lon="3.7952">
        <ele>124.3</ele>
        <time>2021-01-03T13:41:04Z</time>
      </trkpt>
      <trkpt lat="43.65229" lon="3.79519">
        <ele>124.5</ele>
        <time>2021-01-03T13:41:06Z</time>
      </trkpt>
      <trkpt lat="43.65232" lon="3.79519">
        <ele>124.7</ele>
        <time>2021-01-03T13:41:08Z</time>
      </trkpt>
      <trkpt lat="43.65234" lon="3.79519">
        <ele>124.8</ele>
        <time>2021-01-03T13:41:10Z</time>
      </trkpt>
      <trkpt lat="43.65237" lon="3.79519">
        <ele>128</ele>
        <time>2021-01-03T13:41:12Z</time>
      </trkpt>
      <trkpt lat="43.6524" lon="3.79519">
        <ele>125.3</ele>
        <time>2021-01-03T13:41:14Z</time>
      </trkpt>
      <trkpt lat="43.65242" lon="3.79519">
        <ele>125.4</ele>
        <time>2021-01-03T13:41:16Z</time>
      </trkpt>
      <trkpt lat="43.65245" lon="3.79519">
        <ele>125.6</ele>
        <time>2021-01-03T13:41:18Z</time>
      </trkpt>
      <trkpt lat="43.65248" lon="3.79519">
        <ele>125.9</ele>
        <time>2021-01-03T13:41:20Z</time>
      </trkpt>
      <trkpt lat="43.65251" lon="3.79518">
        <ele>126.1</ele>
        <time>2021-01-03T13:41:22Z</time>
      </trkpt>
      <trkpt lat="43.65255" lon="3.79518">
        <ele>126.4</ele>
        <time>2021-01-03T13:41:24Z</time>
      </trkpt>
      <trkpt lat="43.65258" lon="3.79517">
        <ele>126.6</ele>
        <time>2021-01-03T13:41:26Z</time>
      </trkpt>
      <trkpt lat="43.65261" lon="3.79516">
        <ele>126.9</ele>
        <time>2021-01-03T13:41:28Z</time>
      </trkpt>
      <trkpt lat="43.65264" lon="3.79516">
        <ele>127.1</ele>
        <time>2021-01-03T13:41:30Z</time>
      </trkpt>
      <trkpt lat="43.65266" lon="3.79516">
        <ele>131</ele>
        <time>2021-01-03T13:41:32Z</time>
      </trkpt>
      <trkpt lat="43.65269" lon="3.79516">
        <ele>127.5</ele>
        <time>2021-01-03T13:41:34Z</time>
      </trkpt>
      <trkpt lat="43.65271" lon="3.79515">
        <ele>127.6</ele>
        <time>2021-01-03T13:41:36Z</time>
      </trkpt>
      <trkpt lat="43.65274" lon="3.79515">
        <ele>127.8</ele>
        <time>2021-01-03T13:41:38Z</time>
      </trkpt>
      <trkpt lat="43.65277" lon="3.79516">
        <ele>128.1</ele>
        <time>2021-01-03T13:41:40Z</time>
      </trkpt>
      <trkpt lat="43.6528" lon="3.79515">
        <ele>133</ele>
        <time>2021-01-03T13:41:42Z</time>
      </trkpt>
      <trkpt lat="43.65282" lon="3.79515">
        <ele>128.3</ele>
        <time>2021-01-03T13:41:43Z</time>
      </trkpt>
      <trkpt lat="43.65284" lon="3.79514">
        <ele>128.3</ele>
        <time>2021-01-03T13:41:44Z</time>
      </trkpt>
      <trkpt lat="43.65286" lon="3.79513">
        <ele>128.4</ele>
        <time>2021-01-03T13:41:45Z</time>
      </trkpt>
      <trkpt lat="43.65287" lon="3.79512">
        <ele>128.3</ele>
        <time>2021-01-03T13:41:46Z</time>
      </trkpt>
      <trkpt lat="43.65289" lon="3.79511">
        <ele>128.4</ele>
        <time>2021-01-03T13:41:47Z</time>
      </trkpt>
      <trkpt lat="43.65291" lon="3.79509">
        <ele>128.3</ele>
        <time>2021-01-03T13:41:48Z</time>
      </trkpt>
      <trkpt lat="43.65293" lon="3.79508">
        <ele>128.3</ele>
        <time>2021-01-03T13:41:49Z</time>
      </trkpt>
      <trkpt lat="43.65295" lon="3.79506">
        <ele>128.2</ele>
        <time>2021-01-03T13:41:50Z</time>
      </trkpt>
      <trkpt lat="43.65297" lon="3.79504">
        <ele>128.1</ele>
        <time>2021-01-03T13:41:51Z</time>
      </trkpt>
      <trkpt lat="43.65299" lon="3.79502">
        <ele>128</ele>
        <time>2021-01-03T13:41:52Z</time>
      </trkpt>
      <trkpt lat="43.65301" lon="3.79501">
        <ele>133</ele>
        <time>2021-01-03T13:41:53Z</time>
      </trkpt>
      <trkpt lat="43.65303" lon="3.79499">
        <ele>127.8</ele>
        <time>2021-01-03T13:41:54Z</time>
      </trkpt>
      <trkpt lat="43.65305" lon="3.79498">
        <ele>127.8</ele>
        <time>2021-01-03T13:41:55Z</time>
      </trkpt>
      <trkpt lat="43.65307" lon="3.79496">
        <ele>127.9</ele>
        <time>2021-01-03T13:41:56Z</time>
      </trkpt>
      <trkpt lat="43.65309" lon="3.79495">
        <ele>128</ele>
        <time>2021-01-03T13:41:57Z</time>
      </trkpt>
      <trkpt lat="43.65311" lon="3.79494">
        <ele>128.2</ele>
        <time>2021-01-03T13:41:58Z</time>
      </trkpt>
      <trkpt lat="43.65313" lon="3.79492">
        <ele>128.2</ele>
        <time>2021-01-03T13:41:59Z</time>
      </trkpt>
      <trkpt lat="43.65315" lon="3.79491">
        <ele>128.4</ele>
        <time>2021-01-03T13:42:00Z</time>
      </trkpt>
      <trkpt lat="43.65316" lon="3.79489">
        <ele>128.3</ele>
        <time>2021-01-03T13:42:01Z</time>
      </trkpt>
      <trkpt lat="43.65317" lon="3.79486">
        <ele>133</ele>
        <time>2021-01-03T13:42:02Z</time>
      </trkpt>
      <trkpt lat="43.65319" lon="3.79484">
        <ele>128.3</ele>
        <time>2021-01-03T13:42:03Z</time>
      </trkpt>
      <trkpt lat="43.6532" lon="3.79482">
        <ele>128.3</ele>
        <time>2021-01-03T13:42:04Z</time>
      </trkpt>
      <trkpt lat="43.65322" lon="3.7948">
        <ele>128.3</ele>
        <time>2021-01-03T13:42:05Z</time>
      </trkpt>
      <trkpt lat="43.65323" lon="3.79477">
        <ele>128.2</ele>
        <time>2021-01-03T13:42:06Z</time>
      </trkpt>
      <trkpt lat="43.65324" lon="3.79474">
        <ele>128.1</ele>
        <time>2021-01-03T13:42:07Z</time>
      </trkpt>
      <trkpt lat="43.65326" lon="3.79472">
        <ele>128.2</ele>
        <time>2021-01-03T13:42:08Z</time>
      </trkpt>
      <trkpt lat="43.65328" lon="3.79469">
        <ele>128.2</ele>
        <time>2021-01-03T13:42:09Z</time>
      </trkpt>
      <trkpt lat="43.6533" lon="3.79467">
        <ele>128.3</ele>
        <time>2021-01-03T13:42:10Z</time>
      </trkpt>
      <trkpt lat="43.65331" lon="3.79464">
        <ele>128.2</ele>
        <time>2021-01-03T13:42:11Z</time>
      </trkpt>
      <trkpt lat="43.65332" lon="3.7946">
        <ele>133</ele>
        <time>2021-01-03T13:42:12Z</time>
      </trkpt>
      <trkpt lat="43.65334" lon="3.79457">
        <ele>128</ele>
        <time>2021-01-03T13:42:13Z</time>
      </trkpt>
      <trkpt lat="43.65336" lon="3.79454">
        <ele>128</ele>
        <time>2021-01-03T13:42:14Z</time>
      </trkpt>
      <trkpt lat="43.65338" lon="3.7945">
        <ele>127.9</ele>
        <time>2021-01-03T13:42:15Z</time>
      </trkpt>
      <trkpt lat="43.65339" lon="3.79447">
        <ele>127.8</ele>
        <time>2021-01-03T13:42:16Z</time>
      </trkpt>
      <trkpt lat="43.65341" lon="3.79444">
        <ele>127.8</ele>
        <time>2021-01-03T13:42:17Z</time>
      </trkpt>
      <trkpt lat="43.65343" lon="3.79441">
        <ele>127.8</ele>
        <time>2021-01-03T13:42:18Z</time>
      </trkpt>
      <trkpt lat="43.65344" lon="3.79438">
        <ele>127.7</ele>
        <time>2021-01-03T13:42:19Z</time>
      </trkpt>
      <trkpt lat="43.65346" lon="3.79436">
        <ele>127.8</ele>
        <time>2021-01-03T13:42:20Z</time>
      </trkpt>
      <trkpt lat="43.65347" lon="3.79433">
        <ele>127.7</ele>
        <time>2021-01-03T13:42:21Z</time>
      </trkpt>
      <trkpt lat="43.65347" lon="3.79431">
        <ele>132</ele>
        <time>2021-01-03T13:42:22Z</time>
      </trkpt>
      <trkpt lat="43.65347" lon="3.79427">
        <ele>127.2</ele>
        <time>2021-01-03T13:42:23Z</time>
      </trkpt>
      <trkpt lat="43.65348" lon="3.79424">
        <ele>127.1</ele>
        <time>2021-01-03T13:42:24Z</time>
      </trkpt>
      <trkpt lat="43.65348" lon="3.79421">
        <ele>126.9</ele>
        <time>2021-01-03T13:42:25Z</time>
      </trkpt>
      <trkpt lat="43.65349" lon="3.79417">
        <ele>126.7</ele>
        <time>2021-01-03T13:42:26Z</time>
      </trkpt>
      <trkpt lat="43.6535" lon="3.79413">
        <ele>126.5</ele>
        <time>2021-01-03T13:42:27Z</time>
      </trkpt>
      <trkpt lat="43.65351" lon="3.79409">
        <ele>126.4</ele>
        <time>2021-01-03T13:42:28Z</time>
      </trkpt>
      <trkpt lat="43.65353" lon="3.79406">
        <ele>126.4</ele>
        <time>2021-01-03T13:42:29Z</time>
      </trkpt>
      <trkpt lat="43.65354" lon="3.79402">
        <ele>126.2</ele>
        <time>2021-01-03T13:42:30Z</time>
      </trkpt>
      <trkpt lat="43.65356" lon="3.79399">
        <ele>126.2</ele>
        <time>2021-01-03T13:42:31Z</time>
      </trkpt>
      <trkpt lat="43.65358" lon="3.79395">
        <ele>126.1</ele>
        <time>2021-01-03T13:42:32Z</time>
      </trkpt>
      <trkpt lat="43.6536" lon="3.7939">
        <ele>132</ele>
        <time>2021-01-03T13:42:33Z</time>
      </trkpt>
      <trkpt lat="43.65362" lon="3.79385">
        <ele>125.7</ele>
        <time>2021-01-03T13:42:34Z</time>
      </trkpt>
      <trkpt lat="43.65363" lon="3.7938">
        <ele>125.2</ele>
        <time>2021-01-03T13:42:35Z</time>
      </trkpt>
      <trkpt lat="43.65365" lon="3.79374">
        <ele>124.8</ele>
        <time>2021-01-03T13:42:36Z</time>
      </trkpt>
      <trkpt lat="43.65368" lon="3.79368">
        <ele>124.5</ele>
        <time>2021-01-03T13:42:37Z</time>
      </trkpt>
      <trkpt lat="43.6537" lon="3.79361">
        <ele>123.9</ele>
        <time>2021-01-03T13:42:38Z</time>
      </trkpt>
      <trkpt lat="43.65374" lon="3.79355">
        <ele>123.7</ele>
        <time>2021-01-03T13:42:39Z</time>
      </trkpt>
      <trkpt lat="43.65377" lon="3.79348">
        <ele>123.2</ele>
        <time>2021-01-03T13:42:40Z</time>
      </trkpt>
      <trkpt lat="43.65381" lon="3.79342">
        <ele>122.8</ele>
        <time>2021-01-03T13:42:41Z</time>
      </trkpt>
      <trkpt lat="43.65386" lon="3.79335">
        <ele>122.1</ele>
        <time>2021-01-03T13:42:42Z</time>
      </trkpt>
      <trkpt lat="43.6539" lon="3.79329">
        <ele>132</ele>
        <time>2021-01-03T13:42:43Z</time>
      </trkpt>
      <trkpt lat="43.65395" lon="3.79323">
        <ele>121.5</ele>
        <time>2021-01-03T13:42:44Z</time>
      </trkpt>
      <trkpt lat="43.65399" lon="3.79318">
        <ele>121.2</ele>
        <time>2021-01-03T13:42:45Z</time>
      </trkpt>
      <trkpt lat="43.65403" lon="3.79313">
        <ele>120.7</ele>
        <time>2021-01-03T13:42:46Z</time>
      </trkpt>
      <trkpt lat="43.65406" lon="3.79307">
        <ele>119.9</ele>
        <time>2021-01-03T13:42:47Z</time>
      </trkpt>
      <trkpt lat="43.6541" lon="3.79302">
        <ele>119</ele>
        <time>2021-01-03T13:42:48Z</time>
      </trkpt>
      <trkpt lat="43.65413" lon="3.79297">
        <ele>118.1</ele>
        <time>2021-01-03T13:42:49Z</time>
      </trkpt>
      <trkpt lat="43.65415" lon="3.79293">
        <ele>117.3</ele>
        <time>2021-01-03T13:42:50Z</time>
      </trkpt>
      <trkpt lat="43.65418" lon="3.79287">
        <ele>116</ele>
        <time>2021-01-03T13:42:51Z</time>
      </trkpt>
      <trkpt lat="43.6542" lon="3.79282">
        <ele>128</ele>
        <time>2021-01-03T13:42:52Z</time>
      </trkpt>
      <trkpt lat="43.65423" lon="3.79277">
        <ele>113.6</ele>
        <time>2021-01-03T13:42:53Z</time>
      </trkpt>
      <trkpt lat="43.65426" lon="3.79273">
        <ele>112.6</ele>
        <time>2021-01-03T13:42:54Z</time>
      </trkpt>
      <trkpt lat="43.65428" lon="3.79269">
        <ele>111.6</ele>
        <time>2021-01-03T13:42:55Z</time>
      </trkpt>
      <trkpt lat="43.65431" lon="3.79266">
        <ele>110.7</ele>
        <time>2021-01-03T13:42:56Z</time>
      </trkpt>
      <trkpt lat="43.65433" lon="3.79264">
        <ele>110.1</ele>
        <time>2021-01-03T13:42:57Z</time>
      </trkpt>
      <trkpt lat="43.65435" lon="3.79261">
        <ele>109.3</ele>
        <time>2021-01-03T13:42:58Z</time>
      </trkpt>
      <trkpt lat="43.65436" lon="3.79259">
        <ele>108.8</ele>
        <time>2021-01-03T13:42:59Z</time>
      </trkpt>
      <trkpt lat="43.65438" lon="3.79256">
        <ele>107.9</ele>
        <time>2021-01-03T13:43:00Z</time>
      </trkpt>
      <trkpt lat="43.65439" lon="3.79252">
        <ele>106.9</ele>
        <time>2021-01-03T13:43:01Z</time>
      </trkpt>
      <trkpt lat="43.65441" lon="3.79248">
        <ele>124</ele>
        <time>2021-01-03T13:43:02Z</time>
      </trkpt>
      <trkpt lat="43.65442" lon="3.79244">
        <ele>104.3</ele>
        <time>2021-01-03T13:43:03Z</time>
      </trkpt>
      <trkpt lat="43.65444" lon="3.79241">
        <ele>103.1</ele>
        <time>2021-01-03T13:43:04Z</time>
      </trkpt>
      <trkpt lat="43.65446" lon="3.79238">
        <ele>102</ele>
        <time>2021-01-03T13:43:05Z</time>
      </trkpt>
      <trkpt lat="43.65448" lon="3.79235">
        <ele>101</ele>
        <time>2021-01-03T13:43:06Z</time>
      </trkpt>
      <trkpt lat="43.6545" lon="3.79232">
        <ele>100</ele>
        <time>2021-01-03T13:43:07Z</time>
      </trkpt>
      <trkpt lat="43.65452" lon="3.79228">
        <ele>98.8</ele>
        <time>2021-01-03T13:43:08Z</time>
      </trkpt>
      <trkpt lat="43.65454" lon="3.79225">
        <ele>97.8</ele>
        <time>2021-01-03T13:43:09Z</time>
      </trkpt>
      <trkpt lat="43.65456" lon="3.79222">
        <ele>96.9</ele>
        <time>2021-01-03T13:43:10Z</time>
      </trkpt>
      <trkpt lat="43.65457" lon="3.79219">
        <ele>96.1</ele>
        <time>2021-01-03T13:43:11Z</time>
      </trkpt>
      <trkpt lat="43.65457" lon="3.79216">
        <ele>114</ele>
        <time>2021-01-03T13:43:12Z</time>
      </trkpt>
      <trkpt lat="43.65457" lon="3.79213">
        <ele>94.5</ele>
        <time>2021-01-03T13:43:13Z</time>
      </trkpt>
      <trkpt lat="43.65458" lon="3.7921">
        <ele>93.7</ele>
        <time>2021-01-03T13:43:14Z</time>
      </trkpt>
      <trkpt lat="43.65459" lon="3.79207">
        <ele>92.9</ele>
        <time>2021-01-03T13:43:15Z</time>
      </trkpt>
      <trkpt lat="43.65461" lon="3.79205">
        <ele>92.4</ele>
        <time>2021-01-03T13:43:16Z</time>
      </trkpt>
      <trkpt lat="43.65462" lon="3.79202">
        <ele>91.6</ele>
        <time>2021-01-03T13:43:17Z</time>
      </trkpt>
      <trkpt lat="43.65462" lon="3.79198">
        <ele>90.6</ele>
        <time>2021-01-03T13:43:19Z</time>
      </trkpt>
      <trkpt lat="43.6546" lon="3.79196">
        <ele>90</ele>
        <time>2021-01-03T13:43:20Z</time>
      </trkpt>
      <trkpt lat="43.65457" lon="3.79194">
        <ele>89.3</ele>
        <time>2021-01-03T13:43:21Z</time>
      </trkpt>
      <trkpt lat="43.65454" lon="3.79192">
        <ele>102</ele>
        <time>2021-01-03T13:43:22Z</time>
      </trkpt>
      <trkpt lat="43.65452" lon="3.7919">
        <ele>87.8</ele>
        <time>2021-01-03T13:43:23Z</time>
      </trkpt>
      <trkpt lat="43.6545" lon="3.79188">
        <ele>87.1</ele>
        <time>2021-01-03T13:43:24Z</time>
      </trkpt>
      <trkpt lat="43.65449" lon="3.79185">
        <ele>86.1</ele>
        <time>2021-01-03T13:43:25Z</time>
      </trkpt>
      <trkpt lat="43.65447" lon="3.79182">
        <ele>85.1</ele>
        <time>2021-01-03T13:43:26Z</time>
      </trkpt>
      <trkpt lat="43.65447" lon="3.79178">
        <ele>83.8</ele>
        <time>2021-01-03T13:43:27Z</time>
      </trkpt>
      <trkpt lat="43.65447" lon="3.79175">
        <ele>82.8</ele>
        <time>2021-01-03T13:43:28Z</time>
      </trkpt>
      <trkpt lat="43.65443" lon="3.79174">
        <ele>90</ele>
        <time>2021-01-03T13:43:48Z</time>
      </trkpt>
      <trkpt lat="43.65443" lon="3.79173">
        <ele>89</ele>
        <time>2021-01-03T13:43:52Z</time>
      </trkpt>
      <trkpt lat="43.65444" lon="3.79168">
        <ele>89</ele>
        <time>2021-01-03T13:43:56Z</time>
      </trkpt>
      <trkpt lat="43.65444" lon="3.79164">
        <ele>79.5</ele>
        <time>2021-01-03T13:43:57Z</time>
      </trkpt>
      <trkpt lat="43.65442" lon="3.7916">
        <ele>78.9</ele>
        <time>2021-01-03T13:43:59Z</time>
      </trkpt>
      <trkpt lat="43.65441" lon="3.79157">
        <ele>78.4</ele>
        <time>2021-01-03T13:44:00Z</time>
      </trkpt>
      <trkpt lat="43.65439" lon="3.79154">
        <ele>77.9</ele>
        <time>2021-01-03T13:44:02Z</time>
      </trkpt>
      <trkpt lat="43.65438" lon="3.79151">
        <ele>77.4</ele>
        <time>2021-01-03T13:44:04Z</time>
      </trkpt>
      <trkpt lat="43.65438" lon="3.79152">
        <ele>86</ele>
        <time>2021-01-03T13:44:09Z</time>
      </trkpt>
      <trkpt lat="43.65432" lon="3.79152">
        <ele>83</ele>
        <time>2021-01-03T13:44:42Z</time>
      </trkpt>
      <trkpt lat="43.65429" lon="3.79151">
        <ele>77.7</ele>
        <time>2021-01-03T13:44:44Z</time>
      </trkpt>
      <trkpt lat="43.65426" lon="3.79151">
        <ele>77.8</ele>
        <time>2021-01-03T13:44:46Z</time>
      </trkpt>
      <trkpt lat="43.65423" lon="3.7915">
        <ele>77.8</ele>
        <time>2021-01-03T13:44:48Z</time>
      </trkpt>
      <trkpt lat="43.65421" lon="3.7915">
        <ele>77.8</ele>
        <time>2021-01-03T13:44:49Z</time>
      </trkpt>
      <trkpt lat="43.65418" lon="3.7915">
        <ele>84</ele>
        <time>2021-01-03T13:44:51Z</time>
      </trkpt>
      <trkpt lat="43.65415" lon="3.79149">
        <ele>77.9</ele>
        <time>2021-01-03T13:44:53Z</time>
      </trkpt>
      <trkpt lat="43.65412" lon="3.79148">
        <ele>78</ele>
        <time>2021-01-03T13:44:55Z</time>
      </trkpt>
      <trkpt lat="43.65409" lon="3.79148">
        <ele>78.2</ele>
        <time>2021-01-03T13:44:56Z</time>
      </trkpt>
      <trkpt lat="43.65407" lon="3.79148">
        <ele>78.3</ele>
        <time>2021-01-03T13:44:57Z</time>
      </trkpt>
      <trkpt lat="43.65405" lon="3.79147">
        <ele>78.3</ele>
        <time>2021-01-03T13:44:58Z</time>
      </trkpt>
      <trkpt lat="43.65402" lon="3.79146">
        <ele>78.3</ele>
        <time>2021-01-03T13:44:59Z</time>
      </trkpt>
      <trkpt lat="43.654" lon="3.79145">
        <ele>78.3</ele>
        <time>2021-01-03T13:45:00Z</time>
      </trkpt>
      <trkpt lat="43.65397" lon="3.79144">
        <ele>78.3</ele>
        <time>2021-01-03T13:45:01Z</time>
      </trkpt>
      <trkpt lat="43.65395" lon="3.79144">
        <ele>84</ele>
        <time>2021-01-03T13:45:02Z</time>
      </trkpt>
      <trkpt lat="43.65392" lon="3.79144">
        <ele>78.7</ele>
        <time>2021-01-03T13:45:03Z</time>
      </trkpt>
      <trkpt lat="43.6539" lon="3.79143">
        <ele>78.7</ele>
        <time>2021-01-03T13:45:04Z</time>
      </trkpt>
      <trkpt lat="43.65386" lon="3.79143">
        <ele>78.9</ele>
        <time>2021-01-03T13:45:05Z</time>
      </trkpt>
      <trkpt lat="43.65383" lon="3.79142">
        <ele>78.8</ele>
        <time>2021-01-03T13:45:07Z</time>
      </trkpt>
      <trkpt lat="43.65381" lon="3.79142">
        <ele>78.9</ele>
        <time>2021-01-03T13:45:08Z</time>
      </trkpt>
      <trkpt lat="43.65377" lon="3.79141">
        <ele>78.9</ele>
        <time>2021-01-03T13:45:10Z</time>
      </trkpt>
      <trkpt lat="43.65375" lon="3.79142">
        <ele>79.2</ele>
        <time>2021-01-03T13:45:12Z</time>
      </trkpt>
      <trkpt lat="43.65372" lon="3.79142">
        <ele>79.3</ele>
        <time>2021-01-03T13:45:13Z</time>
      </trkpt>
      <trkpt lat="43.6537" lon="3.79142">
        <ele>79.4</ele>
        <time>2021-01-03T13:45:14Z</time>
      </trkpt>
      <trkpt lat="43.65368" lon="3.79142">
        <ele>79.5</ele>
        <time>2021-01-03T13:45:15Z</time>
      </trkpt>
      <trkpt lat="43.65365" lon="3.79141">
        <ele>79.4</ele>
        <time>2021-01-03T13:45:16Z</time>
      </trkpt>
      <trkpt lat="43.65363" lon="3.79141">
        <ele>79.5</ele>
        <time>2021-01-03T13:45:17Z</time>
      </trkpt>
      <trkpt lat="43.6536" lon="3.79141">
        <ele>79.6</ele>
        <time>2021-01-03T13:45:18Z</time>
      </trkpt>
      <trkpt lat="43.65358" lon="3.79141">
        <ele>79.6</ele>
        <time>2021-01-03T13:45:19Z</time>
      </trkpt>
      <trkpt lat="43.65356" lon="3.79141">
        <ele>79.7</ele>
        <time>2021-01-03T13:45:20Z</time>
      </trkpt>
      <trkpt lat="43.65354" lon="3.79141">
        <ele>85</ele>
        <time>2021-01-03T13:45:21Z</time>
      </trkpt>
      <trkpt lat="43.65352" lon="3.79141">
        <ele>79.9</ele>
        <time>2021-01-03T13:45:22Z</time>
      </trkpt>
      <trkpt lat="43.6535" lon="3.7914">
        <ele>79.7</ele>
        <time>2021-01-03T13:45:23Z</time>
      </trkpt>
      <trkpt lat="43.65348" lon="3.7914">
        <ele>79.8</ele>
        <time>2021-01-03T13:45:24Z</time>
      </trkpt>
      <trkpt lat="43.65346" lon="3.79139">
        <ele>79.6</ele>
        <time>2021-01-03T13:45:25Z</time>
      </trkpt>
      <trkpt lat="43.65344" lon="3.79139">
        <ele>79.6</ele>
        <time>2021-01-03T13:45:26Z</time>
      </trkpt>
      <trkpt lat="43.65342" lon="3.79139">
        <ele>79.7</ele>
        <time>2021-01-03T13:45:27Z</time>
      </trkpt>
      <trkpt lat="43.6534" lon="3.79139">
        <ele>79.8</ele>
        <time>2021-01-03T13:45:28Z</time>
      </trkpt>
      <trkpt lat="43.65337" lon="3.79138">
        <ele>79.7</ele>
        <time>2021-01-03T13:45:29Z</time>
      </trkpt>
      <trkpt lat="43.65334" lon="3.79136">
        <ele>79.5</ele>
        <time>2021-01-03T13:45:30Z</time>
      </trkpt>
      <trkpt lat="43.65332" lon="3.79134">
        <ele>85</ele>
        <time>2021-01-03T13:45:31Z</time>
      </trkpt>
      <trkpt lat="43.65329" lon="3.79132">
        <ele>78.6</ele>
        <time>2021-01-03T13:45:32Z</time>
      </trkpt>
      <trkpt lat="43.65327" lon="3.79129">
        <ele>78.1</ele>
        <time>2021-01-03T13:45:33Z</time>
      </trkpt>
      <trkpt lat="43.65324" lon="3.79126">
        <ele>77.5</ele>
        <time>2021-01-03T13:45:34Z</time>
      </trkpt>
      <trkpt lat="43.65321" lon="3.79123">
        <ele>76.9</ele>
        <time>2021-01-03T13:45:35Z</time>
      </trkpt>
      <trkpt lat="43.65318" lon="3.79119">
        <ele>76.3</ele>
        <time>2021-01-03T13:45:36Z</time>
      </trkpt>
      <trkpt lat="43.65314" lon="3.79115">
        <ele>75.6</ele>
        <time>2021-01-03T13:45:37Z</time>
      </trkpt>
      <trkpt lat="43.65309" lon="3.79112">
        <ele>75.1</ele>
        <time>2021-01-03T13:45:38Z</time>
      </trkpt>
      <trkpt lat="43.65305" lon="3.7911">
        <ele>74.8</ele>
        <time>2021-01-03T13:45:39Z</time>
      </trkpt>
      <trkpt lat="43.653" lon="3.79108">
        <ele>74</ele>
        <time>2021-01-03T13:45:40Z</time>
      </trkpt>
      <trkpt lat="43.65296" lon="3.79107">
        <ele>84</ele>
        <time>2021-01-03T13:45:41Z</time>
      </trkpt>
      <trkpt lat="43.65291" lon="3.79107">
        <ele>72.9</ele>
        <time>2021-01-03T13:45:42Z</time>
      </trkpt>
      <trkpt lat="43.65286" lon="3.79108">
        <ele>72.5</ele>
        <time>2021-01-03T13:45:43Z</time>
      </trkpt>
      <trkpt lat="43.65281" lon="3.7911">
        <ele>72.2</ele>
        <time>2021-01-03T13:45:44Z</time>
      </trkpt>
      <trkpt lat="43.65275" lon="3.79111">
        <ele>72</ele>
        <time>2021-01-03T13:45:45Z</time>
      </trkpt>
      <trkpt lat="43.6527" lon="3.79112">
        <ele>72.2</ele>
        <time>2021-01-03T13:45:46Z</time>
      </trkpt>
      <trkpt lat="43.65265" lon="3.79109">
        <ele>71.7</ele>
        <time>2021-01-03T13:45:47Z</time>
      </trkpt>
      <trkpt lat="43.6526" lon="3.79104">
        <ele>71.1</ele>
        <time>2021-01-03T13:45:48Z</time>
      </trkpt>
      <trkpt lat="43.65255" lon="3.79098">
        <ele>70.2</ele>
        <time>2021-01-03T13:45:49Z</time>
      </trkpt>
      <trkpt lat="43.6525" lon="3.79093">
        <ele>69.4</ele>
        <time>2021-01-03T13:45:50Z</time>
      </trkpt>
      <trkpt lat="43.65245" lon="3.79088">
        <ele>81</ele>
        <time>2021-01-03T13:45:51Z</time>
      </trkpt>
      <trkpt lat="43.6524" lon="3.79083">
        <ele>68.3</ele>
        <time>2021-01-03T13:45:52Z</time>
      </trkpt>
      <trkpt lat="43.65235" lon="3.7908">
        <ele>68.2</ele>
        <time>2021-01-03T13:45:53Z</time>
      </trkpt>
      <trkpt lat="43.6523" lon="3.79078">
        <ele>68.1</ele>
        <time>2021-01-03T13:45:54Z</time>
      </trkpt>
      <trkpt lat="43.65226" lon="3.79079">
        <ele>68.3</ele>
        <time>2021-01-03T13:45:55Z</time>
      </trkpt>
      <trkpt lat="43.65223" lon="3.79079">
        <ele>68.4</ele>
        <time>2021-01-03T13:45:56Z</time>
      </trkpt>
      <trkpt lat="43.65221" lon="3.79078">
        <ele>68.3</ele>
        <time>2021-01-03T13:45:57Z</time>
      </trkpt>
      <trkpt lat="43.65219" lon="3.79076">
        <ele>68</ele>
        <time>2021-01-03T13:45:58Z</time>
      </trkpt>
      <trkpt lat="43.65216" lon="3.79074">
        <ele>67.8</ele>
        <time>2021-01-03T13:45:59Z</time>
      </trkpt>
      <trkpt lat="43.65213" lon="3.79073">
        <ele>67.7</ele>
        <time>2021-01-03T13:46:00Z</time>
      </trkpt>
      <trkpt lat="43.6521" lon="3.79072">
        <ele>77</ele>
        <time>2021-01-03T13:46:01Z</time>
      </trkpt>
      <trkpt lat="43.65207" lon="3.79071">
        <ele>67.5</ele>
        <time>2021-01-03T13:46:02Z</time>
      </trkpt>
      <trkpt lat="43.65203" lon="3.7907">
        <ele>67.4</ele>
        <time>2021-01-03T13:46:03Z</time>
      </trkpt>
      <trkpt lat="43.652" lon="3.79067">
        <ele>67</ele>
        <time>2021-01-03T13:46:04Z</time>
      </trkpt>
      <trkpt lat="43.65198" lon="3.79064">
        <ele>66.5</ele>
        <time>2021-01-03T13:46:05Z</time>
      </trkpt>
      <trkpt lat="43.65197" lon="3.79059">
        <ele>65.6</ele>
        <time>2021-01-03T13:46:06Z</time>
      </trkpt>
      <trkpt lat="43.65196" lon="3.79055">
        <ele>64.9</ele>
        <time>2021-01-03T13:46:07Z</time>
      </trkpt>
      <trkpt lat="43.65195" lon="3.79052">
        <ele>64.5</ele>
        <time>2021-01-03T13:46:08Z</time>
      </trkpt>
      <trkpt lat="43.65192" lon="3.79051">
        <ele>64.3</ele>
        <time>2021-01-03T13:46:09Z</time>
      </trkpt>
      <trkpt lat="43.6519" lon="3.79052">
        <ele>64.5</ele>
        <time>2021-01-03T13:46:10Z</time>
      </trkpt>
      <trkpt lat="43.65187" lon="3.79052">
        <ele>74</ele>
        <time>2021-01-03T13:46:11Z</time>
      </trkpt>
      <trkpt lat="43.65184" lon="3.79052">
        <ele>64.5</ele>
        <time>2021-01-03T13:46:12Z</time>
      </trkpt>
      <trkpt lat="43.65181" lon="3.79052">
        <ele>64.5</ele>
        <time>2021-01-03T13:46:13Z</time>
      </trkpt>
      <trkpt lat="43.65179" lon="3.79053">
        <ele>64.6</ele>
        <time>2021-01-03T13:46:14Z</time>
      </trkpt>
      <trkpt lat="43.65177" lon="3.79053">
        <ele>64.6</ele>
        <time>2021-01-03T13:46:15Z</time>
      </trkpt>
      <trkpt lat="43.65174" lon="3.79053">
        <ele>64.6</ele>
        <time>2021-01-03T13:46:17Z</time>
      </trkpt>
      <trkpt lat="43.65171" lon="3.79054">
        <ele>64.8</ele>
        <time>2021-01-03T13:46:18Z</time>
      </trkpt>
      <trkpt lat="43.6517" lon="3.79053">
        <ele>64.6</ele>
        <time>2021-01-03T13:46:19Z</time>
      </trkpt>
      <trkpt lat="43.65167" lon="3.79053">
        <ele>72</ele>
        <time>2021-01-03T13:46:21Z</time>
      </trkpt>
      <trkpt lat="43.65163" lon="3.79053">
        <ele>64.6</ele>
        <time>2021-01-03T13:46:23Z</time>
      </trkpt>
      <trkpt lat="43.6516" lon="3.79053">
        <ele>64.6</ele>
        <time>2021-01-03T13:46:25Z</time>
      </trkpt>
      <trkpt lat="43.65157" lon="3.79054">
        <ele>64.8</ele>
        <time>2021-01-03T13:46:27Z</time>
      </trkpt>
      <trkpt lat="43.65155" lon="3.79054">
        <ele>64.8</ele>
        <time>2021-01-03T13:46:28Z</time>
      </trkpt>
      <trkpt lat="43.65153" lon="3.79055">
        <ele>64.9</ele>
        <time>2021-01-03T13:46:29Z</time>
      </trkpt>
      <trkpt lat="43.65151" lon="3.79055">
        <ele>64.9</ele>
        <time>2021-01-03T13:46:30Z</time>
      </trkpt>
      <trkpt lat="43.65149" lon="3.79056">
        <ele>71</ele>
        <time>2021-01-03T13:46:31Z</time>
      </trkpt>
      <trkpt lat="43.65147" lon="3.79056">
        <ele>65</ele>
        <time>2021-01-03T13:46:32Z</time>
      </trkpt>
      <trkpt lat="43.65145" lon="3.79056">
        <ele>65</ele>
        <time>2021-01-03T13:46:33Z</time>
      </trkpt>
      <trkpt lat="43.65143" lon="3.79055">
        <ele>64.9</ele>
        <time>2021-01-03T13:46:35Z</time>
      </trkpt>
      <trkpt lat="43.65141" lon="3.79054">
        <ele>64.8</ele>
        <time>2021-01-03T13:46:37Z</time>
      </trkpt>
      <trkpt lat="43.65138" lon="3.79054">
        <ele>64.8</ele>
        <time>2021-01-03T13:46:39Z</time>
      </trkpt>
      <trkpt lat="43.65134" lon="3.79054">
        <ele>70</ele>
        <time>2021-01-03T13:46:41Z</time>
      </trkpt>
      <trkpt lat="43.65133" lon="3.79055">
        <ele>64.9</ele>
        <time>2021-01-03T13:46:42Z</time>
      </trkpt>
      <trkpt lat="43.65131" lon="3.79055">
        <ele>64.9</ele>
        <time>2021-01-03T13:46:43Z</time>
      </trkpt>
      <trkpt lat="43.65129" lon="3.79055">
        <ele>64.9</ele>
        <time>2021-01-03T13:46:44Z</time>
      </trkpt>
      <trkpt lat="43.65126" lon="3.79057">
        <ele>65.2</ele>
        <time>2021-01-03T13:46:46Z</time>
      </trkpt>
      <trkpt lat="43.65123" lon="3.79059">
        <ele>65.4</ele>
        <time>2021-01-03T13:46:48Z</time>
      </trkpt>
      <trkpt lat="43.65121" lon="3.7906">
        <ele>65.5</ele>
        <time>2021-01-03T13:46:49Z</time>
      </trkpt>
      <trkpt lat="43.6512" lon="3.79061">
        <ele>65.6</ele>
        <time>2021-01-03T13:46:50Z</time>
      </trkpt>
      <trkpt lat="43.65118" lon="3.79062">
        <ele>69</ele>
        <time>2021-01-03T13:46:51Z</time>
      </trkpt>
      <trkpt lat="43.65116" lon="3.79063">
        <ele>65.8</ele>
        <time>2021-01-03T13:46:52Z</time>
      </trkpt>
      <trkpt lat="43.65114" lon="3.79065">
        <ele>66</ele>
        <time>2021-01-03T13:46:53Z</time>
      </trkpt>
      <trkpt lat="43.65112" lon="3.79066">
        <ele>66.1</ele>
        <time>2021-01-03T13:46:54Z</time>
      </trkpt>
      <trkpt lat="43.65111" lon="3.79067">
        <ele>66.2</ele>
        <time>2021-01-03T13:46:55Z</time>
      </trkpt>
      <trkpt lat="43.65108" lon="3.79069">
        <ele>66.1</ele>
        <time>2021-01-03T13:46:57Z</time>
      </trkpt>
      <trkpt lat="43.65105" lon="3.79071">
        <ele>65.9</ele>
        <time>2021-01-03T13:46:59Z</time>
      </trkpt>
      <trkpt lat="43.65103" lon="3.79072">
        <ele>65.7</ele>
        <time>2021-01-03T13:47:00Z</time>
      </trkpt>
      <trkpt lat="43.65101" lon="3.79074">
        <ele>69</ele>
        <time>2021-01-03T13:47:01Z</time>
      </trkpt>
      <trkpt lat="43.65098" lon="3.79076">
        <ele>65.4</ele>
        <time>2021-01-03T13:47:03Z</time>
      </trkpt>
      <trkpt lat="43.65096" lon="3.79077">
        <ele>65.3</ele>
        <time>2021-01-03T13:47:05Z</time>
      </trkpt>
      <trkpt lat="43.65092" lon="3.7908">
        <ele>65</ele>
        <time>2021-01-03T13:47:07Z</time>
      </trkpt>
      <trkpt lat="43.6509" lon="3.79082">
        <ele>64.9</ele>
        <time>2021-01-03T13:47:08Z</time>
      </trkpt>
      <trkpt lat="43.65087" lon="3.79083">
        <ele>64.5</ele>
        <time>2021-01-03T13:47:09Z</time>
      </trkpt>
      <trkpt lat="43.65085" lon="3.79085">
        <ele>64.5</ele>
        <time>2021-01-03T13:47:10Z</time>
      </trkpt>
      <trkpt lat="43.65082" lon="3.79086">
        <ele>64.3</ele>
        <time>2021-01-03T13:47:12Z</time>
      </trkpt>
      <trkpt lat="43.65078" lon="3.79085">
        <ele>64</ele>
        <time>2021-01-03T13:47:13Z</time>
      </trkpt>
      <trkpt lat="43.65075" lon="3.79083">
        <ele>63.7</ele>
        <time>2021-01-03T13:47:14Z</time>
      </trkpt>
      <trkpt lat="43.65072" lon="3.79081">
        <ele>63.4</ele>
        <time>2021-01-03T13:47:15Z</time>
      </trkpt>
      <trkpt lat="43.65071" lon="3.79076">
        <ele>62.9</ele>
        <time>2021-01-03T13:47:16Z</time>
      </trkpt>
      <trkpt lat="43.65072" lon="3.79072">
        <ele>62.6</ele>
        <time>2021-01-03T13:47:17Z</time>
      </trkpt>
      <trkpt lat="43.65074" lon="3.79068">
        <ele>62.4</ele>
        <time>2021-01-03T13:47:18Z</time>
      </trkpt>
      <trkpt lat="43.65076" lon="3.79064">
        <ele>62.2</ele>
        <time>2021-01-03T13:47:19Z</time>
      </trkpt>
      <trkpt lat="43.6508" lon="3.7906">
        <ele>62.1</ele>
        <time>2021-01-03T13:47:20Z</time>
      </trkpt>
      <trkpt lat="43.65083" lon="3.79056">
        <ele>65</ele>
        <time>2021-01-03T13:47:21Z</time>
      </trkpt>
      <trkpt lat="43.65086" lon="3.79051">
        <ele>61.8</ele>
        <time>2021-01-03T13:47:22Z</time>
      </trkpt>
      <trkpt lat="43.6509" lon="3.79046">
        <ele>61.6</ele>
        <time>2021-01-03T13:47:23Z</time>
      </trkpt>
      <trkpt lat="43.65093" lon="3.79041">
        <ele>61.3</ele>
        <time>2021-01-03T13:47:24Z</time>
      </trkpt>
      <trkpt lat="43.65095" lon="3.79035">
        <ele>60.7</ele>
        <time>2021-01-03T13:47:25Z</time>
      </trkpt>
      <trkpt lat="43.65097" lon="3.79029">
        <ele>60.1</ele>
        <time>2021-01-03T13:47:26Z</time>
      </trkpt>
      <trkpt lat="43.65099" lon="3.79022">
        <ele>59.9</ele>
        <time>2021-01-03T13:47:27Z</time>
      </trkpt>
      <trkpt lat="43.651" lon="3.79016">
        <ele>59.8</ele>
        <time>2021-01-03T13:47:28Z</time>
      </trkpt>
      <trkpt lat="43.65101" lon="3.7901">
        <ele>59.6</ele>
        <time>2021-01-03T13:47:29Z</time>
      </trkpt>
      <trkpt lat="43.65101" lon="3.79004">
        <ele>59.4</ele>
        <time>2021-01-03T13:47:30Z</time>
      </trkpt>
      <trkpt lat="43.65101" lon="3.78999">
        <ele>64</ele>
        <time>2021-01-03T13:47:31Z</time>
      </trkpt>
      <trkpt lat="43.651" lon="3.78995">
        <ele>59.1</ele>
        <time>2021-01-03T13:47:32Z</time>
      </trkpt>
      <trkpt lat="43.65099" lon="3.78991">
        <ele>58.9</ele>
        <time>2021-01-03T13:47:33Z</time>
      </trkpt>
      <trkpt lat="43.65098" lon="3.78987">
        <ele>58.8</ele>
        <time>2021-01-03T13:47:34Z</time>
      </trkpt>
      <trkpt lat="43.65097" lon="3.78983">
        <ele>58.7</ele>
        <time>2021-01-03T13:47:35Z</time>
      </trkpt>
      <trkpt lat="43.65096" lon="3.78979">
        <ele>58.6</ele>
        <time>2021-01-03T13:47:36Z</time>
      </trkpt>
      <trkpt lat="43.65094" lon="3.78974">
        <ele>58.4</ele>
        <time>2021-01-03T13:47:37Z</time>
      </trkpt>
      <trkpt lat="43.65093" lon="3.7897">
        <ele>58.2</ele>
        <time>2021-01-03T13:47:38Z</time>
      </trkpt>
      <trkpt lat="43.65092" lon="3.78966">
        <ele>57.9</ele>
        <time>2021-01-03T13:47:39Z</time>
      </trkpt>
      <trkpt lat="43.65091" lon="3.78962">
        <ele>57.6</ele>
        <time>2021-01-03T13:47:40Z</time>
      </trkpt>
      <trkpt lat="43.65089" lon="3.78958">
        <ele>64</ele>
        <time>2021-01-03T13:47:41Z</time>
      </trkpt>
      <trkpt lat="43.65088" lon="3.78954">
        <ele>57</ele>
        <time>2021-01-03T13:47:42Z</time>
      </trkpt>
      <trkpt lat="43.65087" lon="3.7895">
        <ele>56.6</ele>
        <time>2021-01-03T13:47:43Z</time>
      </trkpt>
      <trkpt lat="43.65085" lon="3.78947">
        <ele>56.3</ele>
        <time>2021-01-03T13:47:44Z</time>
      </trkpt>
      <trkpt lat="43.65084" lon="3.78945">
        <ele>56.1</ele>
        <time>2021-01-03T13:47:45Z</time>
      </trkpt>
      <trkpt lat="43.65082" lon="3.78942">
        <ele>56.3</ele>
        <time>2021-01-03T13:47:46Z</time>
      </trkpt>
      <trkpt lat="43.65081" lon="3.78938">
        <ele>56.6</ele>
        <time>2021-01-03T13:47:47Z</time>
      </trkpt>
      <trkpt lat="43.6508" lon="3.78935">
        <ele>56.9</ele>
        <time>2021-01-03T13:47:48Z</time>
      </trkpt>
      <trkpt lat="43.65079" lon="3.78931">
        <ele>57.2</ele>
        <time>2021-01-03T13:47:49Z</time>
      </trkpt>
      <trkpt lat="43.65078" lon="3.78927">
        <ele>57.5</ele>
        <time>2021-01-03T13:47:50Z</time>
      </trkpt>
      <trkpt lat="43.65076" lon="3.78924">
        <ele>64</ele>
        <time>2021-01-03T13:47:51Z</time>
      </trkpt>
      <trkpt lat="43.65075" lon="3.78921">
        <ele>58</ele>
        <time>2021-01-03T13:47:52Z</time>
      </trkpt>
      <trkpt lat="43.65074" lon="3.78919">
        <ele>58.2</ele>
        <time>2021-01-03T13:47:53Z</time>
      </trkpt>
      <trkpt lat="43.65073" lon="3.78916">
        <ele>58.4</ele>
        <time>2021-01-03T13:47:54Z</time>
      </trkpt>
      <trkpt lat="43.65072" lon="3.78914">
        <ele>58.6</ele>
        <time>2021-01-03T13:47:55Z</time>
      </trkpt>
      <trkpt lat="43.65071" lon="3.78911">
        <ele>58.8</ele>
        <time>2021-01-03T13:47:56Z</time>
      </trkpt>
      <trkpt lat="43.65069" lon="3.78907">
        <ele>59.2</ele>
        <time>2021-01-03T13:47:58Z</time>
      </trkpt>
      <trkpt lat="43.65068" lon="3.78903">
        <ele>59.6</ele>
        <time>2021-01-03T13:48:00Z</time>
      </trkpt>
      <trkpt lat="43.65068" lon="3.789">
        <ele>64</ele>
        <time>2021-01-03T13:48:01Z</time>
      </trkpt>
      <trkpt lat="43.65066" lon="3.78898">
        <ele>60.1</ele>
        <time>2021-01-03T13:48:03Z</time>
      </trkpt>
      <trkpt lat="43.65064" lon="3.789">
        <ele>60.1</ele>
        <time>2021-01-03T13:48:04Z</time>
      </trkpt>
      <trkpt lat="43.65063" lon="3.78904">
        <ele>59.9</ele>
        <time>2021-01-03T13:48:05Z</time>
      </trkpt>
      <trkpt lat="43.65064" lon="3.78913">
        <ele>59</ele>
        <time>2021-01-03T13:48:06Z</time>
      </trkpt>
      <trkpt lat="43.65065" lon="3.78917">
        <ele>58.6</ele>
        <time>2021-01-03T13:48:07Z</time>
      </trkpt>
      <trkpt lat="43.65064" lon="3.78922">
        <ele>58.4</ele>
        <time>2021-01-03T13:48:08Z</time>
      </trkpt>
      <trkpt lat="43.65063" lon="3.78926">
        <ele>58.3</ele>
        <time>2021-01-03T13:48:09Z</time>
      </trkpt>
      <trkpt lat="43.65063" lon="3.7893">
        <ele>58.1</ele>
        <time>2021-01-03T13:48:11Z</time>
      </trkpt>
      <trkpt lat="43.65063" lon="3.78933">
        <ele>64</ele>
        <time>2021-01-03T13:48:12Z</time>
      </trkpt>
      <trkpt lat="43.65065" lon="3.78936">
        <ele>57.7</ele>
        <time>2021-01-03T13:48:14Z</time>
      </trkpt>
      <trkpt lat="43.65067" lon="3.78935">
        <ele>57.7</ele>
        <time>2021-01-03T13:48:15Z</time>
      </trkpt>
      <trkpt lat="43.65069" lon="3.78933">
        <ele>57.6</ele>
        <time>2021-01-03T13:48:16Z</time>
      </trkpt>
      <trkpt lat="43.65071" lon="3.78932">
        <ele>57.6</ele>
        <time>2021-01-03T13:48:17Z</time>
      </trkpt>
      <trkpt lat="43.65074" lon="3.78933">
        <ele>57.4</ele>
        <time>2021-01-03T13:48:18Z</time>
      </trkpt>
      <trkpt lat="43.6508" lon="3.78939">
        <ele>56.6</ele>
        <time>2021-01-03T13:48:19Z</time>
      </trkpt>
      <trkpt lat="43.65083" lon="3.78941">
        <ele>56.3</ele>
        <time>2021-01-03T13:48:20Z</time>
      </trkpt>
      <trkpt lat="43.65087" lon="3.78941">
        <ele>56.5</ele>
        <time>2021-01-03T13:48:23Z</time>
      </trkpt>
      <trkpt lat="43.6509" lon="3.78938">
        <ele>56.8</ele>
        <time>2021-01-03T13:48:24Z</time>
      </trkpt>
      <trkpt lat="43.65093" lon="3.78936">
        <ele>57</ele>
        <time>2021-01-03T13:48:25Z</time>
      </trkpt>
      <trkpt lat="43.65095" lon="3.78934">
        <ele>57.1</ele>
        <time>2021-01-03T13:48:26Z</time>
      </trkpt>
      <trkpt lat="43.65098" lon="3.78931">
        <ele>57.3</ele>
        <time>2021-01-03T13:48:27Z</time>
      </trkpt>
      <trkpt lat="43.65101" lon="3.78928">
        <ele>57.3</ele>
        <time>2021-01-03T13:48:28Z</time>
      </trkpt>
      <trkpt lat="43.65104" lon="3.78925">
        <ele>57.3</ele>
        <time>2021-01-03T13:48:29Z</time>
      </trkpt>
      <trkpt lat="43.65107" lon="3.78922">
        <ele>57.3</ele>
        <time>2021-01-03T13:48:30Z</time>
      </trkpt>
      <trkpt lat="43.65111" lon="3.78919">
        <ele>63</ele>
        <time>2021-01-03T13:48:31Z</time>
      </trkpt>
      <trkpt lat="43.65114" lon="3.78915">
        <ele>57.1</ele>
        <time>2021-01-03T13:48:32Z</time>
      </trkpt>
      <trkpt lat="43.65117" lon="3.78912">
        <ele>57.1</ele>
        <time>2021-01-03T13:48:33Z</time>
      </trkpt>
      <trkpt lat="43.6512" lon="3.78908">
        <ele>57.2</ele>
        <time>2021-01-03T13:48:34Z</time>
      </trkpt>
      <trkpt lat="43.65124" lon="3.78905">
        <ele>57.2</ele>
        <time>2021-01-03T13:48:35Z</time>
      </trkpt>
      <trkpt lat="43.65126" lon="3.78902">
        <ele>57.2</ele>
        <time>2021-01-03T13:48:36Z</time>
      </trkpt>
      <trkpt lat="43.65129" lon="3.78899">
        <ele>57.2</ele>
        <time>2021-01-03T13:48:37Z</time>
      </trkpt>
      <trkpt lat="43.65133" lon="3.78896">
        <ele>57.2</ele>
        <time>2021-01-03T13:48:38Z</time>
      </trkpt>
      <trkpt lat="43.65136" lon="3.78893">
        <ele>57.1</ele>
        <time>2021-01-03T13:48:39Z</time>
      </trkpt>
      <trkpt lat="43.65138" lon="3.7889">
        <ele>57</ele>
        <time>2021-01-03T13:48:40Z</time>
      </trkpt>
      <trkpt lat="43.65141" lon="3.78888">
        <ele>63</ele>
        <time>2021-01-03T13:48:41Z</time>
      </trkpt>
      <trkpt lat="43.65143" lon="3.78885">
        <ele>57.1</ele>
        <time>2021-01-03T13:48:42Z</time>
      </trkpt>
      <trkpt lat="43.65144" lon="3.78881">
        <ele>57.3</ele>
        <time>2021-01-03T13:48:43Z</time>
      </trkpt>
      <trkpt lat="43.65146" lon="3.78878">
        <ele>57.4</ele>
        <time>2021-01-03T13:48:44Z</time>
      </trkpt>
      <trkpt lat="43.65147" lon="3.78876">
        <ele>57.5</ele>
        <time>2021-01-03T13:48:45Z</time>
      </trkpt>
      <trkpt lat="43.65148" lon="3.78872">
        <ele>57.7</ele>
        <time>2021-01-03T13:48:46Z</time>
      </trkpt>
      <trkpt lat="43.65147" lon="3.78869">
        <ele>57.9</ele>
        <time>2021-01-03T13:48:47Z</time>
      </trkpt>
      <trkpt lat="43.65147" lon="3.78867">
        <ele>58.1</ele>
        <time>2021-01-03T13:48:48Z</time>
      </trkpt>
      <trkpt lat="43.65146" lon="3.78862">
        <ele>58.4</ele>
        <time>2021-01-03T13:48:50Z</time>
      </trkpt>
      <trkpt lat="43.65146" lon="3.7886">
        <ele>63</ele>
        <time>2021-01-03T13:48:51Z</time>
      </trkpt>
      <trkpt lat="43.65146" lon="3.78857">
        <ele>58.8</ele>
        <time>2021-01-03T13:48:52Z</time>
      </trkpt>
      <trkpt lat="43.65147" lon="3.78854">
        <ele>59</ele>
        <time>2021-01-03T13:48:53Z</time>
      </trkpt>
      <trkpt lat="43.65147" lon="3.78851">
        <ele>59.3</ele>
        <time>2021-01-03T13:48:55Z</time>
      </trkpt>
      <trkpt lat="43.65147" lon="3.78846">
        <ele>59.7</ele>
        <time>2021-01-03T13:48:57Z</time>
      </trkpt>
      <trkpt lat="43.65147" lon="3.78842">
        <ele>60</ele>
        <time>2021-01-03T13:48:59Z</time>
      </trkpt>
      <trkpt lat="43.65148" lon="3.78839">
        <ele>60.2</ele>
        <time>2021-01-03T13:49:00Z</time>
      </trkpt>
      <trkpt lat="43.65148" lon="3.78834">
        <ele>60.6</ele>
        <time>2021-01-03T13:49:02Z</time>
      </trkpt>
      <trkpt lat="43.65148" lon="3.7883">
        <ele>60.9</ele>
        <time>2021-01-03T13:49:04Z</time>
      </trkpt>
      <trkpt lat="43.65148" lon="3.78826">
        <ele>61.2</ele>
        <time>2021-01-03T13:49:06Z</time>
      </trkpt>
      <trkpt lat="43.65148" lon="3.78821">
        <ele>61.6</ele>
        <time>2021-01-03T13:49:08Z</time>
      </trkpt>
      <trkpt lat="43.65149" lon="3.78818">
        <ele>61.7</ele>
        <time>2021-01-03T13:49:09Z</time>
      </trkpt>
      <trkpt lat="43.6515" lon="3.78816">
        <ele>61.8</ele>
        <time>2021-01-03T13:49:10Z</time>
      </trkpt>
      <trkpt lat="43.65151" lon="3.78814">
        <ele>65</ele>
        <time>2021-01-03T13:49:11Z</time>
      </trkpt>
      <trkpt lat="43.65153" lon="3.78813">
        <ele>62</ele>
        <time>2021-01-03T13:49:12Z</time>
      </trkpt>
      <trkpt lat="43.65154" lon="3.78811">
        <ele>62.1</ele>
        <time>2021-01-03T13:49:13Z</time>
      </trkpt>
      <trkpt lat="43.65156" lon="3.7881">
        <ele>62.1</ele>
        <time>2021-01-03T13:49:14Z</time>
      </trkpt>
      <trkpt lat="43.6516" lon="3.78807">
        <ele>62.1</ele>
        <time>2021-01-03T13:49:15Z</time>
      </trkpt>
      <trkpt lat="43.65162" lon="3.78805">
        <ele>62.2</ele>
        <time>2021-01-03T13:49:16Z</time>
      </trkpt>
      <trkpt lat="43.65164" lon="3.78803">
        <ele>62.3</ele>
        <time>2021-01-03T13:49:17Z</time>
      </trkpt>
      <trkpt lat="43.65167" lon="3.78802">
        <ele>62.3</ele>
        <time>2021-01-03T13:49:18Z</time>
      </trkpt>
      <trkpt lat="43.65169" lon="3.788">
        <ele>62.4</ele>
        <time>2021-01-03T13:49:19Z</time>
      </trkpt>
      <trkpt lat="43.65171" lon="3.78798">
        <ele>62.5</ele>
        <time>2021-01-03T13:49:20Z</time>
      </trkpt>
      <trkpt lat="43.65174" lon="3.78796">
        <ele>62.5</ele>
        <time>2021-01-03T13:49:22Z</time>
      </trkpt>
      <trkpt lat="43.65176" lon="3.78794">
        <ele>62.6</ele>
        <time>2021-01-03T13:49:23Z</time>
      </trkpt>
      <trkpt lat="43.65179" lon="3.78792">
        <ele>62.5</ele>
        <time>2021-01-03T13:49:24Z</time>
      </trkpt>
      <trkpt lat="43.65182" lon="3.7879">
        <ele>62.5</ele>
        <time>2021-01-03T13:49:25Z</time>
      </trkpt>
      <trkpt lat="43.65184" lon="3.78788">
        <ele>62.5</ele>
        <time>2021-01-03T13:49:26Z</time>
      </trkpt>
      <trkpt lat="43.65187" lon="3.78786">
        <ele>62.4</ele>
        <time>2021-01-03T13:49:27Z</time>
      </trkpt>
      <trkpt lat="43.6519" lon="3.78784">
        <ele>62.2</ele>
        <time>2021-01-03T13:49:28Z</time>
      </trkpt>
      <trkpt lat="43.65193" lon="3.78782">
        <ele>62.1</ele>
        <time>2021-01-03T13:49:29Z</time>
      </trkpt>
      <trkpt lat="43.65196" lon="3.7878">
        <ele>61.8</ele>
        <time>2021-01-03T13:49:30Z</time>
      </trkpt>
      <trkpt lat="43.65198" lon="3.78778">
        <ele>66</ele>
        <time>2021-01-03T13:49:31Z</time>
      </trkpt>
      <trkpt lat="43.65201" lon="3.78776">
        <ele>61.4</ele>
        <time>2021-01-03T13:49:32Z</time>
      </trkpt>
      <trkpt lat="43.65204" lon="3.78773">
        <ele>61.4</ele>
        <time>2021-01-03T13:49:33Z</time>
      </trkpt>
      <trkpt lat="43.65206" lon="3.7877">
        <ele>61.4</ele>
        <time>2021-01-03T13:49:34Z</time>
      </trkpt>
      <trkpt lat="43.65209" lon="3.78768">
        <ele>61.3</ele>
        <time>2021-01-03T13:49:35Z</time>
      </trkpt>
      <trkpt lat="43.65211" lon="3.78766">
        <ele>61.3</ele>
        <time>2021-01-03T13:49:36Z</time>
      </trkpt>
      <trkpt lat="43.65213" lon="3.78762">
        <ele>61.5</ele>
        <time>2021-01-03T13:49:37Z</time>
      </trkpt>
      <trkpt lat="43.65215" lon="3.78759">
        <ele>61.6</ele>
        <time>2021-01-03T13:49:38Z</time>
      </trkpt>
      <trkpt lat="43.65216" lon="3.78756">
        <ele>61.8</ele>
        <time>2021-01-03T13:49:39Z</time>
      </trkpt>
      <trkpt lat="43.65218" lon="3.78753">
        <ele>62</ele>
        <time>2021-01-03T13:49:40Z</time>
      </trkpt>
      <trkpt lat="43.65219" lon="3.7875">
        <ele>66</ele>
        <time>2021-01-03T13:49:41Z</time>
      </trkpt>
      <trkpt lat="43.65219" lon="3.78747">
        <ele>62.4</ele>
        <time>2021-01-03T13:49:42Z</time>
      </trkpt>
      <trkpt lat="43.6522" lon="3.78744">
        <ele>62.6</ele>
        <time>2021-01-03T13:49:43Z</time>
      </trkpt>
      <trkpt lat="43.6522" lon="3.78741">
        <ele>62.8</ele>
        <time>2021-01-03T13:49:44Z</time>
      </trkpt>
      <trkpt lat="43.65219" lon="3.78739">
        <ele>62.9</ele>
        <time>2021-01-03T13:49:45Z</time>
      </trkpt>
      <trkpt lat="43.65217" lon="3.78736">
        <ele>63.2</ele>
        <time>2021-01-03T13:49:46Z</time>
      </trkpt>
      <trkpt lat="43.65215" lon="3.78733">
        <ele>63.4</ele>
        <time>2021-01-03T13:49:47Z</time>
      </trkpt>
      <trkpt lat="43.65214" lon="3.78729">
        <ele>63.7</ele>
        <time>2021-01-03T13:49:48Z</time>
      </trkpt>
      <trkpt lat="43.65213" lon="3.78725">
        <ele>63.9</ele>
        <time>2021-01-03T13:49:49Z</time>
      </trkpt>
      <trkpt lat="43.65212" lon="3.78721">
        <ele>64</ele>
        <time>2021-01-03T13:49:50Z</time>
      </trkpt>
      <trkpt lat="43.65212" lon="3.78717">
        <ele>66</ele>
        <time>2021-01-03T13:49:51Z</time>
      </trkpt>
      <trkpt lat="43.65212" lon="3.78713">
        <ele>64.1</ele>
        <time>2021-01-03T13:49:52Z</time>
      </trkpt>
      <trkpt lat="43.65212" lon="3.78708">
        <ele>64.1</ele>
        <time>2021-01-03T13:49:53Z</time>
      </trkpt>
      <trkpt lat="43.65212" lon="3.78704">
        <ele>64.2</ele>
        <time>2021-01-03T13:49:54Z</time>
      </trkpt>
      <trkpt lat="43.65212" lon="3.787">
        <ele>64.2</ele>
        <time>2021-01-03T13:49:55Z</time>
      </trkpt>
      <trkpt lat="43.65212" lon="3.78697">
        <ele>64.2</ele>
        <time>2021-01-03T13:49:56Z</time>
      </trkpt>
      <trkpt lat="43.65212" lon="3.78693">
        <ele>64.3</ele>
        <time>2021-01-03T13:49:57Z</time>
      </trkpt>
      <trkpt lat="43.65212" lon="3.78688">
        <ele>64.6</ele>
        <time>2021-01-03T13:49:58Z</time>
      </trkpt>
      <trkpt lat="43.65211" lon="3.78684">
        <ele>64.6</ele>
        <time>2021-01-03T13:49:59Z</time>
      </trkpt>
      <trkpt lat="43.65211" lon="3.7868">
        <ele>64.8</ele>
        <time>2021-01-03T13:50:00Z</time>
      </trkpt>
      <trkpt lat="43.65211" lon="3.78675">
        <ele>67</ele>
        <time>2021-01-03T13:50:01Z</time>
      </trkpt>
      <trkpt lat="43.6521" lon="3.78671">
        <ele>65.1</ele>
        <time>2021-01-03T13:50:02Z</time>
      </trkpt>
      <trkpt lat="43.6521" lon="3.78667">
        <ele>65.2</ele>
        <time>2021-01-03T13:50:03Z</time>
      </trkpt>
      <trkpt lat="43.6521" lon="3.78662">
        <ele>65.6</ele>
        <time>2021-01-03T13:50:04Z</time>
      </trkpt>
      <trkpt lat="43.6521" lon="3.78658">
        <ele>65.8</ele>
        <time>2021-01-03T13:50:05Z</time>
      </trkpt>
      <trkpt lat="43.6521" lon="3.78654">
        <ele>66.1</ele>
        <time>2021-01-03T13:50:06Z</time>
      </trkpt>
      <trkpt lat="43.65209" lon="3.7865">
        <ele>66.3</ele>
        <time>2021-01-03T13:50:07Z</time>
      </trkpt>
      <trkpt lat="43.65209" lon="3.78646">
        <ele>66.5</ele>
        <time>2021-01-03T13:50:08Z</time>
      </trkpt>
      <trkpt lat="43.65208" lon="3.78643">
        <ele>66.7</ele>
        <time>2021-01-03T13:50:09Z</time>
      </trkpt>
      <trkpt lat="43.65208" lon="3.78639">
        <ele>67</ele>
        <time>2021-01-03T13:50:10Z</time>
      </trkpt>
      <trkpt lat="43.65207" lon="3.78635">
        <ele>69</ele>
        <time>2021-01-03T13:50:11Z</time>
      </trkpt>
      <trkpt lat="43.65207" lon="3.78632">
        <ele>67.2</ele>
        <time>2021-01-03T13:50:12Z</time>
      </trkpt>
      <trkpt lat="43.65207" lon="3.78628">
        <ele>67.3</ele>
        <time>2021-01-03T13:50:13Z</time>
      </trkpt>
      <trkpt lat="43.65206" lon="3.78624">
        <ele>67.4</ele>
        <time>2021-01-03T13:50:14Z</time>
      </trkpt>
      <trkpt lat="43.65205" lon="3.78621">
        <ele>67.4</ele>
        <time>2021-01-03T13:50:15Z</time>
      </trkpt>
      <trkpt lat="43.65205" lon="3.78618">
        <ele>67.5</ele>
        <time>2021-01-03T13:50:16Z</time>
      </trkpt>
      <trkpt lat="43.65205" lon="3.78614">
        <ele>67.7</ele>
        <time>2021-01-03T13:50:17Z</time>
      </trkpt>
      <trkpt lat="43.65205" lon="3.78611">
        <ele>67.8</ele>
        <time>2021-01-03T13:50:18Z</time>
      </trkpt>
      <trkpt lat="43.65204" lon="3.78607">
        <ele>67.9</ele>
        <time>2021-01-03T13:50:19Z</time>
      </trkpt>
      <trkpt lat="43.65204" lon="3.78604">
        <ele>68</ele>
        <time>2021-01-03T13:50:20Z</time>
      </trkpt>
      <trkpt lat="43.65204" lon="3.786">
        <ele>70</ele>
        <time>2021-01-03T13:50:21Z</time>
      </trkpt>
      <trkpt lat="43.65203" lon="3.78597">
        <ele>68.3</ele>
        <time>2021-01-03T13:50:22Z</time>
      </trkpt>
      <trkpt lat="43.65203" lon="3.78594">
        <ele>68.4</ele>
        <time>2021-01-03T13:50:23Z</time>
      </trkpt>
      <trkpt lat="43.65203" lon="3.7859">
        <ele>68.6</ele>
        <time>2021-01-03T13:50:24Z</time>
      </trkpt>
      <trkpt lat="43.65202" lon="3.78587">
        <ele>68.6</ele>
        <time>2021-01-03T13:50:25Z</time>
      </trkpt>
      <trkpt lat="43.65202" lon="3.78584">
        <ele>68.8</ele>
        <time>2021-01-03T13:50:26Z</time>
      </trkpt>
      <trkpt lat="43.65201" lon="3.78581">
        <ele>68.8</ele>
        <time>2021-01-03T13:50:27Z</time>
      </trkpt>
      <trkpt lat="43.65201" lon="3.78577">
        <ele>69</ele>
        <time>2021-01-03T13:50:28Z</time>
      </trkpt>
      <trkpt lat="43.652" lon="3.78574">
        <ele>69.1</ele>
        <time>2021-01-03T13:50:29Z</time>
      </trkpt>
      <trkpt lat="43.65199" lon="3.7857">
        <ele>69.1</ele>
        <time>2021-01-03T13:50:30Z</time>
      </trkpt>
      <trkpt lat="43.65199" lon="3.78567">
        <ele>71</ele>
        <time>2021-01-03T13:50:31Z</time>
      </trkpt>
      <trkpt lat="43.65198" lon="3.78564">
        <ele>69.3</ele>
        <time>2021-01-03T13:50:32Z</time>
      </trkpt>
      <trkpt lat="43.65198" lon="3.78561">
        <ele>69.4</ele>
        <time>2021-01-03T13:50:33Z</time>
      </trkpt>
      <trkpt lat="43.65197" lon="3.78558">
        <ele>69.4</ele>
        <time>2021-01-03T13:50:34Z</time>
      </trkpt>
      <trkpt lat="43.65196" lon="3.78555">
        <ele>69.3</ele>
        <time>2021-01-03T13:50:35Z</time>
      </trkpt>
      <trkpt lat="43.65196" lon="3.78553">
        <ele>69.5</ele>
        <time>2021-01-03T13:50:36Z</time>
      </trkpt>
      <trkpt lat="43.65196" lon="3.78549">
        <ele>69.8</ele>
        <time>2021-01-03T13:50:37Z</time>
      </trkpt>
      <trkpt lat="43.65196" lon="3.78546">
        <ele>70</ele>
        <time>2021-01-03T13:50:38Z</time>
      </trkpt>
      <trkpt lat="43.65195" lon="3.78542">
        <ele>70.1</ele>
        <time>2021-01-03T13:50:39Z</time>
      </trkpt>
      <trkpt lat="43.65195" lon="3.78539">
        <ele>70.3</ele>
        <time>2021-01-03T13:50:40Z</time>
      </trkpt>
      <trkpt lat="43.65195" lon="3.78535">
        <ele>71</ele>
        <time>2021-01-03T13:50:41Z</time>
      </trkpt>
      <trkpt lat="43.65195" lon="3.78532">
        <ele>70.8</ele>
        <time>2021-01-03T13:50:42Z</time>
      </trkpt>
      <trkpt lat="43.65195" lon="3.78528">
        <ele>71.1</ele>
        <time>2021-01-03T13:50:43Z</time>
      </trkpt>
      <trkpt lat="43.65196" lon="3.78525">
        <ele>71.3</ele>
        <time>2021-01-03T13:50:44Z</time>
      </trkpt>
      <trkpt lat="43.65196" lon="3.78521">
        <ele>71.3</ele>
        <time>2021-01-03T13:50:45Z</time>
      </trkpt>
      <trkpt lat="43.65196" lon="3.78518">
        <ele>71.3</ele>
        <time>2021-01-03T13:50:46Z</time>
      </trkpt>
      <trkpt lat="43.65196" lon="3.78514">
        <ele>71.3</ele>
        <time>2021-01-03T13:50:47Z</time>
      </trkpt>
      <trkpt lat="43.65197" lon="3.78511">
        <ele>71.5</ele>
        <time>2021-01-03T13:50:48Z</time>
      </trkpt>
      <trkpt lat="43.65197" lon="3.78508">
        <ele>71.5</ele>
        <time>2021-01-03T13:50:49Z</time>
      </trkpt>
      <trkpt lat="43.65198" lon="3.78504">
        <ele>71.6</ele>
        <time>2021-01-03T13:50:50Z</time>
      </trkpt>
      <trkpt lat="43.65198" lon="3.78501">
        <ele>73</ele>
        <time>2021-01-03T13:50:51Z</time>
      </trkpt>
      <trkpt lat="43.65199" lon="3.78497">
        <ele>71.9</ele>
        <time>2021-01-03T13:50:52Z</time>
      </trkpt>
      <trkpt lat="43.65199" lon="3.78494">
        <ele>72</ele>
        <time>2021-01-03T13:50:53Z</time>
      </trkpt>
      <trkpt lat="43.652" lon="3.78491">
        <ele>72.3</ele>
        <time>2021-01-03T13:50:54Z</time>
      </trkpt>
      <trkpt lat="43.652" lon="3.78487">
        <ele>72.4</ele>
        <time>2021-01-03T13:50:55Z</time>
      </trkpt>
      <trkpt lat="43.652" lon="3.78484">
        <ele>72.5</ele>
        <time>2021-01-03T13:50:56Z</time>
      </trkpt>
      <trkpt lat="43.65201" lon="3.7848">
        <ele>72.7</ele>
        <time>2021-01-03T13:50:57Z</time>
      </trkpt>
      <trkpt lat="43.65201" lon="3.78477">
        <ele>72.8</ele>
        <time>2021-01-03T13:50:58Z</time>
      </trkpt>
      <trkpt lat="43.65201" lon="3.78474">
        <ele>72.9</ele>
        <time>2021-01-03T13:50:59Z</time>
      </trkpt>
      <trkpt lat="43.65202" lon="3.7847">
        <ele>73.1</ele>
        <time>2021-01-03T13:51:00Z</time>
      </trkpt>
      <trkpt lat="43.65202" lon="3.78466">
        <ele>74</ele>
        <time>2021-01-03T13:51:01Z</time>
      </trkpt>
      <trkpt lat="43.65202" lon="3.78463">
        <ele>73.2</ele>
        <time>2021-01-03T13:51:02Z</time>
      </trkpt>
      <trkpt lat="43.65201" lon="3.78459">
        <ele>73.2</ele>
        <time>2021-01-03T13:51:03Z</time>
      </trkpt>
      <trkpt lat="43.65201" lon="3.78455">
        <ele>73.3</ele>
        <time>2021-01-03T13:51:04Z</time>
      </trkpt>
      <trkpt lat="43.65201" lon="3.78452">
        <ele>73.3</ele>
        <time>2021-01-03T13:51:05Z</time>
      </trkpt>
      <trkpt lat="43.652" lon="3.78448">
        <ele>73.3</ele>
        <time>2021-01-03T13:51:06Z</time>
      </trkpt>
      <trkpt lat="43.652" lon="3.78444">
        <ele>73.4</ele>
        <time>2021-01-03T13:51:07Z</time>
      </trkpt>
      <trkpt lat="43.65199" lon="3.7844">
        <ele>73.3</ele>
        <time>2021-01-03T13:51:08Z</time>
      </trkpt>
      <trkpt lat="43.65199" lon="3.78437">
        <ele>73.3</ele>
        <time>2021-01-03T13:51:09Z</time>
      </trkpt>
      <trkpt lat="43.65198" lon="3.78433">
        <ele>73.3</ele>
        <time>2021-01-03T13:51:10Z</time>
      </trkpt>
      <trkpt lat="43.65197" lon="3.7843">
        <ele>76</ele>
        <time>2021-01-03T13:51:11Z</time>
      </trkpt>
      <trkpt lat="43.65197" lon="3.78426">
        <ele>73.2</ele>
        <time>2021-01-03T13:51:12Z</time>
      </trkpt>
      <trkpt lat="43.65196" lon="3.78422">
        <ele>73.1</ele>
        <time>2021-01-03T13:51:13Z</time>
      </trkpt>
      <trkpt lat="43.65196" lon="3.78419">
        <ele>73.1</ele>
        <time>2021-01-03T13:51:14Z</time>
      </trkpt>
      <trkpt lat="43.65196" lon="3.78415">
        <ele>73.2</ele>
        <time>2021-01-03T13:51:15Z</time>
      </trkpt>
      <trkpt lat="43.65196" lon="3.78411">
        <ele>73.3</ele>
        <time>2021-01-03T13:51:16Z</time>
      </trkpt>
      <trkpt lat="43.65195" lon="3.78408">
        <ele>73.3</ele>
        <time>2021-01-03T13:51:17Z</time>
      </trkpt>
      <trkpt lat="43.65194" lon="3.78405">
        <ele>73.4</ele>
        <time>2021-01-03T13:51:18Z</time>
      </trkpt>
      <trkpt lat="43.65193" lon="3.78403">
        <ele>73.4</ele>
        <time>2021-01-03T13:51:19Z</time>
      </trkpt>
      <trkpt lat="43.65193" lon="3.784">
        <ele>73.5</ele>
        <time>2021-01-03T13:51:20Z</time>
      </trkpt>
      <trkpt lat="43.65192" lon="3.78398">
        <ele>73.6</ele>
        <time>2021-01-03T13:51:21Z</time>
      </trkpt>
      <trkpt lat="43.65192" lon="3.78394">
        <ele>77</ele>
        <time>2021-01-03T13:51:22Z</time>
      </trkpt>
      <trkpt lat="43.65191" lon="3.78391">
        <ele>73.8</ele>
        <time>2021-01-03T13:51:23Z</time>
      </trkpt>
      <trkpt lat="43.65191" lon="3.78388">
        <ele>73.9</ele>
        <time>2021-01-03T13:51:24Z</time>
      </trkpt>
      <trkpt lat="43.6519" lon="3.78385">
        <ele>74.1</ele>
        <time>2021-01-03T13:51:25Z</time>
      </trkpt>
      <trkpt lat="43.6519" lon="3.78382">
        <ele>74.3</ele>
        <time>2021-01-03T13:51:26Z</time>
      </trkpt>
      <trkpt lat="43.65189" lon="3.78379">
        <ele>74.5</ele>
        <time>2021-01-03T13:51:27Z</time>
      </trkpt>
      <trkpt lat="43.65189" lon="3.78372">
        <ele>75</ele>
        <time>2021-01-03T13:51:28Z</time>
      </trkpt>
      <trkpt lat="43.65188" lon="3.78369">
        <ele>75.2</ele>
        <time>2021-01-03T13:51:29Z</time>
      </trkpt>
      <trkpt lat="43.65188" lon="3.78366">
        <ele>75.4</ele>
        <time>2021-01-03T13:51:30Z</time>
      </trkpt>
      <trkpt lat="43.65187" lon="3.78363">
        <ele>79</ele>
        <time>2021-01-03T13:51:31Z</time>
      </trkpt>
      <trkpt lat="43.65187" lon="3.78359">
        <ele>75.8</ele>
        <time>2021-01-03T13:51:32Z</time>
      </trkpt>
      <trkpt lat="43.65187" lon="3.78356">
        <ele>76</ele>
        <time>2021-01-03T13:51:33Z</time>
      </trkpt>
      <trkpt lat="43.65186" lon="3.78353">
        <ele>76.1</ele>
        <time>2021-01-03T13:51:34Z</time>
      </trkpt>
      <trkpt lat="43.65186" lon="3.7835">
        <ele>76.3</ele>
        <time>2021-01-03T13:51:36Z</time>
      </trkpt>
      <trkpt lat="43.65185" lon="3.78348">
        <ele>76.3</ele>
        <time>2021-01-03T13:51:37Z</time>
      </trkpt>
      <trkpt lat="43.65184" lon="3.78345">
        <ele>76.3</ele>
        <time>2021-01-03T13:51:38Z</time>
      </trkpt>
      <trkpt lat="43.65184" lon="3.78341">
        <ele>76.5</ele>
        <time>2021-01-03T13:51:39Z</time>
      </trkpt>
      <trkpt lat="43.65183" lon="3.78339">
        <ele>76.5</ele>
        <time>2021-01-03T13:51:40Z</time>
      </trkpt>
      <trkpt lat="43.65182" lon="3.78336">
        <ele>80</ele>
        <time>2021-01-03T13:51:41Z</time>
      </trkpt>
      <trkpt lat="43.65182" lon="3.78333">
        <ele>76.7</ele>
        <time>2021-01-03T13:51:42Z</time>
      </trkpt>
      <trkpt lat="43.65182" lon="3.7833">
        <ele>76.8</ele>
        <time>2021-01-03T13:51:43Z</time>
      </trkpt>
      <trkpt lat="43.65181" lon="3.78328">
        <ele>76.8</ele>
        <time>2021-01-03T13:51:44Z</time>
      </trkpt>
      <trkpt lat="43.65181" lon="3.78325">
        <ele>77</ele>
        <time>2021-01-03T13:51:45Z</time>
      </trkpt>
      <trkpt lat="43.6518" lon="3.78322">
        <ele>77</ele>
        <time>2021-01-03T13:51:46Z</time>
      </trkpt>
      <trkpt lat="43.6518" lon="3.78319">
        <ele>77.2</ele>
        <time>2021-01-03T13:51:47Z</time>
      </trkpt>
      <trkpt lat="43.65179" lon="3.78316">
        <ele>77.2</ele>
        <time>2021-01-03T13:51:48Z</time>
      </trkpt>
      <trkpt lat="43.65179" lon="3.78313">
        <ele>77.4</ele>
        <time>2021-01-03T13:51:49Z</time>
      </trkpt>
      <trkpt lat="43.65178" lon="3.78311">
        <ele>77.4</ele>
        <time>2021-01-03T13:51:50Z</time>
      </trkpt>
      <trkpt lat="43.65178" lon="3.78308">
        <ele>77.5</ele>
        <time>2021-01-03T13:51:51Z</time>
      </trkpt>
      <trkpt lat="43.65177" lon="3.78305">
        <ele>80</ele>
        <time>2021-01-03T13:51:52Z</time>
      </trkpt>
      <trkpt lat="43.65177" lon="3.78302">
        <ele>77.6</ele>
        <time>2021-01-03T13:51:53Z</time>
      </trkpt>
      <trkpt lat="43.65176" lon="3.78299">
        <ele>77.6</ele>
        <time>2021-01-03T13:51:54Z</time>
      </trkpt>
      <trkpt lat="43.65176" lon="3.78296">
        <ele>77.7</ele>
        <time>2021-01-03T13:51:55Z</time>
      </trkpt>
      <trkpt lat="43.65175" lon="3.78292">
        <ele>77.7</ele>
        <time>2021-01-03T13:51:56Z</time>
      </trkpt>
      <trkpt lat="43.65175" lon="3.78289">
        <ele>77.8</ele>
        <time>2021-01-03T13:51:57Z</time>
      </trkpt>
      <trkpt lat="43.65175" lon="3.78286">
        <ele>77.9</ele>
        <time>2021-01-03T13:51:58Z</time>
      </trkpt>
      <trkpt lat="43.65174" lon="3.78283">
        <ele>77.9</ele>
        <time>2021-01-03T13:51:59Z</time>
      </trkpt>
      <trkpt lat="43.65174" lon="3.7828">
        <ele>78</ele>
        <time>2021-01-03T13:52:00Z</time>
      </trkpt>
      <trkpt lat="43.65174" lon="3.78277">
        <ele>82</ele>
        <time>2021-01-03T13:52:01Z</time>
      </trkpt>
      <trkpt lat="43.65173" lon="3.78274">
        <ele>78</ele>
        <time>2021-01-03T13:52:02Z</time>
      </trkpt>
      <trkpt lat="43.65173" lon="3.7827">
        <ele>78.1</ele>
        <time>2021-01-03T13:52:03Z</time>
      </trkpt>
      <trkpt lat="43.65173" lon="3.78267">
        <ele>78.1</ele>
        <time>2021-01-03T13:52:04Z</time>
      </trkpt>
      <trkpt lat="43.65173" lon="3.78264">
        <ele>78.2</ele>
        <time>2021-01-03T13:52:05Z</time>
      </trkpt>
      <trkpt lat="43.65173" lon="3.78261">
        <ele>78.2</ele>
        <time>2021-01-03T13:52:06Z</time>
      </trkpt>
      <trkpt lat="43.65172" lon="3.78258">
        <ele>78.2</ele>
        <time>2021-01-03T13:52:07Z</time>
      </trkpt>
      <trkpt lat="43.65172" lon="3.78254">
        <ele>78.3</ele>
        <time>2021-01-03T13:52:08Z</time>
      </trkpt>
      <trkpt lat="43.65172" lon="3.78251">
        <ele>78.4</ele>
        <time>2021-01-03T13:52:09Z</time>
      </trkpt>
      <trkpt lat="43.65173" lon="3.78248">
        <ele>78.5</ele>
        <time>2021-01-03T13:52:10Z</time>
      </trkpt>
      <trkpt lat="43.65174" lon="3.78245">
        <ele>84</ele>
        <time>2021-01-03T13:52:11Z</time>
      </trkpt>
      <trkpt lat="43.65175" lon="3.78242">
        <ele>78.9</ele>
        <time>2021-01-03T13:52:12Z</time>
      </trkpt>
      <trkpt lat="43.65176" lon="3.78239">
        <ele>79.1</ele>
        <time>2021-01-03T13:52:13Z</time>
      </trkpt>
      <trkpt lat="43.65177" lon="3.78236">
        <ele>79.2</ele>
        <time>2021-01-03T13:52:14Z</time>
      </trkpt>
      <trkpt lat="43.65176" lon="3.78233">
        <ele>79.3</ele>
        <time>2021-01-03T13:52:15Z</time>
      </trkpt>
      <trkpt lat="43.65175" lon="3.7823">
        <ele>79.3</ele>
        <time>2021-01-03T13:52:16Z</time>
      </trkpt>
      <trkpt lat="43.65174" lon="3.78227">
        <ele>79.4</ele>
        <time>2021-01-03T13:52:17Z</time>
      </trkpt>
      <trkpt lat="43.65173" lon="3.78224">
        <ele>79.4</ele>
        <time>2021-01-03T13:52:18Z</time>
      </trkpt>
      <trkpt lat="43.65172" lon="3.78221">
        <ele>79.4</ele>
        <time>2021-01-03T13:52:19Z</time>
      </trkpt>
      <trkpt lat="43.65172" lon="3.78217">
        <ele>79.6</ele>
        <time>2021-01-03T13:52:20Z</time>
      </trkpt>
      <trkpt lat="43.65171" lon="3.78214">
        <ele>85</ele>
        <time>2021-01-03T13:52:21Z</time>
      </trkpt>
      <trkpt lat="43.65171" lon="3.7821">
        <ele>79.8</ele>
        <time>2021-01-03T13:52:22Z</time>
      </trkpt>
      <trkpt lat="43.65172" lon="3.78207">
        <ele>79.9</ele>
        <time>2021-01-03T13:52:23Z</time>
      </trkpt>
      <trkpt lat="43.65172" lon="3.78203">
        <ele>80.1</ele>
        <time>2021-01-03T13:52:24Z</time>
      </trkpt>
      <trkpt lat="43.65173" lon="3.782">
        <ele>80.3</ele>
        <time>2021-01-03T13:52:25Z</time>
      </trkpt>
      <trkpt lat="43.65173" lon="3.78196">
        <ele>80.4</ele>
        <time>2021-01-03T13:52:26Z</time>
      </trkpt>
      <trkpt lat="43.65174" lon="3.78193">
        <ele>80.6</ele>
        <time>2021-01-03T13:52:27Z</time>
      </trkpt>
      <trkpt lat="43.65174" lon="3.78189">
        <ele>80.9</ele>
        <time>2021-01-03T13:52:28Z</time>
      </trkpt>
      <trkpt lat="43.65175" lon="3.78185">
        <ele>81.2</ele>
        <time>2021-01-03T13:52:29Z</time>
      </trkpt>
      <trkpt lat="43.65176" lon="3.78182">
        <ele>81.4</ele>
        <time>2021-01-03T13:52:30Z</time>
      </trkpt>
      <trkpt lat="43.65177" lon="3.78178">
        <ele>86</ele>
        <time>2021-01-03T13:52:31Z</time>
      </trkpt>
      <trkpt lat="43.65178" lon="3.78175">
        <ele>81.9</ele>
        <time>2021-01-03T13:52:32Z</time>
      </trkpt>
      <trkpt lat="43.65179" lon="3.78171">
        <ele>82.2</ele>
        <time>2021-01-03T13:52:33Z</time>
      </trkpt>
      <trkpt lat="43.6518" lon="3.78168">
        <ele>82.4</ele>
        <time>2021-01-03T13:52:34Z</time>
      </trkpt>
      <trkpt lat="43.65182" lon="3.78165">
        <ele>82.6</ele>
        <time>2021-01-03T13:52:35Z</time>
      </trkpt>
      <trkpt lat="43.65183" lon="3.78162">
        <ele>82.6</ele>
        <time>2021-01-03T13:52:36Z</time>
      </trkpt>
      <trkpt lat="43.65184" lon="3.78158">
        <ele>82.7</ele>
        <time>2021-01-03T13:52:37Z</time>
      </trkpt>
      <trkpt lat="43.65185" lon="3.78153">
        <ele>82.7</ele>
        <time>2021-01-03T13:52:38Z</time>
      </trkpt>
      <trkpt lat="43.65186" lon="3.78148">
        <ele>82.6</ele>
        <time>2021-01-03T13:52:39Z</time>
      </trkpt>
      <trkpt lat="43.65188" lon="3.78143">
        <ele>82.5</ele>
        <time>2021-01-03T13:52:40Z</time>
      </trkpt>
      <trkpt lat="43.65189" lon="3.78138">
        <ele>86</ele>
        <time>2021-01-03T13:52:41Z</time>
      </trkpt>
      <trkpt lat="43.65191" lon="3.78133">
        <ele>81.9</ele>
        <time>2021-01-03T13:52:42Z</time>
      </trkpt>
      <trkpt lat="43.65194" lon="3.78127">
        <ele>81.2</ele>
        <time>2021-01-03T13:52:43Z</time>
      </trkpt>
      <trkpt lat="43.65197" lon="3.78121">
        <ele>80.7</ele>
        <time>2021-01-03T13:52:44Z</time>
      </trkpt>
      <trkpt lat="43.652" lon="3.78114">
        <ele>80.2</ele>
        <time>2021-01-03T13:52:45Z</time>
      </trkpt>
      <trkpt lat="43.65203" lon="3.78107">
        <ele>79.9</ele>
        <time>2021-01-03T13:52:46Z</time>
      </trkpt>
      <trkpt lat="43.65207" lon="3.781">
        <ele>79.5</ele>
        <time>2021-01-03T13:52:47Z</time>
      </trkpt>
      <trkpt lat="43.6521" lon="3.78093">
        <ele>78.9</ele>
        <time>2021-01-03T13:52:48Z</time>
      </trkpt>
      <trkpt lat="43.65215" lon="3.78086">
        <ele>78</ele>
        <time>2021-01-03T13:52:49Z</time>
      </trkpt>
      <trkpt lat="43.65218" lon="3.78078">
        <ele>77.3</ele>
        <time>2021-01-03T13:52:50Z</time>
      </trkpt>
      <trkpt lat="43.65222" lon="3.78071">
        <ele>83</ele>
        <time>2021-01-03T13:52:51Z</time>
      </trkpt>
      <trkpt lat="43.65226" lon="3.78064">
        <ele>76.1</ele>
        <time>2021-01-03T13:52:52Z</time>
      </trkpt>
      <trkpt lat="43.65229" lon="3.78058">
        <ele>75.8</ele>
        <time>2021-01-03T13:52:53Z</time>
      </trkpt>
      <trkpt lat="43.65231" lon="3.78053">
        <ele>75.8</ele>
        <time>2021-01-03T13:52:54Z</time>
      </trkpt>
      <trkpt lat="43.65232" lon="3.78051">
        <ele>75.8</ele>
        <time>2021-01-03T13:52:55Z</time>
      </trkpt>
      <trkpt lat="43.65235" lon="3.78052">
        <ele>75.7</ele>
        <time>2021-01-03T13:52:56Z</time>
      </trkpt>
      <trkpt lat="43.65238" lon="3.78054">
        <ele>75.5</ele>
        <time>2021-01-03T13:52:57Z</time>
      </trkpt>
      <trkpt lat="43.65241" lon="3.78057">
        <ele>75.3</ele>
        <time>2021-01-03T13:52:58Z</time>
      </trkpt>
      <trkpt lat="43.65244" lon="3.78061">
        <ele>75.1</ele>
        <time>2021-01-03T13:52:59Z</time>
      </trkpt>
      <trkpt lat="43.65247" lon="3.78065">
        <ele>74.8</ele>
        <time>2021-01-03T13:53:00Z</time>
      </trkpt>
      <trkpt lat="43.65251" lon="3.78068">
        <ele>82</ele>
        <time>2021-01-03T13:53:01Z</time>
      </trkpt>
      <trkpt lat="43.65255" lon="3.78072">
        <ele>74.6</ele>
        <time>2021-01-03T13:53:02Z</time>
      </trkpt>
      <trkpt lat="43.65259" lon="3.78076">
        <ele>74.4</ele>
        <time>2021-01-03T13:53:03Z</time>
      </trkpt>
      <trkpt lat="43.65262" lon="3.7808">
        <ele>74.2</ele>
        <time>2021-01-03T13:53:04Z</time>
      </trkpt>
      <trkpt lat="43.65266" lon="3.78085">
        <ele>74</ele>
        <time>2021-01-03T13:53:05Z</time>
      </trkpt>
      <trkpt lat="43.6527" lon="3.78088">
        <ele>74</ele>
        <time>2021-01-03T13:53:06Z</time>
      </trkpt>
      <trkpt lat="43.65275" lon="3.78091">
        <ele>73.8</ele>
        <time>2021-01-03T13:53:07Z</time>
      </trkpt>
      <trkpt lat="43.65279" lon="3.78092">
        <ele>73.7</ele>
        <time>2021-01-03T13:53:08Z</time>
      </trkpt>
      <trkpt lat="43.65284" lon="3.78094">
        <ele>73.9</ele>
        <time>2021-01-03T13:53:09Z</time>
      </trkpt>
      <trkpt lat="43.65289" lon="3.78095">
        <ele>74.2</ele>
        <time>2021-01-03T13:53:10Z</time>
      </trkpt>
      <trkpt lat="43.65295" lon="3.78095">
        <ele>80</ele>
        <time>2021-01-03T13:53:11Z</time>
      </trkpt>
      <trkpt lat="43.653" lon="3.78094">
        <ele>74.7</ele>
        <time>2021-01-03T13:53:12Z</time>
      </trkpt>
      <trkpt lat="43.65304" lon="3.78092">
        <ele>74.9</ele>
        <time>2021-01-03T13:53:13Z</time>
      </trkpt>
      <trkpt lat="43.65308" lon="3.7809">
        <ele>75.2</ele>
        <time>2021-01-03T13:53:14Z</time>
      </trkpt>
      <trkpt lat="43.65312" lon="3.78089">
        <ele>75.5</ele>
        <time>2021-01-03T13:53:15Z</time>
      </trkpt>
      <trkpt lat="43.65316" lon="3.78087">
        <ele>75.8</ele>
        <time>2021-01-03T13:53:16Z</time>
      </trkpt>
      <trkpt lat="43.6532" lon="3.78085">
        <ele>76</ele>
        <time>2021-01-03T13:53:17Z</time>
      </trkpt>
      <trkpt lat="43.65322" lon="3.78084">
        <ele>76.2</ele>
        <time>2021-01-03T13:53:18Z</time>
      </trkpt>
      <trkpt lat="43.65325" lon="3.78083">
        <ele>76.4</ele>
        <time>2021-01-03T13:53:19Z</time>
      </trkpt>
      <trkpt lat="43.65328" lon="3.78083">
        <ele>76.6</ele>
        <time>2021-01-03T13:53:20Z</time>
      </trkpt>
      <trkpt lat="43.65331" lon="3.78082">
        <ele>81</ele>
        <time>2021-01-03T13:53:21Z</time>
      </trkpt>
      <trkpt lat="43.65334" lon="3.78081">
        <ele>77.1</ele>
        <time>2021-01-03T13:53:22Z</time>
      </trkpt>
      <trkpt lat="43.65337" lon="3.7808">
        <ele>77.1</ele>
        <time>2021-01-03T13:53:23Z</time>
      </trkpt>
      <trkpt lat="43.6534" lon="3.78079">
        <ele>77.1</ele>
        <time>2021-01-03T13:53:24Z</time>
      </trkpt>
      <trkpt lat="43.65343" lon="3.78077">
        <ele>77.1</ele>
        <time>2021-01-03T13:53:25Z</time>
      </trkpt>
      <trkpt lat="43.65347" lon="3.78073">
        <ele>77</ele>
        <time>2021-01-03T13:53:26Z</time>
      </trkpt>
      <trkpt lat="43.6535" lon="3.78069">
        <ele>76.9</ele>
        <time>2021-01-03T13:53:27Z</time>
      </trkpt>
      <trkpt lat="43.65353" lon="3.78065">
        <ele>76.7</ele>
        <time>2021-01-03T13:53:28Z</time>
      </trkpt>
      <trkpt lat="43.65357" lon="3.78061">
        <ele>76.4</ele>
        <time>2021-01-03T13:53:29Z</time>
      </trkpt>
      <trkpt lat="43.65361" lon="3.78057">
        <ele>76.1</ele>
        <time>2021-01-03T13:53:30Z</time>
      </trkpt>
      <trkpt lat="43.65364" lon="3.78054">
        <ele>81</ele>
        <time>2021-01-03T13:53:31Z</time>
      </trkpt>
      <trkpt lat="43.65367" lon="3.78051">
        <ele>75.8</ele>
        <time>2021-01-03T13:53:32Z</time>
      </trkpt>
      <trkpt lat="43.65369" lon="3.78048">
        <ele>75.7</ele>
        <time>2021-01-03T13:53:33Z</time>
      </trkpt>
      <trkpt lat="43.65372" lon="3.78046">
        <ele>75.5</ele>
        <time>2021-01-03T13:53:34Z</time>
      </trkpt>
      <trkpt lat="43.65375" lon="3.78046">
        <ele>75.2</ele>
        <time>2021-01-03T13:53:35Z</time>
      </trkpt>
      <trkpt lat="43.65377" lon="3.78049">
        <ele>74.9</ele>
        <time>2021-01-03T13:53:36Z</time>
      </trkpt>
      <trkpt lat="43.65379" lon="3.78052">
        <ele>74.7</ele>
        <time>2021-01-03T13:53:37Z</time>
      </trkpt>
      <trkpt lat="43.65381" lon="3.78053">
        <ele>74.6</ele>
        <time>2021-01-03T13:53:38Z</time>
      </trkpt>
      <trkpt lat="43.65383" lon="3.78054">
        <ele>74.4</ele>
        <time>2021-01-03T13:53:39Z</time>
      </trkpt>
      <trkpt lat="43.65384" lon="3.78054">
        <ele>74.3</ele>
        <time>2021-01-03T13:53:40Z</time>
      </trkpt>
      <trkpt lat="43.65387" lon="3.78055">
        <ele>80</ele>
        <time>2021-01-03T13:53:41Z</time>
      </trkpt>
      <trkpt lat="43.65389" lon="3.78054">
        <ele>73.9</ele>
        <time>2021-01-03T13:53:42Z</time>
      </trkpt>
      <trkpt lat="43.65392" lon="3.78053">
        <ele>73.5</ele>
        <time>2021-01-03T13:53:43Z</time>
      </trkpt>
      <trkpt lat="43.65395" lon="3.78052">
        <ele>73</ele>
        <time>2021-01-03T13:53:44Z</time>
      </trkpt>
      <trkpt lat="43.65397" lon="3.78053">
        <ele>72.8</ele>
        <time>2021-01-03T13:53:45Z</time>
      </trkpt>
      <trkpt lat="43.65399" lon="3.78054">
        <ele>72.5</ele>
        <time>2021-01-03T13:53:46Z</time>
      </trkpt>
      <trkpt lat="43.65402" lon="3.78056">
        <ele>72.1</ele>
        <time>2021-01-03T13:53:47Z</time>
      </trkpt>
      <trkpt lat="43.65404" lon="3.78057">
        <ele>71.7</ele>
        <time>2021-01-03T13:53:48Z</time>
      </trkpt>
      <trkpt lat="43.65406" lon="3.78057">
        <ele>71.5</ele>
        <time>2021-01-03T13:53:49Z</time>
      </trkpt>
      <trkpt lat="43.65409" lon="3.78055">
        <ele>71.1</ele>
        <time>2021-01-03T13:53:50Z</time>
      </trkpt>
      <trkpt lat="43.65413" lon="3.78053">
        <ele>79</ele>
        <time>2021-01-03T13:53:51Z</time>
      </trkpt>
      <trkpt lat="43.65416" lon="3.7805">
        <ele>70.1</ele>
        <time>2021-01-03T13:53:52Z</time>
      </trkpt>
      <trkpt lat="43.65418" lon="3.78045">
        <ele>70</ele>
        <time>2021-01-03T13:53:53Z</time>
      </trkpt>
      <trkpt lat="43.65421" lon="3.78039">
        <ele>70.1</ele>
        <time>2021-01-03T13:53:54Z</time>
      </trkpt>
      <trkpt lat="43.65423" lon="3.78033">
        <ele>70</ele>
        <time>2021-01-03T13:53:55Z</time>
      </trkpt>
      <trkpt lat="43.65427" lon="3.78027">
        <ele>70.1</ele>
        <time>2021-01-03T13:53:56Z</time>
      </trkpt>
      <trkpt lat="43.6543" lon="3.78022">
        <ele>70.3</ele>
        <time>2021-01-03T13:53:57Z</time>
      </trkpt>
      <trkpt lat="43.65433" lon="3.78016">
        <ele>70.5</ele>
        <time>2021-01-03T13:53:58Z</time>
      </trkpt>
      <trkpt lat="43.65436" lon="3.78011">
        <ele>70.6</ele>
        <time>2021-01-03T13:53:59Z</time>
      </trkpt>
      <trkpt lat="43.65438" lon="3.78007">
        <ele>70.5</ele>
        <time>2021-01-03T13:54:00Z</time>
      </trkpt>
      <trkpt lat="43.6544" lon="3.78004">
        <ele>77</ele>
        <time>2021-01-03T13:54:01Z</time>
      </trkpt>
      <trkpt lat="43.65442" lon="3.78">
        <ele>70.3</ele>
        <time>2021-01-03T13:54:02Z</time>
      </trkpt>
      <trkpt lat="43.65443" lon="3.77996">
        <ele>70.3</ele>
        <time>2021-01-03T13:54:03Z</time>
      </trkpt>
      <trkpt lat="43.65445" lon="3.77991">
        <ele>70.4</ele>
        <time>2021-01-03T13:54:04Z</time>
      </trkpt>
      <trkpt lat="43.65446" lon="3.77986">
        <ele>70.6</ele>
        <time>2021-01-03T13:54:05Z</time>
      </trkpt>
      <trkpt lat="43.65446" lon="3.77981">
        <ele>70.8</ele>
        <time>2021-01-03T13:54:06Z</time>
      </trkpt>
      <trkpt lat="43.65447" lon="3.77976">
        <ele>71</ele>
        <time>2021-01-03T13:54:07Z</time>
      </trkpt>
      <trkpt lat="43.65447" lon="3.77972">
        <ele>71.1</ele>
        <time>2021-01-03T13:54:08Z</time>
      </trkpt>
      <trkpt lat="43.65447" lon="3.77968">
        <ele>71.4</ele>
        <time>2021-01-03T13:54:09Z</time>
      </trkpt>
      <trkpt lat="43.65448" lon="3.77965">
        <ele>71.6</ele>
        <time>2021-01-03T13:54:10Z</time>
      </trkpt>
      <trkpt lat="43.65448" lon="3.77961">
        <ele>77</ele>
        <time>2021-01-03T13:54:11Z</time>
      </trkpt>
      <trkpt lat="43.65449" lon="3.77957">
        <ele>72.1</ele>
        <time>2021-01-03T13:54:12Z</time>
      </trkpt>
      <trkpt lat="43.6545" lon="3.77954">
        <ele>72.2</ele>
        <time>2021-01-03T13:54:13Z</time>
      </trkpt>
      <trkpt lat="43.6545" lon="3.7795">
        <ele>72.5</ele>
        <time>2021-01-03T13:54:14Z</time>
      </trkpt>
      <trkpt lat="43.6545" lon="3.77946">
        <ele>72.7</ele>
        <time>2021-01-03T13:54:15Z</time>
      </trkpt>
      <trkpt lat="43.6545" lon="3.77942">
        <ele>72.9</ele>
        <time>2021-01-03T13:54:16Z</time>
      </trkpt>
      <trkpt lat="43.65451" lon="3.77938">
        <ele>72.9</ele>
        <time>2021-01-03T13:54:17Z</time>
      </trkpt>
      <trkpt lat="43.65452" lon="3.77934">
        <ele>72.9</ele>
        <time>2021-01-03T13:54:18Z</time>
      </trkpt>
      <trkpt lat="43.65452" lon="3.77931">
        <ele>72.9</ele>
        <time>2021-01-03T13:54:19Z</time>
      </trkpt>
      <trkpt lat="43.65453" lon="3.77928">
        <ele>72.9</ele>
        <time>2021-01-03T13:54:20Z</time>
      </trkpt>
      <trkpt lat="43.65453" lon="3.77924">
        <ele>78</ele>
        <time>2021-01-03T13:54:21Z</time>
      </trkpt>
      <trkpt lat="43.65454" lon="3.7792">
        <ele>72.9</ele>
        <time>2021-01-03T13:54:22Z</time>
      </trkpt>
      <trkpt lat="43.65454" lon="3.77916">
        <ele>73</ele>
        <time>2021-01-03T13:54:23Z</time>
      </trkpt>
      <trkpt lat="43.65455" lon="3.77913">
        <ele>72.9</ele>
        <time>2021-01-03T13:54:24Z</time>
      </trkpt>
      <trkpt lat="43.65455" lon="3.7791">
        <ele>73</ele>
        <time>2021-01-03T13:54:25Z</time>
      </trkpt>
      <trkpt lat="43.65456" lon="3.77907">
        <ele>72.9</ele>
        <time>2021-01-03T13:54:26Z</time>
      </trkpt>
      <trkpt lat="43.65456" lon="3.77903">
        <ele>73</ele>
        <time>2021-01-03T13:54:28Z</time>
      </trkpt>
      <trkpt lat="43.65453" lon="3.77902">
        <ele>73.2</ele>
        <time>2021-01-03T13:54:30Z</time>
      </trkpt>
      <trkpt lat="43.65451" lon="3.77904">
        <ele>78</ele>
        <time>2021-01-03T13:54:32Z</time>
      </trkpt>
      <trkpt lat="43.65451" lon="3.77908">
        <ele>73.4</ele>
        <time>2021-01-03T13:54:34Z</time>
      </trkpt>
      <trkpt lat="43.65453" lon="3.7791">
        <ele>73.1</ele>
        <time>2021-01-03T13:54:35Z</time>
      </trkpt>
      <trkpt lat="43.65454" lon="3.77912">
        <ele>73</ele>
        <time>2021-01-03T13:54:36Z</time>
      </trkpt>
      <trkpt lat="43.65456" lon="3.77913">
        <ele>72.8</ele>
        <time>2021-01-03T13:54:37Z</time>
      </trkpt>
      <trkpt lat="43.65459" lon="3.77914">
        <ele>72.5</ele>
        <time>2021-01-03T13:54:38Z</time>
      </trkpt>
      <trkpt lat="43.65462" lon="3.77914">
        <ele>72.2</ele>
        <time>2021-01-03T13:54:39Z</time>
      </trkpt>
      <trkpt lat="43.65464" lon="3.77915">
        <ele>71.9</ele>
        <time>2021-01-03T13:54:40Z</time>
      </trkpt>
      <trkpt lat="43.65466" lon="3.77916">
        <ele>76</ele>
        <time>2021-01-03T13:54:41Z</time>
      </trkpt>
      <trkpt lat="43.65468" lon="3.77916">
        <ele>71.5</ele>
        <time>2021-01-03T13:54:42Z</time>
      </trkpt>
      <trkpt lat="43.65471" lon="3.77916">
        <ele>71.2</ele>
        <time>2021-01-03T13:54:43Z</time>
      </trkpt>
      <trkpt lat="43.65473" lon="3.77915">
        <ele>71.1</ele>
        <time>2021-01-03T13:54:44Z</time>
      </trkpt>
      <trkpt lat="43.65475" lon="3.77915">
        <ele>71.3</ele>
        <time>2021-01-03T13:54:46Z</time>
      </trkpt>
      <trkpt lat="43.65475" lon="3.77915">
        <ele>76</ele>
        <time>2021-01-03T13:54:50Z</time>
      </trkpt>
      <trkpt lat="43.65474" lon="3.77916">
        <ele>75</ele>
        <time>2021-01-03T13:54:53Z</time>
      </trkpt>
      <trkpt lat="43.65474" lon="3.77916">
        <ele>71.2</ele>
        <time>2021-01-03T13:54:54Z</time>
      </trkpt>
      <trkpt lat="43.65474" lon="3.77917">
        <ele>76</ele>
        <time>2021-01-03T13:55:04Z</time>
      </trkpt>
      <trkpt lat="43.65474" lon="3.77917">
        <ele>76</ele>
        <time>2021-01-03T13:55:10Z</time>
      </trkpt>
      <trkpt lat="43.6548" lon="3.77916">
        <ele>75</ele>
        <time>2021-01-03T13:55:14Z</time>
      </trkpt>
      <trkpt lat="43.65482" lon="3.77915">
        <ele>71.8</ele>
        <time>2021-01-03T13:55:15Z</time>
      </trkpt>
      <trkpt lat="43.65484" lon="3.77914">
        <ele>71.9</ele>
        <time>2021-01-03T13:55:16Z</time>
      </trkpt>
      <trkpt lat="43.65485" lon="3.77911">
        <ele>72.1</ele>
        <time>2021-01-03T13:55:17Z</time>
      </trkpt>
      <trkpt lat="43.65487" lon="3.77909">
        <ele>72.3</ele>
        <time>2021-01-03T13:55:18Z</time>
      </trkpt>
      <trkpt lat="43.65488" lon="3.77906">
        <ele>72.5</ele>
        <time>2021-01-03T13:55:19Z</time>
      </trkpt>
      <trkpt lat="43.65489" lon="3.77903">
        <ele>72.7</ele>
        <time>2021-01-03T13:55:20Z</time>
      </trkpt>
      <trkpt lat="43.65491" lon="3.779">
        <ele>73</ele>
        <time>2021-01-03T13:55:21Z</time>
      </trkpt>
      <trkpt lat="43.65492" lon="3.77897">
        <ele>73.1</ele>
        <time>2021-01-03T13:55:22Z</time>
      </trkpt>
      <trkpt lat="43.65493" lon="3.77894">
        <ele>73.3</ele>
        <time>2021-01-03T13:55:23Z</time>
      </trkpt>
      <trkpt lat="43.65493" lon="3.77891">
        <ele>75</ele>
        <time>2021-01-03T13:55:24Z</time>
      </trkpt>
      <trkpt lat="43.65494" lon="3.77888">
        <ele>73.6</ele>
        <time>2021-01-03T13:55:25Z</time>
      </trkpt>
      <trkpt lat="43.65494" lon="3.77884">
        <ele>73.6</ele>
        <time>2021-01-03T13:55:26Z</time>
      </trkpt>
      <trkpt lat="43.65495" lon="3.77881">
        <ele>73.6</ele>
        <time>2021-01-03T13:55:27Z</time>
      </trkpt>
      <trkpt lat="43.65496" lon="3.77877">
        <ele>73.7</ele>
        <time>2021-01-03T13:55:28Z</time>
      </trkpt>
      <trkpt lat="43.65496" lon="3.77874">
        <ele>73.7</ele>
        <time>2021-01-03T13:55:29Z</time>
      </trkpt>
      <trkpt lat="43.65497" lon="3.7787">
        <ele>73.8</ele>
        <time>2021-01-03T13:55:30Z</time>
      </trkpt>
      <trkpt lat="43.65497" lon="3.77866">
        <ele>73.8</ele>
        <time>2021-01-03T13:55:31Z</time>
      </trkpt>
      <trkpt lat="43.65498" lon="3.77863">
        <ele>73.9</ele>
        <time>2021-01-03T13:55:32Z</time>
      </trkpt>
      <trkpt lat="43.65499" lon="3.77859">
        <ele>74</ele>
        <time>2021-01-03T13:55:33Z</time>
      </trkpt>
      <trkpt lat="43.65499" lon="3.77856">
        <ele>74.1</ele>
        <time>2021-01-03T13:55:34Z</time>
      </trkpt>
      <trkpt lat="43.65499" lon="3.77852">
        <ele>76</ele>
        <time>2021-01-03T13:55:35Z</time>
      </trkpt>
      <trkpt lat="43.655" lon="3.77849">
        <ele>74.4</ele>
        <time>2021-01-03T13:55:36Z</time>
      </trkpt>
      <trkpt lat="43.65501" lon="3.77846">
        <ele>74.6</ele>
        <time>2021-01-03T13:55:37Z</time>
      </trkpt>
      <trkpt lat="43.65502" lon="3.77843">
        <ele>74.8</ele>
        <time>2021-01-03T13:55:38Z</time>
      </trkpt>
      <trkpt lat="43.65503" lon="3.7784">
        <ele>75</ele>
        <time>2021-01-03T13:55:39Z</time>
      </trkpt>
      <trkpt lat="43.65504" lon="3.77838">
        <ele>75.1</ele>
        <time>2021-01-03T13:55:40Z</time>
      </trkpt>
      <trkpt lat="43.65505" lon="3.77835">
        <ele>75.3</ele>
        <time>2021-01-03T13:55:41Z</time>
      </trkpt>
      <trkpt lat="43.65506" lon="3.77833">
        <ele>75.4</ele>
        <time>2021-01-03T13:55:42Z</time>
      </trkpt>
      <trkpt lat="43.65507" lon="3.77831">
        <ele>75.5</ele>
        <time>2021-01-03T13:55:43Z</time>
      </trkpt>
      <trkpt lat="43.65508" lon="3.77828">
        <ele>78</ele>
        <time>2021-01-03T13:55:44Z</time>
      </trkpt>
      <trkpt lat="43.65509" lon="3.77825">
        <ele>75.5</ele>
        <time>2021-01-03T13:55:45Z</time>
      </trkpt>
      <trkpt lat="43.6551" lon="3.77822">
        <ele>75.6</ele>
        <time>2021-01-03T13:55:46Z</time>
      </trkpt>
      <trkpt lat="43.65511" lon="3.77819">
        <ele>75.7</ele>
        <time>2021-01-03T13:55:47Z</time>
      </trkpt>
      <trkpt lat="43.65511" lon="3.77816">
        <ele>75.7</ele>
        <time>2021-01-03T13:55:48Z</time>
      </trkpt>
      <trkpt lat="43.65512" lon="3.77812">
        <ele>75.8</ele>
        <time>2021-01-03T13:55:49Z</time>
      </trkpt>
      <trkpt lat="43.65512" lon="3.77807">
        <ele>75.7</ele>
        <time>2021-01-03T13:55:50Z</time>
      </trkpt>
      <trkpt lat="43.65512" lon="3.77803">
        <ele>75.6</ele>
        <time>2021-01-03T13:55:51Z</time>
      </trkpt>
      <trkpt lat="43.65512" lon="3.77799">
        <ele>75.5</ele>
        <time>2021-01-03T13:55:52Z</time>
      </trkpt>
      <trkpt lat="43.65511" lon="3.77795">
        <ele>75.3</ele>
        <time>2021-01-03T13:55:53Z</time>
      </trkpt>
      <trkpt lat="43.65512" lon="3.77791">
        <ele>79</ele>
        <time>2021-01-03T13:55:54Z</time>
      </trkpt>
      <trkpt lat="43.65512" lon="3.77786">
        <ele>75.1</ele>
        <time>2021-01-03T13:55:55Z</time>
      </trkpt>
      <trkpt lat="43.65512" lon="3.77781">
        <ele>75</ele>
        <time>2021-01-03T13:55:56Z</time>
      </trkpt>
      <trkpt lat="43.65512" lon="3.77775">
        <ele>74.9</ele>
        <time>2021-01-03T13:55:57Z</time>
      </trkpt>
      <trkpt lat="43.65511" lon="3.7777">
        <ele>74.9</ele>
        <time>2021-01-03T13:55:58Z</time>
      </trkpt>
      <trkpt lat="43.65511" lon="3.77765">
        <ele>75</ele>
        <time>2021-01-03T13:55:59Z</time>
      </trkpt>
      <trkpt lat="43.65511" lon="3.7776">
        <ele>75</ele>
        <time>2021-01-03T13:56:00Z</time>
      </trkpt>
      <trkpt lat="43.6551" lon="3.77756">
        <ele>75</ele>
        <time>2021-01-03T13:56:01Z</time>
      </trkpt>
      <trkpt lat="43.6551" lon="3.77751">
        <ele>75.1</ele>
        <time>2021-01-03T13:56:02Z</time>
      </trkpt>
      <trkpt lat="43.65509" lon="3.77746">
        <ele>75.1</ele>
        <time>2021-01-03T13:56:03Z</time>
      </trkpt>
      <trkpt lat="43.65509" lon="3.77742">
        <ele>79</ele>
        <time>2021-01-03T13:56:04Z</time>
      </trkpt>
      <trkpt lat="43.65509" lon="3.77738">
        <ele>75.3</ele>
        <time>2021-01-03T13:56:05Z</time>
      </trkpt>
      <trkpt lat="43.65508" lon="3.77734">
        <ele>75.2</ele>
        <time>2021-01-03T13:56:06Z</time>
      </trkpt>
      <trkpt lat="43.65508" lon="3.77731">
        <ele>75.3</ele>
        <time>2021-01-03T13:56:07Z</time>
      </trkpt>
      <trkpt lat="43.65506" lon="3.77728">
        <ele>75</ele>
        <time>2021-01-03T13:56:08Z</time>
      </trkpt>
      <trkpt lat="43.65505" lon="3.77726">
        <ele>74.9</ele>
        <time>2021-01-03T13:56:09Z</time>
      </trkpt>
      <trkpt lat="43.65504" lon="3.77722">
        <ele>74.7</ele>
        <time>2021-01-03T13:56:10Z</time>
      </trkpt>
      <trkpt lat="43.65504" lon="3.77718">
        <ele>74.9</ele>
        <time>2021-01-03T13:56:11Z</time>
      </trkpt>
      <trkpt lat="43.65504" lon="3.77715">
        <ele>74.9</ele>
        <time>2021-01-03T13:56:12Z</time>
      </trkpt>
      <trkpt lat="43.65504" lon="3.77711">
        <ele>75.1</ele>
        <time>2021-01-03T13:56:13Z</time>
      </trkpt>
      <trkpt lat="43.65503" lon="3.77707">
        <ele>79</ele>
        <time>2021-01-03T13:56:14Z</time>
      </trkpt>
      <trkpt lat="43.65503" lon="3.77703">
        <ele>75.2</ele>
        <time>2021-01-03T13:56:15Z</time>
      </trkpt>
      <trkpt lat="43.65502" lon="3.777">
        <ele>75.1</ele>
        <time>2021-01-03T13:56:16Z</time>
      </trkpt>
      <trkpt lat="43.65499" lon="3.77698">
        <ele>74.9</ele>
        <time>2021-01-03T13:56:18Z</time>
      </trkpt>
      <trkpt lat="43.65498" lon="3.77695">
        <ele>75</ele>
        <time>2021-01-03T13:56:19Z</time>
      </trkpt>
      <trkpt lat="43.65497" lon="3.77693">
        <ele>75</ele>
        <time>2021-01-03T13:56:20Z</time>
      </trkpt>
      <trkpt lat="43.65495" lon="3.77691">
        <ele>75.1</ele>
        <time>2021-01-03T13:56:21Z</time>
      </trkpt>
      <trkpt lat="43.65494" lon="3.77688">
        <ele>75.2</ele>
        <time>2021-01-03T13:56:22Z</time>
      </trkpt>
      <trkpt lat="43.65493" lon="3.77685">
        <ele>75.3</ele>
        <time>2021-01-03T13:56:23Z</time>
      </trkpt>
      <trkpt lat="43.65493" lon="3.77682">
        <ele>79</ele>
        <time>2021-01-03T13:56:24Z</time>
      </trkpt>
      <trkpt lat="43.65493" lon="3.77678">
        <ele>75.6</ele>
        <time>2021-01-03T13:56:25Z</time>
      </trkpt>
      <trkpt lat="43.65494" lon="3.77674">
        <ele>75.6</ele>
        <time>2021-01-03T13:56:26Z</time>
      </trkpt>
      <trkpt lat="43.65494" lon="3.7767">
        <ele>75.8</ele>
        <time>2021-01-03T13:56:27Z</time>
      </trkpt>
      <trkpt lat="43.65494" lon="3.77667">
        <ele>75.9</ele>
        <time>2021-01-03T13:56:28Z</time>
      </trkpt>
      <trkpt lat="43.65494" lon="3.77663">
        <ele>76</ele>
        <time>2021-01-03T13:56:29Z</time>
      </trkpt>
      <trkpt lat="43.65494" lon="3.7766">
        <ele>76.1</ele>
        <time>2021-01-03T13:56:30Z</time>
      </trkpt>
      <trkpt lat="43.65495" lon="3.77656">
        <ele>76</ele>
        <time>2021-01-03T13:56:31Z</time>
      </trkpt>
      <trkpt lat="43.65495" lon="3.77653">
        <ele>76.1</ele>
        <time>2021-01-03T13:56:32Z</time>
      </trkpt>
      <trkpt lat="43.65494" lon="3.77649">
        <ele>76.4</ele>
        <time>2021-01-03T13:56:33Z</time>
      </trkpt>
      <trkpt lat="43.65494" lon="3.77646">
        <ele>80</ele>
        <time>2021-01-03T13:56:34Z</time>
      </trkpt>
      <trkpt lat="43.65493" lon="3.77643">
        <ele>76.6</ele>
        <time>2021-01-03T13:56:35Z</time>
      </trkpt>
      <trkpt lat="43.65492" lon="3.7764">
        <ele>76.8</ele>
        <time>2021-01-03T13:56:36Z</time>
      </trkpt>
      <trkpt lat="43.65491" lon="3.77637">
        <ele>77.1</ele>
        <time>2021-01-03T13:56:37Z</time>
      </trkpt>
      <trkpt lat="43.65491" lon="3.77634">
        <ele>77.3</ele>
        <time>2021-01-03T13:56:38Z</time>
      </trkpt>
      <trkpt lat="43.65491" lon="3.77631">
        <ele>77.5</ele>
        <time>2021-01-03T13:56:39Z</time>
      </trkpt>
      <trkpt lat="43.65491" lon="3.77629">
        <ele>77.7</ele>
        <time>2021-01-03T13:56:40Z</time>
      </trkpt>
      <trkpt lat="43.65492" lon="3.77626">
        <ele>77.8</ele>
        <time>2021-01-03T13:56:41Z</time>
      </trkpt>
      <trkpt lat="43.65492" lon="3.77623">
        <ele>78</ele>
        <time>2021-01-03T13:56:42Z</time>
      </trkpt>
      <trkpt lat="43.65493" lon="3.77619">
        <ele>82</ele>
        <time>2021-01-03T13:56:44Z</time>
      </trkpt>
      <trkpt lat="43.65494" lon="3.77614">
        <ele>78.4</ele>
        <time>2021-01-03T13:56:46Z</time>
      </trkpt>
      <trkpt lat="43.65495" lon="3.7761">
        <ele>78.5</ele>
        <time>2021-01-03T13:56:48Z</time>
      </trkpt>
      <trkpt lat="43.65495" lon="3.77607">
        <ele>78.6</ele>
        <time>2021-01-03T13:56:49Z</time>
      </trkpt>
      <trkpt lat="43.65496" lon="3.77605">
        <ele>78.5</ele>
        <time>2021-01-03T13:56:50Z</time>
      </trkpt>
      <trkpt lat="43.65496" lon="3.77602">
        <ele>78.5</ele>
        <time>2021-01-03T13:56:51Z</time>
      </trkpt>
      <trkpt lat="43.65497" lon="3.77599">
        <ele>78.4</ele>
        <time>2021-01-03T13:56:52Z</time>
      </trkpt>
      <trkpt lat="43.65497" lon="3.77596">
        <ele>78.4</ele>
        <time>2021-01-03T13:56:53Z</time>
      </trkpt>
      <trkpt lat="43.65498" lon="3.77593">
        <ele>83</ele>
        <time>2021-01-03T13:56:54Z</time>
      </trkpt>
      <trkpt lat="43.65498" lon="3.77591">
        <ele>78.3</ele>
        <time>2021-01-03T13:56:55Z</time>
      </trkpt>
      <trkpt lat="43.65498" lon="3.77587">
        <ele>78.3</ele>
        <time>2021-01-03T13:56:56Z</time>
      </trkpt>
      <trkpt lat="43.65498" lon="3.77584">
        <ele>78.3</ele>
        <time>2021-01-03T13:56:57Z</time>
      </trkpt>
      <trkpt lat="43.65498" lon="3.77578">
        <ele>78.5</ele>
        <time>2021-01-03T13:56:58Z</time>
      </trkpt>
      <trkpt lat="43.65499" lon="3.77575">
        <ele>78.4</ele>
        <time>2021-01-03T13:56:59Z</time>
      </trkpt>
      <trkpt lat="43.65499" lon="3.77572">
        <ele>78.5</ele>
        <time>2021-01-03T13:57:00Z</time>
      </trkpt>
      <trkpt lat="43.65499" lon="3.77569">
        <ele>78.6</ele>
        <time>2021-01-03T13:57:01Z</time>
      </trkpt>
      <trkpt lat="43.65499" lon="3.77563">
        <ele>78.8</ele>
        <time>2021-01-03T13:57:03Z</time>
      </trkpt>
      <trkpt lat="43.65499" lon="3.7756">
        <ele>79</ele>
        <time>2021-01-03T13:57:05Z</time>
      </trkpt>
      <trkpt lat="43.65499" lon="3.77557">
        <ele>79.1</ele>
        <time>2021-01-03T13:57:06Z</time>
      </trkpt>
      <trkpt lat="43.65498" lon="3.77554">
        <ele>79.3</ele>
        <time>2021-01-03T13:57:07Z</time>
      </trkpt>
      <trkpt lat="43.65498" lon="3.77552">
        <ele>79.3</ele>
        <time>2021-01-03T13:57:08Z</time>
      </trkpt>
      <trkpt lat="43.65497" lon="3.77549">
        <ele>79.6</ele>
        <time>2021-01-03T13:57:09Z</time>
      </trkpt>
      <trkpt lat="43.65496" lon="3.77547">
        <ele>79.7</ele>
        <time>2021-01-03T13:57:10Z</time>
      </trkpt>
      <trkpt lat="43.65495" lon="3.77545">
        <ele>79.9</ele>
        <time>2021-01-03T13:57:11Z</time>
      </trkpt>
      <trkpt lat="43.65494" lon="3.77543">
        <ele>80.1</ele>
        <time>2021-01-03T13:57:12Z</time>
      </trkpt>
      <trkpt lat="43.65493" lon="3.7754">
        <ele>80.3</ele>
        <time>2021-01-03T13:57:13Z</time>
      </trkpt>
      <trkpt lat="43.65493" lon="3.77537">
        <ele>85</ele>
        <time>2021-01-03T13:57:14Z</time>
      </trkpt>
      <trkpt lat="43.65494" lon="3.77534">
        <ele>80.4</ele>
        <time>2021-01-03T13:57:15Z</time>
      </trkpt>
      <trkpt lat="43.65496" lon="3.77532">
        <ele>80.3</ele>
        <time>2021-01-03T13:57:16Z</time>
      </trkpt>
      <trkpt lat="43.65498" lon="3.7753">
        <ele>80.1</ele>
        <time>2021-01-03T13:57:17Z</time>
      </trkpt>
      <trkpt lat="43.65499" lon="3.77528">
        <ele>80.1</ele>
        <time>2021-01-03T13:57:18Z</time>
      </trkpt>
      <trkpt lat="43.65501" lon="3.77526">
        <ele>80</ele>
        <time>2021-01-03T13:57:19Z</time>
      </trkpt>
      <trkpt lat="43.65502" lon="3.77523">
        <ele>80</ele>
        <time>2021-01-03T13:57:20Z</time>
      </trkpt>
      <trkpt lat="43.65503" lon="3.7752">
        <ele>80.1</ele>
        <time>2021-01-03T13:57:21Z</time>
      </trkpt>
      <trkpt lat="43.65504" lon="3.77518">
        <ele>80.1</ele>
        <time>2021-01-03T13:57:22Z</time>
      </trkpt>
      <trkpt lat="43.65505" lon="3.77515">
        <ele>80.1</ele>
        <time>2021-01-03T13:57:23Z</time>
      </trkpt>
      <trkpt lat="43.65507" lon="3.77513">
        <ele>80</ele>
        <time>2021-01-03T13:57:24Z</time>
      </trkpt>
      <trkpt lat="43.65509" lon="3.7751">
        <ele>85</ele>
        <time>2021-01-03T13:57:25Z</time>
      </trkpt>
      <trkpt lat="43.6551" lon="3.77508">
        <ele>80</ele>
        <time>2021-01-03T13:57:26Z</time>
      </trkpt>
      <trkpt lat="43.6551" lon="3.77505">
        <ele>80.1</ele>
        <time>2021-01-03T13:57:27Z</time>
      </trkpt>
      <trkpt lat="43.65511" lon="3.77502">
        <ele>80.1</ele>
        <time>2021-01-03T13:57:28Z</time>
      </trkpt>
      <trkpt lat="43.65512" lon="3.77499">
        <ele>80.2</ele>
        <time>2021-01-03T13:57:29Z</time>
      </trkpt>
      <trkpt lat="43.65513" lon="3.77496">
        <ele>80.1</ele>
        <time>2021-01-03T13:57:30Z</time>
      </trkpt>
      <trkpt lat="43.65514" lon="3.77493">
        <ele>80.1</ele>
        <time>2021-01-03T13:57:31Z</time>
      </trkpt>
      <trkpt lat="43.65515" lon="3.77489">
        <ele>80.1</ele>
        <time>2021-01-03T13:57:32Z</time>
      </trkpt>
      <trkpt lat="43.65516" lon="3.77485">
        <ele>80.1</ele>
        <time>2021-01-03T13:57:33Z</time>
      </trkpt>
      <trkpt lat="43.65517" lon="3.77481">
        <ele>80</ele>
        <time>2021-01-03T13:57:34Z</time>
      </trkpt>
      <trkpt lat="43.65519" lon="3.77477">
        <ele>85</ele>
        <time>2021-01-03T13:57:35Z</time>
      </trkpt>
      <trkpt lat="43.6552" lon="3.77473">
        <ele>79.8</ele>
        <time>2021-01-03T13:57:36Z</time>
      </trkpt>
      <trkpt lat="43.65521" lon="3.77468">
        <ele>79.9</ele>
        <time>2021-01-03T13:57:37Z</time>
      </trkpt>
      <trkpt lat="43.65523" lon="3.77464">
        <ele>79.8</ele>
        <time>2021-01-03T13:57:38Z</time>
      </trkpt>
      <trkpt lat="43.65524" lon="3.77459">
        <ele>79.9</ele>
        <time>2021-01-03T13:57:39Z</time>
      </trkpt>
      <trkpt lat="43.65525" lon="3.77455">
        <ele>79.9</ele>
        <time>2021-01-03T13:57:40Z</time>
      </trkpt>
      <trkpt lat="43.65527" lon="3.77451">
        <ele>79.8</ele>
        <time>2021-01-03T13:57:41Z</time>
      </trkpt>
      <trkpt lat="43.65529" lon="3.77447">
        <ele>79.9</ele>
        <time>2021-01-03T13:57:42Z</time>
      </trkpt>
      <trkpt lat="43.6553" lon="3.77444">
        <ele>80</ele>
        <time>2021-01-03T13:57:43Z</time>
      </trkpt>
      <trkpt lat="43.65532" lon="3.7744">
        <ele>85</ele>
        <time>2021-01-03T13:57:44Z</time>
      </trkpt>
      <trkpt lat="43.65534" lon="3.77437">
        <ele>80.3</ele>
        <time>2021-01-03T13:57:45Z</time>
      </trkpt>
      <trkpt lat="43.65535" lon="3.77434">
        <ele>80.4</ele>
        <time>2021-01-03T13:57:46Z</time>
      </trkpt>
      <trkpt lat="43.65537" lon="3.77431">
        <ele>80.5</ele>
        <time>2021-01-03T13:57:47Z</time>
      </trkpt>
      <trkpt lat="43.65539" lon="3.77428">
        <ele>80.6</ele>
        <time>2021-01-03T13:57:48Z</time>
      </trkpt>
      <trkpt lat="43.65541" lon="3.77425">
        <ele>80.7</ele>
        <time>2021-01-03T13:57:49Z</time>
      </trkpt>
      <trkpt lat="43.65543" lon="3.77422">
        <ele>80.8</ele>
        <time>2021-01-03T13:57:50Z</time>
      </trkpt>
      <trkpt lat="43.65546" lon="3.77419">
        <ele>80.9</ele>
        <time>2021-01-03T13:57:51Z</time>
      </trkpt>
      <trkpt lat="43.65548" lon="3.77416">
        <ele>81</ele>
        <time>2021-01-03T13:57:52Z</time>
      </trkpt>
      <trkpt lat="43.6555" lon="3.77413">
        <ele>81.2</ele>
        <time>2021-01-03T13:57:53Z</time>
      </trkpt>
      <trkpt lat="43.65552" lon="3.7741">
        <ele>86</ele>
        <time>2021-01-03T13:57:54Z</time>
      </trkpt>
      <trkpt lat="43.65554" lon="3.77406">
        <ele>81.4</ele>
        <time>2021-01-03T13:57:55Z</time>
      </trkpt>
      <trkpt lat="43.65556" lon="3.77403">
        <ele>81.5</ele>
        <time>2021-01-03T13:57:56Z</time>
      </trkpt>
      <trkpt lat="43.65558" lon="3.774">
        <ele>81.5</ele>
        <time>2021-01-03T13:57:57Z</time>
      </trkpt>
      <trkpt lat="43.6556" lon="3.77397">
        <ele>81.6</ele>
        <time>2021-01-03T13:57:58Z</time>
      </trkpt>
      <trkpt lat="43.65561" lon="3.77394">
        <ele>81.7</ele>
        <time>2021-01-03T13:57:59Z</time>
      </trkpt>
      <trkpt lat="43.65563" lon="3.7739">
        <ele>81.7</ele>
        <time>2021-01-03T13:58:00Z</time>
      </trkpt>
      <trkpt lat="43.65565" lon="3.77387">
        <ele>81.7</ele>
        <time>2021-01-03T13:58:01Z</time>
      </trkpt>
      <trkpt lat="43.65567" lon="3.77384">
        <ele>81.8</ele>
        <time>2021-01-03T13:58:02Z</time>
      </trkpt>
      <trkpt lat="43.65568" lon="3.7738">
        <ele>81.9</ele>
        <time>2021-01-03T13:58:03Z</time>
      </trkpt>
      <trkpt lat="43.6557" lon="3.77377">
        <ele>86</ele>
        <time>2021-01-03T13:58:04Z</time>
      </trkpt>
      <trkpt lat="43.65571" lon="3.77374">
        <ele>82</ele>
        <time>2021-01-03T13:58:05Z</time>
      </trkpt>
      <trkpt lat="43.65573" lon="3.77371">
        <ele>82</ele>
        <time>2021-01-03T13:58:06Z</time>
      </trkpt>
      <trkpt lat="43.65574" lon="3.77368">
        <ele>82.1</ele>
        <time>2021-01-03T13:58:07Z</time>
      </trkpt>
      <trkpt lat="43.65576" lon="3.77365">
        <ele>82.1</ele>
        <time>2021-01-03T13:58:08Z</time>
      </trkpt>
      <trkpt lat="43.65577" lon="3.77361">
        <ele>82.2</ele>
        <time>2021-01-03T13:58:09Z</time>
      </trkpt>
      <trkpt lat="43.65578" lon="3.77357">
        <ele>82.5</ele>
        <time>2021-01-03T13:58:10Z</time>
      </trkpt>
      <trkpt lat="43.65579" lon="3.77354">
        <ele>82.6</ele>
        <time>2021-01-03T13:58:11Z</time>
      </trkpt>
      <trkpt lat="43.6558" lon="3.7735">
        <ele>82.9</ele>
        <time>2021-01-03T13:58:12Z</time>
      </trkpt>
      <trkpt lat="43.65581" lon="3.77347">
        <ele>83.1</ele>
        <time>2021-01-03T13:58:13Z</time>
      </trkpt>
      <trkpt lat="43.65582" lon="3.77343">
        <ele>86</ele>
        <time>2021-01-03T13:58:14Z</time>
      </trkpt>
      <trkpt lat="43.65583" lon="3.7734">
        <ele>83.5</ele>
        <time>2021-01-03T13:58:15Z</time>
      </trkpt>
      <trkpt lat="43.65584" lon="3.77337">
        <ele>83.7</ele>
        <time>2021-01-03T13:58:16Z</time>
      </trkpt>
      <trkpt lat="43.65584" lon="3.77333">
        <ele>84</ele>
        <time>2021-01-03T13:58:17Z</time>
      </trkpt>
      <trkpt lat="43.65585" lon="3.7733">
        <ele>83.9</ele>
        <time>2021-01-03T13:58:18Z</time>
      </trkpt>
      <trkpt lat="43.65585" lon="3.77327">
        <ele>83.9</ele>
        <time>2021-01-03T13:58:19Z</time>
      </trkpt>
      <trkpt lat="43.65585" lon="3.77324">
        <ele>83.9</ele>
        <time>2021-01-03T13:58:20Z</time>
      </trkpt>
      <trkpt lat="43.65585" lon="3.77321">
        <ele>83.9</ele>
        <time>2021-01-03T13:58:21Z</time>
      </trkpt>
      <trkpt lat="43.65585" lon="3.77318">
        <ele>83.9</ele>
        <time>2021-01-03T13:58:22Z</time>
      </trkpt>
      <trkpt lat="43.65585" lon="3.77315">
        <ele>83.9</ele>
        <time>2021-01-03T13:58:23Z</time>
      </trkpt>
      <trkpt lat="43.65584" lon="3.77312">
        <ele>87</ele>
        <time>2021-01-03T13:58:24Z</time>
      </trkpt>
      <trkpt lat="43.65584" lon="3.77308">
        <ele>84</ele>
        <time>2021-01-03T13:58:25Z</time>
      </trkpt>
      <trkpt lat="43.65583" lon="3.77305">
        <ele>84</ele>
        <time>2021-01-03T13:58:26Z</time>
      </trkpt>
      <trkpt lat="43.65582" lon="3.77301">
        <ele>84.1</ele>
        <time>2021-01-03T13:58:27Z</time>
      </trkpt>
      <trkpt lat="43.65581" lon="3.77297">
        <ele>84.2</ele>
        <time>2021-01-03T13:58:28Z</time>
      </trkpt>
      <trkpt lat="43.65581" lon="3.77293">
        <ele>84.2</ele>
        <time>2021-01-03T13:58:29Z</time>
      </trkpt>
      <trkpt lat="43.65581" lon="3.77289">
        <ele>84.2</ele>
        <time>2021-01-03T13:58:30Z</time>
      </trkpt>
      <trkpt lat="43.65582" lon="3.77285">
        <ele>84.1</ele>
        <time>2021-01-03T13:58:31Z</time>
      </trkpt>
      <trkpt lat="43.65582" lon="3.77281">
        <ele>84.1</ele>
        <time>2021-01-03T13:58:32Z</time>
      </trkpt>
      <trkpt lat="43.65583" lon="3.77277">
        <ele>84</ele>
        <time>2021-01-03T13:58:33Z</time>
      </trkpt>
      <trkpt lat="43.65583" lon="3.77273">
        <ele>87</ele>
        <time>2021-01-03T13:58:34Z</time>
      </trkpt>
      <trkpt lat="43.65584" lon="3.77269">
        <ele>84</ele>
        <time>2021-01-03T13:58:35Z</time>
      </trkpt>
      <trkpt lat="43.65584" lon="3.77265">
        <ele>84</ele>
        <time>2021-01-03T13:58:36Z</time>
      </trkpt>
      <trkpt lat="43.65584" lon="3.7726">
        <ele>84</ele>
        <time>2021-01-03T13:58:37Z</time>
      </trkpt>
      <trkpt lat="43.65584" lon="3.77256">
        <ele>84</ele>
        <time>2021-01-03T13:58:38Z</time>
      </trkpt>
      <trkpt lat="43.65584" lon="3.77252">
        <ele>84</ele>
        <time>2021-01-03T13:58:39Z</time>
      </trkpt>
      <trkpt lat="43.65583" lon="3.77248">
        <ele>84.1</ele>
        <time>2021-01-03T13:58:40Z</time>
      </trkpt>
      <trkpt lat="43.65583" lon="3.77244">
        <ele>84.2</ele>
        <time>2021-01-03T13:58:41Z</time>
      </trkpt>
      <trkpt lat="43.65583" lon="3.77241">
        <ele>84.3</ele>
        <time>2021-01-03T13:58:42Z</time>
      </trkpt>
      <trkpt lat="43.65582" lon="3.77237">
        <ele>84.6</ele>
        <time>2021-01-03T13:58:43Z</time>
      </trkpt>
      <trkpt lat="43.65581" lon="3.77231">
        <ele>89</ele>
        <time>2021-01-03T13:58:44Z</time>
      </trkpt>
      <trkpt lat="43.65581" lon="3.77228">
        <ele>85</ele>
        <time>2021-01-03T13:58:45Z</time>
      </trkpt>
      <trkpt lat="43.6558" lon="3.77225">
        <ele>85.1</ele>
        <time>2021-01-03T13:58:46Z</time>
      </trkpt>
      <trkpt lat="43.6558" lon="3.77222">
        <ele>85.2</ele>
        <time>2021-01-03T13:58:47Z</time>
      </trkpt>
      <trkpt lat="43.65579" lon="3.77219">
        <ele>85.4</ele>
        <time>2021-01-03T13:58:49Z</time>
      </trkpt>
      <trkpt lat="43.65579" lon="3.77215">
        <ele>85.6</ele>
        <time>2021-01-03T13:58:50Z</time>
      </trkpt>
      <trkpt lat="43.65579" lon="3.77212">
        <ele>85.7</ele>
        <time>2021-01-03T13:58:51Z</time>
      </trkpt>
      <trkpt lat="43.65579" lon="3.77205">
        <ele>85.9</ele>
        <time>2021-01-03T13:58:52Z</time>
      </trkpt>
      <trkpt lat="43.65579" lon="3.77202">
        <ele>86</ele>
        <time>2021-01-03T13:58:53Z</time>
      </trkpt>
      <trkpt lat="43.65579" lon="3.77199">
        <ele>86.1</ele>
        <time>2021-01-03T13:58:55Z</time>
      </trkpt>
      <trkpt lat="43.65579" lon="3.77195">
        <ele>86.3</ele>
        <time>2021-01-03T13:58:56Z</time>
      </trkpt>
      <trkpt lat="43.65579" lon="3.77192">
        <ele>86.4</ele>
        <time>2021-01-03T13:58:57Z</time>
      </trkpt>
      <trkpt lat="43.65579" lon="3.77189">
        <ele>86.5</ele>
        <time>2021-01-03T13:58:58Z</time>
      </trkpt>
      <trkpt lat="43.65579" lon="3.77185">
        <ele>86.7</ele>
        <time>2021-01-03T13:58:59Z</time>
      </trkpt>
      <trkpt lat="43.65579" lon="3.77182">
        <ele>86.8</ele>
        <time>2021-01-03T13:59:00Z</time>
      </trkpt>
      <trkpt lat="43.65579" lon="3.77179">
        <ele>86.9</ele>
        <time>2021-01-03T13:59:01Z</time>
      </trkpt>
      <trkpt lat="43.65579" lon="3.77177">
        <ele>86.9</ele>
        <time>2021-01-03T13:59:02Z</time>
      </trkpt>
      <trkpt lat="43.6558" lon="3.77174">
        <ele>87</ele>
        <time>2021-01-03T13:59:03Z</time>
      </trkpt>
      <trkpt lat="43.6558" lon="3.77171">
        <ele>91</ele>
        <time>2021-01-03T13:59:04Z</time>
      </trkpt>
      <trkpt lat="43.6558" lon="3.77168">
        <ele>87.2</ele>
        <time>2021-01-03T13:59:05Z</time>
      </trkpt>
      <trkpt lat="43.65579" lon="3.77165">
        <ele>87.4</ele>
        <time>2021-01-03T13:59:06Z</time>
      </trkpt>
      <trkpt lat="43.65578" lon="3.77163">
        <ele>87.5</ele>
        <time>2021-01-03T13:59:07Z</time>
      </trkpt>
      <trkpt lat="43.65576" lon="3.77161">
        <ele>87.7</ele>
        <time>2021-01-03T13:59:09Z</time>
      </trkpt>
      <trkpt lat="43.65572" lon="3.77162">
        <ele>88</ele>
        <time>2021-01-03T13:59:11Z</time>
      </trkpt>
      <trkpt lat="43.6557" lon="3.77163">
        <ele>88.1</ele>
        <time>2021-01-03T13:59:12Z</time>
      </trkpt>
      <trkpt lat="43.65568" lon="3.77164">
        <ele>88.2</ele>
        <time>2021-01-03T13:59:13Z</time>
      </trkpt>
      <trkpt lat="43.65565" lon="3.77164">
        <ele>92</ele>
        <time>2021-01-03T13:59:14Z</time>
      </trkpt>
      <trkpt lat="43.65563" lon="3.77164">
        <ele>88.6</ele>
        <time>2021-01-03T13:59:15Z</time>
      </trkpt>
      <trkpt lat="43.65561" lon="3.77163">
        <ele>88.7</ele>
        <time>2021-01-03T13:59:16Z</time>
      </trkpt>
      <trkpt lat="43.65559" lon="3.77163">
        <ele>88.9</ele>
        <time>2021-01-03T13:59:17Z</time>
      </trkpt>
      <trkpt lat="43.65557" lon="3.77162">
        <ele>89.1</ele>
        <time>2021-01-03T13:59:18Z</time>
      </trkpt>
      <trkpt lat="43.65554" lon="3.77162">
        <ele>89.2</ele>
        <time>2021-01-03T13:59:19Z</time>
      </trkpt>
      <trkpt lat="43.65552" lon="3.77162">
        <ele>89.3</ele>
        <time>2021-01-03T13:59:20Z</time>
      </trkpt>
      <trkpt lat="43.6555" lon="3.77162">
        <ele>89.4</ele>
        <time>2021-01-03T13:59:21Z</time>
      </trkpt>
      <trkpt lat="43.65547" lon="3.77161">
        <ele>89.5</ele>
        <time>2021-01-03T13:59:22Z</time>
      </trkpt>
      <trkpt lat="43.65545" lon="3.77161">
        <ele>89.6</ele>
        <time>2021-01-03T13:59:23Z</time>
      </trkpt>
      <trkpt lat="43.65542" lon="3.77161">
        <ele>93</ele>
        <time>2021-01-03T13:59:24Z</time>
      </trkpt>
      <trkpt lat="43.6554" lon="3.7716">
        <ele>89.8</ele>
        <time>2021-01-03T13:59:25Z</time>
      </trkpt>
      <trkpt lat="43.65537" lon="3.77159">
        <ele>89.9</ele>
        <time>2021-01-03T13:59:26Z</time>
      </trkpt>
      <trkpt lat="43.65535" lon="3.77157">
        <ele>90.1</ele>
        <time>2021-01-03T13:59:27Z</time>
      </trkpt>
      <trkpt lat="43.65533" lon="3.77155">
        <ele>90.2</ele>
        <time>2021-01-03T13:59:28Z</time>
      </trkpt>
      <trkpt lat="43.6553" lon="3.77152">
        <ele>90.4</ele>
        <time>2021-01-03T13:59:29Z</time>
      </trkpt>
      <trkpt lat="43.65528" lon="3.7715">
        <ele>90.6</ele>
        <time>2021-01-03T13:59:30Z</time>
      </trkpt>
      <trkpt lat="43.65526" lon="3.77148">
        <ele>90.7</ele>
        <time>2021-01-03T13:59:31Z</time>
      </trkpt>
      <trkpt lat="43.65524" lon="3.77146">
        <ele>90.7</ele>
        <time>2021-01-03T13:59:32Z</time>
      </trkpt>
      <trkpt lat="43.65522" lon="3.77142">
        <ele>90.9</ele>
        <time>2021-01-03T13:59:33Z</time>
      </trkpt>
      <trkpt lat="43.6552" lon="3.7714">
        <ele>94</ele>
        <time>2021-01-03T13:59:34Z</time>
      </trkpt>
      <trkpt lat="43.65518" lon="3.77138">
        <ele>91.1</ele>
        <time>2021-01-03T13:59:35Z</time>
      </trkpt>
      <trkpt lat="43.65516" lon="3.77137">
        <ele>91.1</ele>
        <time>2021-01-03T13:59:36Z</time>
      </trkpt>
      <trkpt lat="43.65514" lon="3.77137">
        <ele>91.1</ele>
        <time>2021-01-03T13:59:37Z</time>
      </trkpt>
      <trkpt lat="43.65511" lon="3.77137">
        <ele>91.1</ele>
        <time>2021-01-03T13:59:38Z</time>
      </trkpt>
      <trkpt lat="43.65509" lon="3.77136">
        <ele>91.1</ele>
        <time>2021-01-03T13:59:39Z</time>
      </trkpt>
      <trkpt lat="43.65506" lon="3.77135">
        <ele>91.2</ele>
        <time>2021-01-03T13:59:40Z</time>
      </trkpt>
      <trkpt lat="43.65504" lon="3.77132">
        <ele>91.3</ele>
        <time>2021-01-03T13:59:41Z</time>
      </trkpt>
      <trkpt lat="43.65502" lon="3.77129">
        <ele>91.4</ele>
        <time>2021-01-03T13:59:42Z</time>
      </trkpt>
      <trkpt lat="43.65501" lon="3.77126">
        <ele>91.5</ele>
        <time>2021-01-03T13:59:43Z</time>
      </trkpt>
      <trkpt lat="43.65499" lon="3.77123">
        <ele>95</ele>
        <time>2021-01-03T13:59:44Z</time>
      </trkpt>
      <trkpt lat="43.65497" lon="3.7712">
        <ele>91.8</ele>
        <time>2021-01-03T13:59:45Z</time>
      </trkpt>
      <trkpt lat="43.65495" lon="3.77118">
        <ele>91.9</ele>
        <time>2021-01-03T13:59:46Z</time>
      </trkpt>
      <trkpt lat="43.65493" lon="3.77117">
        <ele>92</ele>
        <time>2021-01-03T13:59:47Z</time>
      </trkpt>
      <trkpt lat="43.65492" lon="3.77115">
        <ele>92.1</ele>
        <time>2021-01-03T13:59:48Z</time>
      </trkpt>
      <trkpt lat="43.65489" lon="3.77114">
        <ele>92.3</ele>
        <time>2021-01-03T13:59:49Z</time>
      </trkpt>
      <trkpt lat="43.65487" lon="3.77112">
        <ele>92.4</ele>
        <time>2021-01-03T13:59:50Z</time>
      </trkpt>
      <trkpt lat="43.65485" lon="3.77111">
        <ele>92.5</ele>
        <time>2021-01-03T13:59:51Z</time>
      </trkpt>
      <trkpt lat="43.65482" lon="3.7711">
        <ele>92.7</ele>
        <time>2021-01-03T13:59:52Z</time>
      </trkpt>
      <trkpt lat="43.6548" lon="3.77109">
        <ele>92.7</ele>
        <time>2021-01-03T13:59:53Z</time>
      </trkpt>
      <trkpt lat="43.65477" lon="3.77108">
        <ele>96</ele>
        <time>2021-01-03T13:59:54Z</time>
      </trkpt>
      <trkpt lat="43.65475" lon="3.77108">
        <ele>92.9</ele>
        <time>2021-01-03T13:59:55Z</time>
      </trkpt>
      <trkpt lat="43.65472" lon="3.77108">
        <ele>93</ele>
        <time>2021-01-03T13:59:56Z</time>
      </trkpt>
      <trkpt lat="43.6547" lon="3.77108">
        <ele>93.1</ele>
        <time>2021-01-03T13:59:57Z</time>
      </trkpt>
      <trkpt lat="43.65467" lon="3.77108">
        <ele>93.2</ele>
        <time>2021-01-03T13:59:58Z</time>
      </trkpt>
      <trkpt lat="43.65465" lon="3.77108">
        <ele>93.3</ele>
        <time>2021-01-03T13:59:59Z</time>
      </trkpt>
      <trkpt lat="43.65462" lon="3.77108">
        <ele>93.4</ele>
        <time>2021-01-03T14:00:00Z</time>
      </trkpt>
      <trkpt lat="43.65461" lon="3.77108">
        <ele>93.4</ele>
        <time>2021-01-03T14:00:01Z</time>
      </trkpt>
      <trkpt lat="43.65459" lon="3.77107">
        <ele>93.5</ele>
        <time>2021-01-03T14:00:02Z</time>
      </trkpt>
      <trkpt lat="43.65457" lon="3.77107">
        <ele>93.6</ele>
        <time>2021-01-03T14:00:03Z</time>
      </trkpt>
      <trkpt lat="43.65454" lon="3.77106">
        <ele>97</ele>
        <time>2021-01-03T14:00:04Z</time>
      </trkpt>
      <trkpt lat="43.65452" lon="3.77105">
        <ele>93.9</ele>
        <time>2021-01-03T14:00:05Z</time>
      </trkpt>
      <trkpt lat="43.6545" lon="3.77105">
        <ele>94</ele>
        <time>2021-01-03T14:00:06Z</time>
      </trkpt>
      <trkpt lat="43.65447" lon="3.77105">
        <ele>94.1</ele>
        <time>2021-01-03T14:00:07Z</time>
      </trkpt>
      <trkpt lat="43.65444" lon="3.77105">
        <ele>94.2</ele>
        <time>2021-01-03T14:00:08Z</time>
      </trkpt>
      <trkpt lat="43.65442" lon="3.77105">
        <ele>94.3</ele>
        <time>2021-01-03T14:00:09Z</time>
      </trkpt>
      <trkpt lat="43.65439" lon="3.77105">
        <ele>94.3</ele>
        <time>2021-01-03T14:00:10Z</time>
      </trkpt>
      <trkpt lat="43.65437" lon="3.77105">
        <ele>94.3</ele>
        <time>2021-01-03T14:00:11Z</time>
      </trkpt>
      <trkpt lat="43.65434" lon="3.77104">
        <ele>94.4</ele>
        <time>2021-01-03T14:00:12Z</time>
      </trkpt>
      <trkpt lat="43.65432" lon="3.77102">
        <ele>94.6</ele>
        <time>2021-01-03T14:00:13Z</time>
      </trkpt>
      <trkpt lat="43.6543" lon="3.77101">
        <ele>94.7</ele>
        <time>2021-01-03T14:00:14Z</time>
      </trkpt>
      <trkpt lat="43.65426" lon="3.77099">
        <ele>98</ele>
        <time>2021-01-03T14:00:15Z</time>
      </trkpt>
      <trkpt lat="43.65424" lon="3.77098">
        <ele>95.2</ele>
        <time>2021-01-03T14:00:16Z</time>
      </trkpt>
      <trkpt lat="43.65422" lon="3.77097">
        <ele>95.3</ele>
        <time>2021-01-03T14:00:17Z</time>
      </trkpt>
      <trkpt lat="43.65418" lon="3.77094">
        <ele>95.8</ele>
        <time>2021-01-03T14:00:19Z</time>
      </trkpt>
      <trkpt lat="43.65416" lon="3.77093">
        <ele>96</ele>
        <time>2021-01-03T14:00:20Z</time>
      </trkpt>
      <trkpt lat="43.65414" lon="3.77092">
        <ele>96.1</ele>
        <time>2021-01-03T14:00:21Z</time>
      </trkpt>
      <trkpt lat="43.65411" lon="3.7709">
        <ele>96.2</ele>
        <time>2021-01-03T14:00:22Z</time>
      </trkpt>
      <trkpt lat="43.65409" lon="3.77089">
        <ele>99</ele>
        <time>2021-01-03T14:00:24Z</time>
      </trkpt>
      <trkpt lat="43.65407" lon="3.77088">
        <ele>96.3</ele>
        <time>2021-01-03T14:00:25Z</time>
      </trkpt>
      <trkpt lat="43.65404" lon="3.77087">
        <ele>96.3</ele>
        <time>2021-01-03T14:00:26Z</time>
      </trkpt>
      <trkpt lat="43.65402" lon="3.77085">
        <ele>96.4</ele>
        <time>2021-01-03T14:00:27Z</time>
      </trkpt>
      <trkpt lat="43.654" lon="3.77083">
        <ele>96.4</ele>
        <time>2021-01-03T14:00:28Z</time>
      </trkpt>
      <trkpt lat="43.65398" lon="3.77081">
        <ele>96.5</ele>
        <time>2021-01-03T14:00:29Z</time>
      </trkpt>
      <trkpt lat="43.65396" lon="3.77079">
        <ele>96.5</ele>
        <time>2021-01-03T14:00:30Z</time>
      </trkpt>
      <trkpt lat="43.65394" lon="3.77079">
        <ele>96.5</ele>
        <time>2021-01-03T14:00:31Z</time>
      </trkpt>
      <trkpt lat="43.65392" lon="3.77081">
        <ele>96.3</ele>
        <time>2021-01-03T14:00:32Z</time>
      </trkpt>
      <trkpt lat="43.65389" lon="3.77082">
        <ele>96.1</ele>
        <time>2021-01-03T14:00:33Z</time>
      </trkpt>
      <trkpt lat="43.65387" lon="3.77084">
        <ele>100</ele>
        <time>2021-01-03T14:00:34Z</time>
      </trkpt>
      <trkpt lat="43.65384" lon="3.77085">
        <ele>96.4</ele>
        <time>2021-01-03T14:00:35Z</time>
      </trkpt>
      <trkpt lat="43.65381" lon="3.77085">
        <ele>96.6</ele>
        <time>2021-01-03T14:00:36Z</time>
      </trkpt>
      <trkpt lat="43.65379" lon="3.77084">
        <ele>96.7</ele>
        <time>2021-01-03T14:00:37Z</time>
      </trkpt>
      <trkpt lat="43.65377" lon="3.77083">
        <ele>96.9</ele>
        <time>2021-01-03T14:00:38Z</time>
      </trkpt>
      <trkpt lat="43.65375" lon="3.77081">
        <ele>97.1</ele>
        <time>2021-01-03T14:00:39Z</time>
      </trkpt>
      <trkpt lat="43.65373" lon="3.7708">
        <ele>97.3</ele>
        <time>2021-01-03T14:00:40Z</time>
      </trkpt>
      <trkpt lat="43.65371" lon="3.77078">
        <ele>97.5</ele>
        <time>2021-01-03T14:00:41Z</time>
      </trkpt>
      <trkpt lat="43.65369" lon="3.77077">
        <ele>97.7</ele>
        <time>2021-01-03T14:00:42Z</time>
      </trkpt>
      <trkpt lat="43.65367" lon="3.77075">
        <ele>97.9</ele>
        <time>2021-01-03T14:00:43Z</time>
      </trkpt>
      <trkpt lat="43.65366" lon="3.77073">
        <ele>101</ele>
        <time>2021-01-03T14:00:44Z</time>
      </trkpt>
      <trkpt lat="43.65365" lon="3.77071">
        <ele>98.2</ele>
        <time>2021-01-03T14:00:45Z</time>
      </trkpt>
      <trkpt lat="43.65363" lon="3.77067">
        <ele>98.5</ele>
        <time>2021-01-03T14:00:47Z</time>
      </trkpt>
      <trkpt lat="43.65361" lon="3.77063">
        <ele>98.8</ele>
        <time>2021-01-03T14:00:49Z</time>
      </trkpt>
      <trkpt lat="43.65359" lon="3.77061">
        <ele>99.2</ele>
        <time>2021-01-03T14:00:50Z</time>
      </trkpt>
      <trkpt lat="43.65357" lon="3.77057">
        <ele>99.7</ele>
        <time>2021-01-03T14:00:52Z</time>
      </trkpt>
      <trkpt lat="43.65356" lon="3.77054">
        <ele>100</ele>
        <time>2021-01-03T14:00:53Z</time>
      </trkpt>
      <trkpt lat="43.65355" lon="3.77051">
        <ele>103</ele>
        <time>2021-01-03T14:00:54Z</time>
      </trkpt>
      <trkpt lat="43.65354" lon="3.77048">
        <ele>100.8</ele>
        <time>2021-01-03T14:00:55Z</time>
      </trkpt>
      <trkpt lat="43.65353" lon="3.77046">
        <ele>101</ele>
        <time>2021-01-03T14:00:56Z</time>
      </trkpt>
      <trkpt lat="43.65352" lon="3.77043">
        <ele>101.4</ele>
        <time>2021-01-03T14:00:57Z</time>
      </trkpt>
      <trkpt lat="43.65351" lon="3.77041">
        <ele>101.7</ele>
        <time>2021-01-03T14:00:58Z</time>
      </trkpt>
      <trkpt lat="43.6535" lon="3.77039">
        <ele>102</ele>
        <time>2021-01-03T14:00:59Z</time>
      </trkpt>
      <trkpt lat="43.65349" lon="3.77036">
        <ele>102.3</ele>
        <time>2021-01-03T14:01:00Z</time>
      </trkpt>
      <trkpt lat="43.65348" lon="3.77034">
        <ele>102.5</ele>
        <time>2021-01-03T14:01:01Z</time>
      </trkpt>
      <trkpt lat="43.65346" lon="3.7703">
        <ele>103.1</ele>
        <time>2021-01-03T14:01:03Z</time>
      </trkpt>
      <trkpt lat="43.65344" lon="3.77026">
        <ele>103.5</ele>
        <time>2021-01-03T14:01:05Z</time>
      </trkpt>
      <trkpt lat="43.65342" lon="3.77022">
        <ele>103.8</ele>
        <time>2021-01-03T14:01:07Z</time>
      </trkpt>
      <trkpt lat="43.65341" lon="3.77018">
        <ele>104</ele>
        <time>2021-01-03T14:01:09Z</time>
      </trkpt>
      <trkpt lat="43.65339" lon="3.77014">
        <ele>104.3</ele>
        <time>2021-01-03T14:01:11Z</time>
      </trkpt>
      <trkpt lat="43.65338" lon="3.7701">
        <ele>104.4</ele>
        <time>2021-01-03T14:01:13Z</time>
      </trkpt>
      <trkpt lat="43.65337" lon="3.77005">
        <ele>104.6</ele>
        <time>2021-01-03T14:01:15Z</time>
      </trkpt>
      <trkpt lat="43.65337" lon="3.77003">
        <ele>104.6</ele>
        <time>2021-01-03T14:01:16Z</time>
      </trkpt>
      <trkpt lat="43.65337" lon="3.76998">
        <ele>104.7</ele>
        <time>2021-01-03T14:01:18Z</time>
      </trkpt>
      <trkpt lat="43.65336" lon="3.76996">
        <ele>104.9</ele>
        <time>2021-01-03T14:01:19Z</time>
      </trkpt>
      <trkpt lat="43.65336" lon="3.76993">
        <ele>105</ele>
        <time>2021-01-03T14:01:20Z</time>
      </trkpt>
      <trkpt lat="43.65335" lon="3.76989">
        <ele>105.2</ele>
        <time>2021-01-03T14:01:21Z</time>
      </trkpt>
      <trkpt lat="43.65334" lon="3.76986">
        <ele>105.4</ele>
        <time>2021-01-03T14:01:22Z</time>
      </trkpt>
      <trkpt lat="43.65333" lon="3.76982">
        <ele>105.7</ele>
        <time>2021-01-03T14:01:23Z</time>
      </trkpt>
      <trkpt lat="43.65332" lon="3.76979">
        <ele>109</ele>
        <time>2021-01-03T14:01:24Z</time>
      </trkpt>
      <trkpt lat="43.65331" lon="3.76977">
        <ele>106.1</ele>
        <time>2021-01-03T14:01:25Z</time>
      </trkpt>
      <trkpt lat="43.65328" lon="3.76974">
        <ele>106.5</ele>
        <time>2021-01-03T14:01:27Z</time>
      </trkpt>
      <trkpt lat="43.65326" lon="3.76973">
        <ele>106.8</ele>
        <time>2021-01-03T14:01:29Z</time>
      </trkpt>
      <trkpt lat="43.65325" lon="3.76971">
        <ele>110</ele>
        <time>2021-01-03T14:01:36Z</time>
      </trkpt>
      <trkpt lat="43.65335" lon="3.76964">
        <ele>109</ele>
        <time>2021-01-03T14:02:34Z</time>
      </trkpt>
      <trkpt lat="43.65338" lon="3.76962">
        <ele>105.5</ele>
        <time>2021-01-03T14:02:35Z</time>
      </trkpt>
      <trkpt lat="43.65341" lon="3.7696">
        <ele>105.2</ele>
        <time>2021-01-03T14:02:36Z</time>
      </trkpt>
      <trkpt lat="43.65345" lon="3.76957">
        <ele>104.7</ele>
        <time>2021-01-03T14:02:37Z</time>
      </trkpt>
      <trkpt lat="43.65348" lon="3.76955">
        <ele>104.4</ele>
        <time>2021-01-03T14:02:38Z</time>
      </trkpt>
      <trkpt lat="43.65351" lon="3.76952">
        <ele>104.1</ele>
        <time>2021-01-03T14:02:39Z</time>
      </trkpt>
      <trkpt lat="43.65354" lon="3.7695">
        <ele>103.8</ele>
        <time>2021-01-03T14:02:40Z</time>
      </trkpt>
      <trkpt lat="43.65358" lon="3.76947">
        <ele>103.3</ele>
        <time>2021-01-03T14:02:41Z</time>
      </trkpt>
      <trkpt lat="43.65362" lon="3.76944">
        <ele>103</ele>
        <time>2021-01-03T14:02:42Z</time>
      </trkpt>
      <trkpt lat="43.65366" lon="3.76942">
        <ele>102.9</ele>
        <time>2021-01-03T14:02:43Z</time>
      </trkpt>
      <trkpt lat="43.65368" lon="3.7694">
        <ele>106</ele>
        <time>2021-01-03T14:02:44Z</time>
      </trkpt>
      <trkpt lat="43.65369" lon="3.76937">
        <ele>102.8</ele>
        <time>2021-01-03T14:02:46Z</time>
      </trkpt>
      <trkpt lat="43.65369" lon="3.76934">
        <ele>102.9</ele>
        <time>2021-01-03T14:02:47Z</time>
      </trkpt>
      <trkpt lat="43.65368" lon="3.7693">
        <ele>103</ele>
        <time>2021-01-03T14:02:48Z</time>
      </trkpt>
      <trkpt lat="43.65367" lon="3.76926">
        <ele>103.2</ele>
        <time>2021-01-03T14:02:49Z</time>
      </trkpt>
      <trkpt lat="43.65366" lon="3.76921">
        <ele>103.4</ele>
        <time>2021-01-03T14:02:50Z</time>
      </trkpt>
      <trkpt lat="43.65364" lon="3.76915">
        <ele>103.7</ele>
        <time>2021-01-03T14:02:51Z</time>
      </trkpt>
      <trkpt lat="43.65363" lon="3.7691">
        <ele>103.8</ele>
        <time>2021-01-03T14:02:52Z</time>
      </trkpt>
      <trkpt lat="43.65362" lon="3.76905">
        <ele>103.9</ele>
        <time>2021-01-03T14:02:53Z</time>
      </trkpt>
      <trkpt lat="43.65362" lon="3.769">
        <ele>103.9</ele>
        <time>2021-01-03T14:02:54Z</time>
      </trkpt>
      <trkpt lat="43.65361" lon="3.76894">
        <ele>107</ele>
        <time>2021-01-03T14:02:55Z</time>
      </trkpt>
      <trkpt lat="43.6536" lon="3.76889">
        <ele>104.1</ele>
        <time>2021-01-03T14:02:56Z</time>
      </trkpt>
      <trkpt lat="43.6536" lon="3.7688">
        <ele>104.4</ele>
        <time>2021-01-03T14:02:57Z</time>
      </trkpt>
      <trkpt lat="43.65359" lon="3.76874">
        <ele>104.8</ele>
        <time>2021-01-03T14:02:58Z</time>
      </trkpt>
      <trkpt lat="43.65357" lon="3.76865">
        <ele>105.3</ele>
        <time>2021-01-03T14:03:00Z</time>
      </trkpt>
      <trkpt lat="43.65356" lon="3.76861">
        <ele>105.6</ele>
        <time>2021-01-03T14:03:02Z</time>
      </trkpt>
      <trkpt lat="43.65355" lon="3.76856">
        <ele>105.7</ele>
        <time>2021-01-03T14:03:03Z</time>
      </trkpt>
      <trkpt lat="43.65354" lon="3.76851">
        <ele>109</ele>
        <time>2021-01-03T14:03:04Z</time>
      </trkpt>
      <trkpt lat="43.65353" lon="3.76847">
        <ele>106</ele>
        <time>2021-01-03T14:03:05Z</time>
      </trkpt>
      <trkpt lat="43.65352" lon="3.76842">
        <ele>106.2</ele>
        <time>2021-01-03T14:03:06Z</time>
      </trkpt>
      <trkpt lat="43.65351" lon="3.76838">
        <ele>106.4</ele>
        <time>2021-01-03T14:03:07Z</time>
      </trkpt>
      <trkpt lat="43.6535" lon="3.76834">
        <ele>106.6</ele>
        <time>2021-01-03T14:03:08Z</time>
      </trkpt>
      <trkpt lat="43.65349" lon="3.7683">
        <ele>106.6</ele>
        <time>2021-01-03T14:03:09Z</time>
      </trkpt>
      <trkpt lat="43.65347" lon="3.76825">
        <ele>106.7</ele>
        <time>2021-01-03T14:03:10Z</time>
      </trkpt>
      <trkpt lat="43.65345" lon="3.76821">
        <ele>106.8</ele>
        <time>2021-01-03T14:03:11Z</time>
      </trkpt>
      <trkpt lat="43.65343" lon="3.76816">
        <ele>106.8</ele>
        <time>2021-01-03T14:03:12Z</time>
      </trkpt>
      <trkpt lat="43.65342" lon="3.7681">
        <ele>106.6</ele>
        <time>2021-01-03T14:03:13Z</time>
      </trkpt>
      <trkpt lat="43.65341" lon="3.76805">
        <ele>110</ele>
        <time>2021-01-03T14:03:14Z</time>
      </trkpt>
      <trkpt lat="43.6534" lon="3.76799">
        <ele>106.7</ele>
        <time>2021-01-03T14:03:15Z</time>
      </trkpt>
      <trkpt lat="43.65339" lon="3.76794">
        <ele>106.9</ele>
        <time>2021-01-03T14:03:16Z</time>
      </trkpt>
      <trkpt lat="43.65339" lon="3.76788">
        <ele>107.1</ele>
        <time>2021-01-03T14:03:17Z</time>
      </trkpt>
      <trkpt lat="43.65339" lon="3.76783">
        <ele>107.2</ele>
        <time>2021-01-03T14:03:18Z</time>
      </trkpt>
      <trkpt lat="43.65339" lon="3.76778">
        <ele>107.4</ele>
        <time>2021-01-03T14:03:19Z</time>
      </trkpt>
      <trkpt lat="43.65339" lon="3.76773">
        <ele>107.5</ele>
        <time>2021-01-03T14:03:20Z</time>
      </trkpt>
      <trkpt lat="43.6534" lon="3.76768">
        <ele>107.4</ele>
        <time>2021-01-03T14:03:21Z</time>
      </trkpt>
      <trkpt lat="43.65341" lon="3.76764">
        <ele>107.4</ele>
        <time>2021-01-03T14:03:22Z</time>
      </trkpt>
      <trkpt lat="43.65342" lon="3.7676">
        <ele>107.5</ele>
        <time>2021-01-03T14:03:23Z</time>
      </trkpt>
      <trkpt lat="43.65344" lon="3.76756">
        <ele>111</ele>
        <time>2021-01-03T14:03:24Z</time>
      </trkpt>
      <trkpt lat="43.65345" lon="3.76752">
        <ele>107.5</ele>
        <time>2021-01-03T14:03:25Z</time>
      </trkpt>
      <trkpt lat="43.65347" lon="3.76747">
        <ele>107.7</ele>
        <time>2021-01-03T14:03:26Z</time>
      </trkpt>
      <trkpt lat="43.65347" lon="3.76743">
        <ele>108</ele>
        <time>2021-01-03T14:03:27Z</time>
      </trkpt>
      <trkpt lat="43.65347" lon="3.76739">
        <ele>108.3</ele>
        <time>2021-01-03T14:03:28Z</time>
      </trkpt>
      <trkpt lat="43.65347" lon="3.76736">
        <ele>108.5</ele>
        <time>2021-01-03T14:03:29Z</time>
      </trkpt>
      <trkpt lat="43.65347" lon="3.76733">
        <ele>108.7</ele>
        <time>2021-01-03T14:03:30Z</time>
      </trkpt>
      <trkpt lat="43.65346" lon="3.76731">
        <ele>109</ele>
        <time>2021-01-03T14:03:31Z</time>
      </trkpt>
      <trkpt lat="43.65345" lon="3.76729">
        <ele>109.2</ele>
        <time>2021-01-03T14:03:32Z</time>
      </trkpt>
      <trkpt lat="43.65343" lon="3.76725">
        <ele>113</ele>
        <time>2021-01-03T14:03:34Z</time>
      </trkpt>
      <trkpt lat="43.65342" lon="3.76721">
        <ele>110.2</ele>
        <time>2021-01-03T14:03:36Z</time>
      </trkpt>
      <trkpt lat="43.6534" lon="3.76717">
        <ele>110.7</ele>
        <time>2021-01-03T14:03:38Z</time>
      </trkpt>
      <trkpt lat="43.65338" lon="3.76714">
        <ele>111.1</ele>
        <time>2021-01-03T14:03:40Z</time>
      </trkpt>
      <trkpt lat="43.65337" lon="3.76712">
        <ele>111.4</ele>
        <time>2021-01-03T14:03:42Z</time>
      </trkpt>
      <trkpt lat="43.65335" lon="3.76709">
        <ele>115</ele>
        <time>2021-01-03T14:03:44Z</time>
      </trkpt>
      <trkpt lat="43.65334" lon="3.76706">
        <ele>112.1</ele>
        <time>2021-01-03T14:03:46Z</time>
      </trkpt>
      <trkpt lat="43.65333" lon="3.76703">
        <ele>112.5</ele>
        <time>2021-01-03T14:03:48Z</time>
      </trkpt>
      <trkpt lat="43.65331" lon="3.767">
        <ele>113.3</ele>
        <time>2021-01-03T14:03:50Z</time>
      </trkpt>
      <trkpt lat="43.6533" lon="3.76698">
        <ele>113.7</ele>
        <time>2021-01-03T14:03:52Z</time>
      </trkpt>
      <trkpt lat="43.6533" lon="3.76697">
        <ele>117</ele>
        <time>2021-01-03T14:03:57Z</time>
      </trkpt>
      <trkpt lat="43.65338" lon="3.76713">
        <ele>118</ele>
        <time>2021-01-03T14:04:15Z</time>
      </trkpt>
      <trkpt lat="43.6534" lon="3.76717">
        <ele>110.7</ele>
        <time>2021-01-03T14:04:16Z</time>
      </trkpt>
      <trkpt lat="43.65343" lon="3.76722">
        <ele>110</ele>
        <time>2021-01-03T14:04:17Z</time>
      </trkpt>
      <trkpt lat="43.65345" lon="3.76728">
        <ele>109.3</ele>
        <time>2021-01-03T14:04:18Z</time>
      </trkpt>
      <trkpt lat="43.65347" lon="3.76733">
        <ele>108.7</ele>
        <time>2021-01-03T14:04:19Z</time>
      </trkpt>
      <trkpt lat="43.65349" lon="3.76738">
        <ele>108.2</ele>
        <time>2021-01-03T14:04:20Z</time>
      </trkpt>
      <trkpt lat="43.6535" lon="3.76743">
        <ele>107.9</ele>
        <time>2021-01-03T14:04:21Z</time>
      </trkpt>
      <trkpt lat="43.65352" lon="3.76746">
        <ele>107.6</ele>
        <time>2021-01-03T14:04:22Z</time>
      </trkpt>
      <trkpt lat="43.65353" lon="3.76748">
        <ele>107.4</ele>
        <time>2021-01-03T14:04:23Z</time>
      </trkpt>
      <trkpt lat="43.65355" lon="3.76751">
        <ele>107.2</ele>
        <time>2021-01-03T14:04:25Z</time>
      </trkpt>
      <trkpt lat="43.65358" lon="3.76753">
        <ele>106.9</ele>
        <time>2021-01-03T14:04:28Z</time>
      </trkpt>
      <trkpt lat="43.65359" lon="3.76754">
        <ele>106.8</ele>
        <time>2021-01-03T14:04:29Z</time>
      </trkpt>
      <trkpt lat="43.65361" lon="3.76755">
        <ele>106.6</ele>
        <time>2021-01-03T14:04:30Z</time>
      </trkpt>
      <trkpt lat="43.65362" lon="3.76757">
        <ele>106.4</ele>
        <time>2021-01-03T14:04:31Z</time>
      </trkpt>
      <trkpt lat="43.65364" lon="3.76759">
        <ele>106.2</ele>
        <time>2021-01-03T14:04:32Z</time>
      </trkpt>
      <trkpt lat="43.65366" lon="3.76761">
        <ele>105.9</ele>
        <time>2021-01-03T14:04:33Z</time>
      </trkpt>
      <trkpt lat="43.65368" lon="3.76763">
        <ele>105.7</ele>
        <time>2021-01-03T14:04:34Z</time>
      </trkpt>
      <trkpt lat="43.6537" lon="3.76766">
        <ele>115</ele>
        <time>2021-01-03T14:04:35Z</time>
      </trkpt>
      <trkpt lat="43.65375" lon="3.76769">
        <ele>105</ele>
        <time>2021-01-03T14:04:36Z</time>
      </trkpt>
      <trkpt lat="43.65378" lon="3.76768">
        <ele>104.9</ele>
        <time>2021-01-03T14:04:37Z</time>
      </trkpt>
      <trkpt lat="43.65381" lon="3.76766">
        <ele>104.8</ele>
        <time>2021-01-03T14:04:39Z</time>
      </trkpt>
      <trkpt lat="43.65384" lon="3.76764">
        <ele>104.8</ele>
        <time>2021-01-03T14:04:40Z</time>
      </trkpt>
      <trkpt lat="43.65386" lon="3.76762">
        <ele>104.7</ele>
        <time>2021-01-03T14:04:41Z</time>
      </trkpt>
      <trkpt lat="43.65388" lon="3.76759">
        <ele>104.7</ele>
        <time>2021-01-03T14:04:42Z</time>
      </trkpt>
      <trkpt lat="43.6539" lon="3.76756">
        <ele>104.7</ele>
        <time>2021-01-03T14:04:43Z</time>
      </trkpt>
      <trkpt lat="43.65392" lon="3.76753">
        <ele>113</ele>
        <time>2021-01-03T14:04:44Z</time>
      </trkpt>
      <trkpt lat="43.65393" lon="3.7675">
        <ele>104.9</ele>
        <time>2021-01-03T14:04:45Z</time>
      </trkpt>
      <trkpt lat="43.65394" lon="3.76747">
        <ele>105</ele>
        <time>2021-01-03T14:04:46Z</time>
      </trkpt>
      <trkpt lat="43.65395" lon="3.76744">
        <ele>105.2</ele>
        <time>2021-01-03T14:04:47Z</time>
      </trkpt>
      <trkpt lat="43.65396" lon="3.76741">
        <ele>105.3</ele>
        <time>2021-01-03T14:04:48Z</time>
      </trkpt>
      <trkpt lat="43.65397" lon="3.76737">
        <ele>105.5</ele>
        <time>2021-01-03T14:04:49Z</time>
      </trkpt>
      <trkpt lat="43.65397" lon="3.76734">
        <ele>105.7</ele>
        <time>2021-01-03T14:04:50Z</time>
      </trkpt>
      <trkpt lat="43.65398" lon="3.7673">
        <ele>105.9</ele>
        <time>2021-01-03T14:04:51Z</time>
      </trkpt>
      <trkpt lat="43.65399" lon="3.76726">
        <ele>106</ele>
        <time>2021-01-03T14:04:52Z</time>
      </trkpt>
      <trkpt lat="43.654" lon="3.76722">
        <ele>106.2</ele>
        <time>2021-01-03T14:04:53Z</time>
      </trkpt>
      <trkpt lat="43.65401" lon="3.76718">
        <ele>106.3</ele>
        <time>2021-01-03T14:04:54Z</time>
      </trkpt>
      <trkpt lat="43.65403" lon="3.76714">
        <ele>113</ele>
        <time>2021-01-03T14:04:55Z</time>
      </trkpt>
      <trkpt lat="43.65404" lon="3.76709">
        <ele>106.6</ele>
        <time>2021-01-03T14:04:56Z</time>
      </trkpt>
      <trkpt lat="43.65405" lon="3.76705">
        <ele>106.8</ele>
        <time>2021-01-03T14:04:57Z</time>
      </trkpt>
      <trkpt lat="43.65406" lon="3.76701">
        <ele>107</ele>
        <time>2021-01-03T14:04:58Z</time>
      </trkpt>
      <trkpt lat="43.65407" lon="3.76697">
        <ele>107.2</ele>
        <time>2021-01-03T14:04:59Z</time>
      </trkpt>
      <trkpt lat="43.65408" lon="3.76694">
        <ele>107.4</ele>
        <time>2021-01-03T14:05:00Z</time>
      </trkpt>
      <trkpt lat="43.65408" lon="3.7669">
        <ele>107.7</ele>
        <time>2021-01-03T14:05:01Z</time>
      </trkpt>
      <trkpt lat="43.65409" lon="3.76686">
        <ele>108.1</ele>
        <time>2021-01-03T14:05:02Z</time>
      </trkpt>
      <trkpt lat="43.6541" lon="3.76683">
        <ele>108.4</ele>
        <time>2021-01-03T14:05:03Z</time>
      </trkpt>
      <trkpt lat="43.65411" lon="3.76679">
        <ele>108.8</ele>
        <time>2021-01-03T14:05:05Z</time>
      </trkpt>
      <trkpt lat="43.65411" lon="3.76674">
        <ele>109.3</ele>
        <time>2021-01-03T14:05:07Z</time>
      </trkpt>
      <trkpt lat="43.65412" lon="3.76671">
        <ele>109.6</ele>
        <time>2021-01-03T14:05:09Z</time>
      </trkpt>
      <trkpt lat="43.65413" lon="3.76668">
        <ele>109.9</ele>
        <time>2021-01-03T14:05:12Z</time>
      </trkpt>
      <trkpt lat="43.65413" lon="3.76665">
        <ele>115</ele>
        <time>2021-01-03T14:05:14Z</time>
      </trkpt>
      <trkpt lat="43.65412" lon="3.76663">
        <ele>110.5</ele>
        <time>2021-01-03T14:05:18Z</time>
      </trkpt>
      <trkpt lat="43.65414" lon="3.76664">
        <ele>110.4</ele>
        <time>2021-01-03T14:05:22Z</time>
      </trkpt>
      <trkpt lat="43.65417" lon="3.7666">
        <ele>118</ele>
        <time>2021-01-03T14:05:41Z</time>
      </trkpt>
      <trkpt lat="43.65418" lon="3.76656">
        <ele>111.5</ele>
        <time>2021-01-03T14:05:43Z</time>
      </trkpt>
      <trkpt lat="43.65419" lon="3.76652">
        <ele>112</ele>
        <time>2021-01-03T14:05:45Z</time>
      </trkpt>
      <trkpt lat="43.65419" lon="3.76649">
        <ele>112.4</ele>
        <time>2021-01-03T14:05:47Z</time>
      </trkpt>
      <trkpt lat="43.65419" lon="3.76646">
        <ele>112.9</ele>
        <time>2021-01-03T14:05:49Z</time>
      </trkpt>
      <trkpt lat="43.65419" lon="3.76642">
        <ele>113.4</ele>
        <time>2021-01-03T14:05:51Z</time>
      </trkpt>
      <trkpt lat="43.65418" lon="3.76638">
        <ele>114</ele>
        <time>2021-01-03T14:05:53Z</time>
      </trkpt>
      <trkpt lat="43.65418" lon="3.76634">
        <ele>114.4</ele>
        <time>2021-01-03T14:05:55Z</time>
      </trkpt>
      <trkpt lat="43.65418" lon="3.7663">
        <ele>114.8</ele>
        <time>2021-01-03T14:05:57Z</time>
      </trkpt>
      <trkpt lat="43.65417" lon="3.76626">
        <ele>115.4</ele>
        <time>2021-01-03T14:05:59Z</time>
      </trkpt>
      <trkpt lat="43.65418" lon="3.76623">
        <ele>122</ele>
        <time>2021-01-03T14:06:01Z</time>
      </trkpt>
      <trkpt lat="43.65418" lon="3.76619">
        <ele>116</ele>
        <time>2021-01-03T14:06:02Z</time>
      </trkpt>
      <trkpt lat="43.65419" lon="3.76615">
        <ele>116.3</ele>
        <time>2021-01-03T14:06:04Z</time>
      </trkpt>
      <trkpt lat="43.65419" lon="3.76612">
        <ele>116.6</ele>
        <time>2021-01-03T14:06:06Z</time>
      </trkpt>
      <trkpt lat="43.6542" lon="3.76609">
        <ele>116.7</ele>
        <time>2021-01-03T14:06:08Z</time>
      </trkpt>
      <trkpt lat="43.6542" lon="3.76607">
        <ele>116.8</ele>
        <time>2021-01-03T14:06:11Z</time>
      </trkpt>
      <trkpt lat="43.6542" lon="3.76603">
        <ele>117.1</ele>
        <time>2021-01-03T14:06:13Z</time>
      </trkpt>
      <trkpt lat="43.65421" lon="3.766">
        <ele>117.2</ele>
        <time>2021-01-03T14:06:15Z</time>
      </trkpt>
      <trkpt lat="43.6542" lon="3.76597">
        <ele>117.5</ele>
        <time>2021-01-03T14:06:17Z</time>
      </trkpt>
      <trkpt lat="43.65419" lon="3.76593">
        <ele>118</ele>
        <time>2021-01-03T14:06:19Z</time>
      </trkpt>
      <trkpt lat="43.65417" lon="3.7659">
        <ele>118.5</ele>
        <time>2021-01-03T14:06:21Z</time>
      </trkpt>
      <trkpt lat="43.65415" lon="3.76588">
        <ele>118.8</ele>
        <time>2021-01-03T14:06:23Z</time>
      </trkpt>
      <trkpt lat="43.65413" lon="3.76587">
        <ele>119</ele>
        <time>2021-01-03T14:06:24Z</time>
      </trkpt>
      <trkpt lat="43.6541" lon="3.76585">
        <ele>119.3</ele>
        <time>2021-01-03T14:06:26Z</time>
      </trkpt>
      <trkpt lat="43.65409" lon="3.76584">
        <ele>119.5</ele>
        <time>2021-01-03T14:06:29Z</time>
      </trkpt>
      <trkpt lat="43.65406" lon="3.76582">
        <ele>119.8</ele>
        <time>2021-01-03T14:06:31Z</time>
      </trkpt>
      <trkpt lat="43.65404" lon="3.76581">
        <ele>120</ele>
        <time>2021-01-03T14:06:33Z</time>
      </trkpt>
      <trkpt lat="43.65402" lon="3.76579">
        <ele>120.3</ele>
        <time>2021-01-03T14:06:35Z</time>
      </trkpt>
      <trkpt lat="43.654" lon="3.76577">
        <ele>120.5</ele>
        <time>2021-01-03T14:06:37Z</time>
      </trkpt>
      <trkpt lat="43.65397" lon="3.76576">
        <ele>120.8</ele>
        <time>2021-01-03T14:06:39Z</time>
      </trkpt>
      <trkpt lat="43.65395" lon="3.76573">
        <ele>121</ele>
        <time>2021-01-03T14:06:41Z</time>
      </trkpt>
      <trkpt lat="43.65393" lon="3.76571">
        <ele>121.2</ele>
        <time>2021-01-03T14:06:43Z</time>
      </trkpt>
      <trkpt lat="43.65391" lon="3.76569">
        <ele>121.4</ele>
        <time>2021-01-03T14:06:45Z</time>
      </trkpt>
      <trkpt lat="43.65389" lon="3.76567">
        <ele>121.6</ele>
        <time>2021-01-03T14:06:47Z</time>
      </trkpt>
      <trkpt lat="43.65387" lon="3.76565">
        <ele>121.8</ele>
        <time>2021-01-03T14:06:49Z</time>
      </trkpt>
      <trkpt lat="43.65386" lon="3.76563">
        <ele>121.9</ele>
        <time>2021-01-03T14:06:51Z</time>
      </trkpt>
      <trkpt lat="43.65384" lon="3.7656">
        <ele>122.2</ele>
        <time>2021-01-03T14:06:53Z</time>
      </trkpt>
      <trkpt lat="43.65382" lon="3.76559">
        <ele>122.4</ele>
        <time>2021-01-03T14:06:55Z</time>
      </trkpt>
      <trkpt lat="43.6538" lon="3.76558">
        <ele>122.6</ele>
        <time>2021-01-03T14:06:57Z</time>
      </trkpt>
      <trkpt lat="43.65378" lon="3.76557">
        <ele>122.7</ele>
        <time>2021-01-03T14:06:59Z</time>
      </trkpt>
      <trkpt lat="43.65375" lon="3.76556">
        <ele>123</ele>
        <time>2021-01-03T14:07:01Z</time>
      </trkpt>
      <trkpt lat="43.65372" lon="3.76556">
        <ele>123.2</ele>
        <time>2021-01-03T14:07:03Z</time>
      </trkpt>
      <trkpt lat="43.65369" lon="3.76555">
        <ele>123.4</ele>
        <time>2021-01-03T14:07:05Z</time>
      </trkpt>
      <trkpt lat="43.65367" lon="3.76555">
        <ele>123.6</ele>
        <time>2021-01-03T14:07:07Z</time>
      </trkpt>
      <trkpt lat="43.65364" lon="3.76555">
        <ele>123.8</ele>
        <time>2021-01-03T14:07:09Z</time>
      </trkpt>
      <trkpt lat="43.65362" lon="3.76555">
        <ele>123.9</ele>
        <time>2021-01-03T14:07:11Z</time>
      </trkpt>
      <trkpt lat="43.65359" lon="3.76555">
        <ele>124.2</ele>
        <time>2021-01-03T14:07:13Z</time>
      </trkpt>
      <trkpt lat="43.65357" lon="3.76555">
        <ele>124.4</ele>
        <time>2021-01-03T14:07:15Z</time>
      </trkpt>
      <trkpt lat="43.65354" lon="3.76555">
        <ele>124.8</ele>
        <time>2021-01-03T14:07:17Z</time>
      </trkpt>
      <trkpt lat="43.65352" lon="3.76555">
        <ele>125</ele>
        <time>2021-01-03T14:07:19Z</time>
      </trkpt>
      <trkpt lat="43.65349" lon="3.76555">
        <ele>125.3</ele>
        <time>2021-01-03T14:07:21Z</time>
      </trkpt>
      <trkpt lat="43.65347" lon="3.76554">
        <ele>125.5</ele>
        <time>2021-01-03T14:07:23Z</time>
      </trkpt>
      <trkpt lat="43.65343" lon="3.76553">
        <ele>125.9</ele>
        <time>2021-01-03T14:07:25Z</time>
      </trkpt>
      <trkpt lat="43.6534" lon="3.76552">
        <ele>126.2</ele>
        <time>2021-01-03T14:07:27Z</time>
      </trkpt>
      <trkpt lat="43.65337" lon="3.76553">
        <ele>126.5</ele>
        <time>2021-01-03T14:07:29Z</time>
      </trkpt>
      <trkpt lat="43.65334" lon="3.76554">
        <ele>126.9</ele>
        <time>2021-01-03T14:07:31Z</time>
      </trkpt>
      <trkpt lat="43.65332" lon="3.76554">
        <ele>127</ele>
        <time>2021-01-03T14:07:32Z</time>
      </trkpt>
      <trkpt lat="43.65329" lon="3.76553">
        <ele>127.2</ele>
        <time>2021-01-03T14:07:34Z</time>
      </trkpt>
      <trkpt lat="43.65325" lon="3.76552">
        <ele>127.5</ele>
        <time>2021-01-03T14:07:36Z</time>
      </trkpt>
      <trkpt lat="43.65323" lon="3.76552">
        <ele>127.7</ele>
        <time>2021-01-03T14:07:38Z</time>
      </trkpt>
      <trkpt lat="43.65321" lon="3.76554">
        <ele>127.9</ele>
        <time>2021-01-03T14:07:40Z</time>
      </trkpt>
      <trkpt lat="43.65319" lon="3.76554">
        <ele>128</ele>
        <time>2021-01-03T14:07:42Z</time>
      </trkpt>
      <trkpt lat="43.65317" lon="3.76553">
        <ele>128.1</ele>
        <time>2021-01-03T14:07:44Z</time>
      </trkpt>
      <trkpt lat="43.65315" lon="3.76553">
        <ele>128.3</ele>
        <time>2021-01-03T14:07:46Z</time>
      </trkpt>
      <trkpt lat="43.65313" lon="3.76553">
        <ele>128.4</ele>
        <time>2021-01-03T14:07:48Z</time>
      </trkpt>
      <trkpt lat="43.65311" lon="3.76553">
        <ele>132</ele>
        <time>2021-01-03T14:07:50Z</time>
      </trkpt>
      <trkpt lat="43.65308" lon="3.76553">
        <ele>128.8</ele>
        <time>2021-01-03T14:07:52Z</time>
      </trkpt>
      <trkpt lat="43.65306" lon="3.76553">
        <ele>129</ele>
        <time>2021-01-03T14:07:54Z</time>
      </trkpt>
      <trkpt lat="43.65304" lon="3.76554">
        <ele>129.2</ele>
        <time>2021-01-03T14:07:56Z</time>
      </trkpt>
      <trkpt lat="43.65301" lon="3.76554">
        <ele>129.6</ele>
        <time>2021-01-03T14:07:58Z</time>
      </trkpt>
      <trkpt lat="43.653" lon="3.76556">
        <ele>133</ele>
        <time>2021-01-03T14:08:00Z</time>
      </trkpt>
      <trkpt lat="43.65299" lon="3.76559">
        <ele>129.9</ele>
        <time>2021-01-03T14:08:02Z</time>
      </trkpt>
      <trkpt lat="43.65299" lon="3.76563">
        <ele>129.9</ele>
        <time>2021-01-03T14:08:04Z</time>
      </trkpt>
      <trkpt lat="43.65298" lon="3.76567">
        <ele>130.1</ele>
        <time>2021-01-03T14:08:06Z</time>
      </trkpt>
      <trkpt lat="43.65298" lon="3.76571">
        <ele>130.1</ele>
        <time>2021-01-03T14:08:08Z</time>
      </trkpt>
      <trkpt lat="43.65298" lon="3.76576">
        <ele>134</ele>
        <time>2021-01-03T14:08:10Z</time>
      </trkpt>
      <trkpt lat="43.65299" lon="3.7658">
        <ele>129.9</ele>
        <time>2021-01-03T14:08:12Z</time>
      </trkpt>
      <trkpt lat="43.65299" lon="3.76582">
        <ele>129.9</ele>
        <time>2021-01-03T14:08:13Z</time>
      </trkpt>
      <trkpt lat="43.65299" lon="3.76586">
        <ele>129.8</ele>
        <time>2021-01-03T14:08:16Z</time>
      </trkpt>
      <trkpt lat="43.65299" lon="3.7659">
        <ele>129.7</ele>
        <time>2021-01-03T14:08:19Z</time>
      </trkpt>
      <trkpt lat="43.65299" lon="3.76595">
        <ele>129.5</ele>
        <time>2021-01-03T14:08:21Z</time>
      </trkpt>
      <trkpt lat="43.65299" lon="3.76598">
        <ele>129.4</ele>
        <time>2021-01-03T14:08:22Z</time>
      </trkpt>
      <trkpt lat="43.65299" lon="3.76602">
        <ele>129.3</ele>
        <time>2021-01-03T14:08:23Z</time>
      </trkpt>
      <trkpt lat="43.65299" lon="3.76606">
        <ele>129.1</ele>
        <time>2021-01-03T14:08:24Z</time>
      </trkpt>
      <trkpt lat="43.653" lon="3.76611">
        <ele>128.8</ele>
        <time>2021-01-03T14:08:25Z</time>
      </trkpt>
      <trkpt lat="43.653" lon="3.76618">
        <ele>128.7</ele>
        <time>2021-01-03T14:08:26Z</time>
      </trkpt>
      <trkpt lat="43.65301" lon="3.76624">
        <ele>128.3</ele>
        <time>2021-01-03T14:08:27Z</time>
      </trkpt>
      <trkpt lat="43.65302" lon="3.7663">
        <ele>128</ele>
        <time>2021-01-03T14:08:28Z</time>
      </trkpt>
      <trkpt lat="43.65303" lon="3.76634">
        <ele>127.7</ele>
        <time>2021-01-03T14:08:29Z</time>
      </trkpt>
      <trkpt lat="43.65305" lon="3.76638">
        <ele>134</ele>
        <time>2021-01-03T14:08:30Z</time>
      </trkpt>
      <trkpt lat="43.65307" lon="3.76642">
        <ele>126.3</ele>
        <time>2021-01-03T14:08:31Z</time>
      </trkpt>
      <trkpt lat="43.6531" lon="3.76645">
        <ele>125.4</ele>
        <time>2021-01-03T14:08:32Z</time>
      </trkpt>
      <trkpt lat="43.65312" lon="3.76649">
        <ele>124.5</ele>
        <time>2021-01-03T14:08:33Z</time>
      </trkpt>
      <trkpt lat="43.65315" lon="3.76653">
        <ele>123.4</ele>
        <time>2021-01-03T14:08:34Z</time>
      </trkpt>
      <trkpt lat="43.65318" lon="3.76657">
        <ele>122.4</ele>
        <time>2021-01-03T14:08:35Z</time>
      </trkpt>
      <trkpt lat="43.6532" lon="3.76663">
        <ele>121.4</ele>
        <time>2021-01-03T14:08:36Z</time>
      </trkpt>
      <trkpt lat="43.65322" lon="3.76667">
        <ele>120.6</ele>
        <time>2021-01-03T14:08:37Z</time>
      </trkpt>
      <trkpt lat="43.65325" lon="3.76673">
        <ele>119.1</ele>
        <time>2021-01-03T14:08:38Z</time>
      </trkpt>
      <trkpt lat="43.65328" lon="3.76678">
        <ele>117.6</ele>
        <time>2021-01-03T14:08:39Z</time>
      </trkpt>
      <trkpt lat="43.6533" lon="3.76683">
        <ele>132</ele>
        <time>2021-01-03T14:08:40Z</time>
      </trkpt>
      <trkpt lat="43.65332" lon="3.76688">
        <ele>114.7</ele>
        <time>2021-01-03T14:08:41Z</time>
      </trkpt>
      <trkpt lat="43.65334" lon="3.76693">
        <ele>113.3</ele>
        <time>2021-01-03T14:08:42Z</time>
      </trkpt>
      <trkpt lat="43.65336" lon="3.76699">
        <ele>112.5</ele>
        <time>2021-01-03T14:08:43Z</time>
      </trkpt>
      <trkpt lat="43.65339" lon="3.76706">
        <ele>111.7</ele>
        <time>2021-01-03T14:08:44Z</time>
      </trkpt>
      <trkpt lat="43.65342" lon="3.76712">
        <ele>110.9</ele>
        <time>2021-01-03T14:08:45Z</time>
      </trkpt>
      <trkpt lat="43.65345" lon="3.76717">
        <ele>110.2</ele>
        <time>2021-01-03T14:08:46Z</time>
      </trkpt>
      <trkpt lat="43.65348" lon="3.76722">
        <ele>109.4</ele>
        <time>2021-01-03T14:08:47Z</time>
      </trkpt>
      <trkpt lat="43.65349" lon="3.76727">
        <ele>109</ele>
        <time>2021-01-03T14:08:48Z</time>
      </trkpt>
      <trkpt lat="43.65351" lon="3.76733">
        <ele>108.4</ele>
        <time>2021-01-03T14:08:49Z</time>
      </trkpt>
      <trkpt lat="43.65352" lon="3.76738">
        <ele>129</ele>
        <time>2021-01-03T14:08:50Z</time>
      </trkpt>
      <trkpt lat="43.65353" lon="3.76744">
        <ele>107.6</ele>
        <time>2021-01-03T14:08:51Z</time>
      </trkpt>
      <trkpt lat="43.65354" lon="3.76748">
        <ele>107.4</ele>
        <time>2021-01-03T14:08:52Z</time>
      </trkpt>
      <trkpt lat="43.65354" lon="3.76751">
        <ele>107.2</ele>
        <time>2021-01-03T14:08:53Z</time>
      </trkpt>
      <trkpt lat="43.65353" lon="3.76753">
        <ele>107.1</ele>
        <time>2021-01-03T14:08:55Z</time>
      </trkpt>
      <trkpt lat="43.65353" lon="3.76753">
        <ele>127</ele>
        <time>2021-01-03T14:08:59Z</time>
      </trkpt>
      <trkpt lat="43.6536" lon="3.7675">
        <ele>117</ele>
        <time>2021-01-03T14:11:30Z</time>
      </trkpt>
      <trkpt lat="43.65362" lon="3.76752">
        <ele>106.8</ele>
        <time>2021-01-03T14:11:31Z</time>
      </trkpt>
      <trkpt lat="43.65363" lon="3.76754">
        <ele>106.6</ele>
        <time>2021-01-03T14:11:32Z</time>
      </trkpt>
      <trkpt lat="43.65365" lon="3.76755">
        <ele>106.4</ele>
        <time>2021-01-03T14:11:33Z</time>
      </trkpt>
      <trkpt lat="43.65367" lon="3.76758">
        <ele>106.1</ele>
        <time>2021-01-03T14:11:34Z</time>
      </trkpt>
      <trkpt lat="43.65369" lon="3.7676">
        <ele>105.8</ele>
        <time>2021-01-03T14:11:35Z</time>
      </trkpt>
      <trkpt lat="43.65371" lon="3.76763">
        <ele>105.5</ele>
        <time>2021-01-03T14:11:36Z</time>
      </trkpt>
      <trkpt lat="43.65372" lon="3.76766">
        <ele>105.3</ele>
        <time>2021-01-03T14:11:37Z</time>
      </trkpt>
      <trkpt lat="43.65373" lon="3.7677">
        <ele>105</ele>
        <time>2021-01-03T14:11:38Z</time>
      </trkpt>
      <trkpt lat="43.65373" lon="3.76774">
        <ele>104.8</ele>
        <time>2021-01-03T14:11:39Z</time>
      </trkpt>
      <trkpt lat="43.65372" lon="3.76778">
        <ele>115</ele>
        <time>2021-01-03T14:11:40Z</time>
      </trkpt>
      <trkpt lat="43.65372" lon="3.76783">
        <ele>104.5</ele>
        <time>2021-01-03T14:11:41Z</time>
      </trkpt>
      <trkpt lat="43.65373" lon="3.76788">
        <ele>104.4</ele>
        <time>2021-01-03T14:11:42Z</time>
      </trkpt>
      <trkpt lat="43.65375" lon="3.76792">
        <ele>104.2</ele>
        <time>2021-01-03T14:11:43Z</time>
      </trkpt>
      <trkpt lat="43.65377" lon="3.76796">
        <ele>104.1</ele>
        <time>2021-01-03T14:11:44Z</time>
      </trkpt>
      <trkpt lat="43.65379" lon="3.76801">
        <ele>103.8</ele>
        <time>2021-01-03T14:11:45Z</time>
      </trkpt>
      <trkpt lat="43.65382" lon="3.76807">
        <ele>103.5</ele>
        <time>2021-01-03T14:11:46Z</time>
      </trkpt>
      <trkpt lat="43.65386" lon="3.76812">
        <ele>103</ele>
        <time>2021-01-03T14:11:47Z</time>
      </trkpt>
      <trkpt lat="43.65389" lon="3.76818">
        <ele>102.5</ele>
        <time>2021-01-03T14:11:48Z</time>
      </trkpt>
      <trkpt lat="43.65392" lon="3.76824">
        <ele>102.2</ele>
        <time>2021-01-03T14:11:49Z</time>
      </trkpt>
      <trkpt lat="43.65393" lon="3.7683">
        <ele>102</ele>
        <time>2021-01-03T14:11:50Z</time>
      </trkpt>
      <trkpt lat="43.65394" lon="3.76837">
        <ele>113</ele>
        <time>2021-01-03T14:11:51Z</time>
      </trkpt>
      <trkpt lat="43.65394" lon="3.76843">
        <ele>101.8</ele>
        <time>2021-01-03T14:11:52Z</time>
      </trkpt>
      <trkpt lat="43.65394" lon="3.7685">
        <ele>101.7</ele>
        <time>2021-01-03T14:11:53Z</time>
      </trkpt>
      <trkpt lat="43.65394" lon="3.76857">
        <ele>101.7</ele>
        <time>2021-01-03T14:11:54Z</time>
      </trkpt>
      <trkpt lat="43.65394" lon="3.76865">
        <ele>101.6</ele>
        <time>2021-01-03T14:11:55Z</time>
      </trkpt>
      <trkpt lat="43.65393" lon="3.76872">
        <ele>101.7</ele>
        <time>2021-01-03T14:11:56Z</time>
      </trkpt>
      <trkpt lat="43.65393" lon="3.7688">
        <ele>101.7</ele>
        <time>2021-01-03T14:11:57Z</time>
      </trkpt>
      <trkpt lat="43.65391" lon="3.76887">
        <ele>101.8</ele>
        <time>2021-01-03T14:11:58Z</time>
      </trkpt>
      <trkpt lat="43.6539" lon="3.76893">
        <ele>101.8</ele>
        <time>2021-01-03T14:11:59Z</time>
      </trkpt>
      <trkpt lat="43.65388" lon="3.76899">
        <ele>101.7</ele>
        <time>2021-01-03T14:12:00Z</time>
      </trkpt>
      <trkpt lat="43.65388" lon="3.76904">
        <ele>112</ele>
        <time>2021-01-03T14:12:01Z</time>
      </trkpt>
      <trkpt lat="43.65388" lon="3.76909">
        <ele>101.4</ele>
        <time>2021-01-03T14:12:02Z</time>
      </trkpt>
      <trkpt lat="43.65389" lon="3.76914">
        <ele>101.1</ele>
        <time>2021-01-03T14:12:03Z</time>
      </trkpt>
      <trkpt lat="43.65392" lon="3.76917">
        <ele>100.9</ele>
        <time>2021-01-03T14:12:04Z</time>
      </trkpt>
      <trkpt lat="43.65395" lon="3.7692">
        <ele>100.9</ele>
        <time>2021-01-03T14:12:05Z</time>
      </trkpt>
      <trkpt lat="43.654" lon="3.76921">
        <ele>100.8</ele>
        <time>2021-01-03T14:12:06Z</time>
      </trkpt>
      <trkpt lat="43.65405" lon="3.76922">
        <ele>100.6</ele>
        <time>2021-01-03T14:12:07Z</time>
      </trkpt>
      <trkpt lat="43.6541" lon="3.76923">
        <ele>100.5</ele>
        <time>2021-01-03T14:12:08Z</time>
      </trkpt>
      <trkpt lat="43.65416" lon="3.76924">
        <ele>100.3</ele>
        <time>2021-01-03T14:12:09Z</time>
      </trkpt>
      <trkpt lat="43.65421" lon="3.76925">
        <ele>110</ele>
        <time>2021-01-03T14:12:10Z</time>
      </trkpt>
      <trkpt lat="43.65426" lon="3.76926">
        <ele>100</ele>
        <time>2021-01-03T14:12:11Z</time>
      </trkpt>
      <trkpt lat="43.65431" lon="3.76926">
        <ele>99.8</ele>
        <time>2021-01-03T14:12:12Z</time>
      </trkpt>
      <trkpt lat="43.65436" lon="3.76926">
        <ele>99.6</ele>
        <time>2021-01-03T14:12:13Z</time>
      </trkpt>
      <trkpt lat="43.65441" lon="3.76926">
        <ele>99.5</ele>
        <time>2021-01-03T14:12:14Z</time>
      </trkpt>
      <trkpt lat="43.65445" lon="3.76924">
        <ele>99.2</ele>
        <time>2021-01-03T14:12:15Z</time>
      </trkpt>
      <trkpt lat="43.65448" lon="3.76923">
        <ele>99</ele>
        <time>2021-01-03T14:12:16Z</time>
      </trkpt>
      <trkpt lat="43.65451" lon="3.76921">
        <ele>98.7</ele>
        <time>2021-01-03T14:12:17Z</time>
      </trkpt>
      <trkpt lat="43.65454" lon="3.76918">
        <ele>98.4</ele>
        <time>2021-01-03T14:12:18Z</time>
      </trkpt>
      <trkpt lat="43.65458" lon="3.76916">
        <ele>98</ele>
        <time>2021-01-03T14:12:19Z</time>
      </trkpt>
      <trkpt lat="43.65461" lon="3.76913">
        <ele>106</ele>
        <time>2021-01-03T14:12:20Z</time>
      </trkpt>
      <trkpt lat="43.65464" lon="3.76911">
        <ele>97.5</ele>
        <time>2021-01-03T14:12:21Z</time>
      </trkpt>
      <trkpt lat="43.65467" lon="3.76909">
        <ele>97.3</ele>
        <time>2021-01-03T14:12:22Z</time>
      </trkpt>
      <trkpt lat="43.6547" lon="3.76908">
        <ele>97.1</ele>
        <time>2021-01-03T14:12:23Z</time>
      </trkpt>
      <trkpt lat="43.65473" lon="3.7691">
        <ele>97</ele>
        <time>2021-01-03T14:12:24Z</time>
      </trkpt>
      <trkpt lat="43.65475" lon="3.76913">
        <ele>96.9</ele>
        <time>2021-01-03T14:12:25Z</time>
      </trkpt>
      <trkpt lat="43.65476" lon="3.76915">
        <ele>96.9</ele>
        <time>2021-01-03T14:12:26Z</time>
      </trkpt>
      <trkpt lat="43.65478" lon="3.76918">
        <ele>96.8</ele>
        <time>2021-01-03T14:12:27Z</time>
      </trkpt>
      <trkpt lat="43.65479" lon="3.7692">
        <ele>96.9</ele>
        <time>2021-01-03T14:12:28Z</time>
      </trkpt>
      <trkpt lat="43.65481" lon="3.76922">
        <ele>104</ele>
        <time>2021-01-03T14:12:30Z</time>
      </trkpt>
      <trkpt lat="43.65484" lon="3.76922">
        <ele>96.8</ele>
        <time>2021-01-03T14:12:32Z</time>
      </trkpt>
      <trkpt lat="43.65486" lon="3.76922">
        <ele>96.7</ele>
        <time>2021-01-03T14:12:34Z</time>
      </trkpt>
      <trkpt lat="43.6549" lon="3.76923">
        <ele>96.6</ele>
        <time>2021-01-03T14:12:36Z</time>
      </trkpt>
      <trkpt lat="43.65492" lon="3.76923">
        <ele>96.5</ele>
        <time>2021-01-03T14:12:37Z</time>
      </trkpt>
      <trkpt lat="43.65495" lon="3.76924">
        <ele>96.4</ele>
        <time>2021-01-03T14:12:38Z</time>
      </trkpt>
      <trkpt lat="43.65499" lon="3.76925">
        <ele>96.3</ele>
        <time>2021-01-03T14:12:39Z</time>
      </trkpt>
      <trkpt lat="43.65502" lon="3.76927">
        <ele>103</ele>
        <time>2021-01-03T14:12:40Z</time>
      </trkpt>
      <trkpt lat="43.65506" lon="3.76929">
        <ele>96.1</ele>
        <time>2021-01-03T14:12:41Z</time>
      </trkpt>
      <trkpt lat="43.65511" lon="3.76932">
        <ele>95.9</ele>
        <time>2021-01-03T14:12:42Z</time>
      </trkpt>
      <trkpt lat="43.65515" lon="3.76934">
        <ele>95.7</ele>
        <time>2021-01-03T14:12:43Z</time>
      </trkpt>
      <trkpt lat="43.65521" lon="3.76935">
        <ele>95.4</ele>
        <time>2021-01-03T14:12:44Z</time>
      </trkpt>
      <trkpt lat="43.65526" lon="3.76938">
        <ele>95.1</ele>
        <time>2021-01-03T14:12:45Z</time>
      </trkpt>
      <trkpt lat="43.65532" lon="3.7694">
        <ele>95</ele>
        <time>2021-01-03T14:12:46Z</time>
      </trkpt>
      <trkpt lat="43.65537" lon="3.76943">
        <ele>95</ele>
        <time>2021-01-03T14:12:47Z</time>
      </trkpt>
      <trkpt lat="43.65543" lon="3.76945">
        <ele>95</ele>
        <time>2021-01-03T14:12:48Z</time>
      </trkpt>
      <trkpt lat="43.65549" lon="3.76947">
        <ele>95.1</ele>
        <time>2021-01-03T14:12:49Z</time>
      </trkpt>
      <trkpt lat="43.65555" lon="3.76947">
        <ele>101</ele>
        <time>2021-01-03T14:12:50Z</time>
      </trkpt>
      <trkpt lat="43.65561" lon="3.76947">
        <ele>94.9</ele>
        <time>2021-01-03T14:12:51Z</time>
      </trkpt>
      <trkpt lat="43.65566" lon="3.76944">
        <ele>94.6</ele>
        <time>2021-01-03T14:12:52Z</time>
      </trkpt>
      <trkpt lat="43.65572" lon="3.76942">
        <ele>94.3</ele>
        <time>2021-01-03T14:12:53Z</time>
      </trkpt>
      <trkpt lat="43.65578" lon="3.76939">
        <ele>94</ele>
        <time>2021-01-03T14:12:54Z</time>
      </trkpt>
      <trkpt lat="43.65583" lon="3.76936">
        <ele>93.7</ele>
        <time>2021-01-03T14:12:55Z</time>
      </trkpt>
      <trkpt lat="43.65589" lon="3.76935">
        <ele>93.9</ele>
        <time>2021-01-03T14:12:56Z</time>
      </trkpt>
      <trkpt lat="43.65594" lon="3.76935">
        <ele>94</ele>
        <time>2021-01-03T14:12:57Z</time>
      </trkpt>
      <trkpt lat="43.65599" lon="3.76936">
        <ele>94.3</ele>
        <time>2021-01-03T14:12:58Z</time>
      </trkpt>
      <trkpt lat="43.65603" lon="3.76936">
        <ele>94.4</ele>
        <time>2021-01-03T14:12:59Z</time>
      </trkpt>
      <trkpt lat="43.65605" lon="3.76934">
        <ele>100</ele>
        <time>2021-01-03T14:13:00Z</time>
      </trkpt>
      <trkpt lat="43.65607" lon="3.76931">
        <ele>94.4</ele>
        <time>2021-01-03T14:13:01Z</time>
      </trkpt>
      <trkpt lat="43.6561" lon="3.76927">
        <ele>94.3</ele>
        <time>2021-01-03T14:13:02Z</time>
      </trkpt>
      <trkpt lat="43.65614" lon="3.76925">
        <ele>94.5</ele>
        <time>2021-01-03T14:13:03Z</time>
      </trkpt>
      <trkpt lat="43.65617" lon="3.76922">
        <ele>94.6</ele>
        <time>2021-01-03T14:13:04Z</time>
      </trkpt>
      <trkpt lat="43.65621" lon="3.7692">
        <ele>94.8</ele>
        <time>2021-01-03T14:13:05Z</time>
      </trkpt>
      <trkpt lat="43.65625" lon="3.76919">
        <ele>95</ele>
        <time>2021-01-03T14:13:06Z</time>
      </trkpt>
      <trkpt lat="43.65629" lon="3.76919">
        <ele>95.3</ele>
        <time>2021-01-03T14:13:07Z</time>
      </trkpt>
      <trkpt lat="43.65633" lon="3.76919">
        <ele>95.6</ele>
        <time>2021-01-03T14:13:08Z</time>
      </trkpt>
      <trkpt lat="43.65637" lon="3.76919">
        <ele>95.9</ele>
        <time>2021-01-03T14:13:09Z</time>
      </trkpt>
      <trkpt lat="43.6564" lon="3.7692">
        <ele>100</ele>
        <time>2021-01-03T14:13:10Z</time>
      </trkpt>
      <trkpt lat="43.65643" lon="3.7692">
        <ele>96.1</ele>
        <time>2021-01-03T14:13:11Z</time>
      </trkpt>
      <trkpt lat="43.65646" lon="3.7692">
        <ele>96.2</ele>
        <time>2021-01-03T14:13:12Z</time>
      </trkpt>
      <trkpt lat="43.65649" lon="3.76919">
        <ele>96.3</ele>
        <time>2021-01-03T14:13:13Z</time>
      </trkpt>
      <trkpt lat="43.65652" lon="3.76919">
        <ele>96.4</ele>
        <time>2021-01-03T14:13:14Z</time>
      </trkpt>
      <trkpt lat="43.65654" lon="3.76917">
        <ele>96.5</ele>
        <time>2021-01-03T14:13:15Z</time>
      </trkpt>
      <trkpt lat="43.65657" lon="3.76916">
        <ele>96.7</ele>
        <time>2021-01-03T14:13:16Z</time>
      </trkpt>
      <trkpt lat="43.65659" lon="3.76914">
        <ele>96.7</ele>
        <time>2021-01-03T14:13:17Z</time>
      </trkpt>
      <trkpt lat="43.65661" lon="3.76912">
        <ele>96.9</ele>
        <time>2021-01-03T14:13:18Z</time>
      </trkpt>
      <trkpt lat="43.65664" lon="3.7691">
        <ele>97.1</ele>
        <time>2021-01-03T14:13:19Z</time>
      </trkpt>
      <trkpt lat="43.65666" lon="3.76907">
        <ele>101</ele>
        <time>2021-01-03T14:13:20Z</time>
      </trkpt>
      <trkpt lat="43.65669" lon="3.76905">
        <ele>97.7</ele>
        <time>2021-01-03T14:13:21Z</time>
      </trkpt>
      <trkpt lat="43.65671" lon="3.76904">
        <ele>97.9</ele>
        <time>2021-01-03T14:13:22Z</time>
      </trkpt>
      <trkpt lat="43.65674" lon="3.76902">
        <ele>98.3</ele>
        <time>2021-01-03T14:13:23Z</time>
      </trkpt>
      <trkpt lat="43.65677" lon="3.76901">
        <ele>98.7</ele>
        <time>2021-01-03T14:13:24Z</time>
      </trkpt>
      <trkpt lat="43.65679" lon="3.76902">
        <ele>98.9</ele>
        <time>2021-01-03T14:13:25Z</time>
      </trkpt>
      <trkpt lat="43.65681" lon="3.76903">
        <ele>99</ele>
        <time>2021-01-03T14:13:26Z</time>
      </trkpt>
      <trkpt lat="43.65683" lon="3.76905">
        <ele>99.2</ele>
        <time>2021-01-03T14:13:27Z</time>
      </trkpt>
      <trkpt lat="43.65684" lon="3.76907">
        <ele>99.2</ele>
        <time>2021-01-03T14:13:28Z</time>
      </trkpt>
      <trkpt lat="43.65685" lon="3.76909">
        <ele>99.3</ele>
        <time>2021-01-03T14:13:29Z</time>
      </trkpt>
      <trkpt lat="43.65687" lon="3.76911">
        <ele>103</ele>
        <time>2021-01-03T14:13:30Z</time>
      </trkpt>
      <trkpt lat="43.65688" lon="3.76913">
        <ele>99.4</ele>
        <time>2021-01-03T14:13:31Z</time>
      </trkpt>
      <trkpt lat="43.6569" lon="3.76914">
        <ele>99.6</ele>
        <time>2021-01-03T14:13:32Z</time>
      </trkpt>
      <trkpt lat="43.65693" lon="3.76914">
        <ele>99.9</ele>
        <time>2021-01-03T14:13:34Z</time>
      </trkpt>
      <trkpt lat="43.65696" lon="3.76912">
        <ele>100.3</ele>
        <time>2021-01-03T14:13:36Z</time>
      </trkpt>
      <trkpt lat="43.65699" lon="3.76912">
        <ele>100.6</ele>
        <time>2021-01-03T14:13:38Z</time>
      </trkpt>
      <trkpt lat="43.65702" lon="3.76913">
        <ele>100.9</ele>
        <time>2021-01-03T14:13:40Z</time>
      </trkpt>
      <trkpt lat="43.65705" lon="3.76914">
        <ele>101.2</ele>
        <time>2021-01-03T14:13:42Z</time>
      </trkpt>
      <trkpt lat="43.65708" lon="3.76915">
        <ele>101.5</ele>
        <time>2021-01-03T14:13:44Z</time>
      </trkpt>
      <trkpt lat="43.65711" lon="3.76916">
        <ele>101.8</ele>
        <time>2021-01-03T14:13:46Z</time>
      </trkpt>
      <trkpt lat="43.65713" lon="3.76918">
        <ele>101.9</ele>
        <time>2021-01-03T14:13:48Z</time>
      </trkpt>
      <trkpt lat="43.65719" lon="3.76919">
        <ele>105</ele>
        <time>2021-01-03T14:13:50Z</time>
      </trkpt>
      <trkpt lat="43.65722" lon="3.7692">
        <ele>102.9</ele>
        <time>2021-01-03T14:13:52Z</time>
      </trkpt>
      <trkpt lat="43.65724" lon="3.76921">
        <ele>102.9</ele>
        <time>2021-01-03T14:13:53Z</time>
      </trkpt>
      <trkpt lat="43.65726" lon="3.76922">
        <ele>102.9</ele>
        <time>2021-01-03T14:13:54Z</time>
      </trkpt>
      <trkpt lat="43.65729" lon="3.76923">
        <ele>103</ele>
        <time>2021-01-03T14:13:55Z</time>
      </trkpt>
      <trkpt lat="43.65731" lon="3.76924">
        <ele>103.1</ele>
        <time>2021-01-03T14:13:56Z</time>
      </trkpt>
      <trkpt lat="43.65732" lon="3.76924">
        <ele>103.1</ele>
        <time>2021-01-03T14:13:57Z</time>
      </trkpt>
      <trkpt lat="43.65735" lon="3.76926">
        <ele>103.1</ele>
        <time>2021-01-03T14:13:59Z</time>
      </trkpt>
      <trkpt lat="43.65739" lon="3.76927">
        <ele>103.2</ele>
        <time>2021-01-03T14:14:01Z</time>
      </trkpt>
      <trkpt lat="43.65741" lon="3.76928">
        <ele>103.3</ele>
        <time>2021-01-03T14:14:02Z</time>
      </trkpt>
      <trkpt lat="43.65743" lon="3.76928">
        <ele>103.3</ele>
        <time>2021-01-03T14:14:03Z</time>
      </trkpt>
      <trkpt lat="43.65745" lon="3.76928">
        <ele>103.4</ele>
        <time>2021-01-03T14:14:04Z</time>
      </trkpt>
      <trkpt lat="43.65746" lon="3.7693">
        <ele>103.4</ele>
        <time>2021-01-03T14:14:05Z</time>
      </trkpt>
      <trkpt lat="43.65748" lon="3.76931">
        <ele>103.4</ele>
        <time>2021-01-03T14:14:06Z</time>
      </trkpt>
      <trkpt lat="43.65749" lon="3.76933">
        <ele>103.4</ele>
        <time>2021-01-03T14:14:07Z</time>
      </trkpt>
      <trkpt lat="43.6575" lon="3.76935">
        <ele>103.3</ele>
        <time>2021-01-03T14:14:08Z</time>
      </trkpt>
      <trkpt lat="43.65753" lon="3.76938">
        <ele>107</ele>
        <time>2021-01-03T14:14:10Z</time>
      </trkpt>
      <trkpt lat="43.65755" lon="3.7694">
        <ele>103.3</ele>
        <time>2021-01-03T14:14:11Z</time>
      </trkpt>
      <trkpt lat="43.65757" lon="3.76941">
        <ele>103.3</ele>
        <time>2021-01-03T14:14:12Z</time>
      </trkpt>
      <trkpt lat="43.65759" lon="3.76943">
        <ele>103.3</ele>
        <time>2021-01-03T14:14:13Z</time>
      </trkpt>
      <trkpt lat="43.65761" lon="3.76945">
        <ele>103.4</ele>
        <time>2021-01-03T14:14:14Z</time>
      </trkpt>
      <trkpt lat="43.65763" lon="3.76947">
        <ele>103.5</ele>
        <time>2021-01-03T14:14:15Z</time>
      </trkpt>
      <trkpt lat="43.65765" lon="3.76949">
        <ele>103.6</ele>
        <time>2021-01-03T14:14:16Z</time>
      </trkpt>
      <trkpt lat="43.65767" lon="3.7695">
        <ele>103.8</ele>
        <time>2021-01-03T14:14:17Z</time>
      </trkpt>
      <trkpt lat="43.65769" lon="3.76952">
        <ele>104</ele>
        <time>2021-01-03T14:14:18Z</time>
      </trkpt>
      <trkpt lat="43.65771" lon="3.76953">
        <ele>104.1</ele>
        <time>2021-01-03T14:14:19Z</time>
      </trkpt>
      <trkpt lat="43.65772" lon="3.76954">
        <ele>108</ele>
        <time>2021-01-03T14:14:20Z</time>
      </trkpt>
      <trkpt lat="43.65774" lon="3.76955">
        <ele>104.5</ele>
        <time>2021-01-03T14:14:21Z</time>
      </trkpt>
      <trkpt lat="43.65777" lon="3.76957">
        <ele>104.8</ele>
        <time>2021-01-03T14:14:23Z</time>
      </trkpt>
      <trkpt lat="43.65779" lon="3.76958">
        <ele>104.8</ele>
        <time>2021-01-03T14:14:24Z</time>
      </trkpt>
      <trkpt lat="43.65781" lon="3.76959">
        <ele>104.5</ele>
        <time>2021-01-03T14:14:25Z</time>
      </trkpt>
      <trkpt lat="43.65783" lon="3.76961">
        <ele>104.3</ele>
        <time>2021-01-03T14:14:26Z</time>
      </trkpt>
      <trkpt lat="43.65784" lon="3.76962">
        <ele>104.2</ele>
        <time>2021-01-03T14:14:27Z</time>
      </trkpt>
      <trkpt lat="43.65786" lon="3.76963">
        <ele>104</ele>
        <time>2021-01-03T14:14:28Z</time>
      </trkpt>
      <trkpt lat="43.65788" lon="3.76964">
        <ele>103.7</ele>
        <time>2021-01-03T14:14:29Z</time>
      </trkpt>
      <trkpt lat="43.6579" lon="3.76967">
        <ele>103.7</ele>
        <time>2021-01-03T14:14:31Z</time>
      </trkpt>
      <trkpt lat="43.65791" lon="3.76969">
        <ele>103.8</ele>
        <time>2021-01-03T14:14:32Z</time>
      </trkpt>
      <trkpt lat="43.65793" lon="3.76971">
        <ele>103.7</ele>
        <time>2021-01-03T14:14:33Z</time>
      </trkpt>
      <trkpt lat="43.65794" lon="3.76973">
        <ele>103.7</ele>
        <time>2021-01-03T14:14:34Z</time>
      </trkpt>
      <trkpt lat="43.65796" lon="3.76975">
        <ele>103.7</ele>
        <time>2021-01-03T14:14:35Z</time>
      </trkpt>
      <trkpt lat="43.65798" lon="3.76979">
        <ele>104</ele>
        <time>2021-01-03T14:14:37Z</time>
      </trkpt>
      <trkpt lat="43.65799" lon="3.76982">
        <ele>104.3</ele>
        <time>2021-01-03T14:14:39Z</time>
      </trkpt>
      <trkpt lat="43.65801" lon="3.76986">
        <ele>104.7</ele>
        <time>2021-01-03T14:14:41Z</time>
      </trkpt>
      <trkpt lat="43.65802" lon="3.76989">
        <ele>105.1</ele>
        <time>2021-01-03T14:14:43Z</time>
      </trkpt>
      <trkpt lat="43.65803" lon="3.76993">
        <ele>105.8</ele>
        <time>2021-01-03T14:14:45Z</time>
      </trkpt>
      <trkpt lat="43.65803" lon="3.76997">
        <ele>106.4</ele>
        <time>2021-01-03T14:14:47Z</time>
      </trkpt>
      <trkpt lat="43.65804" lon="3.77001">
        <ele>107</ele>
        <time>2021-01-03T14:14:49Z</time>
      </trkpt>
      <trkpt lat="43.65804" lon="3.77004">
        <ele>107.1</ele>
        <time>2021-01-03T14:14:51Z</time>
      </trkpt>
      <trkpt lat="43.65804" lon="3.77009">
        <ele>107.2</ele>
        <time>2021-01-03T14:14:53Z</time>
      </trkpt>
      <trkpt lat="43.65804" lon="3.77013">
        <ele>107.4</ele>
        <time>2021-01-03T14:14:55Z</time>
      </trkpt>
      <trkpt lat="43.65804" lon="3.77015">
        <ele>111</ele>
        <time>2021-01-03T14:15:03Z</time>
      </trkpt>
      <trkpt lat="43.65804" lon="3.77021">
        <ele>111</ele>
        <time>2021-01-03T14:15:42Z</time>
      </trkpt>
      <trkpt lat="43.65804" lon="3.77026">
        <ele>107.8</ele>
        <time>2021-01-03T14:15:43Z</time>
      </trkpt>
      <trkpt lat="43.65804" lon="3.77029">
        <ele>107.9</ele>
        <time>2021-01-03T14:15:44Z</time>
      </trkpt>
      <trkpt lat="43.65805" lon="3.77032">
        <ele>108</ele>
        <time>2021-01-03T14:15:45Z</time>
      </trkpt>
      <trkpt lat="43.65805" lon="3.77036">
        <ele>108</ele>
        <time>2021-01-03T14:15:46Z</time>
      </trkpt>
      <trkpt lat="43.65806" lon="3.77039">
        <ele>107.8</ele>
        <time>2021-01-03T14:15:47Z</time>
      </trkpt>
      <trkpt lat="43.65806" lon="3.77042">
        <ele>107.8</ele>
        <time>2021-01-03T14:15:48Z</time>
      </trkpt>
      <trkpt lat="43.65807" lon="3.77045">
        <ele>107.5</ele>
        <time>2021-01-03T14:15:49Z</time>
      </trkpt>
      <trkpt lat="43.65807" lon="3.77049">
        <ele>107.5</ele>
        <time>2021-01-03T14:15:50Z</time>
      </trkpt>
      <trkpt lat="43.65808" lon="3.77052">
        <ele>113</ele>
        <time>2021-01-03T14:15:51Z</time>
      </trkpt>
      <trkpt lat="43.65809" lon="3.77055">
        <ele>106.9</ele>
        <time>2021-01-03T14:15:52Z</time>
      </trkpt>
      <trkpt lat="43.65809" lon="3.77058">
        <ele>106.9</ele>
        <time>2021-01-03T14:15:53Z</time>
      </trkpt>
      <trkpt lat="43.65809" lon="3.77062">
        <ele>106.9</ele>
        <time>2021-01-03T14:15:54Z</time>
      </trkpt>
      <trkpt lat="43.65809" lon="3.77065">
        <ele>107</ele>
        <time>2021-01-03T14:15:55Z</time>
      </trkpt>
      <trkpt lat="43.65809" lon="3.77068">
        <ele>107</ele>
        <time>2021-01-03T14:15:56Z</time>
      </trkpt>
      <trkpt lat="43.65809" lon="3.77071">
        <ele>107</ele>
        <time>2021-01-03T14:15:57Z</time>
      </trkpt>
      <trkpt lat="43.6581" lon="3.77075">
        <ele>106.8</ele>
        <time>2021-01-03T14:15:58Z</time>
      </trkpt>
      <trkpt lat="43.6581" lon="3.77078">
        <ele>106.8</ele>
        <time>2021-01-03T14:15:59Z</time>
      </trkpt>
      <trkpt lat="43.6581" lon="3.77082">
        <ele>106.9</ele>
        <time>2021-01-03T14:16:00Z</time>
      </trkpt>
      <trkpt lat="43.6581" lon="3.77086">
        <ele>107</ele>
        <time>2021-01-03T14:16:01Z</time>
      </trkpt>
      <trkpt lat="43.6581" lon="3.77089">
        <ele>114</ele>
        <time>2021-01-03T14:16:02Z</time>
      </trkpt>
      <trkpt lat="43.6581" lon="3.77093">
        <ele>107.4</ele>
        <time>2021-01-03T14:16:03Z</time>
      </trkpt>
      <trkpt lat="43.65811" lon="3.77097">
        <ele>107.4</ele>
        <time>2021-01-03T14:16:04Z</time>
      </trkpt>
      <trkpt lat="43.65811" lon="3.77101">
        <ele>107.6</ele>
        <time>2021-01-03T14:16:05Z</time>
      </trkpt>
      <trkpt lat="43.65812" lon="3.77105">
        <ele>107.7</ele>
        <time>2021-01-03T14:16:06Z</time>
      </trkpt>
      <trkpt lat="43.65812" lon="3.77108">
        <ele>107.9</ele>
        <time>2021-01-03T14:16:07Z</time>
      </trkpt>
      <trkpt lat="43.65813" lon="3.77112">
        <ele>107.9</ele>
        <time>2021-01-03T14:16:08Z</time>
      </trkpt>
      <trkpt lat="43.65813" lon="3.77116">
        <ele>107.9</ele>
        <time>2021-01-03T14:16:09Z</time>
      </trkpt>
      <trkpt lat="43.65815" lon="3.77123">
        <ele>107.6</ele>
        <time>2021-01-03T14:16:10Z</time>
      </trkpt>
      <trkpt lat="43.65816" lon="3.77127">
        <ele>107.6</ele>
        <time>2021-01-03T14:16:12Z</time>
      </trkpt>
      <trkpt lat="43.65816" lon="3.7713">
        <ele>107.6</ele>
        <time>2021-01-03T14:16:13Z</time>
      </trkpt>
      <trkpt lat="43.65817" lon="3.77134">
        <ele>107.5</ele>
        <time>2021-01-03T14:16:14Z</time>
      </trkpt>
      <trkpt lat="43.65817" lon="3.77138">
        <ele>107.6</ele>
        <time>2021-01-03T14:16:15Z</time>
      </trkpt>
      <trkpt lat="43.65817" lon="3.77141">
        <ele>107.6</ele>
        <time>2021-01-03T14:16:16Z</time>
      </trkpt>
      <trkpt lat="43.65817" lon="3.77145">
        <ele>107.7</ele>
        <time>2021-01-03T14:16:17Z</time>
      </trkpt>
      <trkpt lat="43.65817" lon="3.77149">
        <ele>107.7</ele>
        <time>2021-01-03T14:16:18Z</time>
      </trkpt>
      <trkpt lat="43.65817" lon="3.77152">
        <ele>107.8</ele>
        <time>2021-01-03T14:16:19Z</time>
      </trkpt>
      <trkpt lat="43.65817" lon="3.77156">
        <ele>107.8</ele>
        <time>2021-01-03T14:16:20Z</time>
      </trkpt>
      <trkpt lat="43.65817" lon="3.77159">
        <ele>114</ele>
        <time>2021-01-03T14:16:21Z</time>
      </trkpt>
      <trkpt lat="43.65817" lon="3.77163">
        <ele>107.9</ele>
        <time>2021-01-03T14:16:22Z</time>
      </trkpt>
      <trkpt lat="43.65816" lon="3.77167">
        <ele>108</ele>
        <time>2021-01-03T14:16:23Z</time>
      </trkpt>
      <trkpt lat="43.65816" lon="3.77171">
        <ele>108.1</ele>
        <time>2021-01-03T14:16:24Z</time>
      </trkpt>
      <trkpt lat="43.65815" lon="3.77175">
        <ele>108.2</ele>
        <time>2021-01-03T14:16:25Z</time>
      </trkpt>
      <trkpt lat="43.65814" lon="3.77179">
        <ele>108.3</ele>
        <time>2021-01-03T14:16:26Z</time>
      </trkpt>
      <trkpt lat="43.65814" lon="3.77183">
        <ele>108.4</ele>
        <time>2021-01-03T14:16:27Z</time>
      </trkpt>
      <trkpt lat="43.65813" lon="3.77188">
        <ele>108.4</ele>
        <time>2021-01-03T14:16:28Z</time>
      </trkpt>
      <trkpt lat="43.65813" lon="3.77192">
        <ele>108.5</ele>
        <time>2021-01-03T14:16:29Z</time>
      </trkpt>
      <trkpt lat="43.65812" lon="3.77196">
        <ele>108.4</ele>
        <time>2021-01-03T14:16:30Z</time>
      </trkpt>
      <trkpt lat="43.65812" lon="3.77201">
        <ele>113</ele>
        <time>2021-01-03T14:16:31Z</time>
      </trkpt>
      <trkpt lat="43.65813" lon="3.77206">
        <ele>107.8</ele>
        <time>2021-01-03T14:16:32Z</time>
      </trkpt>
      <trkpt lat="43.65813" lon="3.77211">
        <ele>107.5</ele>
        <time>2021-01-03T14:16:33Z</time>
      </trkpt>
      <trkpt lat="43.65815" lon="3.77216">
        <ele>107.4</ele>
        <time>2021-01-03T14:16:34Z</time>
      </trkpt>
      <trkpt lat="43.65817" lon="3.7722">
        <ele>107.4</ele>
        <time>2021-01-03T14:16:35Z</time>
      </trkpt>
      <trkpt lat="43.65819" lon="3.77225">
        <ele>107.2</ele>
        <time>2021-01-03T14:16:36Z</time>
      </trkpt>
      <trkpt lat="43.65821" lon="3.7723">
        <ele>106.8</ele>
        <time>2021-01-03T14:16:37Z</time>
      </trkpt>
      <trkpt lat="43.65824" lon="3.77234">
        <ele>106.6</ele>
        <time>2021-01-03T14:16:38Z</time>
      </trkpt>
      <trkpt lat="43.65826" lon="3.77239">
        <ele>106.1</ele>
        <time>2021-01-03T14:16:39Z</time>
      </trkpt>
      <trkpt lat="43.65829" lon="3.77243">
        <ele>105.8</ele>
        <time>2021-01-03T14:16:40Z</time>
      </trkpt>
      <trkpt lat="43.65832" lon="3.77247">
        <ele>112</ele>
        <time>2021-01-03T14:16:41Z</time>
      </trkpt>
      <trkpt lat="43.65835" lon="3.77251">
        <ele>104.9</ele>
        <time>2021-01-03T14:16:42Z</time>
      </trkpt>
      <trkpt lat="43.65838" lon="3.77255">
        <ele>104.9</ele>
        <time>2021-01-03T14:16:43Z</time>
      </trkpt>
      <trkpt lat="43.6584" lon="3.77259">
        <ele>104.8</ele>
        <time>2021-01-03T14:16:44Z</time>
      </trkpt>
      <trkpt lat="43.65839" lon="3.77265">
        <ele>104.9</ele>
        <time>2021-01-03T14:16:45Z</time>
      </trkpt>
      <trkpt lat="43.65837" lon="3.7727">
        <ele>105</ele>
        <time>2021-01-03T14:16:46Z</time>
      </trkpt>
      <trkpt lat="43.65835" lon="3.77274">
        <ele>105</ele>
        <time>2021-01-03T14:16:47Z</time>
      </trkpt>
      <trkpt lat="43.65834" lon="3.77278">
        <ele>105</ele>
        <time>2021-01-03T14:16:48Z</time>
      </trkpt>
      <trkpt lat="43.65832" lon="3.77283">
        <ele>105</ele>
        <time>2021-01-03T14:16:49Z</time>
      </trkpt>
      <trkpt lat="43.65831" lon="3.77287">
        <ele>105.1</ele>
        <time>2021-01-03T14:16:50Z</time>
      </trkpt>
      <trkpt lat="43.6583" lon="3.7729">
        <ele>111</ele>
        <time>2021-01-03T14:16:51Z</time>
      </trkpt>
      <trkpt lat="43.65828" lon="3.77294">
        <ele>104.9</ele>
        <time>2021-01-03T14:16:52Z</time>
      </trkpt>
      <trkpt lat="43.65827" lon="3.77298">
        <ele>104.9</ele>
        <time>2021-01-03T14:16:53Z</time>
      </trkpt>
      <trkpt lat="43.65826" lon="3.77302">
        <ele>104.8</ele>
        <time>2021-01-03T14:16:54Z</time>
      </trkpt>
      <trkpt lat="43.65825" lon="3.77306">
        <ele>104.8</ele>
        <time>2021-01-03T14:16:55Z</time>
      </trkpt>
      <trkpt lat="43.65824" lon="3.7731">
        <ele>104.6</ele>
        <time>2021-01-03T14:16:56Z</time>
      </trkpt>
      <trkpt lat="43.65822" lon="3.77315">
        <ele>104.2</ele>
        <time>2021-01-03T14:16:57Z</time>
      </trkpt>
      <trkpt lat="43.65822" lon="3.77319">
        <ele>104.2</ele>
        <time>2021-01-03T14:16:58Z</time>
      </trkpt>
      <trkpt lat="43.65821" lon="3.77324">
        <ele>103.9</ele>
        <time>2021-01-03T14:16:59Z</time>
      </trkpt>
      <trkpt lat="43.65822" lon="3.77329">
        <ele>104</ele>
        <time>2021-01-03T14:17:00Z</time>
      </trkpt>
      <trkpt lat="43.65822" lon="3.77333">
        <ele>111</ele>
        <time>2021-01-03T14:17:01Z</time>
      </trkpt>
      <trkpt lat="43.65822" lon="3.77338">
        <ele>103.9</ele>
        <time>2021-01-03T14:17:02Z</time>
      </trkpt>
      <trkpt lat="43.65823" lon="3.77343">
        <ele>104</ele>
        <time>2021-01-03T14:17:03Z</time>
      </trkpt>
      <trkpt lat="43.65823" lon="3.77349">
        <ele>103.9</ele>
        <time>2021-01-03T14:17:04Z</time>
      </trkpt>
      <trkpt lat="43.65822" lon="3.77354">
        <ele>103.7</ele>
        <time>2021-01-03T14:17:05Z</time>
      </trkpt>
      <trkpt lat="43.65821" lon="3.7736">
        <ele>103.4</ele>
        <time>2021-01-03T14:17:06Z</time>
      </trkpt>
      <trkpt lat="43.6582" lon="3.77365">
        <ele>103.3</ele>
        <time>2021-01-03T14:17:07Z</time>
      </trkpt>
      <trkpt lat="43.6582" lon="3.7737">
        <ele>103.4</ele>
        <time>2021-01-03T14:17:08Z</time>
      </trkpt>
      <trkpt lat="43.65819" lon="3.77375">
        <ele>103.4</ele>
        <time>2021-01-03T14:17:09Z</time>
      </trkpt>
      <trkpt lat="43.65819" lon="3.7738">
        <ele>103.6</ele>
        <time>2021-01-03T14:17:10Z</time>
      </trkpt>
      <trkpt lat="43.65819" lon="3.77385">
        <ele>110</ele>
        <time>2021-01-03T14:17:11Z</time>
      </trkpt>
      <trkpt lat="43.65818" lon="3.77389">
        <ele>103.7</ele>
        <time>2021-01-03T14:17:12Z</time>
      </trkpt>
      <trkpt lat="43.65818" lon="3.77393">
        <ele>103.7</ele>
        <time>2021-01-03T14:17:13Z</time>
      </trkpt>
      <trkpt lat="43.65817" lon="3.77398">
        <ele>103.5</ele>
        <time>2021-01-03T14:17:14Z</time>
      </trkpt>
      <trkpt lat="43.65815" lon="3.77403">
        <ele>103.2</ele>
        <time>2021-01-03T14:17:15Z</time>
      </trkpt>
      <trkpt lat="43.65813" lon="3.77408">
        <ele>102.9</ele>
        <time>2021-01-03T14:17:16Z</time>
      </trkpt>
      <trkpt lat="43.65811" lon="3.77414">
        <ele>102.7</ele>
        <time>2021-01-03T14:17:17Z</time>
      </trkpt>
      <trkpt lat="43.65808" lon="3.77419">
        <ele>102.3</ele>
        <time>2021-01-03T14:17:18Z</time>
      </trkpt>
      <trkpt lat="43.65805" lon="3.77423">
        <ele>101.7</ele>
        <time>2021-01-03T14:17:19Z</time>
      </trkpt>
      <trkpt lat="43.65803" lon="3.77428">
        <ele>101.1</ele>
        <time>2021-01-03T14:17:20Z</time>
      </trkpt>
      <trkpt lat="43.658" lon="3.77434">
        <ele>109</ele>
        <time>2021-01-03T14:17:21Z</time>
      </trkpt>
      <trkpt lat="43.65798" lon="3.77441">
        <ele>99.8</ele>
        <time>2021-01-03T14:17:22Z</time>
      </trkpt>
      <trkpt lat="43.65798" lon="3.77449">
        <ele>99.4</ele>
        <time>2021-01-03T14:17:23Z</time>
      </trkpt>
      <trkpt lat="43.65798" lon="3.77456">
        <ele>98.9</ele>
        <time>2021-01-03T14:17:24Z</time>
      </trkpt>
      <trkpt lat="43.65799" lon="3.77462">
        <ele>98.7</ele>
        <time>2021-01-03T14:17:25Z</time>
      </trkpt>
      <trkpt lat="43.658" lon="3.77467">
        <ele>98.5</ele>
        <time>2021-01-03T14:17:26Z</time>
      </trkpt>
      <trkpt lat="43.658" lon="3.77472">
        <ele>98.2</ele>
        <time>2021-01-03T14:17:27Z</time>
      </trkpt>
      <trkpt lat="43.65797" lon="3.77475">
        <ele>98</ele>
        <time>2021-01-03T14:17:28Z</time>
      </trkpt>
      <trkpt lat="43.65794" lon="3.77476">
        <ele>97.7</ele>
        <time>2021-01-03T14:17:29Z</time>
      </trkpt>
      <trkpt lat="43.6579" lon="3.77475">
        <ele>97</ele>
        <time>2021-01-03T14:17:30Z</time>
      </trkpt>
      <trkpt lat="43.65787" lon="3.77474">
        <ele>108</ele>
        <time>2021-01-03T14:17:31Z</time>
      </trkpt>
      <trkpt lat="43.65782" lon="3.77474">
        <ele>95.8</ele>
        <time>2021-01-03T14:17:32Z</time>
      </trkpt>
      <trkpt lat="43.65777" lon="3.77475">
        <ele>95.2</ele>
        <time>2021-01-03T14:17:33Z</time>
      </trkpt>
      <trkpt lat="43.65771" lon="3.77477">
        <ele>94.7</ele>
        <time>2021-01-03T14:17:34Z</time>
      </trkpt>
      <trkpt lat="43.65765" lon="3.7748">
        <ele>94.3</ele>
        <time>2021-01-03T14:17:35Z</time>
      </trkpt>
      <trkpt lat="43.6576" lon="3.77482">
        <ele>93.9</ele>
        <time>2021-01-03T14:17:36Z</time>
      </trkpt>
      <trkpt lat="43.65755" lon="3.77485">
        <ele>93.5</ele>
        <time>2021-01-03T14:17:37Z</time>
      </trkpt>
      <trkpt lat="43.65751" lon="3.77489">
        <ele>93.3</ele>
        <time>2021-01-03T14:17:38Z</time>
      </trkpt>
      <trkpt lat="43.65746" lon="3.77494">
        <ele>93.1</ele>
        <time>2021-01-03T14:17:39Z</time>
      </trkpt>
      <trkpt lat="43.65742" lon="3.775">
        <ele>92.8</ele>
        <time>2021-01-03T14:17:40Z</time>
      </trkpt>
      <trkpt lat="43.6574" lon="3.77507">
        <ele>92.5</ele>
        <time>2021-01-03T14:17:41Z</time>
      </trkpt>
      <trkpt lat="43.65738" lon="3.77514">
        <ele>106</ele>
        <time>2021-01-03T14:17:42Z</time>
      </trkpt>
      <trkpt lat="43.65736" lon="3.77522">
        <ele>91.6</ele>
        <time>2021-01-03T14:17:43Z</time>
      </trkpt>
      <trkpt lat="43.65734" lon="3.7753">
        <ele>91.2</ele>
        <time>2021-01-03T14:17:44Z</time>
      </trkpt>
      <trkpt lat="43.65731" lon="3.77537">
        <ele>91.1</ele>
        <time>2021-01-03T14:17:45Z</time>
      </trkpt>
      <trkpt lat="43.65728" lon="3.77545">
        <ele>91.2</ele>
        <time>2021-01-03T14:17:46Z</time>
      </trkpt>
      <trkpt lat="43.65725" lon="3.77552">
        <ele>91.2</ele>
        <time>2021-01-03T14:17:47Z</time>
      </trkpt>
      <trkpt lat="43.65722" lon="3.77558">
        <ele>91.1</ele>
        <time>2021-01-03T14:17:48Z</time>
      </trkpt>
      <trkpt lat="43.65719" lon="3.77565">
        <ele>90.9</ele>
        <time>2021-01-03T14:17:49Z</time>
      </trkpt>
      <trkpt lat="43.65716" lon="3.77572">
        <ele>90.5</ele>
        <time>2021-01-03T14:17:50Z</time>
      </trkpt>
      <trkpt lat="43.65714" lon="3.77579">
        <ele>102</ele>
        <time>2021-01-03T14:17:51Z</time>
      </trkpt>
      <trkpt lat="43.65711" lon="3.77586">
        <ele>89.6</ele>
        <time>2021-01-03T14:17:52Z</time>
      </trkpt>
      <trkpt lat="43.65709" lon="3.77593">
        <ele>89.1</ele>
        <time>2021-01-03T14:17:53Z</time>
      </trkpt>
      <trkpt lat="43.65706" lon="3.776">
        <ele>88.5</ele>
        <time>2021-01-03T14:17:54Z</time>
      </trkpt>
      <trkpt lat="43.65705" lon="3.77607">
        <ele>88.3</ele>
        <time>2021-01-03T14:17:55Z</time>
      </trkpt>
      <trkpt lat="43.65703" lon="3.77614">
        <ele>88</ele>
        <time>2021-01-03T14:17:56Z</time>
      </trkpt>
      <trkpt lat="43.65702" lon="3.77622">
        <ele>88</ele>
        <time>2021-01-03T14:17:57Z</time>
      </trkpt>
      <trkpt lat="43.65702" lon="3.77628">
        <ele>88.2</ele>
        <time>2021-01-03T14:17:58Z</time>
      </trkpt>
      <trkpt lat="43.65702" lon="3.77635">
        <ele>88.5</ele>
        <time>2021-01-03T14:17:59Z</time>
      </trkpt>
      <trkpt lat="43.65702" lon="3.77641">
        <ele>88.6</ele>
        <time>2021-01-03T14:18:00Z</time>
      </trkpt>
      <trkpt lat="43.65703" lon="3.77647">
        <ele>99</ele>
        <time>2021-01-03T14:18:01Z</time>
      </trkpt>
      <trkpt lat="43.65702" lon="3.77652">
        <ele>88.3</ele>
        <time>2021-01-03T14:18:02Z</time>
      </trkpt>
      <trkpt lat="43.65703" lon="3.77658">
        <ele>88.4</ele>
        <time>2021-01-03T14:18:03Z</time>
      </trkpt>
      <trkpt lat="43.65703" lon="3.77663">
        <ele>88.2</ele>
        <time>2021-01-03T14:18:04Z</time>
      </trkpt>
      <trkpt lat="43.65703" lon="3.77668">
        <ele>88.1</ele>
        <time>2021-01-03T14:18:05Z</time>
      </trkpt>
      <trkpt lat="43.65704" lon="3.77674">
        <ele>87.9</ele>
        <time>2021-01-03T14:18:06Z</time>
      </trkpt>
      <trkpt lat="43.65705" lon="3.7768">
        <ele>87.7</ele>
        <time>2021-01-03T14:18:07Z</time>
      </trkpt>
      <trkpt lat="43.65706" lon="3.77686">
        <ele>87.5</ele>
        <time>2021-01-03T14:18:08Z</time>
      </trkpt>
      <trkpt lat="43.65708" lon="3.77693">
        <ele>87.5</ele>
        <time>2021-01-03T14:18:09Z</time>
      </trkpt>
      <trkpt lat="43.65709" lon="3.777">
        <ele>87.2</ele>
        <time>2021-01-03T14:18:10Z</time>
      </trkpt>
      <trkpt lat="43.65711" lon="3.77706">
        <ele>97</ele>
        <time>2021-01-03T14:18:11Z</time>
      </trkpt>
      <trkpt lat="43.65712" lon="3.77714">
        <ele>86.6</ele>
        <time>2021-01-03T14:18:12Z</time>
      </trkpt>
      <trkpt lat="43.65712" lon="3.77722">
        <ele>85.8</ele>
        <time>2021-01-03T14:18:13Z</time>
      </trkpt>
      <trkpt lat="43.65712" lon="3.77731">
        <ele>85.4</ele>
        <time>2021-01-03T14:18:14Z</time>
      </trkpt>
      <trkpt lat="43.65712" lon="3.7774">
        <ele>85</ele>
        <time>2021-01-03T14:18:15Z</time>
      </trkpt>
      <trkpt lat="43.65711" lon="3.77748">
        <ele>84.5</ele>
        <time>2021-01-03T14:18:16Z</time>
      </trkpt>
      <trkpt lat="43.65712" lon="3.77756">
        <ele>84.4</ele>
        <time>2021-01-03T14:18:17Z</time>
      </trkpt>
      <trkpt lat="43.65713" lon="3.77763">
        <ele>84.4</ele>
        <time>2021-01-03T14:18:18Z</time>
      </trkpt>
      <trkpt lat="43.65714" lon="3.77769">
        <ele>84.3</ele>
        <time>2021-01-03T14:18:19Z</time>
      </trkpt>
      <trkpt lat="43.65717" lon="3.77775">
        <ele>84.5</ele>
        <time>2021-01-03T14:18:20Z</time>
      </trkpt>
      <trkpt lat="43.65721" lon="3.77779">
        <ele>95</ele>
        <time>2021-01-03T14:18:21Z</time>
      </trkpt>
      <trkpt lat="43.65726" lon="3.77781">
        <ele>85.5</ele>
        <time>2021-01-03T14:18:22Z</time>
      </trkpt>
      <trkpt lat="43.6573" lon="3.77784">
        <ele>86.1</ele>
        <time>2021-01-03T14:18:23Z</time>
      </trkpt>
      <trkpt lat="43.65734" lon="3.77785">
        <ele>86.7</ele>
        <time>2021-01-03T14:18:24Z</time>
      </trkpt>
      <trkpt lat="43.65737" lon="3.77788">
        <ele>87.1</ele>
        <time>2021-01-03T14:18:25Z</time>
      </trkpt>
      <trkpt lat="43.65739" lon="3.7779">
        <ele>87.3</ele>
        <time>2021-01-03T14:18:26Z</time>
      </trkpt>
      <trkpt lat="43.65742" lon="3.77793">
        <ele>87.6</ele>
        <time>2021-01-03T14:18:27Z</time>
      </trkpt>
      <trkpt lat="43.65745" lon="3.77795">
        <ele>88</ele>
        <time>2021-01-03T14:18:28Z</time>
      </trkpt>
      <trkpt lat="43.65747" lon="3.77797">
        <ele>88.2</ele>
        <time>2021-01-03T14:18:29Z</time>
      </trkpt>
      <trkpt lat="43.6575" lon="3.77799">
        <ele>88.5</ele>
        <time>2021-01-03T14:18:30Z</time>
      </trkpt>
      <trkpt lat="43.65753" lon="3.77802">
        <ele>95</ele>
        <time>2021-01-03T14:18:31Z</time>
      </trkpt>
      <trkpt lat="43.65755" lon="3.77804">
        <ele>89</ele>
        <time>2021-01-03T14:18:32Z</time>
      </trkpt>
      <trkpt lat="43.65757" lon="3.77807">
        <ele>89.1</ele>
        <time>2021-01-03T14:18:33Z</time>
      </trkpt>
      <trkpt lat="43.65759" lon="3.77809">
        <ele>89.3</ele>
        <time>2021-01-03T14:18:34Z</time>
      </trkpt>
      <trkpt lat="43.65761" lon="3.77812">
        <ele>89.4</ele>
        <time>2021-01-03T14:18:35Z</time>
      </trkpt>
      <trkpt lat="43.65762" lon="3.77814">
        <ele>89.4</ele>
        <time>2021-01-03T14:18:36Z</time>
      </trkpt>
      <trkpt lat="43.65764" lon="3.77815">
        <ele>89.7</ele>
        <time>2021-01-03T14:18:37Z</time>
      </trkpt>
      <trkpt lat="43.65766" lon="3.77817">
        <ele>89.8</ele>
        <time>2021-01-03T14:18:38Z</time>
      </trkpt>
      <trkpt lat="43.65768" lon="3.77819">
        <ele>90</ele>
        <time>2021-01-03T14:18:39Z</time>
      </trkpt>
      <trkpt lat="43.6577" lon="3.77822">
        <ele>90</ele>
        <time>2021-01-03T14:18:40Z</time>
      </trkpt>
      <trkpt lat="43.65772" lon="3.77824">
        <ele>96</ele>
        <time>2021-01-03T14:18:41Z</time>
      </trkpt>
      <trkpt lat="43.65774" lon="3.77825">
        <ele>90.3</ele>
        <time>2021-01-03T14:18:42Z</time>
      </trkpt>
      <trkpt lat="43.65776" lon="3.77826">
        <ele>90.5</ele>
        <time>2021-01-03T14:18:43Z</time>
      </trkpt>
      <trkpt lat="43.65778" lon="3.77827">
        <ele>90.7</ele>
        <time>2021-01-03T14:18:44Z</time>
      </trkpt>
      <trkpt lat="43.6578" lon="3.77828">
        <ele>90.9</ele>
        <time>2021-01-03T14:18:45Z</time>
      </trkpt>
      <trkpt lat="43.65783" lon="3.77829">
        <ele>91.2</ele>
        <time>2021-01-03T14:18:47Z</time>
      </trkpt>
      <trkpt lat="43.65785" lon="3.77829">
        <ele>91.4</ele>
        <time>2021-01-03T14:18:48Z</time>
      </trkpt>
      <trkpt lat="43.65787" lon="3.7783">
        <ele>91.6</ele>
        <time>2021-01-03T14:18:49Z</time>
      </trkpt>
      <trkpt lat="43.6579" lon="3.77832">
        <ele>97</ele>
        <time>2021-01-03T14:18:51Z</time>
      </trkpt>
      <trkpt lat="43.65792" lon="3.77833">
        <ele>92.1</ele>
        <time>2021-01-03T14:18:52Z</time>
      </trkpt>
      <trkpt lat="43.65795" lon="3.77834">
        <ele>92.5</ele>
        <time>2021-01-03T14:18:54Z</time>
      </trkpt>
      <trkpt lat="43.65798" lon="3.77834">
        <ele>92.9</ele>
        <time>2021-01-03T14:18:56Z</time>
      </trkpt>
      <trkpt lat="43.65801" lon="3.77833">
        <ele>93.4</ele>
        <time>2021-01-03T14:18:58Z</time>
      </trkpt>
      <trkpt lat="43.65803" lon="3.77832">
        <ele>93.7</ele>
        <time>2021-01-03T14:19:00Z</time>
      </trkpt>
      <trkpt lat="43.65805" lon="3.7783">
        <ele>94</ele>
        <time>2021-01-03T14:19:02Z</time>
      </trkpt>
      <trkpt lat="43.65807" lon="3.77827">
        <ele>94</ele>
        <time>2021-01-03T14:19:04Z</time>
      </trkpt>
      <trkpt lat="43.65809" lon="3.77825">
        <ele>93.8</ele>
        <time>2021-01-03T14:19:06Z</time>
      </trkpt>
      <trkpt lat="43.65811" lon="3.77825">
        <ele>93.6</ele>
        <time>2021-01-03T14:19:08Z</time>
      </trkpt>
      <trkpt lat="43.65814" lon="3.77824">
        <ele>93.2</ele>
        <time>2021-01-03T14:19:10Z</time>
      </trkpt>
      <trkpt lat="43.65815" lon="3.77825">
        <ele>93</ele>
        <time>2021-01-03T14:19:11Z</time>
      </trkpt>
      <trkpt lat="43.65817" lon="3.77826">
        <ele>101</ele>
        <time>2021-01-03T14:19:12Z</time>
      </trkpt>
      <trkpt lat="43.65819" lon="3.77829">
        <ele>92.3</ele>
        <time>2021-01-03T14:19:13Z</time>
      </trkpt>
      <trkpt lat="43.65821" lon="3.77832">
        <ele>91.9</ele>
        <time>2021-01-03T14:19:14Z</time>
      </trkpt>
      <trkpt lat="43.65823" lon="3.77835">
        <ele>91.5</ele>
        <time>2021-01-03T14:19:15Z</time>
      </trkpt>
      <trkpt lat="43.65826" lon="3.77839">
        <ele>91.3</ele>
        <time>2021-01-03T14:19:16Z</time>
      </trkpt>
      <trkpt lat="43.6583" lon="3.77843">
        <ele>91.1</ele>
        <time>2021-01-03T14:19:17Z</time>
      </trkpt>
      <trkpt lat="43.65834" lon="3.77847">
        <ele>90.9</ele>
        <time>2021-01-03T14:19:18Z</time>
      </trkpt>
      <trkpt lat="43.65838" lon="3.77852">
        <ele>90.6</ele>
        <time>2021-01-03T14:19:19Z</time>
      </trkpt>
      <trkpt lat="43.65844" lon="3.77858">
        <ele>89.9</ele>
        <time>2021-01-03T14:19:20Z</time>
      </trkpt>
      <trkpt lat="43.65851" lon="3.77863">
        <ele>100</ele>
        <time>2021-01-03T14:19:21Z</time>
      </trkpt>
      <trkpt lat="43.65857" lon="3.7787">
        <ele>88.2</ele>
        <time>2021-01-03T14:19:22Z</time>
      </trkpt>
      <trkpt lat="43.65863" lon="3.77877">
        <ele>87.4</ele>
        <time>2021-01-03T14:19:23Z</time>
      </trkpt>
      <trkpt lat="43.65868" lon="3.77885">
        <ele>87.2</ele>
        <time>2021-01-03T14:19:24Z</time>
      </trkpt>
      <trkpt lat="43.65871" lon="3.77894">
        <ele>86.8</ele>
        <time>2021-01-03T14:19:25Z</time>
      </trkpt>
      <trkpt lat="43.65874" lon="3.77904">
        <ele>86.3</ele>
        <time>2021-01-03T14:19:26Z</time>
      </trkpt>
      <trkpt lat="43.65876" lon="3.77912">
        <ele>86</ele>
        <time>2021-01-03T14:19:27Z</time>
      </trkpt>
      <trkpt lat="43.65879" lon="3.77919">
        <ele>85.6</ele>
        <time>2021-01-03T14:19:28Z</time>
      </trkpt>
      <trkpt lat="43.65881" lon="3.77925">
        <ele>85.1</ele>
        <time>2021-01-03T14:19:29Z</time>
      </trkpt>
      <trkpt lat="43.65883" lon="3.77928">
        <ele>84.7</ele>
        <time>2021-01-03T14:19:30Z</time>
      </trkpt>
      <trkpt lat="43.65884" lon="3.77932">
        <ele>97</ele>
        <time>2021-01-03T14:19:31Z</time>
      </trkpt>
      <trkpt lat="43.65884" lon="3.77938">
        <ele>84</ele>
        <time>2021-01-03T14:19:32Z</time>
      </trkpt>
      <trkpt lat="43.65883" lon="3.77943">
        <ele>83.7</ele>
        <time>2021-01-03T14:19:33Z</time>
      </trkpt>
      <trkpt lat="43.65881" lon="3.77947">
        <ele>83.8</ele>
        <time>2021-01-03T14:19:34Z</time>
      </trkpt>
      <trkpt lat="43.65879" lon="3.77951">
        <ele>83.8</ele>
        <time>2021-01-03T14:19:35Z</time>
      </trkpt>
      <trkpt lat="43.65875" lon="3.77955">
        <ele>84.1</ele>
        <time>2021-01-03T14:19:36Z</time>
      </trkpt>
      <trkpt lat="43.65872" lon="3.77959">
        <ele>84.3</ele>
        <time>2021-01-03T14:19:37Z</time>
      </trkpt>
      <trkpt lat="43.65868" lon="3.77963">
        <ele>84.6</ele>
        <time>2021-01-03T14:19:38Z</time>
      </trkpt>
      <trkpt lat="43.65864" lon="3.77967">
        <ele>84.9</ele>
        <time>2021-01-03T14:19:39Z</time>
      </trkpt>
      <trkpt lat="43.6586" lon="3.7797">
        <ele>85.2</ele>
        <time>2021-01-03T14:19:40Z</time>
      </trkpt>
      <trkpt lat="43.65857" lon="3.77974">
        <ele>94</ele>
        <time>2021-01-03T14:19:41Z</time>
      </trkpt>
      <trkpt lat="43.65853" lon="3.77978">
        <ele>86.1</ele>
        <time>2021-01-03T14:19:42Z</time>
      </trkpt>
      <trkpt lat="43.65849" lon="3.77982">
        <ele>86.5</ele>
        <time>2021-01-03T14:19:43Z</time>
      </trkpt>
      <trkpt lat="43.65846" lon="3.77985">
        <ele>86.6</ele>
        <time>2021-01-03T14:19:44Z</time>
      </trkpt>
      <trkpt lat="43.65843" lon="3.77989">
        <ele>86.6</ele>
        <time>2021-01-03T14:19:45Z</time>
      </trkpt>
      <trkpt lat="43.65841" lon="3.77993">
        <ele>86.5</ele>
        <time>2021-01-03T14:19:46Z</time>
      </trkpt>
      <trkpt lat="43.65839" lon="3.77997">
        <ele>86.2</ele>
        <time>2021-01-03T14:19:47Z</time>
      </trkpt>
      <trkpt lat="43.65837" lon="3.78002">
        <ele>85.9</ele>
        <time>2021-01-03T14:19:48Z</time>
      </trkpt>
      <trkpt lat="43.65834" lon="3.78007">
        <ele>85.7</ele>
        <time>2021-01-03T14:19:49Z</time>
      </trkpt>
      <trkpt lat="43.65832" lon="3.78011">
        <ele>85.8</ele>
        <time>2021-01-03T14:19:50Z</time>
      </trkpt>
      <trkpt lat="43.65829" lon="3.78015">
        <ele>94</ele>
        <time>2021-01-03T14:19:51Z</time>
      </trkpt>
      <trkpt lat="43.65827" lon="3.78019">
        <ele>86.2</ele>
        <time>2021-01-03T14:19:52Z</time>
      </trkpt>
      <trkpt lat="43.65826" lon="3.78025">
        <ele>86</ele>
        <time>2021-01-03T14:19:53Z</time>
      </trkpt>
      <trkpt lat="43.65824" lon="3.78029">
        <ele>86</ele>
        <time>2021-01-03T14:19:54Z</time>
      </trkpt>
      <trkpt lat="43.65823" lon="3.78034">
        <ele>85.9</ele>
        <time>2021-01-03T14:19:55Z</time>
      </trkpt>
      <trkpt lat="43.65821" lon="3.7804">
        <ele>85.8</ele>
        <time>2021-01-03T14:19:56Z</time>
      </trkpt>
      <trkpt lat="43.65819" lon="3.78046">
        <ele>85.5</ele>
        <time>2021-01-03T14:19:57Z</time>
      </trkpt>
      <trkpt lat="43.65816" lon="3.78051">
        <ele>85.1</ele>
        <time>2021-01-03T14:19:58Z</time>
      </trkpt>
      <trkpt lat="43.65812" lon="3.78056">
        <ele>84.4</ele>
        <time>2021-01-03T14:19:59Z</time>
      </trkpt>
      <trkpt lat="43.65809" lon="3.78061">
        <ele>84</ele>
        <time>2021-01-03T14:20:00Z</time>
      </trkpt>
      <trkpt lat="43.65807" lon="3.78066">
        <ele>92</ele>
        <time>2021-01-03T14:20:01Z</time>
      </trkpt>
      <trkpt lat="43.65804" lon="3.7807">
        <ele>83.9</ele>
        <time>2021-01-03T14:20:02Z</time>
      </trkpt>
      <trkpt lat="43.65801" lon="3.78074">
        <ele>84.5</ele>
        <time>2021-01-03T14:20:03Z</time>
      </trkpt>
      <trkpt lat="43.65798" lon="3.78078">
        <ele>85.1</ele>
        <time>2021-01-03T14:20:04Z</time>
      </trkpt>
      <trkpt lat="43.65795" lon="3.78083">
        <ele>85.7</ele>
        <time>2021-01-03T14:20:05Z</time>
      </trkpt>
      <trkpt lat="43.65792" lon="3.78088">
        <ele>85.9</ele>
        <time>2021-01-03T14:20:06Z</time>
      </trkpt>
      <trkpt lat="43.65789" lon="3.78093">
        <ele>85.9</ele>
        <time>2021-01-03T14:20:07Z</time>
      </trkpt>
      <trkpt lat="43.65787" lon="3.78098">
        <ele>85.6</ele>
        <time>2021-01-03T14:20:08Z</time>
      </trkpt>
      <trkpt lat="43.65784" lon="3.78103">
        <ele>85.1</ele>
        <time>2021-01-03T14:20:09Z</time>
      </trkpt>
      <trkpt lat="43.65782" lon="3.78108">
        <ele>84.4</ele>
        <time>2021-01-03T14:20:10Z</time>
      </trkpt>
      <trkpt lat="43.65779" lon="3.78112">
        <ele>91</ele>
        <time>2021-01-03T14:20:11Z</time>
      </trkpt>
      <trkpt lat="43.65777" lon="3.78116">
        <ele>83.8</ele>
        <time>2021-01-03T14:20:12Z</time>
      </trkpt>
      <trkpt lat="43.65774" lon="3.78119">
        <ele>84.1</ele>
        <time>2021-01-03T14:20:13Z</time>
      </trkpt>
      <trkpt lat="43.65771" lon="3.78123">
        <ele>84.3</ele>
        <time>2021-01-03T14:20:14Z</time>
      </trkpt>
      <trkpt lat="43.65769" lon="3.78127">
        <ele>84.2</ele>
        <time>2021-01-03T14:20:15Z</time>
      </trkpt>
      <trkpt lat="43.65765" lon="3.78132">
        <ele>84.2</ele>
        <time>2021-01-03T14:20:16Z</time>
      </trkpt>
      <trkpt lat="43.65762" lon="3.78138">
        <ele>83.8</ele>
        <time>2021-01-03T14:20:17Z</time>
      </trkpt>
      <trkpt lat="43.65759" lon="3.78144">
        <ele>83.5</ele>
        <time>2021-01-03T14:20:18Z</time>
      </trkpt>
      <trkpt lat="43.65756" lon="3.78149">
        <ele>83.1</ele>
        <time>2021-01-03T14:20:19Z</time>
      </trkpt>
      <trkpt lat="43.65755" lon="3.78153">
        <ele>82.7</ele>
        <time>2021-01-03T14:20:20Z</time>
      </trkpt>
      <trkpt lat="43.65755" lon="3.78156">
        <ele>90</ele>
        <time>2021-01-03T14:20:21Z</time>
      </trkpt>
      <trkpt lat="43.65755" lon="3.78159">
        <ele>82</ele>
        <time>2021-01-03T14:20:22Z</time>
      </trkpt>
      <trkpt lat="43.65754" lon="3.78163">
        <ele>81.5</ele>
        <time>2021-01-03T14:20:23Z</time>
      </trkpt>
      <trkpt lat="43.65753" lon="3.78166">
        <ele>81.1</ele>
        <time>2021-01-03T14:20:24Z</time>
      </trkpt>
      <trkpt lat="43.65751" lon="3.78167">
        <ele>81</ele>
        <time>2021-01-03T14:20:25Z</time>
      </trkpt>
      <trkpt lat="43.65749" lon="3.78168">
        <ele>81</ele>
        <time>2021-01-03T14:20:26Z</time>
      </trkpt>
      <trkpt lat="43.65747" lon="3.78169">
        <ele>81</ele>
        <time>2021-01-03T14:20:27Z</time>
      </trkpt>
      <trkpt lat="43.65745" lon="3.7817">
        <ele>81</ele>
        <time>2021-01-03T14:20:28Z</time>
      </trkpt>
      <trkpt lat="43.65743" lon="3.78172">
        <ele>81</ele>
        <time>2021-01-03T14:20:29Z</time>
      </trkpt>
      <trkpt lat="43.6574" lon="3.78174">
        <ele>81</ele>
        <time>2021-01-03T14:20:30Z</time>
      </trkpt>
      <trkpt lat="43.65737" lon="3.78176">
        <ele>89</ele>
        <time>2021-01-03T14:20:31Z</time>
      </trkpt>
      <trkpt lat="43.65734" lon="3.78178">
        <ele>80.9</ele>
        <time>2021-01-03T14:20:32Z</time>
      </trkpt>
      <trkpt lat="43.65731" lon="3.78181">
        <ele>80.8</ele>
        <time>2021-01-03T14:20:33Z</time>
      </trkpt>
      <trkpt lat="43.65727" lon="3.78183">
        <ele>80.8</ele>
        <time>2021-01-03T14:20:34Z</time>
      </trkpt>
      <trkpt lat="43.65724" lon="3.78186">
        <ele>80.6</ele>
        <time>2021-01-03T14:20:35Z</time>
      </trkpt>
      <trkpt lat="43.6572" lon="3.78188">
        <ele>80.6</ele>
        <time>2021-01-03T14:20:36Z</time>
      </trkpt>
      <trkpt lat="43.65716" lon="3.78191">
        <ele>80.7</ele>
        <time>2021-01-03T14:20:37Z</time>
      </trkpt>
      <trkpt lat="43.65713" lon="3.78193">
        <ele>80.8</ele>
        <time>2021-01-03T14:20:38Z</time>
      </trkpt>
      <trkpt lat="43.65709" lon="3.78196">
        <ele>80.9</ele>
        <time>2021-01-03T14:20:39Z</time>
      </trkpt>
      <trkpt lat="43.65706" lon="3.78199">
        <ele>80.9</ele>
        <time>2021-01-03T14:20:40Z</time>
      </trkpt>
      <trkpt lat="43.65703" lon="3.78203">
        <ele>88</ele>
        <time>2021-01-03T14:20:41Z</time>
      </trkpt>
      <trkpt lat="43.65699" lon="3.78206">
        <ele>80.9</ele>
        <time>2021-01-03T14:20:42Z</time>
      </trkpt>
      <trkpt lat="43.65696" lon="3.7821">
        <ele>80.8</ele>
        <time>2021-01-03T14:20:43Z</time>
      </trkpt>
      <trkpt lat="43.65694" lon="3.78214">
        <ele>80.7</ele>
        <time>2021-01-03T14:20:44Z</time>
      </trkpt>
      <trkpt lat="43.65691" lon="3.78218">
        <ele>81</ele>
        <time>2021-01-03T14:20:45Z</time>
      </trkpt>
      <trkpt lat="43.65689" lon="3.78222">
        <ele>81.2</ele>
        <time>2021-01-03T14:20:46Z</time>
      </trkpt>
      <trkpt lat="43.65686" lon="3.78226">
        <ele>81.5</ele>
        <time>2021-01-03T14:20:47Z</time>
      </trkpt>
      <trkpt lat="43.65684" lon="3.7823">
        <ele>81.5</ele>
        <time>2021-01-03T14:20:48Z</time>
      </trkpt>
      <trkpt lat="43.65682" lon="3.78234">
        <ele>81.5</ele>
        <time>2021-01-03T14:20:49Z</time>
      </trkpt>
      <trkpt lat="43.65679" lon="3.78239">
        <ele>81.5</ele>
        <time>2021-01-03T14:20:50Z</time>
      </trkpt>
      <trkpt lat="43.65677" lon="3.78243">
        <ele>87</ele>
        <time>2021-01-03T14:20:51Z</time>
      </trkpt>
      <trkpt lat="43.65675" lon="3.78248">
        <ele>81</ele>
        <time>2021-01-03T14:20:52Z</time>
      </trkpt>
      <trkpt lat="43.65673" lon="3.78253">
        <ele>80.8</ele>
        <time>2021-01-03T14:20:53Z</time>
      </trkpt>
      <trkpt lat="43.65671" lon="3.78257">
        <ele>80.7</ele>
        <time>2021-01-03T14:20:54Z</time>
      </trkpt>
      <trkpt lat="43.65669" lon="3.78262">
        <ele>80.5</ele>
        <time>2021-01-03T14:20:55Z</time>
      </trkpt>
      <trkpt lat="43.65666" lon="3.78266">
        <ele>80.4</ele>
        <time>2021-01-03T14:20:56Z</time>
      </trkpt>
      <trkpt lat="43.65664" lon="3.7827">
        <ele>80.2</ele>
        <time>2021-01-03T14:20:57Z</time>
      </trkpt>
      <trkpt lat="43.65662" lon="3.78274">
        <ele>79.9</ele>
        <time>2021-01-03T14:20:58Z</time>
      </trkpt>
      <trkpt lat="43.6566" lon="3.78278">
        <ele>79.7</ele>
        <time>2021-01-03T14:20:59Z</time>
      </trkpt>
      <trkpt lat="43.65658" lon="3.78281">
        <ele>79.9</ele>
        <time>2021-01-03T14:21:00Z</time>
      </trkpt>
      <trkpt lat="43.65653" lon="3.78288">
        <ele>86</ele>
        <time>2021-01-03T14:21:01Z</time>
      </trkpt>
      <trkpt lat="43.6565" lon="3.78291">
        <ele>80.4</ele>
        <time>2021-01-03T14:21:03Z</time>
      </trkpt>
      <trkpt lat="43.65647" lon="3.78294">
        <ele>80.5</ele>
        <time>2021-01-03T14:21:04Z</time>
      </trkpt>
      <trkpt lat="43.65644" lon="3.78297">
        <ele>80.4</ele>
        <time>2021-01-03T14:21:05Z</time>
      </trkpt>
      <trkpt lat="43.65641" lon="3.78301">
        <ele>80.3</ele>
        <time>2021-01-03T14:21:06Z</time>
      </trkpt>
      <trkpt lat="43.65638" lon="3.78304">
        <ele>80.1</ele>
        <time>2021-01-03T14:21:07Z</time>
      </trkpt>
      <trkpt lat="43.65635" lon="3.78305">
        <ele>80.2</ele>
        <time>2021-01-03T14:21:08Z</time>
      </trkpt>
      <trkpt lat="43.65632" lon="3.78306">
        <ele>80.2</ele>
        <time>2021-01-03T14:21:09Z</time>
      </trkpt>
      <trkpt lat="43.6563" lon="3.78305">
        <ele>80.4</ele>
        <time>2021-01-03T14:21:10Z</time>
      </trkpt>
      <trkpt lat="43.65626" lon="3.78306">
        <ele>80.4</ele>
        <time>2021-01-03T14:21:13Z</time>
      </trkpt>
      <trkpt lat="43.65624" lon="3.78308">
        <ele>80.4</ele>
        <time>2021-01-03T14:21:14Z</time>
      </trkpt>
      <trkpt lat="43.65621" lon="3.78309">
        <ele>80.4</ele>
        <time>2021-01-03T14:21:15Z</time>
      </trkpt>
      <trkpt lat="43.65619" lon="3.78311">
        <ele>80.2</ele>
        <time>2021-01-03T14:21:16Z</time>
      </trkpt>
      <trkpt lat="43.65616" lon="3.78313">
        <ele>80</ele>
        <time>2021-01-03T14:21:17Z</time>
      </trkpt>
      <trkpt lat="43.65615" lon="3.78315">
        <ele>79.7</ele>
        <time>2021-01-03T14:21:18Z</time>
      </trkpt>
      <trkpt lat="43.65612" lon="3.78316">
        <ele>79.5</ele>
        <time>2021-01-03T14:21:19Z</time>
      </trkpt>
      <trkpt lat="43.6561" lon="3.78317">
        <ele>79.2</ele>
        <time>2021-01-03T14:21:20Z</time>
      </trkpt>
      <trkpt lat="43.65608" lon="3.78318">
        <ele>83</ele>
        <time>2021-01-03T14:21:21Z</time>
      </trkpt>
      <trkpt lat="43.65606" lon="3.78319">
        <ele>78.4</ele>
        <time>2021-01-03T14:21:23Z</time>
      </trkpt>
      <trkpt lat="43.65604" lon="3.78321">
        <ele>77.9</ele>
        <time>2021-01-03T14:21:25Z</time>
      </trkpt>
      <trkpt lat="43.65604" lon="3.78324">
        <ele>77.6</ele>
        <time>2021-01-03T14:21:26Z</time>
      </trkpt>
      <trkpt lat="43.65604" lon="3.78329">
        <ele>77</ele>
        <time>2021-01-03T14:21:27Z</time>
      </trkpt>
      <trkpt lat="43.65602" lon="3.78334">
        <ele>76.4</ele>
        <time>2021-01-03T14:21:28Z</time>
      </trkpt>
      <trkpt lat="43.656" lon="3.7834">
        <ele>76.7</ele>
        <time>2021-01-03T14:21:29Z</time>
      </trkpt>
      <trkpt lat="43.65598" lon="3.78341">
        <ele>76.6</ele>
        <time>2021-01-03T14:21:30Z</time>
      </trkpt>
      <trkpt lat="43.65596" lon="3.78341">
        <ele>82</ele>
        <time>2021-01-03T14:21:31Z</time>
      </trkpt>
      <trkpt lat="43.65594" lon="3.78342">
        <ele>76.3</ele>
        <time>2021-01-03T14:21:32Z</time>
      </trkpt>
      <trkpt lat="43.65592" lon="3.78343">
        <ele>76.2</ele>
        <time>2021-01-03T14:21:33Z</time>
      </trkpt>
      <trkpt lat="43.6559" lon="3.78344">
        <ele>76</ele>
        <time>2021-01-03T14:21:34Z</time>
      </trkpt>
      <trkpt lat="43.65588" lon="3.78345">
        <ele>75.9</ele>
        <time>2021-01-03T14:21:35Z</time>
      </trkpt>
      <trkpt lat="43.65584" lon="3.78346">
        <ele>75.5</ele>
        <time>2021-01-03T14:21:36Z</time>
      </trkpt>
      <trkpt lat="43.6558" lon="3.78347">
        <ele>75.3</ele>
        <time>2021-01-03T14:21:37Z</time>
      </trkpt>
      <trkpt lat="43.65577" lon="3.78347">
        <ele>75</ele>
        <time>2021-01-03T14:21:38Z</time>
      </trkpt>
      <trkpt lat="43.65573" lon="3.78348">
        <ele>74.8</ele>
        <time>2021-01-03T14:21:39Z</time>
      </trkpt>
      <trkpt lat="43.65569" lon="3.78349">
        <ele>74.5</ele>
        <time>2021-01-03T14:21:40Z</time>
      </trkpt>
      <trkpt lat="43.65565" lon="3.7835">
        <ele>81</ele>
        <time>2021-01-03T14:21:41Z</time>
      </trkpt>
      <trkpt lat="43.65561" lon="3.78351">
        <ele>74</ele>
        <time>2021-01-03T14:21:42Z</time>
      </trkpt>
      <trkpt lat="43.65557" lon="3.78351">
        <ele>73.7</ele>
        <time>2021-01-03T14:21:43Z</time>
      </trkpt>
      <trkpt lat="43.65553" lon="3.78351">
        <ele>73.5</ele>
        <time>2021-01-03T14:21:44Z</time>
      </trkpt>
      <trkpt lat="43.65549" lon="3.78351">
        <ele>73.2</ele>
        <time>2021-01-03T14:21:45Z</time>
      </trkpt>
      <trkpt lat="43.65546" lon="3.78351">
        <ele>73.1</ele>
        <time>2021-01-03T14:21:46Z</time>
      </trkpt>
      <trkpt lat="43.65543" lon="3.7835">
        <ele>72.9</ele>
        <time>2021-01-03T14:21:47Z</time>
      </trkpt>
      <trkpt lat="43.65539" lon="3.78349">
        <ele>72.6</ele>
        <time>2021-01-03T14:21:48Z</time>
      </trkpt>
      <trkpt lat="43.65536" lon="3.78349">
        <ele>72.5</ele>
        <time>2021-01-03T14:21:49Z</time>
      </trkpt>
      <trkpt lat="43.65532" lon="3.7835">
        <ele>72.2</ele>
        <time>2021-01-03T14:21:50Z</time>
      </trkpt>
      <trkpt lat="43.65528" lon="3.7835">
        <ele>79</ele>
        <time>2021-01-03T14:21:51Z</time>
      </trkpt>
      <trkpt lat="43.65524" lon="3.78351">
        <ele>71.7</ele>
        <time>2021-01-03T14:21:52Z</time>
      </trkpt>
      <trkpt lat="43.65519" lon="3.78354">
        <ele>71.3</ele>
        <time>2021-01-03T14:21:53Z</time>
      </trkpt>
      <trkpt lat="43.65515" lon="3.78356">
        <ele>71</ele>
        <time>2021-01-03T14:21:54Z</time>
      </trkpt>
      <trkpt lat="43.6551" lon="3.7836">
        <ele>70.7</ele>
        <time>2021-01-03T14:21:55Z</time>
      </trkpt>
      <trkpt lat="43.65506" lon="3.78364">
        <ele>70.6</ele>
        <time>2021-01-03T14:21:56Z</time>
      </trkpt>
      <trkpt lat="43.65501" lon="3.7837">
        <ele>70.4</ele>
        <time>2021-01-03T14:21:57Z</time>
      </trkpt>
      <trkpt lat="43.65497" lon="3.78376">
        <ele>70.2</ele>
        <time>2021-01-03T14:21:58Z</time>
      </trkpt>
      <trkpt lat="43.65493" lon="3.78382">
        <ele>69.8</ele>
        <time>2021-01-03T14:21:59Z</time>
      </trkpt>
      <trkpt lat="43.65488" lon="3.78389">
        <ele>69.3</ele>
        <time>2021-01-03T14:22:00Z</time>
      </trkpt>
      <trkpt lat="43.65484" lon="3.78397">
        <ele>76</ele>
        <time>2021-01-03T14:22:01Z</time>
      </trkpt>
      <trkpt lat="43.65479" lon="3.78405">
        <ele>68.1</ele>
        <time>2021-01-03T14:22:02Z</time>
      </trkpt>
      <trkpt lat="43.65475" lon="3.78413">
        <ele>67.5</ele>
        <time>2021-01-03T14:22:03Z</time>
      </trkpt>
      <trkpt lat="43.6547" lon="3.78421">
        <ele>66.8</ele>
        <time>2021-01-03T14:22:04Z</time>
      </trkpt>
      <trkpt lat="43.65465" lon="3.7843">
        <ele>66.5</ele>
        <time>2021-01-03T14:22:05Z</time>
      </trkpt>
      <trkpt lat="43.6546" lon="3.78438">
        <ele>66.1</ele>
        <time>2021-01-03T14:22:06Z</time>
      </trkpt>
      <trkpt lat="43.65455" lon="3.78446">
        <ele>65.7</ele>
        <time>2021-01-03T14:22:07Z</time>
      </trkpt>
      <trkpt lat="43.65451" lon="3.78454">
        <ele>65.2</ele>
        <time>2021-01-03T14:22:08Z</time>
      </trkpt>
      <trkpt lat="43.65447" lon="3.78463">
        <ele>64.6</ele>
        <time>2021-01-03T14:22:09Z</time>
      </trkpt>
      <trkpt lat="43.65444" lon="3.78472">
        <ele>64</ele>
        <time>2021-01-03T14:22:10Z</time>
      </trkpt>
      <trkpt lat="43.65441" lon="3.78481">
        <ele>74</ele>
        <time>2021-01-03T14:22:11Z</time>
      </trkpt>
      <trkpt lat="43.65437" lon="3.7849">
        <ele>64</ele>
        <time>2021-01-03T14:22:12Z</time>
      </trkpt>
      <trkpt lat="43.65434" lon="3.78498">
        <ele>63.9</ele>
        <time>2021-01-03T14:22:13Z</time>
      </trkpt>
      <trkpt lat="43.65431" lon="3.78506">
        <ele>63.5</ele>
        <time>2021-01-03T14:22:14Z</time>
      </trkpt>
      <trkpt lat="43.65429" lon="3.78514">
        <ele>63.3</ele>
        <time>2021-01-03T14:22:15Z</time>
      </trkpt>
      <trkpt lat="43.65427" lon="3.78522">
        <ele>63.1</ele>
        <time>2021-01-03T14:22:16Z</time>
      </trkpt>
      <trkpt lat="43.65426" lon="3.7853">
        <ele>62.9</ele>
        <time>2021-01-03T14:22:17Z</time>
      </trkpt>
      <trkpt lat="43.65427" lon="3.78538">
        <ele>62.7</ele>
        <time>2021-01-03T14:22:18Z</time>
      </trkpt>
      <trkpt lat="43.65428" lon="3.78546">
        <ele>62.6</ele>
        <time>2021-01-03T14:22:19Z</time>
      </trkpt>
      <trkpt lat="43.65429" lon="3.78553">
        <ele>62.4</ele>
        <time>2021-01-03T14:22:20Z</time>
      </trkpt>
      <trkpt lat="43.65431" lon="3.7856">
        <ele>62.4</ele>
        <time>2021-01-03T14:22:21Z</time>
      </trkpt>
      <trkpt lat="43.65433" lon="3.78567">
        <ele>72</ele>
        <time>2021-01-03T14:22:22Z</time>
      </trkpt>
      <trkpt lat="43.65434" lon="3.78574">
        <ele>62</ele>
        <time>2021-01-03T14:22:23Z</time>
      </trkpt>
      <trkpt lat="43.65435" lon="3.78582">
        <ele>61.7</ele>
        <time>2021-01-03T14:22:24Z</time>
      </trkpt>
      <trkpt lat="43.65436" lon="3.7859">
        <ele>61.5</ele>
        <time>2021-01-03T14:22:25Z</time>
      </trkpt>
      <trkpt lat="43.65436" lon="3.78599">
        <ele>61.1</ele>
        <time>2021-01-03T14:22:26Z</time>
      </trkpt>
      <trkpt lat="43.65435" lon="3.78608">
        <ele>60.8</ele>
        <time>2021-01-03T14:22:27Z</time>
      </trkpt>
      <trkpt lat="43.65433" lon="3.78616">
        <ele>60.7</ele>
        <time>2021-01-03T14:22:28Z</time>
      </trkpt>
      <trkpt lat="43.65429" lon="3.78623">
        <ele>60.6</ele>
        <time>2021-01-03T14:22:29Z</time>
      </trkpt>
      <trkpt lat="43.65424" lon="3.78627">
        <ele>60.4</ele>
        <time>2021-01-03T14:22:30Z</time>
      </trkpt>
      <trkpt lat="43.65418" lon="3.7863">
        <ele>69</ele>
        <time>2021-01-03T14:22:31Z</time>
      </trkpt>
      <trkpt lat="43.65413" lon="3.78632">
        <ele>60.2</ele>
        <time>2021-01-03T14:22:32Z</time>
      </trkpt>
      <trkpt lat="43.65408" lon="3.78635">
        <ele>60.4</ele>
        <time>2021-01-03T14:22:33Z</time>
      </trkpt>
      <trkpt lat="43.65403" lon="3.78637">
        <ele>60.5</ele>
        <time>2021-01-03T14:22:34Z</time>
      </trkpt>
      <trkpt lat="43.65398" lon="3.78638">
        <ele>60.7</ele>
        <time>2021-01-03T14:22:35Z</time>
      </trkpt>
      <trkpt lat="43.65394" lon="3.78639">
        <ele>60.8</ele>
        <time>2021-01-03T14:22:36Z</time>
      </trkpt>
      <trkpt lat="43.65389" lon="3.7864">
        <ele>61</ele>
        <time>2021-01-03T14:22:37Z</time>
      </trkpt>
      <trkpt lat="43.65385" lon="3.78642">
        <ele>61.4</ele>
        <time>2021-01-03T14:22:38Z</time>
      </trkpt>
      <trkpt lat="43.65381" lon="3.78644">
        <ele>61.9</ele>
        <time>2021-01-03T14:22:39Z</time>
      </trkpt>
      <trkpt lat="43.65377" lon="3.78646">
        <ele>62.3</ele>
        <time>2021-01-03T14:22:40Z</time>
      </trkpt>
      <trkpt lat="43.65372" lon="3.78648">
        <ele>68</ele>
        <time>2021-01-03T14:22:41Z</time>
      </trkpt>
      <trkpt lat="43.65368" lon="3.7865">
        <ele>63.3</ele>
        <time>2021-01-03T14:22:42Z</time>
      </trkpt>
      <trkpt lat="43.65364" lon="3.78653">
        <ele>63.6</ele>
        <time>2021-01-03T14:22:43Z</time>
      </trkpt>
      <trkpt lat="43.6536" lon="3.78655">
        <ele>63.9</ele>
        <time>2021-01-03T14:22:44Z</time>
      </trkpt>
      <trkpt lat="43.65355" lon="3.78657">
        <ele>64.1</ele>
        <time>2021-01-03T14:22:45Z</time>
      </trkpt>
      <trkpt lat="43.65351" lon="3.78661">
        <ele>64.1</ele>
        <time>2021-01-03T14:22:46Z</time>
      </trkpt>
      <trkpt lat="43.65347" lon="3.78664">
        <ele>64.2</ele>
        <time>2021-01-03T14:22:47Z</time>
      </trkpt>
      <trkpt lat="43.65343" lon="3.78667">
        <ele>64.3</ele>
        <time>2021-01-03T14:22:48Z</time>
      </trkpt>
      <trkpt lat="43.65339" lon="3.78671">
        <ele>64.5</ele>
        <time>2021-01-03T14:22:49Z</time>
      </trkpt>
      <trkpt lat="43.65334" lon="3.78675">
        <ele>64.9</ele>
        <time>2021-01-03T14:22:50Z</time>
      </trkpt>
      <trkpt lat="43.6533" lon="3.78678">
        <ele>69</ele>
        <time>2021-01-03T14:22:51Z</time>
      </trkpt>
      <trkpt lat="43.65326" lon="3.78682">
        <ele>65.1</ele>
        <time>2021-01-03T14:22:52Z</time>
      </trkpt>
      <trkpt lat="43.65322" lon="3.78686">
        <ele>65.1</ele>
        <time>2021-01-03T14:22:53Z</time>
      </trkpt>
      <trkpt lat="43.65317" lon="3.78689">
        <ele>65.1</ele>
        <time>2021-01-03T14:22:54Z</time>
      </trkpt>
      <trkpt lat="43.65313" lon="3.78693">
        <ele>65</ele>
        <time>2021-01-03T14:22:55Z</time>
      </trkpt>
      <trkpt lat="43.65309" lon="3.78698">
        <ele>64.9</ele>
        <time>2021-01-03T14:22:56Z</time>
      </trkpt>
      <trkpt lat="43.65305" lon="3.78701">
        <ele>64.8</ele>
        <time>2021-01-03T14:22:57Z</time>
      </trkpt>
      <trkpt lat="43.65301" lon="3.78704">
        <ele>64.7</ele>
        <time>2021-01-03T14:22:58Z</time>
      </trkpt>
      <trkpt lat="43.65296" lon="3.78706">
        <ele>64.6</ele>
        <time>2021-01-03T14:22:59Z</time>
      </trkpt>
      <trkpt lat="43.65292" lon="3.78708">
        <ele>64.5</ele>
        <time>2021-01-03T14:23:00Z</time>
      </trkpt>
      <trkpt lat="43.65288" lon="3.7871">
        <ele>69</ele>
        <time>2021-01-03T14:23:01Z</time>
      </trkpt>
      <trkpt lat="43.65284" lon="3.78711">
        <ele>64.4</ele>
        <time>2021-01-03T14:23:02Z</time>
      </trkpt>
      <trkpt lat="43.6528" lon="3.78712">
        <ele>64.4</ele>
        <time>2021-01-03T14:23:03Z</time>
      </trkpt>
      <trkpt lat="43.65276" lon="3.78713">
        <ele>64.4</ele>
        <time>2021-01-03T14:23:04Z</time>
      </trkpt>
      <trkpt lat="43.65272" lon="3.78715">
        <ele>64.3</ele>
        <time>2021-01-03T14:23:05Z</time>
      </trkpt>
      <trkpt lat="43.65269" lon="3.78717">
        <ele>64.2</ele>
        <time>2021-01-03T14:23:06Z</time>
      </trkpt>
      <trkpt lat="43.65265" lon="3.78719">
        <ele>64.2</ele>
        <time>2021-01-03T14:23:07Z</time>
      </trkpt>
      <trkpt lat="43.65261" lon="3.78722">
        <ele>64</ele>
        <time>2021-01-03T14:23:08Z</time>
      </trkpt>
      <trkpt lat="43.65258" lon="3.78724">
        <ele>63.9</ele>
        <time>2021-01-03T14:23:09Z</time>
      </trkpt>
      <trkpt lat="43.65254" lon="3.78725">
        <ele>63.9</ele>
        <time>2021-01-03T14:23:10Z</time>
      </trkpt>
      <trkpt lat="43.6525" lon="3.78726">
        <ele>69</ele>
        <time>2021-01-03T14:23:11Z</time>
      </trkpt>
      <trkpt lat="43.65246" lon="3.78728">
        <ele>63.8</ele>
        <time>2021-01-03T14:23:12Z</time>
      </trkpt>
      <trkpt lat="43.65241" lon="3.7873">
        <ele>63.6</ele>
        <time>2021-01-03T14:23:13Z</time>
      </trkpt>
      <trkpt lat="43.65237" lon="3.78732">
        <ele>63.5</ele>
        <time>2021-01-03T14:23:14Z</time>
      </trkpt>
      <trkpt lat="43.65233" lon="3.78736">
        <ele>63.2</ele>
        <time>2021-01-03T14:23:15Z</time>
      </trkpt>
      <trkpt lat="43.65229" lon="3.7874">
        <ele>62.9</ele>
        <time>2021-01-03T14:23:16Z</time>
      </trkpt>
      <trkpt lat="43.65225" lon="3.78744">
        <ele>62.5</ele>
        <time>2021-01-03T14:23:17Z</time>
      </trkpt>
      <trkpt lat="43.65221" lon="3.78749">
        <ele>62.2</ele>
        <time>2021-01-03T14:23:18Z</time>
      </trkpt>
      <trkpt lat="43.65217" lon="3.78754">
        <ele>62</ele>
        <time>2021-01-03T14:23:19Z</time>
      </trkpt>
      <trkpt lat="43.65215" lon="3.78759">
        <ele>61.6</ele>
        <time>2021-01-03T14:23:20Z</time>
      </trkpt>
      <trkpt lat="43.65213" lon="3.78762">
        <ele>68</ele>
        <time>2021-01-03T14:23:21Z</time>
      </trkpt>
      <trkpt lat="43.6521" lon="3.78766">
        <ele>61.4</ele>
        <time>2021-01-03T14:23:22Z</time>
      </trkpt>
      <trkpt lat="43.65208" lon="3.78769">
        <ele>61.3</ele>
        <time>2021-01-03T14:23:23Z</time>
      </trkpt>
      <trkpt lat="43.65205" lon="3.78772">
        <ele>61.4</ele>
        <time>2021-01-03T14:23:24Z</time>
      </trkpt>
      <trkpt lat="43.65203" lon="3.78775">
        <ele>61.3</ele>
        <time>2021-01-03T14:23:25Z</time>
      </trkpt>
      <trkpt lat="43.65202" lon="3.78779">
        <ele>61.2</ele>
        <time>2021-01-03T14:23:26Z</time>
      </trkpt>
      <trkpt lat="43.652" lon="3.78782">
        <ele>61.4</ele>
        <time>2021-01-03T14:23:27Z</time>
      </trkpt>
      <trkpt lat="43.65198" lon="3.78784">
        <ele>61.6</ele>
        <time>2021-01-03T14:23:28Z</time>
      </trkpt>
      <trkpt lat="43.65195" lon="3.78786">
        <ele>61.9</ele>
        <time>2021-01-03T14:23:29Z</time>
      </trkpt>
      <trkpt lat="43.65193" lon="3.78788">
        <ele>62.1</ele>
        <time>2021-01-03T14:23:30Z</time>
      </trkpt>
      <trkpt lat="43.6519" lon="3.7879">
        <ele>68</ele>
        <time>2021-01-03T14:23:31Z</time>
      </trkpt>
      <trkpt lat="43.65187" lon="3.78792">
        <ele>62.3</ele>
        <time>2021-01-03T14:23:32Z</time>
      </trkpt>
      <trkpt lat="43.65185" lon="3.78794">
        <ele>62.3</ele>
        <time>2021-01-03T14:23:33Z</time>
      </trkpt>
      <trkpt lat="43.65182" lon="3.78796">
        <ele>62.3</ele>
        <time>2021-01-03T14:23:34Z</time>
      </trkpt>
      <trkpt lat="43.65179" lon="3.78798">
        <ele>62.3</ele>
        <time>2021-01-03T14:23:35Z</time>
      </trkpt>
      <trkpt lat="43.65177" lon="3.78799">
        <ele>62.3</ele>
        <time>2021-01-03T14:23:36Z</time>
      </trkpt>
      <trkpt lat="43.65174" lon="3.78801">
        <ele>62.2</ele>
        <time>2021-01-03T14:23:37Z</time>
      </trkpt>
      <trkpt lat="43.65172" lon="3.78802">
        <ele>62.2</ele>
        <time>2021-01-03T14:23:38Z</time>
      </trkpt>
      <trkpt lat="43.65169" lon="3.78803">
        <ele>62.2</ele>
        <time>2021-01-03T14:23:39Z</time>
      </trkpt>
      <trkpt lat="43.65166" lon="3.78804">
        <ele>62.1</ele>
        <time>2021-01-03T14:23:40Z</time>
      </trkpt>
      <trkpt lat="43.65164" lon="3.78805">
        <ele>68</ele>
        <time>2021-01-03T14:23:41Z</time>
      </trkpt>
      <trkpt lat="43.65161" lon="3.78806">
        <ele>62.2</ele>
        <time>2021-01-03T14:23:42Z</time>
      </trkpt>
      <trkpt lat="43.65159" lon="3.78808">
        <ele>62.1</ele>
        <time>2021-01-03T14:23:43Z</time>
      </trkpt>
      <trkpt lat="43.65156" lon="3.78809">
        <ele>62.1</ele>
        <time>2021-01-03T14:23:44Z</time>
      </trkpt>
      <trkpt lat="43.65154" lon="3.78811">
        <ele>62.1</ele>
        <time>2021-01-03T14:23:45Z</time>
      </trkpt>
      <trkpt lat="43.65151" lon="3.78813">
        <ele>62</ele>
        <time>2021-01-03T14:23:46Z</time>
      </trkpt>
      <trkpt lat="43.65148" lon="3.78815">
        <ele>62</ele>
        <time>2021-01-03T14:23:47Z</time>
      </trkpt>
      <trkpt lat="43.65147" lon="3.78819">
        <ele>61.7</ele>
        <time>2021-01-03T14:23:48Z</time>
      </trkpt>
      <trkpt lat="43.65146" lon="3.78823">
        <ele>61.5</ele>
        <time>2021-01-03T14:23:49Z</time>
      </trkpt>
      <trkpt lat="43.65147" lon="3.78828">
        <ele>61.1</ele>
        <time>2021-01-03T14:23:50Z</time>
      </trkpt>
      <trkpt lat="43.65147" lon="3.78834">
        <ele>60.7</ele>
        <time>2021-01-03T14:23:51Z</time>
      </trkpt>
      <trkpt lat="43.65147" lon="3.78841">
        <ele>68</ele>
        <time>2021-01-03T14:23:52Z</time>
      </trkpt>
      <trkpt lat="43.65147" lon="3.78848">
        <ele>59.5</ele>
        <time>2021-01-03T14:23:53Z</time>
      </trkpt>
      <trkpt lat="43.65146" lon="3.78855">
        <ele>59</ele>
        <time>2021-01-03T14:23:54Z</time>
      </trkpt>
      <trkpt lat="43.65144" lon="3.78861">
        <ele>58.6</ele>
        <time>2021-01-03T14:23:55Z</time>
      </trkpt>
      <trkpt lat="43.6514" lon="3.78866">
        <ele>58.6</ele>
        <time>2021-01-03T14:23:56Z</time>
      </trkpt>
      <trkpt lat="43.65135" lon="3.7887">
        <ele>58.5</ele>
        <time>2021-01-03T14:23:57Z</time>
      </trkpt>
      <trkpt lat="43.65131" lon="3.78874">
        <ele>58.4</ele>
        <time>2021-01-03T14:23:58Z</time>
      </trkpt>
      <trkpt lat="43.65126" lon="3.78878">
        <ele>58.2</ele>
        <time>2021-01-03T14:23:59Z</time>
      </trkpt>
      <trkpt lat="43.65121" lon="3.78882">
        <ele>58.1</ele>
        <time>2021-01-03T14:24:00Z</time>
      </trkpt>
      <trkpt lat="43.65115" lon="3.78886">
        <ele>58.1</ele>
        <time>2021-01-03T14:24:01Z</time>
      </trkpt>
      <trkpt lat="43.6511" lon="3.78891">
        <ele>67</ele>
        <time>2021-01-03T14:24:02Z</time>
      </trkpt>
      <trkpt lat="43.65105" lon="3.78896">
        <ele>58</ele>
        <time>2021-01-03T14:24:03Z</time>
      </trkpt>
      <trkpt lat="43.651" lon="3.78902">
        <ele>57.9</ele>
        <time>2021-01-03T14:24:04Z</time>
      </trkpt>
      <trkpt lat="43.65095" lon="3.78907">
        <ele>57.9</ele>
        <time>2021-01-03T14:24:05Z</time>
      </trkpt>
      <trkpt lat="43.65091" lon="3.78913">
        <ele>57.9</ele>
        <time>2021-01-03T14:24:06Z</time>
      </trkpt>
      <trkpt lat="43.65089" lon="3.7892">
        <ele>57.6</ele>
        <time>2021-01-03T14:24:07Z</time>
      </trkpt>
      <trkpt lat="43.65087" lon="3.78928">
        <ele>57.2</ele>
        <time>2021-01-03T14:24:08Z</time>
      </trkpt>
      <trkpt lat="43.65085" lon="3.78935">
        <ele>56.7</ele>
        <time>2021-01-03T14:24:09Z</time>
      </trkpt>
      <trkpt lat="43.65082" lon="3.7894">
        <ele>56.4</ele>
        <time>2021-01-03T14:24:10Z</time>
      </trkpt>
      <trkpt lat="43.6508" lon="3.78943">
        <ele>66</ele>
        <time>2021-01-03T14:24:11Z</time>
      </trkpt>
      <trkpt lat="43.65078" lon="3.78946">
        <ele>56.5</ele>
        <time>2021-01-03T14:24:12Z</time>
      </trkpt>
      <trkpt lat="43.65075" lon="3.78951">
        <ele>56.8</ele>
        <time>2021-01-03T14:24:13Z</time>
      </trkpt>
      <trkpt lat="43.65072" lon="3.78955">
        <ele>57</ele>
        <time>2021-01-03T14:24:14Z</time>
      </trkpt>
      <trkpt lat="43.65068" lon="3.78959">
        <ele>57</ele>
        <time>2021-01-03T14:24:15Z</time>
      </trkpt>
      <trkpt lat="43.65065" lon="3.78962">
        <ele>56.9</ele>
        <time>2021-01-03T14:24:16Z</time>
      </trkpt>
      <trkpt lat="43.65062" lon="3.78966">
        <ele>56.7</ele>
        <time>2021-01-03T14:24:17Z</time>
      </trkpt>
      <trkpt lat="43.65059" lon="3.7897">
        <ele>56.4</ele>
        <time>2021-01-03T14:24:18Z</time>
      </trkpt>
      <trkpt lat="43.65055" lon="3.78975">
        <ele>56.2</ele>
        <time>2021-01-03T14:24:19Z</time>
      </trkpt>
      <trkpt lat="43.6505" lon="3.78978">
        <ele>56.7</ele>
        <time>2021-01-03T14:24:20Z</time>
      </trkpt>
      <trkpt lat="43.65045" lon="3.78981">
        <ele>65</ele>
        <time>2021-01-03T14:24:21Z</time>
      </trkpt>
      <trkpt lat="43.65041" lon="3.78983">
        <ele>57.2</ele>
        <time>2021-01-03T14:24:22Z</time>
      </trkpt>
      <trkpt lat="43.65036" lon="3.78986">
        <ele>57.4</ele>
        <time>2021-01-03T14:24:23Z</time>
      </trkpt>
      <trkpt lat="43.65031" lon="3.78988">
        <ele>57.4</ele>
        <time>2021-01-03T14:24:24Z</time>
      </trkpt>
      <trkpt lat="43.65025" lon="3.78988">
        <ele>57.4</ele>
        <time>2021-01-03T14:24:25Z</time>
      </trkpt>
      <trkpt lat="43.6502" lon="3.78988">
        <ele>57.4</ele>
        <time>2021-01-03T14:24:26Z</time>
      </trkpt>
      <trkpt lat="43.65015" lon="3.78988">
        <ele>57.4</ele>
        <time>2021-01-03T14:24:27Z</time>
      </trkpt>
      <trkpt lat="43.65011" lon="3.78987">
        <ele>57.5</ele>
        <time>2021-01-03T14:24:28Z</time>
      </trkpt>
      <trkpt lat="43.65007" lon="3.78986">
        <ele>57.5</ele>
        <time>2021-01-03T14:24:29Z</time>
      </trkpt>
      <trkpt lat="43.65004" lon="3.78986">
        <ele>57.5</ele>
        <time>2021-01-03T14:24:30Z</time>
      </trkpt>
      <trkpt lat="43.65001" lon="3.78987">
        <ele>57.5</ele>
        <time>2021-01-03T14:24:31Z</time>
      </trkpt>
      <trkpt lat="43.64998" lon="3.78988">
        <ele>66</ele>
        <time>2021-01-03T14:24:32Z</time>
      </trkpt>
      <trkpt lat="43.64994" lon="3.78989">
        <ele>57.7</ele>
        <time>2021-01-03T14:24:33Z</time>
      </trkpt>
      <trkpt lat="43.64991" lon="3.78991">
        <ele>57.7</ele>
        <time>2021-01-03T14:24:34Z</time>
      </trkpt>
      <trkpt lat="43.64988" lon="3.78993">
        <ele>57.7</ele>
        <time>2021-01-03T14:24:35Z</time>
      </trkpt>
      <trkpt lat="43.64985" lon="3.78995">
        <ele>57.6</ele>
        <time>2021-01-03T14:24:36Z</time>
      </trkpt>
      <trkpt lat="43.64983" lon="3.78997">
        <ele>57.4</ele>
        <time>2021-01-03T14:24:37Z</time>
      </trkpt>
      <trkpt lat="43.6498" lon="3.78998">
        <ele>57.3</ele>
        <time>2021-01-03T14:24:38Z</time>
      </trkpt>
      <trkpt lat="43.64977" lon="3.79">
        <ele>57</ele>
        <time>2021-01-03T14:24:39Z</time>
      </trkpt>
      <trkpt lat="43.64975" lon="3.79002">
        <ele>57</ele>
        <time>2021-01-03T14:24:40Z</time>
      </trkpt>
      <trkpt lat="43.64972" lon="3.79002">
        <ele>66</ele>
        <time>2021-01-03T14:24:41Z</time>
      </trkpt>
      <trkpt lat="43.64969" lon="3.79002">
        <ele>57.2</ele>
        <time>2021-01-03T14:24:42Z</time>
      </trkpt>
      <trkpt lat="43.64967" lon="3.79001">
        <ele>57.3</ele>
        <time>2021-01-03T14:24:43Z</time>
      </trkpt>
      <trkpt lat="43.64964" lon="3.79001">
        <ele>57.5</ele>
        <time>2021-01-03T14:24:44Z</time>
      </trkpt>
      <trkpt lat="43.64961" lon="3.79001">
        <ele>57.7</ele>
        <time>2021-01-03T14:24:45Z</time>
      </trkpt>
      <trkpt lat="43.64958" lon="3.79002">
        <ele>57.8</ele>
        <time>2021-01-03T14:24:46Z</time>
      </trkpt>
      <trkpt lat="43.64954" lon="3.79003">
        <ele>58</ele>
        <time>2021-01-03T14:24:47Z</time>
      </trkpt>
      <trkpt lat="43.64951" lon="3.79004">
        <ele>58</ele>
        <time>2021-01-03T14:24:48Z</time>
      </trkpt>
      <trkpt lat="43.64948" lon="3.79006">
        <ele>57.8</ele>
        <time>2021-01-03T14:24:49Z</time>
      </trkpt>
      <trkpt lat="43.64946" lon="3.79007">
        <ele>57.7</ele>
        <time>2021-01-03T14:24:50Z</time>
      </trkpt>
      <trkpt lat="43.64943" lon="3.7901">
        <ele>65</ele>
        <time>2021-01-03T14:24:51Z</time>
      </trkpt>
      <trkpt lat="43.6494" lon="3.79013">
        <ele>57.5</ele>
        <time>2021-01-03T14:24:52Z</time>
      </trkpt>
      <trkpt lat="43.64936" lon="3.79016">
        <ele>57.6</ele>
        <time>2021-01-03T14:24:53Z</time>
      </trkpt>
      <trkpt lat="43.64932" lon="3.79019">
        <ele>57.7</ele>
        <time>2021-01-03T14:24:54Z</time>
      </trkpt>
      <trkpt lat="43.64929" lon="3.79022">
        <ele>57.5</ele>
        <time>2021-01-03T14:24:55Z</time>
      </trkpt>
      <trkpt lat="43.64926" lon="3.79026">
        <ele>57.1</ele>
        <time>2021-01-03T14:24:56Z</time>
      </trkpt>
      <trkpt lat="43.64922" lon="3.79029">
        <ele>57.1</ele>
        <time>2021-01-03T14:24:57Z</time>
      </trkpt>
      <trkpt lat="43.64918" lon="3.79032">
        <ele>57.1</ele>
        <time>2021-01-03T14:24:58Z</time>
      </trkpt>
      <trkpt lat="43.64914" lon="3.79035">
        <ele>57.1</ele>
        <time>2021-01-03T14:24:59Z</time>
      </trkpt>
      <trkpt lat="43.6491" lon="3.79037">
        <ele>57.2</ele>
        <time>2021-01-03T14:25:00Z</time>
      </trkpt>
      <trkpt lat="43.64906" lon="3.79039">
        <ele>65</ele>
        <time>2021-01-03T14:25:01Z</time>
      </trkpt>
      <trkpt lat="43.64902" lon="3.79041">
        <ele>57.5</ele>
        <time>2021-01-03T14:25:02Z</time>
      </trkpt>
      <trkpt lat="43.64899" lon="3.79044">
        <ele>57.3</ele>
        <time>2021-01-03T14:25:03Z</time>
      </trkpt>
      <trkpt lat="43.64895" lon="3.79046">
        <ele>57.3</ele>
        <time>2021-01-03T14:25:04Z</time>
      </trkpt>
      <trkpt lat="43.64891" lon="3.79048">
        <ele>57.4</ele>
        <time>2021-01-03T14:25:05Z</time>
      </trkpt>
      <trkpt lat="43.64887" lon="3.79051">
        <ele>57.2</ele>
        <time>2021-01-03T14:25:06Z</time>
      </trkpt>
      <trkpt lat="43.64883" lon="3.79054">
        <ele>57.2</ele>
        <time>2021-01-03T14:25:07Z</time>
      </trkpt>
      <trkpt lat="43.64879" lon="3.79057">
        <ele>57.3</ele>
        <time>2021-01-03T14:25:08Z</time>
      </trkpt>
      <trkpt lat="43.64875" lon="3.79061">
        <ele>57.4</ele>
        <time>2021-01-03T14:25:09Z</time>
      </trkpt>
      <trkpt lat="43.64871" lon="3.79065">
        <ele>57.4</ele>
        <time>2021-01-03T14:25:10Z</time>
      </trkpt>
      <trkpt lat="43.64867" lon="3.79069">
        <ele>57.1</ele>
        <time>2021-01-03T14:25:11Z</time>
      </trkpt>
      <trkpt lat="43.64862" lon="3.79073">
        <ele>65</ele>
        <time>2021-01-03T14:25:12Z</time>
      </trkpt>
      <trkpt lat="43.64858" lon="3.79075">
        <ele>57</ele>
        <time>2021-01-03T14:25:13Z</time>
      </trkpt>
      <trkpt lat="43.64854" lon="3.79077">
        <ele>57.4</ele>
        <time>2021-01-03T14:25:14Z</time>
      </trkpt>
      <trkpt lat="43.6485" lon="3.7908">
        <ele>57.6</ele>
        <time>2021-01-03T14:25:15Z</time>
      </trkpt>
      <trkpt lat="43.64846" lon="3.79082">
        <ele>57.9</ele>
        <time>2021-01-03T14:25:16Z</time>
      </trkpt>
      <trkpt lat="43.64843" lon="3.79085">
        <ele>58.1</ele>
        <time>2021-01-03T14:25:17Z</time>
      </trkpt>
      <trkpt lat="43.6484" lon="3.7909">
        <ele>58</ele>
        <time>2021-01-03T14:25:18Z</time>
      </trkpt>
      <trkpt lat="43.64837" lon="3.79094">
        <ele>58</ele>
        <time>2021-01-03T14:25:19Z</time>
      </trkpt>
      <trkpt lat="43.64833" lon="3.79099">
        <ele>57.8</ele>
        <time>2021-01-03T14:25:20Z</time>
      </trkpt>
      <trkpt lat="43.6483" lon="3.79101">
        <ele>66</ele>
        <time>2021-01-03T14:25:21Z</time>
      </trkpt>
      <trkpt lat="43.64826" lon="3.79104">
        <ele>58.3</ele>
        <time>2021-01-03T14:25:22Z</time>
      </trkpt>
      <trkpt lat="43.64823" lon="3.79106">
        <ele>58.6</ele>
        <time>2021-01-03T14:25:23Z</time>
      </trkpt>
      <trkpt lat="43.6482" lon="3.79109">
        <ele>58.7</ele>
        <time>2021-01-03T14:25:24Z</time>
      </trkpt>
      <trkpt lat="43.64817" lon="3.79113">
        <ele>58.7</ele>
        <time>2021-01-03T14:25:25Z</time>
      </trkpt>
      <trkpt lat="43.64814" lon="3.79117">
        <ele>58.8</ele>
        <time>2021-01-03T14:25:26Z</time>
      </trkpt>
      <trkpt lat="43.64811" lon="3.79121">
        <ele>59</ele>
        <time>2021-01-03T14:25:27Z</time>
      </trkpt>
      <trkpt lat="43.64809" lon="3.79125">
        <ele>58.9</ele>
        <time>2021-01-03T14:25:28Z</time>
      </trkpt>
      <trkpt lat="43.64805" lon="3.79128">
        <ele>59.3</ele>
        <time>2021-01-03T14:25:29Z</time>
      </trkpt>
      <trkpt lat="43.64802" lon="3.79131">
        <ele>59.4</ele>
        <time>2021-01-03T14:25:30Z</time>
      </trkpt>
      <trkpt lat="43.64799" lon="3.79133">
        <ele>59.6</ele>
        <time>2021-01-03T14:25:31Z</time>
      </trkpt>
      <trkpt lat="43.64793" lon="3.79137">
        <ele>67</ele>
        <time>2021-01-03T14:25:32Z</time>
      </trkpt>
      <trkpt lat="43.6479" lon="3.79139">
        <ele>60.2</ele>
        <time>2021-01-03T14:25:33Z</time>
      </trkpt>
      <trkpt lat="43.64788" lon="3.7914">
        <ele>60.4</ele>
        <time>2021-01-03T14:25:34Z</time>
      </trkpt>
      <trkpt lat="43.64786" lon="3.79141">
        <ele>60.5</ele>
        <time>2021-01-03T14:25:36Z</time>
      </trkpt>
      <trkpt lat="43.64784" lon="3.79143">
        <ele>60.5</ele>
        <time>2021-01-03T14:25:37Z</time>
      </trkpt>
      <trkpt lat="43.64781" lon="3.79145">
        <ele>60.7</ele>
        <time>2021-01-03T14:25:38Z</time>
      </trkpt>
      <trkpt lat="43.64775" lon="3.79148">
        <ele>61.1</ele>
        <time>2021-01-03T14:25:39Z</time>
      </trkpt>
      <trkpt lat="43.64773" lon="3.79148">
        <ele>68</ele>
        <time>2021-01-03T14:25:41Z</time>
      </trkpt>
      <trkpt lat="43.6477" lon="3.79148">
        <ele>61.9</ele>
        <time>2021-01-03T14:25:42Z</time>
      </trkpt>
      <trkpt lat="43.64767" lon="3.7915">
        <ele>62</ele>
        <time>2021-01-03T14:25:44Z</time>
      </trkpt>
      <trkpt lat="43.64764" lon="3.79152">
        <ele>62.1</ele>
        <time>2021-01-03T14:25:45Z</time>
      </trkpt>
      <trkpt lat="43.64762" lon="3.79155">
        <ele>61.9</ele>
        <time>2021-01-03T14:25:46Z</time>
      </trkpt>
      <trkpt lat="43.6476" lon="3.79157">
        <ele>61.8</ele>
        <time>2021-01-03T14:25:47Z</time>
      </trkpt>
      <trkpt lat="43.64758" lon="3.79159">
        <ele>61.6</ele>
        <time>2021-01-03T14:25:48Z</time>
      </trkpt>
      <trkpt lat="43.64756" lon="3.79162">
        <ele>61.3</ele>
        <time>2021-01-03T14:25:49Z</time>
      </trkpt>
      <trkpt lat="43.64753" lon="3.79164">
        <ele>61.2</ele>
        <time>2021-01-03T14:25:50Z</time>
      </trkpt>
      <trkpt lat="43.64751" lon="3.79166">
        <ele>70</ele>
        <time>2021-01-03T14:25:51Z</time>
      </trkpt>
      <trkpt lat="43.64749" lon="3.79168">
        <ele>61</ele>
        <time>2021-01-03T14:25:52Z</time>
      </trkpt>
      <trkpt lat="43.64747" lon="3.79169">
        <ele>61.2</ele>
        <time>2021-01-03T14:25:53Z</time>
      </trkpt>
      <trkpt lat="43.64745" lon="3.79171">
        <ele>61.2</ele>
        <time>2021-01-03T14:25:54Z</time>
      </trkpt>
      <trkpt lat="43.64743" lon="3.79173">
        <ele>61.2</ele>
        <time>2021-01-03T14:25:55Z</time>
      </trkpt>
      <trkpt lat="43.64741" lon="3.79174">
        <ele>61.4</ele>
        <time>2021-01-03T14:25:56Z</time>
      </trkpt>
      <trkpt lat="43.6474" lon="3.79176">
        <ele>61.2</ele>
        <time>2021-01-03T14:25:58Z</time>
      </trkpt>
      <trkpt lat="43.64737" lon="3.7918">
        <ele>61</ele>
        <time>2021-01-03T14:26:00Z</time>
      </trkpt>
      <trkpt lat="43.64735" lon="3.79182">
        <ele>71</ele>
        <time>2021-01-03T14:26:01Z</time>
      </trkpt>
      <trkpt lat="43.64733" lon="3.79184">
        <ele>60.8</ele>
        <time>2021-01-03T14:26:02Z</time>
      </trkpt>
      <trkpt lat="43.6473" lon="3.79186">
        <ele>60.8</ele>
        <time>2021-01-03T14:26:03Z</time>
      </trkpt>
      <trkpt lat="43.64728" lon="3.79187">
        <ele>60.9</ele>
        <time>2021-01-03T14:26:04Z</time>
      </trkpt>
      <trkpt lat="43.64725" lon="3.79189">
        <ele>60.8</ele>
        <time>2021-01-03T14:26:05Z</time>
      </trkpt>
      <trkpt lat="43.64721" lon="3.79191">
        <ele>61</ele>
        <time>2021-01-03T14:26:06Z</time>
      </trkpt>
      <trkpt lat="43.64718" lon="3.79193">
        <ele>61.2</ele>
        <time>2021-01-03T14:26:07Z</time>
      </trkpt>
      <trkpt lat="43.64714" lon="3.79195">
        <ele>61.7</ele>
        <time>2021-01-03T14:26:08Z</time>
      </trkpt>
      <trkpt lat="43.6471" lon="3.79197">
        <ele>62.2</ele>
        <time>2021-01-03T14:26:09Z</time>
      </trkpt>
      <trkpt lat="43.64706" lon="3.79198">
        <ele>62.8</ele>
        <time>2021-01-03T14:26:10Z</time>
      </trkpt>
      <trkpt lat="43.64703" lon="3.79199">
        <ele>72</ele>
        <time>2021-01-03T14:26:11Z</time>
      </trkpt>
      <trkpt lat="43.64701" lon="3.79201">
        <ele>63.2</ele>
        <time>2021-01-03T14:26:12Z</time>
      </trkpt>
      <trkpt lat="43.64698" lon="3.79202">
        <ele>63.5</ele>
        <time>2021-01-03T14:26:13Z</time>
      </trkpt>
      <trkpt lat="43.64697" lon="3.79204">
        <ele>63.2</ele>
        <time>2021-01-03T14:26:14Z</time>
      </trkpt>
      <trkpt lat="43.64696" lon="3.79207">
        <ele>62.6</ele>
        <time>2021-01-03T14:26:15Z</time>
      </trkpt>
      <trkpt lat="43.64698" lon="3.7921">
        <ele>61.6</ele>
        <time>2021-01-03T14:26:16Z</time>
      </trkpt>
      <trkpt lat="43.64699" lon="3.79215">
        <ele>60.3</ele>
        <time>2021-01-03T14:26:17Z</time>
      </trkpt>
      <trkpt lat="43.64698" lon="3.7922">
        <ele>59.3</ele>
        <time>2021-01-03T14:26:18Z</time>
      </trkpt>
      <trkpt lat="43.64698" lon="3.79225">
        <ele>58.5</ele>
        <time>2021-01-03T14:26:19Z</time>
      </trkpt>
      <trkpt lat="43.64697" lon="3.7923">
        <ele>58</ele>
        <time>2021-01-03T14:26:20Z</time>
      </trkpt>
      <trkpt lat="43.64698" lon="3.79239">
        <ele>72</ele>
        <time>2021-01-03T14:26:21Z</time>
      </trkpt>
      <trkpt lat="43.64699" lon="3.79245">
        <ele>56.3</ele>
        <time>2021-01-03T14:26:23Z</time>
      </trkpt>
      <trkpt lat="43.64702" lon="3.79251">
        <ele>55.7</ele>
        <time>2021-01-03T14:26:24Z</time>
      </trkpt>
      <trkpt lat="43.64706" lon="3.79253">
        <ele>55.5</ele>
        <time>2021-01-03T14:26:25Z</time>
      </trkpt>
      <trkpt lat="43.64708" lon="3.79253">
        <ele>55.4</ele>
        <time>2021-01-03T14:26:26Z</time>
      </trkpt>
      <trkpt lat="43.64708" lon="3.79248">
        <ele>55.7</ele>
        <time>2021-01-03T14:26:28Z</time>
      </trkpt>
      <trkpt lat="43.64706" lon="3.79247">
        <ele>55.9</ele>
        <time>2021-01-03T14:26:29Z</time>
      </trkpt>
      <trkpt lat="43.64704" lon="3.79248">
        <ele>55.8</ele>
        <time>2021-01-03T14:26:30Z</time>
      </trkpt>
      <trkpt lat="43.64703" lon="3.79251">
        <ele>71</ele>
        <time>2021-01-03T14:26:31Z</time>
      </trkpt>
      <trkpt lat="43.64702" lon="3.79255">
        <ele>55.5</ele>
        <time>2021-01-03T14:26:32Z</time>
      </trkpt>
      <trkpt lat="43.64701" lon="3.7926">
        <ele>55.4</ele>
        <time>2021-01-03T14:26:33Z</time>
      </trkpt>
      <trkpt lat="43.647" lon="3.79265">
        <ele>55.3</ele>
        <time>2021-01-03T14:26:34Z</time>
      </trkpt>
      <trkpt lat="43.64698" lon="3.7927">
        <ele>55.2</ele>
        <time>2021-01-03T14:26:35Z</time>
      </trkpt>
      <trkpt lat="43.64697" lon="3.79276">
        <ele>55</ele>
        <time>2021-01-03T14:26:36Z</time>
      </trkpt>
      <trkpt lat="43.64693" lon="3.7928">
        <ele>55</ele>
        <time>2021-01-03T14:26:37Z</time>
      </trkpt>
      <trkpt lat="43.6469" lon="3.79283">
        <ele>55.1</ele>
        <time>2021-01-03T14:26:38Z</time>
      </trkpt>
      <trkpt lat="43.64686" lon="3.79285">
        <ele>55.1</ele>
        <time>2021-01-03T14:26:39Z</time>
      </trkpt>
      <trkpt lat="43.64682" lon="3.79286">
        <ele>55.2</ele>
        <time>2021-01-03T14:26:40Z</time>
      </trkpt>
      <trkpt lat="43.64678" lon="3.79287">
        <ele>70</ele>
        <time>2021-01-03T14:26:41Z</time>
      </trkpt>
      <trkpt lat="43.64674" lon="3.79288">
        <ele>55.2</ele>
        <time>2021-01-03T14:26:42Z</time>
      </trkpt>
      <trkpt lat="43.64671" lon="3.7929">
        <ele>55.1</ele>
        <time>2021-01-03T14:26:43Z</time>
      </trkpt>
      <trkpt lat="43.64668" lon="3.79293">
        <ele>54.9</ele>
        <time>2021-01-03T14:26:44Z</time>
      </trkpt>
      <trkpt lat="43.64666" lon="3.79297">
        <ele>54.7</ele>
        <time>2021-01-03T14:26:45Z</time>
      </trkpt>
      <trkpt lat="43.64664" lon="3.79301">
        <ele>54.8</ele>
        <time>2021-01-03T14:26:46Z</time>
      </trkpt>
      <trkpt lat="43.64663" lon="3.79305">
        <ele>54.6</ele>
        <time>2021-01-03T14:26:47Z</time>
      </trkpt>
      <trkpt lat="43.64661" lon="3.7931">
        <ele>54.8</ele>
        <time>2021-01-03T14:26:48Z</time>
      </trkpt>
      <trkpt lat="43.6466" lon="3.79316">
        <ele>54.8</ele>
        <time>2021-01-03T14:26:49Z</time>
      </trkpt>
      <trkpt lat="43.64658" lon="3.79321">
        <ele>54.9</ele>
        <time>2021-01-03T14:26:50Z</time>
      </trkpt>
      <trkpt lat="43.64656" lon="3.79327">
        <ele>69</ele>
        <time>2021-01-03T14:26:51Z</time>
      </trkpt>
      <trkpt lat="43.64654" lon="3.79332">
        <ele>55</ele>
        <time>2021-01-03T14:26:52Z</time>
      </trkpt>
      <trkpt lat="43.64653" lon="3.79338">
        <ele>54.8</ele>
        <time>2021-01-03T14:26:53Z</time>
      </trkpt>
      <trkpt lat="43.64652" lon="3.79345">
        <ele>54.6</ele>
        <time>2021-01-03T14:26:54Z</time>
      </trkpt>
      <trkpt lat="43.64651" lon="3.79352">
        <ele>54.5</ele>
        <time>2021-01-03T14:26:55Z</time>
      </trkpt>
      <trkpt lat="43.6465" lon="3.7936">
        <ele>54.2</ele>
        <time>2021-01-03T14:26:56Z</time>
      </trkpt>
      <trkpt lat="43.6465" lon="3.79368">
        <ele>54.2</ele>
        <time>2021-01-03T14:26:57Z</time>
      </trkpt>
      <trkpt lat="43.64647" lon="3.79377">
        <ele>54.2</ele>
        <time>2021-01-03T14:26:58Z</time>
      </trkpt>
      <trkpt lat="43.64644" lon="3.79384">
        <ele>54.1</ele>
        <time>2021-01-03T14:26:59Z</time>
      </trkpt>
      <trkpt lat="43.64641" lon="3.79391">
        <ele>53.9</ele>
        <time>2021-01-03T14:27:00Z</time>
      </trkpt>
      <trkpt lat="43.64637" lon="3.79398">
        <ele>68</ele>
        <time>2021-01-03T14:27:01Z</time>
      </trkpt>
      <trkpt lat="43.64633" lon="3.79403">
        <ele>54.1</ele>
        <time>2021-01-03T14:27:02Z</time>
      </trkpt>
      <trkpt lat="43.64629" lon="3.79408">
        <ele>54.1</ele>
        <time>2021-01-03T14:27:03Z</time>
      </trkpt>
      <trkpt lat="43.64626" lon="3.79414">
        <ele>53.7</ele>
        <time>2021-01-03T14:27:04Z</time>
      </trkpt>
      <trkpt lat="43.64622" lon="3.79419">
        <ele>53.6</ele>
        <time>2021-01-03T14:27:05Z</time>
      </trkpt>
      <trkpt lat="43.64618" lon="3.79424">
        <ele>53.6</ele>
        <time>2021-01-03T14:27:06Z</time>
      </trkpt>
      <trkpt lat="43.64615" lon="3.7943">
        <ele>53.5</ele>
        <time>2021-01-03T14:27:07Z</time>
      </trkpt>
      <trkpt lat="43.64612" lon="3.79435">
        <ele>53.4</ele>
        <time>2021-01-03T14:27:08Z</time>
      </trkpt>
      <trkpt lat="43.64608" lon="3.79439">
        <ele>53.6</ele>
        <time>2021-01-03T14:27:09Z</time>
      </trkpt>
      <trkpt lat="43.64604" lon="3.79442">
        <ele>53.9</ele>
        <time>2021-01-03T14:27:10Z</time>
      </trkpt>
      <trkpt lat="43.64602" lon="3.79445">
        <ele>66</ele>
        <time>2021-01-03T14:27:11Z</time>
      </trkpt>
      <trkpt lat="43.64601" lon="3.79448">
        <ele>54</ele>
        <time>2021-01-03T14:27:12Z</time>
      </trkpt>
      <trkpt lat="43.64599" lon="3.79451">
        <ele>54.1</ele>
        <time>2021-01-03T14:27:13Z</time>
      </trkpt>
      <trkpt lat="43.64597" lon="3.79453">
        <ele>54.2</ele>
        <time>2021-01-03T14:27:14Z</time>
      </trkpt>
      <trkpt lat="43.64595" lon="3.79454">
        <ele>54.3</ele>
        <time>2021-01-03T14:27:15Z</time>
      </trkpt>
      <trkpt lat="43.64593" lon="3.79454">
        <ele>54.4</ele>
        <time>2021-01-03T14:27:16Z</time>
      </trkpt>
      <trkpt lat="43.6459" lon="3.79455">
        <ele>54.5</ele>
        <time>2021-01-03T14:27:18Z</time>
      </trkpt>
      <trkpt lat="43.64592" lon="3.79458">
        <ele>54.2</ele>
        <time>2021-01-03T14:27:20Z</time>
      </trkpt>
      <trkpt lat="43.64593" lon="3.79459">
        <ele>64</ele>
        <time>2021-01-03T14:27:21Z</time>
      </trkpt>
      <trkpt lat="43.64595" lon="3.79461">
        <ele>54</ele>
        <time>2021-01-03T14:27:22Z</time>
      </trkpt>
      <trkpt lat="43.64597" lon="3.79464">
        <ele>53.8</ele>
        <time>2021-01-03T14:27:23Z</time>
      </trkpt>
      <trkpt lat="43.64599" lon="3.79466">
        <ele>53.7</ele>
        <time>2021-01-03T14:27:24Z</time>
      </trkpt>
      <trkpt lat="43.64601" lon="3.79469">
        <ele>53.7</ele>
        <time>2021-01-03T14:27:25Z</time>
      </trkpt>
      <trkpt lat="43.64602" lon="3.79471">
        <ele>53.7</ele>
        <time>2021-01-03T14:27:26Z</time>
      </trkpt>
      <trkpt lat="43.64602" lon="3.79474">
        <ele>53.7</ele>
        <time>2021-01-03T14:27:27Z</time>
      </trkpt>
      <trkpt lat="43.64602" lon="3.79477">
        <ele>53.7</ele>
        <time>2021-01-03T14:27:28Z</time>
      </trkpt>
      <trkpt lat="43.64601" lon="3.7948">
        <ele>53.6</ele>
        <time>2021-01-03T14:27:29Z</time>
      </trkpt>
      <trkpt lat="43.646" lon="3.79482">
        <ele>53.6</ele>
        <time>2021-01-03T14:27:30Z</time>
      </trkpt>
      <trkpt lat="43.64598" lon="3.79485">
        <ele>63</ele>
        <time>2021-01-03T14:27:31Z</time>
      </trkpt>
      <trkpt lat="43.64597" lon="3.79489">
        <ele>53.5</ele>
        <time>2021-01-03T14:27:32Z</time>
      </trkpt>
      <trkpt lat="43.64595" lon="3.79492">
        <ele>53.4</ele>
        <time>2021-01-03T14:27:33Z</time>
      </trkpt>
      <trkpt lat="43.64593" lon="3.79495">
        <ele>53.3</ele>
        <time>2021-01-03T14:27:34Z</time>
      </trkpt>
      <trkpt lat="43.64591" lon="3.79499">
        <ele>53.3</ele>
        <time>2021-01-03T14:27:35Z</time>
      </trkpt>
      <trkpt lat="43.64588" lon="3.79502">
        <ele>53.2</ele>
        <time>2021-01-03T14:27:36Z</time>
      </trkpt>
      <trkpt lat="43.64586" lon="3.79505">
        <ele>53.3</ele>
        <time>2021-01-03T14:27:37Z</time>
      </trkpt>
      <trkpt lat="43.64584" lon="3.79508">
        <ele>53.3</ele>
        <time>2021-01-03T14:27:38Z</time>
      </trkpt>
      <trkpt lat="43.64582" lon="3.79512">
        <ele>53.5</ele>
        <time>2021-01-03T14:27:39Z</time>
      </trkpt>
      <trkpt lat="43.64581" lon="3.79515">
        <ele>53.6</ele>
        <time>2021-01-03T14:27:40Z</time>
      </trkpt>
      <trkpt lat="43.6458" lon="3.79519">
        <ele>62</ele>
        <time>2021-01-03T14:27:41Z</time>
      </trkpt>
      <trkpt lat="43.64579" lon="3.79523">
        <ele>53.8</ele>
        <time>2021-01-03T14:27:42Z</time>
      </trkpt>
      <trkpt lat="43.64578" lon="3.79527">
        <ele>53.8</ele>
        <time>2021-01-03T14:27:43Z</time>
      </trkpt>
      <trkpt lat="43.64577" lon="3.79531">
        <ele>53.8</ele>
        <time>2021-01-03T14:27:44Z</time>
      </trkpt>
      <trkpt lat="43.64575" lon="3.79535">
        <ele>53.7</ele>
        <time>2021-01-03T14:27:45Z</time>
      </trkpt>
      <trkpt lat="43.64574" lon="3.79539">
        <ele>53.7</ele>
        <time>2021-01-03T14:27:46Z</time>
      </trkpt>
      <trkpt lat="43.64573" lon="3.79542">
        <ele>53.6</ele>
        <time>2021-01-03T14:27:47Z</time>
      </trkpt>
      <trkpt lat="43.64572" lon="3.79546">
        <ele>53.6</ele>
        <time>2021-01-03T14:27:48Z</time>
      </trkpt>
      <trkpt lat="43.64571" lon="3.7955">
        <ele>53.6</ele>
        <time>2021-01-03T14:27:49Z</time>
      </trkpt>
      <trkpt lat="43.6457" lon="3.79555">
        <ele>53.5</ele>
        <time>2021-01-03T14:27:50Z</time>
      </trkpt>
      <trkpt lat="43.6457" lon="3.79559">
        <ele>60</ele>
        <time>2021-01-03T14:27:51Z</time>
      </trkpt>
      <trkpt lat="43.64569" lon="3.79564">
        <ele>53.5</ele>
        <time>2021-01-03T14:27:52Z</time>
      </trkpt>
      <trkpt lat="43.64568" lon="3.79568">
        <ele>53.4</ele>
        <time>2021-01-03T14:27:53Z</time>
      </trkpt>
      <trkpt lat="43.64567" lon="3.79572">
        <ele>53.4</ele>
        <time>2021-01-03T14:27:54Z</time>
      </trkpt>
      <trkpt lat="43.64565" lon="3.79577">
        <ele>53.3</ele>
        <time>2021-01-03T14:27:55Z</time>
      </trkpt>
      <trkpt lat="43.64564" lon="3.79581">
        <ele>53.3</ele>
        <time>2021-01-03T14:27:56Z</time>
      </trkpt>
      <trkpt lat="43.64562" lon="3.79585">
        <ele>53.3</ele>
        <time>2021-01-03T14:27:57Z</time>
      </trkpt>
      <trkpt lat="43.6456" lon="3.79589">
        <ele>53.3</ele>
        <time>2021-01-03T14:27:58Z</time>
      </trkpt>
      <trkpt lat="43.64559" lon="3.79593">
        <ele>53.4</ele>
        <time>2021-01-03T14:27:59Z</time>
      </trkpt>
      <trkpt lat="43.64557" lon="3.79597">
        <ele>53.5</ele>
        <time>2021-01-03T14:28:00Z</time>
      </trkpt>
      <trkpt lat="43.64555" lon="3.79601">
        <ele>59</ele>
        <time>2021-01-03T14:28:01Z</time>
      </trkpt>
      <trkpt lat="43.64554" lon="3.79605">
        <ele>53.7</ele>
        <time>2021-01-03T14:28:02Z</time>
      </trkpt>
      <trkpt lat="43.64552" lon="3.79609">
        <ele>53.7</ele>
        <time>2021-01-03T14:28:03Z</time>
      </trkpt>
      <trkpt lat="43.64551" lon="3.79613">
        <ele>53.7</ele>
        <time>2021-01-03T14:28:04Z</time>
      </trkpt>
      <trkpt lat="43.64549" lon="3.79617">
        <ele>53.5</ele>
        <time>2021-01-03T14:28:05Z</time>
      </trkpt>
      <trkpt lat="43.64547" lon="3.79621">
        <ele>53.4</ele>
        <time>2021-01-03T14:28:06Z</time>
      </trkpt>
      <trkpt lat="43.64546" lon="3.79625">
        <ele>53.3</ele>
        <time>2021-01-03T14:28:07Z</time>
      </trkpt>
      <trkpt lat="43.64544" lon="3.79629">
        <ele>53.2</ele>
        <time>2021-01-03T14:28:08Z</time>
      </trkpt>
      <trkpt lat="43.64543" lon="3.79633">
        <ele>53.1</ele>
        <time>2021-01-03T14:28:09Z</time>
      </trkpt>
      <trkpt lat="43.64541" lon="3.79637">
        <ele>53</ele>
        <time>2021-01-03T14:28:10Z</time>
      </trkpt>
      <trkpt lat="43.64539" lon="3.79641">
        <ele>59</ele>
        <time>2021-01-03T14:28:11Z</time>
      </trkpt>
      <trkpt lat="43.64537" lon="3.79644">
        <ele>52.9</ele>
        <time>2021-01-03T14:28:12Z</time>
      </trkpt>
      <trkpt lat="43.64536" lon="3.79648">
        <ele>53.1</ele>
        <time>2021-01-03T14:28:13Z</time>
      </trkpt>
      <trkpt lat="43.64534" lon="3.79651">
        <ele>53.1</ele>
        <time>2021-01-03T14:28:14Z</time>
      </trkpt>
      <trkpt lat="43.64533" lon="3.79655">
        <ele>53.3</ele>
        <time>2021-01-03T14:28:15Z</time>
      </trkpt>
      <trkpt lat="43.64531" lon="3.79659">
        <ele>53.5</ele>
        <time>2021-01-03T14:28:16Z</time>
      </trkpt>
      <trkpt lat="43.6453" lon="3.79663">
        <ele>53.8</ele>
        <time>2021-01-03T14:28:17Z</time>
      </trkpt>
      <trkpt lat="43.64528" lon="3.79667">
        <ele>54</ele>
        <time>2021-01-03T14:28:18Z</time>
      </trkpt>
      <trkpt lat="43.64527" lon="3.79671">
        <ele>54</ele>
        <time>2021-01-03T14:28:19Z</time>
      </trkpt>
      <trkpt lat="43.64526" lon="3.79675">
        <ele>54</ele>
        <time>2021-01-03T14:28:20Z</time>
      </trkpt>
      <trkpt lat="43.64525" lon="3.79679">
        <ele>59</ele>
        <time>2021-01-03T14:28:21Z</time>
      </trkpt>
      <trkpt lat="43.64524" lon="3.79684">
        <ele>53.8</ele>
        <time>2021-01-03T14:28:22Z</time>
      </trkpt>
      <trkpt lat="43.64522" lon="3.79687">
        <ele>53.7</ele>
        <time>2021-01-03T14:28:23Z</time>
      </trkpt>
      <trkpt lat="43.64521" lon="3.79691">
        <ele>53.6</ele>
        <time>2021-01-03T14:28:24Z</time>
      </trkpt>
      <trkpt lat="43.6452" lon="3.79695">
        <ele>53.5</ele>
        <time>2021-01-03T14:28:25Z</time>
      </trkpt>
      <trkpt lat="43.64519" lon="3.79699">
        <ele>53.5</ele>
        <time>2021-01-03T14:28:26Z</time>
      </trkpt>
      <trkpt lat="43.64517" lon="3.79703">
        <ele>53.5</ele>
        <time>2021-01-03T14:28:27Z</time>
      </trkpt>
      <trkpt lat="43.64515" lon="3.79707">
        <ele>53.5</ele>
        <time>2021-01-03T14:28:28Z</time>
      </trkpt>
      <trkpt lat="43.64513" lon="3.79711">
        <ele>53.5</ele>
        <time>2021-01-03T14:28:29Z</time>
      </trkpt>
      <trkpt lat="43.64511" lon="3.79715">
        <ele>53.5</ele>
        <time>2021-01-03T14:28:30Z</time>
      </trkpt>
      <trkpt lat="43.64509" lon="3.7972">
        <ele>60</ele>
        <time>2021-01-03T14:28:31Z</time>
      </trkpt>
      <trkpt lat="43.64508" lon="3.79724">
        <ele>53.6</ele>
        <time>2021-01-03T14:28:32Z</time>
      </trkpt>
      <trkpt lat="43.64506" lon="3.79729">
        <ele>53.6</ele>
        <time>2021-01-03T14:28:33Z</time>
      </trkpt>
      <trkpt lat="43.64504" lon="3.79732">
        <ele>53.6</ele>
        <time>2021-01-03T14:28:34Z</time>
      </trkpt>
      <trkpt lat="43.64502" lon="3.79736">
        <ele>53.6</ele>
        <time>2021-01-03T14:28:35Z</time>
      </trkpt>
      <trkpt lat="43.645" lon="3.7974">
        <ele>53.6</ele>
        <time>2021-01-03T14:28:36Z</time>
      </trkpt>
      <trkpt lat="43.64497" lon="3.79743">
        <ele>53.6</ele>
        <time>2021-01-03T14:28:37Z</time>
      </trkpt>
      <trkpt lat="43.64495" lon="3.79746">
        <ele>53.5</ele>
        <time>2021-01-03T14:28:38Z</time>
      </trkpt>
      <trkpt lat="43.64493" lon="3.79749">
        <ele>53.5</ele>
        <time>2021-01-03T14:28:39Z</time>
      </trkpt>
      <trkpt lat="43.6449" lon="3.79752">
        <ele>53.4</ele>
        <time>2021-01-03T14:28:40Z</time>
      </trkpt>
      <trkpt lat="43.64488" lon="3.79754">
        <ele>53.4</ele>
        <time>2021-01-03T14:28:41Z</time>
      </trkpt>
      <trkpt lat="43.64485" lon="3.79757">
        <ele>60</ele>
        <time>2021-01-03T14:28:42Z</time>
      </trkpt>
      <trkpt lat="43.64482" lon="3.79759">
        <ele>53.4</ele>
        <time>2021-01-03T14:28:43Z</time>
      </trkpt>
      <trkpt lat="43.64479" lon="3.79761">
        <ele>53.5</ele>
        <time>2021-01-03T14:28:44Z</time>
      </trkpt>
      <trkpt lat="43.64476" lon="3.79764">
        <ele>53.6</ele>
        <time>2021-01-03T14:28:45Z</time>
      </trkpt>
      <trkpt lat="43.64472" lon="3.79766">
        <ele>53.7</ele>
        <time>2021-01-03T14:28:46Z</time>
      </trkpt>
      <trkpt lat="43.64469" lon="3.79768">
        <ele>53.8</ele>
        <time>2021-01-03T14:28:47Z</time>
      </trkpt>
      <trkpt lat="43.64466" lon="3.7977">
        <ele>53.9</ele>
        <time>2021-01-03T14:28:48Z</time>
      </trkpt>
      <trkpt lat="43.64464" lon="3.79773">
        <ele>54</ele>
        <time>2021-01-03T14:28:49Z</time>
      </trkpt>
      <trkpt lat="43.64462" lon="3.79777">
        <ele>54.2</ele>
        <time>2021-01-03T14:28:50Z</time>
      </trkpt>
      <trkpt lat="43.6446" lon="3.79781">
        <ele>61</ele>
        <time>2021-01-03T14:28:51Z</time>
      </trkpt>
      <trkpt lat="43.64457" lon="3.79783">
        <ele>54.1</ele>
        <time>2021-01-03T14:28:52Z</time>
      </trkpt>
      <trkpt lat="43.64454" lon="3.79784">
        <ele>54</ele>
        <time>2021-01-03T14:28:53Z</time>
      </trkpt>
      <trkpt lat="43.64451" lon="3.79784">
        <ele>53.8</ele>
        <time>2021-01-03T14:28:54Z</time>
      </trkpt>
      <trkpt lat="43.64448" lon="3.79785">
        <ele>53.7</ele>
        <time>2021-01-03T14:28:55Z</time>
      </trkpt>
      <trkpt lat="43.64445" lon="3.79787">
        <ele>53.7</ele>
        <time>2021-01-03T14:28:56Z</time>
      </trkpt>
      <trkpt lat="43.64441" lon="3.79789">
        <ele>53.8</ele>
        <time>2021-01-03T14:28:57Z</time>
      </trkpt>
      <trkpt lat="43.64436" lon="3.7979">
        <ele>53.7</ele>
        <time>2021-01-03T14:28:58Z</time>
      </trkpt>
      <trkpt lat="43.64431" lon="3.79791">
        <ele>53.7</ele>
        <time>2021-01-03T14:28:59Z</time>
      </trkpt>
      <trkpt lat="43.64425" lon="3.79791">
        <ele>53.6</ele>
        <time>2021-01-03T14:29:00Z</time>
      </trkpt>
      <trkpt lat="43.6442" lon="3.7979">
        <ele>61</ele>
        <time>2021-01-03T14:29:01Z</time>
      </trkpt>
      <trkpt lat="43.64416" lon="3.79788">
        <ele>53.4</ele>
        <time>2021-01-03T14:29:02Z</time>
      </trkpt>
      <trkpt lat="43.64413" lon="3.79787">
        <ele>53.3</ele>
        <time>2021-01-03T14:29:03Z</time>
      </trkpt>
      <trkpt lat="43.6441" lon="3.79787">
        <ele>53.3</ele>
        <time>2021-01-03T14:29:04Z</time>
      </trkpt>
      <trkpt lat="43.64408" lon="3.79788">
        <ele>53.3</ele>
        <time>2021-01-03T14:29:05Z</time>
      </trkpt>
      <trkpt lat="43.64405" lon="3.79787">
        <ele>53.2</ele>
        <time>2021-01-03T14:29:06Z</time>
      </trkpt>
      <trkpt lat="43.64403" lon="3.79786">
        <ele>53.2</ele>
        <time>2021-01-03T14:29:07Z</time>
      </trkpt>
      <trkpt lat="43.644" lon="3.79785">
        <ele>53.1</ele>
        <time>2021-01-03T14:29:08Z</time>
      </trkpt>
      <trkpt lat="43.64396" lon="3.79784">
        <ele>53.1</ele>
        <time>2021-01-03T14:29:09Z</time>
      </trkpt>
      <trkpt lat="43.64392" lon="3.79782">
        <ele>53</ele>
        <time>2021-01-03T14:29:10Z</time>
      </trkpt>
      <trkpt lat="43.64388" lon="3.79782">
        <ele>60</ele>
        <time>2021-01-03T14:29:11Z</time>
      </trkpt>
      <trkpt lat="43.64383" lon="3.79782">
        <ele>53</ele>
        <time>2021-01-03T14:29:12Z</time>
      </trkpt>
      <trkpt lat="43.64379" lon="3.79781">
        <ele>53</ele>
        <time>2021-01-03T14:29:13Z</time>
      </trkpt>
      <trkpt lat="43.64374" lon="3.79781">
        <ele>53</ele>
        <time>2021-01-03T14:29:14Z</time>
      </trkpt>
      <trkpt lat="43.6437" lon="3.79781">
        <ele>53</ele>
        <time>2021-01-03T14:29:15Z</time>
      </trkpt>
      <trkpt lat="43.64366" lon="3.79781">
        <ele>53</ele>
        <time>2021-01-03T14:29:16Z</time>
      </trkpt>
      <trkpt lat="43.64364" lon="3.79783">
        <ele>53</ele>
        <time>2021-01-03T14:29:17Z</time>
      </trkpt>
      <trkpt lat="43.64361" lon="3.79785">
        <ele>53</ele>
        <time>2021-01-03T14:29:18Z</time>
      </trkpt>
      <trkpt lat="43.64358" lon="3.79788">
        <ele>52.9</ele>
        <time>2021-01-03T14:29:19Z</time>
      </trkpt>
      <trkpt lat="43.64355" lon="3.7979">
        <ele>52.9</ele>
        <time>2021-01-03T14:29:20Z</time>
      </trkpt>
      <trkpt lat="43.64352" lon="3.79792">
        <ele>52.8</ele>
        <time>2021-01-03T14:29:21Z</time>
      </trkpt>
      <trkpt lat="43.64349" lon="3.79793">
        <ele>60</ele>
        <time>2021-01-03T14:29:22Z</time>
      </trkpt>
      <trkpt lat="43.64346" lon="3.79795">
        <ele>52.8</ele>
        <time>2021-01-03T14:29:23Z</time>
      </trkpt>
      <trkpt lat="43.64342" lon="3.79796">
        <ele>52.8</ele>
        <time>2021-01-03T14:29:24Z</time>
      </trkpt>
      <trkpt lat="43.64339" lon="3.79797">
        <ele>52.8</ele>
        <time>2021-01-03T14:29:25Z</time>
      </trkpt>
      <trkpt lat="43.64336" lon="3.79799">
        <ele>52.8</ele>
        <time>2021-01-03T14:29:26Z</time>
      </trkpt>
      <trkpt lat="43.64332" lon="3.79801">
        <ele>52.8</ele>
        <time>2021-01-03T14:29:27Z</time>
      </trkpt>
      <trkpt lat="43.64329" lon="3.79803">
        <ele>52.9</ele>
        <time>2021-01-03T14:29:28Z</time>
      </trkpt>
      <trkpt lat="43.64326" lon="3.79805">
        <ele>53</ele>
        <time>2021-01-03T14:29:29Z</time>
      </trkpt>
      <trkpt lat="43.64323" lon="3.79807">
        <ele>53</ele>
        <time>2021-01-03T14:29:30Z</time>
      </trkpt>
      <trkpt lat="43.6432" lon="3.79809">
        <ele>60</ele>
        <time>2021-01-03T14:29:31Z</time>
      </trkpt>
      <trkpt lat="43.64317" lon="3.79811">
        <ele>53</ele>
        <time>2021-01-03T14:29:32Z</time>
      </trkpt>
      <trkpt lat="43.64314" lon="3.79814">
        <ele>53</ele>
        <time>2021-01-03T14:29:33Z</time>
      </trkpt>
      <trkpt lat="43.64312" lon="3.79816">
        <ele>53</ele>
        <time>2021-01-03T14:29:34Z</time>
      </trkpt>
      <trkpt lat="43.64309" lon="3.79818">
        <ele>53</ele>
        <time>2021-01-03T14:29:35Z</time>
      </trkpt>
      <trkpt lat="43.64306" lon="3.79819">
        <ele>53</ele>
        <time>2021-01-03T14:29:36Z</time>
      </trkpt>
      <trkpt lat="43.64304" lon="3.79821">
        <ele>53.1</ele>
        <time>2021-01-03T14:29:37Z</time>
      </trkpt>
      <trkpt lat="43.64302" lon="3.79822">
        <ele>53.1</ele>
        <time>2021-01-03T14:29:38Z</time>
      </trkpt>
      <trkpt lat="43.64299" lon="3.79823">
        <ele>53.2</ele>
        <time>2021-01-03T14:29:39Z</time>
      </trkpt>
      <trkpt lat="43.64296" lon="3.79824">
        <ele>53.3</ele>
        <time>2021-01-03T14:29:40Z</time>
      </trkpt>
      <trkpt lat="43.64292" lon="3.79825">
        <ele>61</ele>
        <time>2021-01-03T14:29:41Z</time>
      </trkpt>
      <trkpt lat="43.64289" lon="3.79827">
        <ele>53.6</ele>
        <time>2021-01-03T14:29:42Z</time>
      </trkpt>
      <trkpt lat="43.64285" lon="3.79828">
        <ele>53.7</ele>
        <time>2021-01-03T14:29:43Z</time>
      </trkpt>
      <trkpt lat="43.64281" lon="3.79829">
        <ele>53.9</ele>
        <time>2021-01-03T14:29:44Z</time>
      </trkpt>
      <trkpt lat="43.64277" lon="3.79831">
        <ele>54</ele>
        <time>2021-01-03T14:29:45Z</time>
      </trkpt>
      <trkpt lat="43.64273" lon="3.79833">
        <ele>53.8</ele>
        <time>2021-01-03T14:29:46Z</time>
      </trkpt>
      <trkpt lat="43.64269" lon="3.79834">
        <ele>53.7</ele>
        <time>2021-01-03T14:29:47Z</time>
      </trkpt>
      <trkpt lat="43.64266" lon="3.79836">
        <ele>53.5</ele>
        <time>2021-01-03T14:29:48Z</time>
      </trkpt>
      <trkpt lat="43.64262" lon="3.79837">
        <ele>53.4</ele>
        <time>2021-01-03T14:29:49Z</time>
      </trkpt>
      <trkpt lat="43.64259" lon="3.79839">
        <ele>53.3</ele>
        <time>2021-01-03T14:29:50Z</time>
      </trkpt>
      <trkpt lat="43.64256" lon="3.79841">
        <ele>60</ele>
        <time>2021-01-03T14:29:51Z</time>
      </trkpt>
      <trkpt lat="43.64253" lon="3.79843">
        <ele>53.1</ele>
        <time>2021-01-03T14:29:52Z</time>
      </trkpt>
      <trkpt lat="43.6425" lon="3.79845">
        <ele>53</ele>
        <time>2021-01-03T14:29:53Z</time>
      </trkpt>
      <trkpt lat="43.64246" lon="3.79847">
        <ele>53</ele>
        <time>2021-01-03T14:29:54Z</time>
      </trkpt>
      <trkpt lat="43.64243" lon="3.79849">
        <ele>53</ele>
        <time>2021-01-03T14:29:55Z</time>
      </trkpt>
      <trkpt lat="43.64239" lon="3.79852">
        <ele>53</ele>
        <time>2021-01-03T14:29:56Z</time>
      </trkpt>
      <trkpt lat="43.64236" lon="3.79854">
        <ele>53</ele>
        <time>2021-01-03T14:29:57Z</time>
      </trkpt>
      <trkpt lat="43.64232" lon="3.79856">
        <ele>53</ele>
        <time>2021-01-03T14:29:58Z</time>
      </trkpt>
      <trkpt lat="43.64229" lon="3.79859">
        <ele>53</ele>
        <time>2021-01-03T14:29:59Z</time>
      </trkpt>
      <trkpt lat="43.64225" lon="3.79862">
        <ele>53</ele>
        <time>2021-01-03T14:30:00Z</time>
      </trkpt>
      <trkpt lat="43.64223" lon="3.79866">
        <ele>59</ele>
        <time>2021-01-03T14:30:01Z</time>
      </trkpt>
      <trkpt lat="43.64221" lon="3.79871">
        <ele>52.9</ele>
        <time>2021-01-03T14:30:02Z</time>
      </trkpt>
      <trkpt lat="43.64219" lon="3.79878">
        <ele>52.8</ele>
        <time>2021-01-03T14:30:03Z</time>
      </trkpt>
      <trkpt lat="43.64219" lon="3.79885">
        <ele>52.9</ele>
        <time>2021-01-03T14:30:04Z</time>
      </trkpt>
      <trkpt lat="43.64218" lon="3.79892">
        <ele>53</ele>
        <time>2021-01-03T14:30:05Z</time>
      </trkpt>
      <trkpt lat="43.64216" lon="3.79897">
        <ele>53.1</ele>
        <time>2021-01-03T14:30:06Z</time>
      </trkpt>
      <trkpt lat="43.64212" lon="3.79899">
        <ele>53.1</ele>
        <time>2021-01-03T14:30:07Z</time>
      </trkpt>
      <trkpt lat="43.64208" lon="3.79898">
        <ele>53</ele>
        <time>2021-01-03T14:30:08Z</time>
      </trkpt>
      <trkpt lat="43.64204" lon="3.79897">
        <ele>52.8</ele>
        <time>2021-01-03T14:30:09Z</time>
      </trkpt>
      <trkpt lat="43.642" lon="3.79896">
        <ele>52.7</ele>
        <time>2021-01-03T14:30:10Z</time>
      </trkpt>
      <trkpt lat="43.64196" lon="3.79896">
        <ele>57</ele>
        <time>2021-01-03T14:30:11Z</time>
      </trkpt>
      <trkpt lat="43.64192" lon="3.79897">
        <ele>52.4</ele>
        <time>2021-01-03T14:30:12Z</time>
      </trkpt>
      <trkpt lat="43.64187" lon="3.79899">
        <ele>52.3</ele>
        <time>2021-01-03T14:30:13Z</time>
      </trkpt>
      <trkpt lat="43.64184" lon="3.79902">
        <ele>52.4</ele>
        <time>2021-01-03T14:30:14Z</time>
      </trkpt>
      <trkpt lat="43.6418" lon="3.79905">
        <ele>52.4</ele>
        <time>2021-01-03T14:30:15Z</time>
      </trkpt>
      <trkpt lat="43.64176" lon="3.79908">
        <ele>52.5</ele>
        <time>2021-01-03T14:30:16Z</time>
      </trkpt>
      <trkpt lat="43.64173" lon="3.79911">
        <ele>52.7</ele>
        <time>2021-01-03T14:30:17Z</time>
      </trkpt>
      <trkpt lat="43.64169" lon="3.79914">
        <ele>52.8</ele>
        <time>2021-01-03T14:30:18Z</time>
      </trkpt>
      <trkpt lat="43.64165" lon="3.79916">
        <ele>52.8</ele>
        <time>2021-01-03T14:30:19Z</time>
      </trkpt>
      <trkpt lat="43.64162" lon="3.79918">
        <ele>52.7</ele>
        <time>2021-01-03T14:30:20Z</time>
      </trkpt>
      <trkpt lat="43.64158" lon="3.79921">
        <ele>57</ele>
        <time>2021-01-03T14:30:21Z</time>
      </trkpt>
      <trkpt lat="43.64155" lon="3.79923">
        <ele>52.8</ele>
        <time>2021-01-03T14:30:22Z</time>
      </trkpt>
      <trkpt lat="43.64152" lon="3.79926">
        <ele>52.9</ele>
        <time>2021-01-03T14:30:23Z</time>
      </trkpt>
      <trkpt lat="43.64149" lon="3.79929">
        <ele>53</ele>
        <time>2021-01-03T14:30:24Z</time>
      </trkpt>
      <trkpt lat="43.64146" lon="3.79931">
        <ele>53</ele>
        <time>2021-01-03T14:30:25Z</time>
      </trkpt>
      <trkpt lat="43.64143" lon="3.79934">
        <ele>53</ele>
        <time>2021-01-03T14:30:26Z</time>
      </trkpt>
      <trkpt lat="43.6414" lon="3.79936">
        <ele>52.9</ele>
        <time>2021-01-03T14:30:27Z</time>
      </trkpt>
      <trkpt lat="43.64137" lon="3.79938">
        <ele>52.9</ele>
        <time>2021-01-03T14:30:28Z</time>
      </trkpt>
      <trkpt lat="43.64134" lon="3.79941">
        <ele>53.1</ele>
        <time>2021-01-03T14:30:29Z</time>
      </trkpt>
      <trkpt lat="43.64131" lon="3.79942">
        <ele>52.9</ele>
        <time>2021-01-03T14:30:30Z</time>
      </trkpt>
      <trkpt lat="43.64128" lon="3.79944">
        <ele>58</ele>
        <time>2021-01-03T14:30:31Z</time>
      </trkpt>
      <trkpt lat="43.64124" lon="3.79946">
        <ele>52.8</ele>
        <time>2021-01-03T14:30:32Z</time>
      </trkpt>
      <trkpt lat="43.64121" lon="3.79948">
        <ele>53</ele>
        <time>2021-01-03T14:30:33Z</time>
      </trkpt>
      <trkpt lat="43.64118" lon="3.7995">
        <ele>53.1</ele>
        <time>2021-01-03T14:30:34Z</time>
      </trkpt>
      <trkpt lat="43.64116" lon="3.79952">
        <ele>53.4</ele>
        <time>2021-01-03T14:30:35Z</time>
      </trkpt>
      <trkpt lat="43.64113" lon="3.79955">
        <ele>53.6</ele>
        <time>2021-01-03T14:30:36Z</time>
      </trkpt>
      <trkpt lat="43.6411" lon="3.79957">
        <ele>53.6</ele>
        <time>2021-01-03T14:30:37Z</time>
      </trkpt>
      <trkpt lat="43.64107" lon="3.7996">
        <ele>53.8</ele>
        <time>2021-01-03T14:30:38Z</time>
      </trkpt>
      <trkpt lat="43.64103" lon="3.79963">
        <ele>53.7</ele>
        <time>2021-01-03T14:30:39Z</time>
      </trkpt>
      <trkpt lat="43.641" lon="3.79966">
        <ele>53.7</ele>
        <time>2021-01-03T14:30:40Z</time>
      </trkpt>
      <trkpt lat="43.64096" lon="3.79969">
        <ele>53.4</ele>
        <time>2021-01-03T14:30:41Z</time>
      </trkpt>
      <trkpt lat="43.64093" lon="3.79972">
        <ele>57</ele>
        <time>2021-01-03T14:30:42Z</time>
      </trkpt>
      <trkpt lat="43.64089" lon="3.79975">
        <ele>53</ele>
        <time>2021-01-03T14:30:43Z</time>
      </trkpt>
      <trkpt lat="43.64086" lon="3.79977">
        <ele>52.8</ele>
        <time>2021-01-03T14:30:44Z</time>
      </trkpt>
      <trkpt lat="43.64083" lon="3.7998">
        <ele>52.9</ele>
        <time>2021-01-03T14:30:45Z</time>
      </trkpt>
      <trkpt lat="43.64079" lon="3.79982">
        <ele>53</ele>
        <time>2021-01-03T14:30:46Z</time>
      </trkpt>
      <trkpt lat="43.64075" lon="3.79984">
        <ele>53</ele>
        <time>2021-01-03T14:30:47Z</time>
      </trkpt>
      <trkpt lat="43.64071" lon="3.79987">
        <ele>53.1</ele>
        <time>2021-01-03T14:30:48Z</time>
      </trkpt>
      <trkpt lat="43.64068" lon="3.79989">
        <ele>53</ele>
        <time>2021-01-03T14:30:49Z</time>
      </trkpt>
      <trkpt lat="43.64065" lon="3.79992">
        <ele>53</ele>
        <time>2021-01-03T14:30:50Z</time>
      </trkpt>
      <trkpt lat="43.64061" lon="3.79994">
        <ele>58</ele>
        <time>2021-01-03T14:30:51Z</time>
      </trkpt>
      <trkpt lat="43.64057" lon="3.79996">
        <ele>52</ele>
        <time>2021-01-03T14:30:52Z</time>
      </trkpt>
      <trkpt lat="43.64054" lon="3.79999">
        <ele>51.8</ele>
        <time>2021-01-03T14:30:53Z</time>
      </trkpt>
      <trkpt lat="43.6405" lon="3.80002">
        <ele>52.2</ele>
        <time>2021-01-03T14:30:54Z</time>
      </trkpt>
      <trkpt lat="43.64047" lon="3.80004">
        <ele>52.6</ele>
        <time>2021-01-03T14:30:55Z</time>
      </trkpt>
      <trkpt lat="43.64043" lon="3.80007">
        <ele>52.9</ele>
        <time>2021-01-03T14:30:56Z</time>
      </trkpt>
      <trkpt lat="43.64039" lon="3.80011">
        <ele>53.4</ele>
        <time>2021-01-03T14:30:57Z</time>
      </trkpt>
      <trkpt lat="43.64036" lon="3.80014">
        <ele>53.5</ele>
        <time>2021-01-03T14:30:58Z</time>
      </trkpt>
      <trkpt lat="43.64032" lon="3.80016">
        <ele>53.1</ele>
        <time>2021-01-03T14:30:59Z</time>
      </trkpt>
      <trkpt lat="43.64029" lon="3.80019">
        <ele>53</ele>
        <time>2021-01-03T14:31:00Z</time>
      </trkpt>
      <trkpt lat="43.64025" lon="3.80022">
        <ele>58</ele>
        <time>2021-01-03T14:31:01Z</time>
      </trkpt>
      <trkpt lat="43.64022" lon="3.80024">
        <ele>52.8</ele>
        <time>2021-01-03T14:31:02Z</time>
      </trkpt>
      <trkpt lat="43.64019" lon="3.80026">
        <ele>52.6</ele>
        <time>2021-01-03T14:31:03Z</time>
      </trkpt>
      <trkpt lat="43.64017" lon="3.80029">
        <ele>52.9</ele>
        <time>2021-01-03T14:31:04Z</time>
      </trkpt>
      <trkpt lat="43.64014" lon="3.8003">
        <ele>52.7</ele>
        <time>2021-01-03T14:31:05Z</time>
      </trkpt>
      <trkpt lat="43.64011" lon="3.80032">
        <ele>52.9</ele>
        <time>2021-01-03T14:31:06Z</time>
      </trkpt>
      <trkpt lat="43.64009" lon="3.80034">
        <ele>53.2</ele>
        <time>2021-01-03T14:31:07Z</time>
      </trkpt>
      <trkpt lat="43.64007" lon="3.80035">
        <ele>53.1</ele>
        <time>2021-01-03T14:31:08Z</time>
      </trkpt>
      <trkpt lat="43.64004" lon="3.80038">
        <ele>53.4</ele>
        <time>2021-01-03T14:31:10Z</time>
      </trkpt>
      <trkpt lat="43.64001" lon="3.80041">
        <ele>53.5</ele>
        <time>2021-01-03T14:31:12Z</time>
      </trkpt>
      <trkpt lat="43.63999" lon="3.80042">
        <ele>53.5</ele>
        <time>2021-01-03T14:31:13Z</time>
      </trkpt>
      <trkpt lat="43.63996" lon="3.80044">
        <ele>53.6</ele>
        <time>2021-01-03T14:31:14Z</time>
      </trkpt>
      <trkpt lat="43.63993" lon="3.80046">
        <ele>53.6</ele>
        <time>2021-01-03T14:31:15Z</time>
      </trkpt>
      <trkpt lat="43.6399" lon="3.80048">
        <ele>53.5</ele>
        <time>2021-01-03T14:31:16Z</time>
      </trkpt>
      <trkpt lat="43.63988" lon="3.8005">
        <ele>53.5</ele>
        <time>2021-01-03T14:31:17Z</time>
      </trkpt>
      <trkpt lat="43.63986" lon="3.80052">
        <ele>53.5</ele>
        <time>2021-01-03T14:31:18Z</time>
      </trkpt>
      <trkpt lat="43.63983" lon="3.80055">
        <ele>53.3</ele>
        <time>2021-01-03T14:31:19Z</time>
      </trkpt>
      <trkpt lat="43.6398" lon="3.80057">
        <ele>53.3</ele>
        <time>2021-01-03T14:31:20Z</time>
      </trkpt>
      <trkpt lat="43.63977" lon="3.80059">
        <ele>58</ele>
        <time>2021-01-03T14:31:21Z</time>
      </trkpt>
      <trkpt lat="43.63974" lon="3.80062">
        <ele>54</ele>
        <time>2021-01-03T14:31:22Z</time>
      </trkpt>
      <trkpt lat="43.63971" lon="3.80064">
        <ele>54.2</ele>
        <time>2021-01-03T14:31:23Z</time>
      </trkpt>
      <trkpt lat="43.63968" lon="3.80066">
        <ele>54.5</ele>
        <time>2021-01-03T14:31:24Z</time>
      </trkpt>
      <trkpt lat="43.63964" lon="3.80068">
        <ele>54.7</ele>
        <time>2021-01-03T14:31:25Z</time>
      </trkpt>
      <trkpt lat="43.63961" lon="3.8007">
        <ele>54.9</ele>
        <time>2021-01-03T14:31:26Z</time>
      </trkpt>
      <trkpt lat="43.63957" lon="3.80072">
        <ele>54.8</ele>
        <time>2021-01-03T14:31:27Z</time>
      </trkpt>
      <trkpt lat="43.63954" lon="3.80074">
        <ele>54.8</ele>
        <time>2021-01-03T14:31:28Z</time>
      </trkpt>
      <trkpt lat="43.63949" lon="3.80075">
        <ele>54.1</ele>
        <time>2021-01-03T14:31:29Z</time>
      </trkpt>
      <trkpt lat="43.63945" lon="3.80077">
        <ele>53.7</ele>
        <time>2021-01-03T14:31:30Z</time>
      </trkpt>
      <trkpt lat="43.63941" lon="3.80078">
        <ele>58</ele>
        <time>2021-01-03T14:31:31Z</time>
      </trkpt>
      <trkpt lat="43.63938" lon="3.80081">
        <ele>53.5</ele>
        <time>2021-01-03T14:31:32Z</time>
      </trkpt>
      <trkpt lat="43.63934" lon="3.80083">
        <ele>53.1</ele>
        <time>2021-01-03T14:31:33Z</time>
      </trkpt>
      <trkpt lat="43.63929" lon="3.80085">
        <ele>52.8</ele>
        <time>2021-01-03T14:31:34Z</time>
      </trkpt>
      <trkpt lat="43.63925" lon="3.80087">
        <ele>52.8</ele>
        <time>2021-01-03T14:31:35Z</time>
      </trkpt>
      <trkpt lat="43.63921" lon="3.80089">
        <ele>52.7</ele>
        <time>2021-01-03T14:31:36Z</time>
      </trkpt>
      <trkpt lat="43.63917" lon="3.80091">
        <ele>52.6</ele>
        <time>2021-01-03T14:31:37Z</time>
      </trkpt>
      <trkpt lat="43.63914" lon="3.80093">
        <ele>52.8</ele>
        <time>2021-01-03T14:31:38Z</time>
      </trkpt>
      <trkpt lat="43.6391" lon="3.80096">
        <ele>53.2</ele>
        <time>2021-01-03T14:31:39Z</time>
      </trkpt>
      <trkpt lat="43.63906" lon="3.80097">
        <ele>52.9</ele>
        <time>2021-01-03T14:31:40Z</time>
      </trkpt>
      <trkpt lat="43.63901" lon="3.80099">
        <ele>58</ele>
        <time>2021-01-03T14:31:41Z</time>
      </trkpt>
      <trkpt lat="43.63897" lon="3.801">
        <ele>52.1</ele>
        <time>2021-01-03T14:31:42Z</time>
      </trkpt>
      <trkpt lat="43.63893" lon="3.80101">
        <ele>51.6</ele>
        <time>2021-01-03T14:31:43Z</time>
      </trkpt>
      <trkpt lat="43.6389" lon="3.80103">
        <ele>51.3</ele>
        <time>2021-01-03T14:31:44Z</time>
      </trkpt>
      <trkpt lat="43.63886" lon="3.80106">
        <ele>51.3</ele>
        <time>2021-01-03T14:31:45Z</time>
      </trkpt>
      <trkpt lat="43.63883" lon="3.80109">
        <ele>51.4</ele>
        <time>2021-01-03T14:31:46Z</time>
      </trkpt>
      <trkpt lat="43.6388" lon="3.80109">
        <ele>51.2</ele>
        <time>2021-01-03T14:31:47Z</time>
      </trkpt>
      <trkpt lat="43.63876" lon="3.80109">
        <ele>51</ele>
        <time>2021-01-03T14:31:48Z</time>
      </trkpt>
      <trkpt lat="43.63873" lon="3.8011">
        <ele>50.8</ele>
        <time>2021-01-03T14:31:49Z</time>
      </trkpt>
      <trkpt lat="43.63871" lon="3.8011">
        <ele>50.7</ele>
        <time>2021-01-03T14:31:50Z</time>
      </trkpt>
      <trkpt lat="43.63869" lon="3.80109">
        <ele>50.6</ele>
        <time>2021-01-03T14:31:52Z</time>
      </trkpt>
      <trkpt lat="43.63865" lon="3.8011">
        <ele>57</ele>
        <time>2021-01-03T14:32:03Z</time>
      </trkpt>
      <trkpt lat="43.63856" lon="3.80114">
        <ele>59</ele>
        <time>2021-01-03T14:32:25Z</time>
      </trkpt>
      <trkpt lat="43.63853" lon="3.80116">
        <ele>49.9</ele>
        <time>2021-01-03T14:32:26Z</time>
      </trkpt>
      <trkpt lat="43.6385" lon="3.80118">
        <ele>49.9</ele>
        <time>2021-01-03T14:32:27Z</time>
      </trkpt>
      <trkpt lat="43.63847" lon="3.80119">
        <ele>49.8</ele>
        <time>2021-01-03T14:32:28Z</time>
      </trkpt>
      <trkpt lat="43.63844" lon="3.8012">
        <ele>49.7</ele>
        <time>2021-01-03T14:32:29Z</time>
      </trkpt>
      <trkpt lat="43.63841" lon="3.80122">
        <ele>49.7</ele>
        <time>2021-01-03T14:32:30Z</time>
      </trkpt>
      <trkpt lat="43.63837" lon="3.80125">
        <ele>49.8</ele>
        <time>2021-01-03T14:32:31Z</time>
      </trkpt>
      <trkpt lat="43.63833" lon="3.80128">
        <ele>49.8</ele>
        <time>2021-01-03T14:32:32Z</time>
      </trkpt>
      <trkpt lat="43.63829" lon="3.8013">
        <ele>49.9</ele>
        <time>2021-01-03T14:32:33Z</time>
      </trkpt>
      <trkpt lat="43.63826" lon="3.80131">
        <ele>59</ele>
        <time>2021-01-03T14:32:34Z</time>
      </trkpt>
      <trkpt lat="43.63821" lon="3.80134">
        <ele>49.7</ele>
        <time>2021-01-03T14:32:35Z</time>
      </trkpt>
      <trkpt lat="43.63816" lon="3.80138">
        <ele>49.2</ele>
        <time>2021-01-03T14:32:36Z</time>
      </trkpt>
      <trkpt lat="43.63812" lon="3.80141">
        <ele>48.9</ele>
        <time>2021-01-03T14:32:37Z</time>
      </trkpt>
      <trkpt lat="43.63809" lon="3.80144">
        <ele>48.9</ele>
        <time>2021-01-03T14:32:38Z</time>
      </trkpt>
      <trkpt lat="43.63805" lon="3.80147">
        <ele>48.9</ele>
        <time>2021-01-03T14:32:39Z</time>
      </trkpt>
      <trkpt lat="43.63801" lon="3.8015">
        <ele>49.3</ele>
        <time>2021-01-03T14:32:40Z</time>
      </trkpt>
      <trkpt lat="43.63797" lon="3.80154">
        <ele>49.6</ele>
        <time>2021-01-03T14:32:41Z</time>
      </trkpt>
      <trkpt lat="43.63794" lon="3.80156">
        <ele>49.7</ele>
        <time>2021-01-03T14:32:42Z</time>
      </trkpt>
      <trkpt lat="43.63792" lon="3.80158">
        <ele>49.7</ele>
        <time>2021-01-03T14:32:43Z</time>
      </trkpt>
      <trkpt lat="43.6379" lon="3.8016">
        <ele>49.7</ele>
        <time>2021-01-03T14:32:44Z</time>
      </trkpt>
      <trkpt lat="43.6379" lon="3.80161">
        <ele>57</ele>
        <time>2021-01-03T14:32:51Z</time>
      </trkpt>
      <trkpt lat="43.63781" lon="3.80169">
        <ele>56</ele>
        <time>2021-01-03T14:33:19Z</time>
      </trkpt>
      <trkpt lat="43.63778" lon="3.80172">
        <ele>49.4</ele>
        <time>2021-01-03T14:33:20Z</time>
      </trkpt>
      <trkpt lat="43.63775" lon="3.80175">
        <ele>49.7</ele>
        <time>2021-01-03T14:33:21Z</time>
      </trkpt>
      <trkpt lat="43.63773" lon="3.80178">
        <ele>49.8</ele>
        <time>2021-01-03T14:33:22Z</time>
      </trkpt>
      <trkpt lat="43.63771" lon="3.80182">
        <ele>49.9</ele>
        <time>2021-01-03T14:33:23Z</time>
      </trkpt>
      <trkpt lat="43.6377" lon="3.80186">
        <ele>50</ele>
        <time>2021-01-03T14:33:24Z</time>
      </trkpt>
      <trkpt lat="43.63768" lon="3.80191">
        <ele>49.9</ele>
        <time>2021-01-03T14:33:25Z</time>
      </trkpt>
      <trkpt lat="43.63767" lon="3.80196">
        <ele>49.9</ele>
        <time>2021-01-03T14:33:26Z</time>
      </trkpt>
      <trkpt lat="43.63767" lon="3.802">
        <ele>49.9</ele>
        <time>2021-01-03T14:33:27Z</time>
      </trkpt>
      <trkpt lat="43.63767" lon="3.80203">
        <ele>55</ele>
        <time>2021-01-03T14:33:28Z</time>
      </trkpt>
      <trkpt lat="43.63767" lon="3.80206">
        <ele>50</ele>
        <time>2021-01-03T14:33:29Z</time>
      </trkpt>
      <trkpt lat="43.63767" lon="3.8021">
        <ele>50.1</ele>
        <time>2021-01-03T14:33:31Z</time>
      </trkpt>
      <trkpt lat="43.63768" lon="3.80213">
        <ele>50.2</ele>
        <time>2021-01-03T14:33:32Z</time>
      </trkpt>
      <trkpt lat="43.63769" lon="3.80217">
        <ele>50.3</ele>
        <time>2021-01-03T14:33:33Z</time>
      </trkpt>
      <trkpt lat="43.6377" lon="3.80222">
        <ele>50.4</ele>
        <time>2021-01-03T14:33:34Z</time>
      </trkpt>
      <trkpt lat="43.6377" lon="3.80226">
        <ele>50.4</ele>
        <time>2021-01-03T14:33:35Z</time>
      </trkpt>
      <trkpt lat="43.63771" lon="3.8023">
        <ele>50.4</ele>
        <time>2021-01-03T14:33:36Z</time>
      </trkpt>
      <trkpt lat="43.63772" lon="3.80234">
        <ele>50.3</ele>
        <time>2021-01-03T14:33:37Z</time>
      </trkpt>
      <trkpt lat="43.63773" lon="3.80238">
        <ele>50.3</ele>
        <time>2021-01-03T14:33:38Z</time>
      </trkpt>
      <trkpt lat="43.63773" lon="3.80245">
        <ele>55</ele>
        <time>2021-01-03T14:33:39Z</time>
      </trkpt>
      <trkpt lat="43.63773" lon="3.80249">
        <ele>50</ele>
        <time>2021-01-03T14:33:40Z</time>
      </trkpt>
      <trkpt lat="43.63773" lon="3.80254">
        <ele>50.2</ele>
        <time>2021-01-03T14:33:41Z</time>
      </trkpt>
      <trkpt lat="43.63773" lon="3.80258">
        <ele>50.4</ele>
        <time>2021-01-03T14:33:42Z</time>
      </trkpt>
      <trkpt lat="43.63772" lon="3.80263">
        <ele>50.9</ele>
        <time>2021-01-03T14:33:43Z</time>
      </trkpt>
      <trkpt lat="43.63772" lon="3.80267">
        <ele>51.1</ele>
        <time>2021-01-03T14:33:44Z</time>
      </trkpt>
      <trkpt lat="43.63772" lon="3.80272">
        <ele>51.5</ele>
        <time>2021-01-03T14:33:45Z</time>
      </trkpt>
      <trkpt lat="43.63773" lon="3.80277">
        <ele>51.5</ele>
        <time>2021-01-03T14:33:46Z</time>
      </trkpt>
      <trkpt lat="43.63774" lon="3.80282">
        <ele>51.2</ele>
        <time>2021-01-03T14:33:47Z</time>
      </trkpt>
      <trkpt lat="43.63775" lon="3.80288">
        <ele>50.7</ele>
        <time>2021-01-03T14:33:49Z</time>
      </trkpt>
      <trkpt lat="43.63776" lon="3.80293">
        <ele>50.2</ele>
        <time>2021-01-03T14:33:50Z</time>
      </trkpt>
      <trkpt lat="43.63778" lon="3.80298">
        <ele>49.3</ele>
        <time>2021-01-03T14:33:51Z</time>
      </trkpt>
      <trkpt lat="43.6378" lon="3.80302">
        <ele>49.4</ele>
        <time>2021-01-03T14:33:52Z</time>
      </trkpt>
      <trkpt lat="43.63781" lon="3.80307">
        <ele>49.3</ele>
        <time>2021-01-03T14:33:53Z</time>
      </trkpt>
      <trkpt lat="43.63782" lon="3.80311">
        <ele>49.4</ele>
        <time>2021-01-03T14:33:54Z</time>
      </trkpt>
      <trkpt lat="43.63784" lon="3.80314">
        <ele>49.6</ele>
        <time>2021-01-03T14:33:55Z</time>
      </trkpt>
      <trkpt lat="43.63786" lon="3.80317">
        <ele>49.8</ele>
        <time>2021-01-03T14:33:56Z</time>
      </trkpt>
      <trkpt lat="43.63787" lon="3.80322">
        <ele>49.8</ele>
        <time>2021-01-03T14:33:57Z</time>
      </trkpt>
      <trkpt lat="43.63789" lon="3.80326">
        <ele>49.9</ele>
        <time>2021-01-03T14:33:58Z</time>
      </trkpt>
      <trkpt lat="43.63791" lon="3.80331">
        <ele>55</ele>
        <time>2021-01-03T14:33:59Z</time>
      </trkpt>
      <trkpt lat="43.63792" lon="3.80335">
        <ele>50.1</ele>
        <time>2021-01-03T14:34:00Z</time>
      </trkpt>
      <trkpt lat="43.63794" lon="3.80339">
        <ele>50.2</ele>
        <time>2021-01-03T14:34:01Z</time>
      </trkpt>
      <trkpt lat="43.63795" lon="3.80342">
        <ele>50.3</ele>
        <time>2021-01-03T14:34:02Z</time>
      </trkpt>
      <trkpt lat="43.63797" lon="3.80345">
        <ele>50.4</ele>
        <time>2021-01-03T14:34:03Z</time>
      </trkpt>
      <trkpt lat="43.63798" lon="3.80348">
        <ele>50.4</ele>
        <time>2021-01-03T14:34:04Z</time>
      </trkpt>
      <trkpt lat="43.63799" lon="3.80351">
        <ele>50.3</ele>
        <time>2021-01-03T14:34:05Z</time>
      </trkpt>
      <trkpt lat="43.63801" lon="3.80355">
        <ele>50.3</ele>
        <time>2021-01-03T14:34:06Z</time>
      </trkpt>
      <trkpt lat="43.63802" lon="3.80359">
        <ele>50.2</ele>
        <time>2021-01-03T14:34:07Z</time>
      </trkpt>
      <trkpt lat="43.63804" lon="3.80364">
        <ele>55</ele>
        <time>2021-01-03T14:34:08Z</time>
      </trkpt>
      <trkpt lat="43.63806" lon="3.80369">
        <ele>49.8</ele>
        <time>2021-01-03T14:34:09Z</time>
      </trkpt>
      <trkpt lat="43.63807" lon="3.80375">
        <ele>49.6</ele>
        <time>2021-01-03T14:34:10Z</time>
      </trkpt>
      <trkpt lat="43.63809" lon="3.8038">
        <ele>49.7</ele>
        <time>2021-01-03T14:34:11Z</time>
      </trkpt>
      <trkpt lat="43.6381" lon="3.80386">
        <ele>49.6</ele>
        <time>2021-01-03T14:34:12Z</time>
      </trkpt>
      <trkpt lat="43.63813" lon="3.80391">
        <ele>49.8</ele>
        <time>2021-01-03T14:34:13Z</time>
      </trkpt>
      <trkpt lat="43.63815" lon="3.80396">
        <ele>49.9</ele>
        <time>2021-01-03T14:34:14Z</time>
      </trkpt>
      <trkpt lat="43.63817" lon="3.804">
        <ele>50.1</ele>
        <time>2021-01-03T14:34:15Z</time>
      </trkpt>
      <trkpt lat="43.63821" lon="3.80402">
        <ele>50.4</ele>
        <time>2021-01-03T14:34:16Z</time>
      </trkpt>
      <trkpt lat="43.63824" lon="3.80403">
        <ele>50.7</ele>
        <time>2021-01-03T14:34:17Z</time>
      </trkpt>
      <trkpt lat="43.63827" lon="3.80404">
        <ele>55</ele>
        <time>2021-01-03T14:34:18Z</time>
      </trkpt>
      <trkpt lat="43.6383" lon="3.80404">
        <ele>51.2</ele>
        <time>2021-01-03T14:34:19Z</time>
      </trkpt>
      <trkpt lat="43.63832" lon="3.80404">
        <ele>51.3</ele>
        <time>2021-01-03T14:34:20Z</time>
      </trkpt>
      <trkpt lat="43.63834" lon="3.80402">
        <ele>51.6</ele>
        <time>2021-01-03T14:34:21Z</time>
      </trkpt>
      <trkpt lat="43.63836" lon="3.804">
        <ele>51.7</ele>
        <time>2021-01-03T14:34:22Z</time>
      </trkpt>
      <trkpt lat="43.63838" lon="3.80399">
        <ele>51.8</ele>
        <time>2021-01-03T14:34:23Z</time>
      </trkpt>
      <trkpt lat="43.63841" lon="3.804">
        <ele>51.9</ele>
        <time>2021-01-03T14:34:24Z</time>
      </trkpt>
      <trkpt lat="43.63843" lon="3.80402">
        <ele>51.9</ele>
        <time>2021-01-03T14:34:25Z</time>
      </trkpt>
      <trkpt lat="43.63845" lon="3.80405">
        <ele>51.8</ele>
        <time>2021-01-03T14:34:26Z</time>
      </trkpt>
      <trkpt lat="43.63847" lon="3.80407">
        <ele>51.8</ele>
        <time>2021-01-03T14:34:27Z</time>
      </trkpt>
      <trkpt lat="43.63849" lon="3.8041">
        <ele>54</ele>
        <time>2021-01-03T14:34:28Z</time>
      </trkpt>
      <trkpt lat="43.6385" lon="3.80413">
        <ele>51.7</ele>
        <time>2021-01-03T14:34:29Z</time>
      </trkpt>
      <trkpt lat="43.6385" lon="3.80416">
        <ele>51.6</ele>
        <time>2021-01-03T14:34:30Z</time>
      </trkpt>
      <trkpt lat="43.63852" lon="3.80418">
        <ele>51.6</ele>
        <time>2021-01-03T14:34:31Z</time>
      </trkpt>
      <trkpt lat="43.63853" lon="3.80421">
        <ele>51.5</ele>
        <time>2021-01-03T14:34:32Z</time>
      </trkpt>
      <trkpt lat="43.63855" lon="3.80423">
        <ele>51.5</ele>
        <time>2021-01-03T14:34:33Z</time>
      </trkpt>
      <trkpt lat="43.63856" lon="3.80426">
        <ele>51.4</ele>
        <time>2021-01-03T14:34:34Z</time>
      </trkpt>
      <trkpt lat="43.63858" lon="3.80428">
        <ele>51.4</ele>
        <time>2021-01-03T14:34:35Z</time>
      </trkpt>
      <trkpt lat="43.63859" lon="3.8043">
        <ele>51.4</ele>
        <time>2021-01-03T14:34:36Z</time>
      </trkpt>
      <trkpt lat="43.63861" lon="3.80432">
        <ele>51.4</ele>
        <time>2021-01-03T14:34:37Z</time>
      </trkpt>
      <trkpt lat="43.63862" lon="3.80435">
        <ele>54</ele>
        <time>2021-01-03T14:34:38Z</time>
      </trkpt>
      <trkpt lat="43.63864" lon="3.80437">
        <ele>51.5</ele>
        <time>2021-01-03T14:34:39Z</time>
      </trkpt>
      <trkpt lat="43.63865" lon="3.8044">
        <ele>51.4</ele>
        <time>2021-01-03T14:34:40Z</time>
      </trkpt>
      <trkpt lat="43.63866" lon="3.80442">
        <ele>51.4</ele>
        <time>2021-01-03T14:34:41Z</time>
      </trkpt>
      <trkpt lat="43.63868" lon="3.80443">
        <ele>51.5</ele>
        <time>2021-01-03T14:34:42Z</time>
      </trkpt>
      <trkpt lat="43.6387" lon="3.80445">
        <ele>51.6</ele>
        <time>2021-01-03T14:34:43Z</time>
      </trkpt>
      <trkpt lat="43.63871" lon="3.80447">
        <ele>51.6</ele>
        <time>2021-01-03T14:34:44Z</time>
      </trkpt>
      <trkpt lat="43.63873" lon="3.80449">
        <ele>51.6</ele>
        <time>2021-01-03T14:34:45Z</time>
      </trkpt>
      <trkpt lat="43.63875" lon="3.80451">
        <ele>51.6</ele>
        <time>2021-01-03T14:34:46Z</time>
      </trkpt>
      <trkpt lat="43.63876" lon="3.80453">
        <ele>51.6</ele>
        <time>2021-01-03T14:34:47Z</time>
      </trkpt>
      <trkpt lat="43.63878" lon="3.80455">
        <ele>55</ele>
        <time>2021-01-03T14:34:48Z</time>
      </trkpt>
      <trkpt lat="43.63879" lon="3.80457">
        <ele>51.7</ele>
        <time>2021-01-03T14:34:49Z</time>
      </trkpt>
      <trkpt lat="43.6388" lon="3.80461">
        <ele>51.6</ele>
        <time>2021-01-03T14:34:51Z</time>
      </trkpt>
      <trkpt lat="43.63882" lon="3.80465">
        <ele>51.6</ele>
        <time>2021-01-03T14:34:53Z</time>
      </trkpt>
      <trkpt lat="43.63883" lon="3.80468">
        <ele>51.5</ele>
        <time>2021-01-03T14:34:54Z</time>
      </trkpt>
      <trkpt lat="43.63884" lon="3.80471">
        <ele>51.5</ele>
        <time>2021-01-03T14:34:55Z</time>
      </trkpt>
      <trkpt lat="43.63886" lon="3.80474">
        <ele>51.6</ele>
        <time>2021-01-03T14:34:56Z</time>
      </trkpt>
      <trkpt lat="43.63887" lon="3.80476">
        <ele>51.7</ele>
        <time>2021-01-03T14:34:57Z</time>
      </trkpt>
      <trkpt lat="43.63888" lon="3.80478">
        <ele>55</ele>
        <time>2021-01-03T14:34:58Z</time>
      </trkpt>
      <trkpt lat="43.6389" lon="3.8048">
        <ele>51.9</ele>
        <time>2021-01-03T14:34:59Z</time>
      </trkpt>
      <trkpt lat="43.63891" lon="3.80482">
        <ele>52</ele>
        <time>2021-01-03T14:35:00Z</time>
      </trkpt>
      <trkpt lat="43.63892" lon="3.80484">
        <ele>52.1</ele>
        <time>2021-01-03T14:35:01Z</time>
      </trkpt>
      <trkpt lat="43.63893" lon="3.80488">
        <ele>52.1</ele>
        <time>2021-01-03T14:35:02Z</time>
      </trkpt>
      <trkpt lat="43.63893" lon="3.80491">
        <ele>52</ele>
        <time>2021-01-03T14:35:03Z</time>
      </trkpt>
      <trkpt lat="43.63893" lon="3.80494">
        <ele>51.9</ele>
        <time>2021-01-03T14:35:04Z</time>
      </trkpt>
      <trkpt lat="43.63892" lon="3.80498">
        <ele>51.6</ele>
        <time>2021-01-03T14:35:05Z</time>
      </trkpt>
      <trkpt lat="43.6389" lon="3.80502">
        <ele>51.1</ele>
        <time>2021-01-03T14:35:06Z</time>
      </trkpt>
      <trkpt lat="43.63888" lon="3.80505">
        <ele>50.7</ele>
        <time>2021-01-03T14:35:07Z</time>
      </trkpt>
      <trkpt lat="43.63886" lon="3.80508">
        <ele>55</ele>
        <time>2021-01-03T14:35:08Z</time>
      </trkpt>
      <trkpt lat="43.63884" lon="3.80511">
        <ele>50.1</ele>
        <time>2021-01-03T14:35:09Z</time>
      </trkpt>
      <trkpt lat="43.63882" lon="3.80515">
        <ele>49.9</ele>
        <time>2021-01-03T14:35:10Z</time>
      </trkpt>
      <trkpt lat="43.63881" lon="3.80517">
        <ele>49.8</ele>
        <time>2021-01-03T14:35:11Z</time>
      </trkpt>
      <trkpt lat="43.63878" lon="3.8052">
        <ele>49.6</ele>
        <time>2021-01-03T14:35:13Z</time>
      </trkpt>
      <trkpt lat="43.63879" lon="3.80525">
        <ele>49.6</ele>
        <time>2021-01-03T14:35:15Z</time>
      </trkpt>
      <trkpt lat="43.63881" lon="3.80529">
        <ele>49.7</ele>
        <time>2021-01-03T14:35:16Z</time>
      </trkpt>
      <trkpt lat="43.63882" lon="3.80533">
        <ele>49.8</ele>
        <time>2021-01-03T14:35:17Z</time>
      </trkpt>
      <trkpt lat="43.63883" lon="3.80537">
        <ele>55</ele>
        <time>2021-01-03T14:35:18Z</time>
      </trkpt>
      <trkpt lat="43.63884" lon="3.8054">
        <ele>49.8</ele>
        <time>2021-01-03T14:35:19Z</time>
      </trkpt>
      <trkpt lat="43.63885" lon="3.80544">
        <ele>49.9</ele>
        <time>2021-01-03T14:35:20Z</time>
      </trkpt>
      <trkpt lat="43.63884" lon="3.80547">
        <ele>49.8</ele>
        <time>2021-01-03T14:35:21Z</time>
      </trkpt>
      <trkpt lat="43.63884" lon="3.80551">
        <ele>49.8</ele>
        <time>2021-01-03T14:35:22Z</time>
      </trkpt>
      <trkpt lat="43.63885" lon="3.80554">
        <ele>49.9</ele>
        <time>2021-01-03T14:35:23Z</time>
      </trkpt>
      <trkpt lat="43.63886" lon="3.80559">
        <ele>49.8</ele>
        <time>2021-01-03T14:35:24Z</time>
      </trkpt>
      <trkpt lat="43.63885" lon="3.80563">
        <ele>49.6</ele>
        <time>2021-01-03T14:35:25Z</time>
      </trkpt>
      <trkpt lat="43.63884" lon="3.80566">
        <ele>49.5</ele>
        <time>2021-01-03T14:35:26Z</time>
      </trkpt>
      <trkpt lat="43.63883" lon="3.80569">
        <ele>49.4</ele>
        <time>2021-01-03T14:35:27Z</time>
      </trkpt>
      <trkpt lat="43.63881" lon="3.80571">
        <ele>56</ele>
        <time>2021-01-03T14:35:28Z</time>
      </trkpt>
      <trkpt lat="43.6388" lon="3.80576">
        <ele>49.2</ele>
        <time>2021-01-03T14:35:30Z</time>
      </trkpt>
      <trkpt lat="43.63878" lon="3.8058">
        <ele>49.1</ele>
        <time>2021-01-03T14:35:31Z</time>
      </trkpt>
      <trkpt lat="43.63876" lon="3.80585">
        <ele>49</ele>
        <time>2021-01-03T14:35:32Z</time>
      </trkpt>
      <trkpt lat="43.63874" lon="3.80589">
        <ele>48.9</ele>
        <time>2021-01-03T14:35:33Z</time>
      </trkpt>
      <trkpt lat="43.63872" lon="3.80594">
        <ele>48.8</ele>
        <time>2021-01-03T14:35:34Z</time>
      </trkpt>
      <trkpt lat="43.63871" lon="3.80598">
        <ele>48.7</ele>
        <time>2021-01-03T14:35:35Z</time>
      </trkpt>
      <trkpt lat="43.63871" lon="3.80601">
        <ele>48.6</ele>
        <time>2021-01-03T14:35:36Z</time>
      </trkpt>
      <trkpt lat="43.63871" lon="3.80605">
        <ele>48.5</ele>
        <time>2021-01-03T14:35:37Z</time>
      </trkpt>
      <trkpt lat="43.63871" lon="3.80608">
        <ele>56</ele>
        <time>2021-01-03T14:35:38Z</time>
      </trkpt>
      <trkpt lat="43.63871" lon="3.80611">
        <ele>48.4</ele>
        <time>2021-01-03T14:35:39Z</time>
      </trkpt>
      <trkpt lat="43.63871" lon="3.80613">
        <ele>48.4</ele>
        <time>2021-01-03T14:35:40Z</time>
      </trkpt>
      <trkpt lat="43.63871" lon="3.80617">
        <ele>48.4</ele>
        <time>2021-01-03T14:35:41Z</time>
      </trkpt>
      <trkpt lat="43.6387" lon="3.80619">
        <ele>48.3</ele>
        <time>2021-01-03T14:35:42Z</time>
      </trkpt>
      <trkpt lat="43.6387" lon="3.80625">
        <ele>48.3</ele>
        <time>2021-01-03T14:35:44Z</time>
      </trkpt>
      <trkpt lat="43.6387" lon="3.80628">
        <ele>48.3</ele>
        <time>2021-01-03T14:35:45Z</time>
      </trkpt>
      <trkpt lat="43.63869" lon="3.80632">
        <ele>48.3</ele>
        <time>2021-01-03T14:35:46Z</time>
      </trkpt>
      <trkpt lat="43.63869" lon="3.80635">
        <ele>48.3</ele>
        <time>2021-01-03T14:35:47Z</time>
      </trkpt>
      <trkpt lat="43.63868" lon="3.80639">
        <ele>57</ele>
        <time>2021-01-03T14:35:48Z</time>
      </trkpt>
      <trkpt lat="43.63867" lon="3.80643">
        <ele>48.2</ele>
        <time>2021-01-03T14:35:49Z</time>
      </trkpt>
      <trkpt lat="43.63866" lon="3.80646">
        <ele>48.2</ele>
        <time>2021-01-03T14:35:50Z</time>
      </trkpt>
      <trkpt lat="43.63865" lon="3.8065">
        <ele>48.1</ele>
        <time>2021-01-03T14:35:51Z</time>
      </trkpt>
      <trkpt lat="43.63865" lon="3.80653">
        <ele>48.1</ele>
        <time>2021-01-03T14:35:52Z</time>
      </trkpt>
      <trkpt lat="43.63864" lon="3.80657">
        <ele>48.1</ele>
        <time>2021-01-03T14:35:53Z</time>
      </trkpt>
      <trkpt lat="43.63864" lon="3.8066">
        <ele>48.1</ele>
        <time>2021-01-03T14:35:54Z</time>
      </trkpt>
      <trkpt lat="43.63864" lon="3.80663">
        <ele>48.1</ele>
        <time>2021-01-03T14:35:55Z</time>
      </trkpt>
      <trkpt lat="43.63863" lon="3.80667">
        <ele>48.1</ele>
        <time>2021-01-03T14:35:56Z</time>
      </trkpt>
      <trkpt lat="43.63864" lon="3.8067">
        <ele>48.1</ele>
        <time>2021-01-03T14:35:57Z</time>
      </trkpt>
      <trkpt lat="43.63863" lon="3.80673">
        <ele>58</ele>
        <time>2021-01-03T14:35:58Z</time>
      </trkpt>
      <trkpt lat="43.63864" lon="3.80678">
        <ele>48.1</ele>
        <time>2021-01-03T14:35:59Z</time>
      </trkpt>
      <trkpt lat="43.63864" lon="3.80681">
        <ele>48.1</ele>
        <time>2021-01-03T14:36:00Z</time>
      </trkpt>
      <trkpt lat="43.63865" lon="3.80684">
        <ele>48.1</ele>
        <time>2021-01-03T14:36:01Z</time>
      </trkpt>
      <trkpt lat="43.63866" lon="3.80687">
        <ele>48.2</ele>
        <time>2021-01-03T14:36:02Z</time>
      </trkpt>
      <trkpt lat="43.63866" lon="3.80691">
        <ele>48.2</ele>
        <time>2021-01-03T14:36:03Z</time>
      </trkpt>
      <trkpt lat="43.63866" lon="3.80694">
        <ele>48.2</ele>
        <time>2021-01-03T14:36:04Z</time>
      </trkpt>
      <trkpt lat="43.63868" lon="3.80698">
        <ele>48.2</ele>
        <time>2021-01-03T14:36:06Z</time>
      </trkpt>
      <trkpt lat="43.6387" lon="3.80701">
        <ele>58</ele>
        <time>2021-01-03T14:36:08Z</time>
      </trkpt>
      <trkpt lat="43.63872" lon="3.80703">
        <ele>48.4</ele>
        <time>2021-01-03T14:36:10Z</time>
      </trkpt>
      <trkpt lat="43.63874" lon="3.80705">
        <ele>48.5</ele>
        <time>2021-01-03T14:36:12Z</time>
      </trkpt>
      <trkpt lat="43.63876" lon="3.80707">
        <ele>48.5</ele>
        <time>2021-01-03T14:36:14Z</time>
      </trkpt>
      <trkpt lat="43.63879" lon="3.80709">
        <ele>48.6</ele>
        <time>2021-01-03T14:36:17Z</time>
      </trkpt>
      <trkpt lat="43.6388" lon="3.80712">
        <ele>48.7</ele>
        <time>2021-01-03T14:36:22Z</time>
      </trkpt>
      <trkpt lat="43.6388" lon="3.80715">
        <ele>48.7</ele>
        <time>2021-01-03T14:36:27Z</time>
      </trkpt>
      <trkpt lat="43.63879" lon="3.80717">
        <ele>48.6</ele>
        <time>2021-01-03T14:36:29Z</time>
      </trkpt>
      <trkpt lat="43.63878" lon="3.80719">
        <ele>48.6</ele>
        <time>2021-01-03T14:36:34Z</time>
      </trkpt>
      <trkpt lat="43.63878" lon="3.8072">
        <ele>61</ele>
        <time>2021-01-03T14:36:36Z</time>
      </trkpt>
      <trkpt lat="43.63875" lon="3.80727">
        <ele>61</ele>
        <time>2021-01-03T14:36:41Z</time>
      </trkpt>
      <trkpt lat="43.63874" lon="3.80729">
        <ele>48.4</ele>
        <time>2021-01-03T14:36:44Z</time>
      </trkpt>
      <trkpt lat="43.63873" lon="3.8073">
        <ele>61</ele>
        <time>2021-01-03T14:36:50Z</time>
      </trkpt>
      <trkpt lat="43.63868" lon="3.80735">
        <ele>62</ele>
        <time>2021-01-03T14:36:56Z</time>
      </trkpt>
      <trkpt lat="43.63867" lon="3.80738">
        <ele>48.1</ele>
        <time>2021-01-03T14:36:59Z</time>
      </trkpt>
      <trkpt lat="43.63866" lon="3.8074">
        <ele>48.1</ele>
        <time>2021-01-03T14:37:02Z</time>
      </trkpt>
      <trkpt lat="43.63866" lon="3.80743">
        <ele>48</ele>
        <time>2021-01-03T14:37:07Z</time>
      </trkpt>
      <trkpt lat="43.63866" lon="3.80746">
        <ele>48</ele>
        <time>2021-01-03T14:37:09Z</time>
      </trkpt>
      <trkpt lat="43.63866" lon="3.8075">
        <ele>48</ele>
        <time>2021-01-03T14:37:11Z</time>
      </trkpt>
      <trkpt lat="43.63864" lon="3.80753">
        <ele>47.9</ele>
        <time>2021-01-03T14:37:13Z</time>
      </trkpt>
      <trkpt lat="43.63865" lon="3.80751">
        <ele>61</ele>
        <time>2021-01-03T14:37:16Z</time>
      </trkpt>
      <trkpt lat="43.63866" lon="3.80752">
        <ele>59</ele>
        <time>2021-01-03T14:37:23Z</time>
      </trkpt>
      <trkpt lat="43.63863" lon="3.80759">
        <ele>59</ele>
        <time>2021-01-03T14:37:27Z</time>
      </trkpt>
      <trkpt lat="43.63863" lon="3.80761">
        <ele>47.6</ele>
        <time>2021-01-03T14:37:28Z</time>
      </trkpt>
      <trkpt lat="43.63861" lon="3.80766">
        <ele>47.4</ele>
        <time>2021-01-03T14:37:29Z</time>
      </trkpt>
      <trkpt lat="43.6386" lon="3.80769">
        <ele>47.4</ele>
        <time>2021-01-03T14:37:31Z</time>
      </trkpt>
      <trkpt lat="43.63859" lon="3.80773">
        <ele>47.3</ele>
        <time>2021-01-03T14:37:35Z</time>
      </trkpt>
      <trkpt lat="43.63858" lon="3.80774">
        <ele>57</ele>
        <time>2021-01-03T14:37:36Z</time>
      </trkpt>
      <trkpt lat="43.63856" lon="3.80778">
        <ele>47.4</ele>
        <time>2021-01-03T14:37:38Z</time>
      </trkpt>
      <trkpt lat="43.63854" lon="3.80781">
        <ele>47.4</ele>
        <time>2021-01-03T14:37:40Z</time>
      </trkpt>
      <trkpt lat="43.63853" lon="3.80784">
        <ele>47.4</ele>
        <time>2021-01-03T14:37:41Z</time>
      </trkpt>
      <trkpt lat="43.63852" lon="3.80786">
        <ele>47.4</ele>
        <time>2021-01-03T14:37:42Z</time>
      </trkpt>
      <trkpt lat="43.63851" lon="3.80789">
        <ele>47.3</ele>
        <time>2021-01-03T14:37:43Z</time>
      </trkpt>
      <trkpt lat="43.63849" lon="3.80791">
        <ele>47.2</ele>
        <time>2021-01-03T14:37:44Z</time>
      </trkpt>
      <trkpt lat="43.63847" lon="3.80792">
        <ele>47.2</ele>
        <time>2021-01-03T14:37:45Z</time>
      </trkpt>
      <trkpt lat="43.63845" lon="3.80794">
        <ele>57</ele>
        <time>2021-01-03T14:37:46Z</time>
      </trkpt>
      <trkpt lat="43.63843" lon="3.80795">
        <ele>47.1</ele>
        <time>2021-01-03T14:37:47Z</time>
      </trkpt>
      <trkpt lat="43.63842" lon="3.80798">
        <ele>46.9</ele>
        <time>2021-01-03T14:37:51Z</time>
      </trkpt>
      <trkpt lat="43.63841" lon="3.80801">
        <ele>46.6</ele>
        <time>2021-01-03T14:37:54Z</time>
      </trkpt>
      <trkpt lat="43.6384" lon="3.80803">
        <ele>58</ele>
        <time>2021-01-03T14:37:56Z</time>
      </trkpt>
      <trkpt lat="43.63838" lon="3.80805">
        <ele>46.2</ele>
        <time>2021-01-03T14:38:00Z</time>
      </trkpt>
      <trkpt lat="43.63837" lon="3.80806">
        <ele>46.3</ele>
        <time>2021-01-03T14:38:04Z</time>
      </trkpt>
      <trkpt lat="43.63837" lon="3.80813">
        <ele>56</ele>
        <time>2021-01-03T14:38:18Z</time>
      </trkpt>
      <trkpt lat="43.63835" lon="3.80817">
        <ele>49.5</ele>
        <time>2021-01-03T14:38:20Z</time>
      </trkpt>
      <trkpt lat="43.63834" lon="3.80819">
        <ele>50</ele>
        <time>2021-01-03T14:38:21Z</time>
      </trkpt>
      <trkpt lat="43.63833" lon="3.80821">
        <ele>50.4</ele>
        <time>2021-01-03T14:38:22Z</time>
      </trkpt>
      <trkpt lat="43.6383" lon="3.80824">
        <ele>50.9</ele>
        <time>2021-01-03T14:38:24Z</time>
      </trkpt>
      <trkpt lat="43.63829" lon="3.80825">
        <ele>51.1</ele>
        <time>2021-01-03T14:38:25Z</time>
      </trkpt>
      <trkpt lat="43.63827" lon="3.80827">
        <ele>51.3</ele>
        <time>2021-01-03T14:38:26Z</time>
      </trkpt>
      <trkpt lat="43.63825" lon="3.80828">
        <ele>51.3</ele>
        <time>2021-01-03T14:38:27Z</time>
      </trkpt>
      <trkpt lat="43.63823" lon="3.80829">
        <ele>56</ele>
        <time>2021-01-03T14:38:28Z</time>
      </trkpt>
      <trkpt lat="43.63821" lon="3.80831">
        <ele>51.3</ele>
        <time>2021-01-03T14:38:29Z</time>
      </trkpt>
      <trkpt lat="43.63819" lon="3.80832">
        <ele>51.2</ele>
        <time>2021-01-03T14:38:30Z</time>
      </trkpt>
      <trkpt lat="43.63817" lon="3.80833">
        <ele>51</ele>
        <time>2021-01-03T14:38:31Z</time>
      </trkpt>
      <trkpt lat="43.63815" lon="3.80834">
        <ele>51</ele>
        <time>2021-01-03T14:38:32Z</time>
      </trkpt>
      <trkpt lat="43.63813" lon="3.80835">
        <ele>51</ele>
        <time>2021-01-03T14:38:33Z</time>
      </trkpt>
      <trkpt lat="43.63811" lon="3.80837">
        <ele>51.4</ele>
        <time>2021-01-03T14:38:34Z</time>
      </trkpt>
      <trkpt lat="43.63808" lon="3.80838">
        <ele>51.2</ele>
        <time>2021-01-03T14:38:35Z</time>
      </trkpt>
      <trkpt lat="43.63806" lon="3.80839">
        <ele>51.1</ele>
        <time>2021-01-03T14:38:36Z</time>
      </trkpt>
      <trkpt lat="43.63803" lon="3.8084">
        <ele>51.2</ele>
        <time>2021-01-03T14:38:37Z</time>
      </trkpt>
      <trkpt lat="43.638" lon="3.8084">
        <ele>51</ele>
        <time>2021-01-03T14:38:38Z</time>
      </trkpt>
      <trkpt lat="43.63798" lon="3.80841">
        <ele>56</ele>
        <time>2021-01-03T14:38:39Z</time>
      </trkpt>
      <trkpt lat="43.63795" lon="3.80842">
        <ele>51.3</ele>
        <time>2021-01-03T14:38:40Z</time>
      </trkpt>
      <trkpt lat="43.63792" lon="3.80842">
        <ele>51</ele>
        <time>2021-01-03T14:38:41Z</time>
      </trkpt>
      <trkpt lat="43.6379" lon="3.80843">
        <ele>51.1</ele>
        <time>2021-01-03T14:38:42Z</time>
      </trkpt>
      <trkpt lat="43.63787" lon="3.80844">
        <ele>51.1</ele>
        <time>2021-01-03T14:38:43Z</time>
      </trkpt>
      <trkpt lat="43.63785" lon="3.80844">
        <ele>51</ele>
        <time>2021-01-03T14:38:44Z</time>
      </trkpt>
      <trkpt lat="43.63779" lon="3.80846">
        <ele>50.9</ele>
        <time>2021-01-03T14:38:45Z</time>
      </trkpt>
      <trkpt lat="43.63776" lon="3.80847">
        <ele>50.9</ele>
        <time>2021-01-03T14:38:47Z</time>
      </trkpt>
      <trkpt lat="43.63773" lon="3.80848">
        <ele>56</ele>
        <time>2021-01-03T14:38:48Z</time>
      </trkpt>
      <trkpt lat="43.63771" lon="3.80848">
        <ele>51</ele>
        <time>2021-01-03T14:38:49Z</time>
      </trkpt>
      <trkpt lat="43.63768" lon="3.80849">
        <ele>51.1</ele>
        <time>2021-01-03T14:38:50Z</time>
      </trkpt>
      <trkpt lat="43.63765" lon="3.8085">
        <ele>51.2</ele>
        <time>2021-01-03T14:38:51Z</time>
      </trkpt>
      <trkpt lat="43.63762" lon="3.80851">
        <ele>51.3</ele>
        <time>2021-01-03T14:38:52Z</time>
      </trkpt>
      <trkpt lat="43.63759" lon="3.80852">
        <ele>56</ele>
        <time>2021-01-03T14:38:53Z</time>
      </trkpt>
      <trkpt lat="43.63756" lon="3.80853">
        <ele>51.4</ele>
        <time>2021-01-03T14:38:54Z</time>
      </trkpt>
      <trkpt lat="43.63754" lon="3.80854">
        <ele>51.4</ele>
        <time>2021-01-03T14:38:55Z</time>
      </trkpt>
      <trkpt lat="43.63751" lon="3.80854">
        <ele>51.3</ele>
        <time>2021-01-03T14:38:56Z</time>
      </trkpt>
      <trkpt lat="43.63747" lon="3.80855">
        <ele>51.3</ele>
        <time>2021-01-03T14:38:57Z</time>
      </trkpt>
      <trkpt lat="43.63744" lon="3.80855">
        <ele>56</ele>
        <time>2021-01-03T14:38:58Z</time>
      </trkpt>
      <trkpt lat="43.63741" lon="3.80856">
        <ele>51.2</ele>
        <time>2021-01-03T14:38:59Z</time>
      </trkpt>
      <trkpt lat="43.63738" lon="3.80856">
        <ele>51.1</ele>
        <time>2021-01-03T14:39:00Z</time>
      </trkpt>
      <trkpt lat="43.63735" lon="3.80857">
        <ele>51.1</ele>
        <time>2021-01-03T14:39:01Z</time>
      </trkpt>
      <trkpt lat="43.63731" lon="3.80857">
        <ele>51</ele>
        <time>2021-01-03T14:39:02Z</time>
      </trkpt>
      <trkpt lat="43.63728" lon="3.80857">
        <ele>50.9</ele>
        <time>2021-01-03T14:39:03Z</time>
      </trkpt>
      <trkpt lat="43.63724" lon="3.80857">
        <ele>50.8</ele>
        <time>2021-01-03T14:39:04Z</time>
      </trkpt>
      <trkpt lat="43.63721" lon="3.80857">
        <ele>50.7</ele>
        <time>2021-01-03T14:39:05Z</time>
      </trkpt>
      <trkpt lat="43.63717" lon="3.80857">
        <ele>50.5</ele>
        <time>2021-01-03T14:39:06Z</time>
      </trkpt>
      <trkpt lat="43.63714" lon="3.80857">
        <ele>50.4</ele>
        <time>2021-01-03T14:39:07Z</time>
      </trkpt>
      <trkpt lat="43.6371" lon="3.80857">
        <ele>50.3</ele>
        <time>2021-01-03T14:39:08Z</time>
      </trkpt>
      <trkpt lat="43.63706" lon="3.80856">
        <ele>57</ele>
        <time>2021-01-03T14:39:09Z</time>
      </trkpt>
      <trkpt lat="43.63703" lon="3.80856">
        <ele>49.9</ele>
        <time>2021-01-03T14:39:10Z</time>
      </trkpt>
      <trkpt lat="43.637" lon="3.80856">
        <ele>49.8</ele>
        <time>2021-01-03T14:39:11Z</time>
      </trkpt>
      <trkpt lat="43.63696" lon="3.80855">
        <ele>49.6</ele>
        <time>2021-01-03T14:39:12Z</time>
      </trkpt>
      <trkpt lat="43.63692" lon="3.80855">
        <ele>49.5</ele>
        <time>2021-01-03T14:39:13Z</time>
      </trkpt>
      <trkpt lat="43.63689" lon="3.80855">
        <ele>49.4</ele>
        <time>2021-01-03T14:39:14Z</time>
      </trkpt>
      <trkpt lat="43.63685" lon="3.80855">
        <ele>49.3</ele>
        <time>2021-01-03T14:39:15Z</time>
      </trkpt>
      <trkpt lat="43.63682" lon="3.80856">
        <ele>49.3</ele>
        <time>2021-01-03T14:39:16Z</time>
      </trkpt>
      <trkpt lat="43.63678" lon="3.80858">
        <ele>49.3</ele>
        <time>2021-01-03T14:39:17Z</time>
      </trkpt>
      <trkpt lat="43.63675" lon="3.8086">
        <ele>57</ele>
        <time>2021-01-03T14:39:18Z</time>
      </trkpt>
      <trkpt lat="43.63671" lon="3.80862">
        <ele>49.3</ele>
        <time>2021-01-03T14:39:19Z</time>
      </trkpt>
      <trkpt lat="43.63668" lon="3.80865">
        <ele>49.7</ele>
        <time>2021-01-03T14:39:20Z</time>
      </trkpt>
      <trkpt lat="43.63665" lon="3.80866">
        <ele>49.7</ele>
        <time>2021-01-03T14:39:21Z</time>
      </trkpt>
      <trkpt lat="43.63662" lon="3.80868">
        <ele>50</ele>
        <time>2021-01-03T14:39:22Z</time>
      </trkpt>
      <trkpt lat="43.63659" lon="3.80868">
        <ele>50</ele>
        <time>2021-01-03T14:39:23Z</time>
      </trkpt>
      <trkpt lat="43.63656" lon="3.80869">
        <ele>50.1</ele>
        <time>2021-01-03T14:39:24Z</time>
      </trkpt>
      <trkpt lat="43.63653" lon="3.80871">
        <ele>50.4</ele>
        <time>2021-01-03T14:39:25Z</time>
      </trkpt>
      <trkpt lat="43.63651" lon="3.80871">
        <ele>50.4</ele>
        <time>2021-01-03T14:39:26Z</time>
      </trkpt>
      <trkpt lat="43.63648" lon="3.80872">
        <ele>50.6</ele>
        <time>2021-01-03T14:39:27Z</time>
      </trkpt>
      <trkpt lat="43.63645" lon="3.80873">
        <ele>58</ele>
        <time>2021-01-03T14:39:28Z</time>
      </trkpt>
      <trkpt lat="43.63642" lon="3.80874">
        <ele>50.9</ele>
        <time>2021-01-03T14:39:29Z</time>
      </trkpt>
      <trkpt lat="43.63639" lon="3.80875">
        <ele>51</ele>
        <time>2021-01-03T14:39:30Z</time>
      </trkpt>
      <trkpt lat="43.63637" lon="3.80875">
        <ele>51.3</ele>
        <time>2021-01-03T14:39:31Z</time>
      </trkpt>
      <trkpt lat="43.63634" lon="3.80874">
        <ele>51.5</ele>
        <time>2021-01-03T14:39:32Z</time>
      </trkpt>
      <trkpt lat="43.63631" lon="3.80874">
        <ele>51.9</ele>
        <time>2021-01-03T14:39:33Z</time>
      </trkpt>
      <trkpt lat="43.63628" lon="3.80873">
        <ele>52.1</ele>
        <time>2021-01-03T14:39:34Z</time>
      </trkpt>
      <trkpt lat="43.63626" lon="3.80873">
        <ele>52.4</ele>
        <time>2021-01-03T14:39:35Z</time>
      </trkpt>
      <trkpt lat="43.63623" lon="3.80872">
        <ele>52.5</ele>
        <time>2021-01-03T14:39:36Z</time>
      </trkpt>
      <trkpt lat="43.6362" lon="3.80871">
        <ele>52.6</ele>
        <time>2021-01-03T14:39:37Z</time>
      </trkpt>
      <trkpt lat="43.63617" lon="3.80869">
        <ele>58</ele>
        <time>2021-01-03T14:39:38Z</time>
      </trkpt>
      <trkpt lat="43.63614" lon="3.80868">
        <ele>52.2</ele>
        <time>2021-01-03T14:39:39Z</time>
      </trkpt>
      <trkpt lat="43.63611" lon="3.80867">
        <ele>52.1</ele>
        <time>2021-01-03T14:39:40Z</time>
      </trkpt>
      <trkpt lat="43.63608" lon="3.80866">
        <ele>52.2</ele>
        <time>2021-01-03T14:39:41Z</time>
      </trkpt>
      <trkpt lat="43.63605" lon="3.80865">
        <ele>52.3</ele>
        <time>2021-01-03T14:39:42Z</time>
      </trkpt>
      <trkpt lat="43.63602" lon="3.80864">
        <ele>52.4</ele>
        <time>2021-01-03T14:39:43Z</time>
      </trkpt>
      <trkpt lat="43.63599" lon="3.80863">
        <ele>52.5</ele>
        <time>2021-01-03T14:39:44Z</time>
      </trkpt>
      <trkpt lat="43.63596" lon="3.80861">
        <ele>52.1</ele>
        <time>2021-01-03T14:39:45Z</time>
      </trkpt>
      <trkpt lat="43.63594" lon="3.80859">
        <ele>51.9</ele>
        <time>2021-01-03T14:39:46Z</time>
      </trkpt>
      <trkpt lat="43.63591" lon="3.80858">
        <ele>52</ele>
        <time>2021-01-03T14:39:47Z</time>
      </trkpt>
      <trkpt lat="43.63588" lon="3.80856">
        <ele>58</ele>
        <time>2021-01-03T14:39:48Z</time>
      </trkpt>
      <trkpt lat="43.63585" lon="3.80854">
        <ele>51.5</ele>
        <time>2021-01-03T14:39:49Z</time>
      </trkpt>
      <trkpt lat="43.63583" lon="3.80851">
        <ele>50.9</ele>
        <time>2021-01-03T14:39:50Z</time>
      </trkpt>
      <trkpt lat="43.6358" lon="3.80848">
        <ele>51.4</ele>
        <time>2021-01-03T14:39:51Z</time>
      </trkpt>
      <trkpt lat="43.63578" lon="3.80845">
        <ele>51.3</ele>
        <time>2021-01-03T14:39:52Z</time>
      </trkpt>
      <trkpt lat="43.63575" lon="3.80842">
        <ele>51.7</ele>
        <time>2021-01-03T14:39:53Z</time>
      </trkpt>
      <trkpt lat="43.63573" lon="3.80839">
        <ele>51.5</ele>
        <time>2021-01-03T14:39:54Z</time>
      </trkpt>
      <trkpt lat="43.63571" lon="3.80836">
        <ele>51.3</ele>
        <time>2021-01-03T14:39:55Z</time>
      </trkpt>
      <trkpt lat="43.63569" lon="3.80833">
        <ele>51.1</ele>
        <time>2021-01-03T14:39:56Z</time>
      </trkpt>
      <trkpt lat="43.63566" lon="3.8083">
        <ele>51.8</ele>
        <time>2021-01-03T14:39:57Z</time>
      </trkpt>
      <trkpt lat="43.63564" lon="3.80826">
        <ele>58</ele>
        <time>2021-01-03T14:39:58Z</time>
      </trkpt>
      <trkpt lat="43.63562" lon="3.80823">
        <ele>51.5</ele>
        <time>2021-01-03T14:39:59Z</time>
      </trkpt>
      <trkpt lat="43.63559" lon="3.8082">
        <ele>51.4</ele>
        <time>2021-01-03T14:40:00Z</time>
      </trkpt>
      <trkpt lat="43.63556" lon="3.80817">
        <ele>51</ele>
        <time>2021-01-03T14:40:01Z</time>
      </trkpt>
      <trkpt lat="43.63554" lon="3.80814">
        <ele>50.5</ele>
        <time>2021-01-03T14:40:02Z</time>
      </trkpt>
      <trkpt lat="43.63551" lon="3.80812">
        <ele>50.6</ele>
        <time>2021-01-03T14:40:03Z</time>
      </trkpt>
      <trkpt lat="43.63548" lon="3.80809">
        <ele>50.4</ele>
        <time>2021-01-03T14:40:04Z</time>
      </trkpt>
      <trkpt lat="43.63546" lon="3.80806">
        <ele>49.9</ele>
        <time>2021-01-03T14:40:05Z</time>
      </trkpt>
      <trkpt lat="43.63543" lon="3.80804">
        <ele>50.4</ele>
        <time>2021-01-03T14:40:06Z</time>
      </trkpt>
      <trkpt lat="43.6354" lon="3.80801">
        <ele>50.7</ele>
        <time>2021-01-03T14:40:07Z</time>
      </trkpt>
      <trkpt lat="43.63538" lon="3.80798">
        <ele>57</ele>
        <time>2021-01-03T14:40:08Z</time>
      </trkpt>
      <trkpt lat="43.63535" lon="3.80794">
        <ele>50.3</ele>
        <time>2021-01-03T14:40:09Z</time>
      </trkpt>
      <trkpt lat="43.63533" lon="3.80791">
        <ele>50</ele>
        <time>2021-01-03T14:40:10Z</time>
      </trkpt>
      <trkpt lat="43.6353" lon="3.80788">
        <ele>49.7</ele>
        <time>2021-01-03T14:40:11Z</time>
      </trkpt>
      <trkpt lat="43.63527" lon="3.80786">
        <ele>49.5</ele>
        <time>2021-01-03T14:40:12Z</time>
      </trkpt>
      <trkpt lat="43.63525" lon="3.80784">
        <ele>49.2</ele>
        <time>2021-01-03T14:40:13Z</time>
      </trkpt>
      <trkpt lat="43.63522" lon="3.80782">
        <ele>49</ele>
        <time>2021-01-03T14:40:14Z</time>
      </trkpt>
      <trkpt lat="43.63519" lon="3.80779">
        <ele>48.6</ele>
        <time>2021-01-03T14:40:15Z</time>
      </trkpt>
      <trkpt lat="43.63516" lon="3.80778">
        <ele>48.8</ele>
        <time>2021-01-03T14:40:16Z</time>
      </trkpt>
      <trkpt lat="43.63513" lon="3.80776">
        <ele>48.9</ele>
        <time>2021-01-03T14:40:17Z</time>
      </trkpt>
      <trkpt lat="43.6351" lon="3.80775">
        <ele>56</ele>
        <time>2021-01-03T14:40:18Z</time>
      </trkpt>
      <trkpt lat="43.63507" lon="3.80774">
        <ele>49.5</ele>
        <time>2021-01-03T14:40:19Z</time>
      </trkpt>
      <trkpt lat="43.63504" lon="3.80774">
        <ele>49.9</ele>
        <time>2021-01-03T14:40:20Z</time>
      </trkpt>
      <trkpt lat="43.635" lon="3.80774">
        <ele>50.5</ele>
        <time>2021-01-03T14:40:21Z</time>
      </trkpt>
      <trkpt lat="43.63497" lon="3.80774">
        <ele>50.4</ele>
        <time>2021-01-03T14:40:22Z</time>
      </trkpt>
      <trkpt lat="43.63494" lon="3.80774">
        <ele>50.3</ele>
        <time>2021-01-03T14:40:23Z</time>
      </trkpt>
      <trkpt lat="43.6349" lon="3.80775">
        <ele>50.3</ele>
        <time>2021-01-03T14:40:24Z</time>
      </trkpt>
      <trkpt lat="43.63487" lon="3.80775">
        <ele>50.2</ele>
        <time>2021-01-03T14:40:25Z</time>
      </trkpt>
      <trkpt lat="43.63484" lon="3.80776">
        <ele>50.2</ele>
        <time>2021-01-03T14:40:26Z</time>
      </trkpt>
      <trkpt lat="43.6348" lon="3.80776">
        <ele>50.1</ele>
        <time>2021-01-03T14:40:27Z</time>
      </trkpt>
      <trkpt lat="43.63477" lon="3.80776">
        <ele>55</ele>
        <time>2021-01-03T14:40:28Z</time>
      </trkpt>
      <trkpt lat="43.63474" lon="3.80777">
        <ele>50</ele>
        <time>2021-01-03T14:40:29Z</time>
      </trkpt>
      <trkpt lat="43.63471" lon="3.80778">
        <ele>49.8</ele>
        <time>2021-01-03T14:40:30Z</time>
      </trkpt>
      <trkpt lat="43.63468" lon="3.8078">
        <ele>49.6</ele>
        <time>2021-01-03T14:40:31Z</time>
      </trkpt>
      <trkpt lat="43.63464" lon="3.80782">
        <ele>49.2</ele>
        <time>2021-01-03T14:40:32Z</time>
      </trkpt>
      <trkpt lat="43.63461" lon="3.80785">
        <ele>49.1</ele>
        <time>2021-01-03T14:40:33Z</time>
      </trkpt>
      <trkpt lat="43.63459" lon="3.80788">
        <ele>49</ele>
        <time>2021-01-03T14:40:34Z</time>
      </trkpt>
      <trkpt lat="43.63457" lon="3.80792">
        <ele>49.1</ele>
        <time>2021-01-03T14:40:35Z</time>
      </trkpt>
      <trkpt lat="43.63455" lon="3.80796">
        <ele>49.1</ele>
        <time>2021-01-03T14:40:36Z</time>
      </trkpt>
      <trkpt lat="43.63454" lon="3.80801">
        <ele>49.3</ele>
        <time>2021-01-03T14:40:37Z</time>
      </trkpt>
      <trkpt lat="43.63454" lon="3.80806">
        <ele>54</ele>
        <time>2021-01-03T14:40:38Z</time>
      </trkpt>
      <trkpt lat="43.63453" lon="3.80811">
        <ele>49.6</ele>
        <time>2021-01-03T14:40:39Z</time>
      </trkpt>
      <trkpt lat="43.63453" lon="3.80815">
        <ele>49.7</ele>
        <time>2021-01-03T14:40:40Z</time>
      </trkpt>
      <trkpt lat="43.63453" lon="3.80819">
        <ele>49.8</ele>
        <time>2021-01-03T14:40:41Z</time>
      </trkpt>
      <trkpt lat="43.63453" lon="3.80824">
        <ele>49.9</ele>
        <time>2021-01-03T14:40:44Z</time>
      </trkpt>
      <trkpt lat="43.63453" lon="3.80829">
        <ele>50</ele>
        <time>2021-01-03T14:40:45Z</time>
      </trkpt>
      <trkpt lat="43.63454" lon="3.80834">
        <ele>50.5</ele>
        <time>2021-01-03T14:40:46Z</time>
      </trkpt>
      <trkpt lat="43.63454" lon="3.8084">
        <ele>50.6</ele>
        <time>2021-01-03T14:40:47Z</time>
      </trkpt>
      <trkpt lat="43.63454" lon="3.80845">
        <ele>53</ele>
        <time>2021-01-03T14:40:48Z</time>
      </trkpt>
      <trkpt lat="43.63453" lon="3.80851">
        <ele>50.5</ele>
        <time>2021-01-03T14:40:49Z</time>
      </trkpt>
      <trkpt lat="43.63453" lon="3.80859">
        <ele>50.6</ele>
        <time>2021-01-03T14:40:50Z</time>
      </trkpt>
      <trkpt lat="43.63451" lon="3.80866">
        <ele>50.4</ele>
        <time>2021-01-03T14:40:51Z</time>
      </trkpt>
      <trkpt lat="43.6345" lon="3.80874">
        <ele>50.9</ele>
        <time>2021-01-03T14:40:52Z</time>
      </trkpt>
      <trkpt lat="43.63448" lon="3.8088">
        <ele>50.9</ele>
        <time>2021-01-03T14:40:53Z</time>
      </trkpt>
      <trkpt lat="43.63447" lon="3.80885">
        <ele>51.2</ele>
        <time>2021-01-03T14:40:54Z</time>
      </trkpt>
      <trkpt lat="43.63446" lon="3.80889">
        <ele>51.5</ele>
        <time>2021-01-03T14:40:55Z</time>
      </trkpt>
      <trkpt lat="43.63446" lon="3.80893">
        <ele>51.6</ele>
        <time>2021-01-03T14:40:56Z</time>
      </trkpt>
      <trkpt lat="43.63445" lon="3.80897">
        <ele>51.4</ele>
        <time>2021-01-03T14:40:57Z</time>
      </trkpt>
      <trkpt lat="43.63445" lon="3.80901">
        <ele>54</ele>
        <time>2021-01-03T14:40:58Z</time>
      </trkpt>
      <trkpt lat="43.63445" lon="3.80905">
        <ele>51.7</ele>
        <time>2021-01-03T14:40:59Z</time>
      </trkpt>
      <trkpt lat="43.63445" lon="3.80909">
        <ele>51.9</ele>
        <time>2021-01-03T14:41:00Z</time>
      </trkpt>
      <trkpt lat="43.63445" lon="3.80914">
        <ele>52</ele>
        <time>2021-01-03T14:41:01Z</time>
      </trkpt>
      <trkpt lat="43.63445" lon="3.80918">
        <ele>52.1</ele>
        <time>2021-01-03T14:41:02Z</time>
      </trkpt>
      <trkpt lat="43.63445" lon="3.80923">
        <ele>52.1</ele>
        <time>2021-01-03T14:41:03Z</time>
      </trkpt>
      <trkpt lat="43.63445" lon="3.80928">
        <ele>52.1</ele>
        <time>2021-01-03T14:41:04Z</time>
      </trkpt>
      <trkpt lat="43.63445" lon="3.80934">
        <ele>52.1</ele>
        <time>2021-01-03T14:41:05Z</time>
      </trkpt>
      <trkpt lat="43.63445" lon="3.8094">
        <ele>52.1</ele>
        <time>2021-01-03T14:41:06Z</time>
      </trkpt>
      <trkpt lat="43.63446" lon="3.80946">
        <ele>52.3</ele>
        <time>2021-01-03T14:41:07Z</time>
      </trkpt>
      <trkpt lat="43.63446" lon="3.80952">
        <ele>52.1</ele>
        <time>2021-01-03T14:41:08Z</time>
      </trkpt>
      <trkpt lat="43.63445" lon="3.80958">
        <ele>56</ele>
        <time>2021-01-03T14:41:09Z</time>
      </trkpt>
      <trkpt lat="43.63445" lon="3.80965">
        <ele>51.4</ele>
        <time>2021-01-03T14:41:10Z</time>
      </trkpt>
      <trkpt lat="43.63445" lon="3.80971">
        <ele>51.2</ele>
        <time>2021-01-03T14:41:11Z</time>
      </trkpt>
      <trkpt lat="43.63445" lon="3.80977">
        <ele>51</ele>
        <time>2021-01-03T14:41:12Z</time>
      </trkpt>
      <trkpt lat="43.63446" lon="3.80984">
        <ele>51</ele>
        <time>2021-01-03T14:41:13Z</time>
      </trkpt>
      <trkpt lat="43.63445" lon="3.80991">
        <ele>50.5</ele>
        <time>2021-01-03T14:41:14Z</time>
      </trkpt>
      <trkpt lat="43.63444" lon="3.80998">
        <ele>50</ele>
        <time>2021-01-03T14:41:15Z</time>
      </trkpt>
      <trkpt lat="43.63444" lon="3.81006">
        <ele>49.7</ele>
        <time>2021-01-03T14:41:16Z</time>
      </trkpt>
      <trkpt lat="43.63444" lon="3.81014">
        <ele>49.4</ele>
        <time>2021-01-03T14:41:17Z</time>
      </trkpt>
      <trkpt lat="43.63443" lon="3.81022">
        <ele>48.9</ele>
        <time>2021-01-03T14:41:18Z</time>
      </trkpt>
      <trkpt lat="43.63444" lon="3.81031">
        <ele>56</ele>
        <time>2021-01-03T14:41:19Z</time>
      </trkpt>
      <trkpt lat="43.63445" lon="3.81039">
        <ele>48.8</ele>
        <time>2021-01-03T14:41:20Z</time>
      </trkpt>
      <trkpt lat="43.63446" lon="3.81046">
        <ele>48.8</ele>
        <time>2021-01-03T14:41:21Z</time>
      </trkpt>
      <trkpt lat="43.63447" lon="3.81053">
        <ele>48.8</ele>
        <time>2021-01-03T14:41:22Z</time>
      </trkpt>
      <trkpt lat="43.63448" lon="3.8106">
        <ele>48.7</ele>
        <time>2021-01-03T14:41:23Z</time>
      </trkpt>
      <trkpt lat="43.6345" lon="3.81066">
        <ele>49</ele>
        <time>2021-01-03T14:41:24Z</time>
      </trkpt>
      <trkpt lat="43.63452" lon="3.81072">
        <ele>49.3</ele>
        <time>2021-01-03T14:41:25Z</time>
      </trkpt>
      <trkpt lat="43.63453" lon="3.81078">
        <ele>49.3</ele>
        <time>2021-01-03T14:41:26Z</time>
      </trkpt>
      <trkpt lat="43.63454" lon="3.81085">
        <ele>49.4</ele>
        <time>2021-01-03T14:41:27Z</time>
      </trkpt>
      <trkpt lat="43.63455" lon="3.81092">
        <ele>55</ele>
        <time>2021-01-03T14:41:28Z</time>
      </trkpt>
      <trkpt lat="43.63456" lon="3.81098">
        <ele>49.9</ele>
        <time>2021-01-03T14:41:29Z</time>
      </trkpt>
      <trkpt lat="43.63457" lon="3.81104">
        <ele>50.1</ele>
        <time>2021-01-03T14:41:30Z</time>
      </trkpt>
      <trkpt lat="43.63458" lon="3.8111">
        <ele>50.4</ele>
        <time>2021-01-03T14:41:31Z</time>
      </trkpt>
      <trkpt lat="43.63458" lon="3.81116">
        <ele>50.2</ele>
        <time>2021-01-03T14:41:32Z</time>
      </trkpt>
      <trkpt lat="43.63459" lon="3.81122">
        <ele>50.4</ele>
        <time>2021-01-03T14:41:33Z</time>
      </trkpt>
      <trkpt lat="43.63459" lon="3.81127">
        <ele>50.2</ele>
        <time>2021-01-03T14:41:34Z</time>
      </trkpt>
      <trkpt lat="43.6346" lon="3.81132">
        <ele>50.4</ele>
        <time>2021-01-03T14:41:35Z</time>
      </trkpt>
      <trkpt lat="43.6346" lon="3.81137">
        <ele>50.2</ele>
        <time>2021-01-03T14:41:36Z</time>
      </trkpt>
      <trkpt lat="43.63461" lon="3.81142">
        <ele>50.5</ele>
        <time>2021-01-03T14:41:37Z</time>
      </trkpt>
      <trkpt lat="43.63461" lon="3.81147">
        <ele>54</ele>
        <time>2021-01-03T14:41:38Z</time>
      </trkpt>
      <trkpt lat="43.63461" lon="3.81152">
        <ele>50.4</ele>
        <time>2021-01-03T14:41:39Z</time>
      </trkpt>
      <trkpt lat="43.63461" lon="3.81156">
        <ele>50.3</ele>
        <time>2021-01-03T14:41:40Z</time>
      </trkpt>
      <trkpt lat="43.63461" lon="3.81161">
        <ele>50.2</ele>
        <time>2021-01-03T14:41:41Z</time>
      </trkpt>
      <trkpt lat="43.63461" lon="3.81167">
        <ele>50.1</ele>
        <time>2021-01-03T14:41:42Z</time>
      </trkpt>
      <trkpt lat="43.63462" lon="3.81172">
        <ele>50.4</ele>
        <time>2021-01-03T14:41:43Z</time>
      </trkpt>
      <trkpt lat="43.63462" lon="3.81178">
        <ele>50.2</ele>
        <time>2021-01-03T14:41:44Z</time>
      </trkpt>
      <trkpt lat="43.63463" lon="3.81184">
        <ele>50.4</ele>
        <time>2021-01-03T14:41:45Z</time>
      </trkpt>
      <trkpt lat="43.63463" lon="3.8119">
        <ele>50.2</ele>
        <time>2021-01-03T14:41:46Z</time>
      </trkpt>
      <trkpt lat="43.63464" lon="3.81195">
        <ele>50.5</ele>
        <time>2021-01-03T14:41:47Z</time>
      </trkpt>
      <trkpt lat="43.63464" lon="3.812">
        <ele>50.6</ele>
        <time>2021-01-03T14:41:48Z</time>
      </trkpt>
      <trkpt lat="43.63464" lon="3.81206">
        <ele>53</ele>
        <time>2021-01-03T14:41:49Z</time>
      </trkpt>
      <trkpt lat="43.63464" lon="3.81211">
        <ele>50.9</ele>
        <time>2021-01-03T14:41:50Z</time>
      </trkpt>
      <trkpt lat="43.63464" lon="3.81216">
        <ele>51</ele>
        <time>2021-01-03T14:41:51Z</time>
      </trkpt>
      <trkpt lat="43.63463" lon="3.81221">
        <ele>50.7</ele>
        <time>2021-01-03T14:41:52Z</time>
      </trkpt>
      <trkpt lat="43.63463" lon="3.81225">
        <ele>50.8</ele>
        <time>2021-01-03T14:41:53Z</time>
      </trkpt>
      <trkpt lat="43.63462" lon="3.8123">
        <ele>50.6</ele>
        <time>2021-01-03T14:41:54Z</time>
      </trkpt>
      <trkpt lat="43.63462" lon="3.81234">
        <ele>50.8</ele>
        <time>2021-01-03T14:41:55Z</time>
      </trkpt>
      <trkpt lat="43.63462" lon="3.81239">
        <ele>51</ele>
        <time>2021-01-03T14:41:56Z</time>
      </trkpt>
      <trkpt lat="43.63461" lon="3.81243">
        <ele>50.6</ele>
        <time>2021-01-03T14:41:57Z</time>
      </trkpt>
      <trkpt lat="43.63461" lon="3.81248">
        <ele>53</ele>
        <time>2021-01-03T14:41:58Z</time>
      </trkpt>
      <trkpt lat="43.63461" lon="3.81252">
        <ele>51.1</ele>
        <time>2021-01-03T14:41:59Z</time>
      </trkpt>
      <trkpt lat="43.6346" lon="3.81256">
        <ele>51</ele>
        <time>2021-01-03T14:42:00Z</time>
      </trkpt>
      <trkpt lat="43.6346" lon="3.81261">
        <ele>51.5</ele>
        <time>2021-01-03T14:42:01Z</time>
      </trkpt>
      <trkpt lat="43.63459" lon="3.81266">
        <ele>51.3</ele>
        <time>2021-01-03T14:42:02Z</time>
      </trkpt>
      <trkpt lat="43.63459" lon="3.8127">
        <ele>51.7</ele>
        <time>2021-01-03T14:42:03Z</time>
      </trkpt>
      <trkpt lat="43.63458" lon="3.81275">
        <ele>51.5</ele>
        <time>2021-01-03T14:42:04Z</time>
      </trkpt>
      <trkpt lat="43.63457" lon="3.81279">
        <ele>51.3</ele>
        <time>2021-01-03T14:42:05Z</time>
      </trkpt>
      <trkpt lat="43.63457" lon="3.81284">
        <ele>52.2</ele>
        <time>2021-01-03T14:42:06Z</time>
      </trkpt>
      <trkpt lat="43.63456" lon="3.81289">
        <ele>52.3</ele>
        <time>2021-01-03T14:42:07Z</time>
      </trkpt>
      <trkpt lat="43.63455" lon="3.81293">
        <ele>52.2</ele>
        <time>2021-01-03T14:42:08Z</time>
      </trkpt>
      <trkpt lat="43.63454" lon="3.81298">
        <ele>54</ele>
        <time>2021-01-03T14:42:09Z</time>
      </trkpt>
      <trkpt lat="43.63452" lon="3.81303">
        <ele>51.2</ele>
        <time>2021-01-03T14:42:10Z</time>
      </trkpt>
      <trkpt lat="43.6345" lon="3.81307">
        <ele>50.2</ele>
        <time>2021-01-03T14:42:11Z</time>
      </trkpt>
      <trkpt lat="43.63448" lon="3.81312">
        <ele>49.9</ele>
        <time>2021-01-03T14:42:12Z</time>
      </trkpt>
      <trkpt lat="43.63446" lon="3.81316">
        <ele>49.3</ele>
        <time>2021-01-03T14:42:13Z</time>
      </trkpt>
      <trkpt lat="43.63443" lon="3.81321">
        <ele>49</ele>
        <time>2021-01-03T14:42:14Z</time>
      </trkpt>
      <trkpt lat="43.63441" lon="3.81326">
        <ele>49.8</ele>
        <time>2021-01-03T14:42:15Z</time>
      </trkpt>
      <trkpt lat="43.63438" lon="3.81331">
        <ele>49.9</ele>
        <time>2021-01-03T14:42:16Z</time>
      </trkpt>
      <trkpt lat="43.63434" lon="3.81335">
        <ele>49.5</ele>
        <time>2021-01-03T14:42:17Z</time>
      </trkpt>
      <trkpt lat="43.63431" lon="3.81339">
        <ele>54</ele>
        <time>2021-01-03T14:42:18Z</time>
      </trkpt>
      <trkpt lat="43.63427" lon="3.81343">
        <ele>49.6</ele>
        <time>2021-01-03T14:42:19Z</time>
      </trkpt>
      <trkpt lat="43.63423" lon="3.81346">
        <ele>48.9</ele>
        <time>2021-01-03T14:42:20Z</time>
      </trkpt>
      <trkpt lat="43.6342" lon="3.81349">
        <ele>48.6</ele>
        <time>2021-01-03T14:42:21Z</time>
      </trkpt>
      <trkpt lat="43.63416" lon="3.81353">
        <ele>48.3</ele>
        <time>2021-01-03T14:42:22Z</time>
      </trkpt>
      <trkpt lat="43.63413" lon="3.81356">
        <ele>48.6</ele>
        <time>2021-01-03T14:42:23Z</time>
      </trkpt>
      <trkpt lat="43.63409" lon="3.81359">
        <ele>48.6</ele>
        <time>2021-01-03T14:42:24Z</time>
      </trkpt>
      <trkpt lat="43.63405" lon="3.81362">
        <ele>48.4</ele>
        <time>2021-01-03T14:42:25Z</time>
      </trkpt>
      <trkpt lat="43.63402" lon="3.81365">
        <ele>48.7</ele>
        <time>2021-01-03T14:42:26Z</time>
      </trkpt>
      <trkpt lat="43.63398" lon="3.81367">
        <ele>48.4</ele>
        <time>2021-01-03T14:42:27Z</time>
      </trkpt>
      <trkpt lat="43.63395" lon="3.8137">
        <ele>54</ele>
        <time>2021-01-03T14:42:28Z</time>
      </trkpt>
      <trkpt lat="43.63391" lon="3.81372">
        <ele>48.5</ele>
        <time>2021-01-03T14:42:29Z</time>
      </trkpt>
      <trkpt lat="43.63388" lon="3.81374">
        <ele>48.5</ele>
        <time>2021-01-03T14:42:30Z</time>
      </trkpt>
      <trkpt lat="43.63384" lon="3.81376">
        <ele>48.3</ele>
        <time>2021-01-03T14:42:31Z</time>
      </trkpt>
      <trkpt lat="43.63381" lon="3.81378">
        <ele>48.3</ele>
        <time>2021-01-03T14:42:32Z</time>
      </trkpt>
      <trkpt lat="43.63377" lon="3.81381">
        <ele>48.2</ele>
        <time>2021-01-03T14:42:33Z</time>
      </trkpt>
      <trkpt lat="43.63373" lon="3.81383">
        <ele>47.6</ele>
        <time>2021-01-03T14:42:34Z</time>
      </trkpt>
      <trkpt lat="43.6337" lon="3.81386">
        <ele>47.3</ele>
        <time>2021-01-03T14:42:35Z</time>
      </trkpt>
      <trkpt lat="43.63366" lon="3.81389">
        <ele>46.6</ele>
        <time>2021-01-03T14:42:36Z</time>
      </trkpt>
      <trkpt lat="43.63363" lon="3.81392">
        <ele>46</ele>
        <time>2021-01-03T14:42:37Z</time>
      </trkpt>
      <trkpt lat="43.63359" lon="3.81395">
        <ele>53</ele>
        <time>2021-01-03T14:42:38Z</time>
      </trkpt>
      <trkpt lat="43.63356" lon="3.81398">
        <ele>45.6</ele>
        <time>2021-01-03T14:42:39Z</time>
      </trkpt>
      <trkpt lat="43.63353" lon="3.81401">
        <ele>45.6</ele>
        <time>2021-01-03T14:42:40Z</time>
      </trkpt>
      <trkpt lat="43.63351" lon="3.81405">
        <ele>45.9</ele>
        <time>2021-01-03T14:42:41Z</time>
      </trkpt>
      <trkpt lat="43.63348" lon="3.81408">
        <ele>45.9</ele>
        <time>2021-01-03T14:42:42Z</time>
      </trkpt>
      <trkpt lat="43.63346" lon="3.81412">
        <ele>46.2</ele>
        <time>2021-01-03T14:42:43Z</time>
      </trkpt>
      <trkpt lat="43.63345" lon="3.81417">
        <ele>46.7</ele>
        <time>2021-01-03T14:42:44Z</time>
      </trkpt>
      <trkpt lat="43.63345" lon="3.81421">
        <ele>47.1</ele>
        <time>2021-01-03T14:42:45Z</time>
      </trkpt>
      <trkpt lat="43.63346" lon="3.81426">
        <ele>47.7</ele>
        <time>2021-01-03T14:42:46Z</time>
      </trkpt>
      <trkpt lat="43.63348" lon="3.81429">
        <ele>48.2</ele>
        <time>2021-01-03T14:42:47Z</time>
      </trkpt>
      <trkpt lat="43.63348" lon="3.81431">
        <ele>53</ele>
        <time>2021-01-03T14:42:48Z</time>
      </trkpt>
      <trkpt lat="43.63349" lon="3.81434">
        <ele>48.8</ele>
        <time>2021-01-03T14:42:49Z</time>
      </trkpt>
      <trkpt lat="43.63348" lon="3.81437">
        <ele>48.9</ele>
        <time>2021-01-03T14:42:50Z</time>
      </trkpt>
      <trkpt lat="43.63348" lon="3.8144">
        <ele>49.2</ele>
        <time>2021-01-03T14:42:51Z</time>
      </trkpt>
      <trkpt lat="43.63348" lon="3.81443">
        <ele>49.5</ele>
        <time>2021-01-03T14:42:52Z</time>
      </trkpt>
      <trkpt lat="43.63349" lon="3.81446">
        <ele>49.7</ele>
        <time>2021-01-03T14:42:53Z</time>
      </trkpt>
      <trkpt lat="43.63349" lon="3.81449">
        <ele>49.8</ele>
        <time>2021-01-03T14:42:54Z</time>
      </trkpt>
      <trkpt lat="43.6335" lon="3.81451">
        <ele>50</ele>
        <time>2021-01-03T14:42:55Z</time>
      </trkpt>
      <trkpt lat="43.63351" lon="3.81456">
        <ele>50.3</ele>
        <time>2021-01-03T14:42:57Z</time>
      </trkpt>
      <trkpt lat="43.63351" lon="3.81458">
        <ele>54</ele>
        <time>2021-01-03T14:42:58Z</time>
      </trkpt>
      <trkpt lat="43.63352" lon="3.81461">
        <ele>50.6</ele>
        <time>2021-01-03T14:42:59Z</time>
      </trkpt>
      <trkpt lat="43.63352" lon="3.81466">
        <ele>50.8</ele>
        <time>2021-01-03T14:43:01Z</time>
      </trkpt>
      <trkpt lat="43.63352" lon="3.81471">
        <ele>51</ele>
        <time>2021-01-03T14:43:03Z</time>
      </trkpt>
      <trkpt lat="43.63352" lon="3.81473">
        <ele>51</ele>
        <time>2021-01-03T14:43:04Z</time>
      </trkpt>
      <trkpt lat="43.63353" lon="3.81476">
        <ele>51.2</ele>
        <time>2021-01-03T14:43:05Z</time>
      </trkpt>
      <trkpt lat="43.63353" lon="3.81479">
        <ele>51.1</ele>
        <time>2021-01-03T14:43:06Z</time>
      </trkpt>
      <trkpt lat="43.63354" lon="3.81481">
        <ele>51.2</ele>
        <time>2021-01-03T14:43:07Z</time>
      </trkpt>
      <trkpt lat="43.63354" lon="3.81484">
        <ele>56</ele>
        <time>2021-01-03T14:43:08Z</time>
      </trkpt>
      <trkpt lat="43.63355" lon="3.81486">
        <ele>51.3</ele>
        <time>2021-01-03T14:43:09Z</time>
      </trkpt>
      <trkpt lat="43.63355" lon="3.81489">
        <ele>51.2</ele>
        <time>2021-01-03T14:43:10Z</time>
      </trkpt>
      <trkpt lat="43.63356" lon="3.81491">
        <ele>51.3</ele>
        <time>2021-01-03T14:43:11Z</time>
      </trkpt>
      <trkpt lat="43.63356" lon="3.81494">
        <ele>51.3</ele>
        <time>2021-01-03T14:43:12Z</time>
      </trkpt>
      <trkpt lat="43.63357" lon="3.81497">
        <ele>51.4</ele>
        <time>2021-01-03T14:43:13Z</time>
      </trkpt>
      <trkpt lat="43.63357" lon="3.81499">
        <ele>51.3</ele>
        <time>2021-01-03T14:43:14Z</time>
      </trkpt>
      <trkpt lat="43.63357" lon="3.81502">
        <ele>51.3</ele>
        <time>2021-01-03T14:43:15Z</time>
      </trkpt>
      <trkpt lat="43.63356" lon="3.81505">
        <ele>51.2</ele>
        <time>2021-01-03T14:43:16Z</time>
      </trkpt>
      <trkpt lat="43.63353" lon="3.81508">
        <ele>56</ele>
        <time>2021-01-03T14:43:18Z</time>
      </trkpt>
      <trkpt lat="43.63351" lon="3.81511">
        <ele>50.9</ele>
        <time>2021-01-03T14:43:20Z</time>
      </trkpt>
      <trkpt lat="43.63349" lon="3.81514">
        <ele>50.9</ele>
        <time>2021-01-03T14:43:22Z</time>
      </trkpt>
      <trkpt lat="43.63347" lon="3.81515">
        <ele>50.8</ele>
        <time>2021-01-03T14:43:23Z</time>
      </trkpt>
      <trkpt lat="43.63345" lon="3.81517">
        <ele>50.9</ele>
        <time>2021-01-03T14:43:24Z</time>
      </trkpt>
      <trkpt lat="43.63343" lon="3.81518">
        <ele>50.9</ele>
        <time>2021-01-03T14:43:25Z</time>
      </trkpt>
      <trkpt lat="43.63341" lon="3.81519">
        <ele>50.9</ele>
        <time>2021-01-03T14:43:26Z</time>
      </trkpt>
      <trkpt lat="43.63339" lon="3.81519">
        <ele>50.7</ele>
        <time>2021-01-03T14:43:27Z</time>
      </trkpt>
      <trkpt lat="43.63336" lon="3.8152">
        <ele>56</ele>
        <time>2021-01-03T14:43:28Z</time>
      </trkpt>
      <trkpt lat="43.63334" lon="3.81521">
        <ele>50.8</ele>
        <time>2021-01-03T14:43:29Z</time>
      </trkpt>
      <trkpt lat="43.63332" lon="3.81522">
        <ele>51</ele>
        <time>2021-01-03T14:43:30Z</time>
      </trkpt>
      <trkpt lat="43.6333" lon="3.81522">
        <ele>51</ele>
        <time>2021-01-03T14:43:31Z</time>
      </trkpt>
      <trkpt lat="43.63328" lon="3.81523">
        <ele>51.2</ele>
        <time>2021-01-03T14:43:32Z</time>
      </trkpt>
      <trkpt lat="43.63326" lon="3.81524">
        <ele>51.4</ele>
        <time>2021-01-03T14:43:33Z</time>
      </trkpt>
      <trkpt lat="43.63324" lon="3.81524">
        <ele>51.5</ele>
        <time>2021-01-03T14:43:34Z</time>
      </trkpt>
      <trkpt lat="43.63322" lon="3.81525">
        <ele>51.6</ele>
        <time>2021-01-03T14:43:35Z</time>
      </trkpt>
      <trkpt lat="43.63319" lon="3.81525">
        <ele>51.7</ele>
        <time>2021-01-03T14:43:36Z</time>
      </trkpt>
      <trkpt lat="43.63317" lon="3.81526">
        <ele>51.8</ele>
        <time>2021-01-03T14:43:37Z</time>
      </trkpt>
      <trkpt lat="43.63316" lon="3.81528">
        <ele>55</ele>
        <time>2021-01-03T14:43:38Z</time>
      </trkpt>
      <trkpt lat="43.63314" lon="3.8153">
        <ele>52.3</ele>
        <time>2021-01-03T14:43:39Z</time>
      </trkpt>
      <trkpt lat="43.63313" lon="3.81532">
        <ele>52.5</ele>
        <time>2021-01-03T14:43:40Z</time>
      </trkpt>
      <trkpt lat="43.63311" lon="3.81534">
        <ele>52.7</ele>
        <time>2021-01-03T14:43:41Z</time>
      </trkpt>
      <trkpt lat="43.6331" lon="3.81536">
        <ele>52.9</ele>
        <time>2021-01-03T14:43:42Z</time>
      </trkpt>
      <trkpt lat="43.63309" lon="3.81538">
        <ele>53</ele>
        <time>2021-01-03T14:43:43Z</time>
      </trkpt>
      <trkpt lat="43.63308" lon="3.81542">
        <ele>53.3</ele>
        <time>2021-01-03T14:43:45Z</time>
      </trkpt>
      <trkpt lat="43.63307" lon="3.81546">
        <ele>53.5</ele>
        <time>2021-01-03T14:43:47Z</time>
      </trkpt>
      <trkpt lat="43.63307" lon="3.8155">
        <ele>53.8</ele>
        <time>2021-01-03T14:43:49Z</time>
      </trkpt>
      <trkpt lat="43.63306" lon="3.81554">
        <ele>54</ele>
        <time>2021-01-03T14:43:51Z</time>
      </trkpt>
      <trkpt lat="43.63306" lon="3.81558">
        <ele>54.3</ele>
        <time>2021-01-03T14:43:53Z</time>
      </trkpt>
      <trkpt lat="43.63306" lon="3.81562">
        <ele>54.6</ele>
        <time>2021-01-03T14:43:55Z</time>
      </trkpt>
      <trkpt lat="43.63306" lon="3.81567">
        <ele>54.9</ele>
        <time>2021-01-03T14:43:57Z</time>
      </trkpt>
      <trkpt lat="43.63306" lon="3.81571">
        <ele>55.2</ele>
        <time>2021-01-03T14:43:59Z</time>
      </trkpt>
      <trkpt lat="43.63306" lon="3.81575">
        <ele>55.5</ele>
        <time>2021-01-03T14:44:01Z</time>
      </trkpt>
      <trkpt lat="43.63307" lon="3.81579">
        <ele>56.1</ele>
        <time>2021-01-03T14:44:03Z</time>
      </trkpt>
      <trkpt lat="43.63307" lon="3.81583">
        <ele>56.4</ele>
        <time>2021-01-03T14:44:05Z</time>
      </trkpt>
      <trkpt lat="43.63307" lon="3.81587">
        <ele>57</ele>
        <time>2021-01-03T14:44:07Z</time>
      </trkpt>
      <trkpt lat="43.63307" lon="3.81591">
        <ele>57.5</ele>
        <time>2021-01-03T14:44:09Z</time>
      </trkpt>
      <trkpt lat="43.63307" lon="3.81595">
        <ele>58.1</ele>
        <time>2021-01-03T14:44:11Z</time>
      </trkpt>
      <trkpt lat="43.63308" lon="3.81599">
        <ele>59</ele>
        <time>2021-01-03T14:44:13Z</time>
      </trkpt>
      <trkpt lat="43.63308" lon="3.81603">
        <ele>59.6</ele>
        <time>2021-01-03T14:44:15Z</time>
      </trkpt>
      <trkpt lat="43.63308" lon="3.81606">
        <ele>60</ele>
        <time>2021-01-03T14:44:17Z</time>
      </trkpt>
      <trkpt lat="43.63308" lon="3.81609">
        <ele>60.5</ele>
        <time>2021-01-03T14:44:19Z</time>
      </trkpt>
      <trkpt lat="43.63308" lon="3.81613">
        <ele>61.1</ele>
        <time>2021-01-03T14:44:21Z</time>
      </trkpt>
      <trkpt lat="43.63308" lon="3.81616">
        <ele>61.5</ele>
        <time>2021-01-03T14:44:23Z</time>
      </trkpt>
      <trkpt lat="43.63307" lon="3.81619">
        <ele>61.6</ele>
        <time>2021-01-03T14:44:25Z</time>
      </trkpt>
      <trkpt lat="43.63307" lon="3.81622">
        <ele>62</ele>
        <time>2021-01-03T14:44:27Z</time>
      </trkpt>
      <trkpt lat="43.63307" lon="3.81626">
        <ele>62.6</ele>
        <time>2021-01-03T14:44:29Z</time>
      </trkpt>
      <trkpt lat="43.63307" lon="3.81629">
        <ele>63</ele>
        <time>2021-01-03T14:44:31Z</time>
      </trkpt>
      <trkpt lat="43.63306" lon="3.81632">
        <ele>63.1</ele>
        <time>2021-01-03T14:44:33Z</time>
      </trkpt>
      <trkpt lat="43.63306" lon="3.81635">
        <ele>63.6</ele>
        <time>2021-01-03T14:44:35Z</time>
      </trkpt>
      <trkpt lat="43.63306" lon="3.81638">
        <ele>64</ele>
        <time>2021-01-03T14:44:37Z</time>
      </trkpt>
      <trkpt lat="43.63305" lon="3.81641">
        <ele>64.4</ele>
        <time>2021-01-03T14:44:39Z</time>
      </trkpt>
      <trkpt lat="43.63305" lon="3.81644">
        <ele>65</ele>
        <time>2021-01-03T14:44:41Z</time>
      </trkpt>
      <trkpt lat="43.63305" lon="3.81647">
        <ele>65.5</ele>
        <time>2021-01-03T14:44:43Z</time>
      </trkpt>
      <trkpt lat="43.63305" lon="3.8165">
        <ele>66</ele>
        <time>2021-01-03T14:44:45Z</time>
      </trkpt>
      <trkpt lat="43.63304" lon="3.81654">
        <ele>66.8</ele>
        <time>2021-01-03T14:44:47Z</time>
      </trkpt>
      <trkpt lat="43.63304" lon="3.81656">
        <ele>67.1</ele>
        <time>2021-01-03T14:44:49Z</time>
      </trkpt>
      <trkpt lat="43.63304" lon="3.8166">
        <ele>67.8</ele>
        <time>2021-01-03T14:44:51Z</time>
      </trkpt>
      <trkpt lat="43.63303" lon="3.81663">
        <ele>68.4</ele>
        <time>2021-01-03T14:44:53Z</time>
      </trkpt>
      <trkpt lat="43.63303" lon="3.81666">
        <ele>68.9</ele>
        <time>2021-01-03T14:44:55Z</time>
      </trkpt>
      <trkpt lat="43.63303" lon="3.81669">
        <ele>69.1</ele>
        <time>2021-01-03T14:44:57Z</time>
      </trkpt>
      <trkpt lat="43.63301" lon="3.81672">
        <ele>70</ele>
        <time>2021-01-03T14:44:59Z</time>
      </trkpt>
      <trkpt lat="43.63299" lon="3.81674">
        <ele>69.2</ele>
        <time>2021-01-03T14:45:01Z</time>
      </trkpt>
      <trkpt lat="43.63297" lon="3.81676">
        <ele>69.2</ele>
        <time>2021-01-03T14:45:03Z</time>
      </trkpt>
      <trkpt lat="43.63296" lon="3.81678">
        <ele>69.3</ele>
        <time>2021-01-03T14:45:05Z</time>
      </trkpt>
      <trkpt lat="43.63294" lon="3.81681">
        <ele>69.3</ele>
        <time>2021-01-03T14:45:07Z</time>
      </trkpt>
      <trkpt lat="43.63292" lon="3.81683">
        <ele>69.3</ele>
        <time>2021-01-03T14:45:09Z</time>
      </trkpt>
      <trkpt lat="43.63289" lon="3.81683">
        <ele>69.2</ele>
        <time>2021-01-03T14:45:11Z</time>
      </trkpt>
      <trkpt lat="43.63286" lon="3.81682">
        <ele>69.2</ele>
        <time>2021-01-03T14:45:13Z</time>
      </trkpt>
      <trkpt lat="43.63284" lon="3.8168">
        <ele>69.1</ele>
        <time>2021-01-03T14:45:14Z</time>
      </trkpt>
      <trkpt lat="43.63282" lon="3.81678">
        <ele>69.1</ele>
        <time>2021-01-03T14:45:15Z</time>
      </trkpt>
      <trkpt lat="43.6328" lon="3.81676">
        <ele>69</ele>
        <time>2021-01-03T14:45:16Z</time>
      </trkpt>
      <trkpt lat="43.63278" lon="3.81673">
        <ele>69</ele>
        <time>2021-01-03T14:45:17Z</time>
      </trkpt>
      <trkpt lat="43.63276" lon="3.81671">
        <ele>72</ele>
        <time>2021-01-03T14:45:18Z</time>
      </trkpt>
      <trkpt lat="43.63274" lon="3.8167">
        <ele>69.1</ele>
        <time>2021-01-03T14:45:19Z</time>
      </trkpt>
      <trkpt lat="43.63271" lon="3.81668">
        <ele>69.2</ele>
        <time>2021-01-03T14:45:20Z</time>
      </trkpt>
      <trkpt lat="43.63269" lon="3.81667">
        <ele>69.3</ele>
        <time>2021-01-03T14:45:21Z</time>
      </trkpt>
      <trkpt lat="43.63266" lon="3.81667">
        <ele>69.4</ele>
        <time>2021-01-03T14:45:22Z</time>
      </trkpt>
      <trkpt lat="43.63263" lon="3.81667">
        <ele>69.5</ele>
        <time>2021-01-03T14:45:23Z</time>
      </trkpt>
      <trkpt lat="43.63261" lon="3.81667">
        <ele>69.6</ele>
        <time>2021-01-03T14:45:24Z</time>
      </trkpt>
      <trkpt lat="43.63258" lon="3.81667">
        <ele>69.7</ele>
        <time>2021-01-03T14:45:25Z</time>
      </trkpt>
      <trkpt lat="43.63255" lon="3.81667">
        <ele>69.8</ele>
        <time>2021-01-03T14:45:26Z</time>
      </trkpt>
      <trkpt lat="43.63253" lon="3.81668">
        <ele>69.8</ele>
        <time>2021-01-03T14:45:27Z</time>
      </trkpt>
      <trkpt lat="43.6325" lon="3.81668">
        <ele>72</ele>
        <time>2021-01-03T14:45:28Z</time>
      </trkpt>
      <trkpt lat="43.63247" lon="3.81669">
        <ele>69.9</ele>
        <time>2021-01-03T14:45:29Z</time>
      </trkpt>
      <trkpt lat="43.63244" lon="3.81669">
        <ele>69.9</ele>
        <time>2021-01-03T14:45:30Z</time>
      </trkpt>
      <trkpt lat="43.63242" lon="3.8167">
        <ele>69.9</ele>
        <time>2021-01-03T14:45:31Z</time>
      </trkpt>
      <trkpt lat="43.63239" lon="3.8167">
        <ele>69.9</ele>
        <time>2021-01-03T14:45:32Z</time>
      </trkpt>
      <trkpt lat="43.63237" lon="3.81671">
        <ele>69.8</ele>
        <time>2021-01-03T14:45:33Z</time>
      </trkpt>
      <trkpt lat="43.63234" lon="3.81672">
        <ele>69.8</ele>
        <time>2021-01-03T14:45:34Z</time>
      </trkpt>
      <trkpt lat="43.63232" lon="3.81673">
        <ele>69.8</ele>
        <time>2021-01-03T14:45:35Z</time>
      </trkpt>
      <trkpt lat="43.63229" lon="3.81674">
        <ele>69.7</ele>
        <time>2021-01-03T14:45:36Z</time>
      </trkpt>
      <trkpt lat="43.63227" lon="3.81675">
        <ele>69.7</ele>
        <time>2021-01-03T14:45:37Z</time>
      </trkpt>
      <trkpt lat="43.63224" lon="3.81677">
        <ele>69.6</ele>
        <time>2021-01-03T14:45:38Z</time>
      </trkpt>
      <trkpt lat="43.63221" lon="3.81679">
        <ele>72</ele>
        <time>2021-01-03T14:45:39Z</time>
      </trkpt>
      <trkpt lat="43.63219" lon="3.81682">
        <ele>69.2</ele>
        <time>2021-01-03T14:45:40Z</time>
      </trkpt>
      <trkpt lat="43.63216" lon="3.81685">
        <ele>68.8</ele>
        <time>2021-01-03T14:45:41Z</time>
      </trkpt>
      <trkpt lat="43.63213" lon="3.81689">
        <ele>68.5</ele>
        <time>2021-01-03T14:45:42Z</time>
      </trkpt>
      <trkpt lat="43.6321" lon="3.81693">
        <ele>68.1</ele>
        <time>2021-01-03T14:45:43Z</time>
      </trkpt>
      <trkpt lat="43.63207" lon="3.81695">
        <ele>67.9</ele>
        <time>2021-01-03T14:45:44Z</time>
      </trkpt>
      <trkpt lat="43.63204" lon="3.81696">
        <ele>67.6</ele>
        <time>2021-01-03T14:45:45Z</time>
      </trkpt>
      <trkpt lat="43.63202" lon="3.817">
        <ele>67.3</ele>
        <time>2021-01-03T14:45:46Z</time>
      </trkpt>
      <trkpt lat="43.632" lon="3.81704">
        <ele>67</ele>
        <time>2021-01-03T14:45:47Z</time>
      </trkpt>
      <trkpt lat="43.63198" lon="3.8171">
        <ele>72</ele>
        <time>2021-01-03T14:45:48Z</time>
      </trkpt>
      <trkpt lat="43.63196" lon="3.81716">
        <ele>66.3</ele>
        <time>2021-01-03T14:45:49Z</time>
      </trkpt>
      <trkpt lat="43.63194" lon="3.81722">
        <ele>66</ele>
        <time>2021-01-03T14:45:50Z</time>
      </trkpt>
      <trkpt lat="43.63193" lon="3.81729">
        <ele>65.4</ele>
        <time>2021-01-03T14:45:51Z</time>
      </trkpt>
      <trkpt lat="43.63191" lon="3.81735">
        <ele>64.8</ele>
        <time>2021-01-03T14:45:52Z</time>
      </trkpt>
      <trkpt lat="43.63188" lon="3.81741">
        <ele>64.3</ele>
        <time>2021-01-03T14:45:53Z</time>
      </trkpt>
      <trkpt lat="43.63184" lon="3.81748">
        <ele>63.7</ele>
        <time>2021-01-03T14:45:54Z</time>
      </trkpt>
      <trkpt lat="43.6318" lon="3.81754">
        <ele>63.3</ele>
        <time>2021-01-03T14:45:55Z</time>
      </trkpt>
      <trkpt lat="43.63176" lon="3.8176">
        <ele>63</ele>
        <time>2021-01-03T14:45:56Z</time>
      </trkpt>
      <trkpt lat="43.63171" lon="3.81766">
        <ele>62.6</ele>
        <time>2021-01-03T14:45:57Z</time>
      </trkpt>
      <trkpt lat="43.63165" lon="3.81772">
        <ele>70</ele>
        <time>2021-01-03T14:45:58Z</time>
      </trkpt>
      <trkpt lat="43.6316" lon="3.81778">
        <ele>62</ele>
        <time>2021-01-03T14:45:59Z</time>
      </trkpt>
      <trkpt lat="43.63155" lon="3.81782">
        <ele>61.8</ele>
        <time>2021-01-03T14:46:00Z</time>
      </trkpt>
      <trkpt lat="43.6315" lon="3.81784">
        <ele>61.7</ele>
        <time>2021-01-03T14:46:01Z</time>
      </trkpt>
      <trkpt lat="43.63145" lon="3.81784">
        <ele>61.7</ele>
        <time>2021-01-03T14:46:02Z</time>
      </trkpt>
      <trkpt lat="43.63141" lon="3.81785">
        <ele>61.7</ele>
        <time>2021-01-03T14:46:03Z</time>
      </trkpt>
      <trkpt lat="43.63138" lon="3.81787">
        <ele>61.6</ele>
        <time>2021-01-03T14:46:04Z</time>
      </trkpt>
      <trkpt lat="43.63135" lon="3.8179">
        <ele>61.3</ele>
        <time>2021-01-03T14:46:05Z</time>
      </trkpt>
      <trkpt lat="43.6313" lon="3.81793">
        <ele>61</ele>
        <time>2021-01-03T14:46:06Z</time>
      </trkpt>
      <trkpt lat="43.63125" lon="3.81795">
        <ele>60.7</ele>
        <time>2021-01-03T14:46:07Z</time>
      </trkpt>
      <trkpt lat="43.63121" lon="3.81797">
        <ele>69</ele>
        <time>2021-01-03T14:46:08Z</time>
      </trkpt>
      <trkpt lat="43.63116" lon="3.81799">
        <ele>60.2</ele>
        <time>2021-01-03T14:46:09Z</time>
      </trkpt>
      <trkpt lat="43.63112" lon="3.81801">
        <ele>60</ele>
        <time>2021-01-03T14:46:10Z</time>
      </trkpt>
      <trkpt lat="43.63109" lon="3.81803">
        <ele>59.9</ele>
        <time>2021-01-03T14:46:11Z</time>
      </trkpt>
      <trkpt lat="43.63106" lon="3.81806">
        <ele>59.8</ele>
        <time>2021-01-03T14:46:12Z</time>
      </trkpt>
      <trkpt lat="43.63105" lon="3.8181">
        <ele>59.6</ele>
        <time>2021-01-03T14:46:13Z</time>
      </trkpt>
      <trkpt lat="43.63105" lon="3.81814">
        <ele>59.5</ele>
        <time>2021-01-03T14:46:14Z</time>
      </trkpt>
      <trkpt lat="43.63104" lon="3.81818">
        <ele>59.3</ele>
        <time>2021-01-03T14:46:15Z</time>
      </trkpt>
      <trkpt lat="43.63104" lon="3.81823">
        <ele>59.1</ele>
        <time>2021-01-03T14:46:16Z</time>
      </trkpt>
      <trkpt lat="43.63103" lon="3.81828">
        <ele>58.9</ele>
        <time>2021-01-03T14:46:17Z</time>
      </trkpt>
      <trkpt lat="43.63102" lon="3.81833">
        <ele>69</ele>
        <time>2021-01-03T14:46:18Z</time>
      </trkpt>
      <trkpt lat="43.631" lon="3.81838">
        <ele>58.3</ele>
        <time>2021-01-03T14:46:19Z</time>
      </trkpt>
      <trkpt lat="43.63098" lon="3.81844">
        <ele>57.8</ele>
        <time>2021-01-03T14:46:20Z</time>
      </trkpt>
      <trkpt lat="43.63096" lon="3.81851">
        <ele>57.2</ele>
        <time>2021-01-03T14:46:21Z</time>
      </trkpt>
      <trkpt lat="43.63093" lon="3.81859">
        <ele>56.5</ele>
        <time>2021-01-03T14:46:22Z</time>
      </trkpt>
      <trkpt lat="43.6309" lon="3.81867">
        <ele>55.8</ele>
        <time>2021-01-03T14:46:23Z</time>
      </trkpt>
      <trkpt lat="43.63087" lon="3.81874">
        <ele>55.2</ele>
        <time>2021-01-03T14:46:24Z</time>
      </trkpt>
      <trkpt lat="43.63083" lon="3.81878">
        <ele>54.8</ele>
        <time>2021-01-03T14:46:25Z</time>
      </trkpt>
      <trkpt lat="43.63078" lon="3.81881">
        <ele>54.2</ele>
        <time>2021-01-03T14:46:26Z</time>
      </trkpt>
      <trkpt lat="43.63073" lon="3.81883">
        <ele>53.7</ele>
        <time>2021-01-03T14:46:27Z</time>
      </trkpt>
      <trkpt lat="43.63069" lon="3.81887">
        <ele>67</ele>
        <time>2021-01-03T14:46:28Z</time>
      </trkpt>
      <trkpt lat="43.63065" lon="3.8189">
        <ele>52.7</ele>
        <time>2021-01-03T14:46:29Z</time>
      </trkpt>
      <trkpt lat="43.63063" lon="3.81894">
        <ele>52.5</ele>
        <time>2021-01-03T14:46:30Z</time>
      </trkpt>
      <trkpt lat="43.63063" lon="3.81899">
        <ele>52.4</ele>
        <time>2021-01-03T14:46:31Z</time>
      </trkpt>
      <trkpt lat="43.63063" lon="3.81903">
        <ele>52.4</ele>
        <time>2021-01-03T14:46:32Z</time>
      </trkpt>
      <trkpt lat="43.63063" lon="3.81907">
        <ele>52.4</ele>
        <time>2021-01-03T14:46:33Z</time>
      </trkpt>
      <trkpt lat="43.63064" lon="3.81913">
        <ele>52.3</ele>
        <time>2021-01-03T14:46:34Z</time>
      </trkpt>
      <trkpt lat="43.63064" lon="3.81918">
        <ele>52.3</ele>
        <time>2021-01-03T14:46:35Z</time>
      </trkpt>
      <trkpt lat="43.63065" lon="3.81921">
        <ele>52.3</ele>
        <time>2021-01-03T14:46:36Z</time>
      </trkpt>
      <trkpt lat="43.63066" lon="3.81925">
        <ele>52.4</ele>
        <time>2021-01-03T14:46:37Z</time>
      </trkpt>
      <trkpt lat="43.63067" lon="3.81928">
        <ele>66</ele>
        <time>2021-01-03T14:46:38Z</time>
      </trkpt>
      <trkpt lat="43.63067" lon="3.81932">
        <ele>52.4</ele>
        <time>2021-01-03T14:46:39Z</time>
      </trkpt>
      <trkpt lat="43.63068" lon="3.81936">
        <ele>52.4</ele>
        <time>2021-01-03T14:46:40Z</time>
      </trkpt>
      <trkpt lat="43.63069" lon="3.8194">
        <ele>52.5</ele>
        <time>2021-01-03T14:46:41Z</time>
      </trkpt>
      <trkpt lat="43.6307" lon="3.81944">
        <ele>52.5</ele>
        <time>2021-01-03T14:46:42Z</time>
      </trkpt>
      <trkpt lat="43.6307" lon="3.81947">
        <ele>52.5</ele>
        <time>2021-01-03T14:46:43Z</time>
      </trkpt>
      <trkpt lat="43.63071" lon="3.81951">
        <ele>52.6</ele>
        <time>2021-01-03T14:46:44Z</time>
      </trkpt>
      <trkpt lat="43.63072" lon="3.81954">
        <ele>52.6</ele>
        <time>2021-01-03T14:46:45Z</time>
      </trkpt>
      <trkpt lat="43.63072" lon="3.81956">
        <ele>52.6</ele>
        <time>2021-01-03T14:46:46Z</time>
      </trkpt>
      <trkpt lat="43.63072" lon="3.81959">
        <ele>52.6</ele>
        <time>2021-01-03T14:46:47Z</time>
      </trkpt>
      <trkpt lat="43.63072" lon="3.81962">
        <ele>66</ele>
        <time>2021-01-03T14:46:48Z</time>
      </trkpt>
      <trkpt lat="43.63072" lon="3.81965">
        <ele>52.6</ele>
        <time>2021-01-03T14:46:49Z</time>
      </trkpt>
      <trkpt lat="43.63072" lon="3.81969">
        <ele>52.6</ele>
        <time>2021-01-03T14:46:50Z</time>
      </trkpt>
      <trkpt lat="43.63073" lon="3.81972">
        <ele>52.6</ele>
        <time>2021-01-03T14:46:51Z</time>
      </trkpt>
      <trkpt lat="43.63074" lon="3.81976">
        <ele>52.7</ele>
        <time>2021-01-03T14:46:52Z</time>
      </trkpt>
      <trkpt lat="43.63074" lon="3.81979">
        <ele>52.7</ele>
        <time>2021-01-03T14:46:53Z</time>
      </trkpt>
      <trkpt lat="43.63074" lon="3.81983">
        <ele>52.7</ele>
        <time>2021-01-03T14:46:54Z</time>
      </trkpt>
      <trkpt lat="43.63074" lon="3.81987">
        <ele>52.7</ele>
        <time>2021-01-03T14:46:55Z</time>
      </trkpt>
      <trkpt lat="43.63074" lon="3.8199">
        <ele>52.7</ele>
        <time>2021-01-03T14:46:56Z</time>
      </trkpt>
      <trkpt lat="43.63074" lon="3.81994">
        <ele>52.7</ele>
        <time>2021-01-03T14:46:57Z</time>
      </trkpt>
      <trkpt lat="43.63074" lon="3.81998">
        <ele>64</ele>
        <time>2021-01-03T14:46:58Z</time>
      </trkpt>
      <trkpt lat="43.63074" lon="3.82002">
        <ele>52.7</ele>
        <time>2021-01-03T14:46:59Z</time>
      </trkpt>
      <trkpt lat="43.63074" lon="3.82006">
        <ele>52.7</ele>
        <time>2021-01-03T14:47:00Z</time>
      </trkpt>
      <trkpt lat="43.63074" lon="3.8201">
        <ele>52.8</ele>
        <time>2021-01-03T14:47:01Z</time>
      </trkpt>
      <trkpt lat="43.63074" lon="3.82014">
        <ele>52.8</ele>
        <time>2021-01-03T14:47:02Z</time>
      </trkpt>
      <trkpt lat="43.63074" lon="3.82019">
        <ele>52.9</ele>
        <time>2021-01-03T14:47:03Z</time>
      </trkpt>
      <trkpt lat="43.63073" lon="3.82023">
        <ele>52.9</ele>
        <time>2021-01-03T14:47:04Z</time>
      </trkpt>
      <trkpt lat="43.63073" lon="3.82027">
        <ele>53</ele>
        <time>2021-01-03T14:47:05Z</time>
      </trkpt>
      <trkpt lat="43.63073" lon="3.82031">
        <ele>53</ele>
        <time>2021-01-03T14:47:06Z</time>
      </trkpt>
      <trkpt lat="43.63073" lon="3.82034">
        <ele>53</ele>
        <time>2021-01-03T14:47:07Z</time>
      </trkpt>
      <trkpt lat="43.63073" lon="3.82038">
        <ele>63</ele>
        <time>2021-01-03T14:47:08Z</time>
      </trkpt>
      <trkpt lat="43.63072" lon="3.82042">
        <ele>53</ele>
        <time>2021-01-03T14:47:09Z</time>
      </trkpt>
      <trkpt lat="43.63072" lon="3.82045">
        <ele>53</ele>
        <time>2021-01-03T14:47:10Z</time>
      </trkpt>
      <trkpt lat="43.63072" lon="3.82048">
        <ele>53</ele>
        <time>2021-01-03T14:47:11Z</time>
      </trkpt>
      <trkpt lat="43.63072" lon="3.82052">
        <ele>53</ele>
        <time>2021-01-03T14:47:12Z</time>
      </trkpt>
      <trkpt lat="43.63072" lon="3.82055">
        <ele>53</ele>
        <time>2021-01-03T14:47:13Z</time>
      </trkpt>
      <trkpt lat="43.63072" lon="3.82059">
        <ele>53.1</ele>
        <time>2021-01-03T14:47:14Z</time>
      </trkpt>
      <trkpt lat="43.63072" lon="3.82062">
        <ele>53.1</ele>
        <time>2021-01-03T14:47:15Z</time>
      </trkpt>
      <trkpt lat="43.63072" lon="3.82066">
        <ele>53.2</ele>
        <time>2021-01-03T14:47:16Z</time>
      </trkpt>
      <trkpt lat="43.63072" lon="3.82069">
        <ele>53.3</ele>
        <time>2021-01-03T14:47:17Z</time>
      </trkpt>
      <trkpt lat="43.63072" lon="3.82073">
        <ele>63</ele>
        <time>2021-01-03T14:47:18Z</time>
      </trkpt>
      <trkpt lat="43.63073" lon="3.82077">
        <ele>53.5</ele>
        <time>2021-01-03T14:47:19Z</time>
      </trkpt>
      <trkpt lat="43.63073" lon="3.82081">
        <ele>53.6</ele>
        <time>2021-01-03T14:47:20Z</time>
      </trkpt>
      <trkpt lat="43.63072" lon="3.82085">
        <ele>53.6</ele>
        <time>2021-01-03T14:47:21Z</time>
      </trkpt>
      <trkpt lat="43.63072" lon="3.82089">
        <ele>53.7</ele>
        <time>2021-01-03T14:47:22Z</time>
      </trkpt>
      <trkpt lat="43.63072" lon="3.82093">
        <ele>53.7</ele>
        <time>2021-01-03T14:47:23Z</time>
      </trkpt>
      <trkpt lat="43.63071" lon="3.82096">
        <ele>53.8</ele>
        <time>2021-01-03T14:47:24Z</time>
      </trkpt>
      <trkpt lat="43.63071" lon="3.821">
        <ele>53.8</ele>
        <time>2021-01-03T14:47:25Z</time>
      </trkpt>
      <trkpt lat="43.63071" lon="3.82104">
        <ele>53.9</ele>
        <time>2021-01-03T14:47:26Z</time>
      </trkpt>
      <trkpt lat="43.63071" lon="3.82107">
        <ele>53.9</ele>
        <time>2021-01-03T14:47:27Z</time>
      </trkpt>
      <trkpt lat="43.63071" lon="3.8211">
        <ele>62</ele>
        <time>2021-01-03T14:47:28Z</time>
      </trkpt>
      <trkpt lat="43.63071" lon="3.82114">
        <ele>54</ele>
        <time>2021-01-03T14:47:29Z</time>
      </trkpt>
      <trkpt lat="43.63071" lon="3.82118">
        <ele>54</ele>
        <time>2021-01-03T14:47:30Z</time>
      </trkpt>
      <trkpt lat="43.63071" lon="3.82122">
        <ele>54</ele>
        <time>2021-01-03T14:47:31Z</time>
      </trkpt>
      <trkpt lat="43.63071" lon="3.82125">
        <ele>54</ele>
        <time>2021-01-03T14:47:32Z</time>
      </trkpt>
      <trkpt lat="43.63071" lon="3.82129">
        <ele>54</ele>
        <time>2021-01-03T14:47:33Z</time>
      </trkpt>
      <trkpt lat="43.63071" lon="3.82132">
        <ele>54</ele>
        <time>2021-01-03T14:47:34Z</time>
      </trkpt>
      <trkpt lat="43.63071" lon="3.82135">
        <ele>54</ele>
        <time>2021-01-03T14:47:35Z</time>
      </trkpt>
      <trkpt lat="43.63071" lon="3.82138">
        <ele>54</ele>
        <time>2021-01-03T14:47:36Z</time>
      </trkpt>
      <trkpt lat="43.63071" lon="3.82142">
        <ele>54.1</ele>
        <time>2021-01-03T14:47:37Z</time>
      </trkpt>
      <trkpt lat="43.63071" lon="3.82146">
        <ele>61</ele>
        <time>2021-01-03T14:47:38Z</time>
      </trkpt>
      <trkpt lat="43.63071" lon="3.8215">
        <ele>54.4</ele>
        <time>2021-01-03T14:47:39Z</time>
      </trkpt>
      <trkpt lat="43.63071" lon="3.82153">
        <ele>54.5</ele>
        <time>2021-01-03T14:47:40Z</time>
      </trkpt>
      <trkpt lat="43.63071" lon="3.82157">
        <ele>54.7</ele>
        <time>2021-01-03T14:47:41Z</time>
      </trkpt>
      <trkpt lat="43.63071" lon="3.8216">
        <ele>54.8</ele>
        <time>2021-01-03T14:47:42Z</time>
      </trkpt>
      <trkpt lat="43.6307" lon="3.82164">
        <ele>54.9</ele>
        <time>2021-01-03T14:47:43Z</time>
      </trkpt>
      <trkpt lat="43.63069" lon="3.82167">
        <ele>55</ele>
        <time>2021-01-03T14:47:44Z</time>
      </trkpt>
      <trkpt lat="43.63068" lon="3.82171">
        <ele>55</ele>
        <time>2021-01-03T14:47:45Z</time>
      </trkpt>
      <trkpt lat="43.63068" lon="3.82175">
        <ele>55</ele>
        <time>2021-01-03T14:47:46Z</time>
      </trkpt>
      <trkpt lat="43.63068" lon="3.82178">
        <ele>55</ele>
        <time>2021-01-03T14:47:47Z</time>
      </trkpt>
      <trkpt lat="43.63067" lon="3.82181">
        <ele>55</ele>
        <time>2021-01-03T14:47:48Z</time>
      </trkpt>
      <trkpt lat="43.63067" lon="3.82185">
        <ele>61</ele>
        <time>2021-01-03T14:47:49Z</time>
      </trkpt>
      <trkpt lat="43.63067" lon="3.82188">
        <ele>55</ele>
        <time>2021-01-03T14:47:50Z</time>
      </trkpt>
      <trkpt lat="43.63067" lon="3.82191">
        <ele>55</ele>
        <time>2021-01-03T14:47:51Z</time>
      </trkpt>
      <trkpt lat="43.63067" lon="3.82194">
        <ele>55</ele>
        <time>2021-01-03T14:47:52Z</time>
      </trkpt>
      <trkpt lat="43.63067" lon="3.82198">
        <ele>55</ele>
        <time>2021-01-03T14:47:53Z</time>
      </trkpt>
      <trkpt lat="43.63067" lon="3.82201">
        <ele>55</ele>
        <time>2021-01-03T14:47:54Z</time>
      </trkpt>
      <trkpt lat="43.63067" lon="3.82205">
        <ele>55</ele>
        <time>2021-01-03T14:47:55Z</time>
      </trkpt>
      <trkpt lat="43.63067" lon="3.82208">
        <ele>55</ele>
        <time>2021-01-03T14:47:56Z</time>
      </trkpt>
      <trkpt lat="43.63068" lon="3.82212">
        <ele>55</ele>
        <time>2021-01-03T14:47:57Z</time>
      </trkpt>
      <trkpt lat="43.63068" lon="3.82215">
        <ele>62</ele>
        <time>2021-01-03T14:47:58Z</time>
      </trkpt>
      <trkpt lat="43.63067" lon="3.82218">
        <ele>55</ele>
        <time>2021-01-03T14:47:59Z</time>
      </trkpt>
      <trkpt lat="43.63067" lon="3.82222">
        <ele>55</ele>
        <time>2021-01-03T14:48:00Z</time>
      </trkpt>
      <trkpt lat="43.63067" lon="3.82225">
        <ele>54.6</ele>
        <time>2021-01-03T14:48:01Z</time>
      </trkpt>
      <trkpt lat="43.63067" lon="3.82228">
        <ele>54.2</ele>
        <time>2021-01-03T14:48:02Z</time>
      </trkpt>
      <trkpt lat="43.63067" lon="3.82231">
        <ele>53.7</ele>
        <time>2021-01-03T14:48:03Z</time>
      </trkpt>
      <trkpt lat="43.63067" lon="3.82234">
        <ele>53.3</ele>
        <time>2021-01-03T14:48:04Z</time>
      </trkpt>
      <trkpt lat="43.63067" lon="3.82237">
        <ele>52.9</ele>
        <time>2021-01-03T14:48:05Z</time>
      </trkpt>
      <trkpt lat="43.63067" lon="3.8224">
        <ele>52.4</ele>
        <time>2021-01-03T14:48:06Z</time>
      </trkpt>
      <trkpt lat="43.63067" lon="3.82244">
        <ele>51.9</ele>
        <time>2021-01-03T14:48:07Z</time>
      </trkpt>
      <trkpt lat="43.63067" lon="3.82248">
        <ele>51.3</ele>
        <time>2021-01-03T14:48:08Z</time>
      </trkpt>
      <trkpt lat="43.63066" lon="3.82252">
        <ele>62</ele>
        <time>2021-01-03T14:48:09Z</time>
      </trkpt>
      <trkpt lat="43.63066" lon="3.82256">
        <ele>52.1</ele>
        <time>2021-01-03T14:48:10Z</time>
      </trkpt>
      <trkpt lat="43.63066" lon="3.8226">
        <ele>52.8</ele>
        <time>2021-01-03T14:48:11Z</time>
      </trkpt>
      <trkpt lat="43.63066" lon="3.82264">
        <ele>53.5</ele>
        <time>2021-01-03T14:48:12Z</time>
      </trkpt>
      <trkpt lat="43.63066" lon="3.82268">
        <ele>54.2</ele>
        <time>2021-01-03T14:48:13Z</time>
      </trkpt>
      <trkpt lat="43.63066" lon="3.82272">
        <ele>55</ele>
        <time>2021-01-03T14:48:14Z</time>
      </trkpt>
      <trkpt lat="43.63066" lon="3.82276">
        <ele>55.7</ele>
        <time>2021-01-03T14:48:15Z</time>
      </trkpt>
      <trkpt lat="43.63066" lon="3.82281">
        <ele>56</ele>
        <time>2021-01-03T14:48:16Z</time>
      </trkpt>
      <trkpt lat="43.63066" lon="3.82285">
        <ele>56</ele>
        <time>2021-01-03T14:48:17Z</time>
      </trkpt>
      <trkpt lat="43.63066" lon="3.8229">
        <ele>62</ele>
        <time>2021-01-03T14:48:18Z</time>
      </trkpt>
      <trkpt lat="43.63065" lon="3.82295">
        <ele>56</ele>
        <time>2021-01-03T14:48:19Z</time>
      </trkpt>
      <trkpt lat="43.63064" lon="3.823">
        <ele>56</ele>
        <time>2021-01-03T14:48:20Z</time>
      </trkpt>
      <trkpt lat="43.63063" lon="3.82304">
        <ele>56</ele>
        <time>2021-01-03T14:48:21Z</time>
      </trkpt>
      <trkpt lat="43.63063" lon="3.82309">
        <ele>56</ele>
        <time>2021-01-03T14:48:22Z</time>
      </trkpt>
      <trkpt lat="43.63062" lon="3.82313">
        <ele>56</ele>
        <time>2021-01-03T14:48:23Z</time>
      </trkpt>
      <trkpt lat="43.63062" lon="3.82318">
        <ele>56</ele>
        <time>2021-01-03T14:48:24Z</time>
      </trkpt>
      <trkpt lat="43.63062" lon="3.82323">
        <ele>56</ele>
        <time>2021-01-03T14:48:25Z</time>
      </trkpt>
      <trkpt lat="43.63062" lon="3.82327">
        <ele>56</ele>
        <time>2021-01-03T14:48:26Z</time>
      </trkpt>
      <trkpt lat="43.63062" lon="3.82332">
        <ele>56</ele>
        <time>2021-01-03T14:48:27Z</time>
      </trkpt>
      <trkpt lat="43.63062" lon="3.82337">
        <ele>62</ele>
        <time>2021-01-03T14:48:28Z</time>
      </trkpt>
      <trkpt lat="43.63062" lon="3.82341">
        <ele>56</ele>
        <time>2021-01-03T14:48:29Z</time>
      </trkpt>
      <trkpt lat="43.63062" lon="3.82346">
        <ele>56</ele>
        <time>2021-01-03T14:48:30Z</time>
      </trkpt>
      <trkpt lat="43.63062" lon="3.82351">
        <ele>56</ele>
        <time>2021-01-03T14:48:31Z</time>
      </trkpt>
      <trkpt lat="43.63062" lon="3.82356">
        <ele>56</ele>
        <time>2021-01-03T14:48:32Z</time>
      </trkpt>
      <trkpt lat="43.63061" lon="3.82361">
        <ele>56</ele>
        <time>2021-01-03T14:48:33Z</time>
      </trkpt>
      <trkpt lat="43.63061" lon="3.82366">
        <ele>56</ele>
        <time>2021-01-03T14:48:34Z</time>
      </trkpt>
      <trkpt lat="43.63061" lon="3.82371">
        <ele>56</ele>
        <time>2021-01-03T14:48:35Z</time>
      </trkpt>
      <trkpt lat="43.63061" lon="3.82376">
        <ele>56</ele>
        <time>2021-01-03T14:48:36Z</time>
      </trkpt>
      <trkpt lat="43.63061" lon="3.82381">
        <ele>56</ele>
        <time>2021-01-03T14:48:37Z</time>
      </trkpt>
      <trkpt lat="43.63061" lon="3.82386">
        <ele>56</ele>
        <time>2021-01-03T14:48:38Z</time>
      </trkpt>
      <trkpt lat="43.63061" lon="3.82391">
        <ele>62</ele>
        <time>2021-01-03T14:48:39Z</time>
      </trkpt>
      <trkpt lat="43.63061" lon="3.82395">
        <ele>56</ele>
        <time>2021-01-03T14:48:40Z</time>
      </trkpt>
      <trkpt lat="43.63061" lon="3.82401">
        <ele>56</ele>
        <time>2021-01-03T14:48:41Z</time>
      </trkpt>
      <trkpt lat="43.63061" lon="3.82406">
        <ele>56</ele>
        <time>2021-01-03T14:48:42Z</time>
      </trkpt>
      <trkpt lat="43.6306" lon="3.82411">
        <ele>56</ele>
        <time>2021-01-03T14:48:43Z</time>
      </trkpt>
      <trkpt lat="43.6306" lon="3.82416">
        <ele>56</ele>
        <time>2021-01-03T14:48:44Z</time>
      </trkpt>
      <trkpt lat="43.6306" lon="3.82421">
        <ele>55.9</ele>
        <time>2021-01-03T14:48:45Z</time>
      </trkpt>
      <trkpt lat="43.6306" lon="3.82426">
        <ele>55.7</ele>
        <time>2021-01-03T14:48:46Z</time>
      </trkpt>
      <trkpt lat="43.6306" lon="3.82431">
        <ele>55.6</ele>
        <time>2021-01-03T14:48:47Z</time>
      </trkpt>
      <trkpt lat="43.63059" lon="3.82437">
        <ele>62</ele>
        <time>2021-01-03T14:48:48Z</time>
      </trkpt>
      <trkpt lat="43.63059" lon="3.82442">
        <ele>55.2</ele>
        <time>2021-01-03T14:48:49Z</time>
      </trkpt>
      <trkpt lat="43.63059" lon="3.82447">
        <ele>55.1</ele>
        <time>2021-01-03T14:48:50Z</time>
      </trkpt>
      <trkpt lat="43.63059" lon="3.82453">
        <ele>55.1</ele>
        <time>2021-01-03T14:48:51Z</time>
      </trkpt>
      <trkpt lat="43.63058" lon="3.82458">
        <ele>55.1</ele>
        <time>2021-01-03T14:48:52Z</time>
      </trkpt>
      <trkpt lat="43.63057" lon="3.82464">
        <ele>55.1</ele>
        <time>2021-01-03T14:48:53Z</time>
      </trkpt>
      <trkpt lat="43.63056" lon="3.82469">
        <ele>55</ele>
        <time>2021-01-03T14:48:54Z</time>
      </trkpt>
      <trkpt lat="43.63055" lon="3.82474">
        <ele>55</ele>
        <time>2021-01-03T14:48:55Z</time>
      </trkpt>
      <trkpt lat="43.63054" lon="3.82479">
        <ele>54.9</ele>
        <time>2021-01-03T14:48:56Z</time>
      </trkpt>
      <trkpt lat="43.63053" lon="3.82483">
        <ele>54.9</ele>
        <time>2021-01-03T14:48:57Z</time>
      </trkpt>
      <trkpt lat="43.63052" lon="3.82488">
        <ele>62</ele>
        <time>2021-01-03T14:48:58Z</time>
      </trkpt>
      <trkpt lat="43.63051" lon="3.82493">
        <ele>54.8</ele>
        <time>2021-01-03T14:48:59Z</time>
      </trkpt>
      <trkpt lat="43.6305" lon="3.82498">
        <ele>54.8</ele>
        <time>2021-01-03T14:49:00Z</time>
      </trkpt>
      <trkpt lat="43.63048" lon="3.82503">
        <ele>54.7</ele>
        <time>2021-01-03T14:49:01Z</time>
      </trkpt>
      <trkpt lat="43.63047" lon="3.82508">
        <ele>54.7</ele>
        <time>2021-01-03T14:49:02Z</time>
      </trkpt>
      <trkpt lat="43.63046" lon="3.82512">
        <ele>54.7</ele>
        <time>2021-01-03T14:49:03Z</time>
      </trkpt>
      <trkpt lat="43.63045" lon="3.82517">
        <ele>54.6</ele>
        <time>2021-01-03T14:49:04Z</time>
      </trkpt>
      <trkpt lat="43.63045" lon="3.82521">
        <ele>54.6</ele>
        <time>2021-01-03T14:49:05Z</time>
      </trkpt>
      <trkpt lat="43.63044" lon="3.82527">
        <ele>54.6</ele>
        <time>2021-01-03T14:49:06Z</time>
      </trkpt>
      <trkpt lat="43.63044" lon="3.82532">
        <ele>54.7</ele>
        <time>2021-01-03T14:49:07Z</time>
      </trkpt>
      <trkpt lat="43.63044" lon="3.82537">
        <ele>62</ele>
        <time>2021-01-03T14:49:08Z</time>
      </trkpt>
      <trkpt lat="43.63044" lon="3.82542">
        <ele>54.9</ele>
        <time>2021-01-03T14:49:09Z</time>
      </trkpt>
      <trkpt lat="43.63044" lon="3.82547">
        <ele>55</ele>
        <time>2021-01-03T14:49:10Z</time>
      </trkpt>
      <trkpt lat="43.63043" lon="3.82552">
        <ele>55</ele>
        <time>2021-01-03T14:49:11Z</time>
      </trkpt>
      <trkpt lat="43.63043" lon="3.82557">
        <ele>55.1</ele>
        <time>2021-01-03T14:49:12Z</time>
      </trkpt>
      <trkpt lat="43.63043" lon="3.82562">
        <ele>55.3</ele>
        <time>2021-01-03T14:49:13Z</time>
      </trkpt>
      <trkpt lat="43.63043" lon="3.82567">
        <ele>55.5</ele>
        <time>2021-01-03T14:49:14Z</time>
      </trkpt>
      <trkpt lat="43.63043" lon="3.82571">
        <ele>55.7</ele>
        <time>2021-01-03T14:49:15Z</time>
      </trkpt>
      <trkpt lat="43.63043" lon="3.82576">
        <ele>55.8</ele>
        <time>2021-01-03T14:49:16Z</time>
      </trkpt>
      <trkpt lat="43.63043" lon="3.8258">
        <ele>56</ele>
        <time>2021-01-03T14:49:17Z</time>
      </trkpt>
      <trkpt lat="43.63043" lon="3.82584">
        <ele>62</ele>
        <time>2021-01-03T14:49:18Z</time>
      </trkpt>
      <trkpt lat="43.63043" lon="3.82588">
        <ele>56.4</ele>
        <time>2021-01-03T14:49:19Z</time>
      </trkpt>
      <trkpt lat="43.63043" lon="3.82592">
        <ele>56.7</ele>
        <time>2021-01-03T14:49:20Z</time>
      </trkpt>
      <trkpt lat="43.63043" lon="3.82596">
        <ele>57</ele>
        <time>2021-01-03T14:49:21Z</time>
      </trkpt>
      <trkpt lat="43.63043" lon="3.826">
        <ele>57.2</ele>
        <time>2021-01-03T14:49:22Z</time>
      </trkpt>
      <trkpt lat="43.63043" lon="3.82604">
        <ele>57.5</ele>
        <time>2021-01-03T14:49:23Z</time>
      </trkpt>
      <trkpt lat="43.63042" lon="3.82608">
        <ele>57.8</ele>
        <time>2021-01-03T14:49:24Z</time>
      </trkpt>
      <trkpt lat="43.63042" lon="3.82612">
        <ele>58</ele>
        <time>2021-01-03T14:49:25Z</time>
      </trkpt>
      <trkpt lat="43.63041" lon="3.82616">
        <ele>58.3</ele>
        <time>2021-01-03T14:49:26Z</time>
      </trkpt>
      <trkpt lat="43.6304" lon="3.82619">
        <ele>58.4</ele>
        <time>2021-01-03T14:49:27Z</time>
      </trkpt>
      <trkpt lat="43.63039" lon="3.82623">
        <ele>62</ele>
        <time>2021-01-03T14:49:28Z</time>
      </trkpt>
      <trkpt lat="43.63039" lon="3.82627">
        <ele>58.9</ele>
        <time>2021-01-03T14:49:29Z</time>
      </trkpt>
      <trkpt lat="43.63037" lon="3.8263">
        <ele>59.1</ele>
        <time>2021-01-03T14:49:30Z</time>
      </trkpt>
      <trkpt lat="43.63035" lon="3.82633">
        <ele>59.4</ele>
        <time>2021-01-03T14:49:31Z</time>
      </trkpt>
      <trkpt lat="43.63033" lon="3.82635">
        <ele>59.6</ele>
        <time>2021-01-03T14:49:32Z</time>
      </trkpt>
      <trkpt lat="43.63031" lon="3.82637">
        <ele>59.8</ele>
        <time>2021-01-03T14:49:33Z</time>
      </trkpt>
      <trkpt lat="43.63028" lon="3.82638">
        <ele>59.9</ele>
        <time>2021-01-03T14:49:34Z</time>
      </trkpt>
      <trkpt lat="43.63025" lon="3.82638">
        <ele>59.9</ele>
        <time>2021-01-03T14:49:35Z</time>
      </trkpt>
      <trkpt lat="43.63023" lon="3.82639">
        <ele>60</ele>
        <time>2021-01-03T14:49:36Z</time>
      </trkpt>
      <trkpt lat="43.6302" lon="3.82639">
        <ele>60</ele>
        <time>2021-01-03T14:49:37Z</time>
      </trkpt>
      <trkpt lat="43.63018" lon="3.82639">
        <ele>60</ele>
        <time>2021-01-03T14:49:38Z</time>
      </trkpt>
      <trkpt lat="43.63015" lon="3.82639">
        <ele>63</ele>
        <time>2021-01-03T14:49:39Z</time>
      </trkpt>
      <trkpt lat="43.63013" lon="3.8264">
        <ele>60</ele>
        <time>2021-01-03T14:49:40Z</time>
      </trkpt>
      <trkpt lat="43.6301" lon="3.82641">
        <ele>60</ele>
        <time>2021-01-03T14:49:41Z</time>
      </trkpt>
      <trkpt lat="43.63008" lon="3.82642">
        <ele>60</ele>
        <time>2021-01-03T14:49:42Z</time>
      </trkpt>
      <trkpt lat="43.63006" lon="3.82644">
        <ele>60</ele>
        <time>2021-01-03T14:49:43Z</time>
      </trkpt>
      <trkpt lat="43.63005" lon="3.82646">
        <ele>60</ele>
        <time>2021-01-03T14:49:44Z</time>
      </trkpt>
      <trkpt lat="43.63003" lon="3.82648">
        <ele>60</ele>
        <time>2021-01-03T14:49:45Z</time>
      </trkpt>
      <trkpt lat="43.63001" lon="3.82651">
        <ele>60</ele>
        <time>2021-01-03T14:49:46Z</time>
      </trkpt>
      <trkpt lat="43.62999" lon="3.82654">
        <ele>59.9</ele>
        <time>2021-01-03T14:49:47Z</time>
      </trkpt>
      <trkpt lat="43.62997" lon="3.82656">
        <ele>63</ele>
        <time>2021-01-03T14:49:48Z</time>
      </trkpt>
      <trkpt lat="43.62994" lon="3.82658">
        <ele>59.7</ele>
        <time>2021-01-03T14:49:49Z</time>
      </trkpt>
      <trkpt lat="43.62992" lon="3.82661">
        <ele>59.7</ele>
        <time>2021-01-03T14:49:50Z</time>
      </trkpt>
      <trkpt lat="43.6299" lon="3.82664">
        <ele>59.8</ele>
        <time>2021-01-03T14:49:51Z</time>
      </trkpt>
      <trkpt lat="43.62988" lon="3.82667">
        <ele>60</ele>
        <time>2021-01-03T14:49:52Z</time>
      </trkpt>
      <trkpt lat="43.62986" lon="3.8267">
        <ele>59.9</ele>
        <time>2021-01-03T14:49:53Z</time>
      </trkpt>
      <trkpt lat="43.62983" lon="3.82672">
        <ele>59.9</ele>
        <time>2021-01-03T14:49:54Z</time>
      </trkpt>
      <trkpt lat="43.62981" lon="3.82675">
        <ele>59.9</ele>
        <time>2021-01-03T14:49:55Z</time>
      </trkpt>
      <trkpt lat="43.62978" lon="3.82678">
        <ele>59.9</ele>
        <time>2021-01-03T14:49:56Z</time>
      </trkpt>
      <trkpt lat="43.62976" lon="3.8268">
        <ele>59.9</ele>
        <time>2021-01-03T14:49:57Z</time>
      </trkpt>
      <trkpt lat="43.62973" lon="3.82683">
        <ele>62</ele>
        <time>2021-01-03T14:49:58Z</time>
      </trkpt>
      <trkpt lat="43.62971" lon="3.82686">
        <ele>59.9</ele>
        <time>2021-01-03T14:49:59Z</time>
      </trkpt>
      <trkpt lat="43.62968" lon="3.82689">
        <ele>59.6</ele>
        <time>2021-01-03T14:50:00Z</time>
      </trkpt>
      <trkpt lat="43.62965" lon="3.82692">
        <ele>59.4</ele>
        <time>2021-01-03T14:50:01Z</time>
      </trkpt>
      <trkpt lat="43.62962" lon="3.82695">
        <ele>59.3</ele>
        <time>2021-01-03T14:50:02Z</time>
      </trkpt>
      <trkpt lat="43.62959" lon="3.82696">
        <ele>59.1</ele>
        <time>2021-01-03T14:50:03Z</time>
      </trkpt>
      <trkpt lat="43.62956" lon="3.82697">
        <ele>59</ele>
        <time>2021-01-03T14:50:04Z</time>
      </trkpt>
      <trkpt lat="43.62953" lon="3.82699">
        <ele>58.9</ele>
        <time>2021-01-03T14:50:05Z</time>
      </trkpt>
      <trkpt lat="43.6295" lon="3.82702">
        <ele>59</ele>
        <time>2021-01-03T14:50:06Z</time>
      </trkpt>
      <trkpt lat="43.62948" lon="3.82705">
        <ele>59.2</ele>
        <time>2021-01-03T14:50:07Z</time>
      </trkpt>
      <trkpt lat="43.62945" lon="3.82708">
        <ele>63</ele>
        <time>2021-01-03T14:50:08Z</time>
      </trkpt>
      <trkpt lat="43.62943" lon="3.82711">
        <ele>59.6</ele>
        <time>2021-01-03T14:50:09Z</time>
      </trkpt>
      <trkpt lat="43.6294" lon="3.82714">
        <ele>59.5</ele>
        <time>2021-01-03T14:50:10Z</time>
      </trkpt>
      <trkpt lat="43.62938" lon="3.82718">
        <ele>59.7</ele>
        <time>2021-01-03T14:50:11Z</time>
      </trkpt>
      <trkpt lat="43.62935" lon="3.82721">
        <ele>59.5</ele>
        <time>2021-01-03T14:50:12Z</time>
      </trkpt>
      <trkpt lat="43.62933" lon="3.82724">
        <ele>59.4</ele>
        <time>2021-01-03T14:50:13Z</time>
      </trkpt>
      <trkpt lat="43.6293" lon="3.82728">
        <ele>59.2</ele>
        <time>2021-01-03T14:50:14Z</time>
      </trkpt>
      <trkpt lat="43.62927" lon="3.82731">
        <ele>59</ele>
        <time>2021-01-03T14:50:15Z</time>
      </trkpt>
      <trkpt lat="43.62924" lon="3.82734">
        <ele>59.1</ele>
        <time>2021-01-03T14:50:16Z</time>
      </trkpt>
      <trkpt lat="43.62922" lon="3.82737">
        <ele>59.3</ele>
        <time>2021-01-03T14:50:17Z</time>
      </trkpt>
      <trkpt lat="43.62919" lon="3.8274">
        <ele>62</ele>
        <time>2021-01-03T14:50:18Z</time>
      </trkpt>
      <trkpt lat="43.62917" lon="3.82743">
        <ele>60</ele>
        <time>2021-01-03T14:50:19Z</time>
      </trkpt>
      <trkpt lat="43.62914" lon="3.82747">
        <ele>60.4</ele>
        <time>2021-01-03T14:50:20Z</time>
      </trkpt>
      <trkpt lat="43.62912" lon="3.8275">
        <ele>60.7</ele>
        <time>2021-01-03T14:50:21Z</time>
      </trkpt>
      <trkpt lat="43.62909" lon="3.82753">
        <ele>60.6</ele>
        <time>2021-01-03T14:50:22Z</time>
      </trkpt>
      <trkpt lat="43.62907" lon="3.82756">
        <ele>60.7</ele>
        <time>2021-01-03T14:50:23Z</time>
      </trkpt>
      <trkpt lat="43.62904" lon="3.8276">
        <ele>60.8</ele>
        <time>2021-01-03T14:50:24Z</time>
      </trkpt>
      <trkpt lat="43.62902" lon="3.82764">
        <ele>61</ele>
        <time>2021-01-03T14:50:25Z</time>
      </trkpt>
      <trkpt lat="43.62902" lon="3.82769">
        <ele>61.4</ele>
        <time>2021-01-03T14:50:26Z</time>
      </trkpt>
      <trkpt lat="43.62902" lon="3.82775">
        <ele>61.8</ele>
        <time>2021-01-03T14:50:27Z</time>
      </trkpt>
      <trkpt lat="43.62902" lon="3.82781">
        <ele>62</ele>
        <time>2021-01-03T14:50:28Z</time>
      </trkpt>
      <trkpt lat="43.62902" lon="3.82786">
        <ele>62.6</ele>
        <time>2021-01-03T14:50:29Z</time>
      </trkpt>
      <trkpt lat="43.62902" lon="3.82791">
        <ele>63</ele>
        <time>2021-01-03T14:50:30Z</time>
      </trkpt>
      <trkpt lat="43.62902" lon="3.82796">
        <ele>63.3</ele>
        <time>2021-01-03T14:50:31Z</time>
      </trkpt>
      <trkpt lat="43.62902" lon="3.82801">
        <ele>63.7</ele>
        <time>2021-01-03T14:50:32Z</time>
      </trkpt>
      <trkpt lat="43.62902" lon="3.82805">
        <ele>64</ele>
        <time>2021-01-03T14:50:33Z</time>
      </trkpt>
      <trkpt lat="43.629" lon="3.82808">
        <ele>64.2</ele>
        <time>2021-01-03T14:50:34Z</time>
      </trkpt>
      <trkpt lat="43.62898" lon="3.8281">
        <ele>64.3</ele>
        <time>2021-01-03T14:50:35Z</time>
      </trkpt>
      <trkpt lat="43.62897" lon="3.82813">
        <ele>64.5</ele>
        <time>2021-01-03T14:50:36Z</time>
      </trkpt>
      <trkpt lat="43.62894" lon="3.82815">
        <ele>64.7</ele>
        <time>2021-01-03T14:50:37Z</time>
      </trkpt>
      <trkpt lat="43.62892" lon="3.82815">
        <ele>63</ele>
        <time>2021-01-03T14:50:38Z</time>
      </trkpt>
      <trkpt lat="43.62889" lon="3.82815">
        <ele>64.7</ele>
        <time>2021-01-03T14:50:39Z</time>
      </trkpt>
      <trkpt lat="43.62887" lon="3.82815">
        <ele>64.7</ele>
        <time>2021-01-03T14:50:40Z</time>
      </trkpt>
      <trkpt lat="43.62884" lon="3.82815">
        <ele>64.7</ele>
        <time>2021-01-03T14:50:41Z</time>
      </trkpt>
      <trkpt lat="43.62882" lon="3.82816">
        <ele>64.8</ele>
        <time>2021-01-03T14:50:42Z</time>
      </trkpt>
      <trkpt lat="43.62879" lon="3.82816">
        <ele>64.9</ele>
        <time>2021-01-03T14:50:43Z</time>
      </trkpt>
      <trkpt lat="43.62877" lon="3.82817">
        <ele>65</ele>
        <time>2021-01-03T14:50:44Z</time>
      </trkpt>
      <trkpt lat="43.62875" lon="3.82819">
        <ele>65.2</ele>
        <time>2021-01-03T14:50:45Z</time>
      </trkpt>
      <trkpt lat="43.62873" lon="3.82821">
        <ele>65.4</ele>
        <time>2021-01-03T14:50:46Z</time>
      </trkpt>
      <trkpt lat="43.62871" lon="3.82823">
        <ele>65.7</ele>
        <time>2021-01-03T14:50:47Z</time>
      </trkpt>
      <trkpt lat="43.62869" lon="3.82824">
        <ele>65</ele>
        <time>2021-01-03T14:50:48Z</time>
      </trkpt>
      <trkpt lat="43.62868" lon="3.82825">
        <ele>65.9</ele>
        <time>2021-01-03T14:50:49Z</time>
      </trkpt>
      <trkpt lat="43.62866" lon="3.82827">
        <ele>66.2</ele>
        <time>2021-01-03T14:50:50Z</time>
      </trkpt>
      <trkpt lat="43.62864" lon="3.82829">
        <ele>66.4</ele>
        <time>2021-01-03T14:50:51Z</time>
      </trkpt>
      <trkpt lat="43.62862" lon="3.82829">
        <ele>66.5</ele>
        <time>2021-01-03T14:50:52Z</time>
      </trkpt>
      <trkpt lat="43.6286" lon="3.82829">
        <ele>66.5</ele>
        <time>2021-01-03T14:50:53Z</time>
      </trkpt>
      <trkpt lat="43.62858" lon="3.82827">
        <ele>66.3</ele>
        <time>2021-01-03T14:50:54Z</time>
      </trkpt>
      <trkpt lat="43.62856" lon="3.82827">
        <ele>66.3</ele>
        <time>2021-01-03T14:50:55Z</time>
      </trkpt>
      <trkpt lat="43.62854" lon="3.82827">
        <ele>66.3</ele>
        <time>2021-01-03T14:50:56Z</time>
      </trkpt>
      <trkpt lat="43.62853" lon="3.82828">
        <ele>66.4</ele>
        <time>2021-01-03T14:50:57Z</time>
      </trkpt>
      <trkpt lat="43.62851" lon="3.8283">
        <ele>66</ele>
        <time>2021-01-03T14:50:58Z</time>
      </trkpt>
      <trkpt lat="43.6285" lon="3.82833">
        <ele>67</ele>
        <time>2021-01-03T14:50:59Z</time>
      </trkpt>
      <trkpt lat="43.6285" lon="3.82836">
        <ele>67.2</ele>
        <time>2021-01-03T14:51:00Z</time>
      </trkpt>
      <trkpt lat="43.62849" lon="3.82839">
        <ele>67.3</ele>
        <time>2021-01-03T14:51:01Z</time>
      </trkpt>
      <trkpt lat="43.62849" lon="3.82842">
        <ele>67.5</ele>
        <time>2021-01-03T14:51:02Z</time>
      </trkpt>
      <trkpt lat="43.62848" lon="3.82844">
        <ele>67.6</ele>
        <time>2021-01-03T14:51:03Z</time>
      </trkpt>
      <trkpt lat="43.62847" lon="3.82848">
        <ele>67.8</ele>
        <time>2021-01-03T14:51:05Z</time>
      </trkpt>
      <trkpt lat="43.62846" lon="3.82853">
        <ele>68</ele>
        <time>2021-01-03T14:51:07Z</time>
      </trkpt>
      <trkpt lat="43.62845" lon="3.82858">
        <ele>68.3</ele>
        <time>2021-01-03T14:51:09Z</time>
      </trkpt>
      <trkpt lat="43.62845" lon="3.82861">
        <ele>68.4</ele>
        <time>2021-01-03T14:51:10Z</time>
      </trkpt>
      <trkpt lat="43.62845" lon="3.82863">
        <ele>68.5</ele>
        <time>2021-01-03T14:51:11Z</time>
      </trkpt>
      <trkpt lat="43.62844" lon="3.82866">
        <ele>68.7</ele>
        <time>2021-01-03T14:51:12Z</time>
      </trkpt>
      <trkpt lat="43.62844" lon="3.82868">
        <ele>68.8</ele>
        <time>2021-01-03T14:51:13Z</time>
      </trkpt>
      <trkpt lat="43.62843" lon="3.82871">
        <ele>68.9</ele>
        <time>2021-01-03T14:51:14Z</time>
      </trkpt>
      <trkpt lat="43.62843" lon="3.82874">
        <ele>69.1</ele>
        <time>2021-01-03T14:51:15Z</time>
      </trkpt>
      <trkpt lat="43.62842" lon="3.82876">
        <ele>69.2</ele>
        <time>2021-01-03T14:51:16Z</time>
      </trkpt>
      <trkpt lat="43.62841" lon="3.82879">
        <ele>69.4</ele>
        <time>2021-01-03T14:51:17Z</time>
      </trkpt>
      <trkpt lat="43.6284" lon="3.82881">
        <ele>69.5</ele>
        <time>2021-01-03T14:51:18Z</time>
      </trkpt>
      <trkpt lat="43.62838" lon="3.82883">
        <ele>69</ele>
        <time>2021-01-03T14:51:19Z</time>
      </trkpt>
      <trkpt lat="43.62837" lon="3.82885">
        <ele>69.7</ele>
        <time>2021-01-03T14:51:20Z</time>
      </trkpt>
      <trkpt lat="43.62836" lon="3.82886">
        <ele>69.8</ele>
        <time>2021-01-03T14:51:21Z</time>
      </trkpt>
      <trkpt lat="43.62835" lon="3.82889">
        <ele>70</ele>
        <time>2021-01-03T14:51:22Z</time>
      </trkpt>
      <trkpt lat="43.62834" lon="3.82891">
        <ele>70</ele>
        <time>2021-01-03T14:51:23Z</time>
      </trkpt>
      <trkpt lat="43.62834" lon="3.82894">
        <ele>70</ele>
        <time>2021-01-03T14:51:24Z</time>
      </trkpt>
      <trkpt lat="43.62833" lon="3.82896">
        <ele>70</ele>
        <time>2021-01-03T14:51:25Z</time>
      </trkpt>
      <trkpt lat="43.62832" lon="3.82899">
        <ele>70</ele>
        <time>2021-01-03T14:51:26Z</time>
      </trkpt>
      <trkpt lat="43.62832" lon="3.82902">
        <ele>70</ele>
        <time>2021-01-03T14:51:27Z</time>
      </trkpt>
      <trkpt lat="43.62832" lon="3.82905">
        <ele>71</ele>
        <time>2021-01-03T14:51:28Z</time>
      </trkpt>
      <trkpt lat="43.62831" lon="3.82908">
        <ele>70</ele>
        <time>2021-01-03T14:51:29Z</time>
      </trkpt>
      <trkpt lat="43.62831" lon="3.8291">
        <ele>70</ele>
        <time>2021-01-03T14:51:30Z</time>
      </trkpt>
      <trkpt lat="43.62831" lon="3.82913">
        <ele>70</ele>
        <time>2021-01-03T14:51:31Z</time>
      </trkpt>
      <trkpt lat="43.62831" lon="3.82916">
        <ele>70</ele>
        <time>2021-01-03T14:51:32Z</time>
      </trkpt>
      <trkpt lat="43.62831" lon="3.82919">
        <ele>70.2</ele>
        <time>2021-01-03T14:51:33Z</time>
      </trkpt>
      <trkpt lat="43.62831" lon="3.82921">
        <ele>70.3</ele>
        <time>2021-01-03T14:51:34Z</time>
      </trkpt>
      <trkpt lat="43.62831" lon="3.82924">
        <ele>70.6</ele>
        <time>2021-01-03T14:51:35Z</time>
      </trkpt>
      <trkpt lat="43.62831" lon="3.82927">
        <ele>70.8</ele>
        <time>2021-01-03T14:51:36Z</time>
      </trkpt>
      <trkpt lat="43.62832" lon="3.82929">
        <ele>70.9</ele>
        <time>2021-01-03T14:51:37Z</time>
      </trkpt>
      <trkpt lat="43.62832" lon="3.82932">
        <ele>72</ele>
        <time>2021-01-03T14:51:38Z</time>
      </trkpt>
      <trkpt lat="43.62833" lon="3.82934">
        <ele>71.3</ele>
        <time>2021-01-03T14:51:39Z</time>
      </trkpt>
      <trkpt lat="43.62833" lon="3.82937">
        <ele>71.5</ele>
        <time>2021-01-03T14:51:40Z</time>
      </trkpt>
      <trkpt lat="43.62833" lon="3.82939">
        <ele>71.6</ele>
        <time>2021-01-03T14:51:41Z</time>
      </trkpt>
      <trkpt lat="43.62834" lon="3.82944">
        <ele>72</ele>
        <time>2021-01-03T14:51:43Z</time>
      </trkpt>
      <trkpt lat="43.62834" lon="3.82947">
        <ele>72.3</ele>
        <time>2021-01-03T14:51:44Z</time>
      </trkpt>
      <trkpt lat="43.62834" lon="3.82949">
        <ele>72.5</ele>
        <time>2021-01-03T14:51:45Z</time>
      </trkpt>
      <trkpt lat="43.62834" lon="3.82952">
        <ele>72.8</ele>
        <time>2021-01-03T14:51:46Z</time>
      </trkpt>
      <trkpt lat="43.62834" lon="3.82954">
        <ele>73.1</ele>
        <time>2021-01-03T14:51:47Z</time>
      </trkpt>
      <trkpt lat="43.62833" lon="3.82957">
        <ele>74</ele>
        <time>2021-01-03T14:51:48Z</time>
      </trkpt>
      <trkpt lat="43.62833" lon="3.82961">
        <ele>73.8</ele>
        <time>2021-01-03T14:51:50Z</time>
      </trkpt>
      <trkpt lat="43.62833" lon="3.82966">
        <ele>74.3</ele>
        <time>2021-01-03T14:51:52Z</time>
      </trkpt>
      <trkpt lat="43.62833" lon="3.8297">
        <ele>74.7</ele>
        <time>2021-01-03T14:51:54Z</time>
      </trkpt>
      <trkpt lat="43.62833" lon="3.82975">
        <ele>75.1</ele>
        <time>2021-01-03T14:51:56Z</time>
      </trkpt>
      <trkpt lat="43.62834" lon="3.82979">
        <ele>75.3</ele>
        <time>2021-01-03T14:51:58Z</time>
      </trkpt>
      <trkpt lat="43.62836" lon="3.82983">
        <ele>75.5</ele>
        <time>2021-01-03T14:52:00Z</time>
      </trkpt>
      <trkpt lat="43.62837" lon="3.82987">
        <ele>75.7</ele>
        <time>2021-01-03T14:52:02Z</time>
      </trkpt>
      <trkpt lat="43.62837" lon="3.82991">
        <ele>75.8</ele>
        <time>2021-01-03T14:52:04Z</time>
      </trkpt>
      <trkpt lat="43.62836" lon="3.82996">
        <ele>76</ele>
        <time>2021-01-03T14:52:06Z</time>
      </trkpt>
      <trkpt lat="43.62836" lon="3.83001">
        <ele>77</ele>
        <time>2021-01-03T14:52:08Z</time>
      </trkpt>
      <trkpt lat="43.62836" lon="3.83005">
        <ele>76.4</ele>
        <time>2021-01-03T14:52:10Z</time>
      </trkpt>
      <trkpt lat="43.62835" lon="3.8301">
        <ele>76.8</ele>
        <time>2021-01-03T14:52:12Z</time>
      </trkpt>
      <trkpt lat="43.62835" lon="3.83014">
        <ele>77</ele>
        <time>2021-01-03T14:52:14Z</time>
      </trkpt>
      <trkpt lat="43.62835" lon="3.83018">
        <ele>77.3</ele>
        <time>2021-01-03T14:52:16Z</time>
      </trkpt>
      <trkpt lat="43.62837" lon="3.83022">
        <ele>78</ele>
        <time>2021-01-03T14:52:18Z</time>
      </trkpt>
      <trkpt lat="43.62837" lon="3.83026">
        <ele>77.9</ele>
        <time>2021-01-03T14:52:20Z</time>
      </trkpt>
      <trkpt lat="43.62837" lon="3.8303">
        <ele>78.2</ele>
        <time>2021-01-03T14:52:22Z</time>
      </trkpt>
      <trkpt lat="43.62837" lon="3.83034">
        <ele>78.4</ele>
        <time>2021-01-03T14:52:24Z</time>
      </trkpt>
      <trkpt lat="43.62838" lon="3.83038">
        <ele>78.7</ele>
        <time>2021-01-03T14:52:26Z</time>
      </trkpt>
      <trkpt lat="43.62839" lon="3.83042">
        <ele>80</ele>
        <time>2021-01-03T14:52:28Z</time>
      </trkpt>
      <trkpt lat="43.6284" lon="3.83045">
        <ele>79.2</ele>
        <time>2021-01-03T14:52:30Z</time>
      </trkpt>
      <trkpt lat="43.62841" lon="3.83049">
        <ele>79.5</ele>
        <time>2021-01-03T14:52:32Z</time>
      </trkpt>
      <trkpt lat="43.62842" lon="3.83053">
        <ele>79.8</ele>
        <time>2021-01-03T14:52:34Z</time>
      </trkpt>
      <trkpt lat="43.62844" lon="3.83057">
        <ele>80.2</ele>
        <time>2021-01-03T14:52:36Z</time>
      </trkpt>
      <trkpt lat="43.62845" lon="3.8306">
        <ele>82</ele>
        <time>2021-01-03T14:52:38Z</time>
      </trkpt>
      <trkpt lat="43.62846" lon="3.83064">
        <ele>81.1</ele>
        <time>2021-01-03T14:52:40Z</time>
      </trkpt>
      <trkpt lat="43.62847" lon="3.83067">
        <ele>81.4</ele>
        <time>2021-01-03T14:52:41Z</time>
      </trkpt>
      <trkpt lat="43.62846" lon="3.8307">
        <ele>81.8</ele>
        <time>2021-01-03T14:52:43Z</time>
      </trkpt>
      <trkpt lat="43.62845" lon="3.83073">
        <ele>82.2</ele>
        <time>2021-01-03T14:52:45Z</time>
      </trkpt>
      <trkpt lat="43.62843" lon="3.83076">
        <ele>82.7</ele>
        <time>2021-01-03T14:52:47Z</time>
      </trkpt>
      <trkpt lat="43.62843" lon="3.8308">
        <ele>83.2</ele>
        <time>2021-01-03T14:52:49Z</time>
      </trkpt>
      <trkpt lat="43.62842" lon="3.83083">
        <ele>83.6</ele>
        <time>2021-01-03T14:52:51Z</time>
      </trkpt>
      <trkpt lat="43.6284" lon="3.83086">
        <ele>83.9</ele>
        <time>2021-01-03T14:52:53Z</time>
      </trkpt>
      <trkpt lat="43.62837" lon="3.83087">
        <ele>84</ele>
        <time>2021-01-03T14:52:55Z</time>
      </trkpt>
      <trkpt lat="43.62834" lon="3.83087">
        <ele>84.1</ele>
        <time>2021-01-03T14:52:57Z</time>
      </trkpt>
      <trkpt lat="43.62831" lon="3.83086">
        <ele>84.1</ele>
        <time>2021-01-03T14:52:59Z</time>
      </trkpt>
      <trkpt lat="43.62828" lon="3.83087">
        <ele>84.1</ele>
        <time>2021-01-03T14:53:01Z</time>
      </trkpt>
      <trkpt lat="43.62825" lon="3.83087">
        <ele>84.1</ele>
        <time>2021-01-03T14:53:03Z</time>
      </trkpt>
      <trkpt lat="43.62822" lon="3.83087">
        <ele>84.1</ele>
        <time>2021-01-03T14:53:05Z</time>
      </trkpt>
      <trkpt lat="43.62818" lon="3.83088">
        <ele>84.2</ele>
        <time>2021-01-03T14:53:07Z</time>
      </trkpt>
      <trkpt lat="43.62815" lon="3.83089">
        <ele>84.2</ele>
        <time>2021-01-03T14:53:09Z</time>
      </trkpt>
      <trkpt lat="43.62812" lon="3.83091">
        <ele>84.3</ele>
        <time>2021-01-03T14:53:11Z</time>
      </trkpt>
      <trkpt lat="43.62809" lon="3.83092">
        <ele>84.3</ele>
        <time>2021-01-03T14:53:13Z</time>
      </trkpt>
      <trkpt lat="43.62806" lon="3.83092">
        <ele>84.3</ele>
        <time>2021-01-03T14:53:15Z</time>
      </trkpt>
      <trkpt lat="43.62803" lon="3.83093">
        <ele>84.5</ele>
        <time>2021-01-03T14:53:17Z</time>
      </trkpt>
      <trkpt lat="43.62799" lon="3.83095">
        <ele>84.7</ele>
        <time>2021-01-03T14:53:19Z</time>
      </trkpt>
      <trkpt lat="43.62796" lon="3.83096">
        <ele>84.8</ele>
        <time>2021-01-03T14:53:21Z</time>
      </trkpt>
      <trkpt lat="43.62793" lon="3.83097">
        <ele>85</ele>
        <time>2021-01-03T14:53:23Z</time>
      </trkpt>
      <trkpt lat="43.6279" lon="3.83098">
        <ele>85.1</ele>
        <time>2021-01-03T14:53:25Z</time>
      </trkpt>
      <trkpt lat="43.62786" lon="3.83099">
        <ele>85.2</ele>
        <time>2021-01-03T14:53:27Z</time>
      </trkpt>
      <trkpt lat="43.62783" lon="3.83098">
        <ele>85.3</ele>
        <time>2021-01-03T14:53:29Z</time>
      </trkpt>
      <trkpt lat="43.62779" lon="3.83098">
        <ele>85.4</ele>
        <time>2021-01-03T14:53:31Z</time>
      </trkpt>
      <trkpt lat="43.62776" lon="3.83098">
        <ele>85.5</ele>
        <time>2021-01-03T14:53:33Z</time>
      </trkpt>
      <trkpt lat="43.62773" lon="3.83099">
        <ele>85.5</ele>
        <time>2021-01-03T14:53:35Z</time>
      </trkpt>
      <trkpt lat="43.62769" lon="3.831">
        <ele>85.6</ele>
        <time>2021-01-03T14:53:37Z</time>
      </trkpt>
      <trkpt lat="43.62767" lon="3.831">
        <ele>87</ele>
        <time>2021-01-03T14:53:38Z</time>
      </trkpt>
      <trkpt lat="43.62765" lon="3.831">
        <ele>85.7</ele>
        <time>2021-01-03T14:53:39Z</time>
      </trkpt>
      <trkpt lat="43.62762" lon="3.83101">
        <ele>85.7</ele>
        <time>2021-01-03T14:53:41Z</time>
      </trkpt>
      <trkpt lat="43.62759" lon="3.83102">
        <ele>85.8</ele>
        <time>2021-01-03T14:53:43Z</time>
      </trkpt>
      <trkpt lat="43.62755" lon="3.83103">
        <ele>85.9</ele>
        <time>2021-01-03T14:53:45Z</time>
      </trkpt>
      <trkpt lat="43.62754" lon="3.83104">
        <ele>85.9</ele>
        <time>2021-01-03T14:53:46Z</time>
      </trkpt>
      <trkpt lat="43.62752" lon="3.83104">
        <ele>85.9</ele>
        <time>2021-01-03T14:53:47Z</time>
      </trkpt>
      <trkpt lat="43.6275" lon="3.83105">
        <ele>87</ele>
        <time>2021-01-03T14:53:48Z</time>
      </trkpt>
      <trkpt lat="43.62748" lon="3.83106">
        <ele>86</ele>
        <time>2021-01-03T14:53:49Z</time>
      </trkpt>
      <trkpt lat="43.62746" lon="3.83107">
        <ele>86</ele>
        <time>2021-01-03T14:53:50Z</time>
      </trkpt>
      <trkpt lat="43.62744" lon="3.83108">
        <ele>86</ele>
        <time>2021-01-03T14:53:51Z</time>
      </trkpt>
      <trkpt lat="43.62742" lon="3.83109">
        <ele>86</ele>
        <time>2021-01-03T14:53:52Z</time>
      </trkpt>
      <trkpt lat="43.6274" lon="3.8311">
        <ele>86</ele>
        <time>2021-01-03T14:53:53Z</time>
      </trkpt>
      <trkpt lat="43.62738" lon="3.83111">
        <ele>86</ele>
        <time>2021-01-03T14:53:54Z</time>
      </trkpt>
      <trkpt lat="43.62736" lon="3.83112">
        <ele>86</ele>
        <time>2021-01-03T14:53:55Z</time>
      </trkpt>
      <trkpt lat="43.62734" lon="3.83113">
        <ele>85.9</ele>
        <time>2021-01-03T14:53:56Z</time>
      </trkpt>
      <trkpt lat="43.62732" lon="3.83114">
        <ele>85.9</ele>
        <time>2021-01-03T14:53:57Z</time>
      </trkpt>
      <trkpt lat="43.6273" lon="3.83115">
        <ele>87</ele>
        <time>2021-01-03T14:53:58Z</time>
      </trkpt>
      <trkpt lat="43.62728" lon="3.83116">
        <ele>85.8</ele>
        <time>2021-01-03T14:53:59Z</time>
      </trkpt>
      <trkpt lat="43.62725" lon="3.83117">
        <ele>85.8</ele>
        <time>2021-01-03T14:54:00Z</time>
      </trkpt>
      <trkpt lat="43.62723" lon="3.83119">
        <ele>85.7</ele>
        <time>2021-01-03T14:54:01Z</time>
      </trkpt>
      <trkpt lat="43.62721" lon="3.8312">
        <ele>85.6</ele>
        <time>2021-01-03T14:54:02Z</time>
      </trkpt>
      <trkpt lat="43.62718" lon="3.83121">
        <ele>85.4</ele>
        <time>2021-01-03T14:54:03Z</time>
      </trkpt>
      <trkpt lat="43.62715" lon="3.83123">
        <ele>85.2</ele>
        <time>2021-01-03T14:54:04Z</time>
      </trkpt>
      <trkpt lat="43.62711" lon="3.83125">
        <ele>84.9</ele>
        <time>2021-01-03T14:54:05Z</time>
      </trkpt>
      <trkpt lat="43.62708" lon="3.83127">
        <ele>84.7</ele>
        <time>2021-01-03T14:54:06Z</time>
      </trkpt>
      <trkpt lat="43.62704" lon="3.83129">
        <ele>84.5</ele>
        <time>2021-01-03T14:54:07Z</time>
      </trkpt>
      <trkpt lat="43.627" lon="3.83132">
        <ele>87</ele>
        <time>2021-01-03T14:54:08Z</time>
      </trkpt>
      <trkpt lat="43.62697" lon="3.83135">
        <ele>84.1</ele>
        <time>2021-01-03T14:54:09Z</time>
      </trkpt>
      <trkpt lat="43.62693" lon="3.83138">
        <ele>83.9</ele>
        <time>2021-01-03T14:54:10Z</time>
      </trkpt>
      <trkpt lat="43.62689" lon="3.83141">
        <ele>83.7</ele>
        <time>2021-01-03T14:54:11Z</time>
      </trkpt>
      <trkpt lat="43.62685" lon="3.83144">
        <ele>83.5</ele>
        <time>2021-01-03T14:54:12Z</time>
      </trkpt>
      <trkpt lat="43.62682" lon="3.83147">
        <ele>83.3</ele>
        <time>2021-01-03T14:54:13Z</time>
      </trkpt>
      <trkpt lat="43.62678" lon="3.83149">
        <ele>83</ele>
        <time>2021-01-03T14:54:14Z</time>
      </trkpt>
      <trkpt lat="43.62675" lon="3.83153">
        <ele>82.8</ele>
        <time>2021-01-03T14:54:15Z</time>
      </trkpt>
      <trkpt lat="43.62672" lon="3.83157">
        <ele>82.5</ele>
        <time>2021-01-03T14:54:16Z</time>
      </trkpt>
      <trkpt lat="43.62669" lon="3.83161">
        <ele>82.3</ele>
        <time>2021-01-03T14:54:17Z</time>
      </trkpt>
      <trkpt lat="43.62666" lon="3.83164">
        <ele>86</ele>
        <time>2021-01-03T14:54:18Z</time>
      </trkpt>
      <trkpt lat="43.62662" lon="3.83168">
        <ele>81.8</ele>
        <time>2021-01-03T14:54:19Z</time>
      </trkpt>
      <trkpt lat="43.62658" lon="3.83171">
        <ele>81.7</ele>
        <time>2021-01-03T14:54:20Z</time>
      </trkpt>
      <trkpt lat="43.62654" lon="3.83173">
        <ele>81.5</ele>
        <time>2021-01-03T14:54:21Z</time>
      </trkpt>
      <trkpt lat="43.6265" lon="3.83176">
        <ele>81.4</ele>
        <time>2021-01-03T14:54:22Z</time>
      </trkpt>
      <trkpt lat="43.62646" lon="3.83179">
        <ele>81.3</ele>
        <time>2021-01-03T14:54:23Z</time>
      </trkpt>
      <trkpt lat="43.62642" lon="3.83182">
        <ele>81.1</ele>
        <time>2021-01-03T14:54:24Z</time>
      </trkpt>
      <trkpt lat="43.62637" lon="3.83185">
        <ele>80.9</ele>
        <time>2021-01-03T14:54:25Z</time>
      </trkpt>
      <trkpt lat="43.62633" lon="3.83189">
        <ele>80.7</ele>
        <time>2021-01-03T14:54:26Z</time>
      </trkpt>
      <trkpt lat="43.62628" lon="3.83192">
        <ele>80.6</ele>
        <time>2021-01-03T14:54:27Z</time>
      </trkpt>
      <trkpt lat="43.62623" lon="3.83195">
        <ele>80.4</ele>
        <time>2021-01-03T14:54:28Z</time>
      </trkpt>
      <trkpt lat="43.62619" lon="3.83198">
        <ele>85</ele>
        <time>2021-01-03T14:54:29Z</time>
      </trkpt>
      <trkpt lat="43.62614" lon="3.83202">
        <ele>80.1</ele>
        <time>2021-01-03T14:54:30Z</time>
      </trkpt>
      <trkpt lat="43.62608" lon="3.83205">
        <ele>79.8</ele>
        <time>2021-01-03T14:54:31Z</time>
      </trkpt>
      <trkpt lat="43.62603" lon="3.83208">
        <ele>79.6</ele>
        <time>2021-01-03T14:54:32Z</time>
      </trkpt>
      <trkpt lat="43.62598" lon="3.8321">
        <ele>79.3</ele>
        <time>2021-01-03T14:54:33Z</time>
      </trkpt>
      <trkpt lat="43.62593" lon="3.83212">
        <ele>79.1</ele>
        <time>2021-01-03T14:54:34Z</time>
      </trkpt>
      <trkpt lat="43.62588" lon="3.83214">
        <ele>78.9</ele>
        <time>2021-01-03T14:54:35Z</time>
      </trkpt>
      <trkpt lat="43.62585" lon="3.83218">
        <ele>78.9</ele>
        <time>2021-01-03T14:54:36Z</time>
      </trkpt>
      <trkpt lat="43.62584" lon="3.83223">
        <ele>79</ele>
        <time>2021-01-03T14:54:37Z</time>
      </trkpt>
      <trkpt lat="43.62584" lon="3.83229">
        <ele>83</ele>
        <time>2021-01-03T14:54:38Z</time>
      </trkpt>
      <trkpt lat="43.62583" lon="3.83235">
        <ele>79</ele>
        <time>2021-01-03T14:54:39Z</time>
      </trkpt>
      <trkpt lat="43.62583" lon="3.8324">
        <ele>79</ele>
        <time>2021-01-03T14:54:40Z</time>
      </trkpt>
      <trkpt lat="43.62583" lon="3.83245">
        <ele>79</ele>
        <time>2021-01-03T14:54:41Z</time>
      </trkpt>
      <trkpt lat="43.62581" lon="3.8325">
        <ele>78.9</ele>
        <time>2021-01-03T14:54:42Z</time>
      </trkpt>
      <trkpt lat="43.6258" lon="3.83254">
        <ele>78.8</ele>
        <time>2021-01-03T14:54:43Z</time>
      </trkpt>
      <trkpt lat="43.62578" lon="3.83257">
        <ele>78.6</ele>
        <time>2021-01-03T14:54:44Z</time>
      </trkpt>
      <trkpt lat="43.62576" lon="3.83261">
        <ele>78.4</ele>
        <time>2021-01-03T14:54:45Z</time>
      </trkpt>
      <trkpt lat="43.62573" lon="3.83263">
        <ele>78.3</ele>
        <time>2021-01-03T14:54:46Z</time>
      </trkpt>
      <trkpt lat="43.62569" lon="3.83264">
        <ele>78.2</ele>
        <time>2021-01-03T14:54:47Z</time>
      </trkpt>
      <trkpt lat="43.62566" lon="3.83265">
        <ele>83</ele>
        <time>2021-01-03T14:54:48Z</time>
      </trkpt>
      <trkpt lat="43.62563" lon="3.83267">
        <ele>78.1</ele>
        <time>2021-01-03T14:54:49Z</time>
      </trkpt>
      <trkpt lat="43.62559" lon="3.83269">
        <ele>78</ele>
        <time>2021-01-03T14:54:50Z</time>
      </trkpt>
      <trkpt lat="43.62557" lon="3.83272">
        <ele>78</ele>
        <time>2021-01-03T14:54:51Z</time>
      </trkpt>
      <trkpt lat="43.62554" lon="3.83275">
        <ele>77.9</ele>
        <time>2021-01-03T14:54:52Z</time>
      </trkpt>
      <trkpt lat="43.62552" lon="3.83279">
        <ele>77.7</ele>
        <time>2021-01-03T14:54:53Z</time>
      </trkpt>
      <trkpt lat="43.62551" lon="3.83282">
        <ele>77.7</ele>
        <time>2021-01-03T14:54:54Z</time>
      </trkpt>
      <trkpt lat="43.62549" lon="3.83287">
        <ele>77.5</ele>
        <time>2021-01-03T14:54:55Z</time>
      </trkpt>
      <trkpt lat="43.62548" lon="3.83291">
        <ele>77.5</ele>
        <time>2021-01-03T14:54:56Z</time>
      </trkpt>
      <trkpt lat="43.62548" lon="3.83296">
        <ele>77.5</ele>
        <time>2021-01-03T14:54:57Z</time>
      </trkpt>
      <trkpt lat="43.62547" lon="3.83301">
        <ele>83</ele>
        <time>2021-01-03T14:54:58Z</time>
      </trkpt>
      <trkpt lat="43.62546" lon="3.83307">
        <ele>77.3</ele>
        <time>2021-01-03T14:54:59Z</time>
      </trkpt>
      <trkpt lat="43.62545" lon="3.83312">
        <ele>77.2</ele>
        <time>2021-01-03T14:55:00Z</time>
      </trkpt>
      <trkpt lat="43.62544" lon="3.83317">
        <ele>77.2</ele>
        <time>2021-01-03T14:55:01Z</time>
      </trkpt>
      <trkpt lat="43.62543" lon="3.83322">
        <ele>77.1</ele>
        <time>2021-01-03T14:55:02Z</time>
      </trkpt>
      <trkpt lat="43.62541" lon="3.83328">
        <ele>77</ele>
        <time>2021-01-03T14:55:03Z</time>
      </trkpt>
      <trkpt lat="43.62539" lon="3.83334">
        <ele>76.8</ele>
        <time>2021-01-03T14:55:04Z</time>
      </trkpt>
      <trkpt lat="43.62537" lon="3.8334">
        <ele>76.7</ele>
        <time>2021-01-03T14:55:05Z</time>
      </trkpt>
      <trkpt lat="43.62535" lon="3.83346">
        <ele>76.5</ele>
        <time>2021-01-03T14:55:06Z</time>
      </trkpt>
      <trkpt lat="43.62533" lon="3.83352">
        <ele>76.4</ele>
        <time>2021-01-03T14:55:07Z</time>
      </trkpt>
      <trkpt lat="43.62532" lon="3.83358">
        <ele>82</ele>
        <time>2021-01-03T14:55:08Z</time>
      </trkpt>
      <trkpt lat="43.6253" lon="3.83365">
        <ele>76.3</ele>
        <time>2021-01-03T14:55:09Z</time>
      </trkpt>
      <trkpt lat="43.62528" lon="3.83371">
        <ele>76.4</ele>
        <time>2021-01-03T14:55:10Z</time>
      </trkpt>
      <trkpt lat="43.62526" lon="3.83378">
        <ele>76.5</ele>
        <time>2021-01-03T14:55:11Z</time>
      </trkpt>
      <trkpt lat="43.62524" lon="3.83384">
        <ele>76.6</ele>
        <time>2021-01-03T14:55:12Z</time>
      </trkpt>
      <trkpt lat="43.62522" lon="3.83391">
        <ele>76.6</ele>
        <time>2021-01-03T14:55:13Z</time>
      </trkpt>
      <trkpt lat="43.6252" lon="3.83397">
        <ele>76.4</ele>
        <time>2021-01-03T14:55:14Z</time>
      </trkpt>
      <trkpt lat="43.62518" lon="3.83404">
        <ele>76.1</ele>
        <time>2021-01-03T14:55:15Z</time>
      </trkpt>
      <trkpt lat="43.62517" lon="3.8341">
        <ele>75.9</ele>
        <time>2021-01-03T14:55:16Z</time>
      </trkpt>
      <trkpt lat="43.62517" lon="3.83416">
        <ele>75.8</ele>
        <time>2021-01-03T14:55:17Z</time>
      </trkpt>
      <trkpt lat="43.62516" lon="3.83422">
        <ele>81</ele>
        <time>2021-01-03T14:55:18Z</time>
      </trkpt>
      <trkpt lat="43.62514" lon="3.83427">
        <ele>75.5</ele>
        <time>2021-01-03T14:55:19Z</time>
      </trkpt>
      <trkpt lat="43.62513" lon="3.83433">
        <ele>75.4</ele>
        <time>2021-01-03T14:55:20Z</time>
      </trkpt>
      <trkpt lat="43.62511" lon="3.83438">
        <ele>75.2</ele>
        <time>2021-01-03T14:55:21Z</time>
      </trkpt>
      <trkpt lat="43.62509" lon="3.83443">
        <ele>75</ele>
        <time>2021-01-03T14:55:22Z</time>
      </trkpt>
      <trkpt lat="43.62508" lon="3.83448">
        <ele>74.9</ele>
        <time>2021-01-03T14:55:23Z</time>
      </trkpt>
      <trkpt lat="43.62506" lon="3.83452">
        <ele>74.8</ele>
        <time>2021-01-03T14:55:24Z</time>
      </trkpt>
      <trkpt lat="43.62505" lon="3.83457">
        <ele>74.8</ele>
        <time>2021-01-03T14:55:25Z</time>
      </trkpt>
      <trkpt lat="43.62504" lon="3.83461">
        <ele>74.9</ele>
        <time>2021-01-03T14:55:26Z</time>
      </trkpt>
      <trkpt lat="43.62504" lon="3.83466">
        <ele>75</ele>
        <time>2021-01-03T14:55:27Z</time>
      </trkpt>
      <trkpt lat="43.62506" lon="3.8347">
        <ele>81</ele>
        <time>2021-01-03T14:55:28Z</time>
      </trkpt>
      <trkpt lat="43.62508" lon="3.83473">
        <ele>75.2</ele>
        <time>2021-01-03T14:55:29Z</time>
      </trkpt>
      <trkpt lat="43.62509" lon="3.83477">
        <ele>75.1</ele>
        <time>2021-01-03T14:55:30Z</time>
      </trkpt>
      <trkpt lat="43.6251" lon="3.83482">
        <ele>74.9</ele>
        <time>2021-01-03T14:55:31Z</time>
      </trkpt>
      <trkpt lat="43.62512" lon="3.83485">
        <ele>74.9</ele>
        <time>2021-01-03T14:55:32Z</time>
      </trkpt>
      <trkpt lat="43.62514" lon="3.83489">
        <ele>74.9</ele>
        <time>2021-01-03T14:55:33Z</time>
      </trkpt>
      <trkpt lat="43.62516" lon="3.83493">
        <ele>74.9</ele>
        <time>2021-01-03T14:55:34Z</time>
      </trkpt>
      <trkpt lat="43.62518" lon="3.83497">
        <ele>75</ele>
        <time>2021-01-03T14:55:35Z</time>
      </trkpt>
      <trkpt lat="43.6252" lon="3.83503">
        <ele>75</ele>
        <time>2021-01-03T14:55:36Z</time>
      </trkpt>
      <trkpt lat="43.62522" lon="3.83508">
        <ele>75</ele>
        <time>2021-01-03T14:55:37Z</time>
      </trkpt>
      <trkpt lat="43.62525" lon="3.83514">
        <ele>75.1</ele>
        <time>2021-01-03T14:55:38Z</time>
      </trkpt>
      <trkpt lat="43.62528" lon="3.8352">
        <ele>79</ele>
        <time>2021-01-03T14:55:39Z</time>
      </trkpt>
      <trkpt lat="43.6253" lon="3.83527">
        <ele>74.9</ele>
        <time>2021-01-03T14:55:40Z</time>
      </trkpt>
      <trkpt lat="43.62532" lon="3.83533">
        <ele>74.7</ele>
        <time>2021-01-03T14:55:41Z</time>
      </trkpt>
      <trkpt lat="43.62533" lon="3.83539">
        <ele>74.5</ele>
        <time>2021-01-03T14:55:42Z</time>
      </trkpt>
      <trkpt lat="43.62534" lon="3.83546">
        <ele>74.3</ele>
        <time>2021-01-03T14:55:43Z</time>
      </trkpt>
      <trkpt lat="43.62536" lon="3.8355">
        <ele>74.1</ele>
        <time>2021-01-03T14:55:44Z</time>
      </trkpt>
      <trkpt lat="43.62539" lon="3.83554">
        <ele>74</ele>
        <time>2021-01-03T14:55:45Z</time>
      </trkpt>
      <trkpt lat="43.62542" lon="3.83557">
        <ele>73.9</ele>
        <time>2021-01-03T14:55:46Z</time>
      </trkpt>
      <trkpt lat="43.62544" lon="3.8356">
        <ele>73.8</ele>
        <time>2021-01-03T14:55:47Z</time>
      </trkpt>
      <trkpt lat="43.62547" lon="3.83562">
        <ele>73.8</ele>
        <time>2021-01-03T14:55:48Z</time>
      </trkpt>
      <trkpt lat="43.62551" lon="3.83564">
        <ele>78</ele>
        <time>2021-01-03T14:55:49Z</time>
      </trkpt>
      <trkpt lat="43.62554" lon="3.83567">
        <ele>73.9</ele>
        <time>2021-01-03T14:55:50Z</time>
      </trkpt>
      <trkpt lat="43.62557" lon="3.83569">
        <ele>73.9</ele>
        <time>2021-01-03T14:55:51Z</time>
      </trkpt>
      <trkpt lat="43.6256" lon="3.83572">
        <ele>73.8</ele>
        <time>2021-01-03T14:55:52Z</time>
      </trkpt>
      <trkpt lat="43.62563" lon="3.83574">
        <ele>73.7</ele>
        <time>2021-01-03T14:55:53Z</time>
      </trkpt>
      <trkpt lat="43.62565" lon="3.83577">
        <ele>73.7</ele>
        <time>2021-01-03T14:55:54Z</time>
      </trkpt>
      <trkpt lat="43.62568" lon="3.83581">
        <ele>73.6</ele>
        <time>2021-01-03T14:55:55Z</time>
      </trkpt>
      <trkpt lat="43.6257" lon="3.83585">
        <ele>73.5</ele>
        <time>2021-01-03T14:55:56Z</time>
      </trkpt>
      <trkpt lat="43.62572" lon="3.83588">
        <ele>73.4</ele>
        <time>2021-01-03T14:55:57Z</time>
      </trkpt>
      <trkpt lat="43.62575" lon="3.83591">
        <ele>78</ele>
        <time>2021-01-03T14:55:58Z</time>
      </trkpt>
      <trkpt lat="43.62576" lon="3.83595">
        <ele>73.5</ele>
        <time>2021-01-03T14:55:59Z</time>
      </trkpt>
      <trkpt lat="43.62577" lon="3.83598">
        <ele>73.7</ele>
        <time>2021-01-03T14:56:00Z</time>
      </trkpt>
      <trkpt lat="43.62577" lon="3.83601">
        <ele>73.8</ele>
        <time>2021-01-03T14:56:01Z</time>
      </trkpt>
      <trkpt lat="43.62577" lon="3.83604">
        <ele>73.9</ele>
        <time>2021-01-03T14:56:02Z</time>
      </trkpt>
      <trkpt lat="43.62576" lon="3.83607">
        <ele>73.8</ele>
        <time>2021-01-03T14:56:03Z</time>
      </trkpt>
      <trkpt lat="43.62574" lon="3.83609">
        <ele>73.6</ele>
        <time>2021-01-03T14:56:04Z</time>
      </trkpt>
      <trkpt lat="43.62571" lon="3.83611">
        <ele>73.2</ele>
        <time>2021-01-03T14:56:05Z</time>
      </trkpt>
      <trkpt lat="43.62569" lon="3.83613">
        <ele>72.9</ele>
        <time>2021-01-03T14:56:06Z</time>
      </trkpt>
      <trkpt lat="43.62566" lon="3.83615">
        <ele>72.5</ele>
        <time>2021-01-03T14:56:07Z</time>
      </trkpt>
      <trkpt lat="43.62564" lon="3.83616">
        <ele>79</ele>
        <time>2021-01-03T14:56:08Z</time>
      </trkpt>
      <trkpt lat="43.62562" lon="3.83617">
        <ele>71.9</ele>
        <time>2021-01-03T14:56:09Z</time>
      </trkpt>
      <trkpt lat="43.6256" lon="3.83618">
        <ele>71.6</ele>
        <time>2021-01-03T14:56:10Z</time>
      </trkpt>
      <trkpt lat="43.62558" lon="3.83618">
        <ele>71.3</ele>
        <time>2021-01-03T14:56:11Z</time>
      </trkpt>
      <trkpt lat="43.62556" lon="3.83619">
        <ele>71.1</ele>
        <time>2021-01-03T14:56:12Z</time>
      </trkpt>
      <trkpt lat="43.62553" lon="3.8362">
        <ele>71.3</ele>
        <time>2021-01-03T14:56:13Z</time>
      </trkpt>
      <trkpt lat="43.62551" lon="3.83621">
        <ele>71.4</ele>
        <time>2021-01-03T14:56:14Z</time>
      </trkpt>
      <trkpt lat="43.62548" lon="3.83622">
        <ele>71.7</ele>
        <time>2021-01-03T14:56:15Z</time>
      </trkpt>
      <trkpt lat="43.62545" lon="3.83622">
        <ele>71.9</ele>
        <time>2021-01-03T14:56:16Z</time>
      </trkpt>
      <trkpt lat="43.62543" lon="3.83621">
        <ele>72.2</ele>
        <time>2021-01-03T14:56:17Z</time>
      </trkpt>
      <trkpt lat="43.6254" lon="3.8362">
        <ele>80</ele>
        <time>2021-01-03T14:56:18Z</time>
      </trkpt>
      <trkpt lat="43.62537" lon="3.83619">
        <ele>72.9</ele>
        <time>2021-01-03T14:56:19Z</time>
      </trkpt>
      <trkpt lat="43.62534" lon="3.83616">
        <ele>73.6</ele>
        <time>2021-01-03T14:56:20Z</time>
      </trkpt>
      <trkpt lat="43.62532" lon="3.83614">
        <ele>74</ele>
        <time>2021-01-03T14:56:21Z</time>
      </trkpt>
      <trkpt lat="43.62529" lon="3.83612">
        <ele>74.7</ele>
        <time>2021-01-03T14:56:22Z</time>
      </trkpt>
      <trkpt lat="43.62526" lon="3.8361">
        <ele>74.9</ele>
        <time>2021-01-03T14:56:23Z</time>
      </trkpt>
      <trkpt lat="43.62524" lon="3.83608">
        <ele>74.7</ele>
        <time>2021-01-03T14:56:24Z</time>
      </trkpt>
      <trkpt lat="43.62521" lon="3.83608">
        <ele>74.8</ele>
        <time>2021-01-03T14:56:25Z</time>
      </trkpt>
      <trkpt lat="43.62517" lon="3.83607">
        <ele>74.7</ele>
        <time>2021-01-03T14:56:26Z</time>
      </trkpt>
      <trkpt lat="43.62514" lon="3.83608">
        <ele>75</ele>
        <time>2021-01-03T14:56:27Z</time>
      </trkpt>
      <trkpt lat="43.62512" lon="3.83609">
        <ele>80</ele>
        <time>2021-01-03T14:56:28Z</time>
      </trkpt>
      <trkpt lat="43.62508" lon="3.8361">
        <ele>75.5</ele>
        <time>2021-01-03T14:56:29Z</time>
      </trkpt>
      <trkpt lat="43.62506" lon="3.83612">
        <ele>75.7</ele>
        <time>2021-01-03T14:56:30Z</time>
      </trkpt>
      <trkpt lat="43.62503" lon="3.83614">
        <ele>75.6</ele>
        <time>2021-01-03T14:56:31Z</time>
      </trkpt>
      <trkpt lat="43.62501" lon="3.83618">
        <ele>75.2</ele>
        <time>2021-01-03T14:56:32Z</time>
      </trkpt>
      <trkpt lat="43.62499" lon="3.83621">
        <ele>74.8</ele>
        <time>2021-01-03T14:56:33Z</time>
      </trkpt>
      <trkpt lat="43.62497" lon="3.83625">
        <ele>74.1</ele>
        <time>2021-01-03T14:56:34Z</time>
      </trkpt>
      <trkpt lat="43.62496" lon="3.8363">
        <ele>73.5</ele>
        <time>2021-01-03T14:56:35Z</time>
      </trkpt>
      <trkpt lat="43.62496" lon="3.83635">
        <ele>73.1</ele>
        <time>2021-01-03T14:56:36Z</time>
      </trkpt>
      <trkpt lat="43.62495" lon="3.8364">
        <ele>72.6</ele>
        <time>2021-01-03T14:56:37Z</time>
      </trkpt>
      <trkpt lat="43.62493" lon="3.83644">
        <ele>72.2</ele>
        <time>2021-01-03T14:56:38Z</time>
      </trkpt>
      <trkpt lat="43.6249" lon="3.83648">
        <ele>78</ele>
        <time>2021-01-03T14:56:39Z</time>
      </trkpt>
      <trkpt lat="43.62486" lon="3.83651">
        <ele>71.3</ele>
        <time>2021-01-03T14:56:40Z</time>
      </trkpt>
      <trkpt lat="43.62482" lon="3.83652">
        <ele>71.1</ele>
        <time>2021-01-03T14:56:41Z</time>
      </trkpt>
      <trkpt lat="43.62478" lon="3.83654">
        <ele>70.8</ele>
        <time>2021-01-03T14:56:42Z</time>
      </trkpt>
      <trkpt lat="43.62474" lon="3.83655">
        <ele>70.5</ele>
        <time>2021-01-03T14:56:43Z</time>
      </trkpt>
      <trkpt lat="43.6247" lon="3.83657">
        <ele>70.5</ele>
        <time>2021-01-03T14:56:44Z</time>
      </trkpt>
      <trkpt lat="43.62466" lon="3.83659">
        <ele>70.6</ele>
        <time>2021-01-03T14:56:45Z</time>
      </trkpt>
      <trkpt lat="43.62463" lon="3.83662">
        <ele>70.7</ele>
        <time>2021-01-03T14:56:46Z</time>
      </trkpt>
      <trkpt lat="43.62459" lon="3.83665">
        <ele>71</ele>
        <time>2021-01-03T14:56:47Z</time>
      </trkpt>
      <trkpt lat="43.62456" lon="3.83667">
        <ele>77</ele>
        <time>2021-01-03T14:56:48Z</time>
      </trkpt>
      <trkpt lat="43.62451" lon="3.83669">
        <ele>71.5</ele>
        <time>2021-01-03T14:56:49Z</time>
      </trkpt>
      <trkpt lat="43.62447" lon="3.83671">
        <ele>71.8</ele>
        <time>2021-01-03T14:56:50Z</time>
      </trkpt>
      <trkpt lat="43.62442" lon="3.83672">
        <ele>72.1</ele>
        <time>2021-01-03T14:56:51Z</time>
      </trkpt>
      <trkpt lat="43.62437" lon="3.83674">
        <ele>72.3</ele>
        <time>2021-01-03T14:56:52Z</time>
      </trkpt>
      <trkpt lat="43.62433" lon="3.83676">
        <ele>72.4</ele>
        <time>2021-01-03T14:56:53Z</time>
      </trkpt>
      <trkpt lat="43.62429" lon="3.83678">
        <ele>72.6</ele>
        <time>2021-01-03T14:56:54Z</time>
      </trkpt>
      <trkpt lat="43.62425" lon="3.83679">
        <ele>72.7</ele>
        <time>2021-01-03T14:56:55Z</time>
      </trkpt>
      <trkpt lat="43.62422" lon="3.83682">
        <ele>72.8</ele>
        <time>2021-01-03T14:56:56Z</time>
      </trkpt>
      <trkpt lat="43.6242" lon="3.83686">
        <ele>72.9</ele>
        <time>2021-01-03T14:56:57Z</time>
      </trkpt>
      <trkpt lat="43.62419" lon="3.83691">
        <ele>76</ele>
        <time>2021-01-03T14:56:58Z</time>
      </trkpt>
      <trkpt lat="43.62419" lon="3.83694">
        <ele>72.9</ele>
        <time>2021-01-03T14:56:59Z</time>
      </trkpt>
      <trkpt lat="43.6242" lon="3.83697">
        <ele>72.8</ele>
        <time>2021-01-03T14:57:00Z</time>
      </trkpt>
      <trkpt lat="43.62423" lon="3.83698">
        <ele>72.6</ele>
        <time>2021-01-03T14:57:01Z</time>
      </trkpt>
      <trkpt lat="43.62426" lon="3.837">
        <ele>72.5</ele>
        <time>2021-01-03T14:57:02Z</time>
      </trkpt>
      <trkpt lat="43.62428" lon="3.83703">
        <ele>72.3</ele>
        <time>2021-01-03T14:57:03Z</time>
      </trkpt>
      <trkpt lat="43.62429" lon="3.83708">
        <ele>72.1</ele>
        <time>2021-01-03T14:57:04Z</time>
      </trkpt>
      <trkpt lat="43.62429" lon="3.83713">
        <ele>71.9</ele>
        <time>2021-01-03T14:57:05Z</time>
      </trkpt>
      <trkpt lat="43.62429" lon="3.83718">
        <ele>71.7</ele>
        <time>2021-01-03T14:57:06Z</time>
      </trkpt>
      <trkpt lat="43.62429" lon="3.83722">
        <ele>71.6</ele>
        <time>2021-01-03T14:57:07Z</time>
      </trkpt>
      <trkpt lat="43.62429" lon="3.83726">
        <ele>76</ele>
        <time>2021-01-03T14:57:08Z</time>
      </trkpt>
      <trkpt lat="43.6243" lon="3.83729">
        <ele>71.5</ele>
        <time>2021-01-03T14:57:09Z</time>
      </trkpt>
      <trkpt lat="43.62434" lon="3.83735">
        <ele>71.4</ele>
        <time>2021-01-03T14:57:11Z</time>
      </trkpt>
      <trkpt lat="43.62438" lon="3.83738">
        <ele>71.2</ele>
        <time>2021-01-03T14:57:13Z</time>
      </trkpt>
      <trkpt lat="43.6244" lon="3.83742">
        <ele>71.2</ele>
        <time>2021-01-03T14:57:14Z</time>
      </trkpt>
      <trkpt lat="43.62441" lon="3.83745">
        <ele>71.1</ele>
        <time>2021-01-03T14:57:15Z</time>
      </trkpt>
      <trkpt lat="43.62441" lon="3.83749">
        <ele>71.1</ele>
        <time>2021-01-03T14:57:16Z</time>
      </trkpt>
      <trkpt lat="43.62441" lon="3.83752">
        <ele>71.3</ele>
        <time>2021-01-03T14:57:17Z</time>
      </trkpt>
      <trkpt lat="43.62442" lon="3.83755">
        <ele>74</ele>
        <time>2021-01-03T14:57:18Z</time>
      </trkpt>
      <trkpt lat="43.62443" lon="3.83759">
        <ele>71.7</ele>
        <time>2021-01-03T14:57:19Z</time>
      </trkpt>
      <trkpt lat="43.62444" lon="3.83763">
        <ele>72</ele>
        <time>2021-01-03T14:57:20Z</time>
      </trkpt>
      <trkpt lat="43.62445" lon="3.83768">
        <ele>72.3</ele>
        <time>2021-01-03T14:57:21Z</time>
      </trkpt>
      <trkpt lat="43.62447" lon="3.83773">
        <ele>72.5</ele>
        <time>2021-01-03T14:57:22Z</time>
      </trkpt>
      <trkpt lat="43.62449" lon="3.83778">
        <ele>72.7</ele>
        <time>2021-01-03T14:57:23Z</time>
      </trkpt>
      <trkpt lat="43.62451" lon="3.83783">
        <ele>72.6</ele>
        <time>2021-01-03T14:57:24Z</time>
      </trkpt>
      <trkpt lat="43.62454" lon="3.83787">
        <ele>72.4</ele>
        <time>2021-01-03T14:57:25Z</time>
      </trkpt>
      <trkpt lat="43.62457" lon="3.8379">
        <ele>72.3</ele>
        <time>2021-01-03T14:57:26Z</time>
      </trkpt>
      <trkpt lat="43.62461" lon="3.83793">
        <ele>72.1</ele>
        <time>2021-01-03T14:57:27Z</time>
      </trkpt>
      <trkpt lat="43.62464" lon="3.83797">
        <ele>76</ele>
        <time>2021-01-03T14:57:28Z</time>
      </trkpt>
      <trkpt lat="43.62467" lon="3.83799">
        <ele>72</ele>
        <time>2021-01-03T14:57:29Z</time>
      </trkpt>
      <trkpt lat="43.6247" lon="3.83802">
        <ele>72</ele>
        <time>2021-01-03T14:57:30Z</time>
      </trkpt>
      <trkpt lat="43.62474" lon="3.83804">
        <ele>71.9</ele>
        <time>2021-01-03T14:57:31Z</time>
      </trkpt>
      <trkpt lat="43.62477" lon="3.83807">
        <ele>71.9</ele>
        <time>2021-01-03T14:57:32Z</time>
      </trkpt>
      <trkpt lat="43.6248" lon="3.83809">
        <ele>71.9</ele>
        <time>2021-01-03T14:57:33Z</time>
      </trkpt>
      <trkpt lat="43.62482" lon="3.83811">
        <ele>71.9</ele>
        <time>2021-01-03T14:57:34Z</time>
      </trkpt>
      <trkpt lat="43.62485" lon="3.83814">
        <ele>71.9</ele>
        <time>2021-01-03T14:57:35Z</time>
      </trkpt>
      <trkpt lat="43.62488" lon="3.83816">
        <ele>71.8</ele>
        <time>2021-01-03T14:57:36Z</time>
      </trkpt>
      <trkpt lat="43.62491" lon="3.83818">
        <ele>71.6</ele>
        <time>2021-01-03T14:57:37Z</time>
      </trkpt>
      <trkpt lat="43.62494" lon="3.8382">
        <ele>71.4</ele>
        <time>2021-01-03T14:57:38Z</time>
      </trkpt>
      <trkpt lat="43.62497" lon="3.83823">
        <ele>76</ele>
        <time>2021-01-03T14:57:39Z</time>
      </trkpt>
      <trkpt lat="43.625" lon="3.83826">
        <ele>71</ele>
        <time>2021-01-03T14:57:40Z</time>
      </trkpt>
      <trkpt lat="43.62503" lon="3.83828">
        <ele>70.8</ele>
        <time>2021-01-03T14:57:41Z</time>
      </trkpt>
      <trkpt lat="43.62506" lon="3.8383">
        <ele>70.6</ele>
        <time>2021-01-03T14:57:42Z</time>
      </trkpt>
      <trkpt lat="43.6251" lon="3.83833">
        <ele>70.3</ele>
        <time>2021-01-03T14:57:43Z</time>
      </trkpt>
      <trkpt lat="43.62514" lon="3.83836">
        <ele>70</ele>
        <time>2021-01-03T14:57:44Z</time>
      </trkpt>
      <trkpt lat="43.62517" lon="3.8384">
        <ele>69.9</ele>
        <time>2021-01-03T14:57:45Z</time>
      </trkpt>
      <trkpt lat="43.6252" lon="3.83844">
        <ele>69.8</ele>
        <time>2021-01-03T14:57:46Z</time>
      </trkpt>
      <trkpt lat="43.62523" lon="3.83849">
        <ele>69.8</ele>
        <time>2021-01-03T14:57:47Z</time>
      </trkpt>
      <trkpt lat="43.62525" lon="3.83855">
        <ele>75</ele>
        <time>2021-01-03T14:57:48Z</time>
      </trkpt>
      <trkpt lat="43.62526" lon="3.83862">
        <ele>70</ele>
        <time>2021-01-03T14:57:49Z</time>
      </trkpt>
      <trkpt lat="43.62528" lon="3.83868">
        <ele>69.7</ele>
        <time>2021-01-03T14:57:50Z</time>
      </trkpt>
      <trkpt lat="43.62529" lon="3.83875">
        <ele>69.4</ele>
        <time>2021-01-03T14:57:51Z</time>
      </trkpt>
      <trkpt lat="43.62531" lon="3.83881">
        <ele>69.1</ele>
        <time>2021-01-03T14:57:52Z</time>
      </trkpt>
      <trkpt lat="43.62533" lon="3.83888">
        <ele>68.8</ele>
        <time>2021-01-03T14:57:53Z</time>
      </trkpt>
      <trkpt lat="43.62535" lon="3.83894">
        <ele>68.7</ele>
        <time>2021-01-03T14:57:54Z</time>
      </trkpt>
      <trkpt lat="43.62537" lon="3.83901">
        <ele>68.5</ele>
        <time>2021-01-03T14:57:55Z</time>
      </trkpt>
      <trkpt lat="43.62537" lon="3.83909">
        <ele>68.4</ele>
        <time>2021-01-03T14:57:56Z</time>
      </trkpt>
      <trkpt lat="43.62538" lon="3.83916">
        <ele>68.3</ele>
        <time>2021-01-03T14:57:57Z</time>
      </trkpt>
      <trkpt lat="43.62539" lon="3.83924">
        <ele>74</ele>
        <time>2021-01-03T14:57:58Z</time>
      </trkpt>
      <trkpt lat="43.62539" lon="3.83931">
        <ele>68.1</ele>
        <time>2021-01-03T14:57:59Z</time>
      </trkpt>
      <trkpt lat="43.62539" lon="3.83939">
        <ele>68</ele>
        <time>2021-01-03T14:58:00Z</time>
      </trkpt>
      <trkpt lat="43.62539" lon="3.83947">
        <ele>67.9</ele>
        <time>2021-01-03T14:58:01Z</time>
      </trkpt>
      <trkpt lat="43.62539" lon="3.83955">
        <ele>67.6</ele>
        <time>2021-01-03T14:58:02Z</time>
      </trkpt>
      <trkpt lat="43.62537" lon="3.83963">
        <ele>67.3</ele>
        <time>2021-01-03T14:58:03Z</time>
      </trkpt>
      <trkpt lat="43.62534" lon="3.8397">
        <ele>67.1</ele>
        <time>2021-01-03T14:58:04Z</time>
      </trkpt>
      <trkpt lat="43.62531" lon="3.83977">
        <ele>66.8</ele>
        <time>2021-01-03T14:58:05Z</time>
      </trkpt>
      <trkpt lat="43.62527" lon="3.83983">
        <ele>66.6</ele>
        <time>2021-01-03T14:58:06Z</time>
      </trkpt>
      <trkpt lat="43.62524" lon="3.8399">
        <ele>66.4</ele>
        <time>2021-01-03T14:58:07Z</time>
      </trkpt>
      <trkpt lat="43.62521" lon="3.83998">
        <ele>71</ele>
        <time>2021-01-03T14:58:08Z</time>
      </trkpt>
      <trkpt lat="43.62517" lon="3.84006">
        <ele>65.7</ele>
        <time>2021-01-03T14:58:09Z</time>
      </trkpt>
      <trkpt lat="43.62514" lon="3.84014">
        <ele>65.2</ele>
        <time>2021-01-03T14:58:10Z</time>
      </trkpt>
      <trkpt lat="43.6251" lon="3.84022">
        <ele>64.7</ele>
        <time>2021-01-03T14:58:11Z</time>
      </trkpt>
      <trkpt lat="43.62506" lon="3.84031">
        <ele>64.1</ele>
        <time>2021-01-03T14:58:12Z</time>
      </trkpt>
      <trkpt lat="43.62503" lon="3.8404">
        <ele>63.7</ele>
        <time>2021-01-03T14:58:13Z</time>
      </trkpt>
      <trkpt lat="43.62499" lon="3.84049">
        <ele>63.2</ele>
        <time>2021-01-03T14:58:14Z</time>
      </trkpt>
      <trkpt lat="43.62496" lon="3.84058">
        <ele>63</ele>
        <time>2021-01-03T14:58:15Z</time>
      </trkpt>
      <trkpt lat="43.62492" lon="3.84066">
        <ele>62.9</ele>
        <time>2021-01-03T14:58:16Z</time>
      </trkpt>
      <trkpt lat="43.62489" lon="3.84075">
        <ele>62.7</ele>
        <time>2021-01-03T14:58:17Z</time>
      </trkpt>
      <trkpt lat="43.62485" lon="3.84084">
        <ele>70</ele>
        <time>2021-01-03T14:58:18Z</time>
      </trkpt>
      <trkpt lat="43.62482" lon="3.84092">
        <ele>62</ele>
        <time>2021-01-03T14:58:19Z</time>
      </trkpt>
      <trkpt lat="43.62478" lon="3.84101">
        <ele>61.6</ele>
        <time>2021-01-03T14:58:20Z</time>
      </trkpt>
      <trkpt lat="43.62473" lon="3.84108">
        <ele>61.1</ele>
        <time>2021-01-03T14:58:21Z</time>
      </trkpt>
      <trkpt lat="43.62469" lon="3.84116">
        <ele>61.1</ele>
        <time>2021-01-03T14:58:22Z</time>
      </trkpt>
      <trkpt lat="43.62465" lon="3.84123">
        <ele>61</ele>
        <time>2021-01-03T14:58:23Z</time>
      </trkpt>
      <trkpt lat="43.6246" lon="3.84128">
        <ele>60.9</ele>
        <time>2021-01-03T14:58:24Z</time>
      </trkpt>
      <trkpt lat="43.62455" lon="3.84132">
        <ele>60.7</ele>
        <time>2021-01-03T14:58:25Z</time>
      </trkpt>
      <trkpt lat="43.6245" lon="3.84135">
        <ele>60.4</ele>
        <time>2021-01-03T14:58:26Z</time>
      </trkpt>
      <trkpt lat="43.62445" lon="3.84138">
        <ele>60.1</ele>
        <time>2021-01-03T14:58:27Z</time>
      </trkpt>
      <trkpt lat="43.6244" lon="3.8414">
        <ele>59.8</ele>
        <time>2021-01-03T14:58:28Z</time>
      </trkpt>
      <trkpt lat="43.62434" lon="3.84142">
        <ele>68</ele>
        <time>2021-01-03T14:58:29Z</time>
      </trkpt>
      <trkpt lat="43.62429" lon="3.84146">
        <ele>59.4</ele>
        <time>2021-01-03T14:58:30Z</time>
      </trkpt>
      <trkpt lat="43.62423" lon="3.8415">
        <ele>59.2</ele>
        <time>2021-01-03T14:58:31Z</time>
      </trkpt>
      <trkpt lat="43.62418" lon="3.84153">
        <ele>59</ele>
        <time>2021-01-03T14:58:32Z</time>
      </trkpt>
      <trkpt lat="43.62412" lon="3.84156">
        <ele>58.9</ele>
        <time>2021-01-03T14:58:33Z</time>
      </trkpt>
      <trkpt lat="43.62406" lon="3.84158">
        <ele>58.7</ele>
        <time>2021-01-03T14:58:34Z</time>
      </trkpt>
      <trkpt lat="43.62401" lon="3.8416">
        <ele>58.6</ele>
        <time>2021-01-03T14:58:35Z</time>
      </trkpt>
      <trkpt lat="43.62396" lon="3.84163">
        <ele>58.4</ele>
        <time>2021-01-03T14:58:36Z</time>
      </trkpt>
      <trkpt lat="43.62393" lon="3.84167">
        <ele>58.1</ele>
        <time>2021-01-03T14:58:37Z</time>
      </trkpt>
      <trkpt lat="43.62391" lon="3.84173">
        <ele>66</ele>
        <time>2021-01-03T14:58:38Z</time>
      </trkpt>
      <trkpt lat="43.62388" lon="3.84177">
        <ele>58</ele>
        <time>2021-01-03T14:58:39Z</time>
      </trkpt>
      <trkpt lat="43.62387" lon="3.84182">
        <ele>58</ele>
        <time>2021-01-03T14:58:40Z</time>
      </trkpt>
      <trkpt lat="43.62387" lon="3.84189">
        <ele>57.9</ele>
        <time>2021-01-03T14:58:41Z</time>
      </trkpt>
      <trkpt lat="43.62388" lon="3.84195">
        <ele>57.9</ele>
        <time>2021-01-03T14:58:42Z</time>
      </trkpt>
      <trkpt lat="43.6239" lon="3.84201">
        <ele>57.7</ele>
        <time>2021-01-03T14:58:43Z</time>
      </trkpt>
      <trkpt lat="43.62392" lon="3.84208">
        <ele>57.4</ele>
        <time>2021-01-03T14:58:44Z</time>
      </trkpt>
      <trkpt lat="43.62393" lon="3.84214">
        <ele>57.1</ele>
        <time>2021-01-03T14:58:45Z</time>
      </trkpt>
      <trkpt lat="43.62394" lon="3.8422">
        <ele>56.9</ele>
        <time>2021-01-03T14:58:46Z</time>
      </trkpt>
      <trkpt lat="43.62394" lon="3.84225">
        <ele>56.6</ele>
        <time>2021-01-03T14:58:47Z</time>
      </trkpt>
      <trkpt lat="43.62391" lon="3.84228">
        <ele>56.3</ele>
        <time>2021-01-03T14:58:48Z</time>
      </trkpt>
      <trkpt lat="43.62389" lon="3.8423">
        <ele>65</ele>
        <time>2021-01-03T14:58:49Z</time>
      </trkpt>
      <trkpt lat="43.62387" lon="3.84233">
        <ele>55.8</ele>
        <time>2021-01-03T14:58:50Z</time>
      </trkpt>
      <trkpt lat="43.62387" lon="3.84237">
        <ele>55.4</ele>
        <time>2021-01-03T14:58:51Z</time>
      </trkpt>
      <trkpt lat="43.62386" lon="3.84243">
        <ele>54.8</ele>
        <time>2021-01-03T14:58:52Z</time>
      </trkpt>
      <trkpt lat="43.62386" lon="3.84251">
        <ele>54.2</ele>
        <time>2021-01-03T14:58:53Z</time>
      </trkpt>
      <trkpt lat="43.62386" lon="3.84258">
        <ele>54.6</ele>
        <time>2021-01-03T14:58:54Z</time>
      </trkpt>
      <trkpt lat="43.62385" lon="3.84264">
        <ele>55</ele>
        <time>2021-01-03T14:58:55Z</time>
      </trkpt>
      <trkpt lat="43.62384" lon="3.84269">
        <ele>55.3</ele>
        <time>2021-01-03T14:58:56Z</time>
      </trkpt>
      <trkpt lat="43.62384" lon="3.84273">
        <ele>55.5</ele>
        <time>2021-01-03T14:58:57Z</time>
      </trkpt>
      <trkpt lat="43.62383" lon="3.84279">
        <ele>66</ele>
        <time>2021-01-03T14:58:58Z</time>
      </trkpt>
      <trkpt lat="43.62381" lon="3.84285">
        <ele>55.6</ele>
        <time>2021-01-03T14:58:59Z</time>
      </trkpt>
      <trkpt lat="43.6238" lon="3.84289">
        <ele>55.6</ele>
        <time>2021-01-03T14:59:00Z</time>
      </trkpt>
      <trkpt lat="43.62378" lon="3.84292">
        <ele>55.4</ele>
        <time>2021-01-03T14:59:01Z</time>
      </trkpt>
      <trkpt lat="43.62375" lon="3.84297">
        <ele>55.2</ele>
        <time>2021-01-03T14:59:02Z</time>
      </trkpt>
      <trkpt lat="43.62373" lon="3.84301">
        <ele>54.9</ele>
        <time>2021-01-03T14:59:03Z</time>
      </trkpt>
      <trkpt lat="43.6237" lon="3.84305">
        <ele>54.7</ele>
        <time>2021-01-03T14:59:04Z</time>
      </trkpt>
      <trkpt lat="43.62369" lon="3.84308">
        <ele>54.6</ele>
        <time>2021-01-03T14:59:05Z</time>
      </trkpt>
      <trkpt lat="43.62367" lon="3.8431">
        <ele>54.4</ele>
        <time>2021-01-03T14:59:06Z</time>
      </trkpt>
      <trkpt lat="43.62365" lon="3.84315">
        <ele>54.3</ele>
        <time>2021-01-03T14:59:07Z</time>
      </trkpt>
      <trkpt lat="43.62362" lon="3.8432">
        <ele>66</ele>
        <time>2021-01-03T14:59:08Z</time>
      </trkpt>
      <trkpt lat="43.62361" lon="3.84325">
        <ele>54</ele>
        <time>2021-01-03T14:59:09Z</time>
      </trkpt>
      <trkpt lat="43.62361" lon="3.84332">
        <ele>54</ele>
        <time>2021-01-03T14:59:10Z</time>
      </trkpt>
      <trkpt lat="43.62361" lon="3.84339">
        <ele>53.8</ele>
        <time>2021-01-03T14:59:11Z</time>
      </trkpt>
      <trkpt lat="43.6236" lon="3.84347">
        <ele>53.5</ele>
        <time>2021-01-03T14:59:12Z</time>
      </trkpt>
      <trkpt lat="43.62359" lon="3.84354">
        <ele>53.2</ele>
        <time>2021-01-03T14:59:13Z</time>
      </trkpt>
      <trkpt lat="43.62357" lon="3.84361">
        <ele>52.9</ele>
        <time>2021-01-03T14:59:14Z</time>
      </trkpt>
      <trkpt lat="43.62355" lon="3.84367">
        <ele>52.8</ele>
        <time>2021-01-03T14:59:15Z</time>
      </trkpt>
      <trkpt lat="43.62352" lon="3.84372">
        <ele>52.7</ele>
        <time>2021-01-03T14:59:16Z</time>
      </trkpt>
      <trkpt lat="43.62349" lon="3.84376">
        <ele>52.6</ele>
        <time>2021-01-03T14:59:17Z</time>
      </trkpt>
      <trkpt lat="43.62347" lon="3.84381">
        <ele>65</ele>
        <time>2021-01-03T14:59:18Z</time>
      </trkpt>
      <trkpt lat="43.62345" lon="3.84385">
        <ele>52.4</ele>
        <time>2021-01-03T14:59:19Z</time>
      </trkpt>
      <trkpt lat="43.62342" lon="3.8439">
        <ele>52.3</ele>
        <time>2021-01-03T14:59:20Z</time>
      </trkpt>
      <trkpt lat="43.62339" lon="3.84395">
        <ele>52.1</ele>
        <time>2021-01-03T14:59:21Z</time>
      </trkpt>
      <trkpt lat="43.62336" lon="3.84399">
        <ele>51.8</ele>
        <time>2021-01-03T14:59:22Z</time>
      </trkpt>
      <trkpt lat="43.62333" lon="3.84403">
        <ele>51.5</ele>
        <time>2021-01-03T14:59:23Z</time>
      </trkpt>
      <trkpt lat="43.6233" lon="3.84407">
        <ele>51.3</ele>
        <time>2021-01-03T14:59:24Z</time>
      </trkpt>
      <trkpt lat="43.62326" lon="3.84411">
        <ele>51.2</ele>
        <time>2021-01-03T14:59:25Z</time>
      </trkpt>
      <trkpt lat="43.62322" lon="3.84415">
        <ele>51.1</ele>
        <time>2021-01-03T14:59:26Z</time>
      </trkpt>
      <trkpt lat="43.62319" lon="3.84419">
        <ele>51</ele>
        <time>2021-01-03T14:59:27Z</time>
      </trkpt>
      <trkpt lat="43.62316" lon="3.84424">
        <ele>65</ele>
        <time>2021-01-03T14:59:28Z</time>
      </trkpt>
      <trkpt lat="43.62313" lon="3.84429">
        <ele>51.1</ele>
        <time>2021-01-03T14:59:29Z</time>
      </trkpt>
      <trkpt lat="43.62311" lon="3.84434">
        <ele>51.1</ele>
        <time>2021-01-03T14:59:30Z</time>
      </trkpt>
      <trkpt lat="43.62308" lon="3.84438">
        <ele>51.1</ele>
        <time>2021-01-03T14:59:31Z</time>
      </trkpt>
      <trkpt lat="43.62306" lon="3.84443">
        <ele>51</ele>
        <time>2021-01-03T14:59:32Z</time>
      </trkpt>
      <trkpt lat="43.62303" lon="3.84448">
        <ele>51</ele>
        <time>2021-01-03T14:59:33Z</time>
      </trkpt>
      <trkpt lat="43.623" lon="3.84452">
        <ele>50.9</ele>
        <time>2021-01-03T14:59:34Z</time>
      </trkpt>
      <trkpt lat="43.62296" lon="3.84455">
        <ele>50.9</ele>
        <time>2021-01-03T14:59:35Z</time>
      </trkpt>
      <trkpt lat="43.62293" lon="3.84459">
        <ele>50.8</ele>
        <time>2021-01-03T14:59:36Z</time>
      </trkpt>
      <trkpt lat="43.6229" lon="3.84462">
        <ele>50.6</ele>
        <time>2021-01-03T14:59:37Z</time>
      </trkpt>
      <trkpt lat="43.62287" lon="3.84466">
        <ele>63</ele>
        <time>2021-01-03T14:59:38Z</time>
      </trkpt>
      <trkpt lat="43.62284" lon="3.84471">
        <ele>50.3</ele>
        <time>2021-01-03T14:59:39Z</time>
      </trkpt>
      <trkpt lat="43.62281" lon="3.84475">
        <ele>50.1</ele>
        <time>2021-01-03T14:59:40Z</time>
      </trkpt>
      <trkpt lat="43.62278" lon="3.8448">
        <ele>50</ele>
        <time>2021-01-03T14:59:41Z</time>
      </trkpt>
      <trkpt lat="43.62276" lon="3.84484">
        <ele>50</ele>
        <time>2021-01-03T14:59:42Z</time>
      </trkpt>
      <trkpt lat="43.62273" lon="3.84488">
        <ele>50.1</ele>
        <time>2021-01-03T14:59:43Z</time>
      </trkpt>
      <trkpt lat="43.6227" lon="3.84492">
        <ele>50.1</ele>
        <time>2021-01-03T14:59:44Z</time>
      </trkpt>
      <trkpt lat="43.62267" lon="3.84496">
        <ele>50.1</ele>
        <time>2021-01-03T14:59:45Z</time>
      </trkpt>
      <trkpt lat="43.62264" lon="3.84501">
        <ele>50</ele>
        <time>2021-01-03T14:59:46Z</time>
      </trkpt>
      <trkpt lat="43.62262" lon="3.84506">
        <ele>50</ele>
        <time>2021-01-03T14:59:47Z</time>
      </trkpt>
      <trkpt lat="43.62261" lon="3.84511">
        <ele>62</ele>
        <time>2021-01-03T14:59:48Z</time>
      </trkpt>
      <trkpt lat="43.6226" lon="3.84514">
        <ele>50</ele>
        <time>2021-01-03T14:59:49Z</time>
      </trkpt>
      <trkpt lat="43.62258" lon="3.84518">
        <ele>50</ele>
        <time>2021-01-03T14:59:50Z</time>
      </trkpt>
      <trkpt lat="43.62256" lon="3.84521">
        <ele>50</ele>
        <time>2021-01-03T14:59:51Z</time>
      </trkpt>
      <trkpt lat="43.62253" lon="3.84524">
        <ele>50</ele>
        <time>2021-01-03T14:59:52Z</time>
      </trkpt>
      <trkpt lat="43.62251" lon="3.84527">
        <ele>50</ele>
        <time>2021-01-03T14:59:53Z</time>
      </trkpt>
      <trkpt lat="43.62249" lon="3.8453">
        <ele>50.1</ele>
        <time>2021-01-03T14:59:54Z</time>
      </trkpt>
      <trkpt lat="43.62247" lon="3.84533">
        <ele>50.2</ele>
        <time>2021-01-03T14:59:55Z</time>
      </trkpt>
      <trkpt lat="43.62246" lon="3.84535">
        <ele>50.3</ele>
        <time>2021-01-03T14:59:56Z</time>
      </trkpt>
      <trkpt lat="43.62244" lon="3.84538">
        <ele>50.4</ele>
        <time>2021-01-03T14:59:57Z</time>
      </trkpt>
      <trkpt lat="43.62242" lon="3.84541">
        <ele>61</ele>
        <time>2021-01-03T14:59:58Z</time>
      </trkpt>
      <trkpt lat="43.6224" lon="3.84544">
        <ele>50.4</ele>
        <time>2021-01-03T14:59:59Z</time>
      </trkpt>
      <trkpt lat="43.62238" lon="3.84548">
        <ele>50.4</ele>
        <time>2021-01-03T15:00:00Z</time>
      </trkpt>
      <trkpt lat="43.62235" lon="3.84552">
        <ele>50.3</ele>
        <time>2021-01-03T15:00:01Z</time>
      </trkpt>
      <trkpt lat="43.62233" lon="3.84556">
        <ele>50.1</ele>
        <time>2021-01-03T15:00:02Z</time>
      </trkpt>
      <trkpt lat="43.62231" lon="3.84559">
        <ele>49.8</ele>
        <time>2021-01-03T15:00:03Z</time>
      </trkpt>
      <trkpt lat="43.62229" lon="3.84562">
        <ele>49.4</ele>
        <time>2021-01-03T15:00:04Z</time>
      </trkpt>
      <trkpt lat="43.62227" lon="3.84565">
        <ele>49.1</ele>
        <time>2021-01-03T15:00:05Z</time>
      </trkpt>
      <trkpt lat="43.62225" lon="3.84568">
        <ele>48.8</ele>
        <time>2021-01-03T15:00:06Z</time>
      </trkpt>
      <trkpt lat="43.62223" lon="3.84571">
        <ele>48.5</ele>
        <time>2021-01-03T15:00:07Z</time>
      </trkpt>
      <trkpt lat="43.62221" lon="3.84574">
        <ele>61</ele>
        <time>2021-01-03T15:00:08Z</time>
      </trkpt>
      <trkpt lat="43.62219" lon="3.84576">
        <ele>48.3</ele>
        <time>2021-01-03T15:00:09Z</time>
      </trkpt>
      <trkpt lat="43.62218" lon="3.84578">
        <ele>48.3</ele>
        <time>2021-01-03T15:00:10Z</time>
      </trkpt>
      <trkpt lat="43.62215" lon="3.8458">
        <ele>48.3</ele>
        <time>2021-01-03T15:00:12Z</time>
      </trkpt>
      <trkpt lat="43.62215" lon="3.84582">
        <ele>48.3</ele>
        <time>2021-01-03T15:00:17Z</time>
      </trkpt>
      <trkpt lat="43.62219" lon="3.8459">
        <ele>57</ele>
        <time>2021-01-03T15:02:59Z</time>
      </trkpt>
      <trkpt lat="43.62219" lon="3.84593">
        <ele>48.3</ele>
        <time>2021-01-03T15:03:01Z</time>
      </trkpt>
      <trkpt lat="43.62218" lon="3.84597">
        <ele>48.4</ele>
        <time>2021-01-03T15:03:03Z</time>
      </trkpt>
      <trkpt lat="43.62217" lon="3.846">
        <ele>48.4</ele>
        <time>2021-01-03T15:03:05Z</time>
      </trkpt>
      <trkpt lat="43.62216" lon="3.84605">
        <ele>48.5</ele>
        <time>2021-01-03T15:03:07Z</time>
      </trkpt>
      <trkpt lat="43.62215" lon="3.84608">
        <ele>48.5</ele>
        <time>2021-01-03T15:03:08Z</time>
      </trkpt>
      <trkpt lat="43.62214" lon="3.8461">
        <ele>57</ele>
        <time>2021-01-03T15:03:09Z</time>
      </trkpt>
      <trkpt lat="43.62213" lon="3.84613">
        <ele>48.4</ele>
        <time>2021-01-03T15:03:10Z</time>
      </trkpt>
      <trkpt lat="43.62212" lon="3.84616">
        <ele>48.4</ele>
        <time>2021-01-03T15:03:11Z</time>
      </trkpt>
      <trkpt lat="43.6221" lon="3.84619">
        <ele>48.3</ele>
        <time>2021-01-03T15:03:12Z</time>
      </trkpt>
      <trkpt lat="43.62209" lon="3.84624">
        <ele>48.3</ele>
        <time>2021-01-03T15:03:13Z</time>
      </trkpt>
      <trkpt lat="43.62207" lon="3.8463">
        <ele>48.2</ele>
        <time>2021-01-03T15:03:14Z</time>
      </trkpt>
      <trkpt lat="43.62205" lon="3.84636">
        <ele>48.1</ele>
        <time>2021-01-03T15:03:15Z</time>
      </trkpt>
      <trkpt lat="43.62203" lon="3.84644">
        <ele>47.6</ele>
        <time>2021-01-03T15:03:16Z</time>
      </trkpt>
      <trkpt lat="43.622" lon="3.84652">
        <ele>46.8</ele>
        <time>2021-01-03T15:03:17Z</time>
      </trkpt>
      <trkpt lat="43.62197" lon="3.84661">
        <ele>46.3</ele>
        <time>2021-01-03T15:03:18Z</time>
      </trkpt>
      <trkpt lat="43.62194" lon="3.8467">
        <ele>46</ele>
        <time>2021-01-03T15:03:19Z</time>
      </trkpt>
      <trkpt lat="43.6219" lon="3.84678">
        <ele>56</ele>
        <time>2021-01-03T15:03:20Z</time>
      </trkpt>
      <trkpt lat="43.62187" lon="3.84687">
        <ele>45.9</ele>
        <time>2021-01-03T15:03:21Z</time>
      </trkpt>
      <trkpt lat="43.62184" lon="3.84696">
        <ele>45.6</ele>
        <time>2021-01-03T15:03:22Z</time>
      </trkpt>
      <trkpt lat="43.62182" lon="3.84705">
        <ele>45.2</ele>
        <time>2021-01-03T15:03:23Z</time>
      </trkpt>
      <trkpt lat="43.6218" lon="3.84714">
        <ele>44.8</ele>
        <time>2021-01-03T15:03:24Z</time>
      </trkpt>
      <trkpt lat="43.62178" lon="3.84724">
        <ele>44.4</ele>
        <time>2021-01-03T15:03:25Z</time>
      </trkpt>
      <trkpt lat="43.62175" lon="3.84733">
        <ele>44.3</ele>
        <time>2021-01-03T15:03:26Z</time>
      </trkpt>
      <trkpt lat="43.62173" lon="3.84743">
        <ele>44.2</ele>
        <time>2021-01-03T15:03:27Z</time>
      </trkpt>
      <trkpt lat="43.6217" lon="3.84752">
        <ele>44.1</ele>
        <time>2021-01-03T15:03:28Z</time>
      </trkpt>
      <trkpt lat="43.62167" lon="3.84761">
        <ele>54</ele>
        <time>2021-01-03T15:03:29Z</time>
      </trkpt>
      <trkpt lat="43.62164" lon="3.8477">
        <ele>44</ele>
        <time>2021-01-03T15:03:30Z</time>
      </trkpt>
      <trkpt lat="43.6216" lon="3.84779">
        <ele>44</ele>
        <time>2021-01-03T15:03:31Z</time>
      </trkpt>
      <trkpt lat="43.62156" lon="3.84787">
        <ele>44.2</ele>
        <time>2021-01-03T15:03:32Z</time>
      </trkpt>
      <trkpt lat="43.62152" lon="3.84795">
        <ele>44.3</ele>
        <time>2021-01-03T15:03:33Z</time>
      </trkpt>
      <trkpt lat="43.62147" lon="3.84803">
        <ele>44.3</ele>
        <time>2021-01-03T15:03:34Z</time>
      </trkpt>
      <trkpt lat="43.62143" lon="3.84811">
        <ele>44.1</ele>
        <time>2021-01-03T15:03:35Z</time>
      </trkpt>
      <trkpt lat="43.62139" lon="3.84818">
        <ele>44</ele>
        <time>2021-01-03T15:03:36Z</time>
      </trkpt>
      <trkpt lat="43.62134" lon="3.84824">
        <ele>44.2</ele>
        <time>2021-01-03T15:03:37Z</time>
      </trkpt>
      <trkpt lat="43.6213" lon="3.84831">
        <ele>44.3</ele>
        <time>2021-01-03T15:03:38Z</time>
      </trkpt>
      <trkpt lat="43.62126" lon="3.84838">
        <ele>51</ele>
        <time>2021-01-03T15:03:39Z</time>
      </trkpt>
      <trkpt lat="43.62121" lon="3.84845">
        <ele>44.5</ele>
        <time>2021-01-03T15:03:40Z</time>
      </trkpt>
      <trkpt lat="43.62118" lon="3.84852">
        <ele>44.4</ele>
        <time>2021-01-03T15:03:41Z</time>
      </trkpt>
      <trkpt lat="43.62114" lon="3.84859">
        <ele>44.2</ele>
        <time>2021-01-03T15:03:42Z</time>
      </trkpt>
      <trkpt lat="43.6211" lon="3.84866">
        <ele>44.1</ele>
        <time>2021-01-03T15:03:43Z</time>
      </trkpt>
      <trkpt lat="43.62106" lon="3.84873">
        <ele>44.3</ele>
        <time>2021-01-03T15:03:44Z</time>
      </trkpt>
      <trkpt lat="43.62102" lon="3.8488">
        <ele>44.4</ele>
        <time>2021-01-03T15:03:45Z</time>
      </trkpt>
      <trkpt lat="43.62098" lon="3.84886">
        <ele>44.5</ele>
        <time>2021-01-03T15:03:46Z</time>
      </trkpt>
      <trkpt lat="43.62095" lon="3.84893">
        <ele>44.6</ele>
        <time>2021-01-03T15:03:47Z</time>
      </trkpt>
      <trkpt lat="43.62091" lon="3.84899">
        <ele>44.7</ele>
        <time>2021-01-03T15:03:48Z</time>
      </trkpt>
      <trkpt lat="43.62087" lon="3.84905">
        <ele>50</ele>
        <time>2021-01-03T15:03:49Z</time>
      </trkpt>
      <trkpt lat="43.62084" lon="3.84912">
        <ele>45</ele>
        <time>2021-01-03T15:03:50Z</time>
      </trkpt>
      <trkpt lat="43.6208" lon="3.84918">
        <ele>45.1</ele>
        <time>2021-01-03T15:03:51Z</time>
      </trkpt>
      <trkpt lat="43.62077" lon="3.84925">
        <ele>45.2</ele>
        <time>2021-01-03T15:03:52Z</time>
      </trkpt>
      <trkpt lat="43.62073" lon="3.84931">
        <ele>45.4</ele>
        <time>2021-01-03T15:03:53Z</time>
      </trkpt>
      <trkpt lat="43.6207" lon="3.84938">
        <ele>45.5</ele>
        <time>2021-01-03T15:03:54Z</time>
      </trkpt>
      <trkpt lat="43.62066" lon="3.84944">
        <ele>45.6</ele>
        <time>2021-01-03T15:03:55Z</time>
      </trkpt>
      <trkpt lat="43.62063" lon="3.8495">
        <ele>45.7</ele>
        <time>2021-01-03T15:03:56Z</time>
      </trkpt>
      <trkpt lat="43.62059" lon="3.84956">
        <ele>45.8</ele>
        <time>2021-01-03T15:03:57Z</time>
      </trkpt>
      <trkpt lat="43.62056" lon="3.84963">
        <ele>46</ele>
        <time>2021-01-03T15:03:58Z</time>
      </trkpt>
      <trkpt lat="43.62052" lon="3.84968">
        <ele>50</ele>
        <time>2021-01-03T15:03:59Z</time>
      </trkpt>
      <trkpt lat="43.62048" lon="3.84974">
        <ele>46</ele>
        <time>2021-01-03T15:04:00Z</time>
      </trkpt>
      <trkpt lat="43.62044" lon="3.84979">
        <ele>45.9</ele>
        <time>2021-01-03T15:04:01Z</time>
      </trkpt>
      <trkpt lat="43.62039" lon="3.84985">
        <ele>45.8</ele>
        <time>2021-01-03T15:04:02Z</time>
      </trkpt>
      <trkpt lat="43.62035" lon="3.8499">
        <ele>45.8</ele>
        <time>2021-01-03T15:04:03Z</time>
      </trkpt>
      <trkpt lat="43.62032" lon="3.84996">
        <ele>45.9</ele>
        <time>2021-01-03T15:04:04Z</time>
      </trkpt>
      <trkpt lat="43.62028" lon="3.85002">
        <ele>46</ele>
        <time>2021-01-03T15:04:05Z</time>
      </trkpt>
      <trkpt lat="43.62025" lon="3.85008">
        <ele>46.2</ele>
        <time>2021-01-03T15:04:06Z</time>
      </trkpt>
      <trkpt lat="43.62022" lon="3.85013">
        <ele>46.3</ele>
        <time>2021-01-03T15:04:07Z</time>
      </trkpt>
      <trkpt lat="43.62019" lon="3.85019">
        <ele>46.4</ele>
        <time>2021-01-03T15:04:08Z</time>
      </trkpt>
      <trkpt lat="43.62016" lon="3.85023">
        <ele>46.5</ele>
        <time>2021-01-03T15:04:09Z</time>
      </trkpt>
      <trkpt lat="43.62013" lon="3.85026">
        <ele>50</ele>
        <time>2021-01-03T15:04:10Z</time>
      </trkpt>
      <trkpt lat="43.6201" lon="3.85028">
        <ele>46.6</ele>
        <time>2021-01-03T15:04:11Z</time>
      </trkpt>
      <trkpt lat="43.62007" lon="3.8503">
        <ele>46.7</ele>
        <time>2021-01-03T15:04:12Z</time>
      </trkpt>
      <trkpt lat="43.62005" lon="3.85033">
        <ele>46.8</ele>
        <time>2021-01-03T15:04:13Z</time>
      </trkpt>
      <trkpt lat="43.62004" lon="3.85037">
        <ele>46.9</ele>
        <time>2021-01-03T15:04:14Z</time>
      </trkpt>
      <trkpt lat="43.62003" lon="3.85043">
        <ele>46.9</ele>
        <time>2021-01-03T15:04:15Z</time>
      </trkpt>
      <trkpt lat="43.62001" lon="3.8505">
        <ele>47</ele>
        <time>2021-01-03T15:04:16Z</time>
      </trkpt>
      <trkpt lat="43.62" lon="3.85056">
        <ele>47</ele>
        <time>2021-01-03T15:04:17Z</time>
      </trkpt>
      <trkpt lat="43.62" lon="3.85063">
        <ele>46.7</ele>
        <time>2021-01-03T15:04:18Z</time>
      </trkpt>
      <trkpt lat="43.62" lon="3.8507">
        <ele>50</ele>
        <time>2021-01-03T15:04:19Z</time>
      </trkpt>
      <trkpt lat="43.62" lon="3.85078">
        <ele>46.2</ele>
        <time>2021-01-03T15:04:20Z</time>
      </trkpt>
      <trkpt lat="43.61999" lon="3.85085">
        <ele>46</ele>
        <time>2021-01-03T15:04:21Z</time>
      </trkpt>
      <trkpt lat="43.61998" lon="3.85092">
        <ele>45.9</ele>
        <time>2021-01-03T15:04:22Z</time>
      </trkpt>
      <trkpt lat="43.61997" lon="3.85099">
        <ele>45.6</ele>
        <time>2021-01-03T15:04:23Z</time>
      </trkpt>
      <trkpt lat="43.61996" lon="3.85103">
        <ele>45.5</ele>
        <time>2021-01-03T15:04:24Z</time>
      </trkpt>
      <trkpt lat="43.61995" lon="3.85107">
        <ele>45.4</ele>
        <time>2021-01-03T15:04:28Z</time>
      </trkpt>
      <trkpt lat="43.61993" lon="3.8511">
        <ele>50</ele>
        <time>2021-01-03T15:04:29Z</time>
      </trkpt>
      <trkpt lat="43.61991" lon="3.85112">
        <ele>45.3</ele>
        <time>2021-01-03T15:04:30Z</time>
      </trkpt>
      <trkpt lat="43.61988" lon="3.85116">
        <ele>45.4</ele>
        <time>2021-01-03T15:04:31Z</time>
      </trkpt>
      <trkpt lat="43.61985" lon="3.85119">
        <ele>45.5</ele>
        <time>2021-01-03T15:04:32Z</time>
      </trkpt>
      <trkpt lat="43.61982" lon="3.85123">
        <ele>45.6</ele>
        <time>2021-01-03T15:04:33Z</time>
      </trkpt>
      <trkpt lat="43.61979" lon="3.85128">
        <ele>45.8</ele>
        <time>2021-01-03T15:04:34Z</time>
      </trkpt>
      <trkpt lat="43.61975" lon="3.85132">
        <ele>45.9</ele>
        <time>2021-01-03T15:04:35Z</time>
      </trkpt>
      <trkpt lat="43.61972" lon="3.85136">
        <ele>46</ele>
        <time>2021-01-03T15:04:36Z</time>
      </trkpt>
      <trkpt lat="43.61968" lon="3.8514">
        <ele>46.3</ele>
        <time>2021-01-03T15:04:37Z</time>
      </trkpt>
      <trkpt lat="43.61964" lon="3.85145">
        <ele>46.3</ele>
        <time>2021-01-03T15:04:38Z</time>
      </trkpt>
      <trkpt lat="43.6196" lon="3.85149">
        <ele>51</ele>
        <time>2021-01-03T15:04:39Z</time>
      </trkpt>
      <trkpt lat="43.61956" lon="3.85153">
        <ele>46.4</ele>
        <time>2021-01-03T15:04:40Z</time>
      </trkpt>
      <trkpt lat="43.61953" lon="3.85158">
        <ele>46.2</ele>
        <time>2021-01-03T15:04:41Z</time>
      </trkpt>
      <trkpt lat="43.61949" lon="3.85163">
        <ele>46.1</ele>
        <time>2021-01-03T15:04:42Z</time>
      </trkpt>
      <trkpt lat="43.61946" lon="3.85168">
        <ele>45.9</ele>
        <time>2021-01-03T15:04:43Z</time>
      </trkpt>
      <trkpt lat="43.61942" lon="3.85173">
        <ele>45.8</ele>
        <time>2021-01-03T15:04:44Z</time>
      </trkpt>
      <trkpt lat="43.61938" lon="3.85178">
        <ele>45.8</ele>
        <time>2021-01-03T15:04:45Z</time>
      </trkpt>
      <trkpt lat="43.61934" lon="3.85184">
        <ele>45.8</ele>
        <time>2021-01-03T15:04:46Z</time>
      </trkpt>
      <trkpt lat="43.61931" lon="3.85189">
        <ele>46</ele>
        <time>2021-01-03T15:04:47Z</time>
      </trkpt>
      <trkpt lat="43.61928" lon="3.85195">
        <ele>46.2</ele>
        <time>2021-01-03T15:04:48Z</time>
      </trkpt>
      <trkpt lat="43.61924" lon="3.852">
        <ele>51</ele>
        <time>2021-01-03T15:04:49Z</time>
      </trkpt>
      <trkpt lat="43.6192" lon="3.85205">
        <ele>46.4</ele>
        <time>2021-01-03T15:04:50Z</time>
      </trkpt>
      <trkpt lat="43.61916" lon="3.8521">
        <ele>46.5</ele>
        <time>2021-01-03T15:04:51Z</time>
      </trkpt>
      <trkpt lat="43.61912" lon="3.85216">
        <ele>46.5</ele>
        <time>2021-01-03T15:04:52Z</time>
      </trkpt>
      <trkpt lat="43.61909" lon="3.85222">
        <ele>46.6</ele>
        <time>2021-01-03T15:04:53Z</time>
      </trkpt>
      <trkpt lat="43.61905" lon="3.85227">
        <ele>46.8</ele>
        <time>2021-01-03T15:04:54Z</time>
      </trkpt>
      <trkpt lat="43.61902" lon="3.85233">
        <ele>46.9</ele>
        <time>2021-01-03T15:04:55Z</time>
      </trkpt>
      <trkpt lat="43.61898" lon="3.85239">
        <ele>46.9</ele>
        <time>2021-01-03T15:04:56Z</time>
      </trkpt>
      <trkpt lat="43.61894" lon="3.85245">
        <ele>47</ele>
        <time>2021-01-03T15:04:57Z</time>
      </trkpt>
      <trkpt lat="43.6189" lon="3.8525">
        <ele>47</ele>
        <time>2021-01-03T15:04:58Z</time>
      </trkpt>
      <trkpt lat="43.61886" lon="3.85256">
        <ele>51</ele>
        <time>2021-01-03T15:04:59Z</time>
      </trkpt>
      <trkpt lat="43.61883" lon="3.85261">
        <ele>46.9</ele>
        <time>2021-01-03T15:05:00Z</time>
      </trkpt>
      <trkpt lat="43.61879" lon="3.85267">
        <ele>47</ele>
        <time>2021-01-03T15:05:01Z</time>
      </trkpt>
      <trkpt lat="43.61875" lon="3.85272">
        <ele>47.1</ele>
        <time>2021-01-03T15:05:02Z</time>
      </trkpt>
      <trkpt lat="43.61871" lon="3.85278">
        <ele>47.3</ele>
        <time>2021-01-03T15:05:03Z</time>
      </trkpt>
      <trkpt lat="43.61867" lon="3.85283">
        <ele>47.4</ele>
        <time>2021-01-03T15:05:04Z</time>
      </trkpt>
      <trkpt lat="43.61863" lon="3.85289">
        <ele>47.5</ele>
        <time>2021-01-03T15:05:05Z</time>
      </trkpt>
      <trkpt lat="43.61859" lon="3.85294">
        <ele>47.4</ele>
        <time>2021-01-03T15:05:06Z</time>
      </trkpt>
      <trkpt lat="43.61854" lon="3.85298">
        <ele>47.3</ele>
        <time>2021-01-03T15:05:07Z</time>
      </trkpt>
      <trkpt lat="43.61849" lon="3.85302">
        <ele>47.1</ele>
        <time>2021-01-03T15:05:08Z</time>
      </trkpt>
      <trkpt lat="43.61844" lon="3.85306">
        <ele>52</ele>
        <time>2021-01-03T15:05:09Z</time>
      </trkpt>
      <trkpt lat="43.6184" lon="3.85309">
        <ele>47.1</ele>
        <time>2021-01-03T15:05:10Z</time>
      </trkpt>
      <trkpt lat="43.61834" lon="3.85313">
        <ele>47.3</ele>
        <time>2021-01-03T15:05:11Z</time>
      </trkpt>
      <trkpt lat="43.61829" lon="3.85316">
        <ele>47.5</ele>
        <time>2021-01-03T15:05:12Z</time>
      </trkpt>
      <trkpt lat="43.61824" lon="3.85319">
        <ele>47.7</ele>
        <time>2021-01-03T15:05:13Z</time>
      </trkpt>
      <trkpt lat="43.6182" lon="3.85322">
        <ele>47.8</ele>
        <time>2021-01-03T15:05:14Z</time>
      </trkpt>
      <trkpt lat="43.61815" lon="3.85325">
        <ele>47.9</ele>
        <time>2021-01-03T15:05:15Z</time>
      </trkpt>
      <trkpt lat="43.6181" lon="3.85328">
        <ele>48</ele>
        <time>2021-01-03T15:05:16Z</time>
      </trkpt>
      <trkpt lat="43.61805" lon="3.85331">
        <ele>48</ele>
        <time>2021-01-03T15:05:17Z</time>
      </trkpt>
      <trkpt lat="43.618" lon="3.85335">
        <ele>48.2</ele>
        <time>2021-01-03T15:05:18Z</time>
      </trkpt>
      <trkpt lat="43.61795" lon="3.85338">
        <ele>54</ele>
        <time>2021-01-03T15:05:19Z</time>
      </trkpt>
      <trkpt lat="43.61791" lon="3.8534">
        <ele>48.6</ele>
        <time>2021-01-03T15:05:20Z</time>
      </trkpt>
      <trkpt lat="43.61786" lon="3.85343">
        <ele>48.8</ele>
        <time>2021-01-03T15:05:21Z</time>
      </trkpt>
      <trkpt lat="43.61782" lon="3.85346">
        <ele>48.9</ele>
        <time>2021-01-03T15:05:22Z</time>
      </trkpt>
      <trkpt lat="43.61778" lon="3.85348">
        <ele>49</ele>
        <time>2021-01-03T15:05:23Z</time>
      </trkpt>
      <trkpt lat="43.61774" lon="3.85351">
        <ele>49</ele>
        <time>2021-01-03T15:05:24Z</time>
      </trkpt>
      <trkpt lat="43.6177" lon="3.85355">
        <ele>49.1</ele>
        <time>2021-01-03T15:05:25Z</time>
      </trkpt>
      <trkpt lat="43.61766" lon="3.85359">
        <ele>49</ele>
        <time>2021-01-03T15:05:26Z</time>
      </trkpt>
      <trkpt lat="43.61763" lon="3.85364">
        <ele>49</ele>
        <time>2021-01-03T15:05:27Z</time>
      </trkpt>
      <trkpt lat="43.61761" lon="3.85369">
        <ele>49</ele>
        <time>2021-01-03T15:05:28Z</time>
      </trkpt>
      <trkpt lat="43.61758" lon="3.85375">
        <ele>54</ele>
        <time>2021-01-03T15:05:29Z</time>
      </trkpt>
      <trkpt lat="43.61755" lon="3.8538">
        <ele>49</ele>
        <time>2021-01-03T15:05:30Z</time>
      </trkpt>
      <trkpt lat="43.61752" lon="3.85386">
        <ele>49</ele>
        <time>2021-01-03T15:05:31Z</time>
      </trkpt>
      <trkpt lat="43.6175" lon="3.85391">
        <ele>49</ele>
        <time>2021-01-03T15:05:32Z</time>
      </trkpt>
      <trkpt lat="43.61747" lon="3.85396">
        <ele>49</ele>
        <time>2021-01-03T15:05:33Z</time>
      </trkpt>
      <trkpt lat="43.61744" lon="3.85401">
        <ele>49</ele>
        <time>2021-01-03T15:05:34Z</time>
      </trkpt>
      <trkpt lat="43.6174" lon="3.85406">
        <ele>49</ele>
        <time>2021-01-03T15:05:35Z</time>
      </trkpt>
      <trkpt lat="43.61737" lon="3.85411">
        <ele>49</ele>
        <time>2021-01-03T15:05:36Z</time>
      </trkpt>
      <trkpt lat="43.61733" lon="3.85416">
        <ele>49</ele>
        <time>2021-01-03T15:05:37Z</time>
      </trkpt>
      <trkpt lat="43.61729" lon="3.85421">
        <ele>48.9</ele>
        <time>2021-01-03T15:05:38Z</time>
      </trkpt>
      <trkpt lat="43.61725" lon="3.85426">
        <ele>54</ele>
        <time>2021-01-03T15:05:39Z</time>
      </trkpt>
      <trkpt lat="43.61721" lon="3.85431">
        <ele>48.5</ele>
        <time>2021-01-03T15:05:40Z</time>
      </trkpt>
      <trkpt lat="43.61717" lon="3.85436">
        <ele>48.4</ele>
        <time>2021-01-03T15:05:41Z</time>
      </trkpt>
      <trkpt lat="43.61713" lon="3.85441">
        <ele>48.2</ele>
        <time>2021-01-03T15:05:42Z</time>
      </trkpt>
      <trkpt lat="43.61709" lon="3.85446">
        <ele>48</ele>
        <time>2021-01-03T15:05:43Z</time>
      </trkpt>
      <trkpt lat="43.61704" lon="3.85451">
        <ele>48</ele>
        <time>2021-01-03T15:05:44Z</time>
      </trkpt>
      <trkpt lat="43.617" lon="3.85456">
        <ele>48</ele>
        <time>2021-01-03T15:05:45Z</time>
      </trkpt>
      <trkpt lat="43.61695" lon="3.85461">
        <ele>48</ele>
        <time>2021-01-03T15:05:46Z</time>
      </trkpt>
      <trkpt lat="43.61691" lon="3.85466">
        <ele>48</ele>
        <time>2021-01-03T15:05:47Z</time>
      </trkpt>
      <trkpt lat="43.61686" lon="3.85471">
        <ele>48</ele>
        <time>2021-01-03T15:05:48Z</time>
      </trkpt>
      <trkpt lat="43.61682" lon="3.85476">
        <ele>54</ele>
        <time>2021-01-03T15:05:49Z</time>
      </trkpt>
      <trkpt lat="43.61677" lon="3.85482">
        <ele>47.8</ele>
        <time>2021-01-03T15:05:50Z</time>
      </trkpt>
      <trkpt lat="43.61673" lon="3.85487">
        <ele>47.6</ele>
        <time>2021-01-03T15:05:51Z</time>
      </trkpt>
      <trkpt lat="43.61668" lon="3.85493">
        <ele>47.3</ele>
        <time>2021-01-03T15:05:52Z</time>
      </trkpt>
      <trkpt lat="43.61663" lon="3.85498">
        <ele>47.2</ele>
        <time>2021-01-03T15:05:53Z</time>
      </trkpt>
      <trkpt lat="43.61658" lon="3.85504">
        <ele>47.5</ele>
        <time>2021-01-03T15:05:54Z</time>
      </trkpt>
      <trkpt lat="43.61653" lon="3.85509">
        <ele>47.7</ele>
        <time>2021-01-03T15:05:55Z</time>
      </trkpt>
      <trkpt lat="43.61648" lon="3.85515">
        <ele>47.7</ele>
        <time>2021-01-03T15:05:56Z</time>
      </trkpt>
      <trkpt lat="43.61643" lon="3.85521">
        <ele>47.4</ele>
        <time>2021-01-03T15:05:57Z</time>
      </trkpt>
      <trkpt lat="43.61639" lon="3.85527">
        <ele>47</ele>
        <time>2021-01-03T15:05:58Z</time>
      </trkpt>
      <trkpt lat="43.61634" lon="3.85533">
        <ele>47.3</ele>
        <time>2021-01-03T15:05:59Z</time>
      </trkpt>
      <trkpt lat="43.61629" lon="3.85539">
        <ele>53</ele>
        <time>2021-01-03T15:06:00Z</time>
      </trkpt>
      <trkpt lat="43.61624" lon="3.85545">
        <ele>47.6</ele>
        <time>2021-01-03T15:06:01Z</time>
      </trkpt>
      <trkpt lat="43.6162" lon="3.8555">
        <ele>47.5</ele>
        <time>2021-01-03T15:06:02Z</time>
      </trkpt>
      <trkpt lat="43.61616" lon="3.85555">
        <ele>47.3</ele>
        <time>2021-01-03T15:06:03Z</time>
      </trkpt>
      <trkpt lat="43.61611" lon="3.85561">
        <ele>47.2</ele>
        <time>2021-01-03T15:06:04Z</time>
      </trkpt>
      <trkpt lat="43.61607" lon="3.85566">
        <ele>47.3</ele>
        <time>2021-01-03T15:06:05Z</time>
      </trkpt>
      <trkpt lat="43.61603" lon="3.85571">
        <ele>47.2</ele>
        <time>2021-01-03T15:06:06Z</time>
      </trkpt>
      <trkpt lat="43.61598" lon="3.85576">
        <ele>47</ele>
        <time>2021-01-03T15:06:07Z</time>
      </trkpt>
      <trkpt lat="43.61593" lon="3.85582">
        <ele>46.7</ele>
        <time>2021-01-03T15:06:08Z</time>
      </trkpt>
      <trkpt lat="43.61588" lon="3.85587">
        <ele>53</ele>
        <time>2021-01-03T15:06:09Z</time>
      </trkpt>
      <trkpt lat="43.61583" lon="3.85594">
        <ele>46.4</ele>
        <time>2021-01-03T15:06:10Z</time>
      </trkpt>
      <trkpt lat="43.61578" lon="3.856">
        <ele>46.5</ele>
        <time>2021-01-03T15:06:11Z</time>
      </trkpt>
      <trkpt lat="43.61573" lon="3.85606">
        <ele>46.5</ele>
        <time>2021-01-03T15:06:12Z</time>
      </trkpt>
      <trkpt lat="43.61568" lon="3.85612">
        <ele>46.4</ele>
        <time>2021-01-03T15:06:13Z</time>
      </trkpt>
      <trkpt lat="43.61563" lon="3.85617">
        <ele>46.1</ele>
        <time>2021-01-03T15:06:14Z</time>
      </trkpt>
      <trkpt lat="43.61559" lon="3.85623">
        <ele>45.7</ele>
        <time>2021-01-03T15:06:15Z</time>
      </trkpt>
      <trkpt lat="43.61554" lon="3.85629">
        <ele>45.3</ele>
        <time>2021-01-03T15:06:16Z</time>
      </trkpt>
      <trkpt lat="43.61549" lon="3.85635">
        <ele>45.1</ele>
        <time>2021-01-03T15:06:17Z</time>
      </trkpt>
      <trkpt lat="43.61544" lon="3.85642">
        <ele>45.1</ele>
        <time>2021-01-03T15:06:18Z</time>
      </trkpt>
      <trkpt lat="43.61539" lon="3.85649">
        <ele>55</ele>
        <time>2021-01-03T15:06:19Z</time>
      </trkpt>
      <trkpt lat="43.61528" lon="3.85661">
        <ele>45</ele>
        <time>2021-01-03T15:06:21Z</time>
      </trkpt>
      <trkpt lat="43.61522" lon="3.85667">
        <ele>44.8</ele>
        <time>2021-01-03T15:06:22Z</time>
      </trkpt>
      <trkpt lat="43.61516" lon="3.85673">
        <ele>44.7</ele>
        <time>2021-01-03T15:06:23Z</time>
      </trkpt>
      <trkpt lat="43.61511" lon="3.85679">
        <ele>44.7</ele>
        <time>2021-01-03T15:06:24Z</time>
      </trkpt>
      <trkpt lat="43.61506" lon="3.85686">
        <ele>44.8</ele>
        <time>2021-01-03T15:06:25Z</time>
      </trkpt>
      <trkpt lat="43.615" lon="3.85693">
        <ele>44.9</ele>
        <time>2021-01-03T15:06:26Z</time>
      </trkpt>
      <trkpt lat="43.61494" lon="3.85699">
        <ele>44.8</ele>
        <time>2021-01-03T15:06:27Z</time>
      </trkpt>
      <trkpt lat="43.61489" lon="3.85705">
        <ele>44.6</ele>
        <time>2021-01-03T15:06:28Z</time>
      </trkpt>
      <trkpt lat="43.61484" lon="3.85711">
        <ele>44.4</ele>
        <time>2021-01-03T15:06:29Z</time>
      </trkpt>
      <trkpt lat="43.61479" lon="3.85716">
        <ele>56</ele>
        <time>2021-01-03T15:06:30Z</time>
      </trkpt>
      <trkpt lat="43.61474" lon="3.85721">
        <ele>44.1</ele>
        <time>2021-01-03T15:06:31Z</time>
      </trkpt>
      <trkpt lat="43.61469" lon="3.85726">
        <ele>43.9</ele>
        <time>2021-01-03T15:06:32Z</time>
      </trkpt>
      <trkpt lat="43.61464" lon="3.85732">
        <ele>43.8</ele>
        <time>2021-01-03T15:06:33Z</time>
      </trkpt>
      <trkpt lat="43.6146" lon="3.85737">
        <ele>43.7</ele>
        <time>2021-01-03T15:06:34Z</time>
      </trkpt>
      <trkpt lat="43.61455" lon="3.85744">
        <ele>43.7</ele>
        <time>2021-01-03T15:06:35Z</time>
      </trkpt>
      <trkpt lat="43.6145" lon="3.8575">
        <ele>43.8</ele>
        <time>2021-01-03T15:06:36Z</time>
      </trkpt>
      <trkpt lat="43.61446" lon="3.85755">
        <ele>43.8</ele>
        <time>2021-01-03T15:06:37Z</time>
      </trkpt>
      <trkpt lat="43.6144" lon="3.8576">
        <ele>43.4</ele>
        <time>2021-01-03T15:06:38Z</time>
      </trkpt>
      <trkpt lat="43.61436" lon="3.85765">
        <ele>55</ele>
        <time>2021-01-03T15:06:39Z</time>
      </trkpt>
      <trkpt lat="43.61431" lon="3.85771">
        <ele>43</ele>
        <time>2021-01-03T15:06:40Z</time>
      </trkpt>
      <trkpt lat="43.61426" lon="3.85777">
        <ele>43</ele>
        <time>2021-01-03T15:06:41Z</time>
      </trkpt>
      <trkpt lat="43.6142" lon="3.85783">
        <ele>43</ele>
        <time>2021-01-03T15:06:42Z</time>
      </trkpt>
      <trkpt lat="43.61415" lon="3.8579">
        <ele>43</ele>
        <time>2021-01-03T15:06:43Z</time>
      </trkpt>
      <trkpt lat="43.6141" lon="3.85796">
        <ele>43.1</ele>
        <time>2021-01-03T15:06:44Z</time>
      </trkpt>
      <trkpt lat="43.61405" lon="3.85801">
        <ele>43.1</ele>
        <time>2021-01-03T15:06:45Z</time>
      </trkpt>
      <trkpt lat="43.61401" lon="3.85806">
        <ele>43</ele>
        <time>2021-01-03T15:06:46Z</time>
      </trkpt>
      <trkpt lat="43.61396" lon="3.85812">
        <ele>42.8</ele>
        <time>2021-01-03T15:06:47Z</time>
      </trkpt>
      <trkpt lat="43.61392" lon="3.85818">
        <ele>42.6</ele>
        <time>2021-01-03T15:06:48Z</time>
      </trkpt>
      <trkpt lat="43.61387" lon="3.85824">
        <ele>57</ele>
        <time>2021-01-03T15:06:49Z</time>
      </trkpt>
      <trkpt lat="43.61382" lon="3.8583">
        <ele>42.4</ele>
        <time>2021-01-03T15:06:50Z</time>
      </trkpt>
      <trkpt lat="43.61377" lon="3.85836">
        <ele>42.4</ele>
        <time>2021-01-03T15:06:51Z</time>
      </trkpt>
      <trkpt lat="43.61372" lon="3.85841">
        <ele>42.4</ele>
        <time>2021-01-03T15:06:52Z</time>
      </trkpt>
      <trkpt lat="43.61367" lon="3.85847">
        <ele>42.4</ele>
        <time>2021-01-03T15:06:53Z</time>
      </trkpt>
      <trkpt lat="43.61362" lon="3.85853">
        <ele>42.3</ele>
        <time>2021-01-03T15:06:54Z</time>
      </trkpt>
      <trkpt lat="43.61357" lon="3.85858">
        <ele>42.4</ele>
        <time>2021-01-03T15:06:55Z</time>
      </trkpt>
      <trkpt lat="43.61352" lon="3.85863">
        <ele>42.6</ele>
        <time>2021-01-03T15:06:56Z</time>
      </trkpt>
      <trkpt lat="43.61346" lon="3.85868">
        <ele>42.8</ele>
        <time>2021-01-03T15:06:57Z</time>
      </trkpt>
      <trkpt lat="43.61339" lon="3.85874">
        <ele>42.9</ele>
        <time>2021-01-03T15:06:58Z</time>
      </trkpt>
      <trkpt lat="43.61333" lon="3.85879">
        <ele>56</ele>
        <time>2021-01-03T15:06:59Z</time>
      </trkpt>
      <trkpt lat="43.61326" lon="3.85883">
        <ele>42.4</ele>
        <time>2021-01-03T15:07:00Z</time>
      </trkpt>
      <trkpt lat="43.6132" lon="3.85887">
        <ele>42.1</ele>
        <time>2021-01-03T15:07:01Z</time>
      </trkpt>
      <trkpt lat="43.61314" lon="3.8589">
        <ele>42</ele>
        <time>2021-01-03T15:07:02Z</time>
      </trkpt>
      <trkpt lat="43.61308" lon="3.85894">
        <ele>42</ele>
        <time>2021-01-03T15:07:03Z</time>
      </trkpt>
      <trkpt lat="43.61303" lon="3.85899">
        <ele>42</ele>
        <time>2021-01-03T15:07:04Z</time>
      </trkpt>
      <trkpt lat="43.613" lon="3.85906">
        <ele>42</ele>
        <time>2021-01-03T15:07:05Z</time>
      </trkpt>
      <trkpt lat="43.61297" lon="3.85914">
        <ele>42</ele>
        <time>2021-01-03T15:07:06Z</time>
      </trkpt>
      <trkpt lat="43.61292" lon="3.85931">
        <ele>41.7</ele>
        <time>2021-01-03T15:07:08Z</time>
      </trkpt>
      <trkpt lat="43.61289" lon="3.85938">
        <ele>54</ele>
        <time>2021-01-03T15:07:09Z</time>
      </trkpt>
      <trkpt lat="43.61286" lon="3.85945">
        <ele>41.7</ele>
        <time>2021-01-03T15:07:10Z</time>
      </trkpt>
      <trkpt lat="43.61283" lon="3.85952">
        <ele>41.6</ele>
        <time>2021-01-03T15:07:11Z</time>
      </trkpt>
      <trkpt lat="43.61278" lon="3.85958">
        <ele>41.5</ele>
        <time>2021-01-03T15:07:12Z</time>
      </trkpt>
      <trkpt lat="43.61274" lon="3.85964">
        <ele>41.3</ele>
        <time>2021-01-03T15:07:13Z</time>
      </trkpt>
      <trkpt lat="43.6127" lon="3.8597">
        <ele>41.1</ele>
        <time>2021-01-03T15:07:14Z</time>
      </trkpt>
      <trkpt lat="43.61265" lon="3.85977">
        <ele>41.1</ele>
        <time>2021-01-03T15:07:15Z</time>
      </trkpt>
      <trkpt lat="43.6126" lon="3.85985">
        <ele>41.2</ele>
        <time>2021-01-03T15:07:16Z</time>
      </trkpt>
      <trkpt lat="43.61256" lon="3.85992">
        <ele>41.2</ele>
        <time>2021-01-03T15:07:17Z</time>
      </trkpt>
      <trkpt lat="43.61252" lon="3.85999">
        <ele>41.1</ele>
        <time>2021-01-03T15:07:18Z</time>
      </trkpt>
      <trkpt lat="43.61247" lon="3.86006">
        <ele>54</ele>
        <time>2021-01-03T15:07:19Z</time>
      </trkpt>
      <trkpt lat="43.61242" lon="3.86014">
        <ele>41.3</ele>
        <time>2021-01-03T15:07:20Z</time>
      </trkpt>
      <trkpt lat="43.61239" lon="3.86023">
        <ele>41.4</ele>
        <time>2021-01-03T15:07:21Z</time>
      </trkpt>
      <trkpt lat="43.61235" lon="3.86031">
        <ele>41.5</ele>
        <time>2021-01-03T15:07:22Z</time>
      </trkpt>
      <trkpt lat="43.61232" lon="3.86038">
        <ele>41.4</ele>
        <time>2021-01-03T15:07:23Z</time>
      </trkpt>
      <trkpt lat="43.61229" lon="3.86047">
        <ele>41.2</ele>
        <time>2021-01-03T15:07:24Z</time>
      </trkpt>
      <trkpt lat="43.61225" lon="3.86056">
        <ele>41</ele>
        <time>2021-01-03T15:07:25Z</time>
      </trkpt>
      <trkpt lat="43.61222" lon="3.86065">
        <ele>41</ele>
        <time>2021-01-03T15:07:26Z</time>
      </trkpt>
      <trkpt lat="43.6122" lon="3.86074">
        <ele>41.1</ele>
        <time>2021-01-03T15:07:27Z</time>
      </trkpt>
      <trkpt lat="43.61218" lon="3.86083">
        <ele>41.2</ele>
        <time>2021-01-03T15:07:28Z</time>
      </trkpt>
      <trkpt lat="43.61216" lon="3.86092">
        <ele>55</ele>
        <time>2021-01-03T15:07:29Z</time>
      </trkpt>
      <trkpt lat="43.61214" lon="3.86101">
        <ele>40.7</ele>
        <time>2021-01-03T15:07:30Z</time>
      </trkpt>
      <trkpt lat="43.61212" lon="3.8611">
        <ele>40.4</ele>
        <time>2021-01-03T15:07:31Z</time>
      </trkpt>
      <trkpt lat="43.6121" lon="3.86118">
        <ele>40.4</ele>
        <time>2021-01-03T15:07:32Z</time>
      </trkpt>
      <trkpt lat="43.61209" lon="3.86126">
        <ele>40.5</ele>
        <time>2021-01-03T15:07:33Z</time>
      </trkpt>
      <trkpt lat="43.61208" lon="3.86134">
        <ele>40.5</ele>
        <time>2021-01-03T15:07:34Z</time>
      </trkpt>
      <trkpt lat="43.61206" lon="3.86142">
        <ele>40.5</ele>
        <time>2021-01-03T15:07:35Z</time>
      </trkpt>
      <trkpt lat="43.61204" lon="3.8615">
        <ele>40.4</ele>
        <time>2021-01-03T15:07:36Z</time>
      </trkpt>
      <trkpt lat="43.61202" lon="3.86158">
        <ele>40.2</ele>
        <time>2021-01-03T15:07:37Z</time>
      </trkpt>
      <trkpt lat="43.61201" lon="3.86166">
        <ele>40</ele>
        <time>2021-01-03T15:07:38Z</time>
      </trkpt>
      <trkpt lat="43.612" lon="3.86175">
        <ele>54</ele>
        <time>2021-01-03T15:07:39Z</time>
      </trkpt>
      <trkpt lat="43.61201" lon="3.86185">
        <ele>39.8</ele>
        <time>2021-01-03T15:07:40Z</time>
      </trkpt>
      <trkpt lat="43.61201" lon="3.86195">
        <ele>39.7</ele>
        <time>2021-01-03T15:07:41Z</time>
      </trkpt>
      <trkpt lat="43.61201" lon="3.86205">
        <ele>39.5</ele>
        <time>2021-01-03T15:07:42Z</time>
      </trkpt>
      <trkpt lat="43.61202" lon="3.86215">
        <ele>39.2</ele>
        <time>2021-01-03T15:07:43Z</time>
      </trkpt>
      <trkpt lat="43.61203" lon="3.86224">
        <ele>39</ele>
        <time>2021-01-03T15:07:44Z</time>
      </trkpt>
      <trkpt lat="43.61203" lon="3.86233">
        <ele>38.8</ele>
        <time>2021-01-03T15:07:45Z</time>
      </trkpt>
      <trkpt lat="43.61203" lon="3.86243">
        <ele>38.5</ele>
        <time>2021-01-03T15:07:46Z</time>
      </trkpt>
      <trkpt lat="43.61203" lon="3.86251">
        <ele>38.4</ele>
        <time>2021-01-03T15:07:47Z</time>
      </trkpt>
      <trkpt lat="43.61202" lon="3.8626">
        <ele>38.6</ele>
        <time>2021-01-03T15:07:48Z</time>
      </trkpt>
      <trkpt lat="43.61201" lon="3.86269">
        <ele>53</ele>
        <time>2021-01-03T15:07:49Z</time>
      </trkpt>
      <trkpt lat="43.61201" lon="3.86278">
        <ele>38.8</ele>
        <time>2021-01-03T15:07:50Z</time>
      </trkpt>
      <trkpt lat="43.612" lon="3.86288">
        <ele>38.5</ele>
        <time>2021-01-03T15:07:51Z</time>
      </trkpt>
      <trkpt lat="43.612" lon="3.86297">
        <ele>38.2</ele>
        <time>2021-01-03T15:07:52Z</time>
      </trkpt>
      <trkpt lat="43.61199" lon="3.86306">
        <ele>38</ele>
        <time>2021-01-03T15:07:53Z</time>
      </trkpt>
      <trkpt lat="43.61199" lon="3.86315">
        <ele>37.9</ele>
        <time>2021-01-03T15:07:54Z</time>
      </trkpt>
      <trkpt lat="43.61199" lon="3.86324">
        <ele>37.9</ele>
        <time>2021-01-03T15:07:55Z</time>
      </trkpt>
      <trkpt lat="43.61198" lon="3.86334">
        <ele>37.9</ele>
        <time>2021-01-03T15:07:56Z</time>
      </trkpt>
      <trkpt lat="43.61197" lon="3.86343">
        <ele>37.9</ele>
        <time>2021-01-03T15:07:57Z</time>
      </trkpt>
      <trkpt lat="43.61196" lon="3.86353">
        <ele>37.9</ele>
        <time>2021-01-03T15:07:58Z</time>
      </trkpt>
      <trkpt lat="43.61195" lon="3.86362">
        <ele>53</ele>
        <time>2021-01-03T15:07:59Z</time>
      </trkpt>
      <trkpt lat="43.61195" lon="3.86371">
        <ele>38</ele>
        <time>2021-01-03T15:08:00Z</time>
      </trkpt>
      <trkpt lat="43.61194" lon="3.8638">
        <ele>38</ele>
        <time>2021-01-03T15:08:01Z</time>
      </trkpt>
      <trkpt lat="43.61194" lon="3.8639">
        <ele>38</ele>
        <time>2021-01-03T15:08:02Z</time>
      </trkpt>
      <trkpt lat="43.61194" lon="3.86399">
        <ele>37.6</ele>
        <time>2021-01-03T15:08:03Z</time>
      </trkpt>
      <trkpt lat="43.61193" lon="3.86408">
        <ele>37.3</ele>
        <time>2021-01-03T15:08:04Z</time>
      </trkpt>
      <trkpt lat="43.61192" lon="3.86417">
        <ele>37</ele>
        <time>2021-01-03T15:08:05Z</time>
      </trkpt>
      <trkpt lat="43.61191" lon="3.86426">
        <ele>37</ele>
        <time>2021-01-03T15:08:06Z</time>
      </trkpt>
      <trkpt lat="43.6119" lon="3.86435">
        <ele>37</ele>
        <time>2021-01-03T15:08:07Z</time>
      </trkpt>
      <trkpt lat="43.6119" lon="3.86444">
        <ele>37</ele>
        <time>2021-01-03T15:08:08Z</time>
      </trkpt>
      <trkpt lat="43.61189" lon="3.86453">
        <ele>50</ele>
        <time>2021-01-03T15:08:09Z</time>
      </trkpt>
      <trkpt lat="43.61188" lon="3.86462">
        <ele>37</ele>
        <time>2021-01-03T15:08:10Z</time>
      </trkpt>
      <trkpt lat="43.61187" lon="3.86472">
        <ele>37</ele>
        <time>2021-01-03T15:08:11Z</time>
      </trkpt>
      <trkpt lat="43.61187" lon="3.86481">
        <ele>36.8</ele>
        <time>2021-01-03T15:08:12Z</time>
      </trkpt>
      <trkpt lat="43.61186" lon="3.8649">
        <ele>36.6</ele>
        <time>2021-01-03T15:08:13Z</time>
      </trkpt>
      <trkpt lat="43.61186" lon="3.86499">
        <ele>36.3</ele>
        <time>2021-01-03T15:08:14Z</time>
      </trkpt>
      <trkpt lat="43.61185" lon="3.86509">
        <ele>36.2</ele>
        <time>2021-01-03T15:08:15Z</time>
      </trkpt>
      <trkpt lat="43.61184" lon="3.86518">
        <ele>36.1</ele>
        <time>2021-01-03T15:08:16Z</time>
      </trkpt>
      <trkpt lat="43.61183" lon="3.86528">
        <ele>36</ele>
        <time>2021-01-03T15:08:17Z</time>
      </trkpt>
      <trkpt lat="43.61183" lon="3.86537">
        <ele>36</ele>
        <time>2021-01-03T15:08:18Z</time>
      </trkpt>
      <trkpt lat="43.61182" lon="3.86546">
        <ele>49</ele>
        <time>2021-01-03T15:08:19Z</time>
      </trkpt>
      <trkpt lat="43.61181" lon="3.86556">
        <ele>36</ele>
        <time>2021-01-03T15:08:20Z</time>
      </trkpt>
      <trkpt lat="43.6118" lon="3.86566">
        <ele>35.6</ele>
        <time>2021-01-03T15:08:21Z</time>
      </trkpt>
      <trkpt lat="43.6118" lon="3.86575">
        <ele>35.3</ele>
        <time>2021-01-03T15:08:22Z</time>
      </trkpt>
      <trkpt lat="43.6118" lon="3.86584">
        <ele>35</ele>
        <time>2021-01-03T15:08:23Z</time>
      </trkpt>
      <trkpt lat="43.61179" lon="3.86594">
        <ele>35</ele>
        <time>2021-01-03T15:08:24Z</time>
      </trkpt>
      <trkpt lat="43.61179" lon="3.86603">
        <ele>35</ele>
        <time>2021-01-03T15:08:25Z</time>
      </trkpt>
      <trkpt lat="43.61178" lon="3.86613">
        <ele>35</ele>
        <time>2021-01-03T15:08:26Z</time>
      </trkpt>
      <trkpt lat="43.61177" lon="3.86622">
        <ele>34.9</ele>
        <time>2021-01-03T15:08:27Z</time>
      </trkpt>
      <trkpt lat="43.61177" lon="3.86631">
        <ele>34.7</ele>
        <time>2021-01-03T15:08:28Z</time>
      </trkpt>
      <trkpt lat="43.61177" lon="3.8664">
        <ele>47</ele>
        <time>2021-01-03T15:08:29Z</time>
      </trkpt>
      <trkpt lat="43.61178" lon="3.86649">
        <ele>34.7</ele>
        <time>2021-01-03T15:08:30Z</time>
      </trkpt>
      <trkpt lat="43.61181" lon="3.86657">
        <ele>34.8</ele>
        <time>2021-01-03T15:08:31Z</time>
      </trkpt>
      <trkpt lat="43.61187" lon="3.86663">
        <ele>34.9</ele>
        <time>2021-01-03T15:08:32Z</time>
      </trkpt>
      <trkpt lat="43.61192" lon="3.86667">
        <ele>35</ele>
        <time>2021-01-03T15:08:33Z</time>
      </trkpt>
      <trkpt lat="43.61199" lon="3.86669">
        <ele>34.8</ele>
        <time>2021-01-03T15:08:34Z</time>
      </trkpt>
      <trkpt lat="43.61205" lon="3.86673">
        <ele>34.6</ele>
        <time>2021-01-03T15:08:35Z</time>
      </trkpt>
      <trkpt lat="43.61209" lon="3.8668">
        <ele>34.5</ele>
        <time>2021-01-03T15:08:36Z</time>
      </trkpt>
      <trkpt lat="43.6121" lon="3.86688">
        <ele>34.4</ele>
        <time>2021-01-03T15:08:37Z</time>
      </trkpt>
      <trkpt lat="43.6121" lon="3.86697">
        <ele>34.6</ele>
        <time>2021-01-03T15:08:38Z</time>
      </trkpt>
      <trkpt lat="43.6121" lon="3.86705">
        <ele>45</ele>
        <time>2021-01-03T15:08:39Z</time>
      </trkpt>
      <trkpt lat="43.61209" lon="3.86713">
        <ele>35.5</ele>
        <time>2021-01-03T15:08:40Z</time>
      </trkpt>
      <trkpt lat="43.61208" lon="3.8672">
        <ele>35.9</ele>
        <time>2021-01-03T15:08:41Z</time>
      </trkpt>
      <trkpt lat="43.61208" lon="3.86728">
        <ele>36.1</ele>
        <time>2021-01-03T15:08:42Z</time>
      </trkpt>
      <trkpt lat="43.61207" lon="3.86734">
        <ele>36.2</ele>
        <time>2021-01-03T15:08:43Z</time>
      </trkpt>
      <trkpt lat="43.61206" lon="3.86741">
        <ele>36.3</ele>
        <time>2021-01-03T15:08:44Z</time>
      </trkpt>
      <trkpt lat="43.61206" lon="3.86748">
        <ele>36.4</ele>
        <time>2021-01-03T15:08:45Z</time>
      </trkpt>
      <trkpt lat="43.61206" lon="3.86754">
        <ele>36.5</ele>
        <time>2021-01-03T15:08:46Z</time>
      </trkpt>
      <trkpt lat="43.61206" lon="3.8676">
        <ele>36.6</ele>
        <time>2021-01-03T15:08:47Z</time>
      </trkpt>
      <trkpt lat="43.61206" lon="3.86766">
        <ele>36.8</ele>
        <time>2021-01-03T15:08:48Z</time>
      </trkpt>
      <trkpt lat="43.61205" lon="3.86772">
        <ele>45</ele>
        <time>2021-01-03T15:08:49Z</time>
      </trkpt>
      <trkpt lat="43.61205" lon="3.86777">
        <ele>37</ele>
        <time>2021-01-03T15:08:50Z</time>
      </trkpt>
      <trkpt lat="43.61206" lon="3.86783">
        <ele>37.2</ele>
        <time>2021-01-03T15:08:51Z</time>
      </trkpt>
      <trkpt lat="43.61207" lon="3.86788">
        <ele>37.4</ele>
        <time>2021-01-03T15:08:52Z</time>
      </trkpt>
      <trkpt lat="43.61207" lon="3.86793">
        <ele>37.5</ele>
        <time>2021-01-03T15:08:53Z</time>
      </trkpt>
      <trkpt lat="43.61208" lon="3.86797">
        <ele>37.7</ele>
        <time>2021-01-03T15:08:54Z</time>
      </trkpt>
      <trkpt lat="43.6121" lon="3.86802">
        <ele>37.9</ele>
        <time>2021-01-03T15:08:55Z</time>
      </trkpt>
      <trkpt lat="43.61211" lon="3.86806">
        <ele>38.1</ele>
        <time>2021-01-03T15:08:56Z</time>
      </trkpt>
      <trkpt lat="43.61213" lon="3.8681">
        <ele>38.6</ele>
        <time>2021-01-03T15:08:57Z</time>
      </trkpt>
      <trkpt lat="43.61214" lon="3.86813">
        <ele>38.9</ele>
        <time>2021-01-03T15:08:58Z</time>
      </trkpt>
      <trkpt lat="43.61216" lon="3.86816">
        <ele>45</ele>
        <time>2021-01-03T15:08:59Z</time>
      </trkpt>
      <trkpt lat="43.61218" lon="3.8682">
        <ele>39.4</ele>
        <time>2021-01-03T15:09:00Z</time>
      </trkpt>
      <trkpt lat="43.61219" lon="3.86824">
        <ele>39.7</ele>
        <time>2021-01-03T15:09:01Z</time>
      </trkpt>
      <trkpt lat="43.6122" lon="3.86827">
        <ele>39.9</ele>
        <time>2021-01-03T15:09:02Z</time>
      </trkpt>
      <trkpt lat="43.61221" lon="3.86831">
        <ele>40</ele>
        <time>2021-01-03T15:09:03Z</time>
      </trkpt>
      <trkpt lat="43.61221" lon="3.86835">
        <ele>40.3</ele>
        <time>2021-01-03T15:09:04Z</time>
      </trkpt>
      <trkpt lat="43.61221" lon="3.86839">
        <ele>40.5</ele>
        <time>2021-01-03T15:09:05Z</time>
      </trkpt>
      <trkpt lat="43.6122" lon="3.86843">
        <ele>40.8</ele>
        <time>2021-01-03T15:09:06Z</time>
      </trkpt>
      <trkpt lat="43.61221" lon="3.86846">
        <ele>40.7</ele>
        <time>2021-01-03T15:09:07Z</time>
      </trkpt>
      <trkpt lat="43.61221" lon="3.8685">
        <ele>40.9</ele>
        <time>2021-01-03T15:09:08Z</time>
      </trkpt>
      <trkpt lat="43.61221" lon="3.86854">
        <ele>47</ele>
        <time>2021-01-03T15:09:09Z</time>
      </trkpt>
      <trkpt lat="43.61221" lon="3.86857">
        <ele>41.2</ele>
        <time>2021-01-03T15:09:10Z</time>
      </trkpt>
      <trkpt lat="43.6122" lon="3.86861">
        <ele>41.6</ele>
        <time>2021-01-03T15:09:11Z</time>
      </trkpt>
      <trkpt lat="43.6122" lon="3.86865">
        <ele>41.6</ele>
        <time>2021-01-03T15:09:12Z</time>
      </trkpt>
      <trkpt lat="43.6122" lon="3.86869">
        <ele>41.6</ele>
        <time>2021-01-03T15:09:13Z</time>
      </trkpt>
      <trkpt lat="43.6122" lon="3.86873">
        <ele>41.6</ele>
        <time>2021-01-03T15:09:14Z</time>
      </trkpt>
      <trkpt lat="43.6122" lon="3.86877">
        <ele>41.6</ele>
        <time>2021-01-03T15:09:15Z</time>
      </trkpt>
      <trkpt lat="43.6122" lon="3.86881">
        <ele>41.6</ele>
        <time>2021-01-03T15:09:16Z</time>
      </trkpt>
      <trkpt lat="43.6122" lon="3.86885">
        <ele>41.6</ele>
        <time>2021-01-03T15:09:17Z</time>
      </trkpt>
      <trkpt lat="43.6122" lon="3.8689">
        <ele>41.6</ele>
        <time>2021-01-03T15:09:18Z</time>
      </trkpt>
      <trkpt lat="43.6122" lon="3.86894">
        <ele>41.6</ele>
        <time>2021-01-03T15:09:19Z</time>
      </trkpt>
      <trkpt lat="43.6122" lon="3.86899">
        <ele>49</ele>
        <time>2021-01-03T15:09:20Z</time>
      </trkpt>
      <trkpt lat="43.6122" lon="3.86904">
        <ele>41.6</ele>
        <time>2021-01-03T15:09:21Z</time>
      </trkpt>
      <trkpt lat="43.61219" lon="3.86908">
        <ele>41.9</ele>
        <time>2021-01-03T15:09:22Z</time>
      </trkpt>
      <trkpt lat="43.61219" lon="3.86913">
        <ele>41.9</ele>
        <time>2021-01-03T15:09:23Z</time>
      </trkpt>
      <trkpt lat="43.61219" lon="3.86918">
        <ele>41.9</ele>
        <time>2021-01-03T15:09:24Z</time>
      </trkpt>
      <trkpt lat="43.61218" lon="3.86923">
        <ele>42.2</ele>
        <time>2021-01-03T15:09:25Z</time>
      </trkpt>
      <trkpt lat="43.61218" lon="3.86928">
        <ele>42.2</ele>
        <time>2021-01-03T15:09:26Z</time>
      </trkpt>
      <trkpt lat="43.61217" lon="3.86933">
        <ele>42.5</ele>
        <time>2021-01-03T15:09:27Z</time>
      </trkpt>
      <trkpt lat="43.61217" lon="3.86938">
        <ele>42.5</ele>
        <time>2021-01-03T15:09:28Z</time>
      </trkpt>
      <trkpt lat="43.61217" lon="3.86943">
        <ele>50</ele>
        <time>2021-01-03T15:09:29Z</time>
      </trkpt>
      <trkpt lat="43.61217" lon="3.86948">
        <ele>42.5</ele>
        <time>2021-01-03T15:09:30Z</time>
      </trkpt>
      <trkpt lat="43.61216" lon="3.86954">
        <ele>42.8</ele>
        <time>2021-01-03T15:09:31Z</time>
      </trkpt>
      <trkpt lat="43.61217" lon="3.86959">
        <ele>42.5</ele>
        <time>2021-01-03T15:09:32Z</time>
      </trkpt>
      <trkpt lat="43.61217" lon="3.86964">
        <ele>42.5</ele>
        <time>2021-01-03T15:09:33Z</time>
      </trkpt>
      <trkpt lat="43.61216" lon="3.8697">
        <ele>42.8</ele>
        <time>2021-01-03T15:09:34Z</time>
      </trkpt>
      <trkpt lat="43.61216" lon="3.86975">
        <ele>42.8</ele>
        <time>2021-01-03T15:09:35Z</time>
      </trkpt>
      <trkpt lat="43.61216" lon="3.8698">
        <ele>42.8</ele>
        <time>2021-01-03T15:09:36Z</time>
      </trkpt>
      <trkpt lat="43.61216" lon="3.86986">
        <ele>42.8</ele>
        <time>2021-01-03T15:09:37Z</time>
      </trkpt>
      <trkpt lat="43.61215" lon="3.86991">
        <ele>43.1</ele>
        <time>2021-01-03T15:09:38Z</time>
      </trkpt>
      <trkpt lat="43.61215" lon="3.86997">
        <ele>43.1</ele>
        <time>2021-01-03T15:09:39Z</time>
      </trkpt>
      <trkpt lat="43.61214" lon="3.87002">
        <ele>52</ele>
        <time>2021-01-03T15:09:40Z</time>
      </trkpt>
      <trkpt lat="43.61214" lon="3.87008">
        <ele>43.2</ele>
        <time>2021-01-03T15:09:41Z</time>
      </trkpt>
      <trkpt lat="43.61213" lon="3.87013">
        <ele>43.3</ele>
        <time>2021-01-03T15:09:42Z</time>
      </trkpt>
      <trkpt lat="43.61212" lon="3.87018">
        <ele>43.5</ele>
        <time>2021-01-03T15:09:43Z</time>
      </trkpt>
      <trkpt lat="43.61212" lon="3.87024">
        <ele>43.4</ele>
        <time>2021-01-03T15:09:44Z</time>
      </trkpt>
      <trkpt lat="43.61212" lon="3.87029">
        <ele>43.3</ele>
        <time>2021-01-03T15:09:45Z</time>
      </trkpt>
      <trkpt lat="43.61211" lon="3.87035">
        <ele>43.6</ele>
        <time>2021-01-03T15:09:46Z</time>
      </trkpt>
      <trkpt lat="43.61211" lon="3.8704">
        <ele>43.6</ele>
        <time>2021-01-03T15:09:47Z</time>
      </trkpt>
      <trkpt lat="43.61211" lon="3.87046">
        <ele>43.6</ele>
        <time>2021-01-03T15:09:48Z</time>
      </trkpt>
      <trkpt lat="43.6121" lon="3.87051">
        <ele>53</ele>
        <time>2021-01-03T15:09:49Z</time>
      </trkpt>
      <trkpt lat="43.61209" lon="3.87057">
        <ele>44.2</ele>
        <time>2021-01-03T15:09:50Z</time>
      </trkpt>
      <trkpt lat="43.61209" lon="3.87062">
        <ele>44.1</ele>
        <time>2021-01-03T15:09:51Z</time>
      </trkpt>
      <trkpt lat="43.61209" lon="3.87068">
        <ele>43.8</ele>
        <time>2021-01-03T15:09:52Z</time>
      </trkpt>
      <trkpt lat="43.61208" lon="3.87073">
        <ele>44</ele>
        <time>2021-01-03T15:09:53Z</time>
      </trkpt>
      <trkpt lat="43.61208" lon="3.87079">
        <ele>43.8</ele>
        <time>2021-01-03T15:09:54Z</time>
      </trkpt>
      <trkpt lat="43.61208" lon="3.87085">
        <ele>43.6</ele>
        <time>2021-01-03T15:09:55Z</time>
      </trkpt>
      <trkpt lat="43.61207" lon="3.8709">
        <ele>43.9</ele>
        <time>2021-01-03T15:09:56Z</time>
      </trkpt>
      <trkpt lat="43.61207" lon="3.87095">
        <ele>43.8</ele>
        <time>2021-01-03T15:09:57Z</time>
      </trkpt>
      <trkpt lat="43.61207" lon="3.871">
        <ele>43.8</ele>
        <time>2021-01-03T15:09:58Z</time>
      </trkpt>
      <trkpt lat="43.61206" lon="3.87103">
        <ele>54</ele>
        <time>2021-01-03T15:09:59Z</time>
      </trkpt>
      <trkpt lat="43.61206" lon="3.87106">
        <ele>43.8</ele>
        <time>2021-01-03T15:10:00Z</time>
      </trkpt>
      <trkpt lat="43.61205" lon="3.8711">
        <ele>43.9</ele>
        <time>2021-01-03T15:10:01Z</time>
      </trkpt>
      <trkpt lat="43.61205" lon="3.87115">
        <ele>43.8</ele>
        <time>2021-01-03T15:10:02Z</time>
      </trkpt>
      <trkpt lat="43.61205" lon="3.8712">
        <ele>43.7</ele>
        <time>2021-01-03T15:10:03Z</time>
      </trkpt>
      <trkpt lat="43.61205" lon="3.87125">
        <ele>43.7</ele>
        <time>2021-01-03T15:10:04Z</time>
      </trkpt>
      <trkpt lat="43.61204" lon="3.87131">
        <ele>43.7</ele>
        <time>2021-01-03T15:10:05Z</time>
      </trkpt>
      <trkpt lat="43.61204" lon="3.87137">
        <ele>43.6</ele>
        <time>2021-01-03T15:10:06Z</time>
      </trkpt>
      <trkpt lat="43.61204" lon="3.87142">
        <ele>43.6</ele>
        <time>2021-01-03T15:10:07Z</time>
      </trkpt>
      <trkpt lat="43.61203" lon="3.87148">
        <ele>43.8</ele>
        <time>2021-01-03T15:10:08Z</time>
      </trkpt>
      <trkpt lat="43.61203" lon="3.87154">
        <ele>55</ele>
        <time>2021-01-03T15:10:09Z</time>
      </trkpt>
      <trkpt lat="43.61203" lon="3.87159">
        <ele>43.8</ele>
        <time>2021-01-03T15:10:10Z</time>
      </trkpt>
      <trkpt lat="43.61202" lon="3.87165">
        <ele>43.9</ele>
        <time>2021-01-03T15:10:11Z</time>
      </trkpt>
      <trkpt lat="43.61202" lon="3.8717">
        <ele>44.1</ele>
        <time>2021-01-03T15:10:12Z</time>
      </trkpt>
      <trkpt lat="43.61202" lon="3.87176">
        <ele>44.3</ele>
        <time>2021-01-03T15:10:13Z</time>
      </trkpt>
      <trkpt lat="43.61202" lon="3.87181">
        <ele>44.6</ele>
        <time>2021-01-03T15:10:14Z</time>
      </trkpt>
      <trkpt lat="43.61201" lon="3.87186">
        <ele>44.9</ele>
        <time>2021-01-03T15:10:15Z</time>
      </trkpt>
      <trkpt lat="43.61201" lon="3.87192">
        <ele>45.2</ele>
        <time>2021-01-03T15:10:16Z</time>
      </trkpt>
      <trkpt lat="43.61202" lon="3.87197">
        <ele>45.1</ele>
        <time>2021-01-03T15:10:17Z</time>
      </trkpt>
      <trkpt lat="43.61204" lon="3.87202">
        <ele>44.9</ele>
        <time>2021-01-03T15:10:18Z</time>
      </trkpt>
      <trkpt lat="43.61206" lon="3.87206">
        <ele>56</ele>
        <time>2021-01-03T15:10:19Z</time>
      </trkpt>
      <trkpt lat="43.61208" lon="3.87211">
        <ele>44.5</ele>
        <time>2021-01-03T15:10:20Z</time>
      </trkpt>
      <trkpt lat="43.61209" lon="3.87216">
        <ele>44.5</ele>
        <time>2021-01-03T15:10:21Z</time>
      </trkpt>
      <trkpt lat="43.61212" lon="3.87221">
        <ele>44.4</ele>
        <time>2021-01-03T15:10:22Z</time>
      </trkpt>
      <trkpt lat="43.61216" lon="3.87225">
        <ele>44.5</ele>
        <time>2021-01-03T15:10:23Z</time>
      </trkpt>
      <trkpt lat="43.6122" lon="3.8723">
        <ele>44.7</ele>
        <time>2021-01-03T15:10:24Z</time>
      </trkpt>
      <trkpt lat="43.61224" lon="3.87235">
        <ele>44.7</ele>
        <time>2021-01-03T15:10:25Z</time>
      </trkpt>
      <trkpt lat="43.61227" lon="3.87241">
        <ele>44.7</ele>
        <time>2021-01-03T15:10:26Z</time>
      </trkpt>
      <trkpt lat="43.61231" lon="3.87244">
        <ele>44.4</ele>
        <time>2021-01-03T15:10:27Z</time>
      </trkpt>
      <trkpt lat="43.61235" lon="3.87246">
        <ele>43.9</ele>
        <time>2021-01-03T15:10:28Z</time>
      </trkpt>
      <trkpt lat="43.61241" lon="3.87248">
        <ele>57</ele>
        <time>2021-01-03T15:10:29Z</time>
      </trkpt>
      <trkpt lat="43.61247" lon="3.8725">
        <ele>42.4</ele>
        <time>2021-01-03T15:10:30Z</time>
      </trkpt>
      <trkpt lat="43.61252" lon="3.87252">
        <ele>41.9</ele>
        <time>2021-01-03T15:10:31Z</time>
      </trkpt>
      <trkpt lat="43.61255" lon="3.87254">
        <ele>41.6</ele>
        <time>2021-01-03T15:10:32Z</time>
      </trkpt>
      <trkpt lat="43.61257" lon="3.87256">
        <ele>41.5</ele>
        <time>2021-01-03T15:10:33Z</time>
      </trkpt>
      <trkpt lat="43.61258" lon="3.87259">
        <ele>41.5</ele>
        <time>2021-01-03T15:10:34Z</time>
      </trkpt>
      <trkpt lat="43.61258" lon="3.87262">
        <ele>41.6</ele>
        <time>2021-01-03T15:10:35Z</time>
      </trkpt>
      <trkpt lat="43.61258" lon="3.87266">
        <ele>41.7</ele>
        <time>2021-01-03T15:10:36Z</time>
      </trkpt>
      <trkpt lat="43.61257" lon="3.87269">
        <ele>41.9</ele>
        <time>2021-01-03T15:10:37Z</time>
      </trkpt>
      <trkpt lat="43.61255" lon="3.87272">
        <ele>42.3</ele>
        <time>2021-01-03T15:10:38Z</time>
      </trkpt>
      <trkpt lat="43.61254" lon="3.87275">
        <ele>58</ele>
        <time>2021-01-03T15:10:39Z</time>
      </trkpt>
      <trkpt lat="43.61252" lon="3.87277">
        <ele>42.8</ele>
        <time>2021-01-03T15:10:40Z</time>
      </trkpt>
      <trkpt lat="43.61251" lon="3.87279">
        <ele>42.9</ele>
        <time>2021-01-03T15:10:41Z</time>
      </trkpt>
      <trkpt lat="43.61249" lon="3.87281">
        <ele>43.2</ele>
        <time>2021-01-03T15:10:42Z</time>
      </trkpt>
      <trkpt lat="43.61247" lon="3.87283">
        <ele>43.6</ele>
        <time>2021-01-03T15:10:43Z</time>
      </trkpt>
      <trkpt lat="43.61245" lon="3.87286">
        <ele>44</ele>
        <time>2021-01-03T15:10:44Z</time>
      </trkpt>
      <trkpt lat="43.61243" lon="3.87289">
        <ele>44.3</ele>
        <time>2021-01-03T15:10:45Z</time>
      </trkpt>
      <trkpt lat="43.61241" lon="3.87291">
        <ele>44.6</ele>
        <time>2021-01-03T15:10:46Z</time>
      </trkpt>
      <trkpt lat="43.61239" lon="3.87294">
        <ele>44.9</ele>
        <time>2021-01-03T15:10:47Z</time>
      </trkpt>
      <trkpt lat="43.61238" lon="3.87296">
        <ele>45</ele>
        <time>2021-01-03T15:10:48Z</time>
      </trkpt>
      <trkpt lat="43.61236" lon="3.87299">
        <ele>59</ele>
        <time>2021-01-03T15:10:49Z</time>
      </trkpt>
      <trkpt lat="43.61234" lon="3.87302">
        <ele>45.5</ele>
        <time>2021-01-03T15:10:50Z</time>
      </trkpt>
      <trkpt lat="43.61232" lon="3.87304">
        <ele>45.7</ele>
        <time>2021-01-03T15:10:51Z</time>
      </trkpt>
      <trkpt lat="43.6123" lon="3.87308">
        <ele>45.8</ele>
        <time>2021-01-03T15:10:52Z</time>
      </trkpt>
      <trkpt lat="43.61227" lon="3.87315">
        <ele>46.2</ele>
        <time>2021-01-03T15:10:54Z</time>
      </trkpt>
      <trkpt lat="43.6122" lon="3.87326">
        <ele>47.3</ele>
        <time>2021-01-03T15:10:58Z</time>
      </trkpt>
      <trkpt lat="43.61213" lon="3.87335">
        <ele>48.2</ele>
        <time>2021-01-03T15:11:02Z</time>
      </trkpt>
      <trkpt lat="43.61206" lon="3.87346">
        <ele>48.6</ele>
        <time>2021-01-03T15:11:07Z</time>
      </trkpt>
      <trkpt lat="43.612" lon="3.87359">
        <ele>48.5</ele>
        <time>2021-01-03T15:11:13Z</time>
      </trkpt>
      <trkpt lat="43.61193" lon="3.87366">
        <ele>49.1</ele>
        <time>2021-01-03T15:11:16Z</time>
      </trkpt>
      <trkpt lat="43.6119" lon="3.87378">
        <ele>49.2</ele>
        <time>2021-01-03T15:11:22Z</time>
      </trkpt>
      <trkpt lat="43.61184" lon="3.87392">
        <ele>49.4</ele>
        <time>2021-01-03T15:11:25Z</time>
      </trkpt>
      <trkpt lat="43.61185" lon="3.87397">
        <ele>49.3</ele>
        <time>2021-01-03T15:11:26Z</time>
      </trkpt>
      <trkpt lat="43.61186" lon="3.87402">
        <ele>49.3</ele>
        <time>2021-01-03T15:11:27Z</time>
      </trkpt>
      <trkpt lat="43.61188" lon="3.87406">
        <ele>49.2</ele>
        <time>2021-01-03T15:11:28Z</time>
      </trkpt>
      <trkpt lat="43.61189" lon="3.87409">
        <ele>52</ele>
        <time>2021-01-03T15:11:29Z</time>
      </trkpt>
      <trkpt lat="43.61192" lon="3.87412">
        <ele>49.1</ele>
        <time>2021-01-03T15:11:30Z</time>
      </trkpt>
      <trkpt lat="43.61194" lon="3.87417">
        <ele>49</ele>
        <time>2021-01-03T15:11:31Z</time>
      </trkpt>
      <trkpt lat="43.61195" lon="3.87422">
        <ele>48.7</ele>
        <time>2021-01-03T15:11:32Z</time>
      </trkpt>
      <trkpt lat="43.61197" lon="3.87426">
        <ele>48.3</ele>
        <time>2021-01-03T15:11:33Z</time>
      </trkpt>
      <trkpt lat="43.612" lon="3.87429">
        <ele>47.7</ele>
        <time>2021-01-03T15:11:34Z</time>
      </trkpt>
      <trkpt lat="43.61202" lon="3.87432">
        <ele>47.2</ele>
        <time>2021-01-03T15:11:35Z</time>
      </trkpt>
      <trkpt lat="43.61205" lon="3.87435">
        <ele>46.6</ele>
        <time>2021-01-03T15:11:36Z</time>
      </trkpt>
      <trkpt lat="43.61207" lon="3.87438">
        <ele>46.1</ele>
        <time>2021-01-03T15:11:37Z</time>
      </trkpt>
      <trkpt lat="43.61209" lon="3.87442">
        <ele>45.5</ele>
        <time>2021-01-03T15:11:38Z</time>
      </trkpt>
      <trkpt lat="43.61208" lon="3.87446">
        <ele>50</ele>
        <time>2021-01-03T15:11:39Z</time>
      </trkpt>
      <trkpt lat="43.61206" lon="3.87451">
        <ele>46</ele>
        <time>2021-01-03T15:11:40Z</time>
      </trkpt>
      <trkpt lat="43.61204" lon="3.87455">
        <ele>46.4</ele>
        <time>2021-01-03T15:11:41Z</time>
      </trkpt>
      <trkpt lat="43.61202" lon="3.87459">
        <ele>46.9</ele>
        <time>2021-01-03T15:11:42Z</time>
      </trkpt>
      <trkpt lat="43.612" lon="3.87464">
        <ele>47.4</ele>
        <time>2021-01-03T15:11:43Z</time>
      </trkpt>
      <trkpt lat="43.612" lon="3.87468">
        <ele>47.5</ele>
        <time>2021-01-03T15:11:44Z</time>
      </trkpt>
      <trkpt lat="43.61201" lon="3.87473">
        <ele>47.3</ele>
        <time>2021-01-03T15:11:45Z</time>
      </trkpt>
      <trkpt lat="43.61202" lon="3.87477">
        <ele>46.9</ele>
        <time>2021-01-03T15:11:46Z</time>
      </trkpt>
      <trkpt lat="43.61204" lon="3.87481">
        <ele>46.3</ele>
        <time>2021-01-03T15:11:47Z</time>
      </trkpt>
      <trkpt lat="43.61206" lon="3.87485">
        <ele>45.6</ele>
        <time>2021-01-03T15:11:48Z</time>
      </trkpt>
      <trkpt lat="43.61206" lon="3.87491">
        <ele>51</ele>
        <time>2021-01-03T15:11:49Z</time>
      </trkpt>
      <trkpt lat="43.61206" lon="3.87497">
        <ele>45.2</ele>
        <time>2021-01-03T15:11:50Z</time>
      </trkpt>
      <trkpt lat="43.61205" lon="3.87501">
        <ele>45.4</ele>
        <time>2021-01-03T15:11:51Z</time>
      </trkpt>
      <trkpt lat="43.61204" lon="3.87504">
        <ele>45.6</ele>
        <time>2021-01-03T15:11:52Z</time>
      </trkpt>
      <trkpt lat="43.61202" lon="3.87508">
        <ele>46.1</ele>
        <time>2021-01-03T15:11:53Z</time>
      </trkpt>
      <trkpt lat="43.61199" lon="3.87513">
        <ele>46.7</ele>
        <time>2021-01-03T15:11:54Z</time>
      </trkpt>
      <trkpt lat="43.61198" lon="3.87518">
        <ele>46.8</ele>
        <time>2021-01-03T15:11:55Z</time>
      </trkpt>
      <trkpt lat="43.61196" lon="3.87524">
        <ele>46.9</ele>
        <time>2021-01-03T15:11:56Z</time>
      </trkpt>
      <trkpt lat="43.61195" lon="3.87531">
        <ele>46.9</ele>
        <time>2021-01-03T15:11:57Z</time>
      </trkpt>
      <trkpt lat="43.61195" lon="3.87537">
        <ele>46.9</ele>
        <time>2021-01-03T15:11:58Z</time>
      </trkpt>
      <trkpt lat="43.61195" lon="3.87544">
        <ele>55</ele>
        <time>2021-01-03T15:11:59Z</time>
      </trkpt>
      <trkpt lat="43.61195" lon="3.87549">
        <ele>47</ele>
        <time>2021-01-03T15:12:00Z</time>
      </trkpt>
      <trkpt lat="43.61194" lon="3.87553">
        <ele>47</ele>
        <time>2021-01-03T15:12:01Z</time>
      </trkpt>
      <trkpt lat="43.61193" lon="3.87566">
        <ele>47.1</ele>
        <time>2021-01-03T15:12:04Z</time>
      </trkpt>
      <trkpt lat="43.61191" lon="3.87582">
        <ele>47.1</ele>
        <time>2021-01-03T15:12:08Z</time>
      </trkpt>
      <trkpt lat="43.61189" lon="3.87594">
        <ele>46.5</ele>
        <time>2021-01-03T15:12:10Z</time>
      </trkpt>
      <trkpt lat="43.61186" lon="3.87608">
        <ele>45.8</ele>
        <time>2021-01-03T15:12:12Z</time>
      </trkpt>
      <trkpt lat="43.61182" lon="3.87625">
        <ele>45.1</ele>
        <time>2021-01-03T15:12:16Z</time>
      </trkpt>
      <trkpt lat="43.61181" lon="3.87628">
        <ele>45</ele>
        <time>2021-01-03T15:12:17Z</time>
      </trkpt>
      <trkpt lat="43.61181" lon="3.87631">
        <ele>44.9</ele>
        <time>2021-01-03T15:12:18Z</time>
      </trkpt>
      <trkpt lat="43.61182" lon="3.87634">
        <ele>57</ele>
        <time>2021-01-03T15:12:19Z</time>
      </trkpt>
      <trkpt lat="43.61182" lon="3.87638">
        <ele>44.4</ele>
        <time>2021-01-03T15:12:20Z</time>
      </trkpt>
      <trkpt lat="43.61182" lon="3.87643">
        <ele>44.5</ele>
        <time>2021-01-03T15:12:21Z</time>
      </trkpt>
      <trkpt lat="43.61182" lon="3.87647">
        <ele>44.6</ele>
        <time>2021-01-03T15:12:22Z</time>
      </trkpt>
      <trkpt lat="43.61182" lon="3.87651">
        <ele>44.8</ele>
        <time>2021-01-03T15:12:23Z</time>
      </trkpt>
      <trkpt lat="43.61182" lon="3.87654">
        <ele>44.9</ele>
        <time>2021-01-03T15:12:24Z</time>
      </trkpt>
      <trkpt lat="43.6118" lon="3.87664">
        <ele>45.5</ele>
        <time>2021-01-03T15:12:27Z</time>
      </trkpt>
      <trkpt lat="43.61178" lon="3.87673">
        <ele>45.9</ele>
        <time>2021-01-03T15:12:30Z</time>
      </trkpt>
      <trkpt lat="43.61178" lon="3.87676">
        <ele>45.9</ele>
        <time>2021-01-03T15:12:31Z</time>
      </trkpt>
      <trkpt lat="43.61177" lon="3.8768">
        <ele>46.1</ele>
        <time>2021-01-03T15:12:32Z</time>
      </trkpt>
      <trkpt lat="43.61176" lon="3.87684">
        <ele>46.2</ele>
        <time>2021-01-03T15:12:33Z</time>
      </trkpt>
      <trkpt lat="43.61174" lon="3.877">
        <ele>46.5</ele>
        <time>2021-01-03T15:12:37Z</time>
      </trkpt>
      <trkpt lat="43.61171" lon="3.87705">
        <ele>46.7</ele>
        <time>2021-01-03T15:12:38Z</time>
      </trkpt>
      <trkpt lat="43.61168" lon="3.87711">
        <ele>58</ele>
        <time>2021-01-03T15:12:39Z</time>
      </trkpt>
      <trkpt lat="43.61166" lon="3.87716">
        <ele>47</ele>
        <time>2021-01-03T15:12:40Z</time>
      </trkpt>
      <trkpt lat="43.61165" lon="3.8772">
        <ele>47</ele>
        <time>2021-01-03T15:12:41Z</time>
      </trkpt>
      <trkpt lat="43.61164" lon="3.87723">
        <ele>47</ele>
        <time>2021-01-03T15:12:42Z</time>
      </trkpt>
      <trkpt lat="43.61163" lon="3.87726">
        <ele>47</ele>
        <time>2021-01-03T15:12:43Z</time>
      </trkpt>
      <trkpt lat="43.61162" lon="3.8773">
        <ele>47</ele>
        <time>2021-01-03T15:12:44Z</time>
      </trkpt>
      <trkpt lat="43.61161" lon="3.87733">
        <ele>47</ele>
        <time>2021-01-03T15:12:45Z</time>
      </trkpt>
      <trkpt lat="43.6116" lon="3.87736">
        <ele>47</ele>
        <time>2021-01-03T15:12:46Z</time>
      </trkpt>
      <trkpt lat="43.61159" lon="3.87738">
        <ele>47</ele>
        <time>2021-01-03T15:12:48Z</time>
      </trkpt>
      <trkpt lat="43.61157" lon="3.87738">
        <ele>58</ele>
        <time>2021-01-03T15:12:55Z</time>
      </trkpt>
    </trkseg>
  </trk>
</gpx>